<?xml version="1.0" encoding="UTF-8"?>
<gpx version="1.1" creator="https://www.youtrack.es" xsi:schemaLocation="http://www.topografix.com/GPX/1/1 http://www.topografix.com/GPX/1/1/gpx.xsd http://www.garmin.com/xmlschemas/GpxExtensions/v3 http://www.garmin.com/xmlschemas/GpxExtensionsv3.xsd http://www.garmin.com/xmlschemas/TrackPointExtension/v1 http://www.garmin.com/xmlschemas/TrackPointExtensionv1.xsd" xmlns:gpxtpx="http://www.garmin.com/xmlschemas/TrackPointExtension/v1" xmlns:gpxx="http://www.garmin.com/xmlschemas/GpxExtensions/v3" xmlns:xsi="http://www.w3.org/2001/XMLSchema-instance">
  <metadata>
    <link href="https://www.youtrack.es">
      <text>YouTrack.es</text>
    </link>
    <time>2026-05-09T01:52:04Z</time>
  </metadata>
  <trk>
    <src>https://www.youtrack.es</src>
    <link href="https://www.youtrack.es/ruta/15292-estany-de-la-nou-refugi-de-claror">
      <text>YouTrack.es</text>
    </link>
    <trkseg>
      <trkpt lat="42.508430" lon="1.545473">
        <ele>1111.000000</ele>
        <time>2020-08-22T10:25:49Z</time>
      </trkpt>
      <trkpt lat="42.508430" lon="1.545473">
        <ele>1111.000000</ele>
        <time>2020-08-22T10:25:49Z</time>
      </trkpt>
      <trkpt lat="42.508427" lon="1.545471">
        <ele>1111.000000</ele>
        <time>2020-08-22T10:25:49Z</time>
      </trkpt>
      <trkpt lat="42.508427" lon="1.545471">
        <ele>1111.000000</ele>
        <time>2020-08-22T10:25:49Z</time>
      </trkpt>
      <trkpt lat="42.508423" lon="1.545470">
        <ele>1111.000000</ele>
        <time>2020-08-22T10:25:49Z</time>
      </trkpt>
      <trkpt lat="42.508423" lon="1.545470">
        <ele>1111.000000</ele>
        <time>2020-08-22T10:25:49Z</time>
      </trkpt>
      <trkpt lat="42.508423" lon="1.545468">
        <ele>1112.000000</ele>
        <time>2020-08-22T10:25:49Z</time>
      </trkpt>
      <trkpt lat="42.508423" lon="1.545468">
        <ele>1112.000000</ele>
        <time>2020-08-22T10:25:49Z</time>
      </trkpt>
      <trkpt lat="42.508419" lon="1.545467">
        <ele>1112.000000</ele>
        <time>2020-08-22T10:25:49Z</time>
      </trkpt>
      <trkpt lat="42.508419" lon="1.545467">
        <ele>1112.000000</ele>
        <time>2020-08-22T10:25:49Z</time>
      </trkpt>
      <trkpt lat="42.508415" lon="1.545464">
        <ele>1115.000000</ele>
        <time>2020-08-22T10:25:49Z</time>
      </trkpt>
      <trkpt lat="42.508415" lon="1.545464">
        <ele>1115.000000</ele>
        <time>2020-08-22T10:25:49Z</time>
      </trkpt>
      <trkpt lat="42.508411" lon="1.545461">
        <ele>1115.000000</ele>
        <time>2020-08-22T10:25:56Z</time>
      </trkpt>
      <trkpt lat="42.508411" lon="1.545461">
        <ele>1115.000000</ele>
        <time>2020-08-22T10:25:56Z</time>
      </trkpt>
      <trkpt lat="42.508404" lon="1.545456">
        <ele>1115.000000</ele>
        <time>2020-08-22T10:25:56Z</time>
      </trkpt>
      <trkpt lat="42.508404" lon="1.545456">
        <ele>1115.000000</ele>
        <time>2020-08-22T10:25:56Z</time>
      </trkpt>
      <trkpt lat="42.508400" lon="1.545451">
        <ele>1115.000000</ele>
        <time>2020-08-22T10:25:56Z</time>
      </trkpt>
      <trkpt lat="42.508400" lon="1.545451">
        <ele>1115.000000</ele>
        <time>2020-08-22T10:25:56Z</time>
      </trkpt>
      <trkpt lat="42.508396" lon="1.545446">
        <ele>1115.000000</ele>
        <time>2020-08-22T10:25:56Z</time>
      </trkpt>
      <trkpt lat="42.508396" lon="1.545446">
        <ele>1115.000000</ele>
        <time>2020-08-22T10:25:56Z</time>
      </trkpt>
      <trkpt lat="42.508381" lon="1.545441">
        <ele>1115.000000</ele>
        <time>2020-08-22T10:25:56Z</time>
      </trkpt>
      <trkpt lat="42.508381" lon="1.545441">
        <ele>1115.000000</ele>
        <time>2020-08-22T10:25:56Z</time>
      </trkpt>
      <trkpt lat="42.508369" lon="1.545437">
        <ele>1115.000000</ele>
        <time>2020-08-22T10:26:03Z</time>
      </trkpt>
      <trkpt lat="42.508369" lon="1.545437">
        <ele>1115.000000</ele>
        <time>2020-08-22T10:26:03Z</time>
      </trkpt>
      <trkpt lat="42.508358" lon="1.545434">
        <ele>1115.000000</ele>
        <time>2020-08-22T10:26:03Z</time>
      </trkpt>
      <trkpt lat="42.508358" lon="1.545434">
        <ele>1116.000000</ele>
        <time>2020-08-22T10:26:03Z</time>
      </trkpt>
      <trkpt lat="42.508343" lon="1.545432">
        <ele>1116.000000</ele>
        <time>2020-08-22T10:26:03Z</time>
      </trkpt>
      <trkpt lat="42.508343" lon="1.545432">
        <ele>1116.000000</ele>
        <time>2020-08-22T10:26:03Z</time>
      </trkpt>
      <trkpt lat="42.508335" lon="1.545430">
        <ele>1116.000000</ele>
        <time>2020-08-22T10:26:03Z</time>
      </trkpt>
      <trkpt lat="42.508335" lon="1.545430">
        <ele>1116.000000</ele>
        <time>2020-08-22T10:26:03Z</time>
      </trkpt>
      <trkpt lat="42.508320" lon="1.545430">
        <ele>1119.000000</ele>
        <time>2020-08-22T10:26:03Z</time>
      </trkpt>
      <trkpt lat="42.508320" lon="1.545430">
        <ele>1119.000000</ele>
        <time>2020-08-22T10:26:03Z</time>
      </trkpt>
      <trkpt lat="42.508312" lon="1.545431">
        <ele>1119.000000</ele>
        <time>2020-08-22T10:26:03Z</time>
      </trkpt>
      <trkpt lat="42.508312" lon="1.545431">
        <ele>1119.000000</ele>
        <time>2020-08-22T10:26:03Z</time>
      </trkpt>
      <trkpt lat="42.508301" lon="1.545435">
        <ele>1119.000000</ele>
        <time>2020-08-22T10:26:03Z</time>
      </trkpt>
      <trkpt lat="42.508301" lon="1.545435">
        <ele>1120.000000</ele>
        <time>2020-08-22T10:26:03Z</time>
      </trkpt>
      <trkpt lat="42.508289" lon="1.545442">
        <ele>1120.000000</ele>
        <time>2020-08-22T10:26:10Z</time>
      </trkpt>
      <trkpt lat="42.508289" lon="1.545442">
        <ele>1120.000000</ele>
        <time>2020-08-22T10:26:10Z</time>
      </trkpt>
      <trkpt lat="42.508282" lon="1.545450">
        <ele>1120.000000</ele>
        <time>2020-08-22T10:26:10Z</time>
      </trkpt>
      <trkpt lat="42.508282" lon="1.545450">
        <ele>1121.000000</ele>
        <time>2020-08-22T10:26:10Z</time>
      </trkpt>
      <trkpt lat="42.508274" lon="1.545458">
        <ele>1121.000000</ele>
        <time>2020-08-22T10:26:10Z</time>
      </trkpt>
      <trkpt lat="42.508274" lon="1.545458">
        <ele>1121.000000</ele>
        <time>2020-08-22T10:26:10Z</time>
      </trkpt>
      <trkpt lat="42.508270" lon="1.545467">
        <ele>1122.000000</ele>
        <time>2020-08-22T10:26:10Z</time>
      </trkpt>
      <trkpt lat="42.508270" lon="1.545467">
        <ele>1122.000000</ele>
        <time>2020-08-22T10:26:10Z</time>
      </trkpt>
      <trkpt lat="42.508266" lon="1.545476">
        <ele>1122.000000</ele>
        <time>2020-08-22T10:26:10Z</time>
      </trkpt>
      <trkpt lat="42.508266" lon="1.545476">
        <ele>1122.000000</ele>
        <time>2020-08-22T10:26:10Z</time>
      </trkpt>
      <trkpt lat="42.508263" lon="1.545485">
        <ele>1122.000000</ele>
        <time>2020-08-22T10:26:10Z</time>
      </trkpt>
      <trkpt lat="42.508263" lon="1.545485">
        <ele>1122.000000</ele>
        <time>2020-08-22T10:26:10Z</time>
      </trkpt>
      <trkpt lat="42.508255" lon="1.545496">
        <ele>1122.000000</ele>
        <time>2020-08-22T10:26:10Z</time>
      </trkpt>
      <trkpt lat="42.508255" lon="1.545496">
        <ele>1122.000000</ele>
        <time>2020-08-22T10:26:10Z</time>
      </trkpt>
      <trkpt lat="42.508251" lon="1.545506">
        <ele>1123.000000</ele>
        <time>2020-08-22T10:26:17Z</time>
      </trkpt>
      <trkpt lat="42.508251" lon="1.545506">
        <ele>1123.000000</ele>
        <time>2020-08-22T10:26:17Z</time>
      </trkpt>
      <trkpt lat="42.508244" lon="1.545518">
        <ele>1123.000000</ele>
        <time>2020-08-22T10:26:17Z</time>
      </trkpt>
      <trkpt lat="42.508244" lon="1.545518">
        <ele>1124.000000</ele>
        <time>2020-08-22T10:26:17Z</time>
      </trkpt>
      <trkpt lat="42.508240" lon="1.545529">
        <ele>1124.000000</ele>
        <time>2020-08-22T10:26:17Z</time>
      </trkpt>
      <trkpt lat="42.508240" lon="1.545529">
        <ele>1124.000000</ele>
        <time>2020-08-22T10:26:17Z</time>
      </trkpt>
      <trkpt lat="42.508236" lon="1.545540">
        <ele>1124.000000</ele>
        <time>2020-08-22T10:26:17Z</time>
      </trkpt>
      <trkpt lat="42.508236" lon="1.545540">
        <ele>1124.000000</ele>
        <time>2020-08-22T10:26:17Z</time>
      </trkpt>
      <trkpt lat="42.508232" lon="1.545551">
        <ele>1124.000000</ele>
        <time>2020-08-22T10:26:17Z</time>
      </trkpt>
      <trkpt lat="42.508232" lon="1.545551">
        <ele>1124.000000</ele>
        <time>2020-08-22T10:26:17Z</time>
      </trkpt>
      <trkpt lat="42.508228" lon="1.545569">
        <ele>1126.000000</ele>
        <time>2020-08-22T10:26:17Z</time>
      </trkpt>
      <trkpt lat="42.508228" lon="1.545569">
        <ele>1126.000000</ele>
        <time>2020-08-22T10:26:17Z</time>
      </trkpt>
      <trkpt lat="42.508217" lon="1.545586">
        <ele>1126.000000</ele>
        <time>2020-08-22T10:26:17Z</time>
      </trkpt>
      <trkpt lat="42.508217" lon="1.545586">
        <ele>1126.000000</ele>
        <time>2020-08-22T10:26:17Z</time>
      </trkpt>
      <trkpt lat="42.508213" lon="1.545603">
        <ele>1126.000000</ele>
        <time>2020-08-22T10:26:17Z</time>
      </trkpt>
      <trkpt lat="42.508213" lon="1.545603">
        <ele>1126.000000</ele>
        <time>2020-08-22T10:26:17Z</time>
      </trkpt>
      <trkpt lat="42.508205" lon="1.545618">
        <ele>1127.000000</ele>
        <time>2020-08-22T10:26:17Z</time>
      </trkpt>
      <trkpt lat="42.508205" lon="1.545618">
        <ele>1127.000000</ele>
        <time>2020-08-22T10:26:17Z</time>
      </trkpt>
      <trkpt lat="42.508202" lon="1.545634">
        <ele>1127.000000</ele>
        <time>2020-08-22T10:26:17Z</time>
      </trkpt>
      <trkpt lat="42.508202" lon="1.545634">
        <ele>1127.000000</ele>
        <time>2020-08-22T10:26:17Z</time>
      </trkpt>
      <trkpt lat="42.508190" lon="1.545651">
        <ele>1132.000000</ele>
        <time>2020-08-22T10:26:17Z</time>
      </trkpt>
      <trkpt lat="42.508190" lon="1.545651">
        <ele>1133.000000</ele>
        <time>2020-08-22T10:26:17Z</time>
      </trkpt>
      <trkpt lat="42.508175" lon="1.545669">
        <ele>1133.000000</ele>
        <time>2020-08-22T10:26:17Z</time>
      </trkpt>
      <trkpt lat="42.508175" lon="1.545669">
        <ele>1133.000000</ele>
        <time>2020-08-22T10:26:17Z</time>
      </trkpt>
      <trkpt lat="42.508163" lon="1.545687">
        <ele>1133.000000</ele>
        <time>2020-08-22T10:26:17Z</time>
      </trkpt>
      <trkpt lat="42.508163" lon="1.545687">
        <ele>1133.000000</ele>
        <time>2020-08-22T10:26:17Z</time>
      </trkpt>
      <trkpt lat="42.508156" lon="1.545705">
        <ele>1134.000000</ele>
        <time>2020-08-22T10:26:17Z</time>
      </trkpt>
      <trkpt lat="42.508156" lon="1.545705">
        <ele>1134.000000</ele>
        <time>2020-08-22T10:26:17Z</time>
      </trkpt>
      <trkpt lat="42.508141" lon="1.545730">
        <ele>1134.000000</ele>
        <time>2020-08-22T10:26:17Z</time>
      </trkpt>
      <trkpt lat="42.508141" lon="1.545730">
        <ele>1134.000000</ele>
        <time>2020-08-22T10:26:17Z</time>
      </trkpt>
      <trkpt lat="42.508129" lon="1.545748">
        <ele>1136.000000</ele>
        <time>2020-08-22T10:26:17Z</time>
      </trkpt>
      <trkpt lat="42.508129" lon="1.545748">
        <ele>1136.000000</ele>
        <time>2020-08-22T10:26:17Z</time>
      </trkpt>
      <trkpt lat="42.508118" lon="1.545766">
        <ele>1136.000000</ele>
        <time>2020-08-22T10:26:17Z</time>
      </trkpt>
      <trkpt lat="42.508118" lon="1.545766">
        <ele>1136.000000</ele>
        <time>2020-08-22T10:26:17Z</time>
      </trkpt>
      <trkpt lat="42.508102" lon="1.545783">
        <ele>1137.000000</ele>
        <time>2020-08-22T10:26:25Z</time>
      </trkpt>
      <trkpt lat="42.508102" lon="1.545783">
        <ele>1137.000000</ele>
        <time>2020-08-22T10:26:25Z</time>
      </trkpt>
      <trkpt lat="42.508091" lon="1.545802">
        <ele>1137.000000</ele>
        <time>2020-08-22T10:26:25Z</time>
      </trkpt>
      <trkpt lat="42.508091" lon="1.545802">
        <ele>1137.000000</ele>
        <time>2020-08-22T10:26:25Z</time>
      </trkpt>
      <trkpt lat="42.508080" lon="1.545820">
        <ele>1137.000000</ele>
        <time>2020-08-22T10:26:25Z</time>
      </trkpt>
      <trkpt lat="42.508080" lon="1.545820">
        <ele>1137.000000</ele>
        <time>2020-08-22T10:26:25Z</time>
      </trkpt>
      <trkpt lat="42.508072" lon="1.545835">
        <ele>1142.000000</ele>
        <time>2020-08-22T10:26:25Z</time>
      </trkpt>
      <trkpt lat="42.508072" lon="1.545835">
        <ele>1142.000000</ele>
        <time>2020-08-22T10:26:25Z</time>
      </trkpt>
      <trkpt lat="42.508060" lon="1.545850">
        <ele>1143.000000</ele>
        <time>2020-08-22T10:26:25Z</time>
      </trkpt>
      <trkpt lat="42.508060" lon="1.545850">
        <ele>1143.000000</ele>
        <time>2020-08-22T10:26:25Z</time>
      </trkpt>
      <trkpt lat="42.508053" lon="1.545864">
        <ele>1143.000000</ele>
        <time>2020-08-22T10:26:25Z</time>
      </trkpt>
      <trkpt lat="42.508053" lon="1.545864">
        <ele>1143.000000</ele>
        <time>2020-08-22T10:26:25Z</time>
      </trkpt>
      <trkpt lat="42.508045" lon="1.545878">
        <ele>1143.000000</ele>
        <time>2020-08-22T10:26:32Z</time>
      </trkpt>
      <trkpt lat="42.508045" lon="1.545878">
        <ele>1143.000000</ele>
        <time>2020-08-22T10:26:32Z</time>
      </trkpt>
      <trkpt lat="42.508038" lon="1.545886">
        <ele>1143.000000</ele>
        <time>2020-08-22T10:26:32Z</time>
      </trkpt>
      <trkpt lat="42.508038" lon="1.545886">
        <ele>1143.000000</ele>
        <time>2020-08-22T10:26:32Z</time>
      </trkpt>
      <trkpt lat="42.508030" lon="1.545893">
        <ele>1144.000000</ele>
        <time>2020-08-22T10:26:32Z</time>
      </trkpt>
      <trkpt lat="42.508030" lon="1.545893">
        <ele>1144.000000</ele>
        <time>2020-08-22T10:26:32Z</time>
      </trkpt>
      <trkpt lat="42.508018" lon="1.545900">
        <ele>1144.000000</ele>
        <time>2020-08-22T10:26:32Z</time>
      </trkpt>
      <trkpt lat="42.508018" lon="1.545900">
        <ele>1144.000000</ele>
        <time>2020-08-22T10:26:32Z</time>
      </trkpt>
      <trkpt lat="42.508011" lon="1.545906">
        <ele>1144.000000</ele>
        <time>2020-08-22T10:26:32Z</time>
      </trkpt>
      <trkpt lat="42.508011" lon="1.545906">
        <ele>1144.000000</ele>
        <time>2020-08-22T10:26:32Z</time>
      </trkpt>
      <trkpt lat="42.508007" lon="1.545910">
        <ele>1144.000000</ele>
        <time>2020-08-22T10:26:32Z</time>
      </trkpt>
      <trkpt lat="42.508007" lon="1.545910">
        <ele>1144.000000</ele>
        <time>2020-08-22T10:26:32Z</time>
      </trkpt>
      <trkpt lat="42.507996" lon="1.545915">
        <ele>1144.000000</ele>
        <time>2020-08-22T10:26:32Z</time>
      </trkpt>
      <trkpt lat="42.507996" lon="1.545915">
        <ele>1144.000000</ele>
        <time>2020-08-22T10:26:32Z</time>
      </trkpt>
      <trkpt lat="42.507988" lon="1.545919">
        <ele>1144.000000</ele>
        <time>2020-08-22T10:26:39Z</time>
      </trkpt>
      <trkpt lat="42.507988" lon="1.545919">
        <ele>1144.000000</ele>
        <time>2020-08-22T10:26:39Z</time>
      </trkpt>
      <trkpt lat="42.507980" lon="1.545924">
        <ele>1144.000000</ele>
        <time>2020-08-22T10:26:39Z</time>
      </trkpt>
      <trkpt lat="42.507980" lon="1.545924">
        <ele>1144.000000</ele>
        <time>2020-08-22T10:26:39Z</time>
      </trkpt>
      <trkpt lat="42.507977" lon="1.545928">
        <ele>1144.000000</ele>
        <time>2020-08-22T10:26:39Z</time>
      </trkpt>
      <trkpt lat="42.507977" lon="1.545928">
        <ele>1144.000000</ele>
        <time>2020-08-22T10:26:39Z</time>
      </trkpt>
      <trkpt lat="42.507969" lon="1.545933">
        <ele>1144.000000</ele>
        <time>2020-08-22T10:26:39Z</time>
      </trkpt>
      <trkpt lat="42.507969" lon="1.545933">
        <ele>1144.000000</ele>
        <time>2020-08-22T10:26:39Z</time>
      </trkpt>
      <trkpt lat="42.507961" lon="1.545938">
        <ele>1144.000000</ele>
        <time>2020-08-22T10:26:39Z</time>
      </trkpt>
      <trkpt lat="42.507961" lon="1.545938">
        <ele>1144.000000</ele>
        <time>2020-08-22T10:26:39Z</time>
      </trkpt>
      <trkpt lat="42.507954" lon="1.545948">
        <ele>1144.000000</ele>
        <time>2020-08-22T10:26:39Z</time>
      </trkpt>
      <trkpt lat="42.507954" lon="1.545948">
        <ele>1144.000000</ele>
        <time>2020-08-22T10:26:39Z</time>
      </trkpt>
      <trkpt lat="42.507946" lon="1.545958">
        <ele>1144.000000</ele>
        <time>2020-08-22T10:26:39Z</time>
      </trkpt>
      <trkpt lat="42.507946" lon="1.545958">
        <ele>1144.000000</ele>
        <time>2020-08-22T10:26:39Z</time>
      </trkpt>
      <trkpt lat="42.507942" lon="1.545971">
        <ele>1144.000000</ele>
        <time>2020-08-22T10:26:39Z</time>
      </trkpt>
      <trkpt lat="42.507942" lon="1.545971">
        <ele>1144.000000</ele>
        <time>2020-08-22T10:26:39Z</time>
      </trkpt>
      <trkpt lat="42.507935" lon="1.545985">
        <ele>1144.000000</ele>
        <time>2020-08-22T10:26:46Z</time>
      </trkpt>
      <trkpt lat="42.507935" lon="1.545985">
        <ele>1144.000000</ele>
        <time>2020-08-22T10:26:46Z</time>
      </trkpt>
      <trkpt lat="42.507927" lon="1.546000">
        <ele>1144.000000</ele>
        <time>2020-08-22T10:26:46Z</time>
      </trkpt>
      <trkpt lat="42.507927" lon="1.546000">
        <ele>1144.000000</ele>
        <time>2020-08-22T10:26:46Z</time>
      </trkpt>
      <trkpt lat="42.507923" lon="1.546017">
        <ele>1144.000000</ele>
        <time>2020-08-22T10:26:46Z</time>
      </trkpt>
      <trkpt lat="42.507923" lon="1.546017">
        <ele>1144.000000</ele>
        <time>2020-08-22T10:26:46Z</time>
      </trkpt>
      <trkpt lat="42.507915" lon="1.546033">
        <ele>1144.000000</ele>
        <time>2020-08-22T10:26:46Z</time>
      </trkpt>
      <trkpt lat="42.507915" lon="1.546033">
        <ele>1144.000000</ele>
        <time>2020-08-22T10:26:46Z</time>
      </trkpt>
      <trkpt lat="42.507912" lon="1.546048">
        <ele>1144.000000</ele>
        <time>2020-08-22T10:26:46Z</time>
      </trkpt>
      <trkpt lat="42.507912" lon="1.546048">
        <ele>1144.000000</ele>
        <time>2020-08-22T10:26:46Z</time>
      </trkpt>
      <trkpt lat="42.507908" lon="1.546064">
        <ele>1144.000000</ele>
        <time>2020-08-22T10:26:46Z</time>
      </trkpt>
      <trkpt lat="42.507908" lon="1.546064">
        <ele>1144.000000</ele>
        <time>2020-08-22T10:26:46Z</time>
      </trkpt>
      <trkpt lat="42.507900" lon="1.546079">
        <ele>1144.000000</ele>
        <time>2020-08-22T10:26:46Z</time>
      </trkpt>
      <trkpt lat="42.507900" lon="1.546079">
        <ele>1144.000000</ele>
        <time>2020-08-22T10:26:46Z</time>
      </trkpt>
      <trkpt lat="42.507889" lon="1.546112">
        <ele>1144.000000</ele>
        <time>2020-08-22T10:26:54Z</time>
      </trkpt>
      <trkpt lat="42.507889" lon="1.546112">
        <ele>1144.000000</ele>
        <time>2020-08-22T10:26:54Z</time>
      </trkpt>
      <trkpt lat="42.507874" lon="1.546146">
        <ele>1144.000000</ele>
        <time>2020-08-22T10:26:54Z</time>
      </trkpt>
      <trkpt lat="42.507874" lon="1.546146">
        <ele>1144.000000</ele>
        <time>2020-08-22T10:26:54Z</time>
      </trkpt>
      <trkpt lat="42.507862" lon="1.546180">
        <ele>1144.000000</ele>
        <time>2020-08-22T10:26:54Z</time>
      </trkpt>
      <trkpt lat="42.507862" lon="1.546180">
        <ele>1144.000000</ele>
        <time>2020-08-22T10:26:54Z</time>
      </trkpt>
      <trkpt lat="42.507851" lon="1.546213">
        <ele>1144.000000</ele>
        <time>2020-08-22T10:26:54Z</time>
      </trkpt>
      <trkpt lat="42.507851" lon="1.546213">
        <ele>1144.000000</ele>
        <time>2020-08-22T10:26:54Z</time>
      </trkpt>
      <trkpt lat="42.507839" lon="1.546246">
        <ele>1144.000000</ele>
        <time>2020-08-22T10:26:54Z</time>
      </trkpt>
      <trkpt lat="42.507839" lon="1.546246">
        <ele>1144.000000</ele>
        <time>2020-08-22T10:26:54Z</time>
      </trkpt>
      <trkpt lat="42.507828" lon="1.546280">
        <ele>1152.000000</ele>
        <time>2020-08-22T10:26:54Z</time>
      </trkpt>
      <trkpt lat="42.507828" lon="1.546280">
        <ele>1152.000000</ele>
        <time>2020-08-22T10:26:54Z</time>
      </trkpt>
      <trkpt lat="42.507820" lon="1.546314">
        <ele>1152.000000</ele>
        <time>2020-08-22T10:27:01Z</time>
      </trkpt>
      <trkpt lat="42.507820" lon="1.546314">
        <ele>1152.000000</ele>
        <time>2020-08-22T10:27:01Z</time>
      </trkpt>
      <trkpt lat="42.507809" lon="1.546349">
        <ele>1152.000000</ele>
        <time>2020-08-22T10:27:01Z</time>
      </trkpt>
      <trkpt lat="42.507809" lon="1.546349">
        <ele>1153.000000</ele>
        <time>2020-08-22T10:27:01Z</time>
      </trkpt>
      <trkpt lat="42.507797" lon="1.546385">
        <ele>1153.000000</ele>
        <time>2020-08-22T10:27:01Z</time>
      </trkpt>
      <trkpt lat="42.507797" lon="1.546385">
        <ele>1153.000000</ele>
        <time>2020-08-22T10:27:01Z</time>
      </trkpt>
      <trkpt lat="42.507790" lon="1.546422">
        <ele>1153.000000</ele>
        <time>2020-08-22T10:27:01Z</time>
      </trkpt>
      <trkpt lat="42.507790" lon="1.546422">
        <ele>1153.000000</ele>
        <time>2020-08-22T10:27:01Z</time>
      </trkpt>
      <trkpt lat="42.507790" lon="1.546443">
        <ele>1153.000000</ele>
        <time>2020-08-22T10:27:08Z</time>
      </trkpt>
      <trkpt lat="42.507790" lon="1.546443">
        <ele>1153.000000</ele>
        <time>2020-08-22T10:27:08Z</time>
      </trkpt>
      <trkpt lat="42.507790" lon="1.546464">
        <ele>1154.000000</ele>
        <time>2020-08-22T10:27:08Z</time>
      </trkpt>
      <trkpt lat="42.507790" lon="1.546464">
        <ele>1154.000000</ele>
        <time>2020-08-22T10:27:08Z</time>
      </trkpt>
      <trkpt lat="42.507790" lon="1.546485">
        <ele>1154.000000</ele>
        <time>2020-08-22T10:27:08Z</time>
      </trkpt>
      <trkpt lat="42.507790" lon="1.546485">
        <ele>1154.000000</ele>
        <time>2020-08-22T10:27:08Z</time>
      </trkpt>
      <trkpt lat="42.507786" lon="1.546506">
        <ele>1154.000000</ele>
        <time>2020-08-22T10:27:08Z</time>
      </trkpt>
      <trkpt lat="42.507786" lon="1.546506">
        <ele>1154.000000</ele>
        <time>2020-08-22T10:27:08Z</time>
      </trkpt>
      <trkpt lat="42.507786" lon="1.546526">
        <ele>1154.000000</ele>
        <time>2020-08-22T10:27:08Z</time>
      </trkpt>
      <trkpt lat="42.507786" lon="1.546526">
        <ele>1155.000000</ele>
        <time>2020-08-22T10:27:08Z</time>
      </trkpt>
      <trkpt lat="42.507782" lon="1.546547">
        <ele>1156.000000</ele>
        <time>2020-08-22T10:27:08Z</time>
      </trkpt>
      <trkpt lat="42.507782" lon="1.546547">
        <ele>1156.000000</ele>
        <time>2020-08-22T10:27:08Z</time>
      </trkpt>
      <trkpt lat="42.507778" lon="1.546566">
        <ele>1156.000000</ele>
        <time>2020-08-22T10:27:08Z</time>
      </trkpt>
      <trkpt lat="42.507778" lon="1.546566">
        <ele>1157.000000</ele>
        <time>2020-08-22T10:27:08Z</time>
      </trkpt>
      <trkpt lat="42.507774" lon="1.546585">
        <ele>1157.000000</ele>
        <time>2020-08-22T10:27:16Z</time>
      </trkpt>
      <trkpt lat="42.507774" lon="1.546585">
        <ele>1157.000000</ele>
        <time>2020-08-22T10:27:16Z</time>
      </trkpt>
      <trkpt lat="42.507767" lon="1.546602">
        <ele>1157.000000</ele>
        <time>2020-08-22T10:27:16Z</time>
      </trkpt>
      <trkpt lat="42.507767" lon="1.546602">
        <ele>1157.000000</ele>
        <time>2020-08-22T10:27:16Z</time>
      </trkpt>
      <trkpt lat="42.507759" lon="1.546618">
        <ele>1157.000000</ele>
        <time>2020-08-22T10:27:16Z</time>
      </trkpt>
      <trkpt lat="42.507759" lon="1.546618">
        <ele>1157.000000</ele>
        <time>2020-08-22T10:27:16Z</time>
      </trkpt>
      <trkpt lat="42.507740" lon="1.546642">
        <ele>1157.000000</ele>
        <time>2020-08-22T10:27:16Z</time>
      </trkpt>
      <trkpt lat="42.507740" lon="1.546642">
        <ele>1157.000000</ele>
        <time>2020-08-22T10:27:16Z</time>
      </trkpt>
      <trkpt lat="42.507725" lon="1.546666">
        <ele>1157.000000</ele>
        <time>2020-08-22T10:27:16Z</time>
      </trkpt>
      <trkpt lat="42.507725" lon="1.546666">
        <ele>1157.000000</ele>
        <time>2020-08-22T10:27:16Z</time>
      </trkpt>
      <trkpt lat="42.507709" lon="1.546691">
        <ele>1157.000000</ele>
        <time>2020-08-22T10:27:16Z</time>
      </trkpt>
      <trkpt lat="42.507709" lon="1.546691">
        <ele>1157.000000</ele>
        <time>2020-08-22T10:27:16Z</time>
      </trkpt>
      <trkpt lat="42.507694" lon="1.546715">
        <ele>1157.000000</ele>
        <time>2020-08-22T10:27:16Z</time>
      </trkpt>
      <trkpt lat="42.507694" lon="1.546715">
        <ele>1157.000000</ele>
        <time>2020-08-22T10:27:16Z</time>
      </trkpt>
      <trkpt lat="42.507675" lon="1.546740">
        <ele>1157.000000</ele>
        <time>2020-08-22T10:27:23Z</time>
      </trkpt>
      <trkpt lat="42.507675" lon="1.546740">
        <ele>1157.000000</ele>
        <time>2020-08-22T10:27:23Z</time>
      </trkpt>
      <trkpt lat="42.507656" lon="1.546765">
        <ele>1157.000000</ele>
        <time>2020-08-22T10:27:23Z</time>
      </trkpt>
      <trkpt lat="42.507656" lon="1.546765">
        <ele>1157.000000</ele>
        <time>2020-08-22T10:27:23Z</time>
      </trkpt>
      <trkpt lat="42.507637" lon="1.546790">
        <ele>1157.000000</ele>
        <time>2020-08-22T10:27:23Z</time>
      </trkpt>
      <trkpt lat="42.507637" lon="1.546790">
        <ele>1157.000000</ele>
        <time>2020-08-22T10:27:23Z</time>
      </trkpt>
      <trkpt lat="42.507622" lon="1.546816">
        <ele>1157.000000</ele>
        <time>2020-08-22T10:27:23Z</time>
      </trkpt>
      <trkpt lat="42.507622" lon="1.546816">
        <ele>1157.000000</ele>
        <time>2020-08-22T10:27:23Z</time>
      </trkpt>
      <trkpt lat="42.507603" lon="1.546842">
        <ele>1157.000000</ele>
        <time>2020-08-22T10:27:23Z</time>
      </trkpt>
      <trkpt lat="42.507603" lon="1.546842">
        <ele>1157.000000</ele>
        <time>2020-08-22T10:27:23Z</time>
      </trkpt>
      <trkpt lat="42.507587" lon="1.546870">
        <ele>1157.000000</ele>
        <time>2020-08-22T10:27:23Z</time>
      </trkpt>
      <trkpt lat="42.507587" lon="1.546870">
        <ele>1157.000000</ele>
        <time>2020-08-22T10:27:23Z</time>
      </trkpt>
      <trkpt lat="42.507595" lon="1.546890">
        <ele>1160.000000</ele>
        <time>2020-08-22T10:27:23Z</time>
      </trkpt>
      <trkpt lat="42.507595" lon="1.546890">
        <ele>1160.000000</ele>
        <time>2020-08-22T10:27:23Z</time>
      </trkpt>
      <trkpt lat="42.507599" lon="1.546910">
        <ele>1160.000000</ele>
        <time>2020-08-22T10:27:23Z</time>
      </trkpt>
      <trkpt lat="42.507599" lon="1.546910">
        <ele>1160.000000</ele>
        <time>2020-08-22T10:27:23Z</time>
      </trkpt>
      <trkpt lat="42.507606" lon="1.546928">
        <ele>1161.000000</ele>
        <time>2020-08-22T10:27:23Z</time>
      </trkpt>
      <trkpt lat="42.507606" lon="1.546928">
        <ele>1161.000000</ele>
        <time>2020-08-22T10:27:23Z</time>
      </trkpt>
      <trkpt lat="42.507614" lon="1.546946">
        <ele>1161.000000</ele>
        <time>2020-08-22T10:27:31Z</time>
      </trkpt>
      <trkpt lat="42.507614" lon="1.546946">
        <ele>1161.000000</ele>
        <time>2020-08-22T10:27:31Z</time>
      </trkpt>
      <trkpt lat="42.507618" lon="1.546963">
        <ele>1162.000000</ele>
        <time>2020-08-22T10:27:31Z</time>
      </trkpt>
      <trkpt lat="42.507618" lon="1.546963">
        <ele>1162.000000</ele>
        <time>2020-08-22T10:27:31Z</time>
      </trkpt>
      <trkpt lat="42.507626" lon="1.546981">
        <ele>1167.000000</ele>
        <time>2020-08-22T10:27:31Z</time>
      </trkpt>
      <trkpt lat="42.507626" lon="1.546981">
        <ele>1167.000000</ele>
        <time>2020-08-22T10:27:31Z</time>
      </trkpt>
      <trkpt lat="42.507626" lon="1.546997">
        <ele>1167.000000</ele>
        <time>2020-08-22T10:27:31Z</time>
      </trkpt>
      <trkpt lat="42.507626" lon="1.546997">
        <ele>1167.000000</ele>
        <time>2020-08-22T10:27:31Z</time>
      </trkpt>
      <trkpt lat="42.507633" lon="1.547012">
        <ele>1167.000000</ele>
        <time>2020-08-22T10:27:31Z</time>
      </trkpt>
      <trkpt lat="42.507633" lon="1.547012">
        <ele>1167.000000</ele>
        <time>2020-08-22T10:27:31Z</time>
      </trkpt>
      <trkpt lat="42.507633" lon="1.547027">
        <ele>1167.000000</ele>
        <time>2020-08-22T10:27:31Z</time>
      </trkpt>
      <trkpt lat="42.507633" lon="1.547027">
        <ele>1167.000000</ele>
        <time>2020-08-22T10:27:31Z</time>
      </trkpt>
      <trkpt lat="42.507637" lon="1.547040">
        <ele>1168.000000</ele>
        <time>2020-08-22T10:27:38Z</time>
      </trkpt>
      <trkpt lat="42.507637" lon="1.547040">
        <ele>1168.000000</ele>
        <time>2020-08-22T10:27:38Z</time>
      </trkpt>
      <trkpt lat="42.507618" lon="1.547047">
        <ele>1170.000000</ele>
        <time>2020-08-22T10:27:38Z</time>
      </trkpt>
      <trkpt lat="42.507618" lon="1.547047">
        <ele>1170.000000</ele>
        <time>2020-08-22T10:27:38Z</time>
      </trkpt>
      <trkpt lat="42.507599" lon="1.547056">
        <ele>1171.000000</ele>
        <time>2020-08-22T10:27:38Z</time>
      </trkpt>
      <trkpt lat="42.507599" lon="1.547056">
        <ele>1171.000000</ele>
        <time>2020-08-22T10:27:38Z</time>
      </trkpt>
      <trkpt lat="42.507580" lon="1.547064">
        <ele>1171.000000</ele>
        <time>2020-08-22T10:27:38Z</time>
      </trkpt>
      <trkpt lat="42.507580" lon="1.547064">
        <ele>1171.000000</ele>
        <time>2020-08-22T10:27:38Z</time>
      </trkpt>
      <trkpt lat="42.507565" lon="1.547073">
        <ele>1171.000000</ele>
        <time>2020-08-22T10:27:38Z</time>
      </trkpt>
      <trkpt lat="42.507565" lon="1.547073">
        <ele>1171.000000</ele>
        <time>2020-08-22T10:27:38Z</time>
      </trkpt>
      <trkpt lat="42.507545" lon="1.547084">
        <ele>1171.000000</ele>
        <time>2020-08-22T10:27:38Z</time>
      </trkpt>
      <trkpt lat="42.507545" lon="1.547084">
        <ele>1171.000000</ele>
        <time>2020-08-22T10:27:38Z</time>
      </trkpt>
      <trkpt lat="42.507534" lon="1.547094">
        <ele>1172.000000</ele>
        <time>2020-08-22T10:27:38Z</time>
      </trkpt>
      <trkpt lat="42.507534" lon="1.547094">
        <ele>1172.000000</ele>
        <time>2020-08-22T10:27:38Z</time>
      </trkpt>
      <trkpt lat="42.507519" lon="1.547105">
        <ele>1172.000000</ele>
        <time>2020-08-22T10:27:45Z</time>
      </trkpt>
      <trkpt lat="42.507519" lon="1.547105">
        <ele>1172.000000</ele>
        <time>2020-08-22T10:27:45Z</time>
      </trkpt>
      <trkpt lat="42.507507" lon="1.547116">
        <ele>1172.000000</ele>
        <time>2020-08-22T10:27:45Z</time>
      </trkpt>
      <trkpt lat="42.507507" lon="1.547116">
        <ele>1173.000000</ele>
        <time>2020-08-22T10:27:45Z</time>
      </trkpt>
      <trkpt lat="42.507492" lon="1.547127">
        <ele>1173.000000</ele>
        <time>2020-08-22T10:27:45Z</time>
      </trkpt>
      <trkpt lat="42.507492" lon="1.547127">
        <ele>1173.000000</ele>
        <time>2020-08-22T10:27:45Z</time>
      </trkpt>
      <trkpt lat="42.507481" lon="1.547137">
        <ele>1173.000000</ele>
        <time>2020-08-22T10:27:45Z</time>
      </trkpt>
      <trkpt lat="42.507481" lon="1.547137">
        <ele>1174.000000</ele>
        <time>2020-08-22T10:27:45Z</time>
      </trkpt>
      <trkpt lat="42.507477" lon="1.547145">
        <ele>1174.000000</ele>
        <time>2020-08-22T10:27:45Z</time>
      </trkpt>
      <trkpt lat="42.507477" lon="1.547145">
        <ele>1175.000000</ele>
        <time>2020-08-22T10:27:45Z</time>
      </trkpt>
      <trkpt lat="42.507473" lon="1.547151">
        <ele>1175.000000</ele>
        <time>2020-08-22T10:27:45Z</time>
      </trkpt>
      <trkpt lat="42.507473" lon="1.547151">
        <ele>1175.000000</ele>
        <time>2020-08-22T10:27:45Z</time>
      </trkpt>
      <trkpt lat="42.507465" lon="1.547158">
        <ele>1175.000000</ele>
        <time>2020-08-22T10:27:52Z</time>
      </trkpt>
      <trkpt lat="42.507465" lon="1.547158">
        <ele>1175.000000</ele>
        <time>2020-08-22T10:27:52Z</time>
      </trkpt>
      <trkpt lat="42.507465" lon="1.547163">
        <ele>1175.000000</ele>
        <time>2020-08-22T10:27:52Z</time>
      </trkpt>
      <trkpt lat="42.507465" lon="1.547163">
        <ele>1175.000000</ele>
        <time>2020-08-22T10:27:52Z</time>
      </trkpt>
      <trkpt lat="42.507458" lon="1.547168">
        <ele>1175.000000</ele>
        <time>2020-08-22T10:27:52Z</time>
      </trkpt>
      <trkpt lat="42.507458" lon="1.547168">
        <ele>1175.000000</ele>
        <time>2020-08-22T10:27:52Z</time>
      </trkpt>
      <trkpt lat="42.507454" lon="1.547173">
        <ele>1177.000000</ele>
        <time>2020-08-22T10:27:52Z</time>
      </trkpt>
      <trkpt lat="42.507454" lon="1.547173">
        <ele>1177.000000</ele>
        <time>2020-08-22T10:27:52Z</time>
      </trkpt>
      <trkpt lat="42.507446" lon="1.547177">
        <ele>1177.000000</ele>
        <time>2020-08-22T10:27:52Z</time>
      </trkpt>
      <trkpt lat="42.507446" lon="1.547177">
        <ele>1177.000000</ele>
        <time>2020-08-22T10:27:52Z</time>
      </trkpt>
      <trkpt lat="42.507442" lon="1.547182">
        <ele>1177.000000</ele>
        <time>2020-08-22T10:27:52Z</time>
      </trkpt>
      <trkpt lat="42.507442" lon="1.547182">
        <ele>1177.000000</ele>
        <time>2020-08-22T10:27:52Z</time>
      </trkpt>
      <trkpt lat="42.507439" lon="1.547186">
        <ele>1177.000000</ele>
        <time>2020-08-22T10:27:52Z</time>
      </trkpt>
      <trkpt lat="42.507439" lon="1.547186">
        <ele>1177.000000</ele>
        <time>2020-08-22T10:27:52Z</time>
      </trkpt>
      <trkpt lat="42.507431" lon="1.547190">
        <ele>1177.000000</ele>
        <time>2020-08-22T10:27:52Z</time>
      </trkpt>
      <trkpt lat="42.507431" lon="1.547190">
        <ele>1177.000000</ele>
        <time>2020-08-22T10:27:52Z</time>
      </trkpt>
      <trkpt lat="42.507427" lon="1.547201">
        <ele>1177.000000</ele>
        <time>2020-08-22T10:27:52Z</time>
      </trkpt>
      <trkpt lat="42.507427" lon="1.547201">
        <ele>1177.000000</ele>
        <time>2020-08-22T10:27:52Z</time>
      </trkpt>
      <trkpt lat="42.507420" lon="1.547212">
        <ele>1177.000000</ele>
        <time>2020-08-22T10:27:52Z</time>
      </trkpt>
      <trkpt lat="42.507420" lon="1.547212">
        <ele>1177.000000</ele>
        <time>2020-08-22T10:27:52Z</time>
      </trkpt>
      <trkpt lat="42.507412" lon="1.547225">
        <ele>1177.000000</ele>
        <time>2020-08-22T10:27:52Z</time>
      </trkpt>
      <trkpt lat="42.507412" lon="1.547225">
        <ele>1177.000000</ele>
        <time>2020-08-22T10:27:52Z</time>
      </trkpt>
      <trkpt lat="42.507401" lon="1.547239">
        <ele>1177.000000</ele>
        <time>2020-08-22T10:27:52Z</time>
      </trkpt>
      <trkpt lat="42.507401" lon="1.547239">
        <ele>1177.000000</ele>
        <time>2020-08-22T10:27:52Z</time>
      </trkpt>
      <trkpt lat="42.507393" lon="1.547252">
        <ele>1177.000000</ele>
        <time>2020-08-22T10:27:52Z</time>
      </trkpt>
      <trkpt lat="42.507393" lon="1.547252">
        <ele>1177.000000</ele>
        <time>2020-08-22T10:27:52Z</time>
      </trkpt>
      <trkpt lat="42.507381" lon="1.547265">
        <ele>1177.000000</ele>
        <time>2020-08-22T10:27:52Z</time>
      </trkpt>
      <trkpt lat="42.507381" lon="1.547265">
        <ele>1177.000000</ele>
        <time>2020-08-22T10:27:52Z</time>
      </trkpt>
      <trkpt lat="42.507374" lon="1.547277">
        <ele>1179.000000</ele>
        <time>2020-08-22T10:27:59Z</time>
      </trkpt>
      <trkpt lat="42.507374" lon="1.547277">
        <ele>1179.000000</ele>
        <time>2020-08-22T10:27:59Z</time>
      </trkpt>
      <trkpt lat="42.507366" lon="1.547289">
        <ele>1179.000000</ele>
        <time>2020-08-22T10:27:59Z</time>
      </trkpt>
      <trkpt lat="42.507366" lon="1.547289">
        <ele>1179.000000</ele>
        <time>2020-08-22T10:27:59Z</time>
      </trkpt>
      <trkpt lat="42.507359" lon="1.547300">
        <ele>1180.000000</ele>
        <time>2020-08-22T10:27:59Z</time>
      </trkpt>
      <trkpt lat="42.507359" lon="1.547300">
        <ele>1180.000000</ele>
        <time>2020-08-22T10:27:59Z</time>
      </trkpt>
      <trkpt lat="42.507355" lon="1.547311">
        <ele>1180.000000</ele>
        <time>2020-08-22T10:27:59Z</time>
      </trkpt>
      <trkpt lat="42.507355" lon="1.547311">
        <ele>1180.000000</ele>
        <time>2020-08-22T10:27:59Z</time>
      </trkpt>
      <trkpt lat="42.507351" lon="1.547319">
        <ele>1181.000000</ele>
        <time>2020-08-22T10:28:06Z</time>
      </trkpt>
      <trkpt lat="42.507351" lon="1.547319">
        <ele>1181.000000</ele>
        <time>2020-08-22T10:28:06Z</time>
      </trkpt>
      <trkpt lat="42.507347" lon="1.547326">
        <ele>1181.000000</ele>
        <time>2020-08-22T10:28:06Z</time>
      </trkpt>
      <trkpt lat="42.507347" lon="1.547326">
        <ele>1181.000000</ele>
        <time>2020-08-22T10:28:06Z</time>
      </trkpt>
      <trkpt lat="42.507343" lon="1.547332">
        <ele>1181.000000</ele>
        <time>2020-08-22T10:28:06Z</time>
      </trkpt>
      <trkpt lat="42.507343" lon="1.547332">
        <ele>1181.000000</ele>
        <time>2020-08-22T10:28:06Z</time>
      </trkpt>
      <trkpt lat="42.507339" lon="1.547339">
        <ele>1182.000000</ele>
        <time>2020-08-22T10:28:06Z</time>
      </trkpt>
      <trkpt lat="42.507339" lon="1.547339">
        <ele>1182.000000</ele>
        <time>2020-08-22T10:28:06Z</time>
      </trkpt>
      <trkpt lat="42.507339" lon="1.547346">
        <ele>1182.000000</ele>
        <time>2020-08-22T10:28:06Z</time>
      </trkpt>
      <trkpt lat="42.507339" lon="1.547346">
        <ele>1182.000000</ele>
        <time>2020-08-22T10:28:06Z</time>
      </trkpt>
      <trkpt lat="42.507339" lon="1.547353">
        <ele>1184.000000</ele>
        <time>2020-08-22T10:28:06Z</time>
      </trkpt>
      <trkpt lat="42.507339" lon="1.547353">
        <ele>1184.000000</ele>
        <time>2020-08-22T10:28:06Z</time>
      </trkpt>
      <trkpt lat="42.507339" lon="1.547361">
        <ele>1184.000000</ele>
        <time>2020-08-22T10:28:13Z</time>
      </trkpt>
      <trkpt lat="42.507339" lon="1.547361">
        <ele>1184.000000</ele>
        <time>2020-08-22T10:28:13Z</time>
      </trkpt>
      <trkpt lat="42.507336" lon="1.547369">
        <ele>1184.000000</ele>
        <time>2020-08-22T10:28:13Z</time>
      </trkpt>
      <trkpt lat="42.507336" lon="1.547369">
        <ele>1184.000000</ele>
        <time>2020-08-22T10:28:13Z</time>
      </trkpt>
      <trkpt lat="42.507332" lon="1.547379">
        <ele>1185.000000</ele>
        <time>2020-08-22T10:28:13Z</time>
      </trkpt>
      <trkpt lat="42.507332" lon="1.547379">
        <ele>1185.000000</ele>
        <time>2020-08-22T10:28:13Z</time>
      </trkpt>
      <trkpt lat="42.507324" lon="1.547389">
        <ele>1185.000000</ele>
        <time>2020-08-22T10:28:13Z</time>
      </trkpt>
      <trkpt lat="42.507324" lon="1.547389">
        <ele>1185.000000</ele>
        <time>2020-08-22T10:28:13Z</time>
      </trkpt>
      <trkpt lat="42.507324" lon="1.547398">
        <ele>1188.000000</ele>
        <time>2020-08-22T10:28:13Z</time>
      </trkpt>
      <trkpt lat="42.507324" lon="1.547398">
        <ele>1188.000000</ele>
        <time>2020-08-22T10:28:13Z</time>
      </trkpt>
      <trkpt lat="42.507320" lon="1.547408">
        <ele>1188.000000</ele>
        <time>2020-08-22T10:28:13Z</time>
      </trkpt>
      <trkpt lat="42.507320" lon="1.547408">
        <ele>1188.000000</ele>
        <time>2020-08-22T10:28:13Z</time>
      </trkpt>
      <trkpt lat="42.507320" lon="1.547417">
        <ele>1188.000000</ele>
        <time>2020-08-22T10:28:20Z</time>
      </trkpt>
      <trkpt lat="42.507320" lon="1.547417">
        <ele>1189.000000</ele>
        <time>2020-08-22T10:28:20Z</time>
      </trkpt>
      <trkpt lat="42.507317" lon="1.547426">
        <ele>1189.000000</ele>
        <time>2020-08-22T10:28:20Z</time>
      </trkpt>
      <trkpt lat="42.507317" lon="1.547426">
        <ele>1189.000000</ele>
        <time>2020-08-22T10:28:20Z</time>
      </trkpt>
      <trkpt lat="42.507317" lon="1.547435">
        <ele>1189.000000</ele>
        <time>2020-08-22T10:28:20Z</time>
      </trkpt>
      <trkpt lat="42.507317" lon="1.547435">
        <ele>1189.000000</ele>
        <time>2020-08-22T10:28:20Z</time>
      </trkpt>
      <trkpt lat="42.507313" lon="1.547446">
        <ele>1189.000000</ele>
        <time>2020-08-22T10:28:20Z</time>
      </trkpt>
      <trkpt lat="42.507313" lon="1.547446">
        <ele>1190.000000</ele>
        <time>2020-08-22T10:28:20Z</time>
      </trkpt>
      <trkpt lat="42.507313" lon="1.547457">
        <ele>1190.000000</ele>
        <time>2020-08-22T10:28:20Z</time>
      </trkpt>
      <trkpt lat="42.507313" lon="1.547457">
        <ele>1190.000000</ele>
        <time>2020-08-22T10:28:20Z</time>
      </trkpt>
      <trkpt lat="42.507313" lon="1.547468">
        <ele>1190.000000</ele>
        <time>2020-08-22T10:28:20Z</time>
      </trkpt>
      <trkpt lat="42.507313" lon="1.547468">
        <ele>1190.000000</ele>
        <time>2020-08-22T10:28:20Z</time>
      </trkpt>
      <trkpt lat="42.507309" lon="1.547480">
        <ele>1190.000000</ele>
        <time>2020-08-22T10:28:20Z</time>
      </trkpt>
      <trkpt lat="42.507309" lon="1.547480">
        <ele>1190.000000</ele>
        <time>2020-08-22T10:28:20Z</time>
      </trkpt>
      <trkpt lat="42.507305" lon="1.547493">
        <ele>1190.000000</ele>
        <time>2020-08-22T10:28:27Z</time>
      </trkpt>
      <trkpt lat="42.507305" lon="1.547493">
        <ele>1190.000000</ele>
        <time>2020-08-22T10:28:27Z</time>
      </trkpt>
      <trkpt lat="42.507301" lon="1.547504">
        <ele>1190.000000</ele>
        <time>2020-08-22T10:28:27Z</time>
      </trkpt>
      <trkpt lat="42.507301" lon="1.547504">
        <ele>1190.000000</ele>
        <time>2020-08-22T10:28:27Z</time>
      </trkpt>
      <trkpt lat="42.507298" lon="1.547515">
        <ele>1191.000000</ele>
        <time>2020-08-22T10:28:27Z</time>
      </trkpt>
      <trkpt lat="42.507298" lon="1.547515">
        <ele>1191.000000</ele>
        <time>2020-08-22T10:28:27Z</time>
      </trkpt>
      <trkpt lat="42.507290" lon="1.547527">
        <ele>1191.000000</ele>
        <time>2020-08-22T10:28:27Z</time>
      </trkpt>
      <trkpt lat="42.507290" lon="1.547527">
        <ele>1191.000000</ele>
        <time>2020-08-22T10:28:27Z</time>
      </trkpt>
      <trkpt lat="42.507278" lon="1.547537">
        <ele>1191.000000</ele>
        <time>2020-08-22T10:28:27Z</time>
      </trkpt>
      <trkpt lat="42.507278" lon="1.547537">
        <ele>1192.000000</ele>
        <time>2020-08-22T10:28:27Z</time>
      </trkpt>
      <trkpt lat="42.507271" lon="1.547547">
        <ele>1192.000000</ele>
        <time>2020-08-22T10:28:27Z</time>
      </trkpt>
      <trkpt lat="42.507271" lon="1.547547">
        <ele>1192.000000</ele>
        <time>2020-08-22T10:28:27Z</time>
      </trkpt>
      <trkpt lat="42.507263" lon="1.547555">
        <ele>1197.000000</ele>
        <time>2020-08-22T10:28:27Z</time>
      </trkpt>
      <trkpt lat="42.507263" lon="1.547555">
        <ele>1198.000000</ele>
        <time>2020-08-22T10:28:27Z</time>
      </trkpt>
      <trkpt lat="42.507252" lon="1.547563">
        <ele>1198.000000</ele>
        <time>2020-08-22T10:28:34Z</time>
      </trkpt>
      <trkpt lat="42.507252" lon="1.547563">
        <ele>1198.000000</ele>
        <time>2020-08-22T10:28:34Z</time>
      </trkpt>
      <trkpt lat="42.507244" lon="1.547570">
        <ele>1198.000000</ele>
        <time>2020-08-22T10:28:34Z</time>
      </trkpt>
      <trkpt lat="42.507244" lon="1.547570">
        <ele>1198.000000</ele>
        <time>2020-08-22T10:28:34Z</time>
      </trkpt>
      <trkpt lat="42.507236" lon="1.547576">
        <ele>1199.000000</ele>
        <time>2020-08-22T10:28:34Z</time>
      </trkpt>
      <trkpt lat="42.507236" lon="1.547576">
        <ele>1199.000000</ele>
        <time>2020-08-22T10:28:34Z</time>
      </trkpt>
      <trkpt lat="42.507225" lon="1.547582">
        <ele>1199.000000</ele>
        <time>2020-08-22T10:28:34Z</time>
      </trkpt>
      <trkpt lat="42.507225" lon="1.547582">
        <ele>1199.000000</ele>
        <time>2020-08-22T10:28:34Z</time>
      </trkpt>
      <trkpt lat="42.507214" lon="1.547595">
        <ele>1201.000000</ele>
        <time>2020-08-22T10:28:34Z</time>
      </trkpt>
      <trkpt lat="42.507214" lon="1.547595">
        <ele>1201.000000</ele>
        <time>2020-08-22T10:28:34Z</time>
      </trkpt>
      <trkpt lat="42.507202" lon="1.547608">
        <ele>1201.000000</ele>
        <time>2020-08-22T10:28:34Z</time>
      </trkpt>
      <trkpt lat="42.507202" lon="1.547608">
        <ele>1201.000000</ele>
        <time>2020-08-22T10:28:34Z</time>
      </trkpt>
      <trkpt lat="42.507191" lon="1.547621">
        <ele>1201.000000</ele>
        <time>2020-08-22T10:28:41Z</time>
      </trkpt>
      <trkpt lat="42.507191" lon="1.547621">
        <ele>1201.000000</ele>
        <time>2020-08-22T10:28:41Z</time>
      </trkpt>
      <trkpt lat="42.507183" lon="1.547635">
        <ele>1201.000000</ele>
        <time>2020-08-22T10:28:41Z</time>
      </trkpt>
      <trkpt lat="42.507183" lon="1.547635">
        <ele>1201.000000</ele>
        <time>2020-08-22T10:28:41Z</time>
      </trkpt>
      <trkpt lat="42.507172" lon="1.547649">
        <ele>1201.000000</ele>
        <time>2020-08-22T10:28:41Z</time>
      </trkpt>
      <trkpt lat="42.507172" lon="1.547649">
        <ele>1201.000000</ele>
        <time>2020-08-22T10:28:41Z</time>
      </trkpt>
      <trkpt lat="42.507160" lon="1.547664">
        <ele>1201.000000</ele>
        <time>2020-08-22T10:28:41Z</time>
      </trkpt>
      <trkpt lat="42.507160" lon="1.547664">
        <ele>1201.000000</ele>
        <time>2020-08-22T10:28:41Z</time>
      </trkpt>
      <trkpt lat="42.507149" lon="1.547678">
        <ele>1201.000000</ele>
        <time>2020-08-22T10:28:41Z</time>
      </trkpt>
      <trkpt lat="42.507149" lon="1.547678">
        <ele>1201.000000</ele>
        <time>2020-08-22T10:28:41Z</time>
      </trkpt>
      <trkpt lat="42.507137" lon="1.547693">
        <ele>1201.000000</ele>
        <time>2020-08-22T10:28:41Z</time>
      </trkpt>
      <trkpt lat="42.507137" lon="1.547693">
        <ele>1201.000000</ele>
        <time>2020-08-22T10:28:41Z</time>
      </trkpt>
      <trkpt lat="42.507126" lon="1.547708">
        <ele>1201.000000</ele>
        <time>2020-08-22T10:28:50Z</time>
      </trkpt>
      <trkpt lat="42.507126" lon="1.547708">
        <ele>1201.000000</ele>
        <time>2020-08-22T10:28:50Z</time>
      </trkpt>
      <trkpt lat="42.507118" lon="1.547723">
        <ele>1201.000000</ele>
        <time>2020-08-22T10:28:50Z</time>
      </trkpt>
      <trkpt lat="42.507118" lon="1.547723">
        <ele>1201.000000</ele>
        <time>2020-08-22T10:28:50Z</time>
      </trkpt>
      <trkpt lat="42.507111" lon="1.547728">
        <ele>1201.000000</ele>
        <time>2020-08-22T10:28:50Z</time>
      </trkpt>
      <trkpt lat="42.507111" lon="1.547728">
        <ele>1201.000000</ele>
        <time>2020-08-22T10:28:50Z</time>
      </trkpt>
      <trkpt lat="42.507103" lon="1.547732">
        <ele>1204.000000</ele>
        <time>2020-08-22T10:28:58Z</time>
      </trkpt>
      <trkpt lat="42.507103" lon="1.547732">
        <ele>1204.000000</ele>
        <time>2020-08-22T10:28:58Z</time>
      </trkpt>
      <trkpt lat="42.507095" lon="1.547736">
        <ele>1204.000000</ele>
        <time>2020-08-22T10:28:58Z</time>
      </trkpt>
      <trkpt lat="42.507095" lon="1.547736">
        <ele>1204.000000</ele>
        <time>2020-08-22T10:28:58Z</time>
      </trkpt>
      <trkpt lat="42.507092" lon="1.547739">
        <ele>1204.000000</ele>
        <time>2020-08-22T10:28:58Z</time>
      </trkpt>
      <trkpt lat="42.507092" lon="1.547739">
        <ele>1204.000000</ele>
        <time>2020-08-22T10:28:58Z</time>
      </trkpt>
      <trkpt lat="42.507084" lon="1.547742">
        <ele>1204.000000</ele>
        <time>2020-08-22T10:28:58Z</time>
      </trkpt>
      <trkpt lat="42.507084" lon="1.547742">
        <ele>1204.000000</ele>
        <time>2020-08-22T10:28:58Z</time>
      </trkpt>
      <trkpt lat="42.507076" lon="1.547744">
        <ele>1206.000000</ele>
        <time>2020-08-22T10:28:58Z</time>
      </trkpt>
      <trkpt lat="42.507076" lon="1.547744">
        <ele>1206.000000</ele>
        <time>2020-08-22T10:28:58Z</time>
      </trkpt>
      <trkpt lat="42.507076" lon="1.547745">
        <ele>1207.000000</ele>
        <time>2020-08-22T10:28:58Z</time>
      </trkpt>
      <trkpt lat="42.507076" lon="1.547745">
        <ele>1207.000000</ele>
        <time>2020-08-22T10:28:58Z</time>
      </trkpt>
      <trkpt lat="42.507076" lon="1.547744">
        <ele>1207.000000</ele>
        <time>2020-08-22T10:29:05Z</time>
      </trkpt>
      <trkpt lat="42.507076" lon="1.547744">
        <ele>1207.000000</ele>
        <time>2020-08-22T10:29:05Z</time>
      </trkpt>
      <trkpt lat="42.507076" lon="1.547743">
        <ele>1207.000000</ele>
        <time>2020-08-22T10:29:05Z</time>
      </trkpt>
      <trkpt lat="42.507076" lon="1.547743">
        <ele>1208.000000</ele>
        <time>2020-08-22T10:29:05Z</time>
      </trkpt>
      <trkpt lat="42.507076" lon="1.547740">
        <ele>1208.000000</ele>
        <time>2020-08-22T10:29:05Z</time>
      </trkpt>
      <trkpt lat="42.507076" lon="1.547740">
        <ele>1208.000000</ele>
        <time>2020-08-22T10:29:05Z</time>
      </trkpt>
      <trkpt lat="42.507076" lon="1.547743">
        <ele>1213.000000</ele>
        <time>2020-08-22T10:29:05Z</time>
      </trkpt>
      <trkpt lat="42.507076" lon="1.547743">
        <ele>1213.000000</ele>
        <time>2020-08-22T10:29:05Z</time>
      </trkpt>
      <trkpt lat="42.507076" lon="1.547746">
        <ele>1214.000000</ele>
        <time>2020-08-22T10:29:12Z</time>
      </trkpt>
      <trkpt lat="42.507076" lon="1.547746">
        <ele>1214.000000</ele>
        <time>2020-08-22T10:29:12Z</time>
      </trkpt>
      <trkpt lat="42.507076" lon="1.547749">
        <ele>1214.000000</ele>
        <time>2020-08-22T10:29:12Z</time>
      </trkpt>
      <trkpt lat="42.507076" lon="1.547749">
        <ele>1214.000000</ele>
        <time>2020-08-22T10:29:12Z</time>
      </trkpt>
      <trkpt lat="42.507076" lon="1.547753">
        <ele>1215.000000</ele>
        <time>2020-08-22T10:29:12Z</time>
      </trkpt>
      <trkpt lat="42.507076" lon="1.547753">
        <ele>1215.000000</ele>
        <time>2020-08-22T10:29:12Z</time>
      </trkpt>
      <trkpt lat="42.507080" lon="1.547759">
        <ele>1215.000000</ele>
        <time>2020-08-22T10:29:12Z</time>
      </trkpt>
      <trkpt lat="42.507080" lon="1.547759">
        <ele>1215.000000</ele>
        <time>2020-08-22T10:29:12Z</time>
      </trkpt>
      <trkpt lat="42.507080" lon="1.547765">
        <ele>1218.000000</ele>
        <time>2020-08-22T10:29:12Z</time>
      </trkpt>
      <trkpt lat="42.507080" lon="1.547765">
        <ele>1218.000000</ele>
        <time>2020-08-22T10:29:12Z</time>
      </trkpt>
      <trkpt lat="42.507080" lon="1.547772">
        <ele>1218.000000</ele>
        <time>2020-08-22T10:29:12Z</time>
      </trkpt>
      <trkpt lat="42.507080" lon="1.547772">
        <ele>1218.000000</ele>
        <time>2020-08-22T10:29:12Z</time>
      </trkpt>
      <trkpt lat="42.507076" lon="1.547781">
        <ele>1218.000000</ele>
        <time>2020-08-22T10:29:12Z</time>
      </trkpt>
      <trkpt lat="42.507076" lon="1.547781">
        <ele>1219.000000</ele>
        <time>2020-08-22T10:29:12Z</time>
      </trkpt>
      <trkpt lat="42.507072" lon="1.547791">
        <ele>1219.000000</ele>
        <time>2020-08-22T10:29:19Z</time>
      </trkpt>
      <trkpt lat="42.507072" lon="1.547791">
        <ele>1219.000000</ele>
        <time>2020-08-22T10:29:19Z</time>
      </trkpt>
      <trkpt lat="42.507065" lon="1.547801">
        <ele>1219.000000</ele>
        <time>2020-08-22T10:29:19Z</time>
      </trkpt>
      <trkpt lat="42.507065" lon="1.547801">
        <ele>1219.000000</ele>
        <time>2020-08-22T10:29:19Z</time>
      </trkpt>
      <trkpt lat="42.507061" lon="1.547808">
        <ele>1220.000000</ele>
        <time>2020-08-22T10:29:19Z</time>
      </trkpt>
      <trkpt lat="42.507061" lon="1.547808">
        <ele>1220.000000</ele>
        <time>2020-08-22T10:29:19Z</time>
      </trkpt>
      <trkpt lat="42.507057" lon="1.547815">
        <ele>1220.000000</ele>
        <time>2020-08-22T10:29:19Z</time>
      </trkpt>
      <trkpt lat="42.507057" lon="1.547815">
        <ele>1220.000000</ele>
        <time>2020-08-22T10:29:19Z</time>
      </trkpt>
      <trkpt lat="42.507050" lon="1.547823">
        <ele>1220.000000</ele>
        <time>2020-08-22T10:29:19Z</time>
      </trkpt>
      <trkpt lat="42.507050" lon="1.547823">
        <ele>1220.000000</ele>
        <time>2020-08-22T10:29:19Z</time>
      </trkpt>
      <trkpt lat="42.507038" lon="1.547832">
        <ele>1220.000000</ele>
        <time>2020-08-22T10:29:19Z</time>
      </trkpt>
      <trkpt lat="42.507038" lon="1.547832">
        <ele>1221.000000</ele>
        <time>2020-08-22T10:29:19Z</time>
      </trkpt>
      <trkpt lat="42.507030" lon="1.547840">
        <ele>1221.000000</ele>
        <time>2020-08-22T10:29:19Z</time>
      </trkpt>
      <trkpt lat="42.507030" lon="1.547840">
        <ele>1221.000000</ele>
        <time>2020-08-22T10:29:19Z</time>
      </trkpt>
      <trkpt lat="42.507023" lon="1.547850">
        <ele>1222.000000</ele>
        <time>2020-08-22T10:29:26Z</time>
      </trkpt>
      <trkpt lat="42.507023" lon="1.547850">
        <ele>1222.000000</ele>
        <time>2020-08-22T10:29:26Z</time>
      </trkpt>
      <trkpt lat="42.507015" lon="1.547859">
        <ele>1222.000000</ele>
        <time>2020-08-22T10:29:26Z</time>
      </trkpt>
      <trkpt lat="42.507015" lon="1.547859">
        <ele>1222.000000</ele>
        <time>2020-08-22T10:29:26Z</time>
      </trkpt>
      <trkpt lat="42.507008" lon="1.547869">
        <ele>1222.000000</ele>
        <time>2020-08-22T10:29:26Z</time>
      </trkpt>
      <trkpt lat="42.507008" lon="1.547869">
        <ele>1222.000000</ele>
        <time>2020-08-22T10:29:26Z</time>
      </trkpt>
      <trkpt lat="42.507000" lon="1.547879">
        <ele>1222.000000</ele>
        <time>2020-08-22T10:29:26Z</time>
      </trkpt>
      <trkpt lat="42.507000" lon="1.547879">
        <ele>1223.000000</ele>
        <time>2020-08-22T10:29:26Z</time>
      </trkpt>
      <trkpt lat="42.506989" lon="1.547889">
        <ele>1223.000000</ele>
        <time>2020-08-22T10:29:26Z</time>
      </trkpt>
      <trkpt lat="42.506989" lon="1.547889">
        <ele>1223.000000</ele>
        <time>2020-08-22T10:29:26Z</time>
      </trkpt>
      <trkpt lat="42.506977" lon="1.547897">
        <ele>1223.000000</ele>
        <time>2020-08-22T10:29:26Z</time>
      </trkpt>
      <trkpt lat="42.506977" lon="1.547897">
        <ele>1223.000000</ele>
        <time>2020-08-22T10:29:26Z</time>
      </trkpt>
      <trkpt lat="42.506962" lon="1.547905">
        <ele>1223.000000</ele>
        <time>2020-08-22T10:29:33Z</time>
      </trkpt>
      <trkpt lat="42.506962" lon="1.547905">
        <ele>1224.000000</ele>
        <time>2020-08-22T10:29:33Z</time>
      </trkpt>
      <trkpt lat="42.506950" lon="1.547913">
        <ele>1224.000000</ele>
        <time>2020-08-22T10:29:33Z</time>
      </trkpt>
      <trkpt lat="42.506950" lon="1.547913">
        <ele>1224.000000</ele>
        <time>2020-08-22T10:29:33Z</time>
      </trkpt>
      <trkpt lat="42.506939" lon="1.547921">
        <ele>1224.000000</ele>
        <time>2020-08-22T10:29:33Z</time>
      </trkpt>
      <trkpt lat="42.506939" lon="1.547921">
        <ele>1224.000000</ele>
        <time>2020-08-22T10:29:33Z</time>
      </trkpt>
      <trkpt lat="42.506924" lon="1.547930">
        <ele>1224.000000</ele>
        <time>2020-08-22T10:29:33Z</time>
      </trkpt>
      <trkpt lat="42.506924" lon="1.547930">
        <ele>1224.000000</ele>
        <time>2020-08-22T10:29:33Z</time>
      </trkpt>
      <trkpt lat="42.506916" lon="1.547938">
        <ele>1225.000000</ele>
        <time>2020-08-22T10:29:33Z</time>
      </trkpt>
      <trkpt lat="42.506916" lon="1.547938">
        <ele>1225.000000</ele>
        <time>2020-08-22T10:29:33Z</time>
      </trkpt>
      <trkpt lat="42.506905" lon="1.547945">
        <ele>1225.000000</ele>
        <time>2020-08-22T10:29:33Z</time>
      </trkpt>
      <trkpt lat="42.506905" lon="1.547945">
        <ele>1225.000000</ele>
        <time>2020-08-22T10:29:33Z</time>
      </trkpt>
      <trkpt lat="42.506893" lon="1.547951">
        <ele>1225.000000</ele>
        <time>2020-08-22T10:29:40Z</time>
      </trkpt>
      <trkpt lat="42.506893" lon="1.547951">
        <ele>1225.000000</ele>
        <time>2020-08-22T10:29:40Z</time>
      </trkpt>
      <trkpt lat="42.506886" lon="1.547957">
        <ele>1225.000000</ele>
        <time>2020-08-22T10:29:40Z</time>
      </trkpt>
      <trkpt lat="42.506886" lon="1.547957">
        <ele>1226.000000</ele>
        <time>2020-08-22T10:29:40Z</time>
      </trkpt>
      <trkpt lat="42.506874" lon="1.547962">
        <ele>1226.000000</ele>
        <time>2020-08-22T10:29:40Z</time>
      </trkpt>
      <trkpt lat="42.506874" lon="1.547962">
        <ele>1226.000000</ele>
        <time>2020-08-22T10:29:40Z</time>
      </trkpt>
      <trkpt lat="42.506863" lon="1.547976">
        <ele>1226.000000</ele>
        <time>2020-08-22T10:29:40Z</time>
      </trkpt>
      <trkpt lat="42.506863" lon="1.547976">
        <ele>1226.000000</ele>
        <time>2020-08-22T10:29:40Z</time>
      </trkpt>
      <trkpt lat="42.506844" lon="1.547988">
        <ele>1226.000000</ele>
        <time>2020-08-22T10:29:47Z</time>
      </trkpt>
      <trkpt lat="42.506844" lon="1.547988">
        <ele>1226.000000</ele>
        <time>2020-08-22T10:29:47Z</time>
      </trkpt>
      <trkpt lat="42.506832" lon="1.547999">
        <ele>1226.000000</ele>
        <time>2020-08-22T10:29:47Z</time>
      </trkpt>
      <trkpt lat="42.506832" lon="1.547999">
        <ele>1226.000000</ele>
        <time>2020-08-22T10:29:47Z</time>
      </trkpt>
      <trkpt lat="42.506817" lon="1.548008">
        <ele>1226.000000</ele>
        <time>2020-08-22T10:29:47Z</time>
      </trkpt>
      <trkpt lat="42.506817" lon="1.548008">
        <ele>1226.000000</ele>
        <time>2020-08-22T10:29:47Z</time>
      </trkpt>
      <trkpt lat="42.506802" lon="1.548017">
        <ele>1226.000000</ele>
        <time>2020-08-22T10:29:47Z</time>
      </trkpt>
      <trkpt lat="42.506802" lon="1.548017">
        <ele>1226.000000</ele>
        <time>2020-08-22T10:29:47Z</time>
      </trkpt>
      <trkpt lat="42.506783" lon="1.548027">
        <ele>1228.000000</ele>
        <time>2020-08-22T10:29:47Z</time>
      </trkpt>
      <trkpt lat="42.506783" lon="1.548027">
        <ele>1228.000000</ele>
        <time>2020-08-22T10:29:47Z</time>
      </trkpt>
      <trkpt lat="42.506767" lon="1.548038">
        <ele>1228.000000</ele>
        <time>2020-08-22T10:29:47Z</time>
      </trkpt>
      <trkpt lat="42.506767" lon="1.548038">
        <ele>1228.000000</ele>
        <time>2020-08-22T10:29:47Z</time>
      </trkpt>
      <trkpt lat="42.506748" lon="1.548052">
        <ele>1228.000000</ele>
        <time>2020-08-22T10:29:54Z</time>
      </trkpt>
      <trkpt lat="42.506748" lon="1.548052">
        <ele>1228.000000</ele>
        <time>2020-08-22T10:29:54Z</time>
      </trkpt>
      <trkpt lat="42.506729" lon="1.548066">
        <ele>1228.000000</ele>
        <time>2020-08-22T10:29:54Z</time>
      </trkpt>
      <trkpt lat="42.506729" lon="1.548066">
        <ele>1229.000000</ele>
        <time>2020-08-22T10:29:54Z</time>
      </trkpt>
      <trkpt lat="42.506714" lon="1.548081">
        <ele>1229.000000</ele>
        <time>2020-08-22T10:29:54Z</time>
      </trkpt>
      <trkpt lat="42.506714" lon="1.548081">
        <ele>1229.000000</ele>
        <time>2020-08-22T10:29:54Z</time>
      </trkpt>
      <trkpt lat="42.506702" lon="1.548090">
        <ele>1229.000000</ele>
        <time>2020-08-22T10:29:54Z</time>
      </trkpt>
      <trkpt lat="42.506702" lon="1.548090">
        <ele>1229.000000</ele>
        <time>2020-08-22T10:29:54Z</time>
      </trkpt>
      <trkpt lat="42.506695" lon="1.548099">
        <ele>1229.000000</ele>
        <time>2020-08-22T10:29:54Z</time>
      </trkpt>
      <trkpt lat="42.506695" lon="1.548099">
        <ele>1230.000000</ele>
        <time>2020-08-22T10:29:54Z</time>
      </trkpt>
      <trkpt lat="42.506687" lon="1.548108">
        <ele>1230.000000</ele>
        <time>2020-08-22T10:29:54Z</time>
      </trkpt>
      <trkpt lat="42.506687" lon="1.548108">
        <ele>1230.000000</ele>
        <time>2020-08-22T10:29:54Z</time>
      </trkpt>
      <trkpt lat="42.506676" lon="1.548117">
        <ele>1230.000000</ele>
        <time>2020-08-22T10:30:02Z</time>
      </trkpt>
      <trkpt lat="42.506676" lon="1.548117">
        <ele>1230.000000</ele>
        <time>2020-08-22T10:30:02Z</time>
      </trkpt>
      <trkpt lat="42.506664" lon="1.548126">
        <ele>1231.000000</ele>
        <time>2020-08-22T10:30:02Z</time>
      </trkpt>
      <trkpt lat="42.506664" lon="1.548126">
        <ele>1231.000000</ele>
        <time>2020-08-22T10:30:02Z</time>
      </trkpt>
      <trkpt lat="42.506653" lon="1.548135">
        <ele>1231.000000</ele>
        <time>2020-08-22T10:30:02Z</time>
      </trkpt>
      <trkpt lat="42.506653" lon="1.548135">
        <ele>1231.000000</ele>
        <time>2020-08-22T10:30:02Z</time>
      </trkpt>
      <trkpt lat="42.506641" lon="1.548146">
        <ele>1231.000000</ele>
        <time>2020-08-22T10:30:02Z</time>
      </trkpt>
      <trkpt lat="42.506641" lon="1.548146">
        <ele>1231.000000</ele>
        <time>2020-08-22T10:30:02Z</time>
      </trkpt>
      <trkpt lat="42.506634" lon="1.548153">
        <ele>1232.000000</ele>
        <time>2020-08-22T10:30:02Z</time>
      </trkpt>
      <trkpt lat="42.506634" lon="1.548153">
        <ele>1232.000000</ele>
        <time>2020-08-22T10:30:02Z</time>
      </trkpt>
      <trkpt lat="42.506630" lon="1.548158">
        <ele>1232.000000</ele>
        <time>2020-08-22T10:30:02Z</time>
      </trkpt>
      <trkpt lat="42.506630" lon="1.548158">
        <ele>1232.000000</ele>
        <time>2020-08-22T10:30:02Z</time>
      </trkpt>
      <trkpt lat="42.506626" lon="1.548162">
        <ele>1232.000000</ele>
        <time>2020-08-22T10:30:09Z</time>
      </trkpt>
      <trkpt lat="42.506626" lon="1.548162">
        <ele>1232.000000</ele>
        <time>2020-08-22T10:30:09Z</time>
      </trkpt>
      <trkpt lat="42.506622" lon="1.548169">
        <ele>1232.000000</ele>
        <time>2020-08-22T10:30:09Z</time>
      </trkpt>
      <trkpt lat="42.506622" lon="1.548169">
        <ele>1232.000000</ele>
        <time>2020-08-22T10:30:09Z</time>
      </trkpt>
      <trkpt lat="42.506622" lon="1.548177">
        <ele>1232.000000</ele>
        <time>2020-08-22T10:30:09Z</time>
      </trkpt>
      <trkpt lat="42.506622" lon="1.548177">
        <ele>1232.000000</ele>
        <time>2020-08-22T10:30:09Z</time>
      </trkpt>
      <trkpt lat="42.506618" lon="1.548185">
        <ele>1232.000000</ele>
        <time>2020-08-22T10:30:16Z</time>
      </trkpt>
      <trkpt lat="42.506618" lon="1.548185">
        <ele>1232.000000</ele>
        <time>2020-08-22T10:30:16Z</time>
      </trkpt>
      <trkpt lat="42.506615" lon="1.548195">
        <ele>1232.000000</ele>
        <time>2020-08-22T10:30:16Z</time>
      </trkpt>
      <trkpt lat="42.506615" lon="1.548195">
        <ele>1232.000000</ele>
        <time>2020-08-22T10:30:16Z</time>
      </trkpt>
      <trkpt lat="42.506611" lon="1.548204">
        <ele>1232.000000</ele>
        <time>2020-08-22T10:30:16Z</time>
      </trkpt>
      <trkpt lat="42.506611" lon="1.548204">
        <ele>1232.000000</ele>
        <time>2020-08-22T10:30:16Z</time>
      </trkpt>
      <trkpt lat="42.506607" lon="1.548213">
        <ele>1233.000000</ele>
        <time>2020-08-22T10:30:16Z</time>
      </trkpt>
      <trkpt lat="42.506607" lon="1.548213">
        <ele>1233.000000</ele>
        <time>2020-08-22T10:30:16Z</time>
      </trkpt>
      <trkpt lat="42.506603" lon="1.548219">
        <ele>1233.000000</ele>
        <time>2020-08-22T10:30:16Z</time>
      </trkpt>
      <trkpt lat="42.506603" lon="1.548219">
        <ele>1233.000000</ele>
        <time>2020-08-22T10:30:16Z</time>
      </trkpt>
      <trkpt lat="42.506596" lon="1.548229">
        <ele>1233.000000</ele>
        <time>2020-08-22T10:30:16Z</time>
      </trkpt>
      <trkpt lat="42.506596" lon="1.548229">
        <ele>1233.000000</ele>
        <time>2020-08-22T10:30:16Z</time>
      </trkpt>
      <trkpt lat="42.506588" lon="1.548240">
        <ele>1233.000000</ele>
        <time>2020-08-22T10:30:16Z</time>
      </trkpt>
      <trkpt lat="42.506588" lon="1.548240">
        <ele>1233.000000</ele>
        <time>2020-08-22T10:30:16Z</time>
      </trkpt>
      <trkpt lat="42.506580" lon="1.548253">
        <ele>1233.000000</ele>
        <time>2020-08-22T10:30:23Z</time>
      </trkpt>
      <trkpt lat="42.506580" lon="1.548253">
        <ele>1233.000000</ele>
        <time>2020-08-22T10:30:23Z</time>
      </trkpt>
      <trkpt lat="42.506554" lon="1.548255">
        <ele>1233.000000</ele>
        <time>2020-08-22T10:30:23Z</time>
      </trkpt>
      <trkpt lat="42.506554" lon="1.548255">
        <ele>1233.000000</ele>
        <time>2020-08-22T10:30:23Z</time>
      </trkpt>
      <trkpt lat="42.506535" lon="1.548256">
        <ele>1233.000000</ele>
        <time>2020-08-22T10:30:23Z</time>
      </trkpt>
      <trkpt lat="42.506535" lon="1.548256">
        <ele>1233.000000</ele>
        <time>2020-08-22T10:30:23Z</time>
      </trkpt>
      <trkpt lat="42.506519" lon="1.548255">
        <ele>1233.000000</ele>
        <time>2020-08-22T10:30:23Z</time>
      </trkpt>
      <trkpt lat="42.506519" lon="1.548255">
        <ele>1233.000000</ele>
        <time>2020-08-22T10:30:23Z</time>
      </trkpt>
      <trkpt lat="42.506508" lon="1.548254">
        <ele>1233.000000</ele>
        <time>2020-08-22T10:30:23Z</time>
      </trkpt>
      <trkpt lat="42.506508" lon="1.548254">
        <ele>1233.000000</ele>
        <time>2020-08-22T10:30:23Z</time>
      </trkpt>
      <trkpt lat="42.506500" lon="1.548253">
        <ele>1233.000000</ele>
        <time>2020-08-22T10:30:30Z</time>
      </trkpt>
      <trkpt lat="42.506500" lon="1.548253">
        <ele>1233.000000</ele>
        <time>2020-08-22T10:30:30Z</time>
      </trkpt>
      <trkpt lat="42.506496" lon="1.548251">
        <ele>1233.000000</ele>
        <time>2020-08-22T10:30:30Z</time>
      </trkpt>
      <trkpt lat="42.506496" lon="1.548251">
        <ele>1233.000000</ele>
        <time>2020-08-22T10:30:30Z</time>
      </trkpt>
      <trkpt lat="42.506489" lon="1.548250">
        <ele>1233.000000</ele>
        <time>2020-08-22T10:30:30Z</time>
      </trkpt>
      <trkpt lat="42.506489" lon="1.548250">
        <ele>1233.000000</ele>
        <time>2020-08-22T10:30:30Z</time>
      </trkpt>
      <trkpt lat="42.506489" lon="1.548248">
        <ele>1233.000000</ele>
        <time>2020-08-22T10:30:30Z</time>
      </trkpt>
      <trkpt lat="42.506489" lon="1.548248">
        <ele>1233.000000</ele>
        <time>2020-08-22T10:30:30Z</time>
      </trkpt>
      <trkpt lat="42.506493" lon="1.548246">
        <ele>1233.000000</ele>
        <time>2020-08-22T10:30:30Z</time>
      </trkpt>
      <trkpt lat="42.506493" lon="1.548246">
        <ele>1233.000000</ele>
        <time>2020-08-22T10:30:30Z</time>
      </trkpt>
      <trkpt lat="42.506500" lon="1.548244">
        <ele>1233.000000</ele>
        <time>2020-08-22T10:30:30Z</time>
      </trkpt>
      <trkpt lat="42.506500" lon="1.548244">
        <ele>1233.000000</ele>
        <time>2020-08-22T10:30:30Z</time>
      </trkpt>
      <trkpt lat="42.506515" lon="1.548252">
        <ele>1233.000000</ele>
        <time>2020-08-22T10:30:37Z</time>
      </trkpt>
      <trkpt lat="42.506515" lon="1.548252">
        <ele>1233.000000</ele>
        <time>2020-08-22T10:30:37Z</time>
      </trkpt>
      <trkpt lat="42.506527" lon="1.548260">
        <ele>1233.000000</ele>
        <time>2020-08-22T10:30:37Z</time>
      </trkpt>
      <trkpt lat="42.506527" lon="1.548260">
        <ele>1233.000000</ele>
        <time>2020-08-22T10:30:37Z</time>
      </trkpt>
      <trkpt lat="42.506538" lon="1.548269">
        <ele>1233.000000</ele>
        <time>2020-08-22T10:30:37Z</time>
      </trkpt>
      <trkpt lat="42.506538" lon="1.548269">
        <ele>1233.000000</ele>
        <time>2020-08-22T10:30:37Z</time>
      </trkpt>
      <trkpt lat="42.506542" lon="1.548276">
        <ele>1233.000000</ele>
        <time>2020-08-22T10:30:37Z</time>
      </trkpt>
      <trkpt lat="42.506542" lon="1.548276">
        <ele>1233.000000</ele>
        <time>2020-08-22T10:30:37Z</time>
      </trkpt>
      <trkpt lat="42.506546" lon="1.548283">
        <ele>1233.000000</ele>
        <time>2020-08-22T10:30:37Z</time>
      </trkpt>
      <trkpt lat="42.506546" lon="1.548283">
        <ele>1233.000000</ele>
        <time>2020-08-22T10:30:37Z</time>
      </trkpt>
      <trkpt lat="42.506546" lon="1.548290">
        <ele>1233.000000</ele>
        <time>2020-08-22T10:30:37Z</time>
      </trkpt>
      <trkpt lat="42.506546" lon="1.548290">
        <ele>1233.000000</ele>
        <time>2020-08-22T10:30:37Z</time>
      </trkpt>
      <trkpt lat="42.506542" lon="1.548297">
        <ele>1233.000000</ele>
        <time>2020-08-22T10:30:37Z</time>
      </trkpt>
      <trkpt lat="42.506542" lon="1.548297">
        <ele>1233.000000</ele>
        <time>2020-08-22T10:30:37Z</time>
      </trkpt>
      <trkpt lat="42.506538" lon="1.548305">
        <ele>1233.000000</ele>
        <time>2020-08-22T10:30:44Z</time>
      </trkpt>
      <trkpt lat="42.506538" lon="1.548305">
        <ele>1233.000000</ele>
        <time>2020-08-22T10:30:44Z</time>
      </trkpt>
      <trkpt lat="42.506527" lon="1.548314">
        <ele>1240.000000</ele>
        <time>2020-08-22T10:30:44Z</time>
      </trkpt>
      <trkpt lat="42.506527" lon="1.548314">
        <ele>1240.000000</ele>
        <time>2020-08-22T10:30:44Z</time>
      </trkpt>
      <trkpt lat="42.506515" lon="1.548322">
        <ele>1240.000000</ele>
        <time>2020-08-22T10:30:44Z</time>
      </trkpt>
      <trkpt lat="42.506515" lon="1.548322">
        <ele>1240.000000</ele>
        <time>2020-08-22T10:30:44Z</time>
      </trkpt>
      <trkpt lat="42.506508" lon="1.548329">
        <ele>1240.000000</ele>
        <time>2020-08-22T10:30:44Z</time>
      </trkpt>
      <trkpt lat="42.506508" lon="1.548329">
        <ele>1240.000000</ele>
        <time>2020-08-22T10:30:44Z</time>
      </trkpt>
      <trkpt lat="42.506496" lon="1.548337">
        <ele>1240.000000</ele>
        <time>2020-08-22T10:30:44Z</time>
      </trkpt>
      <trkpt lat="42.506496" lon="1.548337">
        <ele>1240.000000</ele>
        <time>2020-08-22T10:30:44Z</time>
      </trkpt>
      <trkpt lat="42.506485" lon="1.548345">
        <ele>1240.000000</ele>
        <time>2020-08-22T10:30:44Z</time>
      </trkpt>
      <trkpt lat="42.506485" lon="1.548345">
        <ele>1240.000000</ele>
        <time>2020-08-22T10:30:44Z</time>
      </trkpt>
      <trkpt lat="42.506474" lon="1.548355">
        <ele>1240.000000</ele>
        <time>2020-08-22T10:30:44Z</time>
      </trkpt>
      <trkpt lat="42.506474" lon="1.548355">
        <ele>1240.000000</ele>
        <time>2020-08-22T10:30:44Z</time>
      </trkpt>
      <trkpt lat="42.506462" lon="1.548366">
        <ele>1240.000000</ele>
        <time>2020-08-22T10:30:51Z</time>
      </trkpt>
      <trkpt lat="42.506462" lon="1.548366">
        <ele>1240.000000</ele>
        <time>2020-08-22T10:30:51Z</time>
      </trkpt>
      <trkpt lat="42.506454" lon="1.548377">
        <ele>1240.000000</ele>
        <time>2020-08-22T10:30:51Z</time>
      </trkpt>
      <trkpt lat="42.506454" lon="1.548377">
        <ele>1240.000000</ele>
        <time>2020-08-22T10:30:51Z</time>
      </trkpt>
      <trkpt lat="42.506439" lon="1.548389">
        <ele>1240.000000</ele>
        <time>2020-08-22T10:30:51Z</time>
      </trkpt>
      <trkpt lat="42.506439" lon="1.548389">
        <ele>1240.000000</ele>
        <time>2020-08-22T10:30:51Z</time>
      </trkpt>
      <trkpt lat="42.506428" lon="1.548401">
        <ele>1240.000000</ele>
        <time>2020-08-22T10:30:51Z</time>
      </trkpt>
      <trkpt lat="42.506428" lon="1.548401">
        <ele>1240.000000</ele>
        <time>2020-08-22T10:30:51Z</time>
      </trkpt>
      <trkpt lat="42.506416" lon="1.548414">
        <ele>1240.000000</ele>
        <time>2020-08-22T10:30:51Z</time>
      </trkpt>
      <trkpt lat="42.506416" lon="1.548414">
        <ele>1240.000000</ele>
        <time>2020-08-22T10:30:51Z</time>
      </trkpt>
      <trkpt lat="42.506405" lon="1.548427">
        <ele>1240.000000</ele>
        <time>2020-08-22T10:30:51Z</time>
      </trkpt>
      <trkpt lat="42.506405" lon="1.548427">
        <ele>1240.000000</ele>
        <time>2020-08-22T10:30:51Z</time>
      </trkpt>
      <trkpt lat="42.506386" lon="1.548444">
        <ele>1240.000000</ele>
        <time>2020-08-22T10:30:51Z</time>
      </trkpt>
      <trkpt lat="42.506386" lon="1.548444">
        <ele>1240.000000</ele>
        <time>2020-08-22T10:30:51Z</time>
      </trkpt>
      <trkpt lat="42.506367" lon="1.548461">
        <ele>1240.000000</ele>
        <time>2020-08-22T10:30:51Z</time>
      </trkpt>
      <trkpt lat="42.506367" lon="1.548461">
        <ele>1240.000000</ele>
        <time>2020-08-22T10:30:51Z</time>
      </trkpt>
      <trkpt lat="42.506351" lon="1.548479">
        <ele>1240.000000</ele>
        <time>2020-08-22T10:30:58Z</time>
      </trkpt>
      <trkpt lat="42.506351" lon="1.548479">
        <ele>1240.000000</ele>
        <time>2020-08-22T10:30:58Z</time>
      </trkpt>
      <trkpt lat="42.506332" lon="1.548497">
        <ele>1240.000000</ele>
        <time>2020-08-22T10:30:58Z</time>
      </trkpt>
      <trkpt lat="42.506332" lon="1.548497">
        <ele>1240.000000</ele>
        <time>2020-08-22T10:30:58Z</time>
      </trkpt>
      <trkpt lat="42.506317" lon="1.548513">
        <ele>1240.000000</ele>
        <time>2020-08-22T10:30:58Z</time>
      </trkpt>
      <trkpt lat="42.506317" lon="1.548513">
        <ele>1240.000000</ele>
        <time>2020-08-22T10:30:58Z</time>
      </trkpt>
      <trkpt lat="42.506302" lon="1.548530">
        <ele>1240.000000</ele>
        <time>2020-08-22T10:30:58Z</time>
      </trkpt>
      <trkpt lat="42.506302" lon="1.548530">
        <ele>1240.000000</ele>
        <time>2020-08-22T10:30:58Z</time>
      </trkpt>
      <trkpt lat="42.506287" lon="1.548545">
        <ele>1240.000000</ele>
        <time>2020-08-22T10:30:58Z</time>
      </trkpt>
      <trkpt lat="42.506287" lon="1.548545">
        <ele>1240.000000</ele>
        <time>2020-08-22T10:30:58Z</time>
      </trkpt>
      <trkpt lat="42.506271" lon="1.548560">
        <ele>1240.000000</ele>
        <time>2020-08-22T10:30:58Z</time>
      </trkpt>
      <trkpt lat="42.506271" lon="1.548560">
        <ele>1240.000000</ele>
        <time>2020-08-22T10:30:58Z</time>
      </trkpt>
      <trkpt lat="42.506260" lon="1.548575">
        <ele>1240.000000</ele>
        <time>2020-08-22T10:30:58Z</time>
      </trkpt>
      <trkpt lat="42.506260" lon="1.548575">
        <ele>1240.000000</ele>
        <time>2020-08-22T10:30:58Z</time>
      </trkpt>
      <trkpt lat="42.506248" lon="1.548590">
        <ele>1240.000000</ele>
        <time>2020-08-22T10:31:05Z</time>
      </trkpt>
      <trkpt lat="42.506248" lon="1.548590">
        <ele>1240.000000</ele>
        <time>2020-08-22T10:31:05Z</time>
      </trkpt>
      <trkpt lat="42.506241" lon="1.548609">
        <ele>1240.000000</ele>
        <time>2020-08-22T10:31:05Z</time>
      </trkpt>
      <trkpt lat="42.506241" lon="1.548609">
        <ele>1240.000000</ele>
        <time>2020-08-22T10:31:05Z</time>
      </trkpt>
      <trkpt lat="42.506229" lon="1.548627">
        <ele>1240.000000</ele>
        <time>2020-08-22T10:31:12Z</time>
      </trkpt>
      <trkpt lat="42.506229" lon="1.548627">
        <ele>1240.000000</ele>
        <time>2020-08-22T10:31:12Z</time>
      </trkpt>
      <trkpt lat="42.506222" lon="1.548645">
        <ele>1240.000000</ele>
        <time>2020-08-22T10:31:12Z</time>
      </trkpt>
      <trkpt lat="42.506222" lon="1.548645">
        <ele>1240.000000</ele>
        <time>2020-08-22T10:31:12Z</time>
      </trkpt>
      <trkpt lat="42.506214" lon="1.548662">
        <ele>1240.000000</ele>
        <time>2020-08-22T10:31:12Z</time>
      </trkpt>
      <trkpt lat="42.506214" lon="1.548662">
        <ele>1240.000000</ele>
        <time>2020-08-22T10:31:12Z</time>
      </trkpt>
      <trkpt lat="42.506207" lon="1.548679">
        <ele>1240.000000</ele>
        <time>2020-08-22T10:31:12Z</time>
      </trkpt>
      <trkpt lat="42.506207" lon="1.548679">
        <ele>1240.000000</ele>
        <time>2020-08-22T10:31:12Z</time>
      </trkpt>
      <trkpt lat="42.506199" lon="1.548696">
        <ele>1240.000000</ele>
        <time>2020-08-22T10:31:12Z</time>
      </trkpt>
      <trkpt lat="42.506199" lon="1.548696">
        <ele>1240.000000</ele>
        <time>2020-08-22T10:31:12Z</time>
      </trkpt>
      <trkpt lat="42.506195" lon="1.548712">
        <ele>1240.000000</ele>
        <time>2020-08-22T10:31:12Z</time>
      </trkpt>
      <trkpt lat="42.506195" lon="1.548712">
        <ele>1240.000000</ele>
        <time>2020-08-22T10:31:12Z</time>
      </trkpt>
      <trkpt lat="42.506187" lon="1.548729">
        <ele>1240.000000</ele>
        <time>2020-08-22T10:31:12Z</time>
      </trkpt>
      <trkpt lat="42.506187" lon="1.548729">
        <ele>1240.000000</ele>
        <time>2020-08-22T10:31:12Z</time>
      </trkpt>
      <trkpt lat="42.506180" lon="1.548747">
        <ele>1240.000000</ele>
        <time>2020-08-22T10:31:19Z</time>
      </trkpt>
      <trkpt lat="42.506180" lon="1.548747">
        <ele>1240.000000</ele>
        <time>2020-08-22T10:31:19Z</time>
      </trkpt>
      <trkpt lat="42.506176" lon="1.548763">
        <ele>1240.000000</ele>
        <time>2020-08-22T10:31:19Z</time>
      </trkpt>
      <trkpt lat="42.506176" lon="1.548763">
        <ele>1240.000000</ele>
        <time>2020-08-22T10:31:19Z</time>
      </trkpt>
      <trkpt lat="42.506172" lon="1.548784">
        <ele>1240.000000</ele>
        <time>2020-08-22T10:31:19Z</time>
      </trkpt>
      <trkpt lat="42.506172" lon="1.548784">
        <ele>1240.000000</ele>
        <time>2020-08-22T10:31:19Z</time>
      </trkpt>
      <trkpt lat="42.506165" lon="1.548804">
        <ele>1240.000000</ele>
        <time>2020-08-22T10:31:19Z</time>
      </trkpt>
      <trkpt lat="42.506165" lon="1.548804">
        <ele>1240.000000</ele>
        <time>2020-08-22T10:31:19Z</time>
      </trkpt>
      <trkpt lat="42.506161" lon="1.548825">
        <ele>1240.000000</ele>
        <time>2020-08-22T10:31:19Z</time>
      </trkpt>
      <trkpt lat="42.506161" lon="1.548825">
        <ele>1240.000000</ele>
        <time>2020-08-22T10:31:19Z</time>
      </trkpt>
      <trkpt lat="42.506153" lon="1.548845">
        <ele>1240.000000</ele>
        <time>2020-08-22T10:31:26Z</time>
      </trkpt>
      <trkpt lat="42.506153" lon="1.548845">
        <ele>1240.000000</ele>
        <time>2020-08-22T10:31:26Z</time>
      </trkpt>
      <trkpt lat="42.506145" lon="1.548865">
        <ele>1240.000000</ele>
        <time>2020-08-22T10:31:26Z</time>
      </trkpt>
      <trkpt lat="42.506145" lon="1.548865">
        <ele>1240.000000</ele>
        <time>2020-08-22T10:31:26Z</time>
      </trkpt>
      <trkpt lat="42.506134" lon="1.548884">
        <ele>1240.000000</ele>
        <time>2020-08-22T10:31:26Z</time>
      </trkpt>
      <trkpt lat="42.506134" lon="1.548884">
        <ele>1240.000000</ele>
        <time>2020-08-22T10:31:26Z</time>
      </trkpt>
      <trkpt lat="42.506123" lon="1.548904">
        <ele>1240.000000</ele>
        <time>2020-08-22T10:31:26Z</time>
      </trkpt>
      <trkpt lat="42.506123" lon="1.548904">
        <ele>1240.000000</ele>
        <time>2020-08-22T10:31:26Z</time>
      </trkpt>
      <trkpt lat="42.506111" lon="1.548923">
        <ele>1240.000000</ele>
        <time>2020-08-22T10:31:26Z</time>
      </trkpt>
      <trkpt lat="42.506111" lon="1.548923">
        <ele>1240.000000</ele>
        <time>2020-08-22T10:31:26Z</time>
      </trkpt>
      <trkpt lat="42.506100" lon="1.548941">
        <ele>1240.000000</ele>
        <time>2020-08-22T10:31:26Z</time>
      </trkpt>
      <trkpt lat="42.506100" lon="1.548941">
        <ele>1240.000000</ele>
        <time>2020-08-22T10:31:26Z</time>
      </trkpt>
      <trkpt lat="42.506088" lon="1.548960">
        <ele>1240.000000</ele>
        <time>2020-08-22T10:31:26Z</time>
      </trkpt>
      <trkpt lat="42.506088" lon="1.548960">
        <ele>1240.000000</ele>
        <time>2020-08-22T10:31:26Z</time>
      </trkpt>
      <trkpt lat="42.506077" lon="1.548968">
        <ele>1240.000000</ele>
        <time>2020-08-22T10:31:33Z</time>
      </trkpt>
      <trkpt lat="42.506077" lon="1.548968">
        <ele>1240.000000</ele>
        <time>2020-08-22T10:31:33Z</time>
      </trkpt>
      <trkpt lat="42.506065" lon="1.548978">
        <ele>1240.000000</ele>
        <time>2020-08-22T10:31:33Z</time>
      </trkpt>
      <trkpt lat="42.506065" lon="1.548978">
        <ele>1240.000000</ele>
        <time>2020-08-22T10:31:33Z</time>
      </trkpt>
      <trkpt lat="42.506058" lon="1.548988">
        <ele>1240.000000</ele>
        <time>2020-08-22T10:31:33Z</time>
      </trkpt>
      <trkpt lat="42.506058" lon="1.548988">
        <ele>1240.000000</ele>
        <time>2020-08-22T10:31:33Z</time>
      </trkpt>
      <trkpt lat="42.506046" lon="1.548998">
        <ele>1240.000000</ele>
        <time>2020-08-22T10:31:33Z</time>
      </trkpt>
      <trkpt lat="42.506046" lon="1.548998">
        <ele>1240.000000</ele>
        <time>2020-08-22T10:31:33Z</time>
      </trkpt>
      <trkpt lat="42.506035" lon="1.549008">
        <ele>1240.000000</ele>
        <time>2020-08-22T10:31:33Z</time>
      </trkpt>
      <trkpt lat="42.506035" lon="1.549008">
        <ele>1240.000000</ele>
        <time>2020-08-22T10:31:33Z</time>
      </trkpt>
      <trkpt lat="42.506023" lon="1.549018">
        <ele>1240.000000</ele>
        <time>2020-08-22T10:31:33Z</time>
      </trkpt>
      <trkpt lat="42.506023" lon="1.549018">
        <ele>1240.000000</ele>
        <time>2020-08-22T10:31:33Z</time>
      </trkpt>
      <trkpt lat="42.506016" lon="1.549027">
        <ele>1240.000000</ele>
        <time>2020-08-22T10:31:33Z</time>
      </trkpt>
      <trkpt lat="42.506016" lon="1.549027">
        <ele>1240.000000</ele>
        <time>2020-08-22T10:31:33Z</time>
      </trkpt>
      <trkpt lat="42.506008" lon="1.549033">
        <ele>1240.000000</ele>
        <time>2020-08-22T10:31:40Z</time>
      </trkpt>
      <trkpt lat="42.506008" lon="1.549033">
        <ele>1240.000000</ele>
        <time>2020-08-22T10:31:40Z</time>
      </trkpt>
      <trkpt lat="42.505997" lon="1.549038">
        <ele>1240.000000</ele>
        <time>2020-08-22T10:31:40Z</time>
      </trkpt>
      <trkpt lat="42.505997" lon="1.549038">
        <ele>1240.000000</ele>
        <time>2020-08-22T10:31:40Z</time>
      </trkpt>
      <trkpt lat="42.505989" lon="1.549042">
        <ele>1240.000000</ele>
        <time>2020-08-22T10:31:40Z</time>
      </trkpt>
      <trkpt lat="42.505989" lon="1.549042">
        <ele>1240.000000</ele>
        <time>2020-08-22T10:31:40Z</time>
      </trkpt>
      <trkpt lat="42.505981" lon="1.549044">
        <ele>1240.000000</ele>
        <time>2020-08-22T10:31:40Z</time>
      </trkpt>
      <trkpt lat="42.505981" lon="1.549044">
        <ele>1240.000000</ele>
        <time>2020-08-22T10:31:40Z</time>
      </trkpt>
      <trkpt lat="42.505974" lon="1.549045">
        <ele>1240.000000</ele>
        <time>2020-08-22T10:31:40Z</time>
      </trkpt>
      <trkpt lat="42.505974" lon="1.549045">
        <ele>1240.000000</ele>
        <time>2020-08-22T10:31:40Z</time>
      </trkpt>
      <trkpt lat="42.505962" lon="1.549045">
        <ele>1240.000000</ele>
        <time>2020-08-22T10:31:40Z</time>
      </trkpt>
      <trkpt lat="42.505962" lon="1.549045">
        <ele>1240.000000</ele>
        <time>2020-08-22T10:31:40Z</time>
      </trkpt>
      <trkpt lat="42.505955" lon="1.549045">
        <ele>1240.000000</ele>
        <time>2020-08-22T10:31:40Z</time>
      </trkpt>
      <trkpt lat="42.505955" lon="1.549045">
        <ele>1240.000000</ele>
        <time>2020-08-22T10:31:40Z</time>
      </trkpt>
      <trkpt lat="42.505943" lon="1.549044">
        <ele>1250.000000</ele>
        <time>2020-08-22T10:31:47Z</time>
      </trkpt>
      <trkpt lat="42.505943" lon="1.549044">
        <ele>1251.000000</ele>
        <time>2020-08-22T10:31:47Z</time>
      </trkpt>
      <trkpt lat="42.505932" lon="1.549045">
        <ele>1251.000000</ele>
        <time>2020-08-22T10:31:47Z</time>
      </trkpt>
      <trkpt lat="42.505932" lon="1.549045">
        <ele>1251.000000</ele>
        <time>2020-08-22T10:31:47Z</time>
      </trkpt>
      <trkpt lat="42.505924" lon="1.549047">
        <ele>1251.000000</ele>
        <time>2020-08-22T10:31:47Z</time>
      </trkpt>
      <trkpt lat="42.505924" lon="1.549047">
        <ele>1251.000000</ele>
        <time>2020-08-22T10:31:47Z</time>
      </trkpt>
      <trkpt lat="42.505917" lon="1.549052">
        <ele>1252.000000</ele>
        <time>2020-08-22T10:31:47Z</time>
      </trkpt>
      <trkpt lat="42.505917" lon="1.549052">
        <ele>1252.000000</ele>
        <time>2020-08-22T10:31:47Z</time>
      </trkpt>
      <trkpt lat="42.505909" lon="1.549060">
        <ele>1252.000000</ele>
        <time>2020-08-22T10:31:47Z</time>
      </trkpt>
      <trkpt lat="42.505909" lon="1.549060">
        <ele>1252.000000</ele>
        <time>2020-08-22T10:31:47Z</time>
      </trkpt>
      <trkpt lat="42.505905" lon="1.549069">
        <ele>1252.000000</ele>
        <time>2020-08-22T10:31:47Z</time>
      </trkpt>
      <trkpt lat="42.505905" lon="1.549069">
        <ele>1254.000000</ele>
        <time>2020-08-22T10:31:47Z</time>
      </trkpt>
      <trkpt lat="42.505890" lon="1.549092">
        <ele>1254.000000</ele>
        <time>2020-08-22T10:31:47Z</time>
      </trkpt>
      <trkpt lat="42.505890" lon="1.549092">
        <ele>1255.000000</ele>
        <time>2020-08-22T10:31:47Z</time>
      </trkpt>
      <trkpt lat="42.505878" lon="1.549115">
        <ele>1255.000000</ele>
        <time>2020-08-22T10:31:54Z</time>
      </trkpt>
      <trkpt lat="42.505878" lon="1.549115">
        <ele>1255.000000</ele>
        <time>2020-08-22T10:31:54Z</time>
      </trkpt>
      <trkpt lat="42.505863" lon="1.549138">
        <ele>1256.000000</ele>
        <time>2020-08-22T10:31:54Z</time>
      </trkpt>
      <trkpt lat="42.505863" lon="1.549138">
        <ele>1256.000000</ele>
        <time>2020-08-22T10:31:54Z</time>
      </trkpt>
      <trkpt lat="42.505848" lon="1.549162">
        <ele>1256.000000</ele>
        <time>2020-08-22T10:31:54Z</time>
      </trkpt>
      <trkpt lat="42.505848" lon="1.549162">
        <ele>1256.000000</ele>
        <time>2020-08-22T10:31:54Z</time>
      </trkpt>
      <trkpt lat="42.505836" lon="1.549186">
        <ele>1257.000000</ele>
        <time>2020-08-22T10:31:54Z</time>
      </trkpt>
      <trkpt lat="42.505836" lon="1.549186">
        <ele>1259.000000</ele>
        <time>2020-08-22T10:31:54Z</time>
      </trkpt>
      <trkpt lat="42.505821" lon="1.549211">
        <ele>1259.000000</ele>
        <time>2020-08-22T10:31:54Z</time>
      </trkpt>
      <trkpt lat="42.505821" lon="1.549211">
        <ele>1259.000000</ele>
        <time>2020-08-22T10:31:54Z</time>
      </trkpt>
      <trkpt lat="42.505810" lon="1.549235">
        <ele>1259.000000</ele>
        <time>2020-08-22T10:31:54Z</time>
      </trkpt>
      <trkpt lat="42.505810" lon="1.549235">
        <ele>1259.000000</ele>
        <time>2020-08-22T10:31:54Z</time>
      </trkpt>
      <trkpt lat="42.505791" lon="1.549258">
        <ele>1259.000000</ele>
        <time>2020-08-22T10:31:54Z</time>
      </trkpt>
      <trkpt lat="42.505791" lon="1.549258">
        <ele>1259.000000</ele>
        <time>2020-08-22T10:31:54Z</time>
      </trkpt>
      <trkpt lat="42.505779" lon="1.549281">
        <ele>1259.000000</ele>
        <time>2020-08-22T10:32:01Z</time>
      </trkpt>
      <trkpt lat="42.505779" lon="1.549281">
        <ele>1259.000000</ele>
        <time>2020-08-22T10:32:01Z</time>
      </trkpt>
      <trkpt lat="42.505764" lon="1.549301">
        <ele>1259.000000</ele>
        <time>2020-08-22T10:32:01Z</time>
      </trkpt>
      <trkpt lat="42.505764" lon="1.549301">
        <ele>1259.000000</ele>
        <time>2020-08-22T10:32:01Z</time>
      </trkpt>
      <trkpt lat="42.505756" lon="1.549300">
        <ele>1259.000000</ele>
        <time>2020-08-22T10:32:01Z</time>
      </trkpt>
      <trkpt lat="42.505756" lon="1.549300">
        <ele>1259.000000</ele>
        <time>2020-08-22T10:32:01Z</time>
      </trkpt>
      <trkpt lat="42.505756" lon="1.549299">
        <ele>1259.000000</ele>
        <time>2020-08-22T10:32:08Z</time>
      </trkpt>
      <trkpt lat="42.505756" lon="1.549299">
        <ele>1259.000000</ele>
        <time>2020-08-22T10:32:08Z</time>
      </trkpt>
      <trkpt lat="42.505753" lon="1.549297">
        <ele>1259.000000</ele>
        <time>2020-08-22T10:32:08Z</time>
      </trkpt>
      <trkpt lat="42.505753" lon="1.549297">
        <ele>1259.000000</ele>
        <time>2020-08-22T10:32:08Z</time>
      </trkpt>
      <trkpt lat="42.505753" lon="1.549294">
        <ele>1259.000000</ele>
        <time>2020-08-22T10:32:08Z</time>
      </trkpt>
      <trkpt lat="42.505753" lon="1.549294">
        <ele>1259.000000</ele>
        <time>2020-08-22T10:32:08Z</time>
      </trkpt>
      <trkpt lat="42.505756" lon="1.549291">
        <ele>1259.000000</ele>
        <time>2020-08-22T10:32:08Z</time>
      </trkpt>
      <trkpt lat="42.505756" lon="1.549291">
        <ele>1259.000000</ele>
        <time>2020-08-22T10:32:08Z</time>
      </trkpt>
      <trkpt lat="42.505764" lon="1.549287">
        <ele>1259.000000</ele>
        <time>2020-08-22T10:32:08Z</time>
      </trkpt>
      <trkpt lat="42.505764" lon="1.549287">
        <ele>1264.000000</ele>
        <time>2020-08-22T10:32:08Z</time>
      </trkpt>
      <trkpt lat="42.505772" lon="1.549281">
        <ele>1264.000000</ele>
        <time>2020-08-22T10:32:08Z</time>
      </trkpt>
      <trkpt lat="42.505772" lon="1.549281">
        <ele>1264.000000</ele>
        <time>2020-08-22T10:32:08Z</time>
      </trkpt>
      <trkpt lat="42.505783" lon="1.549275">
        <ele>1264.000000</ele>
        <time>2020-08-22T10:32:08Z</time>
      </trkpt>
      <trkpt lat="42.505783" lon="1.549275">
        <ele>1264.000000</ele>
        <time>2020-08-22T10:32:08Z</time>
      </trkpt>
      <trkpt lat="42.505791" lon="1.549269">
        <ele>1265.000000</ele>
        <time>2020-08-22T10:32:15Z</time>
      </trkpt>
      <trkpt lat="42.505791" lon="1.549269">
        <ele>1265.000000</ele>
        <time>2020-08-22T10:32:15Z</time>
      </trkpt>
      <trkpt lat="42.505802" lon="1.549262">
        <ele>1265.000000</ele>
        <time>2020-08-22T10:32:15Z</time>
      </trkpt>
      <trkpt lat="42.505802" lon="1.549262">
        <ele>1266.000000</ele>
        <time>2020-08-22T10:32:15Z</time>
      </trkpt>
      <trkpt lat="42.505814" lon="1.549262">
        <ele>1267.000000</ele>
        <time>2020-08-22T10:32:15Z</time>
      </trkpt>
      <trkpt lat="42.505814" lon="1.549262">
        <ele>1267.000000</ele>
        <time>2020-08-22T10:32:15Z</time>
      </trkpt>
      <trkpt lat="42.505821" lon="1.549264">
        <ele>1267.000000</ele>
        <time>2020-08-22T10:32:23Z</time>
      </trkpt>
      <trkpt lat="42.505821" lon="1.549264">
        <ele>1267.000000</ele>
        <time>2020-08-22T10:32:23Z</time>
      </trkpt>
      <trkpt lat="42.505825" lon="1.549266">
        <ele>1267.000000</ele>
        <time>2020-08-22T10:32:23Z</time>
      </trkpt>
      <trkpt lat="42.505825" lon="1.549266">
        <ele>1268.000000</ele>
        <time>2020-08-22T10:32:23Z</time>
      </trkpt>
      <trkpt lat="42.505833" lon="1.549268">
        <ele>1268.000000</ele>
        <time>2020-08-22T10:32:23Z</time>
      </trkpt>
      <trkpt lat="42.505833" lon="1.549268">
        <ele>1268.000000</ele>
        <time>2020-08-22T10:32:23Z</time>
      </trkpt>
      <trkpt lat="42.505836" lon="1.549271">
        <ele>1268.000000</ele>
        <time>2020-08-22T10:32:23Z</time>
      </trkpt>
      <trkpt lat="42.505836" lon="1.549271">
        <ele>1269.000000</ele>
        <time>2020-08-22T10:32:23Z</time>
      </trkpt>
      <trkpt lat="42.505833" lon="1.549273">
        <ele>1269.000000</ele>
        <time>2020-08-22T10:32:23Z</time>
      </trkpt>
      <trkpt lat="42.505833" lon="1.549273">
        <ele>1269.000000</ele>
        <time>2020-08-22T10:32:23Z</time>
      </trkpt>
      <trkpt lat="42.505829" lon="1.549275">
        <ele>1269.000000</ele>
        <time>2020-08-22T10:32:23Z</time>
      </trkpt>
      <trkpt lat="42.505829" lon="1.549275">
        <ele>1269.000000</ele>
        <time>2020-08-22T10:32:23Z</time>
      </trkpt>
      <trkpt lat="42.505825" lon="1.549278">
        <ele>1269.000000</ele>
        <time>2020-08-22T10:32:23Z</time>
      </trkpt>
      <trkpt lat="42.505825" lon="1.549278">
        <ele>1269.000000</ele>
        <time>2020-08-22T10:32:23Z</time>
      </trkpt>
      <trkpt lat="42.505817" lon="1.549282">
        <ele>1269.000000</ele>
        <time>2020-08-22T10:32:31Z</time>
      </trkpt>
      <trkpt lat="42.505817" lon="1.549282">
        <ele>1269.000000</ele>
        <time>2020-08-22T10:32:31Z</time>
      </trkpt>
      <trkpt lat="42.505810" lon="1.549287">
        <ele>1269.000000</ele>
        <time>2020-08-22T10:32:31Z</time>
      </trkpt>
      <trkpt lat="42.505810" lon="1.549287">
        <ele>1275.000000</ele>
        <time>2020-08-22T10:32:31Z</time>
      </trkpt>
      <trkpt lat="42.505791" lon="1.549296">
        <ele>1275.000000</ele>
        <time>2020-08-22T10:32:31Z</time>
      </trkpt>
      <trkpt lat="42.505791" lon="1.549296">
        <ele>1275.000000</ele>
        <time>2020-08-22T10:32:31Z</time>
      </trkpt>
      <trkpt lat="42.505775" lon="1.549303">
        <ele>1275.000000</ele>
        <time>2020-08-22T10:32:31Z</time>
      </trkpt>
      <trkpt lat="42.505775" lon="1.549303">
        <ele>1276.000000</ele>
        <time>2020-08-22T10:32:31Z</time>
      </trkpt>
      <trkpt lat="42.505760" lon="1.549311">
        <ele>1276.000000</ele>
        <time>2020-08-22T10:32:31Z</time>
      </trkpt>
      <trkpt lat="42.505760" lon="1.549311">
        <ele>1276.000000</ele>
        <time>2020-08-22T10:32:31Z</time>
      </trkpt>
      <trkpt lat="42.505745" lon="1.549317">
        <ele>1276.000000</ele>
        <time>2020-08-22T10:32:31Z</time>
      </trkpt>
      <trkpt lat="42.505745" lon="1.549317">
        <ele>1276.000000</ele>
        <time>2020-08-22T10:32:31Z</time>
      </trkpt>
      <trkpt lat="42.505730" lon="1.549324">
        <ele>1276.000000</ele>
        <time>2020-08-22T10:32:38Z</time>
      </trkpt>
      <trkpt lat="42.505730" lon="1.549324">
        <ele>1276.000000</ele>
        <time>2020-08-22T10:32:38Z</time>
      </trkpt>
      <trkpt lat="42.505711" lon="1.549330">
        <ele>1277.000000</ele>
        <time>2020-08-22T10:32:38Z</time>
      </trkpt>
      <trkpt lat="42.505711" lon="1.549330">
        <ele>1277.000000</ele>
        <time>2020-08-22T10:32:38Z</time>
      </trkpt>
      <trkpt lat="42.505695" lon="1.549336">
        <ele>1277.000000</ele>
        <time>2020-08-22T10:32:38Z</time>
      </trkpt>
      <trkpt lat="42.505695" lon="1.549336">
        <ele>1277.000000</ele>
        <time>2020-08-22T10:32:38Z</time>
      </trkpt>
      <trkpt lat="42.505676" lon="1.549341">
        <ele>1277.000000</ele>
        <time>2020-08-22T10:32:38Z</time>
      </trkpt>
      <trkpt lat="42.505676" lon="1.549341">
        <ele>1277.000000</ele>
        <time>2020-08-22T10:32:38Z</time>
      </trkpt>
      <trkpt lat="42.505661" lon="1.549345">
        <ele>1278.000000</ele>
        <time>2020-08-22T10:32:38Z</time>
      </trkpt>
      <trkpt lat="42.505661" lon="1.549345">
        <ele>1278.000000</ele>
        <time>2020-08-22T10:32:38Z</time>
      </trkpt>
      <trkpt lat="42.505646" lon="1.549347">
        <ele>1278.000000</ele>
        <time>2020-08-22T10:32:38Z</time>
      </trkpt>
      <trkpt lat="42.505646" lon="1.549347">
        <ele>1280.000000</ele>
        <time>2020-08-22T10:32:38Z</time>
      </trkpt>
      <trkpt lat="42.505638" lon="1.549353">
        <ele>1280.000000</ele>
        <time>2020-08-22T10:32:38Z</time>
      </trkpt>
      <trkpt lat="42.505638" lon="1.549353">
        <ele>1280.000000</ele>
        <time>2020-08-22T10:32:38Z</time>
      </trkpt>
      <trkpt lat="42.505630" lon="1.549360">
        <ele>1280.000000</ele>
        <time>2020-08-22T10:32:38Z</time>
      </trkpt>
      <trkpt lat="42.505630" lon="1.549360">
        <ele>1280.000000</ele>
        <time>2020-08-22T10:32:38Z</time>
      </trkpt>
      <trkpt lat="42.505619" lon="1.549368">
        <ele>1280.000000</ele>
        <time>2020-08-22T10:32:38Z</time>
      </trkpt>
      <trkpt lat="42.505619" lon="1.549368">
        <ele>1280.000000</ele>
        <time>2020-08-22T10:32:38Z</time>
      </trkpt>
      <trkpt lat="42.505611" lon="1.549377">
        <ele>1280.000000</ele>
        <time>2020-08-22T10:32:38Z</time>
      </trkpt>
      <trkpt lat="42.505611" lon="1.549377">
        <ele>1280.000000</ele>
        <time>2020-08-22T10:32:38Z</time>
      </trkpt>
      <trkpt lat="42.505604" lon="1.549387">
        <ele>1280.000000</ele>
        <time>2020-08-22T10:32:38Z</time>
      </trkpt>
      <trkpt lat="42.505604" lon="1.549387">
        <ele>1281.000000</ele>
        <time>2020-08-22T10:32:38Z</time>
      </trkpt>
      <trkpt lat="42.505596" lon="1.549398">
        <ele>1281.000000</ele>
        <time>2020-08-22T10:32:38Z</time>
      </trkpt>
      <trkpt lat="42.505596" lon="1.549398">
        <ele>1281.000000</ele>
        <time>2020-08-22T10:32:38Z</time>
      </trkpt>
      <trkpt lat="42.505592" lon="1.549411">
        <ele>1281.000000</ele>
        <time>2020-08-22T10:32:45Z</time>
      </trkpt>
      <trkpt lat="42.505592" lon="1.549411">
        <ele>1281.000000</ele>
        <time>2020-08-22T10:32:45Z</time>
      </trkpt>
      <trkpt lat="42.505589" lon="1.549425">
        <ele>1281.000000</ele>
        <time>2020-08-22T10:32:45Z</time>
      </trkpt>
      <trkpt lat="42.505589" lon="1.549425">
        <ele>1281.000000</ele>
        <time>2020-08-22T10:32:45Z</time>
      </trkpt>
      <trkpt lat="42.505581" lon="1.549441">
        <ele>1281.000000</ele>
        <time>2020-08-22T10:32:45Z</time>
      </trkpt>
      <trkpt lat="42.505581" lon="1.549441">
        <ele>1281.000000</ele>
        <time>2020-08-22T10:32:45Z</time>
      </trkpt>
      <trkpt lat="42.505573" lon="1.549458">
        <ele>1281.000000</ele>
        <time>2020-08-22T10:32:45Z</time>
      </trkpt>
      <trkpt lat="42.505573" lon="1.549458">
        <ele>1282.000000</ele>
        <time>2020-08-22T10:32:45Z</time>
      </trkpt>
      <trkpt lat="42.505527" lon="1.549485">
        <ele>1282.000000</ele>
        <time>2020-08-22T10:32:52Z</time>
      </trkpt>
      <trkpt lat="42.505527" lon="1.549485">
        <ele>1282.000000</ele>
        <time>2020-08-22T10:32:52Z</time>
      </trkpt>
      <trkpt lat="42.505486" lon="1.549514">
        <ele>1282.000000</ele>
        <time>2020-08-22T10:32:52Z</time>
      </trkpt>
      <trkpt lat="42.505486" lon="1.549514">
        <ele>1283.000000</ele>
        <time>2020-08-22T10:32:52Z</time>
      </trkpt>
      <trkpt lat="42.505444" lon="1.549543">
        <ele>1283.000000</ele>
        <time>2020-08-22T10:32:52Z</time>
      </trkpt>
      <trkpt lat="42.505444" lon="1.549543">
        <ele>1283.000000</ele>
        <time>2020-08-22T10:32:52Z</time>
      </trkpt>
      <trkpt lat="42.505402" lon="1.549572">
        <ele>1284.000000</ele>
        <time>2020-08-22T10:33:00Z</time>
      </trkpt>
      <trkpt lat="42.505402" lon="1.549572">
        <ele>1284.000000</ele>
        <time>2020-08-22T10:33:00Z</time>
      </trkpt>
      <trkpt lat="42.505363" lon="1.549601">
        <ele>1284.000000</ele>
        <time>2020-08-22T10:33:00Z</time>
      </trkpt>
      <trkpt lat="42.505363" lon="1.549601">
        <ele>1284.000000</ele>
        <time>2020-08-22T10:33:00Z</time>
      </trkpt>
      <trkpt lat="42.505321" lon="1.549630">
        <ele>1284.000000</ele>
        <time>2020-08-22T10:33:00Z</time>
      </trkpt>
      <trkpt lat="42.505321" lon="1.549630">
        <ele>1284.000000</ele>
        <time>2020-08-22T10:33:00Z</time>
      </trkpt>
      <trkpt lat="42.505280" lon="1.549658">
        <ele>1284.000000</ele>
        <time>2020-08-22T10:33:00Z</time>
      </trkpt>
      <trkpt lat="42.505280" lon="1.549658">
        <ele>1284.000000</ele>
        <time>2020-08-22T10:33:00Z</time>
      </trkpt>
      <trkpt lat="42.505241" lon="1.549687">
        <ele>1284.000000</ele>
        <time>2020-08-22T10:33:00Z</time>
      </trkpt>
      <trkpt lat="42.505241" lon="1.549687">
        <ele>1284.000000</ele>
        <time>2020-08-22T10:33:00Z</time>
      </trkpt>
      <trkpt lat="42.505203" lon="1.549716">
        <ele>1284.000000</ele>
        <time>2020-08-22T10:33:00Z</time>
      </trkpt>
      <trkpt lat="42.505203" lon="1.549716">
        <ele>1284.000000</ele>
        <time>2020-08-22T10:33:00Z</time>
      </trkpt>
      <trkpt lat="42.505169" lon="1.549746">
        <ele>1284.000000</ele>
        <time>2020-08-22T10:33:07Z</time>
      </trkpt>
      <trkpt lat="42.505169" lon="1.549746">
        <ele>1291.000000</ele>
        <time>2020-08-22T10:33:07Z</time>
      </trkpt>
      <trkpt lat="42.505157" lon="1.549777">
        <ele>1292.000000</ele>
        <time>2020-08-22T10:33:14Z</time>
      </trkpt>
      <trkpt lat="42.505157" lon="1.549777">
        <ele>1292.000000</ele>
        <time>2020-08-22T10:33:14Z</time>
      </trkpt>
      <trkpt lat="42.505150" lon="1.549808">
        <ele>1292.000000</ele>
        <time>2020-08-22T10:33:14Z</time>
      </trkpt>
      <trkpt lat="42.505150" lon="1.549808">
        <ele>1292.000000</ele>
        <time>2020-08-22T10:33:14Z</time>
      </trkpt>
      <trkpt lat="42.505135" lon="1.549839">
        <ele>1292.000000</ele>
        <time>2020-08-22T10:33:14Z</time>
      </trkpt>
      <trkpt lat="42.505135" lon="1.549839">
        <ele>1292.000000</ele>
        <time>2020-08-22T10:33:14Z</time>
      </trkpt>
      <trkpt lat="42.505127" lon="1.549871">
        <ele>1292.000000</ele>
        <time>2020-08-22T10:33:14Z</time>
      </trkpt>
      <trkpt lat="42.505127" lon="1.549871">
        <ele>1293.000000</ele>
        <time>2020-08-22T10:33:14Z</time>
      </trkpt>
      <trkpt lat="42.505115" lon="1.549903">
        <ele>1293.000000</ele>
        <time>2020-08-22T10:33:14Z</time>
      </trkpt>
      <trkpt lat="42.505115" lon="1.549903">
        <ele>1293.000000</ele>
        <time>2020-08-22T10:33:14Z</time>
      </trkpt>
      <trkpt lat="42.505104" lon="1.549935">
        <ele>1293.000000</ele>
        <time>2020-08-22T10:33:14Z</time>
      </trkpt>
      <trkpt lat="42.505104" lon="1.549935">
        <ele>1293.000000</ele>
        <time>2020-08-22T10:33:14Z</time>
      </trkpt>
      <trkpt lat="42.505093" lon="1.549967">
        <ele>1293.000000</ele>
        <time>2020-08-22T10:33:14Z</time>
      </trkpt>
      <trkpt lat="42.505093" lon="1.549967">
        <ele>1293.000000</ele>
        <time>2020-08-22T10:33:14Z</time>
      </trkpt>
      <trkpt lat="42.505081" lon="1.549999">
        <ele>1293.000000</ele>
        <time>2020-08-22T10:33:21Z</time>
      </trkpt>
      <trkpt lat="42.505081" lon="1.549999">
        <ele>1293.000000</ele>
        <time>2020-08-22T10:33:21Z</time>
      </trkpt>
      <trkpt lat="42.505066" lon="1.550030">
        <ele>1293.000000</ele>
        <time>2020-08-22T10:33:21Z</time>
      </trkpt>
      <trkpt lat="42.505066" lon="1.550030">
        <ele>1293.000000</ele>
        <time>2020-08-22T10:33:21Z</time>
      </trkpt>
      <trkpt lat="42.505054" lon="1.550061">
        <ele>1293.000000</ele>
        <time>2020-08-22T10:33:21Z</time>
      </trkpt>
      <trkpt lat="42.505054" lon="1.550061">
        <ele>1293.000000</ele>
        <time>2020-08-22T10:33:21Z</time>
      </trkpt>
      <trkpt lat="42.505047" lon="1.550074">
        <ele>1293.000000</ele>
        <time>2020-08-22T10:33:21Z</time>
      </trkpt>
      <trkpt lat="42.505047" lon="1.550074">
        <ele>1293.000000</ele>
        <time>2020-08-22T10:33:21Z</time>
      </trkpt>
      <trkpt lat="42.505035" lon="1.550085">
        <ele>1293.000000</ele>
        <time>2020-08-22T10:33:21Z</time>
      </trkpt>
      <trkpt lat="42.505035" lon="1.550085">
        <ele>1293.000000</ele>
        <time>2020-08-22T10:33:21Z</time>
      </trkpt>
      <trkpt lat="42.505028" lon="1.550094">
        <ele>1293.000000</ele>
        <time>2020-08-22T10:33:21Z</time>
      </trkpt>
      <trkpt lat="42.505028" lon="1.550094">
        <ele>1293.000000</ele>
        <time>2020-08-22T10:33:21Z</time>
      </trkpt>
      <trkpt lat="42.505020" lon="1.550102">
        <ele>1293.000000</ele>
        <time>2020-08-22T10:33:21Z</time>
      </trkpt>
      <trkpt lat="42.505020" lon="1.550102">
        <ele>1293.000000</ele>
        <time>2020-08-22T10:33:21Z</time>
      </trkpt>
      <trkpt lat="42.505013" lon="1.550110">
        <ele>1293.000000</ele>
        <time>2020-08-22T10:33:21Z</time>
      </trkpt>
      <trkpt lat="42.505013" lon="1.550110">
        <ele>1293.000000</ele>
        <time>2020-08-22T10:33:21Z</time>
      </trkpt>
      <trkpt lat="42.505001" lon="1.550119">
        <ele>1293.000000</ele>
        <time>2020-08-22T10:33:28Z</time>
      </trkpt>
      <trkpt lat="42.505001" lon="1.550119">
        <ele>1293.000000</ele>
        <time>2020-08-22T10:33:28Z</time>
      </trkpt>
      <trkpt lat="42.504997" lon="1.550129">
        <ele>1293.000000</ele>
        <time>2020-08-22T10:33:28Z</time>
      </trkpt>
      <trkpt lat="42.504997" lon="1.550129">
        <ele>1293.000000</ele>
        <time>2020-08-22T10:33:28Z</time>
      </trkpt>
      <trkpt lat="42.504993" lon="1.550140">
        <ele>1293.000000</ele>
        <time>2020-08-22T10:33:28Z</time>
      </trkpt>
      <trkpt lat="42.504993" lon="1.550140">
        <ele>1293.000000</ele>
        <time>2020-08-22T10:33:28Z</time>
      </trkpt>
      <trkpt lat="42.504986" lon="1.550152">
        <ele>1293.000000</ele>
        <time>2020-08-22T10:33:28Z</time>
      </trkpt>
      <trkpt lat="42.504986" lon="1.550152">
        <ele>1293.000000</ele>
        <time>2020-08-22T10:33:28Z</time>
      </trkpt>
      <trkpt lat="42.504986" lon="1.550165">
        <ele>1293.000000</ele>
        <time>2020-08-22T10:33:28Z</time>
      </trkpt>
      <trkpt lat="42.504986" lon="1.550165">
        <ele>1293.000000</ele>
        <time>2020-08-22T10:33:28Z</time>
      </trkpt>
      <trkpt lat="42.504974" lon="1.550183">
        <ele>1293.000000</ele>
        <time>2020-08-22T10:33:28Z</time>
      </trkpt>
      <trkpt lat="42.504974" lon="1.550183">
        <ele>1293.000000</ele>
        <time>2020-08-22T10:33:28Z</time>
      </trkpt>
      <trkpt lat="42.504967" lon="1.550202">
        <ele>1293.000000</ele>
        <time>2020-08-22T10:33:28Z</time>
      </trkpt>
      <trkpt lat="42.504967" lon="1.550202">
        <ele>1293.000000</ele>
        <time>2020-08-22T10:33:28Z</time>
      </trkpt>
      <trkpt lat="42.504959" lon="1.550222">
        <ele>1293.000000</ele>
        <time>2020-08-22T10:33:28Z</time>
      </trkpt>
      <trkpt lat="42.504959" lon="1.550222">
        <ele>1293.000000</ele>
        <time>2020-08-22T10:33:28Z</time>
      </trkpt>
      <trkpt lat="42.504948" lon="1.550241">
        <ele>1293.000000</ele>
        <time>2020-08-22T10:33:28Z</time>
      </trkpt>
      <trkpt lat="42.504948" lon="1.550241">
        <ele>1293.000000</ele>
        <time>2020-08-22T10:33:28Z</time>
      </trkpt>
      <trkpt lat="42.504936" lon="1.550260">
        <ele>1293.000000</ele>
        <time>2020-08-22T10:33:35Z</time>
      </trkpt>
      <trkpt lat="42.504936" lon="1.550260">
        <ele>1293.000000</ele>
        <time>2020-08-22T10:33:35Z</time>
      </trkpt>
      <trkpt lat="42.504921" lon="1.550277">
        <ele>1293.000000</ele>
        <time>2020-08-22T10:33:35Z</time>
      </trkpt>
      <trkpt lat="42.504921" lon="1.550277">
        <ele>1293.000000</ele>
        <time>2020-08-22T10:33:35Z</time>
      </trkpt>
      <trkpt lat="42.504910" lon="1.550293">
        <ele>1293.000000</ele>
        <time>2020-08-22T10:33:35Z</time>
      </trkpt>
      <trkpt lat="42.504910" lon="1.550293">
        <ele>1293.000000</ele>
        <time>2020-08-22T10:33:35Z</time>
      </trkpt>
      <trkpt lat="42.504894" lon="1.550309">
        <ele>1293.000000</ele>
        <time>2020-08-22T10:33:35Z</time>
      </trkpt>
      <trkpt lat="42.504894" lon="1.550309">
        <ele>1293.000000</ele>
        <time>2020-08-22T10:33:35Z</time>
      </trkpt>
      <trkpt lat="42.504875" lon="1.550326">
        <ele>1293.000000</ele>
        <time>2020-08-22T10:33:35Z</time>
      </trkpt>
      <trkpt lat="42.504875" lon="1.550326">
        <ele>1293.000000</ele>
        <time>2020-08-22T10:33:35Z</time>
      </trkpt>
      <trkpt lat="42.504856" lon="1.550343">
        <ele>1293.000000</ele>
        <time>2020-08-22T10:33:35Z</time>
      </trkpt>
      <trkpt lat="42.504856" lon="1.550343">
        <ele>1293.000000</ele>
        <time>2020-08-22T10:33:35Z</time>
      </trkpt>
      <trkpt lat="42.504837" lon="1.550356">
        <ele>1293.000000</ele>
        <time>2020-08-22T10:33:35Z</time>
      </trkpt>
      <trkpt lat="42.504837" lon="1.550356">
        <ele>1293.000000</ele>
        <time>2020-08-22T10:33:35Z</time>
      </trkpt>
      <trkpt lat="42.504822" lon="1.550371">
        <ele>1293.000000</ele>
        <time>2020-08-22T10:33:43Z</time>
      </trkpt>
      <trkpt lat="42.504822" lon="1.550371">
        <ele>1293.000000</ele>
        <time>2020-08-22T10:33:43Z</time>
      </trkpt>
      <trkpt lat="42.504807" lon="1.550387">
        <ele>1293.000000</ele>
        <time>2020-08-22T10:33:43Z</time>
      </trkpt>
      <trkpt lat="42.504807" lon="1.550387">
        <ele>1293.000000</ele>
        <time>2020-08-22T10:33:43Z</time>
      </trkpt>
      <trkpt lat="42.504787" lon="1.550406">
        <ele>1293.000000</ele>
        <time>2020-08-22T10:33:43Z</time>
      </trkpt>
      <trkpt lat="42.504787" lon="1.550406">
        <ele>1293.000000</ele>
        <time>2020-08-22T10:33:43Z</time>
      </trkpt>
      <trkpt lat="42.504772" lon="1.550424">
        <ele>1293.000000</ele>
        <time>2020-08-22T10:33:43Z</time>
      </trkpt>
      <trkpt lat="42.504772" lon="1.550424">
        <ele>1293.000000</ele>
        <time>2020-08-22T10:33:43Z</time>
      </trkpt>
      <trkpt lat="42.504753" lon="1.550442">
        <ele>1293.000000</ele>
        <time>2020-08-22T10:33:43Z</time>
      </trkpt>
      <trkpt lat="42.504753" lon="1.550442">
        <ele>1293.000000</ele>
        <time>2020-08-22T10:33:43Z</time>
      </trkpt>
      <trkpt lat="42.504738" lon="1.550457">
        <ele>1293.000000</ele>
        <time>2020-08-22T10:33:43Z</time>
      </trkpt>
      <trkpt lat="42.504738" lon="1.550457">
        <ele>1293.000000</ele>
        <time>2020-08-22T10:33:43Z</time>
      </trkpt>
      <trkpt lat="42.504719" lon="1.550468">
        <ele>1293.000000</ele>
        <time>2020-08-22T10:33:50Z</time>
      </trkpt>
      <trkpt lat="42.504719" lon="1.550468">
        <ele>1293.000000</ele>
        <time>2020-08-22T10:33:50Z</time>
      </trkpt>
      <trkpt lat="42.504704" lon="1.550476">
        <ele>1293.000000</ele>
        <time>2020-08-22T10:33:50Z</time>
      </trkpt>
      <trkpt lat="42.504704" lon="1.550476">
        <ele>1293.000000</ele>
        <time>2020-08-22T10:33:50Z</time>
      </trkpt>
      <trkpt lat="42.504692" lon="1.550480">
        <ele>1293.000000</ele>
        <time>2020-08-22T10:33:50Z</time>
      </trkpt>
      <trkpt lat="42.504692" lon="1.550480">
        <ele>1293.000000</ele>
        <time>2020-08-22T10:33:50Z</time>
      </trkpt>
      <trkpt lat="42.504684" lon="1.550486">
        <ele>1293.000000</ele>
        <time>2020-08-22T10:33:50Z</time>
      </trkpt>
      <trkpt lat="42.504684" lon="1.550486">
        <ele>1293.000000</ele>
        <time>2020-08-22T10:33:50Z</time>
      </trkpt>
      <trkpt lat="42.504673" lon="1.550492">
        <ele>1293.000000</ele>
        <time>2020-08-22T10:33:50Z</time>
      </trkpt>
      <trkpt lat="42.504673" lon="1.550492">
        <ele>1293.000000</ele>
        <time>2020-08-22T10:33:50Z</time>
      </trkpt>
      <trkpt lat="42.504669" lon="1.550499">
        <ele>1293.000000</ele>
        <time>2020-08-22T10:33:57Z</time>
      </trkpt>
      <trkpt lat="42.504669" lon="1.550499">
        <ele>1293.000000</ele>
        <time>2020-08-22T10:33:57Z</time>
      </trkpt>
      <trkpt lat="42.504665" lon="1.550504">
        <ele>1293.000000</ele>
        <time>2020-08-22T10:33:57Z</time>
      </trkpt>
      <trkpt lat="42.504665" lon="1.550504">
        <ele>1293.000000</ele>
        <time>2020-08-22T10:33:57Z</time>
      </trkpt>
      <trkpt lat="42.504665" lon="1.550510">
        <ele>1293.000000</ele>
        <time>2020-08-22T10:33:57Z</time>
      </trkpt>
      <trkpt lat="42.504665" lon="1.550510">
        <ele>1299.000000</ele>
        <time>2020-08-22T10:33:57Z</time>
      </trkpt>
      <trkpt lat="42.504665" lon="1.550517">
        <ele>1299.000000</ele>
        <time>2020-08-22T10:33:57Z</time>
      </trkpt>
      <trkpt lat="42.504665" lon="1.550517">
        <ele>1299.000000</ele>
        <time>2020-08-22T10:33:57Z</time>
      </trkpt>
      <trkpt lat="42.504665" lon="1.550525">
        <ele>1299.000000</ele>
        <time>2020-08-22T10:33:57Z</time>
      </trkpt>
      <trkpt lat="42.504665" lon="1.550525">
        <ele>1299.000000</ele>
        <time>2020-08-22T10:33:57Z</time>
      </trkpt>
      <trkpt lat="42.504665" lon="1.550537">
        <ele>1300.000000</ele>
        <time>2020-08-22T10:33:57Z</time>
      </trkpt>
      <trkpt lat="42.504665" lon="1.550537">
        <ele>1300.000000</ele>
        <time>2020-08-22T10:33:57Z</time>
      </trkpt>
      <trkpt lat="42.504662" lon="1.550552">
        <ele>1300.000000</ele>
        <time>2020-08-22T10:33:57Z</time>
      </trkpt>
      <trkpt lat="42.504662" lon="1.550552">
        <ele>1300.000000</ele>
        <time>2020-08-22T10:33:57Z</time>
      </trkpt>
      <trkpt lat="42.504662" lon="1.550569">
        <ele>1300.000000</ele>
        <time>2020-08-22T10:34:04Z</time>
      </trkpt>
      <trkpt lat="42.504662" lon="1.550569">
        <ele>1300.000000</ele>
        <time>2020-08-22T10:34:04Z</time>
      </trkpt>
      <trkpt lat="42.504658" lon="1.550583">
        <ele>1301.000000</ele>
        <time>2020-08-22T10:34:04Z</time>
      </trkpt>
      <trkpt lat="42.504658" lon="1.550583">
        <ele>1301.000000</ele>
        <time>2020-08-22T10:34:04Z</time>
      </trkpt>
      <trkpt lat="42.504654" lon="1.550596">
        <ele>1301.000000</ele>
        <time>2020-08-22T10:34:04Z</time>
      </trkpt>
      <trkpt lat="42.504654" lon="1.550596">
        <ele>1301.000000</ele>
        <time>2020-08-22T10:34:04Z</time>
      </trkpt>
      <trkpt lat="42.504646" lon="1.550606">
        <ele>1301.000000</ele>
        <time>2020-08-22T10:34:04Z</time>
      </trkpt>
      <trkpt lat="42.504646" lon="1.550606">
        <ele>1301.000000</ele>
        <time>2020-08-22T10:34:04Z</time>
      </trkpt>
      <trkpt lat="42.504642" lon="1.550616">
        <ele>1301.000000</ele>
        <time>2020-08-22T10:34:04Z</time>
      </trkpt>
      <trkpt lat="42.504642" lon="1.550616">
        <ele>1301.000000</ele>
        <time>2020-08-22T10:34:04Z</time>
      </trkpt>
      <trkpt lat="42.504635" lon="1.550626">
        <ele>1301.000000</ele>
        <time>2020-08-22T10:34:04Z</time>
      </trkpt>
      <trkpt lat="42.504635" lon="1.550626">
        <ele>1301.000000</ele>
        <time>2020-08-22T10:34:04Z</time>
      </trkpt>
      <trkpt lat="42.504631" lon="1.550635">
        <ele>1301.000000</ele>
        <time>2020-08-22T10:34:11Z</time>
      </trkpt>
      <trkpt lat="42.504631" lon="1.550635">
        <ele>1301.000000</ele>
        <time>2020-08-22T10:34:11Z</time>
      </trkpt>
      <trkpt lat="42.504623" lon="1.550644">
        <ele>1301.000000</ele>
        <time>2020-08-22T10:34:11Z</time>
      </trkpt>
      <trkpt lat="42.504623" lon="1.550644">
        <ele>1301.000000</ele>
        <time>2020-08-22T10:34:11Z</time>
      </trkpt>
      <trkpt lat="42.504620" lon="1.550652">
        <ele>1301.000000</ele>
        <time>2020-08-22T10:34:11Z</time>
      </trkpt>
      <trkpt lat="42.504620" lon="1.550652">
        <ele>1301.000000</ele>
        <time>2020-08-22T10:34:11Z</time>
      </trkpt>
      <trkpt lat="42.504612" lon="1.550659">
        <ele>1302.000000</ele>
        <time>2020-08-22T10:34:11Z</time>
      </trkpt>
      <trkpt lat="42.504612" lon="1.550659">
        <ele>1302.000000</ele>
        <time>2020-08-22T10:34:11Z</time>
      </trkpt>
      <trkpt lat="42.504604" lon="1.550664">
        <ele>1302.000000</ele>
        <time>2020-08-22T10:34:11Z</time>
      </trkpt>
      <trkpt lat="42.504604" lon="1.550664">
        <ele>1305.000000</ele>
        <time>2020-08-22T10:34:11Z</time>
      </trkpt>
      <trkpt lat="42.504601" lon="1.550678">
        <ele>1305.000000</ele>
        <time>2020-08-22T10:34:11Z</time>
      </trkpt>
      <trkpt lat="42.504601" lon="1.550678">
        <ele>1305.000000</ele>
        <time>2020-08-22T10:34:11Z</time>
      </trkpt>
      <trkpt lat="42.504593" lon="1.550691">
        <ele>1305.000000</ele>
        <time>2020-08-22T10:34:11Z</time>
      </trkpt>
      <trkpt lat="42.504593" lon="1.550691">
        <ele>1305.000000</ele>
        <time>2020-08-22T10:34:11Z</time>
      </trkpt>
      <trkpt lat="42.504585" lon="1.550706">
        <ele>1305.000000</ele>
        <time>2020-08-22T10:34:11Z</time>
      </trkpt>
      <trkpt lat="42.504585" lon="1.550706">
        <ele>1305.000000</ele>
        <time>2020-08-22T10:34:11Z</time>
      </trkpt>
      <trkpt lat="42.504578" lon="1.550720">
        <ele>1305.000000</ele>
        <time>2020-08-22T10:34:18Z</time>
      </trkpt>
      <trkpt lat="42.504578" lon="1.550720">
        <ele>1305.000000</ele>
        <time>2020-08-22T10:34:18Z</time>
      </trkpt>
      <trkpt lat="42.504570" lon="1.550734">
        <ele>1305.000000</ele>
        <time>2020-08-22T10:34:18Z</time>
      </trkpt>
      <trkpt lat="42.504570" lon="1.550734">
        <ele>1305.000000</ele>
        <time>2020-08-22T10:34:18Z</time>
      </trkpt>
      <trkpt lat="42.504566" lon="1.550748">
        <ele>1305.000000</ele>
        <time>2020-08-22T10:34:18Z</time>
      </trkpt>
      <trkpt lat="42.504566" lon="1.550748">
        <ele>1305.000000</ele>
        <time>2020-08-22T10:34:18Z</time>
      </trkpt>
      <trkpt lat="42.504559" lon="1.550763">
        <ele>1305.000000</ele>
        <time>2020-08-22T10:34:18Z</time>
      </trkpt>
      <trkpt lat="42.504559" lon="1.550763">
        <ele>1305.000000</ele>
        <time>2020-08-22T10:34:18Z</time>
      </trkpt>
      <trkpt lat="42.504551" lon="1.550777">
        <ele>1305.000000</ele>
        <time>2020-08-22T10:34:18Z</time>
      </trkpt>
      <trkpt lat="42.504551" lon="1.550777">
        <ele>1305.000000</ele>
        <time>2020-08-22T10:34:18Z</time>
      </trkpt>
      <trkpt lat="42.504547" lon="1.550791">
        <ele>1305.000000</ele>
        <time>2020-08-22T10:34:18Z</time>
      </trkpt>
      <trkpt lat="42.504547" lon="1.550791">
        <ele>1305.000000</ele>
        <time>2020-08-22T10:34:18Z</time>
      </trkpt>
      <trkpt lat="42.504539" lon="1.550805">
        <ele>1305.000000</ele>
        <time>2020-08-22T10:34:18Z</time>
      </trkpt>
      <trkpt lat="42.504539" lon="1.550805">
        <ele>1305.000000</ele>
        <time>2020-08-22T10:34:18Z</time>
      </trkpt>
      <trkpt lat="42.504532" lon="1.550811">
        <ele>1305.000000</ele>
        <time>2020-08-22T10:34:25Z</time>
      </trkpt>
      <trkpt lat="42.504532" lon="1.550811">
        <ele>1305.000000</ele>
        <time>2020-08-22T10:34:25Z</time>
      </trkpt>
      <trkpt lat="42.504528" lon="1.550817">
        <ele>1305.000000</ele>
        <time>2020-08-22T10:34:25Z</time>
      </trkpt>
      <trkpt lat="42.504528" lon="1.550817">
        <ele>1305.000000</ele>
        <time>2020-08-22T10:34:25Z</time>
      </trkpt>
      <trkpt lat="42.504524" lon="1.550823">
        <ele>1305.000000</ele>
        <time>2020-08-22T10:34:25Z</time>
      </trkpt>
      <trkpt lat="42.504524" lon="1.550823">
        <ele>1305.000000</ele>
        <time>2020-08-22T10:34:25Z</time>
      </trkpt>
      <trkpt lat="42.504513" lon="1.550828">
        <ele>1305.000000</ele>
        <time>2020-08-22T10:34:25Z</time>
      </trkpt>
      <trkpt lat="42.504513" lon="1.550828">
        <ele>1305.000000</ele>
        <time>2020-08-22T10:34:25Z</time>
      </trkpt>
      <trkpt lat="42.504505" lon="1.550833">
        <ele>1305.000000</ele>
        <time>2020-08-22T10:34:25Z</time>
      </trkpt>
      <trkpt lat="42.504505" lon="1.550833">
        <ele>1305.000000</ele>
        <time>2020-08-22T10:34:25Z</time>
      </trkpt>
      <trkpt lat="42.504498" lon="1.550838">
        <ele>1305.000000</ele>
        <time>2020-08-22T10:34:25Z</time>
      </trkpt>
      <trkpt lat="42.504498" lon="1.550838">
        <ele>1305.000000</ele>
        <time>2020-08-22T10:34:25Z</time>
      </trkpt>
      <trkpt lat="42.504490" lon="1.550843">
        <ele>1305.000000</ele>
        <time>2020-08-22T10:34:25Z</time>
      </trkpt>
      <trkpt lat="42.504490" lon="1.550843">
        <ele>1305.000000</ele>
        <time>2020-08-22T10:34:25Z</time>
      </trkpt>
      <trkpt lat="42.504478" lon="1.550848">
        <ele>1305.000000</ele>
        <time>2020-08-22T10:34:32Z</time>
      </trkpt>
      <trkpt lat="42.504478" lon="1.550848">
        <ele>1305.000000</ele>
        <time>2020-08-22T10:34:32Z</time>
      </trkpt>
      <trkpt lat="42.504471" lon="1.550853">
        <ele>1307.000000</ele>
        <time>2020-08-22T10:34:32Z</time>
      </trkpt>
      <trkpt lat="42.504471" lon="1.550853">
        <ele>1307.000000</ele>
        <time>2020-08-22T10:34:32Z</time>
      </trkpt>
      <trkpt lat="42.504456" lon="1.550858">
        <ele>1307.000000</ele>
        <time>2020-08-22T10:34:32Z</time>
      </trkpt>
      <trkpt lat="42.504456" lon="1.550858">
        <ele>1307.000000</ele>
        <time>2020-08-22T10:34:32Z</time>
      </trkpt>
      <trkpt lat="42.504444" lon="1.550862">
        <ele>1307.000000</ele>
        <time>2020-08-22T10:34:32Z</time>
      </trkpt>
      <trkpt lat="42.504444" lon="1.550862">
        <ele>1307.000000</ele>
        <time>2020-08-22T10:34:32Z</time>
      </trkpt>
      <trkpt lat="42.504433" lon="1.550866">
        <ele>1308.000000</ele>
        <time>2020-08-22T10:34:32Z</time>
      </trkpt>
      <trkpt lat="42.504433" lon="1.550866">
        <ele>1308.000000</ele>
        <time>2020-08-22T10:34:32Z</time>
      </trkpt>
      <trkpt lat="42.504421" lon="1.550869">
        <ele>1308.000000</ele>
        <time>2020-08-22T10:34:32Z</time>
      </trkpt>
      <trkpt lat="42.504421" lon="1.550869">
        <ele>1308.000000</ele>
        <time>2020-08-22T10:34:32Z</time>
      </trkpt>
      <trkpt lat="42.504410" lon="1.550873">
        <ele>1308.000000</ele>
        <time>2020-08-22T10:34:32Z</time>
      </trkpt>
      <trkpt lat="42.504410" lon="1.550873">
        <ele>1308.000000</ele>
        <time>2020-08-22T10:34:32Z</time>
      </trkpt>
      <trkpt lat="42.504398" lon="1.550876">
        <ele>1308.000000</ele>
        <time>2020-08-22T10:34:39Z</time>
      </trkpt>
      <trkpt lat="42.504398" lon="1.550876">
        <ele>1310.000000</ele>
        <time>2020-08-22T10:34:39Z</time>
      </trkpt>
      <trkpt lat="42.504391" lon="1.550880">
        <ele>1310.000000</ele>
        <time>2020-08-22T10:34:39Z</time>
      </trkpt>
      <trkpt lat="42.504391" lon="1.550880">
        <ele>1310.000000</ele>
        <time>2020-08-22T10:34:39Z</time>
      </trkpt>
      <trkpt lat="42.504379" lon="1.550883">
        <ele>1311.000000</ele>
        <time>2020-08-22T10:34:39Z</time>
      </trkpt>
      <trkpt lat="42.504379" lon="1.550883">
        <ele>1311.000000</ele>
        <time>2020-08-22T10:34:39Z</time>
      </trkpt>
      <trkpt lat="42.504372" lon="1.550887">
        <ele>1311.000000</ele>
        <time>2020-08-22T10:34:39Z</time>
      </trkpt>
      <trkpt lat="42.504372" lon="1.550887">
        <ele>1311.000000</ele>
        <time>2020-08-22T10:34:39Z</time>
      </trkpt>
      <trkpt lat="42.504364" lon="1.550892">
        <ele>1311.000000</ele>
        <time>2020-08-22T10:34:39Z</time>
      </trkpt>
      <trkpt lat="42.504364" lon="1.550892">
        <ele>1311.000000</ele>
        <time>2020-08-22T10:34:39Z</time>
      </trkpt>
      <trkpt lat="42.504356" lon="1.550899">
        <ele>1311.000000</ele>
        <time>2020-08-22T10:34:39Z</time>
      </trkpt>
      <trkpt lat="42.504356" lon="1.550899">
        <ele>1312.000000</ele>
        <time>2020-08-22T10:34:39Z</time>
      </trkpt>
      <trkpt lat="42.504345" lon="1.550907">
        <ele>1312.000000</ele>
        <time>2020-08-22T10:34:39Z</time>
      </trkpt>
      <trkpt lat="42.504345" lon="1.550907">
        <ele>1313.000000</ele>
        <time>2020-08-22T10:34:39Z</time>
      </trkpt>
      <trkpt lat="42.504337" lon="1.550917">
        <ele>1313.000000</ele>
        <time>2020-08-22T10:34:46Z</time>
      </trkpt>
      <trkpt lat="42.504337" lon="1.550917">
        <ele>1313.000000</ele>
        <time>2020-08-22T10:34:46Z</time>
      </trkpt>
      <trkpt lat="42.504333" lon="1.550927">
        <ele>1313.000000</ele>
        <time>2020-08-22T10:34:46Z</time>
      </trkpt>
      <trkpt lat="42.504333" lon="1.550927">
        <ele>1313.000000</ele>
        <time>2020-08-22T10:34:46Z</time>
      </trkpt>
      <trkpt lat="42.504326" lon="1.550938">
        <ele>1313.000000</ele>
        <time>2020-08-22T10:34:46Z</time>
      </trkpt>
      <trkpt lat="42.504326" lon="1.550938">
        <ele>1314.000000</ele>
        <time>2020-08-22T10:34:46Z</time>
      </trkpt>
      <trkpt lat="42.504318" lon="1.550950">
        <ele>1314.000000</ele>
        <time>2020-08-22T10:34:46Z</time>
      </trkpt>
      <trkpt lat="42.504318" lon="1.550950">
        <ele>1317.000000</ele>
        <time>2020-08-22T10:34:46Z</time>
      </trkpt>
      <trkpt lat="42.504311" lon="1.550962">
        <ele>1317.000000</ele>
        <time>2020-08-22T10:34:46Z</time>
      </trkpt>
      <trkpt lat="42.504311" lon="1.550962">
        <ele>1317.000000</ele>
        <time>2020-08-22T10:34:46Z</time>
      </trkpt>
      <trkpt lat="42.504307" lon="1.550975">
        <ele>1317.000000</ele>
        <time>2020-08-22T10:34:46Z</time>
      </trkpt>
      <trkpt lat="42.504307" lon="1.550975">
        <ele>1318.000000</ele>
        <time>2020-08-22T10:34:46Z</time>
      </trkpt>
      <trkpt lat="42.504303" lon="1.550987">
        <ele>1318.000000</ele>
        <time>2020-08-22T10:34:46Z</time>
      </trkpt>
      <trkpt lat="42.504303" lon="1.550987">
        <ele>1318.000000</ele>
        <time>2020-08-22T10:34:46Z</time>
      </trkpt>
      <trkpt lat="42.504292" lon="1.550999">
        <ele>1318.000000</ele>
        <time>2020-08-22T10:34:53Z</time>
      </trkpt>
      <trkpt lat="42.504292" lon="1.550999">
        <ele>1319.000000</ele>
        <time>2020-08-22T10:34:53Z</time>
      </trkpt>
      <trkpt lat="42.504288" lon="1.551010">
        <ele>1319.000000</ele>
        <time>2020-08-22T10:34:53Z</time>
      </trkpt>
      <trkpt lat="42.504288" lon="1.551010">
        <ele>1319.000000</ele>
        <time>2020-08-22T10:34:53Z</time>
      </trkpt>
      <trkpt lat="42.504272" lon="1.551019">
        <ele>1319.000000</ele>
        <time>2020-08-22T10:34:53Z</time>
      </trkpt>
      <trkpt lat="42.504272" lon="1.551019">
        <ele>1319.000000</ele>
        <time>2020-08-22T10:34:53Z</time>
      </trkpt>
      <trkpt lat="42.504257" lon="1.551027">
        <ele>1319.000000</ele>
        <time>2020-08-22T10:34:53Z</time>
      </trkpt>
      <trkpt lat="42.504257" lon="1.551027">
        <ele>1319.000000</ele>
        <time>2020-08-22T10:34:53Z</time>
      </trkpt>
      <trkpt lat="42.504246" lon="1.551034">
        <ele>1319.000000</ele>
        <time>2020-08-22T10:34:53Z</time>
      </trkpt>
      <trkpt lat="42.504246" lon="1.551034">
        <ele>1319.000000</ele>
        <time>2020-08-22T10:34:53Z</time>
      </trkpt>
      <trkpt lat="42.504169" lon="1.550936">
        <ele>1319.000000</ele>
        <time>2020-08-22T10:34:53Z</time>
      </trkpt>
      <trkpt lat="42.504169" lon="1.550936">
        <ele>1320.000000</ele>
        <time>2020-08-22T10:34:53Z</time>
      </trkpt>
      <trkpt lat="42.504169" lon="1.550942">
        <ele>1320.000000</ele>
        <time>2020-08-22T10:34:53Z</time>
      </trkpt>
      <trkpt lat="42.504169" lon="1.550942">
        <ele>1320.000000</ele>
        <time>2020-08-22T10:34:53Z</time>
      </trkpt>
      <trkpt lat="42.504166" lon="1.550948">
        <ele>1320.000000</ele>
        <time>2020-08-22T10:34:53Z</time>
      </trkpt>
      <trkpt lat="42.504166" lon="1.550948">
        <ele>1320.000000</ele>
        <time>2020-08-22T10:34:53Z</time>
      </trkpt>
      <trkpt lat="42.504166" lon="1.550954">
        <ele>1320.000000</ele>
        <time>2020-08-22T10:34:53Z</time>
      </trkpt>
      <trkpt lat="42.504166" lon="1.550954">
        <ele>1321.000000</ele>
        <time>2020-08-22T10:34:53Z</time>
      </trkpt>
      <trkpt lat="42.504162" lon="1.550959">
        <ele>1321.000000</ele>
        <time>2020-08-22T10:34:53Z</time>
      </trkpt>
      <trkpt lat="42.504162" lon="1.550959">
        <ele>1321.000000</ele>
        <time>2020-08-22T10:34:53Z</time>
      </trkpt>
      <trkpt lat="42.504158" lon="1.550965">
        <ele>1321.000000</ele>
        <time>2020-08-22T10:35:00Z</time>
      </trkpt>
      <trkpt lat="42.504158" lon="1.550965">
        <ele>1321.000000</ele>
        <time>2020-08-22T10:35:00Z</time>
      </trkpt>
      <trkpt lat="42.504150" lon="1.550970">
        <ele>1322.000000</ele>
        <time>2020-08-22T10:35:00Z</time>
      </trkpt>
      <trkpt lat="42.504150" lon="1.550970">
        <ele>1326.000000</ele>
        <time>2020-08-22T10:35:00Z</time>
      </trkpt>
      <trkpt lat="42.504150" lon="1.550976">
        <ele>1326.000000</ele>
        <time>2020-08-22T10:35:00Z</time>
      </trkpt>
      <trkpt lat="42.504150" lon="1.550976">
        <ele>1326.000000</ele>
        <time>2020-08-22T10:35:00Z</time>
      </trkpt>
      <trkpt lat="42.504143" lon="1.550983">
        <ele>1327.000000</ele>
        <time>2020-08-22T10:35:00Z</time>
      </trkpt>
      <trkpt lat="42.504143" lon="1.550983">
        <ele>1327.000000</ele>
        <time>2020-08-22T10:35:00Z</time>
      </trkpt>
      <trkpt lat="42.504139" lon="1.550989">
        <ele>1327.000000</ele>
        <time>2020-08-22T10:35:00Z</time>
      </trkpt>
      <trkpt lat="42.504139" lon="1.550989">
        <ele>1327.000000</ele>
        <time>2020-08-22T10:35:00Z</time>
      </trkpt>
      <trkpt lat="42.504131" lon="1.551000">
        <ele>1327.000000</ele>
        <time>2020-08-22T10:35:00Z</time>
      </trkpt>
      <trkpt lat="42.504131" lon="1.551000">
        <ele>1327.000000</ele>
        <time>2020-08-22T10:35:00Z</time>
      </trkpt>
      <trkpt lat="42.504124" lon="1.551011">
        <ele>1328.000000</ele>
        <time>2020-08-22T10:35:00Z</time>
      </trkpt>
      <trkpt lat="42.504124" lon="1.551011">
        <ele>1328.000000</ele>
        <time>2020-08-22T10:35:00Z</time>
      </trkpt>
      <trkpt lat="42.504116" lon="1.551022">
        <ele>1328.000000</ele>
        <time>2020-08-22T10:35:07Z</time>
      </trkpt>
      <trkpt lat="42.504116" lon="1.551022">
        <ele>1328.000000</ele>
        <time>2020-08-22T10:35:07Z</time>
      </trkpt>
      <trkpt lat="42.504108" lon="1.551032">
        <ele>1328.000000</ele>
        <time>2020-08-22T10:35:07Z</time>
      </trkpt>
      <trkpt lat="42.504108" lon="1.551032">
        <ele>1328.000000</ele>
        <time>2020-08-22T10:35:07Z</time>
      </trkpt>
      <trkpt lat="42.504101" lon="1.551042">
        <ele>1328.000000</ele>
        <time>2020-08-22T10:35:07Z</time>
      </trkpt>
      <trkpt lat="42.504101" lon="1.551042">
        <ele>1329.000000</ele>
        <time>2020-08-22T10:35:07Z</time>
      </trkpt>
      <trkpt lat="42.504097" lon="1.551051">
        <ele>1329.000000</ele>
        <time>2020-08-22T10:35:07Z</time>
      </trkpt>
      <trkpt lat="42.504097" lon="1.551051">
        <ele>1329.000000</ele>
        <time>2020-08-22T10:35:07Z</time>
      </trkpt>
      <trkpt lat="42.504089" lon="1.551059">
        <ele>1329.000000</ele>
        <time>2020-08-22T10:35:07Z</time>
      </trkpt>
      <trkpt lat="42.504089" lon="1.551059">
        <ele>1331.000000</ele>
        <time>2020-08-22T10:35:07Z</time>
      </trkpt>
      <trkpt lat="42.504082" lon="1.551067">
        <ele>1331.000000</ele>
        <time>2020-08-22T10:35:07Z</time>
      </trkpt>
      <trkpt lat="42.504082" lon="1.551067">
        <ele>1331.000000</ele>
        <time>2020-08-22T10:35:07Z</time>
      </trkpt>
      <trkpt lat="42.504082" lon="1.551075">
        <ele>1331.000000</ele>
        <time>2020-08-22T10:35:07Z</time>
      </trkpt>
      <trkpt lat="42.504082" lon="1.551075">
        <ele>1331.000000</ele>
        <time>2020-08-22T10:35:07Z</time>
      </trkpt>
      <trkpt lat="42.504074" lon="1.551084">
        <ele>1331.000000</ele>
        <time>2020-08-22T10:35:14Z</time>
      </trkpt>
      <trkpt lat="42.504074" lon="1.551084">
        <ele>1331.000000</ele>
        <time>2020-08-22T10:35:14Z</time>
      </trkpt>
      <trkpt lat="42.504070" lon="1.551104">
        <ele>1331.000000</ele>
        <time>2020-08-22T10:35:14Z</time>
      </trkpt>
      <trkpt lat="42.504070" lon="1.551104">
        <ele>1331.000000</ele>
        <time>2020-08-22T10:35:14Z</time>
      </trkpt>
      <trkpt lat="42.504066" lon="1.551123">
        <ele>1331.000000</ele>
        <time>2020-08-22T10:35:14Z</time>
      </trkpt>
      <trkpt lat="42.504066" lon="1.551123">
        <ele>1335.000000</ele>
        <time>2020-08-22T10:35:14Z</time>
      </trkpt>
      <trkpt lat="42.504063" lon="1.551143">
        <ele>1335.000000</ele>
        <time>2020-08-22T10:35:14Z</time>
      </trkpt>
      <trkpt lat="42.504063" lon="1.551143">
        <ele>1335.000000</ele>
        <time>2020-08-22T10:35:14Z</time>
      </trkpt>
      <trkpt lat="42.504063" lon="1.551164">
        <ele>1335.000000</ele>
        <time>2020-08-22T10:35:14Z</time>
      </trkpt>
      <trkpt lat="42.504063" lon="1.551164">
        <ele>1335.000000</ele>
        <time>2020-08-22T10:35:14Z</time>
      </trkpt>
      <trkpt lat="42.504059" lon="1.551185">
        <ele>1336.000000</ele>
        <time>2020-08-22T10:35:14Z</time>
      </trkpt>
      <trkpt lat="42.504059" lon="1.551185">
        <ele>1336.000000</ele>
        <time>2020-08-22T10:35:14Z</time>
      </trkpt>
      <trkpt lat="42.504055" lon="1.551206">
        <ele>1336.000000</ele>
        <time>2020-08-22T10:35:21Z</time>
      </trkpt>
      <trkpt lat="42.504055" lon="1.551206">
        <ele>1336.000000</ele>
        <time>2020-08-22T10:35:21Z</time>
      </trkpt>
      <trkpt lat="42.504051" lon="1.551227">
        <ele>1336.000000</ele>
        <time>2020-08-22T10:35:21Z</time>
      </trkpt>
      <trkpt lat="42.504051" lon="1.551227">
        <ele>1338.000000</ele>
        <time>2020-08-22T10:35:21Z</time>
      </trkpt>
      <trkpt lat="42.504044" lon="1.551248">
        <ele>1338.000000</ele>
        <time>2020-08-22T10:35:21Z</time>
      </trkpt>
      <trkpt lat="42.504044" lon="1.551248">
        <ele>1338.000000</ele>
        <time>2020-08-22T10:35:21Z</time>
      </trkpt>
      <trkpt lat="42.504040" lon="1.551267">
        <ele>1339.000000</ele>
        <time>2020-08-22T10:35:21Z</time>
      </trkpt>
      <trkpt lat="42.504040" lon="1.551267">
        <ele>1339.000000</ele>
        <time>2020-08-22T10:35:21Z</time>
      </trkpt>
      <trkpt lat="42.504036" lon="1.551285">
        <ele>1339.000000</ele>
        <time>2020-08-22T10:35:21Z</time>
      </trkpt>
      <trkpt lat="42.504036" lon="1.551285">
        <ele>1339.000000</ele>
        <time>2020-08-22T10:35:21Z</time>
      </trkpt>
      <trkpt lat="42.504028" lon="1.551288">
        <ele>1339.000000</ele>
        <time>2020-08-22T10:35:21Z</time>
      </trkpt>
      <trkpt lat="42.504028" lon="1.551288">
        <ele>1339.000000</ele>
        <time>2020-08-22T10:35:21Z</time>
      </trkpt>
      <trkpt lat="42.504017" lon="1.551291">
        <ele>1339.000000</ele>
        <time>2020-08-22T10:35:21Z</time>
      </trkpt>
      <trkpt lat="42.504017" lon="1.551291">
        <ele>1340.000000</ele>
        <time>2020-08-22T10:35:21Z</time>
      </trkpt>
      <trkpt lat="42.503941" lon="1.551394">
        <ele>1340.000000</ele>
        <time>2020-08-22T10:35:43Z</time>
      </trkpt>
      <trkpt lat="42.503941" lon="1.551394">
        <ele>1340.000000</ele>
        <time>2020-08-22T10:35:43Z</time>
      </trkpt>
      <trkpt lat="42.503948" lon="1.551393">
        <ele>1340.000000</ele>
        <time>2020-08-22T10:35:43Z</time>
      </trkpt>
      <trkpt lat="42.503948" lon="1.551393">
        <ele>1340.000000</ele>
        <time>2020-08-22T10:35:43Z</time>
      </trkpt>
      <trkpt lat="42.503952" lon="1.551392">
        <ele>1341.000000</ele>
        <time>2020-08-22T10:35:43Z</time>
      </trkpt>
      <trkpt lat="42.503952" lon="1.551392">
        <ele>1341.000000</ele>
        <time>2020-08-22T10:35:43Z</time>
      </trkpt>
      <trkpt lat="42.503956" lon="1.551391">
        <ele>1341.000000</ele>
        <time>2020-08-22T10:35:43Z</time>
      </trkpt>
      <trkpt lat="42.503956" lon="1.551391">
        <ele>1341.000000</ele>
        <time>2020-08-22T10:35:43Z</time>
      </trkpt>
      <trkpt lat="42.503960" lon="1.551391">
        <ele>1341.000000</ele>
        <time>2020-08-22T10:35:43Z</time>
      </trkpt>
      <trkpt lat="42.503960" lon="1.551391">
        <ele>1346.000000</ele>
        <time>2020-08-22T10:35:43Z</time>
      </trkpt>
      <trkpt lat="42.503963" lon="1.551390">
        <ele>1346.000000</ele>
        <time>2020-08-22T10:35:43Z</time>
      </trkpt>
      <trkpt lat="42.503963" lon="1.551390">
        <ele>1346.000000</ele>
        <time>2020-08-22T10:35:43Z</time>
      </trkpt>
      <trkpt lat="42.503902" lon="1.551477">
        <ele>1347.000000</ele>
        <time>2020-08-22T10:35:43Z</time>
      </trkpt>
      <trkpt lat="42.503902" lon="1.551477">
        <ele>1347.000000</ele>
        <time>2020-08-22T10:35:43Z</time>
      </trkpt>
      <trkpt lat="42.503902" lon="1.551482">
        <ele>1347.000000</ele>
        <time>2020-08-22T10:35:43Z</time>
      </trkpt>
      <trkpt lat="42.503902" lon="1.551482">
        <ele>1347.000000</ele>
        <time>2020-08-22T10:35:43Z</time>
      </trkpt>
      <trkpt lat="42.503902" lon="1.551486">
        <ele>1348.000000</ele>
        <time>2020-08-22T10:35:43Z</time>
      </trkpt>
      <trkpt lat="42.503902" lon="1.551486">
        <ele>1348.000000</ele>
        <time>2020-08-22T10:35:43Z</time>
      </trkpt>
      <trkpt lat="42.503902" lon="1.551488">
        <ele>1348.000000</ele>
        <time>2020-08-22T10:35:58Z</time>
      </trkpt>
      <trkpt lat="42.503902" lon="1.551488">
        <ele>1355.000000</ele>
        <time>2020-08-22T10:35:58Z</time>
      </trkpt>
      <trkpt lat="42.503899" lon="1.551489">
        <ele>1355.000000</ele>
        <time>2020-08-22T10:35:58Z</time>
      </trkpt>
      <trkpt lat="42.503899" lon="1.551489">
        <ele>1355.000000</ele>
        <time>2020-08-22T10:35:58Z</time>
      </trkpt>
      <trkpt lat="42.503895" lon="1.551490">
        <ele>1355.000000</ele>
        <time>2020-08-22T10:35:58Z</time>
      </trkpt>
      <trkpt lat="42.503895" lon="1.551490">
        <ele>1355.000000</ele>
        <time>2020-08-22T10:35:58Z</time>
      </trkpt>
      <trkpt lat="42.503891" lon="1.551490">
        <ele>1356.000000</ele>
        <time>2020-08-22T10:35:58Z</time>
      </trkpt>
      <trkpt lat="42.503891" lon="1.551490">
        <ele>1356.000000</ele>
        <time>2020-08-22T10:35:58Z</time>
      </trkpt>
      <trkpt lat="42.503887" lon="1.551490">
        <ele>1356.000000</ele>
        <time>2020-08-22T10:35:58Z</time>
      </trkpt>
      <trkpt lat="42.503887" lon="1.551490">
        <ele>1356.000000</ele>
        <time>2020-08-22T10:35:58Z</time>
      </trkpt>
      <trkpt lat="42.503887" lon="1.551490">
        <ele>1356.000000</ele>
        <time>2020-08-22T10:35:58Z</time>
      </trkpt>
      <trkpt lat="42.503887" lon="1.551490">
        <ele>1365.000000</ele>
        <time>2020-08-22T10:35:58Z</time>
      </trkpt>
      <trkpt lat="42.503880" lon="1.551489">
        <ele>1365.000000</ele>
        <time>2020-08-22T10:36:13Z</time>
      </trkpt>
      <trkpt lat="42.503880" lon="1.551489">
        <ele>1365.000000</ele>
        <time>2020-08-22T10:36:13Z</time>
      </trkpt>
      <trkpt lat="42.503876" lon="1.551487">
        <ele>1365.000000</ele>
        <time>2020-08-22T10:36:13Z</time>
      </trkpt>
      <trkpt lat="42.503876" lon="1.551487">
        <ele>1365.000000</ele>
        <time>2020-08-22T10:36:13Z</time>
      </trkpt>
      <trkpt lat="42.503868" lon="1.551484">
        <ele>1366.000000</ele>
        <time>2020-08-22T10:36:13Z</time>
      </trkpt>
      <trkpt lat="42.503868" lon="1.551484">
        <ele>1366.000000</ele>
        <time>2020-08-22T10:36:13Z</time>
      </trkpt>
      <trkpt lat="42.503860" lon="1.551480">
        <ele>1366.000000</ele>
        <time>2020-08-22T10:36:13Z</time>
      </trkpt>
      <trkpt lat="42.503860" lon="1.551480">
        <ele>1366.000000</ele>
        <time>2020-08-22T10:36:13Z</time>
      </trkpt>
      <trkpt lat="42.503857" lon="1.551474">
        <ele>1366.000000</ele>
        <time>2020-08-22T10:36:20Z</time>
      </trkpt>
      <trkpt lat="42.503857" lon="1.551474">
        <ele>1366.000000</ele>
        <time>2020-08-22T10:36:20Z</time>
      </trkpt>
      <trkpt lat="42.503849" lon="1.551468">
        <ele>1366.000000</ele>
        <time>2020-08-22T10:36:20Z</time>
      </trkpt>
      <trkpt lat="42.503849" lon="1.551468">
        <ele>1366.000000</ele>
        <time>2020-08-22T10:36:20Z</time>
      </trkpt>
      <trkpt lat="42.503845" lon="1.551460">
        <ele>1366.000000</ele>
        <time>2020-08-22T10:36:20Z</time>
      </trkpt>
      <trkpt lat="42.503845" lon="1.551460">
        <ele>1367.000000</ele>
        <time>2020-08-22T10:36:20Z</time>
      </trkpt>
      <trkpt lat="42.503838" lon="1.551452">
        <ele>1367.000000</ele>
        <time>2020-08-22T10:36:20Z</time>
      </trkpt>
      <trkpt lat="42.503838" lon="1.551452">
        <ele>1367.000000</ele>
        <time>2020-08-22T10:36:20Z</time>
      </trkpt>
      <trkpt lat="42.503834" lon="1.551443">
        <ele>1367.000000</ele>
        <time>2020-08-22T10:36:20Z</time>
      </trkpt>
      <trkpt lat="42.503834" lon="1.551443">
        <ele>1367.000000</ele>
        <time>2020-08-22T10:36:20Z</time>
      </trkpt>
      <trkpt lat="42.503826" lon="1.551433">
        <ele>1367.000000</ele>
        <time>2020-08-22T10:36:20Z</time>
      </trkpt>
      <trkpt lat="42.503826" lon="1.551433">
        <ele>1371.000000</ele>
        <time>2020-08-22T10:36:20Z</time>
      </trkpt>
      <trkpt lat="42.503822" lon="1.551423">
        <ele>1371.000000</ele>
        <time>2020-08-22T10:36:20Z</time>
      </trkpt>
      <trkpt lat="42.503822" lon="1.551423">
        <ele>1371.000000</ele>
        <time>2020-08-22T10:36:20Z</time>
      </trkpt>
      <trkpt lat="42.503819" lon="1.551415">
        <ele>1371.000000</ele>
        <time>2020-08-22T10:36:20Z</time>
      </trkpt>
      <trkpt lat="42.503819" lon="1.551415">
        <ele>1371.000000</ele>
        <time>2020-08-22T10:36:20Z</time>
      </trkpt>
      <trkpt lat="42.503819" lon="1.551407">
        <ele>1371.000000</ele>
        <time>2020-08-22T10:36:20Z</time>
      </trkpt>
      <trkpt lat="42.503819" lon="1.551407">
        <ele>1371.000000</ele>
        <time>2020-08-22T10:36:20Z</time>
      </trkpt>
      <trkpt lat="42.503815" lon="1.551400">
        <ele>1371.000000</ele>
        <time>2020-08-22T10:36:20Z</time>
      </trkpt>
      <trkpt lat="42.503815" lon="1.551400">
        <ele>1371.000000</ele>
        <time>2020-08-22T10:36:20Z</time>
      </trkpt>
      <trkpt lat="42.503815" lon="1.551394">
        <ele>1371.000000</ele>
        <time>2020-08-22T10:36:20Z</time>
      </trkpt>
      <trkpt lat="42.503815" lon="1.551394">
        <ele>1372.000000</ele>
        <time>2020-08-22T10:36:20Z</time>
      </trkpt>
      <trkpt lat="42.503815" lon="1.551390">
        <ele>1372.000000</ele>
        <time>2020-08-22T10:36:20Z</time>
      </trkpt>
      <trkpt lat="42.503815" lon="1.551390">
        <ele>1372.000000</ele>
        <time>2020-08-22T10:36:20Z</time>
      </trkpt>
      <trkpt lat="42.503819" lon="1.551388">
        <ele>1372.000000</ele>
        <time>2020-08-22T10:36:20Z</time>
      </trkpt>
      <trkpt lat="42.503819" lon="1.551388">
        <ele>1372.000000</ele>
        <time>2020-08-22T10:36:20Z</time>
      </trkpt>
      <trkpt lat="42.503822" lon="1.551387">
        <ele>1372.000000</ele>
        <time>2020-08-22T10:36:20Z</time>
      </trkpt>
      <trkpt lat="42.503822" lon="1.551387">
        <ele>1372.000000</ele>
        <time>2020-08-22T10:36:20Z</time>
      </trkpt>
      <trkpt lat="42.503872" lon="1.551538">
        <ele>1372.000000</ele>
        <time>2020-08-22T10:36:20Z</time>
      </trkpt>
      <trkpt lat="42.503872" lon="1.551538">
        <ele>1372.000000</ele>
        <time>2020-08-22T10:36:20Z</time>
      </trkpt>
      <trkpt lat="42.503868" lon="1.551533">
        <ele>1373.000000</ele>
        <time>2020-08-22T10:36:27Z</time>
      </trkpt>
      <trkpt lat="42.503868" lon="1.551533">
        <ele>1373.000000</ele>
        <time>2020-08-22T10:36:27Z</time>
      </trkpt>
      <trkpt lat="42.503868" lon="1.551530">
        <ele>1373.000000</ele>
        <time>2020-08-22T10:36:27Z</time>
      </trkpt>
      <trkpt lat="42.503868" lon="1.551530">
        <ele>1373.000000</ele>
        <time>2020-08-22T10:36:27Z</time>
      </trkpt>
      <trkpt lat="42.503864" lon="1.551527">
        <ele>1373.000000</ele>
        <time>2020-08-22T10:36:27Z</time>
      </trkpt>
      <trkpt lat="42.503864" lon="1.551527">
        <ele>1373.000000</ele>
        <time>2020-08-22T10:36:27Z</time>
      </trkpt>
      <trkpt lat="42.503860" lon="1.551523">
        <ele>1373.000000</ele>
        <time>2020-08-22T10:36:27Z</time>
      </trkpt>
      <trkpt lat="42.503860" lon="1.551523">
        <ele>1374.000000</ele>
        <time>2020-08-22T10:36:27Z</time>
      </trkpt>
      <trkpt lat="42.503857" lon="1.551521">
        <ele>1374.000000</ele>
        <time>2020-08-22T10:36:27Z</time>
      </trkpt>
      <trkpt lat="42.503857" lon="1.551521">
        <ele>1374.000000</ele>
        <time>2020-08-22T10:36:27Z</time>
      </trkpt>
      <trkpt lat="42.503853" lon="1.551519">
        <ele>1374.000000</ele>
        <time>2020-08-22T10:36:27Z</time>
      </trkpt>
      <trkpt lat="42.503853" lon="1.551519">
        <ele>1374.000000</ele>
        <time>2020-08-22T10:36:27Z</time>
      </trkpt>
      <trkpt lat="42.503849" lon="1.551517">
        <ele>1374.000000</ele>
        <time>2020-08-22T10:36:27Z</time>
      </trkpt>
      <trkpt lat="42.503849" lon="1.551517">
        <ele>1374.000000</ele>
        <time>2020-08-22T10:36:27Z</time>
      </trkpt>
      <trkpt lat="42.503845" lon="1.551515">
        <ele>1374.000000</ele>
        <time>2020-08-22T10:36:35Z</time>
      </trkpt>
      <trkpt lat="42.503845" lon="1.551515">
        <ele>1374.000000</ele>
        <time>2020-08-22T10:36:35Z</time>
      </trkpt>
      <trkpt lat="42.503841" lon="1.551514">
        <ele>1374.000000</ele>
        <time>2020-08-22T10:36:35Z</time>
      </trkpt>
      <trkpt lat="42.503841" lon="1.551514">
        <ele>1374.000000</ele>
        <time>2020-08-22T10:36:35Z</time>
      </trkpt>
      <trkpt lat="42.503838" lon="1.551499">
        <ele>1375.000000</ele>
        <time>2020-08-22T10:36:35Z</time>
      </trkpt>
      <trkpt lat="42.503838" lon="1.551499">
        <ele>1375.000000</ele>
        <time>2020-08-22T10:36:35Z</time>
      </trkpt>
      <trkpt lat="42.503834" lon="1.551485">
        <ele>1375.000000</ele>
        <time>2020-08-22T10:36:42Z</time>
      </trkpt>
      <trkpt lat="42.503834" lon="1.551485">
        <ele>1376.000000</ele>
        <time>2020-08-22T10:36:42Z</time>
      </trkpt>
      <trkpt lat="42.503830" lon="1.551472">
        <ele>1376.000000</ele>
        <time>2020-08-22T10:36:42Z</time>
      </trkpt>
      <trkpt lat="42.503830" lon="1.551472">
        <ele>1376.000000</ele>
        <time>2020-08-22T10:36:42Z</time>
      </trkpt>
      <trkpt lat="42.503830" lon="1.551460">
        <ele>1376.000000</ele>
        <time>2020-08-22T10:36:42Z</time>
      </trkpt>
      <trkpt lat="42.503830" lon="1.551460">
        <ele>1376.000000</ele>
        <time>2020-08-22T10:36:42Z</time>
      </trkpt>
      <trkpt lat="42.503834" lon="1.551449">
        <ele>1377.000000</ele>
        <time>2020-08-22T10:36:42Z</time>
      </trkpt>
      <trkpt lat="42.503834" lon="1.551449">
        <ele>1377.000000</ele>
        <time>2020-08-22T10:36:42Z</time>
      </trkpt>
      <trkpt lat="42.503834" lon="1.551439">
        <ele>1377.000000</ele>
        <time>2020-08-22T10:36:42Z</time>
      </trkpt>
      <trkpt lat="42.503834" lon="1.551439">
        <ele>1377.000000</ele>
        <time>2020-08-22T10:36:42Z</time>
      </trkpt>
      <trkpt lat="42.503841" lon="1.551430">
        <ele>1377.000000</ele>
        <time>2020-08-22T10:36:42Z</time>
      </trkpt>
      <trkpt lat="42.503841" lon="1.551430">
        <ele>1379.000000</ele>
        <time>2020-08-22T10:36:42Z</time>
      </trkpt>
      <trkpt lat="42.503853" lon="1.551421">
        <ele>1379.000000</ele>
        <time>2020-08-22T10:36:42Z</time>
      </trkpt>
      <trkpt lat="42.503853" lon="1.551421">
        <ele>1380.000000</ele>
        <time>2020-08-22T10:36:42Z</time>
      </trkpt>
      <trkpt lat="42.503860" lon="1.551413">
        <ele>1380.000000</ele>
        <time>2020-08-22T10:36:49Z</time>
      </trkpt>
      <trkpt lat="42.503860" lon="1.551413">
        <ele>1380.000000</ele>
        <time>2020-08-22T10:36:49Z</time>
      </trkpt>
      <trkpt lat="42.503876" lon="1.551405">
        <ele>1380.000000</ele>
        <time>2020-08-22T10:36:49Z</time>
      </trkpt>
      <trkpt lat="42.503876" lon="1.551405">
        <ele>1380.000000</ele>
        <time>2020-08-22T10:36:49Z</time>
      </trkpt>
      <trkpt lat="42.504021" lon="1.551325">
        <ele>1380.000000</ele>
        <time>2020-08-22T10:37:26Z</time>
      </trkpt>
      <trkpt lat="42.504021" lon="1.551325">
        <ele>1380.000000</ele>
        <time>2020-08-22T10:37:26Z</time>
      </trkpt>
      <trkpt lat="42.504017" lon="1.551324">
        <ele>1380.000000</ele>
        <time>2020-08-22T10:37:26Z</time>
      </trkpt>
      <trkpt lat="42.504017" lon="1.551324">
        <ele>1381.000000</ele>
        <time>2020-08-22T10:37:26Z</time>
      </trkpt>
      <trkpt lat="42.504013" lon="1.551322">
        <ele>1381.000000</ele>
        <time>2020-08-22T10:37:26Z</time>
      </trkpt>
      <trkpt lat="42.504013" lon="1.551322">
        <ele>1381.000000</ele>
        <time>2020-08-22T10:37:26Z</time>
      </trkpt>
      <trkpt lat="42.504009" lon="1.551320">
        <ele>1381.000000</ele>
        <time>2020-08-22T10:37:26Z</time>
      </trkpt>
      <trkpt lat="42.504009" lon="1.551320">
        <ele>1381.000000</ele>
        <time>2020-08-22T10:37:26Z</time>
      </trkpt>
      <trkpt lat="42.504002" lon="1.551318">
        <ele>1381.000000</ele>
        <time>2020-08-22T10:37:26Z</time>
      </trkpt>
      <trkpt lat="42.504002" lon="1.551318">
        <ele>1381.000000</ele>
        <time>2020-08-22T10:37:26Z</time>
      </trkpt>
      <trkpt lat="42.503994" lon="1.551316">
        <ele>1382.000000</ele>
        <time>2020-08-22T10:37:26Z</time>
      </trkpt>
      <trkpt lat="42.503994" lon="1.551316">
        <ele>1382.000000</ele>
        <time>2020-08-22T10:37:26Z</time>
      </trkpt>
      <trkpt lat="42.503990" lon="1.551314">
        <ele>1382.000000</ele>
        <time>2020-08-22T10:37:26Z</time>
      </trkpt>
      <trkpt lat="42.503990" lon="1.551314">
        <ele>1384.000000</ele>
        <time>2020-08-22T10:37:26Z</time>
      </trkpt>
      <trkpt lat="42.503986" lon="1.551312">
        <ele>1384.000000</ele>
        <time>2020-08-22T10:37:35Z</time>
      </trkpt>
      <trkpt lat="42.503986" lon="1.551312">
        <ele>1384.000000</ele>
        <time>2020-08-22T10:37:35Z</time>
      </trkpt>
      <trkpt lat="42.503983" lon="1.551309">
        <ele>1384.000000</ele>
        <time>2020-08-22T10:37:35Z</time>
      </trkpt>
      <trkpt lat="42.503983" lon="1.551309">
        <ele>1384.000000</ele>
        <time>2020-08-22T10:37:35Z</time>
      </trkpt>
      <trkpt lat="42.503979" lon="1.551306">
        <ele>1384.000000</ele>
        <time>2020-08-22T10:37:35Z</time>
      </trkpt>
      <trkpt lat="42.503979" lon="1.551306">
        <ele>1385.000000</ele>
        <time>2020-08-22T10:37:35Z</time>
      </trkpt>
      <trkpt lat="42.503967" lon="1.551309">
        <ele>1385.000000</ele>
        <time>2020-08-22T10:37:35Z</time>
      </trkpt>
      <trkpt lat="42.503967" lon="1.551309">
        <ele>1385.000000</ele>
        <time>2020-08-22T10:37:35Z</time>
      </trkpt>
      <trkpt lat="42.503956" lon="1.551311">
        <ele>1386.000000</ele>
        <time>2020-08-22T10:37:35Z</time>
      </trkpt>
      <trkpt lat="42.503956" lon="1.551311">
        <ele>1386.000000</ele>
        <time>2020-08-22T10:37:35Z</time>
      </trkpt>
      <trkpt lat="42.503941" lon="1.551313">
        <ele>1386.000000</ele>
        <time>2020-08-22T10:37:35Z</time>
      </trkpt>
      <trkpt lat="42.503941" lon="1.551313">
        <ele>1386.000000</ele>
        <time>2020-08-22T10:37:35Z</time>
      </trkpt>
      <trkpt lat="42.503929" lon="1.551316">
        <ele>1386.000000</ele>
        <time>2020-08-22T10:37:35Z</time>
      </trkpt>
      <trkpt lat="42.503929" lon="1.551316">
        <ele>1386.000000</ele>
        <time>2020-08-22T10:37:35Z</time>
      </trkpt>
      <trkpt lat="42.503921" lon="1.551318">
        <ele>1386.000000</ele>
        <time>2020-08-22T10:37:35Z</time>
      </trkpt>
      <trkpt lat="42.503921" lon="1.551318">
        <ele>1386.000000</ele>
        <time>2020-08-22T10:37:35Z</time>
      </trkpt>
      <trkpt lat="42.503910" lon="1.551320">
        <ele>1386.000000</ele>
        <time>2020-08-22T10:37:43Z</time>
      </trkpt>
      <trkpt lat="42.503910" lon="1.551320">
        <ele>1386.000000</ele>
        <time>2020-08-22T10:37:43Z</time>
      </trkpt>
      <trkpt lat="42.503899" lon="1.551321">
        <ele>1387.000000</ele>
        <time>2020-08-22T10:37:43Z</time>
      </trkpt>
      <trkpt lat="42.503899" lon="1.551321">
        <ele>1387.000000</ele>
        <time>2020-08-22T10:37:43Z</time>
      </trkpt>
      <trkpt lat="42.503887" lon="1.551321">
        <ele>1387.000000</ele>
        <time>2020-08-22T10:37:43Z</time>
      </trkpt>
      <trkpt lat="42.503887" lon="1.551321">
        <ele>1387.000000</ele>
        <time>2020-08-22T10:37:43Z</time>
      </trkpt>
      <trkpt lat="42.503876" lon="1.551321">
        <ele>1387.000000</ele>
        <time>2020-08-22T10:37:43Z</time>
      </trkpt>
      <trkpt lat="42.503876" lon="1.551321">
        <ele>1387.000000</ele>
        <time>2020-08-22T10:37:43Z</time>
      </trkpt>
      <trkpt lat="42.503864" lon="1.551321">
        <ele>1387.000000</ele>
        <time>2020-08-22T10:37:43Z</time>
      </trkpt>
      <trkpt lat="42.503864" lon="1.551321">
        <ele>1387.000000</ele>
        <time>2020-08-22T10:37:43Z</time>
      </trkpt>
      <trkpt lat="42.503864" lon="1.551324">
        <ele>1387.000000</ele>
        <time>2020-08-22T10:37:43Z</time>
      </trkpt>
      <trkpt lat="42.503864" lon="1.551324">
        <ele>1388.000000</ele>
        <time>2020-08-22T10:37:43Z</time>
      </trkpt>
      <trkpt lat="42.503864" lon="1.551327">
        <ele>1388.000000</ele>
        <time>2020-08-22T10:37:43Z</time>
      </trkpt>
      <trkpt lat="42.503864" lon="1.551327">
        <ele>1388.000000</ele>
        <time>2020-08-22T10:37:43Z</time>
      </trkpt>
      <trkpt lat="42.503864" lon="1.551330">
        <ele>1388.000000</ele>
        <time>2020-08-22T10:37:43Z</time>
      </trkpt>
      <trkpt lat="42.503864" lon="1.551330">
        <ele>1389.000000</ele>
        <time>2020-08-22T10:37:43Z</time>
      </trkpt>
      <trkpt lat="42.503864" lon="1.551333">
        <ele>1389.000000</ele>
        <time>2020-08-22T10:37:52Z</time>
      </trkpt>
      <trkpt lat="42.503864" lon="1.551333">
        <ele>1389.000000</ele>
        <time>2020-08-22T10:37:52Z</time>
      </trkpt>
      <trkpt lat="42.503868" lon="1.551336">
        <ele>1389.000000</ele>
        <time>2020-08-22T10:37:52Z</time>
      </trkpt>
      <trkpt lat="42.503868" lon="1.551336">
        <ele>1389.000000</ele>
        <time>2020-08-22T10:37:52Z</time>
      </trkpt>
      <trkpt lat="42.503868" lon="1.551340">
        <ele>1389.000000</ele>
        <time>2020-08-22T10:37:52Z</time>
      </trkpt>
      <trkpt lat="42.503868" lon="1.551340">
        <ele>1390.000000</ele>
        <time>2020-08-22T10:37:52Z</time>
      </trkpt>
      <trkpt lat="42.503868" lon="1.551344">
        <ele>1390.000000</ele>
        <time>2020-08-22T10:37:52Z</time>
      </trkpt>
      <trkpt lat="42.503868" lon="1.551344">
        <ele>1392.000000</ele>
        <time>2020-08-22T10:37:52Z</time>
      </trkpt>
      <trkpt lat="42.503868" lon="1.551349">
        <ele>1392.000000</ele>
        <time>2020-08-22T10:37:52Z</time>
      </trkpt>
      <trkpt lat="42.503868" lon="1.551349">
        <ele>1393.000000</ele>
        <time>2020-08-22T10:37:52Z</time>
      </trkpt>
      <trkpt lat="42.503868" lon="1.551354">
        <ele>1393.000000</ele>
        <time>2020-08-22T10:37:52Z</time>
      </trkpt>
      <trkpt lat="42.503868" lon="1.551354">
        <ele>1393.000000</ele>
        <time>2020-08-22T10:37:52Z</time>
      </trkpt>
      <trkpt lat="42.503872" lon="1.551360">
        <ele>1394.000000</ele>
        <time>2020-08-22T10:37:52Z</time>
      </trkpt>
      <trkpt lat="42.503872" lon="1.551360">
        <ele>1395.000000</ele>
        <time>2020-08-22T10:37:52Z</time>
      </trkpt>
      <trkpt lat="42.503868" lon="1.551354">
        <ele>1395.000000</ele>
        <time>2020-08-22T10:37:52Z</time>
      </trkpt>
      <trkpt lat="42.503868" lon="1.551354">
        <ele>1395.000000</ele>
        <time>2020-08-22T10:37:52Z</time>
      </trkpt>
      <trkpt lat="42.503902" lon="1.551366">
        <ele>1395.000000</ele>
        <time>2020-08-22T10:37:52Z</time>
      </trkpt>
      <trkpt lat="42.503902" lon="1.551366">
        <ele>1397.000000</ele>
        <time>2020-08-22T10:37:52Z</time>
      </trkpt>
      <trkpt lat="42.503899" lon="1.551366">
        <ele>1397.000000</ele>
        <time>2020-08-22T10:38:08Z</time>
      </trkpt>
      <trkpt lat="42.503899" lon="1.551366">
        <ele>1397.000000</ele>
        <time>2020-08-22T10:38:08Z</time>
      </trkpt>
      <trkpt lat="42.503895" lon="1.551367">
        <ele>1397.000000</ele>
        <time>2020-08-22T10:38:08Z</time>
      </trkpt>
      <trkpt lat="42.503895" lon="1.551367">
        <ele>1397.000000</ele>
        <time>2020-08-22T10:38:08Z</time>
      </trkpt>
      <trkpt lat="42.503891" lon="1.551368">
        <ele>1398.000000</ele>
        <time>2020-08-22T10:38:08Z</time>
      </trkpt>
      <trkpt lat="42.503891" lon="1.551368">
        <ele>1398.000000</ele>
        <time>2020-08-22T10:38:08Z</time>
      </trkpt>
      <trkpt lat="42.503887" lon="1.551369">
        <ele>1398.000000</ele>
        <time>2020-08-22T10:38:08Z</time>
      </trkpt>
      <trkpt lat="42.503887" lon="1.551369">
        <ele>1398.000000</ele>
        <time>2020-08-22T10:38:08Z</time>
      </trkpt>
      <trkpt lat="42.503883" lon="1.551371">
        <ele>1398.000000</ele>
        <time>2020-08-22T10:38:08Z</time>
      </trkpt>
      <trkpt lat="42.503883" lon="1.551371">
        <ele>1398.000000</ele>
        <time>2020-08-22T10:38:08Z</time>
      </trkpt>
      <trkpt lat="42.503880" lon="1.551372">
        <ele>1398.000000</ele>
        <time>2020-08-22T10:38:34Z</time>
      </trkpt>
      <trkpt lat="42.503880" lon="1.551372">
        <ele>1398.000000</ele>
        <time>2020-08-22T10:38:34Z</time>
      </trkpt>
      <trkpt lat="42.503876" lon="1.551372">
        <ele>1398.000000</ele>
        <time>2020-08-22T10:38:34Z</time>
      </trkpt>
      <trkpt lat="42.503876" lon="1.551372">
        <ele>1399.000000</ele>
        <time>2020-08-22T10:38:34Z</time>
      </trkpt>
      <trkpt lat="42.503868" lon="1.551373">
        <ele>1399.000000</ele>
        <time>2020-08-22T10:38:34Z</time>
      </trkpt>
      <trkpt lat="42.503868" lon="1.551373">
        <ele>1399.000000</ele>
        <time>2020-08-22T10:38:34Z</time>
      </trkpt>
      <trkpt lat="42.503868" lon="1.551374">
        <ele>1399.000000</ele>
        <time>2020-08-22T10:38:34Z</time>
      </trkpt>
      <trkpt lat="42.503868" lon="1.551374">
        <ele>1400.000000</ele>
        <time>2020-08-22T10:38:34Z</time>
      </trkpt>
      <trkpt lat="42.503860" lon="1.551377">
        <ele>1400.000000</ele>
        <time>2020-08-22T10:38:34Z</time>
      </trkpt>
      <trkpt lat="42.503860" lon="1.551377">
        <ele>1401.000000</ele>
        <time>2020-08-22T10:38:34Z</time>
      </trkpt>
      <trkpt lat="42.503853" lon="1.551381">
        <ele>1401.000000</ele>
        <time>2020-08-22T10:38:34Z</time>
      </trkpt>
      <trkpt lat="42.503853" lon="1.551381">
        <ele>1401.000000</ele>
        <time>2020-08-22T10:38:34Z</time>
      </trkpt>
      <trkpt lat="42.503849" lon="1.551386">
        <ele>1401.000000</ele>
        <time>2020-08-22T10:38:34Z</time>
      </trkpt>
      <trkpt lat="42.503849" lon="1.551386">
        <ele>1401.000000</ele>
        <time>2020-08-22T10:38:34Z</time>
      </trkpt>
      <trkpt lat="42.503841" lon="1.551390">
        <ele>1401.000000</ele>
        <time>2020-08-22T10:38:34Z</time>
      </trkpt>
      <trkpt lat="42.503841" lon="1.551390">
        <ele>1401.000000</ele>
        <time>2020-08-22T10:38:34Z</time>
      </trkpt>
      <trkpt lat="42.503841" lon="1.551395">
        <ele>1402.000000</ele>
        <time>2020-08-22T10:38:34Z</time>
      </trkpt>
      <trkpt lat="42.503841" lon="1.551395">
        <ele>1402.000000</ele>
        <time>2020-08-22T10:38:34Z</time>
      </trkpt>
      <trkpt lat="42.503834" lon="1.551402">
        <ele>1402.000000</ele>
        <time>2020-08-22T10:38:34Z</time>
      </trkpt>
      <trkpt lat="42.503834" lon="1.551402">
        <ele>1402.000000</ele>
        <time>2020-08-22T10:38:34Z</time>
      </trkpt>
      <trkpt lat="42.503826" lon="1.551411">
        <ele>1402.000000</ele>
        <time>2020-08-22T10:38:34Z</time>
      </trkpt>
      <trkpt lat="42.503826" lon="1.551411">
        <ele>1402.000000</ele>
        <time>2020-08-22T10:38:34Z</time>
      </trkpt>
      <trkpt lat="42.503822" lon="1.551421">
        <ele>1402.000000</ele>
        <time>2020-08-22T10:38:41Z</time>
      </trkpt>
      <trkpt lat="42.503822" lon="1.551421">
        <ele>1402.000000</ele>
        <time>2020-08-22T10:38:41Z</time>
      </trkpt>
      <trkpt lat="42.503815" lon="1.551432">
        <ele>1403.000000</ele>
        <time>2020-08-22T10:38:41Z</time>
      </trkpt>
      <trkpt lat="42.503815" lon="1.551432">
        <ele>1403.000000</ele>
        <time>2020-08-22T10:38:41Z</time>
      </trkpt>
      <trkpt lat="42.503811" lon="1.551444">
        <ele>1403.000000</ele>
        <time>2020-08-22T10:38:41Z</time>
      </trkpt>
      <trkpt lat="42.503811" lon="1.551444">
        <ele>1403.000000</ele>
        <time>2020-08-22T10:38:41Z</time>
      </trkpt>
      <trkpt lat="42.503803" lon="1.551451">
        <ele>1404.000000</ele>
        <time>2020-08-22T10:38:41Z</time>
      </trkpt>
      <trkpt lat="42.503803" lon="1.551451">
        <ele>1405.000000</ele>
        <time>2020-08-22T10:38:41Z</time>
      </trkpt>
      <trkpt lat="42.503796" lon="1.551457">
        <ele>1405.000000</ele>
        <time>2020-08-22T10:38:41Z</time>
      </trkpt>
      <trkpt lat="42.503796" lon="1.551457">
        <ele>1405.000000</ele>
        <time>2020-08-22T10:38:41Z</time>
      </trkpt>
      <trkpt lat="42.503788" lon="1.551464">
        <ele>1405.000000</ele>
        <time>2020-08-22T10:38:41Z</time>
      </trkpt>
      <trkpt lat="42.503788" lon="1.551464">
        <ele>1405.000000</ele>
        <time>2020-08-22T10:38:41Z</time>
      </trkpt>
      <trkpt lat="42.503780" lon="1.551471">
        <ele>1405.000000</ele>
        <time>2020-08-22T10:38:41Z</time>
      </trkpt>
      <trkpt lat="42.503780" lon="1.551471">
        <ele>1405.000000</ele>
        <time>2020-08-22T10:38:41Z</time>
      </trkpt>
      <trkpt lat="42.503773" lon="1.551476">
        <ele>1405.000000</ele>
        <time>2020-08-22T10:38:48Z</time>
      </trkpt>
      <trkpt lat="42.503773" lon="1.551476">
        <ele>1405.000000</ele>
        <time>2020-08-22T10:38:48Z</time>
      </trkpt>
      <trkpt lat="42.503765" lon="1.551481">
        <ele>1406.000000</ele>
        <time>2020-08-22T10:38:48Z</time>
      </trkpt>
      <trkpt lat="42.503765" lon="1.551481">
        <ele>1407.000000</ele>
        <time>2020-08-22T10:38:48Z</time>
      </trkpt>
      <trkpt lat="42.503761" lon="1.551484">
        <ele>1407.000000</ele>
        <time>2020-08-22T10:38:48Z</time>
      </trkpt>
      <trkpt lat="42.503761" lon="1.551484">
        <ele>1407.000000</ele>
        <time>2020-08-22T10:38:48Z</time>
      </trkpt>
      <trkpt lat="42.503757" lon="1.551485">
        <ele>1407.000000</ele>
        <time>2020-08-22T10:38:48Z</time>
      </trkpt>
      <trkpt lat="42.503757" lon="1.551485">
        <ele>1407.000000</ele>
        <time>2020-08-22T10:38:48Z</time>
      </trkpt>
      <trkpt lat="42.503754" lon="1.551487">
        <ele>1407.000000</ele>
        <time>2020-08-22T10:38:48Z</time>
      </trkpt>
      <trkpt lat="42.503754" lon="1.551487">
        <ele>1407.000000</ele>
        <time>2020-08-22T10:38:48Z</time>
      </trkpt>
      <trkpt lat="42.503746" lon="1.551489">
        <ele>1407.000000</ele>
        <time>2020-08-22T10:38:48Z</time>
      </trkpt>
      <trkpt lat="42.503746" lon="1.551489">
        <ele>1407.000000</ele>
        <time>2020-08-22T10:38:48Z</time>
      </trkpt>
      <trkpt lat="42.503727" lon="1.551500">
        <ele>1407.000000</ele>
        <time>2020-08-22T10:38:48Z</time>
      </trkpt>
      <trkpt lat="42.503727" lon="1.551500">
        <ele>1407.000000</ele>
        <time>2020-08-22T10:38:48Z</time>
      </trkpt>
      <trkpt lat="42.503708" lon="1.551511">
        <ele>1407.000000</ele>
        <time>2020-08-22T10:38:48Z</time>
      </trkpt>
      <trkpt lat="42.503708" lon="1.551511">
        <ele>1407.000000</ele>
        <time>2020-08-22T10:38:48Z</time>
      </trkpt>
      <trkpt lat="42.503689" lon="1.551522">
        <ele>1407.000000</ele>
        <time>2020-08-22T10:38:48Z</time>
      </trkpt>
      <trkpt lat="42.503689" lon="1.551522">
        <ele>1407.000000</ele>
        <time>2020-08-22T10:38:48Z</time>
      </trkpt>
      <trkpt lat="42.503670" lon="1.551532">
        <ele>1407.000000</ele>
        <time>2020-08-22T10:38:55Z</time>
      </trkpt>
      <trkpt lat="42.503670" lon="1.551532">
        <ele>1407.000000</ele>
        <time>2020-08-22T10:38:55Z</time>
      </trkpt>
      <trkpt lat="42.503647" lon="1.551543">
        <ele>1407.000000</ele>
        <time>2020-08-22T10:38:55Z</time>
      </trkpt>
      <trkpt lat="42.503647" lon="1.551543">
        <ele>1407.000000</ele>
        <time>2020-08-22T10:38:55Z</time>
      </trkpt>
      <trkpt lat="42.503628" lon="1.551553">
        <ele>1407.000000</ele>
        <time>2020-08-22T10:38:55Z</time>
      </trkpt>
      <trkpt lat="42.503628" lon="1.551553">
        <ele>1407.000000</ele>
        <time>2020-08-22T10:38:55Z</time>
      </trkpt>
      <trkpt lat="42.503601" lon="1.551561">
        <ele>1407.000000</ele>
        <time>2020-08-22T10:38:55Z</time>
      </trkpt>
      <trkpt lat="42.503601" lon="1.551561">
        <ele>1407.000000</ele>
        <time>2020-08-22T10:38:55Z</time>
      </trkpt>
      <trkpt lat="42.503574" lon="1.551570">
        <ele>1407.000000</ele>
        <time>2020-08-22T10:38:55Z</time>
      </trkpt>
      <trkpt lat="42.503574" lon="1.551570">
        <ele>1407.000000</ele>
        <time>2020-08-22T10:38:55Z</time>
      </trkpt>
      <trkpt lat="42.503548" lon="1.551577">
        <ele>1407.000000</ele>
        <time>2020-08-22T10:38:55Z</time>
      </trkpt>
      <trkpt lat="42.503548" lon="1.551577">
        <ele>1407.000000</ele>
        <time>2020-08-22T10:38:55Z</time>
      </trkpt>
      <trkpt lat="42.503521" lon="1.551584">
        <ele>1407.000000</ele>
        <time>2020-08-22T10:38:55Z</time>
      </trkpt>
      <trkpt lat="42.503521" lon="1.551584">
        <ele>1407.000000</ele>
        <time>2020-08-22T10:38:55Z</time>
      </trkpt>
      <trkpt lat="42.503506" lon="1.551588">
        <ele>1407.000000</ele>
        <time>2020-08-22T10:38:55Z</time>
      </trkpt>
      <trkpt lat="42.503506" lon="1.551588">
        <ele>1407.000000</ele>
        <time>2020-08-22T10:38:55Z</time>
      </trkpt>
      <trkpt lat="42.503487" lon="1.551591">
        <ele>1407.000000</ele>
        <time>2020-08-22T10:39:02Z</time>
      </trkpt>
      <trkpt lat="42.503487" lon="1.551591">
        <ele>1407.000000</ele>
        <time>2020-08-22T10:39:02Z</time>
      </trkpt>
      <trkpt lat="42.503468" lon="1.551594">
        <ele>1407.000000</ele>
        <time>2020-08-22T10:39:02Z</time>
      </trkpt>
      <trkpt lat="42.503468" lon="1.551594">
        <ele>1407.000000</ele>
        <time>2020-08-22T10:39:02Z</time>
      </trkpt>
      <trkpt lat="42.503452" lon="1.551597">
        <ele>1407.000000</ele>
        <time>2020-08-22T10:39:02Z</time>
      </trkpt>
      <trkpt lat="42.503452" lon="1.551597">
        <ele>1407.000000</ele>
        <time>2020-08-22T10:39:02Z</time>
      </trkpt>
      <trkpt lat="42.503437" lon="1.551599">
        <ele>1407.000000</ele>
        <time>2020-08-22T10:39:02Z</time>
      </trkpt>
      <trkpt lat="42.503437" lon="1.551599">
        <ele>1407.000000</ele>
        <time>2020-08-22T10:39:02Z</time>
      </trkpt>
      <trkpt lat="42.503426" lon="1.551602">
        <ele>1407.000000</ele>
        <time>2020-08-22T10:39:02Z</time>
      </trkpt>
      <trkpt lat="42.503426" lon="1.551602">
        <ele>1407.000000</ele>
        <time>2020-08-22T10:39:02Z</time>
      </trkpt>
      <trkpt lat="42.503410" lon="1.551604">
        <ele>1407.000000</ele>
        <time>2020-08-22T10:39:02Z</time>
      </trkpt>
      <trkpt lat="42.503410" lon="1.551604">
        <ele>1407.000000</ele>
        <time>2020-08-22T10:39:02Z</time>
      </trkpt>
      <trkpt lat="42.503399" lon="1.551607">
        <ele>1407.000000</ele>
        <time>2020-08-22T10:39:02Z</time>
      </trkpt>
      <trkpt lat="42.503399" lon="1.551607">
        <ele>1407.000000</ele>
        <time>2020-08-22T10:39:02Z</time>
      </trkpt>
      <trkpt lat="42.503387" lon="1.551609">
        <ele>1407.000000</ele>
        <time>2020-08-22T10:39:09Z</time>
      </trkpt>
      <trkpt lat="42.503387" lon="1.551609">
        <ele>1407.000000</ele>
        <time>2020-08-22T10:39:09Z</time>
      </trkpt>
      <trkpt lat="42.503372" lon="1.551611">
        <ele>1407.000000</ele>
        <time>2020-08-22T10:39:09Z</time>
      </trkpt>
      <trkpt lat="42.503372" lon="1.551611">
        <ele>1407.000000</ele>
        <time>2020-08-22T10:39:09Z</time>
      </trkpt>
      <trkpt lat="42.503357" lon="1.551606">
        <ele>1407.000000</ele>
        <time>2020-08-22T10:39:17Z</time>
      </trkpt>
      <trkpt lat="42.503357" lon="1.551606">
        <ele>1407.000000</ele>
        <time>2020-08-22T10:39:17Z</time>
      </trkpt>
      <trkpt lat="42.503342" lon="1.551600">
        <ele>1407.000000</ele>
        <time>2020-08-22T10:39:17Z</time>
      </trkpt>
      <trkpt lat="42.503342" lon="1.551600">
        <ele>1407.000000</ele>
        <time>2020-08-22T10:39:17Z</time>
      </trkpt>
      <trkpt lat="42.503326" lon="1.551594">
        <ele>1407.000000</ele>
        <time>2020-08-22T10:39:17Z</time>
      </trkpt>
      <trkpt lat="42.503326" lon="1.551594">
        <ele>1407.000000</ele>
        <time>2020-08-22T10:39:17Z</time>
      </trkpt>
      <trkpt lat="42.503307" lon="1.551586">
        <ele>1407.000000</ele>
        <time>2020-08-22T10:39:17Z</time>
      </trkpt>
      <trkpt lat="42.503307" lon="1.551586">
        <ele>1407.000000</ele>
        <time>2020-08-22T10:39:17Z</time>
      </trkpt>
      <trkpt lat="42.503284" lon="1.551576">
        <ele>1407.000000</ele>
        <time>2020-08-22T10:39:17Z</time>
      </trkpt>
      <trkpt lat="42.503284" lon="1.551576">
        <ele>1407.000000</ele>
        <time>2020-08-22T10:39:17Z</time>
      </trkpt>
      <trkpt lat="42.503265" lon="1.551565">
        <ele>1407.000000</ele>
        <time>2020-08-22T10:39:17Z</time>
      </trkpt>
      <trkpt lat="42.503265" lon="1.551565">
        <ele>1407.000000</ele>
        <time>2020-08-22T10:39:17Z</time>
      </trkpt>
      <trkpt lat="42.503246" lon="1.551554">
        <ele>1407.000000</ele>
        <time>2020-08-22T10:39:25Z</time>
      </trkpt>
      <trkpt lat="42.503246" lon="1.551554">
        <ele>1407.000000</ele>
        <time>2020-08-22T10:39:25Z</time>
      </trkpt>
      <trkpt lat="42.503231" lon="1.551542">
        <ele>1407.000000</ele>
        <time>2020-08-22T10:39:25Z</time>
      </trkpt>
      <trkpt lat="42.503231" lon="1.551542">
        <ele>1407.000000</ele>
        <time>2020-08-22T10:39:25Z</time>
      </trkpt>
      <trkpt lat="42.503216" lon="1.551529">
        <ele>1407.000000</ele>
        <time>2020-08-22T10:39:25Z</time>
      </trkpt>
      <trkpt lat="42.503216" lon="1.551529">
        <ele>1407.000000</ele>
        <time>2020-08-22T10:39:25Z</time>
      </trkpt>
      <trkpt lat="42.503201" lon="1.551517">
        <ele>1407.000000</ele>
        <time>2020-08-22T10:39:25Z</time>
      </trkpt>
      <trkpt lat="42.503201" lon="1.551517">
        <ele>1407.000000</ele>
        <time>2020-08-22T10:39:25Z</time>
      </trkpt>
      <trkpt lat="42.503189" lon="1.551508">
        <ele>1407.000000</ele>
        <time>2020-08-22T10:39:25Z</time>
      </trkpt>
      <trkpt lat="42.503189" lon="1.551508">
        <ele>1407.000000</ele>
        <time>2020-08-22T10:39:25Z</time>
      </trkpt>
      <trkpt lat="42.503181" lon="1.551501">
        <ele>1407.000000</ele>
        <time>2020-08-22T10:39:32Z</time>
      </trkpt>
      <trkpt lat="42.503181" lon="1.551501">
        <ele>1407.000000</ele>
        <time>2020-08-22T10:39:32Z</time>
      </trkpt>
      <trkpt lat="42.503178" lon="1.551498">
        <ele>1407.000000</ele>
        <time>2020-08-22T10:39:32Z</time>
      </trkpt>
      <trkpt lat="42.503178" lon="1.551498">
        <ele>1407.000000</ele>
        <time>2020-08-22T10:39:32Z</time>
      </trkpt>
      <trkpt lat="42.503170" lon="1.551497">
        <ele>1407.000000</ele>
        <time>2020-08-22T10:39:32Z</time>
      </trkpt>
      <trkpt lat="42.503170" lon="1.551497">
        <ele>1407.000000</ele>
        <time>2020-08-22T10:39:32Z</time>
      </trkpt>
      <trkpt lat="42.503166" lon="1.551500">
        <ele>1407.000000</ele>
        <time>2020-08-22T10:39:32Z</time>
      </trkpt>
      <trkpt lat="42.503166" lon="1.551500">
        <ele>1407.000000</ele>
        <time>2020-08-22T10:39:32Z</time>
      </trkpt>
      <trkpt lat="42.503166" lon="1.551505">
        <ele>1407.000000</ele>
        <time>2020-08-22T10:39:32Z</time>
      </trkpt>
      <trkpt lat="42.503166" lon="1.551505">
        <ele>1407.000000</ele>
        <time>2020-08-22T10:39:32Z</time>
      </trkpt>
      <trkpt lat="42.503159" lon="1.551511">
        <ele>1407.000000</ele>
        <time>2020-08-22T10:39:32Z</time>
      </trkpt>
      <trkpt lat="42.503159" lon="1.551511">
        <ele>1407.000000</ele>
        <time>2020-08-22T10:39:32Z</time>
      </trkpt>
      <trkpt lat="42.503155" lon="1.551517">
        <ele>1407.000000</ele>
        <time>2020-08-22T10:39:32Z</time>
      </trkpt>
      <trkpt lat="42.503155" lon="1.551517">
        <ele>1407.000000</ele>
        <time>2020-08-22T10:39:32Z</time>
      </trkpt>
      <trkpt lat="42.503147" lon="1.551523">
        <ele>1407.000000</ele>
        <time>2020-08-22T10:39:39Z</time>
      </trkpt>
      <trkpt lat="42.503147" lon="1.551523">
        <ele>1407.000000</ele>
        <time>2020-08-22T10:39:39Z</time>
      </trkpt>
      <trkpt lat="42.503139" lon="1.551529">
        <ele>1407.000000</ele>
        <time>2020-08-22T10:39:39Z</time>
      </trkpt>
      <trkpt lat="42.503139" lon="1.551529">
        <ele>1407.000000</ele>
        <time>2020-08-22T10:39:39Z</time>
      </trkpt>
      <trkpt lat="42.503120" lon="1.551535">
        <ele>1407.000000</ele>
        <time>2020-08-22T10:39:39Z</time>
      </trkpt>
      <trkpt lat="42.503120" lon="1.551535">
        <ele>1407.000000</ele>
        <time>2020-08-22T10:39:39Z</time>
      </trkpt>
      <trkpt lat="42.503105" lon="1.551539">
        <ele>1407.000000</ele>
        <time>2020-08-22T10:39:39Z</time>
      </trkpt>
      <trkpt lat="42.503105" lon="1.551539">
        <ele>1407.000000</ele>
        <time>2020-08-22T10:39:39Z</time>
      </trkpt>
      <trkpt lat="42.503086" lon="1.551543">
        <ele>1407.000000</ele>
        <time>2020-08-22T10:39:39Z</time>
      </trkpt>
      <trkpt lat="42.503086" lon="1.551543">
        <ele>1407.000000</ele>
        <time>2020-08-22T10:39:39Z</time>
      </trkpt>
      <trkpt lat="42.503067" lon="1.551547">
        <ele>1407.000000</ele>
        <time>2020-08-22T10:39:46Z</time>
      </trkpt>
      <trkpt lat="42.503067" lon="1.551547">
        <ele>1407.000000</ele>
        <time>2020-08-22T10:39:46Z</time>
      </trkpt>
      <trkpt lat="42.503052" lon="1.551551">
        <ele>1407.000000</ele>
        <time>2020-08-22T10:39:46Z</time>
      </trkpt>
      <trkpt lat="42.503052" lon="1.551551">
        <ele>1407.000000</ele>
        <time>2020-08-22T10:39:46Z</time>
      </trkpt>
      <trkpt lat="42.503036" lon="1.551555">
        <ele>1407.000000</ele>
        <time>2020-08-22T10:39:46Z</time>
      </trkpt>
      <trkpt lat="42.503036" lon="1.551555">
        <ele>1407.000000</ele>
        <time>2020-08-22T10:39:46Z</time>
      </trkpt>
      <trkpt lat="42.503017" lon="1.551559">
        <ele>1407.000000</ele>
        <time>2020-08-22T10:39:46Z</time>
      </trkpt>
      <trkpt lat="42.503017" lon="1.551559">
        <ele>1407.000000</ele>
        <time>2020-08-22T10:39:46Z</time>
      </trkpt>
      <trkpt lat="42.503006" lon="1.551564">
        <ele>1422.000000</ele>
        <time>2020-08-22T10:39:46Z</time>
      </trkpt>
      <trkpt lat="42.503006" lon="1.551564">
        <ele>1422.000000</ele>
        <time>2020-08-22T10:39:46Z</time>
      </trkpt>
      <trkpt lat="42.502995" lon="1.551569">
        <ele>1422.000000</ele>
        <time>2020-08-22T10:39:46Z</time>
      </trkpt>
      <trkpt lat="42.502995" lon="1.551569">
        <ele>1422.000000</ele>
        <time>2020-08-22T10:39:46Z</time>
      </trkpt>
      <trkpt lat="42.502987" lon="1.551575">
        <ele>1431.000000</ele>
        <time>2020-08-22T10:39:46Z</time>
      </trkpt>
      <trkpt lat="42.502987" lon="1.551575">
        <ele>1431.000000</ele>
        <time>2020-08-22T10:39:46Z</time>
      </trkpt>
      <trkpt lat="42.502987" lon="1.551584">
        <ele>1432.000000</ele>
        <time>2020-08-22T10:39:53Z</time>
      </trkpt>
      <trkpt lat="42.502987" lon="1.551584">
        <ele>1432.000000</ele>
        <time>2020-08-22T10:39:53Z</time>
      </trkpt>
      <trkpt lat="42.502983" lon="1.551592">
        <ele>1432.000000</ele>
        <time>2020-08-22T10:39:53Z</time>
      </trkpt>
      <trkpt lat="42.502983" lon="1.551592">
        <ele>1433.000000</ele>
        <time>2020-08-22T10:39:53Z</time>
      </trkpt>
      <trkpt lat="42.502983" lon="1.551599">
        <ele>1433.000000</ele>
        <time>2020-08-22T10:39:53Z</time>
      </trkpt>
      <trkpt lat="42.502983" lon="1.551599">
        <ele>1433.000000</ele>
        <time>2020-08-22T10:39:53Z</time>
      </trkpt>
      <trkpt lat="42.502983" lon="1.551606">
        <ele>1433.000000</ele>
        <time>2020-08-22T10:39:53Z</time>
      </trkpt>
      <trkpt lat="42.502983" lon="1.551606">
        <ele>1433.000000</ele>
        <time>2020-08-22T10:39:53Z</time>
      </trkpt>
      <trkpt lat="42.502983" lon="1.551613">
        <ele>1434.000000</ele>
        <time>2020-08-22T10:39:53Z</time>
      </trkpt>
      <trkpt lat="42.502983" lon="1.551613">
        <ele>1434.000000</ele>
        <time>2020-08-22T10:39:53Z</time>
      </trkpt>
      <trkpt lat="42.502983" lon="1.551620">
        <ele>1434.000000</ele>
        <time>2020-08-22T10:39:53Z</time>
      </trkpt>
      <trkpt lat="42.502983" lon="1.551620">
        <ele>1434.000000</ele>
        <time>2020-08-22T10:39:53Z</time>
      </trkpt>
      <trkpt lat="42.502983" lon="1.551627">
        <ele>1434.000000</ele>
        <time>2020-08-22T10:39:53Z</time>
      </trkpt>
      <trkpt lat="42.502983" lon="1.551627">
        <ele>1434.000000</ele>
        <time>2020-08-22T10:39:53Z</time>
      </trkpt>
      <trkpt lat="42.502983" lon="1.551635">
        <ele>1434.000000</ele>
        <time>2020-08-22T10:40:00Z</time>
      </trkpt>
      <trkpt lat="42.502983" lon="1.551635">
        <ele>1434.000000</ele>
        <time>2020-08-22T10:40:00Z</time>
      </trkpt>
      <trkpt lat="42.502979" lon="1.551643">
        <ele>1434.000000</ele>
        <time>2020-08-22T10:40:00Z</time>
      </trkpt>
      <trkpt lat="42.502979" lon="1.551643">
        <ele>1434.000000</ele>
        <time>2020-08-22T10:40:00Z</time>
      </trkpt>
      <trkpt lat="42.502972" lon="1.551652">
        <ele>1435.000000</ele>
        <time>2020-08-22T10:40:00Z</time>
      </trkpt>
      <trkpt lat="42.502972" lon="1.551652">
        <ele>1435.000000</ele>
        <time>2020-08-22T10:40:00Z</time>
      </trkpt>
      <trkpt lat="42.502972" lon="1.551668">
        <ele>1435.000000</ele>
        <time>2020-08-22T10:40:00Z</time>
      </trkpt>
      <trkpt lat="42.502972" lon="1.551668">
        <ele>1435.000000</ele>
        <time>2020-08-22T10:40:00Z</time>
      </trkpt>
      <trkpt lat="42.502964" lon="1.551683">
        <ele>1435.000000</ele>
        <time>2020-08-22T10:40:00Z</time>
      </trkpt>
      <trkpt lat="42.502964" lon="1.551683">
        <ele>1435.000000</ele>
        <time>2020-08-22T10:40:00Z</time>
      </trkpt>
      <trkpt lat="42.502960" lon="1.551698">
        <ele>1435.000000</ele>
        <time>2020-08-22T10:40:00Z</time>
      </trkpt>
      <trkpt lat="42.502960" lon="1.551698">
        <ele>1435.000000</ele>
        <time>2020-08-22T10:40:00Z</time>
      </trkpt>
      <trkpt lat="42.502956" lon="1.551713">
        <ele>1435.000000</ele>
        <time>2020-08-22T10:40:00Z</time>
      </trkpt>
      <trkpt lat="42.502956" lon="1.551713">
        <ele>1435.000000</ele>
        <time>2020-08-22T10:40:00Z</time>
      </trkpt>
      <trkpt lat="42.502953" lon="1.551728">
        <ele>1435.000000</ele>
        <time>2020-08-22T10:40:07Z</time>
      </trkpt>
      <trkpt lat="42.502953" lon="1.551728">
        <ele>1435.000000</ele>
        <time>2020-08-22T10:40:07Z</time>
      </trkpt>
      <trkpt lat="42.502949" lon="1.551744">
        <ele>1435.000000</ele>
        <time>2020-08-22T10:40:07Z</time>
      </trkpt>
      <trkpt lat="42.502949" lon="1.551744">
        <ele>1435.000000</ele>
        <time>2020-08-22T10:40:07Z</time>
      </trkpt>
      <trkpt lat="42.502945" lon="1.551761">
        <ele>1435.000000</ele>
        <time>2020-08-22T10:40:07Z</time>
      </trkpt>
      <trkpt lat="42.502945" lon="1.551761">
        <ele>1436.000000</ele>
        <time>2020-08-22T10:40:07Z</time>
      </trkpt>
      <trkpt lat="42.502945" lon="1.551778">
        <ele>1436.000000</ele>
        <time>2020-08-22T10:40:07Z</time>
      </trkpt>
      <trkpt lat="42.502945" lon="1.551778">
        <ele>1436.000000</ele>
        <time>2020-08-22T10:40:07Z</time>
      </trkpt>
      <trkpt lat="42.502937" lon="1.551794">
        <ele>1436.000000</ele>
        <time>2020-08-22T10:40:07Z</time>
      </trkpt>
      <trkpt lat="42.502937" lon="1.551794">
        <ele>1436.000000</ele>
        <time>2020-08-22T10:40:07Z</time>
      </trkpt>
      <trkpt lat="42.502933" lon="1.551810">
        <ele>1437.000000</ele>
        <time>2020-08-22T10:40:07Z</time>
      </trkpt>
      <trkpt lat="42.502933" lon="1.551810">
        <ele>1437.000000</ele>
        <time>2020-08-22T10:40:07Z</time>
      </trkpt>
      <trkpt lat="42.502930" lon="1.551819">
        <ele>1437.000000</ele>
        <time>2020-08-22T10:40:07Z</time>
      </trkpt>
      <trkpt lat="42.502930" lon="1.551819">
        <ele>1437.000000</ele>
        <time>2020-08-22T10:40:07Z</time>
      </trkpt>
      <trkpt lat="42.502930" lon="1.551830">
        <ele>1437.000000</ele>
        <time>2020-08-22T10:40:14Z</time>
      </trkpt>
      <trkpt lat="42.502930" lon="1.551830">
        <ele>1437.000000</ele>
        <time>2020-08-22T10:40:14Z</time>
      </trkpt>
      <trkpt lat="42.502922" lon="1.551840">
        <ele>1437.000000</ele>
        <time>2020-08-22T10:40:14Z</time>
      </trkpt>
      <trkpt lat="42.502922" lon="1.551840">
        <ele>1438.000000</ele>
        <time>2020-08-22T10:40:14Z</time>
      </trkpt>
      <trkpt lat="42.502918" lon="1.551850">
        <ele>1438.000000</ele>
        <time>2020-08-22T10:40:14Z</time>
      </trkpt>
      <trkpt lat="42.502918" lon="1.551850">
        <ele>1438.000000</ele>
        <time>2020-08-22T10:40:14Z</time>
      </trkpt>
      <trkpt lat="42.502907" lon="1.551860">
        <ele>1438.000000</ele>
        <time>2020-08-22T10:40:14Z</time>
      </trkpt>
      <trkpt lat="42.502907" lon="1.551860">
        <ele>1439.000000</ele>
        <time>2020-08-22T10:40:14Z</time>
      </trkpt>
      <trkpt lat="42.502895" lon="1.551868">
        <ele>1439.000000</ele>
        <time>2020-08-22T10:40:14Z</time>
      </trkpt>
      <trkpt lat="42.502895" lon="1.551868">
        <ele>1439.000000</ele>
        <time>2020-08-22T10:40:14Z</time>
      </trkpt>
      <trkpt lat="42.502884" lon="1.551876">
        <ele>1439.000000</ele>
        <time>2020-08-22T10:40:14Z</time>
      </trkpt>
      <trkpt lat="42.502884" lon="1.551876">
        <ele>1439.000000</ele>
        <time>2020-08-22T10:40:14Z</time>
      </trkpt>
      <trkpt lat="42.502876" lon="1.551884">
        <ele>1439.000000</ele>
        <time>2020-08-22T10:40:14Z</time>
      </trkpt>
      <trkpt lat="42.502876" lon="1.551884">
        <ele>1439.000000</ele>
        <time>2020-08-22T10:40:14Z</time>
      </trkpt>
      <trkpt lat="42.502861" lon="1.551892">
        <ele>1440.000000</ele>
        <time>2020-08-22T10:40:21Z</time>
      </trkpt>
      <trkpt lat="42.502861" lon="1.551892">
        <ele>1440.000000</ele>
        <time>2020-08-22T10:40:21Z</time>
      </trkpt>
      <trkpt lat="42.502850" lon="1.551901">
        <ele>1440.000000</ele>
        <time>2020-08-22T10:40:21Z</time>
      </trkpt>
      <trkpt lat="42.502850" lon="1.551901">
        <ele>1440.000000</ele>
        <time>2020-08-22T10:40:21Z</time>
      </trkpt>
      <trkpt lat="42.502823" lon="1.551938">
        <ele>1440.000000</ele>
        <time>2020-08-22T10:40:28Z</time>
      </trkpt>
      <trkpt lat="42.502823" lon="1.551938">
        <ele>1440.000000</ele>
        <time>2020-08-22T10:40:28Z</time>
      </trkpt>
      <trkpt lat="42.502796" lon="1.551976">
        <ele>1440.000000</ele>
        <time>2020-08-22T10:40:28Z</time>
      </trkpt>
      <trkpt lat="42.502796" lon="1.551976">
        <ele>1440.000000</ele>
        <time>2020-08-22T10:40:28Z</time>
      </trkpt>
      <trkpt lat="42.502769" lon="1.552015">
        <ele>1440.000000</ele>
        <time>2020-08-22T10:40:28Z</time>
      </trkpt>
      <trkpt lat="42.502769" lon="1.552015">
        <ele>1440.000000</ele>
        <time>2020-08-22T10:40:28Z</time>
      </trkpt>
      <trkpt lat="42.502743" lon="1.552053">
        <ele>1440.000000</ele>
        <time>2020-08-22T10:40:28Z</time>
      </trkpt>
      <trkpt lat="42.502743" lon="1.552053">
        <ele>1440.000000</ele>
        <time>2020-08-22T10:40:28Z</time>
      </trkpt>
      <trkpt lat="42.502720" lon="1.552091">
        <ele>1440.000000</ele>
        <time>2020-08-22T10:40:28Z</time>
      </trkpt>
      <trkpt lat="42.502720" lon="1.552091">
        <ele>1440.000000</ele>
        <time>2020-08-22T10:40:28Z</time>
      </trkpt>
      <trkpt lat="42.502697" lon="1.552130">
        <ele>1440.000000</ele>
        <time>2020-08-22T10:40:28Z</time>
      </trkpt>
      <trkpt lat="42.502697" lon="1.552130">
        <ele>1440.000000</ele>
        <time>2020-08-22T10:40:28Z</time>
      </trkpt>
      <trkpt lat="42.502670" lon="1.552168">
        <ele>1440.000000</ele>
        <time>2020-08-22T10:40:28Z</time>
      </trkpt>
      <trkpt lat="42.502670" lon="1.552168">
        <ele>1440.000000</ele>
        <time>2020-08-22T10:40:28Z</time>
      </trkpt>
      <trkpt lat="42.502651" lon="1.552205">
        <ele>1440.000000</ele>
        <time>2020-08-22T10:40:36Z</time>
      </trkpt>
      <trkpt lat="42.502651" lon="1.552205">
        <ele>1440.000000</ele>
        <time>2020-08-22T10:40:36Z</time>
      </trkpt>
      <trkpt lat="42.502628" lon="1.552241">
        <ele>1440.000000</ele>
        <time>2020-08-22T10:40:36Z</time>
      </trkpt>
      <trkpt lat="42.502628" lon="1.552241">
        <ele>1440.000000</ele>
        <time>2020-08-22T10:40:36Z</time>
      </trkpt>
      <trkpt lat="42.502605" lon="1.552276">
        <ele>1440.000000</ele>
        <time>2020-08-22T10:40:36Z</time>
      </trkpt>
      <trkpt lat="42.502605" lon="1.552276">
        <ele>1440.000000</ele>
        <time>2020-08-22T10:40:36Z</time>
      </trkpt>
      <trkpt lat="42.502602" lon="1.552281">
        <ele>1440.000000</ele>
        <time>2020-08-22T10:40:36Z</time>
      </trkpt>
      <trkpt lat="42.502602" lon="1.552281">
        <ele>1440.000000</ele>
        <time>2020-08-22T10:40:36Z</time>
      </trkpt>
      <trkpt lat="42.502594" lon="1.552285">
        <ele>1440.000000</ele>
        <time>2020-08-22T10:40:36Z</time>
      </trkpt>
      <trkpt lat="42.502594" lon="1.552285">
        <ele>1440.000000</ele>
        <time>2020-08-22T10:40:36Z</time>
      </trkpt>
      <trkpt lat="42.502586" lon="1.552288">
        <ele>1440.000000</ele>
        <time>2020-08-22T10:40:36Z</time>
      </trkpt>
      <trkpt lat="42.502586" lon="1.552288">
        <ele>1440.000000</ele>
        <time>2020-08-22T10:40:36Z</time>
      </trkpt>
      <trkpt lat="42.502575" lon="1.552289">
        <ele>1440.000000</ele>
        <time>2020-08-22T10:40:36Z</time>
      </trkpt>
      <trkpt lat="42.502575" lon="1.552289">
        <ele>1440.000000</ele>
        <time>2020-08-22T10:40:36Z</time>
      </trkpt>
      <trkpt lat="42.502567" lon="1.552291">
        <ele>1440.000000</ele>
        <time>2020-08-22T10:40:43Z</time>
      </trkpt>
      <trkpt lat="42.502567" lon="1.552291">
        <ele>1440.000000</ele>
        <time>2020-08-22T10:40:43Z</time>
      </trkpt>
      <trkpt lat="42.502560" lon="1.552292">
        <ele>1440.000000</ele>
        <time>2020-08-22T10:40:43Z</time>
      </trkpt>
      <trkpt lat="42.502560" lon="1.552292">
        <ele>1440.000000</ele>
        <time>2020-08-22T10:40:43Z</time>
      </trkpt>
      <trkpt lat="42.502548" lon="1.552294">
        <ele>1440.000000</ele>
        <time>2020-08-22T10:40:43Z</time>
      </trkpt>
      <trkpt lat="42.502548" lon="1.552294">
        <ele>1440.000000</ele>
        <time>2020-08-22T10:40:43Z</time>
      </trkpt>
      <trkpt lat="42.502537" lon="1.552296">
        <ele>1440.000000</ele>
        <time>2020-08-22T10:40:43Z</time>
      </trkpt>
      <trkpt lat="42.502537" lon="1.552296">
        <ele>1440.000000</ele>
        <time>2020-08-22T10:40:43Z</time>
      </trkpt>
      <trkpt lat="42.502529" lon="1.552300">
        <ele>1440.000000</ele>
        <time>2020-08-22T10:40:43Z</time>
      </trkpt>
      <trkpt lat="42.502529" lon="1.552300">
        <ele>1440.000000</ele>
        <time>2020-08-22T10:40:43Z</time>
      </trkpt>
      <trkpt lat="42.502522" lon="1.552305">
        <ele>1440.000000</ele>
        <time>2020-08-22T10:40:43Z</time>
      </trkpt>
      <trkpt lat="42.502522" lon="1.552305">
        <ele>1440.000000</ele>
        <time>2020-08-22T10:40:43Z</time>
      </trkpt>
      <trkpt lat="42.502502" lon="1.552322">
        <ele>1440.000000</ele>
        <time>2020-08-22T10:40:43Z</time>
      </trkpt>
      <trkpt lat="42.502502" lon="1.552322">
        <ele>1440.000000</ele>
        <time>2020-08-22T10:40:43Z</time>
      </trkpt>
      <trkpt lat="42.502487" lon="1.552341">
        <ele>1440.000000</ele>
        <time>2020-08-22T10:40:43Z</time>
      </trkpt>
      <trkpt lat="42.502487" lon="1.552341">
        <ele>1440.000000</ele>
        <time>2020-08-22T10:40:43Z</time>
      </trkpt>
      <trkpt lat="42.502476" lon="1.552360">
        <ele>1440.000000</ele>
        <time>2020-08-22T10:40:50Z</time>
      </trkpt>
      <trkpt lat="42.502476" lon="1.552360">
        <ele>1440.000000</ele>
        <time>2020-08-22T10:40:50Z</time>
      </trkpt>
      <trkpt lat="42.502460" lon="1.552379">
        <ele>1440.000000</ele>
        <time>2020-08-22T10:40:50Z</time>
      </trkpt>
      <trkpt lat="42.502460" lon="1.552379">
        <ele>1440.000000</ele>
        <time>2020-08-22T10:40:50Z</time>
      </trkpt>
      <trkpt lat="42.502449" lon="1.552400">
        <ele>1440.000000</ele>
        <time>2020-08-22T10:40:50Z</time>
      </trkpt>
      <trkpt lat="42.502449" lon="1.552400">
        <ele>1440.000000</ele>
        <time>2020-08-22T10:40:50Z</time>
      </trkpt>
      <trkpt lat="42.502434" lon="1.552420">
        <ele>1440.000000</ele>
        <time>2020-08-22T10:40:50Z</time>
      </trkpt>
      <trkpt lat="42.502434" lon="1.552420">
        <ele>1445.000000</ele>
        <time>2020-08-22T10:40:50Z</time>
      </trkpt>
      <trkpt lat="42.502422" lon="1.552440">
        <ele>1445.000000</ele>
        <time>2020-08-22T10:40:50Z</time>
      </trkpt>
      <trkpt lat="42.502422" lon="1.552440">
        <ele>1445.000000</ele>
        <time>2020-08-22T10:40:50Z</time>
      </trkpt>
      <trkpt lat="42.502415" lon="1.552460">
        <ele>1445.000000</ele>
        <time>2020-08-22T10:40:50Z</time>
      </trkpt>
      <trkpt lat="42.502415" lon="1.552460">
        <ele>1445.000000</ele>
        <time>2020-08-22T10:40:50Z</time>
      </trkpt>
      <trkpt lat="42.502403" lon="1.552480">
        <ele>1445.000000</ele>
        <time>2020-08-22T10:40:50Z</time>
      </trkpt>
      <trkpt lat="42.502403" lon="1.552480">
        <ele>1445.000000</ele>
        <time>2020-08-22T10:40:50Z</time>
      </trkpt>
      <trkpt lat="42.502392" lon="1.552501">
        <ele>1445.000000</ele>
        <time>2020-08-22T10:40:57Z</time>
      </trkpt>
      <trkpt lat="42.502392" lon="1.552501">
        <ele>1445.000000</ele>
        <time>2020-08-22T10:40:57Z</time>
      </trkpt>
      <trkpt lat="42.502388" lon="1.552514">
        <ele>1447.000000</ele>
        <time>2020-08-22T10:40:57Z</time>
      </trkpt>
      <trkpt lat="42.502388" lon="1.552514">
        <ele>1447.000000</ele>
        <time>2020-08-22T10:40:57Z</time>
      </trkpt>
      <trkpt lat="42.502380" lon="1.552527">
        <ele>1447.000000</ele>
        <time>2020-08-22T10:41:04Z</time>
      </trkpt>
      <trkpt lat="42.502380" lon="1.552527">
        <ele>1447.000000</ele>
        <time>2020-08-22T10:41:04Z</time>
      </trkpt>
      <trkpt lat="42.502369" lon="1.552541">
        <ele>1447.000000</ele>
        <time>2020-08-22T10:41:04Z</time>
      </trkpt>
      <trkpt lat="42.502369" lon="1.552541">
        <ele>1447.000000</ele>
        <time>2020-08-22T10:41:04Z</time>
      </trkpt>
      <trkpt lat="42.502357" lon="1.552555">
        <ele>1447.000000</ele>
        <time>2020-08-22T10:41:04Z</time>
      </trkpt>
      <trkpt lat="42.502357" lon="1.552555">
        <ele>1447.000000</ele>
        <time>2020-08-22T10:41:04Z</time>
      </trkpt>
      <trkpt lat="42.502342" lon="1.552569">
        <ele>1447.000000</ele>
        <time>2020-08-22T10:41:04Z</time>
      </trkpt>
      <trkpt lat="42.502342" lon="1.552569">
        <ele>1447.000000</ele>
        <time>2020-08-22T10:41:04Z</time>
      </trkpt>
      <trkpt lat="42.502323" lon="1.552583">
        <ele>1447.000000</ele>
        <time>2020-08-22T10:41:04Z</time>
      </trkpt>
      <trkpt lat="42.502323" lon="1.552583">
        <ele>1447.000000</ele>
        <time>2020-08-22T10:41:04Z</time>
      </trkpt>
      <trkpt lat="42.502304" lon="1.552597">
        <ele>1447.000000</ele>
        <time>2020-08-22T10:41:04Z</time>
      </trkpt>
      <trkpt lat="42.502304" lon="1.552597">
        <ele>1447.000000</ele>
        <time>2020-08-22T10:41:04Z</time>
      </trkpt>
      <trkpt lat="42.502281" lon="1.552610">
        <ele>1447.000000</ele>
        <time>2020-08-22T10:41:04Z</time>
      </trkpt>
      <trkpt lat="42.502281" lon="1.552610">
        <ele>1447.000000</ele>
        <time>2020-08-22T10:41:04Z</time>
      </trkpt>
      <trkpt lat="42.502262" lon="1.552622">
        <ele>1447.000000</ele>
        <time>2020-08-22T10:41:11Z</time>
      </trkpt>
      <trkpt lat="42.502262" lon="1.552622">
        <ele>1447.000000</ele>
        <time>2020-08-22T10:41:11Z</time>
      </trkpt>
      <trkpt lat="42.502239" lon="1.552634">
        <ele>1447.000000</ele>
        <time>2020-08-22T10:41:11Z</time>
      </trkpt>
      <trkpt lat="42.502239" lon="1.552634">
        <ele>1447.000000</ele>
        <time>2020-08-22T10:41:11Z</time>
      </trkpt>
      <trkpt lat="42.502213" lon="1.552645">
        <ele>1447.000000</ele>
        <time>2020-08-22T10:41:11Z</time>
      </trkpt>
      <trkpt lat="42.502213" lon="1.552645">
        <ele>1447.000000</ele>
        <time>2020-08-22T10:41:11Z</time>
      </trkpt>
      <trkpt lat="42.502190" lon="1.552655">
        <ele>1447.000000</ele>
        <time>2020-08-22T10:41:11Z</time>
      </trkpt>
      <trkpt lat="42.502190" lon="1.552655">
        <ele>1447.000000</ele>
        <time>2020-08-22T10:41:11Z</time>
      </trkpt>
      <trkpt lat="42.502167" lon="1.552665">
        <ele>1447.000000</ele>
        <time>2020-08-22T10:41:11Z</time>
      </trkpt>
      <trkpt lat="42.502167" lon="1.552665">
        <ele>1447.000000</ele>
        <time>2020-08-22T10:41:11Z</time>
      </trkpt>
      <trkpt lat="42.502148" lon="1.552673">
        <ele>1447.000000</ele>
        <time>2020-08-22T10:41:18Z</time>
      </trkpt>
      <trkpt lat="42.502148" lon="1.552673">
        <ele>1447.000000</ele>
        <time>2020-08-22T10:41:18Z</time>
      </trkpt>
      <trkpt lat="42.502129" lon="1.552681">
        <ele>1447.000000</ele>
        <time>2020-08-22T10:41:18Z</time>
      </trkpt>
      <trkpt lat="42.502129" lon="1.552681">
        <ele>1447.000000</ele>
        <time>2020-08-22T10:41:18Z</time>
      </trkpt>
      <trkpt lat="42.502113" lon="1.552688">
        <ele>1447.000000</ele>
        <time>2020-08-22T10:41:18Z</time>
      </trkpt>
      <trkpt lat="42.502113" lon="1.552688">
        <ele>1447.000000</ele>
        <time>2020-08-22T10:41:18Z</time>
      </trkpt>
      <trkpt lat="42.502094" lon="1.552696">
        <ele>1447.000000</ele>
        <time>2020-08-22T10:41:18Z</time>
      </trkpt>
      <trkpt lat="42.502094" lon="1.552696">
        <ele>1447.000000</ele>
        <time>2020-08-22T10:41:18Z</time>
      </trkpt>
      <trkpt lat="42.502083" lon="1.552703">
        <ele>1447.000000</ele>
        <time>2020-08-22T10:41:18Z</time>
      </trkpt>
      <trkpt lat="42.502083" lon="1.552703">
        <ele>1447.000000</ele>
        <time>2020-08-22T10:41:18Z</time>
      </trkpt>
      <trkpt lat="42.502068" lon="1.552710">
        <ele>1447.000000</ele>
        <time>2020-08-22T10:41:26Z</time>
      </trkpt>
      <trkpt lat="42.502068" lon="1.552710">
        <ele>1447.000000</ele>
        <time>2020-08-22T10:41:26Z</time>
      </trkpt>
      <trkpt lat="42.502052" lon="1.552715">
        <ele>1447.000000</ele>
        <time>2020-08-22T10:41:26Z</time>
      </trkpt>
      <trkpt lat="42.502052" lon="1.552715">
        <ele>1447.000000</ele>
        <time>2020-08-22T10:41:26Z</time>
      </trkpt>
      <trkpt lat="42.502041" lon="1.552714">
        <ele>1447.000000</ele>
        <time>2020-08-22T10:41:26Z</time>
      </trkpt>
      <trkpt lat="42.502041" lon="1.552714">
        <ele>1447.000000</ele>
        <time>2020-08-22T10:41:26Z</time>
      </trkpt>
      <trkpt lat="42.502033" lon="1.552712">
        <ele>1447.000000</ele>
        <time>2020-08-22T10:41:26Z</time>
      </trkpt>
      <trkpt lat="42.502033" lon="1.552712">
        <ele>1447.000000</ele>
        <time>2020-08-22T10:41:26Z</time>
      </trkpt>
      <trkpt lat="42.502022" lon="1.552709">
        <ele>1450.000000</ele>
        <time>2020-08-22T10:41:26Z</time>
      </trkpt>
      <trkpt lat="42.502022" lon="1.552709">
        <ele>1450.000000</ele>
        <time>2020-08-22T10:41:26Z</time>
      </trkpt>
      <trkpt lat="42.502007" lon="1.552705">
        <ele>1450.000000</ele>
        <time>2020-08-22T10:41:26Z</time>
      </trkpt>
      <trkpt lat="42.502007" lon="1.552705">
        <ele>1450.000000</ele>
        <time>2020-08-22T10:41:26Z</time>
      </trkpt>
      <trkpt lat="42.501995" lon="1.552701">
        <ele>1450.000000</ele>
        <time>2020-08-22T10:41:26Z</time>
      </trkpt>
      <trkpt lat="42.501995" lon="1.552701">
        <ele>1450.000000</ele>
        <time>2020-08-22T10:41:26Z</time>
      </trkpt>
      <trkpt lat="42.501980" lon="1.552696">
        <ele>1450.000000</ele>
        <time>2020-08-22T10:41:26Z</time>
      </trkpt>
      <trkpt lat="42.501980" lon="1.552696">
        <ele>1450.000000</ele>
        <time>2020-08-22T10:41:26Z</time>
      </trkpt>
      <trkpt lat="42.501968" lon="1.552690">
        <ele>1451.000000</ele>
        <time>2020-08-22T10:41:26Z</time>
      </trkpt>
      <trkpt lat="42.501968" lon="1.552690">
        <ele>1451.000000</ele>
        <time>2020-08-22T10:41:26Z</time>
      </trkpt>
      <trkpt lat="42.501953" lon="1.552684">
        <ele>1451.000000</ele>
        <time>2020-08-22T10:41:26Z</time>
      </trkpt>
      <trkpt lat="42.501953" lon="1.552684">
        <ele>1451.000000</ele>
        <time>2020-08-22T10:41:26Z</time>
      </trkpt>
      <trkpt lat="42.501938" lon="1.552677">
        <ele>1452.000000</ele>
        <time>2020-08-22T10:41:26Z</time>
      </trkpt>
      <trkpt lat="42.501938" lon="1.552677">
        <ele>1452.000000</ele>
        <time>2020-08-22T10:41:26Z</time>
      </trkpt>
      <trkpt lat="42.501923" lon="1.552670">
        <ele>1452.000000</ele>
        <time>2020-08-22T10:41:26Z</time>
      </trkpt>
      <trkpt lat="42.501923" lon="1.552670">
        <ele>1452.000000</ele>
        <time>2020-08-22T10:41:26Z</time>
      </trkpt>
      <trkpt lat="42.501884" lon="1.552703">
        <ele>1452.000000</ele>
        <time>2020-08-22T10:41:26Z</time>
      </trkpt>
      <trkpt lat="42.501884" lon="1.552703">
        <ele>1452.000000</ele>
        <time>2020-08-22T10:41:26Z</time>
      </trkpt>
      <trkpt lat="42.501850" lon="1.552738">
        <ele>1452.000000</ele>
        <time>2020-08-22T10:41:26Z</time>
      </trkpt>
      <trkpt lat="42.501850" lon="1.552738">
        <ele>1452.000000</ele>
        <time>2020-08-22T10:41:26Z</time>
      </trkpt>
      <trkpt lat="42.501820" lon="1.552776">
        <ele>1452.000000</ele>
        <time>2020-08-22T10:41:26Z</time>
      </trkpt>
      <trkpt lat="42.501820" lon="1.552776">
        <ele>1453.000000</ele>
        <time>2020-08-22T10:41:26Z</time>
      </trkpt>
      <trkpt lat="42.501785" lon="1.552815">
        <ele>1454.000000</ele>
        <time>2020-08-22T10:41:26Z</time>
      </trkpt>
      <trkpt lat="42.501785" lon="1.552815">
        <ele>1454.000000</ele>
        <time>2020-08-22T10:41:26Z</time>
      </trkpt>
      <trkpt lat="42.501755" lon="1.552856">
        <ele>1455.000000</ele>
        <time>2020-08-22T10:41:26Z</time>
      </trkpt>
      <trkpt lat="42.501755" lon="1.552856">
        <ele>1455.000000</ele>
        <time>2020-08-22T10:41:26Z</time>
      </trkpt>
      <trkpt lat="42.501728" lon="1.552899">
        <ele>1455.000000</ele>
        <time>2020-08-22T10:41:33Z</time>
      </trkpt>
      <trkpt lat="42.501728" lon="1.552899">
        <ele>1455.000000</ele>
        <time>2020-08-22T10:41:33Z</time>
      </trkpt>
      <trkpt lat="42.501701" lon="1.552944">
        <ele>1455.000000</ele>
        <time>2020-08-22T10:41:33Z</time>
      </trkpt>
      <trkpt lat="42.501701" lon="1.552944">
        <ele>1455.000000</ele>
        <time>2020-08-22T10:41:33Z</time>
      </trkpt>
      <trkpt lat="42.501678" lon="1.552990">
        <ele>1455.000000</ele>
        <time>2020-08-22T10:41:33Z</time>
      </trkpt>
      <trkpt lat="42.501678" lon="1.552990">
        <ele>1455.000000</ele>
        <time>2020-08-22T10:41:33Z</time>
      </trkpt>
      <trkpt lat="42.501656" lon="1.553040">
        <ele>1455.000000</ele>
        <time>2020-08-22T10:41:33Z</time>
      </trkpt>
      <trkpt lat="42.501656" lon="1.553040">
        <ele>1456.000000</ele>
        <time>2020-08-22T10:41:33Z</time>
      </trkpt>
      <trkpt lat="42.501636" lon="1.553091">
        <ele>1456.000000</ele>
        <time>2020-08-22T10:41:33Z</time>
      </trkpt>
      <trkpt lat="42.501636" lon="1.553091">
        <ele>1456.000000</ele>
        <time>2020-08-22T10:41:33Z</time>
      </trkpt>
      <trkpt lat="42.501625" lon="1.553112">
        <ele>1456.000000</ele>
        <time>2020-08-22T10:41:33Z</time>
      </trkpt>
      <trkpt lat="42.501625" lon="1.553112">
        <ele>1456.000000</ele>
        <time>2020-08-22T10:41:33Z</time>
      </trkpt>
      <trkpt lat="42.501621" lon="1.553131">
        <ele>1456.000000</ele>
        <time>2020-08-22T10:41:33Z</time>
      </trkpt>
      <trkpt lat="42.501621" lon="1.553131">
        <ele>1456.000000</ele>
        <time>2020-08-22T10:41:33Z</time>
      </trkpt>
      <trkpt lat="42.501614" lon="1.553148">
        <ele>1456.000000</ele>
        <time>2020-08-22T10:41:40Z</time>
      </trkpt>
      <trkpt lat="42.501614" lon="1.553148">
        <ele>1456.000000</ele>
        <time>2020-08-22T10:41:40Z</time>
      </trkpt>
      <trkpt lat="42.501606" lon="1.553164">
        <ele>1457.000000</ele>
        <time>2020-08-22T10:41:40Z</time>
      </trkpt>
      <trkpt lat="42.501606" lon="1.553164">
        <ele>1457.000000</ele>
        <time>2020-08-22T10:41:40Z</time>
      </trkpt>
      <trkpt lat="42.501598" lon="1.553179">
        <ele>1457.000000</ele>
        <time>2020-08-22T10:41:40Z</time>
      </trkpt>
      <trkpt lat="42.501598" lon="1.553179">
        <ele>1457.000000</ele>
        <time>2020-08-22T10:41:40Z</time>
      </trkpt>
      <trkpt lat="42.501587" lon="1.553192">
        <ele>1457.000000</ele>
        <time>2020-08-22T10:41:40Z</time>
      </trkpt>
      <trkpt lat="42.501587" lon="1.553192">
        <ele>1457.000000</ele>
        <time>2020-08-22T10:41:40Z</time>
      </trkpt>
      <trkpt lat="42.501575" lon="1.553202">
        <ele>1457.000000</ele>
        <time>2020-08-22T10:41:40Z</time>
      </trkpt>
      <trkpt lat="42.501575" lon="1.553202">
        <ele>1457.000000</ele>
        <time>2020-08-22T10:41:40Z</time>
      </trkpt>
      <trkpt lat="42.501564" lon="1.553211">
        <ele>1458.000000</ele>
        <time>2020-08-22T10:41:40Z</time>
      </trkpt>
      <trkpt lat="42.501564" lon="1.553211">
        <ele>1458.000000</ele>
        <time>2020-08-22T10:41:40Z</time>
      </trkpt>
      <trkpt lat="42.501549" lon="1.553217">
        <ele>1458.000000</ele>
        <time>2020-08-22T10:41:40Z</time>
      </trkpt>
      <trkpt lat="42.501549" lon="1.553217">
        <ele>1458.000000</ele>
        <time>2020-08-22T10:41:40Z</time>
      </trkpt>
      <trkpt lat="42.501537" lon="1.553219">
        <ele>1458.000000</ele>
        <time>2020-08-22T10:41:40Z</time>
      </trkpt>
      <trkpt lat="42.501537" lon="1.553219">
        <ele>1458.000000</ele>
        <time>2020-08-22T10:41:40Z</time>
      </trkpt>
      <trkpt lat="42.501533" lon="1.553200">
        <ele>1459.000000</ele>
        <time>2020-08-22T10:41:40Z</time>
      </trkpt>
      <trkpt lat="42.501533" lon="1.553200">
        <ele>1459.000000</ele>
        <time>2020-08-22T10:41:40Z</time>
      </trkpt>
      <trkpt lat="42.501533" lon="1.553181">
        <ele>1459.000000</ele>
        <time>2020-08-22T10:41:40Z</time>
      </trkpt>
      <trkpt lat="42.501533" lon="1.553181">
        <ele>1459.000000</ele>
        <time>2020-08-22T10:41:40Z</time>
      </trkpt>
      <trkpt lat="42.501533" lon="1.553163">
        <ele>1460.000000</ele>
        <time>2020-08-22T10:41:40Z</time>
      </trkpt>
      <trkpt lat="42.501533" lon="1.553163">
        <ele>1460.000000</ele>
        <time>2020-08-22T10:41:40Z</time>
      </trkpt>
      <trkpt lat="42.501533" lon="1.553146">
        <ele>1461.000000</ele>
        <time>2020-08-22T10:41:40Z</time>
      </trkpt>
      <trkpt lat="42.501533" lon="1.553146">
        <ele>1461.000000</ele>
        <time>2020-08-22T10:41:40Z</time>
      </trkpt>
      <trkpt lat="42.501537" lon="1.553130">
        <ele>1461.000000</ele>
        <time>2020-08-22T10:41:47Z</time>
      </trkpt>
      <trkpt lat="42.501537" lon="1.553130">
        <ele>1461.000000</ele>
        <time>2020-08-22T10:41:47Z</time>
      </trkpt>
      <trkpt lat="42.501537" lon="1.553115">
        <ele>1462.000000</ele>
        <time>2020-08-22T10:41:47Z</time>
      </trkpt>
      <trkpt lat="42.501537" lon="1.553115">
        <ele>1462.000000</ele>
        <time>2020-08-22T10:41:47Z</time>
      </trkpt>
      <trkpt lat="42.501541" lon="1.553101">
        <ele>1462.000000</ele>
        <time>2020-08-22T10:41:47Z</time>
      </trkpt>
      <trkpt lat="42.501541" lon="1.553101">
        <ele>1462.000000</ele>
        <time>2020-08-22T10:41:47Z</time>
      </trkpt>
      <trkpt lat="42.501545" lon="1.553088">
        <ele>1462.000000</ele>
        <time>2020-08-22T10:41:47Z</time>
      </trkpt>
      <trkpt lat="42.501545" lon="1.553088">
        <ele>1462.000000</ele>
        <time>2020-08-22T10:41:47Z</time>
      </trkpt>
      <trkpt lat="42.501553" lon="1.553075">
        <ele>1462.000000</ele>
        <time>2020-08-22T10:41:47Z</time>
      </trkpt>
      <trkpt lat="42.501553" lon="1.553075">
        <ele>1462.000000</ele>
        <time>2020-08-22T10:41:47Z</time>
      </trkpt>
      <trkpt lat="42.501560" lon="1.553064">
        <ele>1462.000000</ele>
        <time>2020-08-22T10:41:47Z</time>
      </trkpt>
      <trkpt lat="42.501560" lon="1.553064">
        <ele>1463.000000</ele>
        <time>2020-08-22T10:41:47Z</time>
      </trkpt>
      <trkpt lat="42.501549" lon="1.553064">
        <ele>1463.000000</ele>
        <time>2020-08-22T10:41:47Z</time>
      </trkpt>
      <trkpt lat="42.501549" lon="1.553064">
        <ele>1463.000000</ele>
        <time>2020-08-22T10:41:47Z</time>
      </trkpt>
      <trkpt lat="42.501537" lon="1.553062">
        <ele>1463.000000</ele>
        <time>2020-08-22T10:41:47Z</time>
      </trkpt>
      <trkpt lat="42.501537" lon="1.553062">
        <ele>1463.000000</ele>
        <time>2020-08-22T10:41:47Z</time>
      </trkpt>
      <trkpt lat="42.501526" lon="1.553057">
        <ele>1463.000000</ele>
        <time>2020-08-22T10:41:47Z</time>
      </trkpt>
      <trkpt lat="42.501526" lon="1.553057">
        <ele>1463.000000</ele>
        <time>2020-08-22T10:41:47Z</time>
      </trkpt>
      <trkpt lat="42.501511" lon="1.553050">
        <ele>1464.000000</ele>
        <time>2020-08-22T10:41:47Z</time>
      </trkpt>
      <trkpt lat="42.501511" lon="1.553050">
        <ele>1464.000000</ele>
        <time>2020-08-22T10:41:47Z</time>
      </trkpt>
      <trkpt lat="42.501492" lon="1.553041">
        <ele>1464.000000</ele>
        <time>2020-08-22T10:41:47Z</time>
      </trkpt>
      <trkpt lat="42.501492" lon="1.553041">
        <ele>1464.000000</ele>
        <time>2020-08-22T10:41:47Z</time>
      </trkpt>
      <trkpt lat="42.501476" lon="1.553030">
        <ele>1464.000000</ele>
        <time>2020-08-22T10:41:54Z</time>
      </trkpt>
      <trkpt lat="42.501476" lon="1.553030">
        <ele>1464.000000</ele>
        <time>2020-08-22T10:41:54Z</time>
      </trkpt>
      <trkpt lat="42.501457" lon="1.553017">
        <ele>1464.000000</ele>
        <time>2020-08-22T10:41:54Z</time>
      </trkpt>
      <trkpt lat="42.501457" lon="1.553017">
        <ele>1464.000000</ele>
        <time>2020-08-22T10:41:54Z</time>
      </trkpt>
      <trkpt lat="42.501438" lon="1.553002">
        <ele>1464.000000</ele>
        <time>2020-08-22T10:41:54Z</time>
      </trkpt>
      <trkpt lat="42.501438" lon="1.553002">
        <ele>1464.000000</ele>
        <time>2020-08-22T10:41:54Z</time>
      </trkpt>
      <trkpt lat="42.501415" lon="1.552988">
        <ele>1464.000000</ele>
        <time>2020-08-22T10:41:54Z</time>
      </trkpt>
      <trkpt lat="42.501415" lon="1.552988">
        <ele>1465.000000</ele>
        <time>2020-08-22T10:41:54Z</time>
      </trkpt>
      <trkpt lat="42.501392" lon="1.552973">
        <ele>1465.000000</ele>
        <time>2020-08-22T10:41:54Z</time>
      </trkpt>
      <trkpt lat="42.501392" lon="1.552973">
        <ele>1465.000000</ele>
        <time>2020-08-22T10:41:54Z</time>
      </trkpt>
      <trkpt lat="42.501377" lon="1.552967">
        <ele>1465.000000</ele>
        <time>2020-08-22T10:41:54Z</time>
      </trkpt>
      <trkpt lat="42.501377" lon="1.552967">
        <ele>1465.000000</ele>
        <time>2020-08-22T10:41:54Z</time>
      </trkpt>
      <trkpt lat="42.501366" lon="1.552965">
        <ele>1466.000000</ele>
        <time>2020-08-22T10:41:54Z</time>
      </trkpt>
      <trkpt lat="42.501366" lon="1.552965">
        <ele>1466.000000</ele>
        <time>2020-08-22T10:41:54Z</time>
      </trkpt>
      <trkpt lat="42.501354" lon="1.552968">
        <ele>1466.000000</ele>
        <time>2020-08-22T10:41:54Z</time>
      </trkpt>
      <trkpt lat="42.501354" lon="1.552968">
        <ele>1466.000000</ele>
        <time>2020-08-22T10:41:54Z</time>
      </trkpt>
      <trkpt lat="42.501347" lon="1.552975">
        <ele>1466.000000</ele>
        <time>2020-08-22T10:42:01Z</time>
      </trkpt>
      <trkpt lat="42.501347" lon="1.552975">
        <ele>1466.000000</ele>
        <time>2020-08-22T10:42:01Z</time>
      </trkpt>
      <trkpt lat="42.501343" lon="1.552985">
        <ele>1466.000000</ele>
        <time>2020-08-22T10:42:01Z</time>
      </trkpt>
      <trkpt lat="42.501343" lon="1.552985">
        <ele>1466.000000</ele>
        <time>2020-08-22T10:42:01Z</time>
      </trkpt>
      <trkpt lat="42.501335" lon="1.552999">
        <ele>1466.000000</ele>
        <time>2020-08-22T10:42:01Z</time>
      </trkpt>
      <trkpt lat="42.501335" lon="1.552999">
        <ele>1466.000000</ele>
        <time>2020-08-22T10:42:01Z</time>
      </trkpt>
      <trkpt lat="42.501335" lon="1.553016">
        <ele>1466.000000</ele>
        <time>2020-08-22T10:42:01Z</time>
      </trkpt>
      <trkpt lat="42.501335" lon="1.553016">
        <ele>1466.000000</ele>
        <time>2020-08-22T10:42:01Z</time>
      </trkpt>
      <trkpt lat="42.501335" lon="1.553035">
        <ele>1466.000000</ele>
        <time>2020-08-22T10:42:01Z</time>
      </trkpt>
      <trkpt lat="42.501335" lon="1.553035">
        <ele>1466.000000</ele>
        <time>2020-08-22T10:42:01Z</time>
      </trkpt>
      <trkpt lat="42.501343" lon="1.553057">
        <ele>1466.000000</ele>
        <time>2020-08-22T10:42:01Z</time>
      </trkpt>
      <trkpt lat="42.501343" lon="1.553057">
        <ele>1466.000000</ele>
        <time>2020-08-22T10:42:01Z</time>
      </trkpt>
      <trkpt lat="42.501347" lon="1.553081">
        <ele>1466.000000</ele>
        <time>2020-08-22T10:42:01Z</time>
      </trkpt>
      <trkpt lat="42.501347" lon="1.553081">
        <ele>1466.000000</ele>
        <time>2020-08-22T10:42:01Z</time>
      </trkpt>
      <trkpt lat="42.501358" lon="1.553102">
        <ele>1466.000000</ele>
        <time>2020-08-22T10:42:08Z</time>
      </trkpt>
      <trkpt lat="42.501358" lon="1.553102">
        <ele>1466.000000</ele>
        <time>2020-08-22T10:42:08Z</time>
      </trkpt>
      <trkpt lat="42.501369" lon="1.553123">
        <ele>1466.000000</ele>
        <time>2020-08-22T10:42:08Z</time>
      </trkpt>
      <trkpt lat="42.501369" lon="1.553123">
        <ele>1466.000000</ele>
        <time>2020-08-22T10:42:08Z</time>
      </trkpt>
      <trkpt lat="42.501381" lon="1.553144">
        <ele>1466.000000</ele>
        <time>2020-08-22T10:42:08Z</time>
      </trkpt>
      <trkpt lat="42.501381" lon="1.553144">
        <ele>1466.000000</ele>
        <time>2020-08-22T10:42:08Z</time>
      </trkpt>
      <trkpt lat="42.501396" lon="1.553164">
        <ele>1466.000000</ele>
        <time>2020-08-22T10:42:08Z</time>
      </trkpt>
      <trkpt lat="42.501396" lon="1.553164">
        <ele>1466.000000</ele>
        <time>2020-08-22T10:42:08Z</time>
      </trkpt>
      <trkpt lat="42.501404" lon="1.553182">
        <ele>1466.000000</ele>
        <time>2020-08-22T10:42:08Z</time>
      </trkpt>
      <trkpt lat="42.501404" lon="1.553182">
        <ele>1466.000000</ele>
        <time>2020-08-22T10:42:08Z</time>
      </trkpt>
      <trkpt lat="42.501415" lon="1.553200">
        <ele>1466.000000</ele>
        <time>2020-08-22T10:42:08Z</time>
      </trkpt>
      <trkpt lat="42.501415" lon="1.553200">
        <ele>1466.000000</ele>
        <time>2020-08-22T10:42:08Z</time>
      </trkpt>
      <trkpt lat="42.501423" lon="1.553217">
        <ele>1466.000000</ele>
        <time>2020-08-22T10:42:08Z</time>
      </trkpt>
      <trkpt lat="42.501423" lon="1.553217">
        <ele>1466.000000</ele>
        <time>2020-08-22T10:42:08Z</time>
      </trkpt>
      <trkpt lat="42.501434" lon="1.553233">
        <ele>1466.000000</ele>
        <time>2020-08-22T10:42:08Z</time>
      </trkpt>
      <trkpt lat="42.501434" lon="1.553233">
        <ele>1466.000000</ele>
        <time>2020-08-22T10:42:08Z</time>
      </trkpt>
      <trkpt lat="42.501442" lon="1.553249">
        <ele>1466.000000</ele>
        <time>2020-08-22T10:42:08Z</time>
      </trkpt>
      <trkpt lat="42.501442" lon="1.553249">
        <ele>1466.000000</ele>
        <time>2020-08-22T10:42:08Z</time>
      </trkpt>
      <trkpt lat="42.501450" lon="1.553261">
        <ele>1466.000000</ele>
        <time>2020-08-22T10:42:15Z</time>
      </trkpt>
      <trkpt lat="42.501450" lon="1.553261">
        <ele>1466.000000</ele>
        <time>2020-08-22T10:42:15Z</time>
      </trkpt>
      <trkpt lat="42.501457" lon="1.553262">
        <ele>1466.000000</ele>
        <time>2020-08-22T10:42:15Z</time>
      </trkpt>
      <trkpt lat="42.501457" lon="1.553262">
        <ele>1466.000000</ele>
        <time>2020-08-22T10:42:15Z</time>
      </trkpt>
      <trkpt lat="42.501461" lon="1.553261">
        <ele>1466.000000</ele>
        <time>2020-08-22T10:42:15Z</time>
      </trkpt>
      <trkpt lat="42.501461" lon="1.553261">
        <ele>1466.000000</ele>
        <time>2020-08-22T10:42:15Z</time>
      </trkpt>
      <trkpt lat="42.501469" lon="1.553258">
        <ele>1466.000000</ele>
        <time>2020-08-22T10:42:15Z</time>
      </trkpt>
      <trkpt lat="42.501469" lon="1.553258">
        <ele>1469.000000</ele>
        <time>2020-08-22T10:42:15Z</time>
      </trkpt>
      <trkpt lat="42.501476" lon="1.553255">
        <ele>1469.000000</ele>
        <time>2020-08-22T10:42:15Z</time>
      </trkpt>
      <trkpt lat="42.501476" lon="1.553255">
        <ele>1469.000000</ele>
        <time>2020-08-22T10:42:15Z</time>
      </trkpt>
      <trkpt lat="42.501480" lon="1.553252">
        <ele>1469.000000</ele>
        <time>2020-08-22T10:42:15Z</time>
      </trkpt>
      <trkpt lat="42.501480" lon="1.553252">
        <ele>1469.000000</ele>
        <time>2020-08-22T10:42:15Z</time>
      </trkpt>
      <trkpt lat="42.501488" lon="1.553250">
        <ele>1469.000000</ele>
        <time>2020-08-22T10:42:22Z</time>
      </trkpt>
      <trkpt lat="42.501488" lon="1.553250">
        <ele>1470.000000</ele>
        <time>2020-08-22T10:42:22Z</time>
      </trkpt>
      <trkpt lat="42.501495" lon="1.553249">
        <ele>1470.000000</ele>
        <time>2020-08-22T10:42:22Z</time>
      </trkpt>
      <trkpt lat="42.501495" lon="1.553249">
        <ele>1470.000000</ele>
        <time>2020-08-22T10:42:22Z</time>
      </trkpt>
      <trkpt lat="42.501507" lon="1.553250">
        <ele>1470.000000</ele>
        <time>2020-08-22T10:42:22Z</time>
      </trkpt>
      <trkpt lat="42.501507" lon="1.553250">
        <ele>1470.000000</ele>
        <time>2020-08-22T10:42:22Z</time>
      </trkpt>
      <trkpt lat="42.501514" lon="1.553251">
        <ele>1470.000000</ele>
        <time>2020-08-22T10:42:22Z</time>
      </trkpt>
      <trkpt lat="42.501514" lon="1.553251">
        <ele>1470.000000</ele>
        <time>2020-08-22T10:42:22Z</time>
      </trkpt>
      <trkpt lat="42.501530" lon="1.553255">
        <ele>1470.000000</ele>
        <time>2020-08-22T10:42:22Z</time>
      </trkpt>
      <trkpt lat="42.501530" lon="1.553255">
        <ele>1470.000000</ele>
        <time>2020-08-22T10:42:22Z</time>
      </trkpt>
      <trkpt lat="42.501537" lon="1.553285">
        <ele>1471.000000</ele>
        <time>2020-08-22T10:42:22Z</time>
      </trkpt>
      <trkpt lat="42.501537" lon="1.553285">
        <ele>1471.000000</ele>
        <time>2020-08-22T10:42:22Z</time>
      </trkpt>
      <trkpt lat="42.501541" lon="1.553315">
        <ele>1471.000000</ele>
        <time>2020-08-22T10:42:22Z</time>
      </trkpt>
      <trkpt lat="42.501541" lon="1.553315">
        <ele>1471.000000</ele>
        <time>2020-08-22T10:42:22Z</time>
      </trkpt>
      <trkpt lat="42.501545" lon="1.553343">
        <ele>1471.000000</ele>
        <time>2020-08-22T10:42:22Z</time>
      </trkpt>
      <trkpt lat="42.501545" lon="1.553343">
        <ele>1471.000000</ele>
        <time>2020-08-22T10:42:22Z</time>
      </trkpt>
      <trkpt lat="42.501545" lon="1.553370">
        <ele>1474.000000</ele>
        <time>2020-08-22T10:42:29Z</time>
      </trkpt>
      <trkpt lat="42.501545" lon="1.553370">
        <ele>1474.000000</ele>
        <time>2020-08-22T10:42:29Z</time>
      </trkpt>
      <trkpt lat="42.501541" lon="1.553394">
        <ele>1474.000000</ele>
        <time>2020-08-22T10:42:29Z</time>
      </trkpt>
      <trkpt lat="42.501541" lon="1.553394">
        <ele>1474.000000</ele>
        <time>2020-08-22T10:42:29Z</time>
      </trkpt>
      <trkpt lat="42.501537" lon="1.553416">
        <ele>1474.000000</ele>
        <time>2020-08-22T10:42:29Z</time>
      </trkpt>
      <trkpt lat="42.501537" lon="1.553416">
        <ele>1474.000000</ele>
        <time>2020-08-22T10:42:29Z</time>
      </trkpt>
      <trkpt lat="42.501530" lon="1.553434">
        <ele>1474.000000</ele>
        <time>2020-08-22T10:42:29Z</time>
      </trkpt>
      <trkpt lat="42.501530" lon="1.553434">
        <ele>1474.000000</ele>
        <time>2020-08-22T10:42:29Z</time>
      </trkpt>
      <trkpt lat="42.501518" lon="1.553447">
        <ele>1474.000000</ele>
        <time>2020-08-22T10:42:29Z</time>
      </trkpt>
      <trkpt lat="42.501518" lon="1.553447">
        <ele>1474.000000</ele>
        <time>2020-08-22T10:42:29Z</time>
      </trkpt>
      <trkpt lat="42.501503" lon="1.553456">
        <ele>1477.000000</ele>
        <time>2020-08-22T10:42:29Z</time>
      </trkpt>
      <trkpt lat="42.501503" lon="1.553456">
        <ele>1478.000000</ele>
        <time>2020-08-22T10:42:29Z</time>
      </trkpt>
      <trkpt lat="42.501484" lon="1.553460">
        <ele>1478.000000</ele>
        <time>2020-08-22T10:42:29Z</time>
      </trkpt>
      <trkpt lat="42.501484" lon="1.553460">
        <ele>1478.000000</ele>
        <time>2020-08-22T10:42:29Z</time>
      </trkpt>
      <trkpt lat="42.501461" lon="1.553444">
        <ele>1478.000000</ele>
        <time>2020-08-22T10:42:36Z</time>
      </trkpt>
      <trkpt lat="42.501461" lon="1.553444">
        <ele>1478.000000</ele>
        <time>2020-08-22T10:42:36Z</time>
      </trkpt>
      <trkpt lat="42.501438" lon="1.553425">
        <ele>1478.000000</ele>
        <time>2020-08-22T10:42:36Z</time>
      </trkpt>
      <trkpt lat="42.501438" lon="1.553425">
        <ele>1478.000000</ele>
        <time>2020-08-22T10:42:36Z</time>
      </trkpt>
      <trkpt lat="42.501419" lon="1.553405">
        <ele>1478.000000</ele>
        <time>2020-08-22T10:42:36Z</time>
      </trkpt>
      <trkpt lat="42.501419" lon="1.553405">
        <ele>1478.000000</ele>
        <time>2020-08-22T10:42:36Z</time>
      </trkpt>
      <trkpt lat="42.501396" lon="1.553384">
        <ele>1479.000000</ele>
        <time>2020-08-22T10:42:36Z</time>
      </trkpt>
      <trkpt lat="42.501396" lon="1.553384">
        <ele>1479.000000</ele>
        <time>2020-08-22T10:42:36Z</time>
      </trkpt>
      <trkpt lat="42.501373" lon="1.553362">
        <ele>1479.000000</ele>
        <time>2020-08-22T10:42:36Z</time>
      </trkpt>
      <trkpt lat="42.501373" lon="1.553362">
        <ele>1479.000000</ele>
        <time>2020-08-22T10:42:36Z</time>
      </trkpt>
      <trkpt lat="42.501350" lon="1.553339">
        <ele>1479.000000</ele>
        <time>2020-08-22T10:42:36Z</time>
      </trkpt>
      <trkpt lat="42.501350" lon="1.553339">
        <ele>1480.000000</ele>
        <time>2020-08-22T10:42:36Z</time>
      </trkpt>
      <trkpt lat="42.501324" lon="1.553314">
        <ele>1480.000000</ele>
        <time>2020-08-22T10:42:36Z</time>
      </trkpt>
      <trkpt lat="42.501324" lon="1.553314">
        <ele>1480.000000</ele>
        <time>2020-08-22T10:42:36Z</time>
      </trkpt>
      <trkpt lat="42.501301" lon="1.553290">
        <ele>1481.000000</ele>
        <time>2020-08-22T10:42:43Z</time>
      </trkpt>
      <trkpt lat="42.501301" lon="1.553290">
        <ele>1481.000000</ele>
        <time>2020-08-22T10:42:43Z</time>
      </trkpt>
      <trkpt lat="42.501282" lon="1.553266">
        <ele>1481.000000</ele>
        <time>2020-08-22T10:42:43Z</time>
      </trkpt>
      <trkpt lat="42.501282" lon="1.553266">
        <ele>1481.000000</ele>
        <time>2020-08-22T10:42:43Z</time>
      </trkpt>
      <trkpt lat="42.501255" lon="1.553243">
        <ele>1481.000000</ele>
        <time>2020-08-22T10:42:43Z</time>
      </trkpt>
      <trkpt lat="42.501255" lon="1.553243">
        <ele>1482.000000</ele>
        <time>2020-08-22T10:42:43Z</time>
      </trkpt>
      <trkpt lat="42.501225" lon="1.553214">
        <ele>1482.000000</ele>
        <time>2020-08-22T10:42:50Z</time>
      </trkpt>
      <trkpt lat="42.501225" lon="1.553214">
        <ele>1482.000000</ele>
        <time>2020-08-22T10:42:50Z</time>
      </trkpt>
      <trkpt lat="42.501194" lon="1.553191">
        <ele>1482.000000</ele>
        <time>2020-08-22T10:42:50Z</time>
      </trkpt>
      <trkpt lat="42.501194" lon="1.553191">
        <ele>1482.000000</ele>
        <time>2020-08-22T10:42:50Z</time>
      </trkpt>
      <trkpt lat="42.501171" lon="1.553174">
        <ele>1482.000000</ele>
        <time>2020-08-22T10:42:50Z</time>
      </trkpt>
      <trkpt lat="42.501171" lon="1.553174">
        <ele>1483.000000</ele>
        <time>2020-08-22T10:42:50Z</time>
      </trkpt>
      <trkpt lat="42.501148" lon="1.553163">
        <ele>1483.000000</ele>
        <time>2020-08-22T10:42:50Z</time>
      </trkpt>
      <trkpt lat="42.501148" lon="1.553163">
        <ele>1483.000000</ele>
        <time>2020-08-22T10:42:50Z</time>
      </trkpt>
      <trkpt lat="42.501133" lon="1.553159">
        <ele>1483.000000</ele>
        <time>2020-08-22T10:42:50Z</time>
      </trkpt>
      <trkpt lat="42.501133" lon="1.553159">
        <ele>1483.000000</ele>
        <time>2020-08-22T10:42:50Z</time>
      </trkpt>
      <trkpt lat="42.501122" lon="1.553162">
        <ele>1483.000000</ele>
        <time>2020-08-22T10:42:50Z</time>
      </trkpt>
      <trkpt lat="42.501122" lon="1.553162">
        <ele>1483.000000</ele>
        <time>2020-08-22T10:42:50Z</time>
      </trkpt>
      <trkpt lat="42.501110" lon="1.553172">
        <ele>1483.000000</ele>
        <time>2020-08-22T10:42:50Z</time>
      </trkpt>
      <trkpt lat="42.501110" lon="1.553172">
        <ele>1483.000000</ele>
        <time>2020-08-22T10:42:50Z</time>
      </trkpt>
      <trkpt lat="42.501102" lon="1.553188">
        <ele>1484.000000</ele>
        <time>2020-08-22T10:42:57Z</time>
      </trkpt>
      <trkpt lat="42.501102" lon="1.553188">
        <ele>1484.000000</ele>
        <time>2020-08-22T10:42:57Z</time>
      </trkpt>
      <trkpt lat="42.501099" lon="1.553210">
        <ele>1484.000000</ele>
        <time>2020-08-22T10:42:57Z</time>
      </trkpt>
      <trkpt lat="42.501099" lon="1.553210">
        <ele>1484.000000</ele>
        <time>2020-08-22T10:42:57Z</time>
      </trkpt>
      <trkpt lat="42.501095" lon="1.553239">
        <ele>1484.000000</ele>
        <time>2020-08-22T10:42:57Z</time>
      </trkpt>
      <trkpt lat="42.501095" lon="1.553239">
        <ele>1484.000000</ele>
        <time>2020-08-22T10:42:57Z</time>
      </trkpt>
      <trkpt lat="42.501110" lon="1.553278">
        <ele>1484.000000</ele>
        <time>2020-08-22T10:42:57Z</time>
      </trkpt>
      <trkpt lat="42.501110" lon="1.553278">
        <ele>1484.000000</ele>
        <time>2020-08-22T10:42:57Z</time>
      </trkpt>
      <trkpt lat="42.501122" lon="1.553315">
        <ele>1484.000000</ele>
        <time>2020-08-22T10:42:57Z</time>
      </trkpt>
      <trkpt lat="42.501122" lon="1.553315">
        <ele>1484.000000</ele>
        <time>2020-08-22T10:42:57Z</time>
      </trkpt>
      <trkpt lat="42.501129" lon="1.553351">
        <ele>1485.000000</ele>
        <time>2020-08-22T10:42:57Z</time>
      </trkpt>
      <trkpt lat="42.501129" lon="1.553351">
        <ele>1485.000000</ele>
        <time>2020-08-22T10:42:57Z</time>
      </trkpt>
      <trkpt lat="42.501137" lon="1.553383">
        <ele>1485.000000</ele>
        <time>2020-08-22T10:42:57Z</time>
      </trkpt>
      <trkpt lat="42.501137" lon="1.553383">
        <ele>1485.000000</ele>
        <time>2020-08-22T10:42:57Z</time>
      </trkpt>
      <trkpt lat="42.501144" lon="1.553413">
        <ele>1485.000000</ele>
        <time>2020-08-22T10:43:04Z</time>
      </trkpt>
      <trkpt lat="42.501144" lon="1.553413">
        <ele>1486.000000</ele>
        <time>2020-08-22T10:43:04Z</time>
      </trkpt>
      <trkpt lat="42.501148" lon="1.553441">
        <ele>1486.000000</ele>
        <time>2020-08-22T10:43:04Z</time>
      </trkpt>
      <trkpt lat="42.501148" lon="1.553441">
        <ele>1486.000000</ele>
        <time>2020-08-22T10:43:04Z</time>
      </trkpt>
      <trkpt lat="42.501152" lon="1.553466">
        <ele>1486.000000</ele>
        <time>2020-08-22T10:43:04Z</time>
      </trkpt>
      <trkpt lat="42.501152" lon="1.553466">
        <ele>1486.000000</ele>
        <time>2020-08-22T10:43:04Z</time>
      </trkpt>
      <trkpt lat="42.501156" lon="1.553489">
        <ele>1486.000000</ele>
        <time>2020-08-22T10:43:04Z</time>
      </trkpt>
      <trkpt lat="42.501156" lon="1.553489">
        <ele>1486.000000</ele>
        <time>2020-08-22T10:43:04Z</time>
      </trkpt>
      <trkpt lat="42.501152" lon="1.553508">
        <ele>1487.000000</ele>
        <time>2020-08-22T10:43:04Z</time>
      </trkpt>
      <trkpt lat="42.501152" lon="1.553508">
        <ele>1487.000000</ele>
        <time>2020-08-22T10:43:04Z</time>
      </trkpt>
      <trkpt lat="42.501152" lon="1.553525">
        <ele>1487.000000</ele>
        <time>2020-08-22T10:43:04Z</time>
      </trkpt>
      <trkpt lat="42.501152" lon="1.553525">
        <ele>1487.000000</ele>
        <time>2020-08-22T10:43:04Z</time>
      </trkpt>
      <trkpt lat="42.501148" lon="1.553540">
        <ele>1487.000000</ele>
        <time>2020-08-22T10:43:04Z</time>
      </trkpt>
      <trkpt lat="42.501148" lon="1.553540">
        <ele>1487.000000</ele>
        <time>2020-08-22T10:43:04Z</time>
      </trkpt>
      <trkpt lat="42.501141" lon="1.553555">
        <ele>1488.000000</ele>
        <time>2020-08-22T10:43:11Z</time>
      </trkpt>
      <trkpt lat="42.501141" lon="1.553555">
        <ele>1488.000000</ele>
        <time>2020-08-22T10:43:11Z</time>
      </trkpt>
      <trkpt lat="42.501137" lon="1.553568">
        <ele>1488.000000</ele>
        <time>2020-08-22T10:43:11Z</time>
      </trkpt>
      <trkpt lat="42.501137" lon="1.553568">
        <ele>1488.000000</ele>
        <time>2020-08-22T10:43:11Z</time>
      </trkpt>
      <trkpt lat="42.501129" lon="1.553581">
        <ele>1493.000000</ele>
        <time>2020-08-22T10:43:11Z</time>
      </trkpt>
      <trkpt lat="42.501129" lon="1.553581">
        <ele>1493.000000</ele>
        <time>2020-08-22T10:43:11Z</time>
      </trkpt>
      <trkpt lat="42.501125" lon="1.553592">
        <ele>1493.000000</ele>
        <time>2020-08-22T10:43:11Z</time>
      </trkpt>
      <trkpt lat="42.501125" lon="1.553592">
        <ele>1493.000000</ele>
        <time>2020-08-22T10:43:11Z</time>
      </trkpt>
      <trkpt lat="42.501118" lon="1.553603">
        <ele>1493.000000</ele>
        <time>2020-08-22T10:43:11Z</time>
      </trkpt>
      <trkpt lat="42.501118" lon="1.553603">
        <ele>1493.000000</ele>
        <time>2020-08-22T10:43:11Z</time>
      </trkpt>
      <trkpt lat="42.501110" lon="1.553613">
        <ele>1493.000000</ele>
        <time>2020-08-22T10:43:11Z</time>
      </trkpt>
      <trkpt lat="42.501110" lon="1.553613">
        <ele>1493.000000</ele>
        <time>2020-08-22T10:43:11Z</time>
      </trkpt>
      <trkpt lat="42.501102" lon="1.553623">
        <ele>1493.000000</ele>
        <time>2020-08-22T10:43:11Z</time>
      </trkpt>
      <trkpt lat="42.501102" lon="1.553623">
        <ele>1493.000000</ele>
        <time>2020-08-22T10:43:11Z</time>
      </trkpt>
      <trkpt lat="42.501095" lon="1.553635">
        <ele>1494.000000</ele>
        <time>2020-08-22T10:43:18Z</time>
      </trkpt>
      <trkpt lat="42.501095" lon="1.553635">
        <ele>1494.000000</ele>
        <time>2020-08-22T10:43:18Z</time>
      </trkpt>
      <trkpt lat="42.501087" lon="1.553647">
        <ele>1494.000000</ele>
        <time>2020-08-22T10:43:18Z</time>
      </trkpt>
      <trkpt lat="42.501087" lon="1.553647">
        <ele>1494.000000</ele>
        <time>2020-08-22T10:43:18Z</time>
      </trkpt>
      <trkpt lat="42.501068" lon="1.553671">
        <ele>1494.000000</ele>
        <time>2020-08-22T10:43:18Z</time>
      </trkpt>
      <trkpt lat="42.501068" lon="1.553671">
        <ele>1494.000000</ele>
        <time>2020-08-22T10:43:18Z</time>
      </trkpt>
      <trkpt lat="42.501045" lon="1.553694">
        <ele>1494.000000</ele>
        <time>2020-08-22T10:43:18Z</time>
      </trkpt>
      <trkpt lat="42.501045" lon="1.553694">
        <ele>1494.000000</ele>
        <time>2020-08-22T10:43:18Z</time>
      </trkpt>
      <trkpt lat="42.501022" lon="1.553717">
        <ele>1494.000000</ele>
        <time>2020-08-22T10:43:18Z</time>
      </trkpt>
      <trkpt lat="42.501022" lon="1.553717">
        <ele>1494.000000</ele>
        <time>2020-08-22T10:43:18Z</time>
      </trkpt>
      <trkpt lat="42.500996" lon="1.553740">
        <ele>1494.000000</ele>
        <time>2020-08-22T10:43:18Z</time>
      </trkpt>
      <trkpt lat="42.500996" lon="1.553740">
        <ele>1494.000000</ele>
        <time>2020-08-22T10:43:18Z</time>
      </trkpt>
      <trkpt lat="42.500977" lon="1.553763">
        <ele>1494.000000</ele>
        <time>2020-08-22T10:43:18Z</time>
      </trkpt>
      <trkpt lat="42.500977" lon="1.553763">
        <ele>1494.000000</ele>
        <time>2020-08-22T10:43:18Z</time>
      </trkpt>
      <trkpt lat="42.500954" lon="1.553785">
        <ele>1494.000000</ele>
        <time>2020-08-22T10:43:18Z</time>
      </trkpt>
      <trkpt lat="42.500954" lon="1.553785">
        <ele>1494.000000</ele>
        <time>2020-08-22T10:43:18Z</time>
      </trkpt>
      <trkpt lat="42.500931" lon="1.553807">
        <ele>1494.000000</ele>
        <time>2020-08-22T10:43:25Z</time>
      </trkpt>
      <trkpt lat="42.500931" lon="1.553807">
        <ele>1494.000000</ele>
        <time>2020-08-22T10:43:25Z</time>
      </trkpt>
      <trkpt lat="42.500908" lon="1.553827">
        <ele>1494.000000</ele>
        <time>2020-08-22T10:43:25Z</time>
      </trkpt>
      <trkpt lat="42.500908" lon="1.553827">
        <ele>1494.000000</ele>
        <time>2020-08-22T10:43:25Z</time>
      </trkpt>
      <trkpt lat="42.500885" lon="1.553847">
        <ele>1494.000000</ele>
        <time>2020-08-22T10:43:25Z</time>
      </trkpt>
      <trkpt lat="42.500885" lon="1.553847">
        <ele>1494.000000</ele>
        <time>2020-08-22T10:43:25Z</time>
      </trkpt>
      <trkpt lat="42.500862" lon="1.553866">
        <ele>1494.000000</ele>
        <time>2020-08-22T10:43:25Z</time>
      </trkpt>
      <trkpt lat="42.500862" lon="1.553866">
        <ele>1494.000000</ele>
        <time>2020-08-22T10:43:25Z</time>
      </trkpt>
      <trkpt lat="42.500858" lon="1.553874">
        <ele>1494.000000</ele>
        <time>2020-08-22T10:43:25Z</time>
      </trkpt>
      <trkpt lat="42.500858" lon="1.553874">
        <ele>1494.000000</ele>
        <time>2020-08-22T10:43:25Z</time>
      </trkpt>
      <trkpt lat="42.500854" lon="1.553882">
        <ele>1494.000000</ele>
        <time>2020-08-22T10:43:25Z</time>
      </trkpt>
      <trkpt lat="42.500854" lon="1.553882">
        <ele>1494.000000</ele>
        <time>2020-08-22T10:43:25Z</time>
      </trkpt>
      <trkpt lat="42.500851" lon="1.553890">
        <ele>1494.000000</ele>
        <time>2020-08-22T10:43:25Z</time>
      </trkpt>
      <trkpt lat="42.500851" lon="1.553890">
        <ele>1494.000000</ele>
        <time>2020-08-22T10:43:25Z</time>
      </trkpt>
      <trkpt lat="42.500847" lon="1.553899">
        <ele>1494.000000</ele>
        <time>2020-08-22T10:43:32Z</time>
      </trkpt>
      <trkpt lat="42.500847" lon="1.553899">
        <ele>1494.000000</ele>
        <time>2020-08-22T10:43:32Z</time>
      </trkpt>
      <trkpt lat="42.500847" lon="1.553908">
        <ele>1494.000000</ele>
        <time>2020-08-22T10:43:32Z</time>
      </trkpt>
      <trkpt lat="42.500847" lon="1.553908">
        <ele>1494.000000</ele>
        <time>2020-08-22T10:43:32Z</time>
      </trkpt>
      <trkpt lat="42.500847" lon="1.553918">
        <ele>1494.000000</ele>
        <time>2020-08-22T10:43:32Z</time>
      </trkpt>
      <trkpt lat="42.500847" lon="1.553918">
        <ele>1494.000000</ele>
        <time>2020-08-22T10:43:32Z</time>
      </trkpt>
      <trkpt lat="42.500843" lon="1.553929">
        <ele>1494.000000</ele>
        <time>2020-08-22T10:43:32Z</time>
      </trkpt>
      <trkpt lat="42.500843" lon="1.553929">
        <ele>1499.000000</ele>
        <time>2020-08-22T10:43:32Z</time>
      </trkpt>
      <trkpt lat="42.500847" lon="1.553941">
        <ele>1499.000000</ele>
        <time>2020-08-22T10:43:32Z</time>
      </trkpt>
      <trkpt lat="42.500847" lon="1.553941">
        <ele>1499.000000</ele>
        <time>2020-08-22T10:43:32Z</time>
      </trkpt>
      <trkpt lat="42.500847" lon="1.553954">
        <ele>1499.000000</ele>
        <time>2020-08-22T10:43:32Z</time>
      </trkpt>
      <trkpt lat="42.500847" lon="1.553954">
        <ele>1499.000000</ele>
        <time>2020-08-22T10:43:32Z</time>
      </trkpt>
      <trkpt lat="42.500847" lon="1.553968">
        <ele>1499.000000</ele>
        <time>2020-08-22T10:43:32Z</time>
      </trkpt>
      <trkpt lat="42.500847" lon="1.553968">
        <ele>1500.000000</ele>
        <time>2020-08-22T10:43:32Z</time>
      </trkpt>
      <trkpt lat="42.500797" lon="1.554316">
        <ele>1500.000000</ele>
        <time>2020-08-22T10:43:32Z</time>
      </trkpt>
      <trkpt lat="42.500797" lon="1.554316">
        <ele>1500.000000</ele>
        <time>2020-08-22T10:43:32Z</time>
      </trkpt>
      <trkpt lat="42.500801" lon="1.554318">
        <ele>1500.000000</ele>
        <time>2020-08-22T10:43:32Z</time>
      </trkpt>
      <trkpt lat="42.500801" lon="1.554318">
        <ele>1500.000000</ele>
        <time>2020-08-22T10:43:32Z</time>
      </trkpt>
      <trkpt lat="42.500805" lon="1.554320">
        <ele>1500.000000</ele>
        <time>2020-08-22T10:43:39Z</time>
      </trkpt>
      <trkpt lat="42.500805" lon="1.554320">
        <ele>1501.000000</ele>
        <time>2020-08-22T10:43:39Z</time>
      </trkpt>
      <trkpt lat="42.500813" lon="1.554323">
        <ele>1506.000000</ele>
        <time>2020-08-22T10:43:39Z</time>
      </trkpt>
      <trkpt lat="42.500813" lon="1.554323">
        <ele>1506.000000</ele>
        <time>2020-08-22T10:43:39Z</time>
      </trkpt>
      <trkpt lat="42.500820" lon="1.554326">
        <ele>1506.000000</ele>
        <time>2020-08-22T10:43:39Z</time>
      </trkpt>
      <trkpt lat="42.500820" lon="1.554326">
        <ele>1506.000000</ele>
        <time>2020-08-22T10:43:39Z</time>
      </trkpt>
      <trkpt lat="42.500824" lon="1.554329">
        <ele>1507.000000</ele>
        <time>2020-08-22T10:43:39Z</time>
      </trkpt>
      <trkpt lat="42.500824" lon="1.554329">
        <ele>1507.000000</ele>
        <time>2020-08-22T10:43:39Z</time>
      </trkpt>
      <trkpt lat="42.500832" lon="1.554332">
        <ele>1507.000000</ele>
        <time>2020-08-22T10:43:39Z</time>
      </trkpt>
      <trkpt lat="42.500832" lon="1.554332">
        <ele>1507.000000</ele>
        <time>2020-08-22T10:43:39Z</time>
      </trkpt>
      <trkpt lat="42.500839" lon="1.554336">
        <ele>1507.000000</ele>
        <time>2020-08-22T10:43:39Z</time>
      </trkpt>
      <trkpt lat="42.500839" lon="1.554336">
        <ele>1507.000000</ele>
        <time>2020-08-22T10:43:39Z</time>
      </trkpt>
      <trkpt lat="42.500847" lon="1.554339">
        <ele>1508.000000</ele>
        <time>2020-08-22T10:43:39Z</time>
      </trkpt>
      <trkpt lat="42.500847" lon="1.554339">
        <ele>1508.000000</ele>
        <time>2020-08-22T10:43:39Z</time>
      </trkpt>
      <trkpt lat="42.500854" lon="1.554341">
        <ele>1508.000000</ele>
        <time>2020-08-22T10:43:46Z</time>
      </trkpt>
      <trkpt lat="42.500854" lon="1.554341">
        <ele>1508.000000</ele>
        <time>2020-08-22T10:43:46Z</time>
      </trkpt>
      <trkpt lat="42.500862" lon="1.554347">
        <ele>1508.000000</ele>
        <time>2020-08-22T10:43:46Z</time>
      </trkpt>
      <trkpt lat="42.500862" lon="1.554347">
        <ele>1508.000000</ele>
        <time>2020-08-22T10:43:46Z</time>
      </trkpt>
      <trkpt lat="42.500877" lon="1.554353">
        <ele>1508.000000</ele>
        <time>2020-08-22T10:43:46Z</time>
      </trkpt>
      <trkpt lat="42.500877" lon="1.554353">
        <ele>1508.000000</ele>
        <time>2020-08-22T10:43:46Z</time>
      </trkpt>
      <trkpt lat="42.500889" lon="1.554360">
        <ele>1508.000000</ele>
        <time>2020-08-22T10:43:46Z</time>
      </trkpt>
      <trkpt lat="42.500889" lon="1.554360">
        <ele>1508.000000</ele>
        <time>2020-08-22T10:43:46Z</time>
      </trkpt>
      <trkpt lat="42.500900" lon="1.554367">
        <ele>1512.000000</ele>
        <time>2020-08-22T10:43:46Z</time>
      </trkpt>
      <trkpt lat="42.500900" lon="1.554367">
        <ele>1512.000000</ele>
        <time>2020-08-22T10:43:46Z</time>
      </trkpt>
      <trkpt lat="42.500908" lon="1.554374">
        <ele>1512.000000</ele>
        <time>2020-08-22T10:43:53Z</time>
      </trkpt>
      <trkpt lat="42.500908" lon="1.554374">
        <ele>1512.000000</ele>
        <time>2020-08-22T10:43:53Z</time>
      </trkpt>
      <trkpt lat="42.500912" lon="1.554381">
        <ele>1512.000000</ele>
        <time>2020-08-22T10:43:53Z</time>
      </trkpt>
      <trkpt lat="42.500912" lon="1.554381">
        <ele>1512.000000</ele>
        <time>2020-08-22T10:43:53Z</time>
      </trkpt>
      <trkpt lat="42.500916" lon="1.554389">
        <ele>1512.000000</ele>
        <time>2020-08-22T10:43:53Z</time>
      </trkpt>
      <trkpt lat="42.500916" lon="1.554389">
        <ele>1512.000000</ele>
        <time>2020-08-22T10:43:53Z</time>
      </trkpt>
      <trkpt lat="42.500923" lon="1.554397">
        <ele>1512.000000</ele>
        <time>2020-08-22T10:43:53Z</time>
      </trkpt>
      <trkpt lat="42.500923" lon="1.554397">
        <ele>1512.000000</ele>
        <time>2020-08-22T10:43:53Z</time>
      </trkpt>
      <trkpt lat="42.500927" lon="1.554406">
        <ele>1513.000000</ele>
        <time>2020-08-22T10:43:53Z</time>
      </trkpt>
      <trkpt lat="42.500927" lon="1.554406">
        <ele>1513.000000</ele>
        <time>2020-08-22T10:43:53Z</time>
      </trkpt>
      <trkpt lat="42.500927" lon="1.554416">
        <ele>1513.000000</ele>
        <time>2020-08-22T10:43:53Z</time>
      </trkpt>
      <trkpt lat="42.500927" lon="1.554416">
        <ele>1513.000000</ele>
        <time>2020-08-22T10:43:53Z</time>
      </trkpt>
      <trkpt lat="42.500927" lon="1.554426">
        <ele>1513.000000</ele>
        <time>2020-08-22T10:44:00Z</time>
      </trkpt>
      <trkpt lat="42.500927" lon="1.554426">
        <ele>1513.000000</ele>
        <time>2020-08-22T10:44:00Z</time>
      </trkpt>
      <trkpt lat="42.500927" lon="1.554437">
        <ele>1513.000000</ele>
        <time>2020-08-22T10:44:00Z</time>
      </trkpt>
      <trkpt lat="42.500927" lon="1.554437">
        <ele>1514.000000</ele>
        <time>2020-08-22T10:44:00Z</time>
      </trkpt>
      <trkpt lat="42.500927" lon="1.554449">
        <ele>1514.000000</ele>
        <time>2020-08-22T10:44:00Z</time>
      </trkpt>
      <trkpt lat="42.500927" lon="1.554449">
        <ele>1514.000000</ele>
        <time>2020-08-22T10:44:00Z</time>
      </trkpt>
      <trkpt lat="42.500927" lon="1.554461">
        <ele>1515.000000</ele>
        <time>2020-08-22T10:44:00Z</time>
      </trkpt>
      <trkpt lat="42.500927" lon="1.554461">
        <ele>1516.000000</ele>
        <time>2020-08-22T10:44:00Z</time>
      </trkpt>
      <trkpt lat="42.500927" lon="1.554473">
        <ele>1516.000000</ele>
        <time>2020-08-22T10:44:00Z</time>
      </trkpt>
      <trkpt lat="42.500927" lon="1.554473">
        <ele>1516.000000</ele>
        <time>2020-08-22T10:44:00Z</time>
      </trkpt>
      <trkpt lat="42.500923" lon="1.554486">
        <ele>1516.000000</ele>
        <time>2020-08-22T10:44:00Z</time>
      </trkpt>
      <trkpt lat="42.500923" lon="1.554486">
        <ele>1516.000000</ele>
        <time>2020-08-22T10:44:00Z</time>
      </trkpt>
      <trkpt lat="42.500919" lon="1.554497">
        <ele>1516.000000</ele>
        <time>2020-08-22T10:44:00Z</time>
      </trkpt>
      <trkpt lat="42.500919" lon="1.554497">
        <ele>1517.000000</ele>
        <time>2020-08-22T10:44:00Z</time>
      </trkpt>
      <trkpt lat="42.500916" lon="1.554508">
        <ele>1517.000000</ele>
        <time>2020-08-22T10:44:07Z</time>
      </trkpt>
      <trkpt lat="42.500916" lon="1.554508">
        <ele>1517.000000</ele>
        <time>2020-08-22T10:44:07Z</time>
      </trkpt>
      <trkpt lat="42.500912" lon="1.554518">
        <ele>1517.000000</ele>
        <time>2020-08-22T10:44:07Z</time>
      </trkpt>
      <trkpt lat="42.500912" lon="1.554518">
        <ele>1517.000000</ele>
        <time>2020-08-22T10:44:07Z</time>
      </trkpt>
      <trkpt lat="42.500904" lon="1.554525">
        <ele>1518.000000</ele>
        <time>2020-08-22T10:44:07Z</time>
      </trkpt>
      <trkpt lat="42.500904" lon="1.554525">
        <ele>1518.000000</ele>
        <time>2020-08-22T10:44:07Z</time>
      </trkpt>
      <trkpt lat="42.500893" lon="1.554535">
        <ele>1518.000000</ele>
        <time>2020-08-22T10:44:07Z</time>
      </trkpt>
      <trkpt lat="42.500893" lon="1.554535">
        <ele>1518.000000</ele>
        <time>2020-08-22T10:44:07Z</time>
      </trkpt>
      <trkpt lat="42.500881" lon="1.554545">
        <ele>1518.000000</ele>
        <time>2020-08-22T10:44:07Z</time>
      </trkpt>
      <trkpt lat="42.500881" lon="1.554545">
        <ele>1518.000000</ele>
        <time>2020-08-22T10:44:07Z</time>
      </trkpt>
      <trkpt lat="42.500874" lon="1.554555">
        <ele>1518.000000</ele>
        <time>2020-08-22T10:44:07Z</time>
      </trkpt>
      <trkpt lat="42.500874" lon="1.554555">
        <ele>1518.000000</ele>
        <time>2020-08-22T10:44:07Z</time>
      </trkpt>
      <trkpt lat="42.500862" lon="1.554565">
        <ele>1521.000000</ele>
        <time>2020-08-22T10:44:14Z</time>
      </trkpt>
      <trkpt lat="42.500862" lon="1.554565">
        <ele>1521.000000</ele>
        <time>2020-08-22T10:44:14Z</time>
      </trkpt>
      <trkpt lat="42.500854" lon="1.554576">
        <ele>1521.000000</ele>
        <time>2020-08-22T10:44:14Z</time>
      </trkpt>
      <trkpt lat="42.500854" lon="1.554576">
        <ele>1521.000000</ele>
        <time>2020-08-22T10:44:14Z</time>
      </trkpt>
      <trkpt lat="42.500843" lon="1.554586">
        <ele>1521.000000</ele>
        <time>2020-08-22T10:44:14Z</time>
      </trkpt>
      <trkpt lat="42.500843" lon="1.554586">
        <ele>1522.000000</ele>
        <time>2020-08-22T10:44:14Z</time>
      </trkpt>
      <trkpt lat="42.500835" lon="1.554597">
        <ele>1522.000000</ele>
        <time>2020-08-22T10:44:14Z</time>
      </trkpt>
      <trkpt lat="42.500835" lon="1.554597">
        <ele>1522.000000</ele>
        <time>2020-08-22T10:44:14Z</time>
      </trkpt>
      <trkpt lat="42.500824" lon="1.554609">
        <ele>1522.000000</ele>
        <time>2020-08-22T10:44:14Z</time>
      </trkpt>
      <trkpt lat="42.500824" lon="1.554609">
        <ele>1522.000000</ele>
        <time>2020-08-22T10:44:14Z</time>
      </trkpt>
      <trkpt lat="42.500813" lon="1.554622">
        <ele>1523.000000</ele>
        <time>2020-08-22T10:44:14Z</time>
      </trkpt>
      <trkpt lat="42.500813" lon="1.554622">
        <ele>1523.000000</ele>
        <time>2020-08-22T10:44:14Z</time>
      </trkpt>
      <trkpt lat="42.500805" lon="1.554637">
        <ele>1523.000000</ele>
        <time>2020-08-22T10:44:14Z</time>
      </trkpt>
      <trkpt lat="42.500805" lon="1.554637">
        <ele>1523.000000</ele>
        <time>2020-08-22T10:44:14Z</time>
      </trkpt>
      <trkpt lat="42.500797" lon="1.554652">
        <ele>1523.000000</ele>
        <time>2020-08-22T10:44:14Z</time>
      </trkpt>
      <trkpt lat="42.500797" lon="1.554652">
        <ele>1523.000000</ele>
        <time>2020-08-22T10:44:14Z</time>
      </trkpt>
      <trkpt lat="42.500790" lon="1.554666">
        <ele>1523.000000</ele>
        <time>2020-08-22T10:44:21Z</time>
      </trkpt>
      <trkpt lat="42.500790" lon="1.554666">
        <ele>1524.000000</ele>
        <time>2020-08-22T10:44:21Z</time>
      </trkpt>
      <trkpt lat="42.500782" lon="1.554679">
        <ele>1524.000000</ele>
        <time>2020-08-22T10:44:21Z</time>
      </trkpt>
      <trkpt lat="42.500782" lon="1.554679">
        <ele>1524.000000</ele>
        <time>2020-08-22T10:44:21Z</time>
      </trkpt>
      <trkpt lat="42.500774" lon="1.554692">
        <ele>1524.000000</ele>
        <time>2020-08-22T10:44:21Z</time>
      </trkpt>
      <trkpt lat="42.500774" lon="1.554692">
        <ele>1524.000000</ele>
        <time>2020-08-22T10:44:21Z</time>
      </trkpt>
      <trkpt lat="42.500767" lon="1.554703">
        <ele>1524.000000</ele>
        <time>2020-08-22T10:44:21Z</time>
      </trkpt>
      <trkpt lat="42.500767" lon="1.554703">
        <ele>1524.000000</ele>
        <time>2020-08-22T10:44:21Z</time>
      </trkpt>
      <trkpt lat="42.500755" lon="1.554713">
        <ele>1524.000000</ele>
        <time>2020-08-22T10:44:21Z</time>
      </trkpt>
      <trkpt lat="42.500755" lon="1.554713">
        <ele>1525.000000</ele>
        <time>2020-08-22T10:44:21Z</time>
      </trkpt>
      <trkpt lat="42.500748" lon="1.554722">
        <ele>1525.000000</ele>
        <time>2020-08-22T10:44:21Z</time>
      </trkpt>
      <trkpt lat="42.500748" lon="1.554722">
        <ele>1525.000000</ele>
        <time>2020-08-22T10:44:21Z</time>
      </trkpt>
      <trkpt lat="42.500740" lon="1.554731">
        <ele>1525.000000</ele>
        <time>2020-08-22T10:44:21Z</time>
      </trkpt>
      <trkpt lat="42.500740" lon="1.554731">
        <ele>1525.000000</ele>
        <time>2020-08-22T10:44:21Z</time>
      </trkpt>
      <trkpt lat="42.500732" lon="1.554740">
        <ele>1525.000000</ele>
        <time>2020-08-22T10:44:28Z</time>
      </trkpt>
      <trkpt lat="42.500732" lon="1.554740">
        <ele>1526.000000</ele>
        <time>2020-08-22T10:44:28Z</time>
      </trkpt>
      <trkpt lat="42.500721" lon="1.554748">
        <ele>1526.000000</ele>
        <time>2020-08-22T10:44:28Z</time>
      </trkpt>
      <trkpt lat="42.500721" lon="1.554748">
        <ele>1526.000000</ele>
        <time>2020-08-22T10:44:28Z</time>
      </trkpt>
      <trkpt lat="42.500713" lon="1.554764">
        <ele>1526.000000</ele>
        <time>2020-08-22T10:44:35Z</time>
      </trkpt>
      <trkpt lat="42.500713" lon="1.554764">
        <ele>1526.000000</ele>
        <time>2020-08-22T10:44:35Z</time>
      </trkpt>
      <trkpt lat="42.500706" lon="1.554780">
        <ele>1526.000000</ele>
        <time>2020-08-22T10:44:35Z</time>
      </trkpt>
      <trkpt lat="42.500706" lon="1.554780">
        <ele>1526.000000</ele>
        <time>2020-08-22T10:44:35Z</time>
      </trkpt>
      <trkpt lat="42.500698" lon="1.554796">
        <ele>1526.000000</ele>
        <time>2020-08-22T10:44:35Z</time>
      </trkpt>
      <trkpt lat="42.500698" lon="1.554796">
        <ele>1526.000000</ele>
        <time>2020-08-22T10:44:35Z</time>
      </trkpt>
      <trkpt lat="42.500690" lon="1.554813">
        <ele>1527.000000</ele>
        <time>2020-08-22T10:44:35Z</time>
      </trkpt>
      <trkpt lat="42.500690" lon="1.554813">
        <ele>1527.000000</ele>
        <time>2020-08-22T10:44:35Z</time>
      </trkpt>
      <trkpt lat="42.500687" lon="1.554830">
        <ele>1527.000000</ele>
        <time>2020-08-22T10:44:35Z</time>
      </trkpt>
      <trkpt lat="42.500687" lon="1.554830">
        <ele>1527.000000</ele>
        <time>2020-08-22T10:44:35Z</time>
      </trkpt>
      <trkpt lat="42.500679" lon="1.554847">
        <ele>1527.000000</ele>
        <time>2020-08-22T10:44:35Z</time>
      </trkpt>
      <trkpt lat="42.500679" lon="1.554847">
        <ele>1527.000000</ele>
        <time>2020-08-22T10:44:35Z</time>
      </trkpt>
      <trkpt lat="42.500671" lon="1.554865">
        <ele>1527.000000</ele>
        <time>2020-08-22T10:44:42Z</time>
      </trkpt>
      <trkpt lat="42.500671" lon="1.554865">
        <ele>1527.000000</ele>
        <time>2020-08-22T10:44:42Z</time>
      </trkpt>
      <trkpt lat="42.500668" lon="1.554883">
        <ele>1527.000000</ele>
        <time>2020-08-22T10:44:42Z</time>
      </trkpt>
      <trkpt lat="42.500668" lon="1.554883">
        <ele>1527.000000</ele>
        <time>2020-08-22T10:44:42Z</time>
      </trkpt>
      <trkpt lat="42.500660" lon="1.554902">
        <ele>1527.000000</ele>
        <time>2020-08-22T10:44:42Z</time>
      </trkpt>
      <trkpt lat="42.500660" lon="1.554902">
        <ele>1527.000000</ele>
        <time>2020-08-22T10:44:42Z</time>
      </trkpt>
      <trkpt lat="42.500652" lon="1.554920">
        <ele>1527.000000</ele>
        <time>2020-08-22T10:44:42Z</time>
      </trkpt>
      <trkpt lat="42.500652" lon="1.554920">
        <ele>1527.000000</ele>
        <time>2020-08-22T10:44:42Z</time>
      </trkpt>
      <trkpt lat="42.500645" lon="1.554927">
        <ele>1527.000000</ele>
        <time>2020-08-22T10:44:42Z</time>
      </trkpt>
      <trkpt lat="42.500645" lon="1.554927">
        <ele>1527.000000</ele>
        <time>2020-08-22T10:44:42Z</time>
      </trkpt>
      <trkpt lat="42.500637" lon="1.554935">
        <ele>1527.000000</ele>
        <time>2020-08-22T10:44:42Z</time>
      </trkpt>
      <trkpt lat="42.500637" lon="1.554935">
        <ele>1527.000000</ele>
        <time>2020-08-22T10:44:42Z</time>
      </trkpt>
      <trkpt lat="42.500629" lon="1.554942">
        <ele>1527.000000</ele>
        <time>2020-08-22T10:44:42Z</time>
      </trkpt>
      <trkpt lat="42.500629" lon="1.554942">
        <ele>1527.000000</ele>
        <time>2020-08-22T10:44:42Z</time>
      </trkpt>
      <trkpt lat="42.500622" lon="1.554948">
        <ele>1527.000000</ele>
        <time>2020-08-22T10:44:49Z</time>
      </trkpt>
      <trkpt lat="42.500622" lon="1.554948">
        <ele>1527.000000</ele>
        <time>2020-08-22T10:44:49Z</time>
      </trkpt>
      <trkpt lat="42.500610" lon="1.554955">
        <ele>1527.000000</ele>
        <time>2020-08-22T10:44:49Z</time>
      </trkpt>
      <trkpt lat="42.500610" lon="1.554955">
        <ele>1527.000000</ele>
        <time>2020-08-22T10:44:49Z</time>
      </trkpt>
      <trkpt lat="42.500599" lon="1.554963">
        <ele>1527.000000</ele>
        <time>2020-08-22T10:44:49Z</time>
      </trkpt>
      <trkpt lat="42.500599" lon="1.554963">
        <ele>1527.000000</ele>
        <time>2020-08-22T10:44:49Z</time>
      </trkpt>
      <trkpt lat="42.500587" lon="1.554970">
        <ele>1527.000000</ele>
        <time>2020-08-22T10:44:49Z</time>
      </trkpt>
      <trkpt lat="42.500587" lon="1.554970">
        <ele>1527.000000</ele>
        <time>2020-08-22T10:44:49Z</time>
      </trkpt>
      <trkpt lat="42.500576" lon="1.554976">
        <ele>1527.000000</ele>
        <time>2020-08-22T10:44:49Z</time>
      </trkpt>
      <trkpt lat="42.500576" lon="1.554976">
        <ele>1527.000000</ele>
        <time>2020-08-22T10:44:49Z</time>
      </trkpt>
      <trkpt lat="42.500561" lon="1.554982">
        <ele>1534.000000</ele>
        <time>2020-08-22T10:44:49Z</time>
      </trkpt>
      <trkpt lat="42.500561" lon="1.554982">
        <ele>1534.000000</ele>
        <time>2020-08-22T10:44:49Z</time>
      </trkpt>
      <trkpt lat="42.500553" lon="1.554987">
        <ele>1534.000000</ele>
        <time>2020-08-22T10:44:49Z</time>
      </trkpt>
      <trkpt lat="42.500553" lon="1.554987">
        <ele>1535.000000</ele>
        <time>2020-08-22T10:44:49Z</time>
      </trkpt>
      <trkpt lat="42.500542" lon="1.554991">
        <ele>1535.000000</ele>
        <time>2020-08-22T10:44:56Z</time>
      </trkpt>
      <trkpt lat="42.500542" lon="1.554991">
        <ele>1535.000000</ele>
        <time>2020-08-22T10:44:56Z</time>
      </trkpt>
      <trkpt lat="42.500530" lon="1.554996">
        <ele>1535.000000</ele>
        <time>2020-08-22T10:44:56Z</time>
      </trkpt>
      <trkpt lat="42.500530" lon="1.554996">
        <ele>1535.000000</ele>
        <time>2020-08-22T10:44:56Z</time>
      </trkpt>
      <trkpt lat="42.500519" lon="1.555000">
        <ele>1535.000000</ele>
        <time>2020-08-22T10:44:56Z</time>
      </trkpt>
      <trkpt lat="42.500519" lon="1.555000">
        <ele>1536.000000</ele>
        <time>2020-08-22T10:44:56Z</time>
      </trkpt>
      <trkpt lat="42.500511" lon="1.555004">
        <ele>1536.000000</ele>
        <time>2020-08-22T10:44:56Z</time>
      </trkpt>
      <trkpt lat="42.500511" lon="1.555004">
        <ele>1536.000000</ele>
        <time>2020-08-22T10:44:56Z</time>
      </trkpt>
      <trkpt lat="42.500504" lon="1.555009">
        <ele>1536.000000</ele>
        <time>2020-08-22T10:44:56Z</time>
      </trkpt>
      <trkpt lat="42.500504" lon="1.555009">
        <ele>1537.000000</ele>
        <time>2020-08-22T10:44:56Z</time>
      </trkpt>
      <trkpt lat="42.500496" lon="1.555014">
        <ele>1537.000000</ele>
        <time>2020-08-22T10:44:56Z</time>
      </trkpt>
      <trkpt lat="42.500496" lon="1.555014">
        <ele>1537.000000</ele>
        <time>2020-08-22T10:44:56Z</time>
      </trkpt>
      <trkpt lat="42.500492" lon="1.555018">
        <ele>1537.000000</ele>
        <time>2020-08-22T10:44:56Z</time>
      </trkpt>
      <trkpt lat="42.500492" lon="1.555018">
        <ele>1537.000000</ele>
        <time>2020-08-22T10:44:56Z</time>
      </trkpt>
      <trkpt lat="42.500488" lon="1.555024">
        <ele>1537.000000</ele>
        <time>2020-08-22T10:45:07Z</time>
      </trkpt>
      <trkpt lat="42.500488" lon="1.555024">
        <ele>1537.000000</ele>
        <time>2020-08-22T10:45:07Z</time>
      </trkpt>
      <trkpt lat="42.500484" lon="1.555029">
        <ele>1538.000000</ele>
        <time>2020-08-22T10:45:07Z</time>
      </trkpt>
      <trkpt lat="42.500484" lon="1.555029">
        <ele>1538.000000</ele>
        <time>2020-08-22T10:45:07Z</time>
      </trkpt>
      <trkpt lat="42.500484" lon="1.555035">
        <ele>1538.000000</ele>
        <time>2020-08-22T10:45:07Z</time>
      </trkpt>
      <trkpt lat="42.500484" lon="1.555035">
        <ele>1538.000000</ele>
        <time>2020-08-22T10:45:07Z</time>
      </trkpt>
      <trkpt lat="42.500484" lon="1.555047">
        <ele>1538.000000</ele>
        <time>2020-08-22T10:45:14Z</time>
      </trkpt>
      <trkpt lat="42.500484" lon="1.555047">
        <ele>1539.000000</ele>
        <time>2020-08-22T10:45:14Z</time>
      </trkpt>
      <trkpt lat="42.500492" lon="1.555060">
        <ele>1539.000000</ele>
        <time>2020-08-22T10:45:14Z</time>
      </trkpt>
      <trkpt lat="42.500492" lon="1.555060">
        <ele>1539.000000</ele>
        <time>2020-08-22T10:45:14Z</time>
      </trkpt>
      <trkpt lat="42.500496" lon="1.555072">
        <ele>1539.000000</ele>
        <time>2020-08-22T10:45:14Z</time>
      </trkpt>
      <trkpt lat="42.500496" lon="1.555072">
        <ele>1539.000000</ele>
        <time>2020-08-22T10:45:14Z</time>
      </trkpt>
      <trkpt lat="42.500500" lon="1.555084">
        <ele>1539.000000</ele>
        <time>2020-08-22T10:45:14Z</time>
      </trkpt>
      <trkpt lat="42.500500" lon="1.555084">
        <ele>1539.000000</ele>
        <time>2020-08-22T10:45:14Z</time>
      </trkpt>
      <trkpt lat="42.500507" lon="1.555095">
        <ele>1540.000000</ele>
        <time>2020-08-22T10:45:14Z</time>
      </trkpt>
      <trkpt lat="42.500507" lon="1.555095">
        <ele>1540.000000</ele>
        <time>2020-08-22T10:45:14Z</time>
      </trkpt>
      <trkpt lat="42.500511" lon="1.555106">
        <ele>1540.000000</ele>
        <time>2020-08-22T10:45:14Z</time>
      </trkpt>
      <trkpt lat="42.500511" lon="1.555106">
        <ele>1540.000000</ele>
        <time>2020-08-22T10:45:14Z</time>
      </trkpt>
      <trkpt lat="42.500519" lon="1.555117">
        <ele>1541.000000</ele>
        <time>2020-08-22T10:45:14Z</time>
      </trkpt>
      <trkpt lat="42.500519" lon="1.555117">
        <ele>1541.000000</ele>
        <time>2020-08-22T10:45:14Z</time>
      </trkpt>
      <trkpt lat="42.500526" lon="1.555127">
        <ele>1541.000000</ele>
        <time>2020-08-22T10:45:21Z</time>
      </trkpt>
      <trkpt lat="42.500526" lon="1.555127">
        <ele>1541.000000</ele>
        <time>2020-08-22T10:45:21Z</time>
      </trkpt>
      <trkpt lat="42.500530" lon="1.555138">
        <ele>1542.000000</ele>
        <time>2020-08-22T10:45:21Z</time>
      </trkpt>
      <trkpt lat="42.500530" lon="1.555138">
        <ele>1542.000000</ele>
        <time>2020-08-22T10:45:21Z</time>
      </trkpt>
      <trkpt lat="42.500538" lon="1.555151">
        <ele>1542.000000</ele>
        <time>2020-08-22T10:45:21Z</time>
      </trkpt>
      <trkpt lat="42.500538" lon="1.555151">
        <ele>1542.000000</ele>
        <time>2020-08-22T10:45:21Z</time>
      </trkpt>
      <trkpt lat="42.500542" lon="1.555158">
        <ele>1542.000000</ele>
        <time>2020-08-22T10:45:21Z</time>
      </trkpt>
      <trkpt lat="42.500542" lon="1.555158">
        <ele>1542.000000</ele>
        <time>2020-08-22T10:45:21Z</time>
      </trkpt>
      <trkpt lat="42.500545" lon="1.555166">
        <ele>1542.000000</ele>
        <time>2020-08-22T10:45:21Z</time>
      </trkpt>
      <trkpt lat="42.500545" lon="1.555166">
        <ele>1542.000000</ele>
        <time>2020-08-22T10:45:21Z</time>
      </trkpt>
      <trkpt lat="42.500553" lon="1.555174">
        <ele>1543.000000</ele>
        <time>2020-08-22T10:45:21Z</time>
      </trkpt>
      <trkpt lat="42.500553" lon="1.555174">
        <ele>1543.000000</ele>
        <time>2020-08-22T10:45:21Z</time>
      </trkpt>
      <trkpt lat="42.500553" lon="1.555183">
        <ele>1543.000000</ele>
        <time>2020-08-22T10:45:21Z</time>
      </trkpt>
      <trkpt lat="42.500553" lon="1.555183">
        <ele>1543.000000</ele>
        <time>2020-08-22T10:45:21Z</time>
      </trkpt>
      <trkpt lat="42.500561" lon="1.555193">
        <ele>1543.000000</ele>
        <time>2020-08-22T10:45:28Z</time>
      </trkpt>
      <trkpt lat="42.500561" lon="1.555193">
        <ele>1543.000000</ele>
        <time>2020-08-22T10:45:28Z</time>
      </trkpt>
      <trkpt lat="42.500561" lon="1.555204">
        <ele>1543.000000</ele>
        <time>2020-08-22T10:45:28Z</time>
      </trkpt>
      <trkpt lat="42.500561" lon="1.555204">
        <ele>1543.000000</ele>
        <time>2020-08-22T10:45:28Z</time>
      </trkpt>
      <trkpt lat="42.500568" lon="1.555218">
        <ele>1543.000000</ele>
        <time>2020-08-22T10:45:28Z</time>
      </trkpt>
      <trkpt lat="42.500568" lon="1.555218">
        <ele>1543.000000</ele>
        <time>2020-08-22T10:45:28Z</time>
      </trkpt>
      <trkpt lat="42.500572" lon="1.555232">
        <ele>1543.000000</ele>
        <time>2020-08-22T10:45:28Z</time>
      </trkpt>
      <trkpt lat="42.500572" lon="1.555232">
        <ele>1543.000000</ele>
        <time>2020-08-22T10:45:28Z</time>
      </trkpt>
      <trkpt lat="42.500576" lon="1.555247">
        <ele>1543.000000</ele>
        <time>2020-08-22T10:45:28Z</time>
      </trkpt>
      <trkpt lat="42.500576" lon="1.555247">
        <ele>1543.000000</ele>
        <time>2020-08-22T10:45:28Z</time>
      </trkpt>
      <trkpt lat="42.500580" lon="1.555262">
        <ele>1543.000000</ele>
        <time>2020-08-22T10:45:28Z</time>
      </trkpt>
      <trkpt lat="42.500580" lon="1.555262">
        <ele>1543.000000</ele>
        <time>2020-08-22T10:45:28Z</time>
      </trkpt>
      <trkpt lat="42.500580" lon="1.555269">
        <ele>1543.000000</ele>
        <time>2020-08-22T10:45:28Z</time>
      </trkpt>
      <trkpt lat="42.500580" lon="1.555269">
        <ele>1544.000000</ele>
        <time>2020-08-22T10:45:28Z</time>
      </trkpt>
      <trkpt lat="42.500576" lon="1.555274">
        <ele>1544.000000</ele>
        <time>2020-08-22T10:45:35Z</time>
      </trkpt>
      <trkpt lat="42.500576" lon="1.555274">
        <ele>1544.000000</ele>
        <time>2020-08-22T10:45:35Z</time>
      </trkpt>
      <trkpt lat="42.500576" lon="1.555280">
        <ele>1544.000000</ele>
        <time>2020-08-22T10:45:35Z</time>
      </trkpt>
      <trkpt lat="42.500576" lon="1.555280">
        <ele>1544.000000</ele>
        <time>2020-08-22T10:45:35Z</time>
      </trkpt>
      <trkpt lat="42.500572" lon="1.555287">
        <ele>1544.000000</ele>
        <time>2020-08-22T10:45:35Z</time>
      </trkpt>
      <trkpt lat="42.500572" lon="1.555287">
        <ele>1544.000000</ele>
        <time>2020-08-22T10:45:35Z</time>
      </trkpt>
      <trkpt lat="42.500568" lon="1.555295">
        <ele>1544.000000</ele>
        <time>2020-08-22T10:45:35Z</time>
      </trkpt>
      <trkpt lat="42.500568" lon="1.555295">
        <ele>1544.000000</ele>
        <time>2020-08-22T10:45:35Z</time>
      </trkpt>
      <trkpt lat="42.500561" lon="1.555302">
        <ele>1544.000000</ele>
        <time>2020-08-22T10:45:35Z</time>
      </trkpt>
      <trkpt lat="42.500561" lon="1.555302">
        <ele>1544.000000</ele>
        <time>2020-08-22T10:45:35Z</time>
      </trkpt>
      <trkpt lat="42.500557" lon="1.555308">
        <ele>1544.000000</ele>
        <time>2020-08-22T10:45:35Z</time>
      </trkpt>
      <trkpt lat="42.500557" lon="1.555308">
        <ele>1544.000000</ele>
        <time>2020-08-22T10:45:35Z</time>
      </trkpt>
      <trkpt lat="42.500553" lon="1.555313">
        <ele>1544.000000</ele>
        <time>2020-08-22T10:45:35Z</time>
      </trkpt>
      <trkpt lat="42.500553" lon="1.555313">
        <ele>1544.000000</ele>
        <time>2020-08-22T10:45:35Z</time>
      </trkpt>
      <trkpt lat="42.500545" lon="1.555318">
        <ele>1544.000000</ele>
        <time>2020-08-22T10:45:42Z</time>
      </trkpt>
      <trkpt lat="42.500545" lon="1.555318">
        <ele>1544.000000</ele>
        <time>2020-08-22T10:45:42Z</time>
      </trkpt>
      <trkpt lat="42.500538" lon="1.555323">
        <ele>1544.000000</ele>
        <time>2020-08-22T10:45:42Z</time>
      </trkpt>
      <trkpt lat="42.500538" lon="1.555323">
        <ele>1544.000000</ele>
        <time>2020-08-22T10:45:42Z</time>
      </trkpt>
      <trkpt lat="42.500526" lon="1.555342">
        <ele>1544.000000</ele>
        <time>2020-08-22T10:45:42Z</time>
      </trkpt>
      <trkpt lat="42.500526" lon="1.555342">
        <ele>1544.000000</ele>
        <time>2020-08-22T10:45:42Z</time>
      </trkpt>
      <trkpt lat="42.500519" lon="1.555360">
        <ele>1544.000000</ele>
        <time>2020-08-22T10:45:42Z</time>
      </trkpt>
      <trkpt lat="42.500519" lon="1.555360">
        <ele>1544.000000</ele>
        <time>2020-08-22T10:45:42Z</time>
      </trkpt>
      <trkpt lat="42.500511" lon="1.555377">
        <ele>1544.000000</ele>
        <time>2020-08-22T10:45:42Z</time>
      </trkpt>
      <trkpt lat="42.500511" lon="1.555377">
        <ele>1544.000000</ele>
        <time>2020-08-22T10:45:42Z</time>
      </trkpt>
      <trkpt lat="42.500500" lon="1.555391">
        <ele>1544.000000</ele>
        <time>2020-08-22T10:45:42Z</time>
      </trkpt>
      <trkpt lat="42.500500" lon="1.555391">
        <ele>1544.000000</ele>
        <time>2020-08-22T10:45:42Z</time>
      </trkpt>
      <trkpt lat="42.500492" lon="1.555403">
        <ele>1544.000000</ele>
        <time>2020-08-22T10:45:49Z</time>
      </trkpt>
      <trkpt lat="42.500492" lon="1.555403">
        <ele>1544.000000</ele>
        <time>2020-08-22T10:45:49Z</time>
      </trkpt>
      <trkpt lat="42.500484" lon="1.555413">
        <ele>1544.000000</ele>
        <time>2020-08-22T10:45:49Z</time>
      </trkpt>
      <trkpt lat="42.500484" lon="1.555413">
        <ele>1544.000000</ele>
        <time>2020-08-22T10:45:49Z</time>
      </trkpt>
      <trkpt lat="42.500473" lon="1.555422">
        <ele>1544.000000</ele>
        <time>2020-08-22T10:45:49Z</time>
      </trkpt>
      <trkpt lat="42.500473" lon="1.555422">
        <ele>1544.000000</ele>
        <time>2020-08-22T10:45:49Z</time>
      </trkpt>
      <trkpt lat="42.500465" lon="1.555429">
        <ele>1544.000000</ele>
        <time>2020-08-22T10:45:49Z</time>
      </trkpt>
      <trkpt lat="42.500465" lon="1.555429">
        <ele>1544.000000</ele>
        <time>2020-08-22T10:45:49Z</time>
      </trkpt>
      <trkpt lat="42.500454" lon="1.555435">
        <ele>1544.000000</ele>
        <time>2020-08-22T10:45:49Z</time>
      </trkpt>
      <trkpt lat="42.500454" lon="1.555435">
        <ele>1544.000000</ele>
        <time>2020-08-22T10:45:49Z</time>
      </trkpt>
      <trkpt lat="42.500439" lon="1.555438">
        <ele>1544.000000</ele>
        <time>2020-08-22T10:45:49Z</time>
      </trkpt>
      <trkpt lat="42.500439" lon="1.555438">
        <ele>1544.000000</ele>
        <time>2020-08-22T10:45:49Z</time>
      </trkpt>
      <trkpt lat="42.500427" lon="1.555439">
        <ele>1544.000000</ele>
        <time>2020-08-22T10:45:49Z</time>
      </trkpt>
      <trkpt lat="42.500427" lon="1.555439">
        <ele>1544.000000</ele>
        <time>2020-08-22T10:45:49Z</time>
      </trkpt>
      <trkpt lat="42.500412" lon="1.555441">
        <ele>1544.000000</ele>
        <time>2020-08-22T10:45:49Z</time>
      </trkpt>
      <trkpt lat="42.500412" lon="1.555441">
        <ele>1544.000000</ele>
        <time>2020-08-22T10:45:49Z</time>
      </trkpt>
      <trkpt lat="42.500401" lon="1.555446">
        <ele>1544.000000</ele>
        <time>2020-08-22T10:45:49Z</time>
      </trkpt>
      <trkpt lat="42.500401" lon="1.555446">
        <ele>1544.000000</ele>
        <time>2020-08-22T10:45:49Z</time>
      </trkpt>
      <trkpt lat="42.500385" lon="1.555453">
        <ele>1544.000000</ele>
        <time>2020-08-22T10:45:56Z</time>
      </trkpt>
      <trkpt lat="42.500385" lon="1.555453">
        <ele>1544.000000</ele>
        <time>2020-08-22T10:45:56Z</time>
      </trkpt>
      <trkpt lat="42.500374" lon="1.555461">
        <ele>1544.000000</ele>
        <time>2020-08-22T10:45:56Z</time>
      </trkpt>
      <trkpt lat="42.500374" lon="1.555461">
        <ele>1544.000000</ele>
        <time>2020-08-22T10:45:56Z</time>
      </trkpt>
      <trkpt lat="42.500359" lon="1.555469">
        <ele>1544.000000</ele>
        <time>2020-08-22T10:45:56Z</time>
      </trkpt>
      <trkpt lat="42.500359" lon="1.555469">
        <ele>1544.000000</ele>
        <time>2020-08-22T10:45:56Z</time>
      </trkpt>
      <trkpt lat="42.500351" lon="1.555480">
        <ele>1544.000000</ele>
        <time>2020-08-22T10:45:56Z</time>
      </trkpt>
      <trkpt lat="42.500351" lon="1.555480">
        <ele>1544.000000</ele>
        <time>2020-08-22T10:45:56Z</time>
      </trkpt>
      <trkpt lat="42.500336" lon="1.555491">
        <ele>1544.000000</ele>
        <time>2020-08-22T10:46:03Z</time>
      </trkpt>
      <trkpt lat="42.500336" lon="1.555491">
        <ele>1549.000000</ele>
        <time>2020-08-22T10:46:03Z</time>
      </trkpt>
      <trkpt lat="42.500324" lon="1.555504">
        <ele>1549.000000</ele>
        <time>2020-08-22T10:46:03Z</time>
      </trkpt>
      <trkpt lat="42.500324" lon="1.555504">
        <ele>1549.000000</ele>
        <time>2020-08-22T10:46:03Z</time>
      </trkpt>
      <trkpt lat="42.500313" lon="1.555519">
        <ele>1549.000000</ele>
        <time>2020-08-22T10:46:03Z</time>
      </trkpt>
      <trkpt lat="42.500313" lon="1.555519">
        <ele>1549.000000</ele>
        <time>2020-08-22T10:46:03Z</time>
      </trkpt>
      <trkpt lat="42.500313" lon="1.555531">
        <ele>1549.000000</ele>
        <time>2020-08-22T10:46:03Z</time>
      </trkpt>
      <trkpt lat="42.500313" lon="1.555531">
        <ele>1549.000000</ele>
        <time>2020-08-22T10:46:03Z</time>
      </trkpt>
      <trkpt lat="42.500313" lon="1.555542">
        <ele>1549.000000</ele>
        <time>2020-08-22T10:46:10Z</time>
      </trkpt>
      <trkpt lat="42.500313" lon="1.555542">
        <ele>1549.000000</ele>
        <time>2020-08-22T10:46:10Z</time>
      </trkpt>
      <trkpt lat="42.500309" lon="1.555552">
        <ele>1549.000000</ele>
        <time>2020-08-22T10:46:10Z</time>
      </trkpt>
      <trkpt lat="42.500309" lon="1.555552">
        <ele>1549.000000</ele>
        <time>2020-08-22T10:46:10Z</time>
      </trkpt>
      <trkpt lat="42.500305" lon="1.555561">
        <ele>1550.000000</ele>
        <time>2020-08-22T10:46:10Z</time>
      </trkpt>
      <trkpt lat="42.500305" lon="1.555561">
        <ele>1550.000000</ele>
        <time>2020-08-22T10:46:10Z</time>
      </trkpt>
      <trkpt lat="42.500305" lon="1.555569">
        <ele>1550.000000</ele>
        <time>2020-08-22T10:46:10Z</time>
      </trkpt>
      <trkpt lat="42.500305" lon="1.555569">
        <ele>1550.000000</ele>
        <time>2020-08-22T10:46:10Z</time>
      </trkpt>
      <trkpt lat="42.500301" lon="1.555577">
        <ele>1550.000000</ele>
        <time>2020-08-22T10:46:10Z</time>
      </trkpt>
      <trkpt lat="42.500301" lon="1.555577">
        <ele>1550.000000</ele>
        <time>2020-08-22T10:46:10Z</time>
      </trkpt>
      <trkpt lat="42.500298" lon="1.555585">
        <ele>1550.000000</ele>
        <time>2020-08-22T10:46:10Z</time>
      </trkpt>
      <trkpt lat="42.500298" lon="1.555585">
        <ele>1551.000000</ele>
        <time>2020-08-22T10:46:10Z</time>
      </trkpt>
      <trkpt lat="42.500294" lon="1.555591">
        <ele>1551.000000</ele>
        <time>2020-08-22T10:46:10Z</time>
      </trkpt>
      <trkpt lat="42.500294" lon="1.555591">
        <ele>1551.000000</ele>
        <time>2020-08-22T10:46:10Z</time>
      </trkpt>
      <trkpt lat="42.500286" lon="1.555597">
        <ele>1551.000000</ele>
        <time>2020-08-22T10:46:17Z</time>
      </trkpt>
      <trkpt lat="42.500286" lon="1.555597">
        <ele>1552.000000</ele>
        <time>2020-08-22T10:46:17Z</time>
      </trkpt>
      <trkpt lat="42.500282" lon="1.555602">
        <ele>1552.000000</ele>
        <time>2020-08-22T10:46:17Z</time>
      </trkpt>
      <trkpt lat="42.500282" lon="1.555602">
        <ele>1552.000000</ele>
        <time>2020-08-22T10:46:17Z</time>
      </trkpt>
      <trkpt lat="42.500271" lon="1.555617">
        <ele>1552.000000</ele>
        <time>2020-08-22T10:46:17Z</time>
      </trkpt>
      <trkpt lat="42.500271" lon="1.555617">
        <ele>1552.000000</ele>
        <time>2020-08-22T10:46:17Z</time>
      </trkpt>
      <trkpt lat="42.500263" lon="1.555629">
        <ele>1552.000000</ele>
        <time>2020-08-22T10:46:17Z</time>
      </trkpt>
      <trkpt lat="42.500263" lon="1.555629">
        <ele>1552.000000</ele>
        <time>2020-08-22T10:46:17Z</time>
      </trkpt>
      <trkpt lat="42.500252" lon="1.555640">
        <ele>1552.000000</ele>
        <time>2020-08-22T10:46:17Z</time>
      </trkpt>
      <trkpt lat="42.500252" lon="1.555640">
        <ele>1552.000000</ele>
        <time>2020-08-22T10:46:17Z</time>
      </trkpt>
      <trkpt lat="42.500244" lon="1.555648">
        <ele>1552.000000</ele>
        <time>2020-08-22T10:46:17Z</time>
      </trkpt>
      <trkpt lat="42.500244" lon="1.555648">
        <ele>1552.000000</ele>
        <time>2020-08-22T10:46:17Z</time>
      </trkpt>
      <trkpt lat="42.500233" lon="1.555655">
        <ele>1552.000000</ele>
        <time>2020-08-22T10:46:24Z</time>
      </trkpt>
      <trkpt lat="42.500233" lon="1.555655">
        <ele>1552.000000</ele>
        <time>2020-08-22T10:46:24Z</time>
      </trkpt>
      <trkpt lat="42.500217" lon="1.555661">
        <ele>1552.000000</ele>
        <time>2020-08-22T10:46:24Z</time>
      </trkpt>
      <trkpt lat="42.500217" lon="1.555661">
        <ele>1552.000000</ele>
        <time>2020-08-22T10:46:24Z</time>
      </trkpt>
      <trkpt lat="42.500210" lon="1.555665">
        <ele>1552.000000</ele>
        <time>2020-08-22T10:46:24Z</time>
      </trkpt>
      <trkpt lat="42.500210" lon="1.555665">
        <ele>1552.000000</ele>
        <time>2020-08-22T10:46:24Z</time>
      </trkpt>
      <trkpt lat="42.500198" lon="1.555668">
        <ele>1552.000000</ele>
        <time>2020-08-22T10:46:24Z</time>
      </trkpt>
      <trkpt lat="42.500198" lon="1.555668">
        <ele>1552.000000</ele>
        <time>2020-08-22T10:46:24Z</time>
      </trkpt>
      <trkpt lat="42.500183" lon="1.555670">
        <ele>1552.000000</ele>
        <time>2020-08-22T10:46:24Z</time>
      </trkpt>
      <trkpt lat="42.500183" lon="1.555670">
        <ele>1552.000000</ele>
        <time>2020-08-22T10:46:24Z</time>
      </trkpt>
      <trkpt lat="42.500172" lon="1.555673">
        <ele>1552.000000</ele>
        <time>2020-08-22T10:46:24Z</time>
      </trkpt>
      <trkpt lat="42.500172" lon="1.555673">
        <ele>1552.000000</ele>
        <time>2020-08-22T10:46:24Z</time>
      </trkpt>
      <trkpt lat="42.500145" lon="1.555696">
        <ele>1552.000000</ele>
        <time>2020-08-22T10:46:24Z</time>
      </trkpt>
      <trkpt lat="42.500145" lon="1.555696">
        <ele>1552.000000</ele>
        <time>2020-08-22T10:46:24Z</time>
      </trkpt>
      <trkpt lat="42.500118" lon="1.555720">
        <ele>1552.000000</ele>
        <time>2020-08-22T10:46:31Z</time>
      </trkpt>
      <trkpt lat="42.500118" lon="1.555720">
        <ele>1552.000000</ele>
        <time>2020-08-22T10:46:31Z</time>
      </trkpt>
      <trkpt lat="42.500092" lon="1.555745">
        <ele>1552.000000</ele>
        <time>2020-08-22T10:46:31Z</time>
      </trkpt>
      <trkpt lat="42.500092" lon="1.555745">
        <ele>1552.000000</ele>
        <time>2020-08-22T10:46:31Z</time>
      </trkpt>
      <trkpt lat="42.500065" lon="1.555772">
        <ele>1552.000000</ele>
        <time>2020-08-22T10:46:31Z</time>
      </trkpt>
      <trkpt lat="42.500065" lon="1.555772">
        <ele>1552.000000</ele>
        <time>2020-08-22T10:46:31Z</time>
      </trkpt>
      <trkpt lat="42.500038" lon="1.555802">
        <ele>1552.000000</ele>
        <time>2020-08-22T10:46:31Z</time>
      </trkpt>
      <trkpt lat="42.500038" lon="1.555802">
        <ele>1552.000000</ele>
        <time>2020-08-22T10:46:31Z</time>
      </trkpt>
      <trkpt lat="42.500015" lon="1.555835">
        <ele>1552.000000</ele>
        <time>2020-08-22T10:46:31Z</time>
      </trkpt>
      <trkpt lat="42.500015" lon="1.555835">
        <ele>1552.000000</ele>
        <time>2020-08-22T10:46:31Z</time>
      </trkpt>
      <trkpt lat="42.499989" lon="1.555870">
        <ele>1552.000000</ele>
        <time>2020-08-22T10:46:31Z</time>
      </trkpt>
      <trkpt lat="42.499989" lon="1.555870">
        <ele>1552.000000</ele>
        <time>2020-08-22T10:46:31Z</time>
      </trkpt>
      <trkpt lat="42.499969" lon="1.555906">
        <ele>1552.000000</ele>
        <time>2020-08-22T10:46:31Z</time>
      </trkpt>
      <trkpt lat="42.499969" lon="1.555906">
        <ele>1552.000000</ele>
        <time>2020-08-22T10:46:31Z</time>
      </trkpt>
      <trkpt lat="42.499943" lon="1.555943">
        <ele>1552.000000</ele>
        <time>2020-08-22T10:46:38Z</time>
      </trkpt>
      <trkpt lat="42.499943" lon="1.555943">
        <ele>1552.000000</ele>
        <time>2020-08-22T10:46:38Z</time>
      </trkpt>
      <trkpt lat="42.499924" lon="1.555980">
        <ele>1552.000000</ele>
        <time>2020-08-22T10:46:38Z</time>
      </trkpt>
      <trkpt lat="42.499924" lon="1.555980">
        <ele>1552.000000</ele>
        <time>2020-08-22T10:46:38Z</time>
      </trkpt>
      <trkpt lat="42.499802" lon="1.556417">
        <ele>1552.000000</ele>
        <time>2020-08-22T10:46:38Z</time>
      </trkpt>
      <trkpt lat="42.499802" lon="1.556417">
        <ele>1552.000000</ele>
        <time>2020-08-22T10:46:38Z</time>
      </trkpt>
      <trkpt lat="42.499798" lon="1.556415">
        <ele>1552.000000</ele>
        <time>2020-08-22T10:46:38Z</time>
      </trkpt>
      <trkpt lat="42.499798" lon="1.556415">
        <ele>1552.000000</ele>
        <time>2020-08-22T10:46:38Z</time>
      </trkpt>
      <trkpt lat="42.499790" lon="1.556413">
        <ele>1552.000000</ele>
        <time>2020-08-22T10:46:38Z</time>
      </trkpt>
      <trkpt lat="42.499790" lon="1.556413">
        <ele>1552.000000</ele>
        <time>2020-08-22T10:46:38Z</time>
      </trkpt>
      <trkpt lat="42.499783" lon="1.556409">
        <ele>1552.000000</ele>
        <time>2020-08-22T10:46:38Z</time>
      </trkpt>
      <trkpt lat="42.499783" lon="1.556409">
        <ele>1552.000000</ele>
        <time>2020-08-22T10:46:38Z</time>
      </trkpt>
      <trkpt lat="42.499779" lon="1.556405">
        <ele>1552.000000</ele>
        <time>2020-08-22T10:46:46Z</time>
      </trkpt>
      <trkpt lat="42.499779" lon="1.556405">
        <ele>1552.000000</ele>
        <time>2020-08-22T10:46:46Z</time>
      </trkpt>
      <trkpt lat="42.499771" lon="1.556400">
        <ele>1552.000000</ele>
        <time>2020-08-22T10:46:46Z</time>
      </trkpt>
      <trkpt lat="42.499771" lon="1.556400">
        <ele>1552.000000</ele>
        <time>2020-08-22T10:46:46Z</time>
      </trkpt>
      <trkpt lat="42.499763" lon="1.556393">
        <ele>1552.000000</ele>
        <time>2020-08-22T10:46:46Z</time>
      </trkpt>
      <trkpt lat="42.499763" lon="1.556393">
        <ele>1552.000000</ele>
        <time>2020-08-22T10:46:46Z</time>
      </trkpt>
      <trkpt lat="42.499756" lon="1.556387">
        <ele>1552.000000</ele>
        <time>2020-08-22T10:46:46Z</time>
      </trkpt>
      <trkpt lat="42.499756" lon="1.556387">
        <ele>1552.000000</ele>
        <time>2020-08-22T10:46:46Z</time>
      </trkpt>
      <trkpt lat="42.499748" lon="1.556379">
        <ele>1551.000000</ele>
        <time>2020-08-22T10:46:46Z</time>
      </trkpt>
      <trkpt lat="42.499748" lon="1.556379">
        <ele>1551.000000</ele>
        <time>2020-08-22T10:46:46Z</time>
      </trkpt>
      <trkpt lat="42.499744" lon="1.556372">
        <ele>1551.000000</ele>
        <time>2020-08-22T10:46:46Z</time>
      </trkpt>
      <trkpt lat="42.499744" lon="1.556372">
        <ele>1551.000000</ele>
        <time>2020-08-22T10:46:46Z</time>
      </trkpt>
      <trkpt lat="42.499729" lon="1.556361">
        <ele>1550.000000</ele>
        <time>2020-08-22T10:46:46Z</time>
      </trkpt>
      <trkpt lat="42.499729" lon="1.556361">
        <ele>1550.000000</ele>
        <time>2020-08-22T10:46:46Z</time>
      </trkpt>
      <trkpt lat="42.499718" lon="1.556351">
        <ele>1550.000000</ele>
        <time>2020-08-22T10:46:53Z</time>
      </trkpt>
      <trkpt lat="42.499718" lon="1.556351">
        <ele>1550.000000</ele>
        <time>2020-08-22T10:46:53Z</time>
      </trkpt>
      <trkpt lat="42.499702" lon="1.556342">
        <ele>1550.000000</ele>
        <time>2020-08-22T10:46:53Z</time>
      </trkpt>
      <trkpt lat="42.499702" lon="1.556342">
        <ele>1550.000000</ele>
        <time>2020-08-22T10:46:53Z</time>
      </trkpt>
      <trkpt lat="42.499687" lon="1.556335">
        <ele>1550.000000</ele>
        <time>2020-08-22T10:46:53Z</time>
      </trkpt>
      <trkpt lat="42.499687" lon="1.556335">
        <ele>1550.000000</ele>
        <time>2020-08-22T10:46:53Z</time>
      </trkpt>
      <trkpt lat="42.499672" lon="1.556329">
        <ele>1550.000000</ele>
        <time>2020-08-22T10:46:53Z</time>
      </trkpt>
      <trkpt lat="42.499672" lon="1.556329">
        <ele>1550.000000</ele>
        <time>2020-08-22T10:46:53Z</time>
      </trkpt>
      <trkpt lat="42.499657" lon="1.556325">
        <ele>1550.000000</ele>
        <time>2020-08-22T10:46:53Z</time>
      </trkpt>
      <trkpt lat="42.499657" lon="1.556325">
        <ele>1550.000000</ele>
        <time>2020-08-22T10:46:53Z</time>
      </trkpt>
      <trkpt lat="42.499641" lon="1.556322">
        <ele>1550.000000</ele>
        <time>2020-08-22T10:46:53Z</time>
      </trkpt>
      <trkpt lat="42.499641" lon="1.556322">
        <ele>1550.000000</ele>
        <time>2020-08-22T10:46:53Z</time>
      </trkpt>
      <trkpt lat="42.499622" lon="1.556321">
        <ele>1550.000000</ele>
        <time>2020-08-22T10:46:53Z</time>
      </trkpt>
      <trkpt lat="42.499622" lon="1.556321">
        <ele>1550.000000</ele>
        <time>2020-08-22T10:46:53Z</time>
      </trkpt>
      <trkpt lat="42.499607" lon="1.556322">
        <ele>1550.000000</ele>
        <time>2020-08-22T10:47:00Z</time>
      </trkpt>
      <trkpt lat="42.499607" lon="1.556322">
        <ele>1550.000000</ele>
        <time>2020-08-22T10:47:00Z</time>
      </trkpt>
      <trkpt lat="42.499588" lon="1.556325">
        <ele>1550.000000</ele>
        <time>2020-08-22T10:47:00Z</time>
      </trkpt>
      <trkpt lat="42.499588" lon="1.556325">
        <ele>1550.000000</ele>
        <time>2020-08-22T10:47:00Z</time>
      </trkpt>
      <trkpt lat="42.499569" lon="1.556338">
        <ele>1550.000000</ele>
        <time>2020-08-22T10:47:00Z</time>
      </trkpt>
      <trkpt lat="42.499569" lon="1.556338">
        <ele>1550.000000</ele>
        <time>2020-08-22T10:47:00Z</time>
      </trkpt>
      <trkpt lat="42.499542" lon="1.556350">
        <ele>1550.000000</ele>
        <time>2020-08-22T10:47:00Z</time>
      </trkpt>
      <trkpt lat="42.499542" lon="1.556350">
        <ele>1550.000000</ele>
        <time>2020-08-22T10:47:00Z</time>
      </trkpt>
      <trkpt lat="42.499523" lon="1.556360">
        <ele>1550.000000</ele>
        <time>2020-08-22T10:47:07Z</time>
      </trkpt>
      <trkpt lat="42.499523" lon="1.556360">
        <ele>1550.000000</ele>
        <time>2020-08-22T10:47:07Z</time>
      </trkpt>
      <trkpt lat="42.499504" lon="1.556368">
        <ele>1550.000000</ele>
        <time>2020-08-22T10:47:07Z</time>
      </trkpt>
      <trkpt lat="42.499504" lon="1.556368">
        <ele>1550.000000</ele>
        <time>2020-08-22T10:47:07Z</time>
      </trkpt>
      <trkpt lat="42.499485" lon="1.556376">
        <ele>1550.000000</ele>
        <time>2020-08-22T10:47:07Z</time>
      </trkpt>
      <trkpt lat="42.499485" lon="1.556376">
        <ele>1550.000000</ele>
        <time>2020-08-22T10:47:07Z</time>
      </trkpt>
      <trkpt lat="42.499466" lon="1.556384">
        <ele>1550.000000</ele>
        <time>2020-08-22T10:47:07Z</time>
      </trkpt>
      <trkpt lat="42.499466" lon="1.556384">
        <ele>1550.000000</ele>
        <time>2020-08-22T10:47:07Z</time>
      </trkpt>
      <trkpt lat="42.499451" lon="1.556391">
        <ele>1550.000000</ele>
        <time>2020-08-22T10:47:07Z</time>
      </trkpt>
      <trkpt lat="42.499451" lon="1.556391">
        <ele>1550.000000</ele>
        <time>2020-08-22T10:47:07Z</time>
      </trkpt>
      <trkpt lat="42.499435" lon="1.556399">
        <ele>1550.000000</ele>
        <time>2020-08-22T10:47:07Z</time>
      </trkpt>
      <trkpt lat="42.499435" lon="1.556399">
        <ele>1550.000000</ele>
        <time>2020-08-22T10:47:07Z</time>
      </trkpt>
      <trkpt lat="42.499420" lon="1.556406">
        <ele>1550.000000</ele>
        <time>2020-08-22T10:47:07Z</time>
      </trkpt>
      <trkpt lat="42.499420" lon="1.556406">
        <ele>1550.000000</ele>
        <time>2020-08-22T10:47:07Z</time>
      </trkpt>
      <trkpt lat="42.499409" lon="1.556411">
        <ele>1550.000000</ele>
        <time>2020-08-22T10:47:14Z</time>
      </trkpt>
      <trkpt lat="42.499409" lon="1.556411">
        <ele>1550.000000</ele>
        <time>2020-08-22T10:47:14Z</time>
      </trkpt>
      <trkpt lat="42.499401" lon="1.556407">
        <ele>1550.000000</ele>
        <time>2020-08-22T10:47:14Z</time>
      </trkpt>
      <trkpt lat="42.499401" lon="1.556407">
        <ele>1550.000000</ele>
        <time>2020-08-22T10:47:14Z</time>
      </trkpt>
      <trkpt lat="42.499397" lon="1.556403">
        <ele>1550.000000</ele>
        <time>2020-08-22T10:47:14Z</time>
      </trkpt>
      <trkpt lat="42.499397" lon="1.556403">
        <ele>1550.000000</ele>
        <time>2020-08-22T10:47:14Z</time>
      </trkpt>
      <trkpt lat="42.499390" lon="1.556399">
        <ele>1550.000000</ele>
        <time>2020-08-22T10:47:14Z</time>
      </trkpt>
      <trkpt lat="42.499390" lon="1.556399">
        <ele>1550.000000</ele>
        <time>2020-08-22T10:47:14Z</time>
      </trkpt>
      <trkpt lat="42.499386" lon="1.556396">
        <ele>1550.000000</ele>
        <time>2020-08-22T10:47:14Z</time>
      </trkpt>
      <trkpt lat="42.499386" lon="1.556396">
        <ele>1550.000000</ele>
        <time>2020-08-22T10:47:14Z</time>
      </trkpt>
      <trkpt lat="42.499374" lon="1.556393">
        <ele>1550.000000</ele>
        <time>2020-08-22T10:47:14Z</time>
      </trkpt>
      <trkpt lat="42.499374" lon="1.556393">
        <ele>1550.000000</ele>
        <time>2020-08-22T10:47:14Z</time>
      </trkpt>
      <trkpt lat="42.499371" lon="1.556391">
        <ele>1550.000000</ele>
        <time>2020-08-22T10:47:14Z</time>
      </trkpt>
      <trkpt lat="42.499371" lon="1.556391">
        <ele>1550.000000</ele>
        <time>2020-08-22T10:47:14Z</time>
      </trkpt>
      <trkpt lat="42.499363" lon="1.556388">
        <ele>1550.000000</ele>
        <time>2020-08-22T10:47:21Z</time>
      </trkpt>
      <trkpt lat="42.499363" lon="1.556388">
        <ele>1550.000000</ele>
        <time>2020-08-22T10:47:21Z</time>
      </trkpt>
      <trkpt lat="42.499355" lon="1.556386">
        <ele>1550.000000</ele>
        <time>2020-08-22T10:47:21Z</time>
      </trkpt>
      <trkpt lat="42.499355" lon="1.556386">
        <ele>1550.000000</ele>
        <time>2020-08-22T10:47:21Z</time>
      </trkpt>
      <trkpt lat="42.499348" lon="1.556385">
        <ele>1555.000000</ele>
        <time>2020-08-22T10:47:21Z</time>
      </trkpt>
      <trkpt lat="42.499348" lon="1.556385">
        <ele>1555.000000</ele>
        <time>2020-08-22T10:47:21Z</time>
      </trkpt>
      <trkpt lat="42.499340" lon="1.556384">
        <ele>1555.000000</ele>
        <time>2020-08-22T10:47:21Z</time>
      </trkpt>
      <trkpt lat="42.499340" lon="1.556384">
        <ele>1555.000000</ele>
        <time>2020-08-22T10:47:21Z</time>
      </trkpt>
      <trkpt lat="42.499329" lon="1.556385">
        <ele>1555.000000</ele>
        <time>2020-08-22T10:47:21Z</time>
      </trkpt>
      <trkpt lat="42.499329" lon="1.556385">
        <ele>1555.000000</ele>
        <time>2020-08-22T10:47:21Z</time>
      </trkpt>
      <trkpt lat="42.499317" lon="1.556386">
        <ele>1555.000000</ele>
        <time>2020-08-22T10:47:21Z</time>
      </trkpt>
      <trkpt lat="42.499317" lon="1.556386">
        <ele>1555.000000</ele>
        <time>2020-08-22T10:47:21Z</time>
      </trkpt>
      <trkpt lat="42.499306" lon="1.556388">
        <ele>1555.000000</ele>
        <time>2020-08-22T10:47:21Z</time>
      </trkpt>
      <trkpt lat="42.499306" lon="1.556388">
        <ele>1555.000000</ele>
        <time>2020-08-22T10:47:21Z</time>
      </trkpt>
      <trkpt lat="42.499298" lon="1.556391">
        <ele>1555.000000</ele>
        <time>2020-08-22T10:47:28Z</time>
      </trkpt>
      <trkpt lat="42.499298" lon="1.556391">
        <ele>1555.000000</ele>
        <time>2020-08-22T10:47:28Z</time>
      </trkpt>
      <trkpt lat="42.499290" lon="1.556394">
        <ele>1555.000000</ele>
        <time>2020-08-22T10:47:28Z</time>
      </trkpt>
      <trkpt lat="42.499290" lon="1.556394">
        <ele>1555.000000</ele>
        <time>2020-08-22T10:47:28Z</time>
      </trkpt>
      <trkpt lat="42.499283" lon="1.556397">
        <ele>1555.000000</ele>
        <time>2020-08-22T10:47:28Z</time>
      </trkpt>
      <trkpt lat="42.499283" lon="1.556397">
        <ele>1555.000000</ele>
        <time>2020-08-22T10:47:28Z</time>
      </trkpt>
      <trkpt lat="42.499275" lon="1.556400">
        <ele>1555.000000</ele>
        <time>2020-08-22T10:47:28Z</time>
      </trkpt>
      <trkpt lat="42.499275" lon="1.556400">
        <ele>1555.000000</ele>
        <time>2020-08-22T10:47:28Z</time>
      </trkpt>
      <trkpt lat="42.499268" lon="1.556402">
        <ele>1555.000000</ele>
        <time>2020-08-22T10:47:28Z</time>
      </trkpt>
      <trkpt lat="42.499268" lon="1.556402">
        <ele>1555.000000</ele>
        <time>2020-08-22T10:47:28Z</time>
      </trkpt>
      <trkpt lat="42.499264" lon="1.556405">
        <ele>1555.000000</ele>
        <time>2020-08-22T10:47:28Z</time>
      </trkpt>
      <trkpt lat="42.499264" lon="1.556405">
        <ele>1555.000000</ele>
        <time>2020-08-22T10:47:28Z</time>
      </trkpt>
      <trkpt lat="42.499256" lon="1.556407">
        <ele>1555.000000</ele>
        <time>2020-08-22T10:47:28Z</time>
      </trkpt>
      <trkpt lat="42.499256" lon="1.556407">
        <ele>1555.000000</ele>
        <time>2020-08-22T10:47:28Z</time>
      </trkpt>
      <trkpt lat="42.499252" lon="1.556409">
        <ele>1555.000000</ele>
        <time>2020-08-22T10:47:35Z</time>
      </trkpt>
      <trkpt lat="42.499252" lon="1.556409">
        <ele>1555.000000</ele>
        <time>2020-08-22T10:47:35Z</time>
      </trkpt>
      <trkpt lat="42.499245" lon="1.556412">
        <ele>1555.000000</ele>
        <time>2020-08-22T10:47:35Z</time>
      </trkpt>
      <trkpt lat="42.499245" lon="1.556412">
        <ele>1555.000000</ele>
        <time>2020-08-22T10:47:35Z</time>
      </trkpt>
      <trkpt lat="42.499241" lon="1.556416">
        <ele>1555.000000</ele>
        <time>2020-08-22T10:47:35Z</time>
      </trkpt>
      <trkpt lat="42.499241" lon="1.556416">
        <ele>1555.000000</ele>
        <time>2020-08-22T10:47:35Z</time>
      </trkpt>
      <trkpt lat="42.499233" lon="1.556420">
        <ele>1555.000000</ele>
        <time>2020-08-22T10:47:35Z</time>
      </trkpt>
      <trkpt lat="42.499233" lon="1.556420">
        <ele>1555.000000</ele>
        <time>2020-08-22T10:47:35Z</time>
      </trkpt>
      <trkpt lat="42.499229" lon="1.556426">
        <ele>1555.000000</ele>
        <time>2020-08-22T10:47:35Z</time>
      </trkpt>
      <trkpt lat="42.499229" lon="1.556426">
        <ele>1555.000000</ele>
        <time>2020-08-22T10:47:35Z</time>
      </trkpt>
      <trkpt lat="42.499226" lon="1.556433">
        <ele>1555.000000</ele>
        <time>2020-08-22T10:47:35Z</time>
      </trkpt>
      <trkpt lat="42.499226" lon="1.556433">
        <ele>1555.000000</ele>
        <time>2020-08-22T10:47:35Z</time>
      </trkpt>
      <trkpt lat="42.499218" lon="1.556441">
        <ele>1555.000000</ele>
        <time>2020-08-22T10:47:35Z</time>
      </trkpt>
      <trkpt lat="42.499218" lon="1.556441">
        <ele>1555.000000</ele>
        <time>2020-08-22T10:47:35Z</time>
      </trkpt>
      <trkpt lat="42.499214" lon="1.556449">
        <ele>1555.000000</ele>
        <time>2020-08-22T10:47:42Z</time>
      </trkpt>
      <trkpt lat="42.499214" lon="1.556449">
        <ele>1555.000000</ele>
        <time>2020-08-22T10:47:42Z</time>
      </trkpt>
      <trkpt lat="42.499210" lon="1.556458">
        <ele>1555.000000</ele>
        <time>2020-08-22T10:47:42Z</time>
      </trkpt>
      <trkpt lat="42.499210" lon="1.556458">
        <ele>1555.000000</ele>
        <time>2020-08-22T10:47:42Z</time>
      </trkpt>
      <trkpt lat="42.499207" lon="1.556467">
        <ele>1555.000000</ele>
        <time>2020-08-22T10:47:42Z</time>
      </trkpt>
      <trkpt lat="42.499207" lon="1.556467">
        <ele>1555.000000</ele>
        <time>2020-08-22T10:47:42Z</time>
      </trkpt>
      <trkpt lat="42.499203" lon="1.556479">
        <ele>1555.000000</ele>
        <time>2020-08-22T10:47:42Z</time>
      </trkpt>
      <trkpt lat="42.499203" lon="1.556479">
        <ele>1555.000000</ele>
        <time>2020-08-22T10:47:42Z</time>
      </trkpt>
      <trkpt lat="42.499199" lon="1.556490">
        <ele>1555.000000</ele>
        <time>2020-08-22T10:47:42Z</time>
      </trkpt>
      <trkpt lat="42.499199" lon="1.556490">
        <ele>1560.000000</ele>
        <time>2020-08-22T10:47:42Z</time>
      </trkpt>
      <trkpt lat="42.499191" lon="1.556500">
        <ele>1560.000000</ele>
        <time>2020-08-22T10:47:42Z</time>
      </trkpt>
      <trkpt lat="42.499191" lon="1.556500">
        <ele>1560.000000</ele>
        <time>2020-08-22T10:47:42Z</time>
      </trkpt>
      <trkpt lat="42.499187" lon="1.556511">
        <ele>1565.000000</ele>
        <time>2020-08-22T10:47:42Z</time>
      </trkpt>
      <trkpt lat="42.499187" lon="1.556511">
        <ele>1565.000000</ele>
        <time>2020-08-22T10:47:42Z</time>
      </trkpt>
      <trkpt lat="42.499180" lon="1.556520">
        <ele>1565.000000</ele>
        <time>2020-08-22T10:47:42Z</time>
      </trkpt>
      <trkpt lat="42.499180" lon="1.556520">
        <ele>1565.000000</ele>
        <time>2020-08-22T10:47:42Z</time>
      </trkpt>
      <trkpt lat="42.499176" lon="1.556529">
        <ele>1566.000000</ele>
        <time>2020-08-22T10:47:42Z</time>
      </trkpt>
      <trkpt lat="42.499176" lon="1.556529">
        <ele>1566.000000</ele>
        <time>2020-08-22T10:47:42Z</time>
      </trkpt>
      <trkpt lat="42.499168" lon="1.556537">
        <ele>1566.000000</ele>
        <time>2020-08-22T10:47:49Z</time>
      </trkpt>
      <trkpt lat="42.499168" lon="1.556537">
        <ele>1566.000000</ele>
        <time>2020-08-22T10:47:49Z</time>
      </trkpt>
      <trkpt lat="42.499161" lon="1.556545">
        <ele>1566.000000</ele>
        <time>2020-08-22T10:47:49Z</time>
      </trkpt>
      <trkpt lat="42.499161" lon="1.556545">
        <ele>1567.000000</ele>
        <time>2020-08-22T10:47:49Z</time>
      </trkpt>
      <trkpt lat="42.499153" lon="1.556554">
        <ele>1572.000000</ele>
        <time>2020-08-22T10:47:49Z</time>
      </trkpt>
      <trkpt lat="42.499153" lon="1.556554">
        <ele>1572.000000</ele>
        <time>2020-08-22T10:47:49Z</time>
      </trkpt>
      <trkpt lat="42.499145" lon="1.556562">
        <ele>1572.000000</ele>
        <time>2020-08-22T10:47:49Z</time>
      </trkpt>
      <trkpt lat="42.499145" lon="1.556562">
        <ele>1572.000000</ele>
        <time>2020-08-22T10:47:49Z</time>
      </trkpt>
      <trkpt lat="42.499138" lon="1.556573">
        <ele>1572.000000</ele>
        <time>2020-08-22T10:47:49Z</time>
      </trkpt>
      <trkpt lat="42.499138" lon="1.556573">
        <ele>1572.000000</ele>
        <time>2020-08-22T10:47:49Z</time>
      </trkpt>
      <trkpt lat="42.499134" lon="1.556583">
        <ele>1572.000000</ele>
        <time>2020-08-22T10:47:49Z</time>
      </trkpt>
      <trkpt lat="42.499134" lon="1.556583">
        <ele>1572.000000</ele>
        <time>2020-08-22T10:47:49Z</time>
      </trkpt>
      <trkpt lat="42.499126" lon="1.556594">
        <ele>1572.000000</ele>
        <time>2020-08-22T10:47:49Z</time>
      </trkpt>
      <trkpt lat="42.499126" lon="1.556594">
        <ele>1572.000000</ele>
        <time>2020-08-22T10:47:49Z</time>
      </trkpt>
      <trkpt lat="42.499123" lon="1.556605">
        <ele>1572.000000</ele>
        <time>2020-08-22T10:47:49Z</time>
      </trkpt>
      <trkpt lat="42.499123" lon="1.556605">
        <ele>1572.000000</ele>
        <time>2020-08-22T10:47:49Z</time>
      </trkpt>
      <trkpt lat="42.499119" lon="1.556616">
        <ele>1572.000000</ele>
        <time>2020-08-22T10:47:49Z</time>
      </trkpt>
      <trkpt lat="42.499119" lon="1.556616">
        <ele>1572.000000</ele>
        <time>2020-08-22T10:47:49Z</time>
      </trkpt>
      <trkpt lat="42.499111" lon="1.556627">
        <ele>1572.000000</ele>
        <time>2020-08-22T10:47:49Z</time>
      </trkpt>
      <trkpt lat="42.499111" lon="1.556627">
        <ele>1572.000000</ele>
        <time>2020-08-22T10:47:49Z</time>
      </trkpt>
      <trkpt lat="42.499107" lon="1.556639">
        <ele>1572.000000</ele>
        <time>2020-08-22T10:47:56Z</time>
      </trkpt>
      <trkpt lat="42.499107" lon="1.556639">
        <ele>1572.000000</ele>
        <time>2020-08-22T10:47:56Z</time>
      </trkpt>
      <trkpt lat="42.499100" lon="1.556651">
        <ele>1572.000000</ele>
        <time>2020-08-22T10:47:56Z</time>
      </trkpt>
      <trkpt lat="42.499100" lon="1.556651">
        <ele>1572.000000</ele>
        <time>2020-08-22T10:47:56Z</time>
      </trkpt>
      <trkpt lat="42.499096" lon="1.556662">
        <ele>1572.000000</ele>
        <time>2020-08-22T10:47:56Z</time>
      </trkpt>
      <trkpt lat="42.499096" lon="1.556662">
        <ele>1572.000000</ele>
        <time>2020-08-22T10:47:56Z</time>
      </trkpt>
      <trkpt lat="42.499088" lon="1.556673">
        <ele>1572.000000</ele>
        <time>2020-08-22T10:47:56Z</time>
      </trkpt>
      <trkpt lat="42.499088" lon="1.556673">
        <ele>1572.000000</ele>
        <time>2020-08-22T10:47:56Z</time>
      </trkpt>
      <trkpt lat="42.499084" lon="1.556675">
        <ele>1572.000000</ele>
        <time>2020-08-22T10:47:56Z</time>
      </trkpt>
      <trkpt lat="42.499084" lon="1.556675">
        <ele>1572.000000</ele>
        <time>2020-08-22T10:47:56Z</time>
      </trkpt>
      <trkpt lat="42.499077" lon="1.556678">
        <ele>1572.000000</ele>
        <time>2020-08-22T10:47:56Z</time>
      </trkpt>
      <trkpt lat="42.499077" lon="1.556678">
        <ele>1572.000000</ele>
        <time>2020-08-22T10:47:56Z</time>
      </trkpt>
      <trkpt lat="42.499073" lon="1.556681">
        <ele>1572.000000</ele>
        <time>2020-08-22T10:48:03Z</time>
      </trkpt>
      <trkpt lat="42.499073" lon="1.556681">
        <ele>1572.000000</ele>
        <time>2020-08-22T10:48:03Z</time>
      </trkpt>
      <trkpt lat="42.499065" lon="1.556686">
        <ele>1572.000000</ele>
        <time>2020-08-22T10:48:03Z</time>
      </trkpt>
      <trkpt lat="42.499065" lon="1.556686">
        <ele>1572.000000</ele>
        <time>2020-08-22T10:48:03Z</time>
      </trkpt>
      <trkpt lat="42.499065" lon="1.556691">
        <ele>1572.000000</ele>
        <time>2020-08-22T10:48:03Z</time>
      </trkpt>
      <trkpt lat="42.499065" lon="1.556691">
        <ele>1572.000000</ele>
        <time>2020-08-22T10:48:03Z</time>
      </trkpt>
      <trkpt lat="42.499058" lon="1.556696">
        <ele>1572.000000</ele>
        <time>2020-08-22T10:48:03Z</time>
      </trkpt>
      <trkpt lat="42.499058" lon="1.556696">
        <ele>1572.000000</ele>
        <time>2020-08-22T10:48:03Z</time>
      </trkpt>
      <trkpt lat="42.499058" lon="1.556701">
        <ele>1572.000000</ele>
        <time>2020-08-22T10:48:03Z</time>
      </trkpt>
      <trkpt lat="42.499058" lon="1.556701">
        <ele>1572.000000</ele>
        <time>2020-08-22T10:48:03Z</time>
      </trkpt>
      <trkpt lat="42.499054" lon="1.556707">
        <ele>1579.000000</ele>
        <time>2020-08-22T10:48:03Z</time>
      </trkpt>
      <trkpt lat="42.499054" lon="1.556707">
        <ele>1579.000000</ele>
        <time>2020-08-22T10:48:03Z</time>
      </trkpt>
      <trkpt lat="42.499050" lon="1.556713">
        <ele>1579.000000</ele>
        <time>2020-08-22T10:48:03Z</time>
      </trkpt>
      <trkpt lat="42.499050" lon="1.556713">
        <ele>1579.000000</ele>
        <time>2020-08-22T10:48:03Z</time>
      </trkpt>
      <trkpt lat="42.499046" lon="1.556722">
        <ele>1579.000000</ele>
        <time>2020-08-22T10:48:11Z</time>
      </trkpt>
      <trkpt lat="42.499046" lon="1.556722">
        <ele>1580.000000</ele>
        <time>2020-08-22T10:48:11Z</time>
      </trkpt>
      <trkpt lat="42.499043" lon="1.556741">
        <ele>1580.000000</ele>
        <time>2020-08-22T10:48:11Z</time>
      </trkpt>
      <trkpt lat="42.499043" lon="1.556741">
        <ele>1580.000000</ele>
        <time>2020-08-22T10:48:11Z</time>
      </trkpt>
      <trkpt lat="42.499039" lon="1.556758">
        <ele>1580.000000</ele>
        <time>2020-08-22T10:48:11Z</time>
      </trkpt>
      <trkpt lat="42.499039" lon="1.556758">
        <ele>1580.000000</ele>
        <time>2020-08-22T10:48:11Z</time>
      </trkpt>
      <trkpt lat="42.499039" lon="1.556774">
        <ele>1580.000000</ele>
        <time>2020-08-22T10:48:21Z</time>
      </trkpt>
      <trkpt lat="42.499039" lon="1.556774">
        <ele>1580.000000</ele>
        <time>2020-08-22T10:48:21Z</time>
      </trkpt>
      <trkpt lat="42.499031" lon="1.556789">
        <ele>1583.000000</ele>
        <time>2020-08-22T10:48:21Z</time>
      </trkpt>
      <trkpt lat="42.499031" lon="1.556789">
        <ele>1583.000000</ele>
        <time>2020-08-22T10:48:21Z</time>
      </trkpt>
      <trkpt lat="42.499031" lon="1.556803">
        <ele>1583.000000</ele>
        <time>2020-08-22T10:48:21Z</time>
      </trkpt>
      <trkpt lat="42.499031" lon="1.556803">
        <ele>1583.000000</ele>
        <time>2020-08-22T10:48:21Z</time>
      </trkpt>
      <trkpt lat="42.499027" lon="1.556817">
        <ele>1583.000000</ele>
        <time>2020-08-22T10:48:21Z</time>
      </trkpt>
      <trkpt lat="42.499027" lon="1.556817">
        <ele>1584.000000</ele>
        <time>2020-08-22T10:48:21Z</time>
      </trkpt>
      <trkpt lat="42.499023" lon="1.556830">
        <ele>1584.000000</ele>
        <time>2020-08-22T10:48:21Z</time>
      </trkpt>
      <trkpt lat="42.499023" lon="1.556830">
        <ele>1584.000000</ele>
        <time>2020-08-22T10:48:21Z</time>
      </trkpt>
      <trkpt lat="42.499020" lon="1.556843">
        <ele>1584.000000</ele>
        <time>2020-08-22T10:48:21Z</time>
      </trkpt>
      <trkpt lat="42.499020" lon="1.556843">
        <ele>1584.000000</ele>
        <time>2020-08-22T10:48:21Z</time>
      </trkpt>
      <trkpt lat="42.499020" lon="1.556857">
        <ele>1585.000000</ele>
        <time>2020-08-22T10:48:21Z</time>
      </trkpt>
      <trkpt lat="42.499020" lon="1.556857">
        <ele>1585.000000</ele>
        <time>2020-08-22T10:48:21Z</time>
      </trkpt>
      <trkpt lat="42.499012" lon="1.556870">
        <ele>1586.000000</ele>
        <time>2020-08-22T10:48:21Z</time>
      </trkpt>
      <trkpt lat="42.499012" lon="1.556870">
        <ele>1586.000000</ele>
        <time>2020-08-22T10:48:21Z</time>
      </trkpt>
      <trkpt lat="42.499008" lon="1.556876">
        <ele>1586.000000</ele>
        <time>2020-08-22T10:48:21Z</time>
      </trkpt>
      <trkpt lat="42.499008" lon="1.556876">
        <ele>1586.000000</ele>
        <time>2020-08-22T10:48:21Z</time>
      </trkpt>
      <trkpt lat="42.499004" lon="1.556883">
        <ele>1587.000000</ele>
        <time>2020-08-22T10:48:21Z</time>
      </trkpt>
      <trkpt lat="42.499004" lon="1.556883">
        <ele>1587.000000</ele>
        <time>2020-08-22T10:48:21Z</time>
      </trkpt>
      <trkpt lat="42.498997" lon="1.556890">
        <ele>1587.000000</ele>
        <time>2020-08-22T10:48:21Z</time>
      </trkpt>
      <trkpt lat="42.498997" lon="1.556890">
        <ele>1587.000000</ele>
        <time>2020-08-22T10:48:21Z</time>
      </trkpt>
      <trkpt lat="42.498993" lon="1.556898">
        <ele>1591.000000</ele>
        <time>2020-08-22T10:48:21Z</time>
      </trkpt>
      <trkpt lat="42.498993" lon="1.556898">
        <ele>1591.000000</ele>
        <time>2020-08-22T10:48:21Z</time>
      </trkpt>
      <trkpt lat="42.498985" lon="1.556905">
        <ele>1591.000000</ele>
        <time>2020-08-22T10:48:21Z</time>
      </trkpt>
      <trkpt lat="42.498985" lon="1.556905">
        <ele>1591.000000</ele>
        <time>2020-08-22T10:48:21Z</time>
      </trkpt>
      <trkpt lat="42.498981" lon="1.556913">
        <ele>1591.000000</ele>
        <time>2020-08-22T10:48:28Z</time>
      </trkpt>
      <trkpt lat="42.498981" lon="1.556913">
        <ele>1591.000000</ele>
        <time>2020-08-22T10:48:28Z</time>
      </trkpt>
      <trkpt lat="42.498974" lon="1.556921">
        <ele>1591.000000</ele>
        <time>2020-08-22T10:48:28Z</time>
      </trkpt>
      <trkpt lat="42.498974" lon="1.556921">
        <ele>1591.000000</ele>
        <time>2020-08-22T10:48:28Z</time>
      </trkpt>
      <trkpt lat="42.498966" lon="1.556929">
        <ele>1592.000000</ele>
        <time>2020-08-22T10:48:28Z</time>
      </trkpt>
      <trkpt lat="42.498966" lon="1.556929">
        <ele>1592.000000</ele>
        <time>2020-08-22T10:48:28Z</time>
      </trkpt>
      <trkpt lat="42.498959" lon="1.556936">
        <ele>1594.000000</ele>
        <time>2020-08-22T10:48:28Z</time>
      </trkpt>
      <trkpt lat="42.498959" lon="1.556936">
        <ele>1594.000000</ele>
        <time>2020-08-22T10:48:28Z</time>
      </trkpt>
      <trkpt lat="42.498951" lon="1.556942">
        <ele>1594.000000</ele>
        <time>2020-08-22T10:48:28Z</time>
      </trkpt>
      <trkpt lat="42.498951" lon="1.556942">
        <ele>1595.000000</ele>
        <time>2020-08-22T10:48:28Z</time>
      </trkpt>
      <trkpt lat="42.498943" lon="1.556948">
        <ele>1595.000000</ele>
        <time>2020-08-22T10:48:28Z</time>
      </trkpt>
      <trkpt lat="42.498943" lon="1.556948">
        <ele>1595.000000</ele>
        <time>2020-08-22T10:48:28Z</time>
      </trkpt>
      <trkpt lat="42.498940" lon="1.556953">
        <ele>1595.000000</ele>
        <time>2020-08-22T10:48:28Z</time>
      </trkpt>
      <trkpt lat="42.498940" lon="1.556953">
        <ele>1595.000000</ele>
        <time>2020-08-22T10:48:28Z</time>
      </trkpt>
      <trkpt lat="42.498932" lon="1.556959">
        <ele>1596.000000</ele>
        <time>2020-08-22T10:48:35Z</time>
      </trkpt>
      <trkpt lat="42.498932" lon="1.556959">
        <ele>1596.000000</ele>
        <time>2020-08-22T10:48:35Z</time>
      </trkpt>
      <trkpt lat="42.498928" lon="1.556964">
        <ele>1596.000000</ele>
        <time>2020-08-22T10:48:35Z</time>
      </trkpt>
      <trkpt lat="42.498928" lon="1.556964">
        <ele>1596.000000</ele>
        <time>2020-08-22T10:48:35Z</time>
      </trkpt>
      <trkpt lat="42.498924" lon="1.556969">
        <ele>1596.000000</ele>
        <time>2020-08-22T10:48:35Z</time>
      </trkpt>
      <trkpt lat="42.498924" lon="1.556969">
        <ele>1597.000000</ele>
        <time>2020-08-22T10:48:35Z</time>
      </trkpt>
      <trkpt lat="42.498917" lon="1.556974">
        <ele>1597.000000</ele>
        <time>2020-08-22T10:48:35Z</time>
      </trkpt>
      <trkpt lat="42.498917" lon="1.556974">
        <ele>1597.000000</ele>
        <time>2020-08-22T10:48:35Z</time>
      </trkpt>
      <trkpt lat="42.498913" lon="1.556978">
        <ele>1597.000000</ele>
        <time>2020-08-22T10:48:35Z</time>
      </trkpt>
      <trkpt lat="42.498913" lon="1.556978">
        <ele>1597.000000</ele>
        <time>2020-08-22T10:48:35Z</time>
      </trkpt>
      <trkpt lat="42.498905" lon="1.556982">
        <ele>1598.000000</ele>
        <time>2020-08-22T10:48:35Z</time>
      </trkpt>
      <trkpt lat="42.498905" lon="1.556982">
        <ele>1598.000000</ele>
        <time>2020-08-22T10:48:35Z</time>
      </trkpt>
      <trkpt lat="42.498901" lon="1.556987">
        <ele>1600.000000</ele>
        <time>2020-08-22T10:48:35Z</time>
      </trkpt>
      <trkpt lat="42.498901" lon="1.556987">
        <ele>1600.000000</ele>
        <time>2020-08-22T10:48:35Z</time>
      </trkpt>
      <trkpt lat="42.498898" lon="1.556991">
        <ele>1600.000000</ele>
        <time>2020-08-22T10:48:35Z</time>
      </trkpt>
      <trkpt lat="42.498898" lon="1.556991">
        <ele>1600.000000</ele>
        <time>2020-08-22T10:48:35Z</time>
      </trkpt>
      <trkpt lat="42.498898" lon="1.556996">
        <ele>1600.000000</ele>
        <time>2020-08-22T10:48:35Z</time>
      </trkpt>
      <trkpt lat="42.498898" lon="1.556996">
        <ele>1600.000000</ele>
        <time>2020-08-22T10:48:35Z</time>
      </trkpt>
      <trkpt lat="42.498890" lon="1.557000">
        <ele>1600.000000</ele>
        <time>2020-08-22T10:48:35Z</time>
      </trkpt>
      <trkpt lat="42.498890" lon="1.557000">
        <ele>1600.000000</ele>
        <time>2020-08-22T10:48:35Z</time>
      </trkpt>
      <trkpt lat="42.498886" lon="1.557005">
        <ele>1600.000000</ele>
        <time>2020-08-22T10:48:42Z</time>
      </trkpt>
      <trkpt lat="42.498886" lon="1.557005">
        <ele>1600.000000</ele>
        <time>2020-08-22T10:48:42Z</time>
      </trkpt>
      <trkpt lat="42.498882" lon="1.557010">
        <ele>1602.000000</ele>
        <time>2020-08-22T10:48:42Z</time>
      </trkpt>
      <trkpt lat="42.498882" lon="1.557010">
        <ele>1602.000000</ele>
        <time>2020-08-22T10:48:42Z</time>
      </trkpt>
      <trkpt lat="42.498878" lon="1.557015">
        <ele>1602.000000</ele>
        <time>2020-08-22T10:48:42Z</time>
      </trkpt>
      <trkpt lat="42.498878" lon="1.557015">
        <ele>1602.000000</ele>
        <time>2020-08-22T10:48:42Z</time>
      </trkpt>
      <trkpt lat="42.498871" lon="1.557021">
        <ele>1602.000000</ele>
        <time>2020-08-22T10:48:42Z</time>
      </trkpt>
      <trkpt lat="42.498871" lon="1.557021">
        <ele>1602.000000</ele>
        <time>2020-08-22T10:48:42Z</time>
      </trkpt>
      <trkpt lat="42.498867" lon="1.557028">
        <ele>1602.000000</ele>
        <time>2020-08-22T10:48:42Z</time>
      </trkpt>
      <trkpt lat="42.498867" lon="1.557028">
        <ele>1602.000000</ele>
        <time>2020-08-22T10:48:42Z</time>
      </trkpt>
      <trkpt lat="42.498863" lon="1.557034">
        <ele>1602.000000</ele>
        <time>2020-08-22T10:48:42Z</time>
      </trkpt>
      <trkpt lat="42.498863" lon="1.557034">
        <ele>1602.000000</ele>
        <time>2020-08-22T10:48:42Z</time>
      </trkpt>
      <trkpt lat="42.498856" lon="1.557041">
        <ele>1602.000000</ele>
        <time>2020-08-22T10:48:42Z</time>
      </trkpt>
      <trkpt lat="42.498856" lon="1.557041">
        <ele>1602.000000</ele>
        <time>2020-08-22T10:48:42Z</time>
      </trkpt>
      <trkpt lat="42.498852" lon="1.557047">
        <ele>1602.000000</ele>
        <time>2020-08-22T10:48:42Z</time>
      </trkpt>
      <trkpt lat="42.498852" lon="1.557047">
        <ele>1602.000000</ele>
        <time>2020-08-22T10:48:42Z</time>
      </trkpt>
      <trkpt lat="42.498837" lon="1.557058">
        <ele>1602.000000</ele>
        <time>2020-08-22T10:48:42Z</time>
      </trkpt>
      <trkpt lat="42.498837" lon="1.557058">
        <ele>1602.000000</ele>
        <time>2020-08-22T10:48:42Z</time>
      </trkpt>
      <trkpt lat="42.498825" lon="1.557069">
        <ele>1602.000000</ele>
        <time>2020-08-22T10:48:42Z</time>
      </trkpt>
      <trkpt lat="42.498825" lon="1.557069">
        <ele>1604.000000</ele>
        <time>2020-08-22T10:48:42Z</time>
      </trkpt>
      <trkpt lat="42.498810" lon="1.557080">
        <ele>1604.000000</ele>
        <time>2020-08-22T10:48:42Z</time>
      </trkpt>
      <trkpt lat="42.498810" lon="1.557080">
        <ele>1604.000000</ele>
        <time>2020-08-22T10:48:42Z</time>
      </trkpt>
      <trkpt lat="42.498798" lon="1.557090">
        <ele>1606.000000</ele>
        <time>2020-08-22T10:48:42Z</time>
      </trkpt>
      <trkpt lat="42.498798" lon="1.557090">
        <ele>1606.000000</ele>
        <time>2020-08-22T10:48:42Z</time>
      </trkpt>
      <trkpt lat="42.498791" lon="1.557101">
        <ele>1607.000000</ele>
        <time>2020-08-22T10:48:42Z</time>
      </trkpt>
      <trkpt lat="42.498791" lon="1.557101">
        <ele>1607.000000</ele>
        <time>2020-08-22T10:48:42Z</time>
      </trkpt>
      <trkpt lat="42.498783" lon="1.557110">
        <ele>1607.000000</ele>
        <time>2020-08-22T10:48:49Z</time>
      </trkpt>
      <trkpt lat="42.498783" lon="1.557110">
        <ele>1607.000000</ele>
        <time>2020-08-22T10:48:49Z</time>
      </trkpt>
      <trkpt lat="42.498772" lon="1.557122">
        <ele>1607.000000</ele>
        <time>2020-08-22T10:48:49Z</time>
      </trkpt>
      <trkpt lat="42.498772" lon="1.557122">
        <ele>1607.000000</ele>
        <time>2020-08-22T10:48:49Z</time>
      </trkpt>
      <trkpt lat="42.498764" lon="1.557135">
        <ele>1608.000000</ele>
        <time>2020-08-22T10:48:49Z</time>
      </trkpt>
      <trkpt lat="42.498764" lon="1.557135">
        <ele>1608.000000</ele>
        <time>2020-08-22T10:48:49Z</time>
      </trkpt>
      <trkpt lat="42.498756" lon="1.557147">
        <ele>1612.000000</ele>
        <time>2020-08-22T10:48:56Z</time>
      </trkpt>
      <trkpt lat="42.498756" lon="1.557147">
        <ele>1612.000000</ele>
        <time>2020-08-22T10:48:56Z</time>
      </trkpt>
      <trkpt lat="42.498745" lon="1.557160">
        <ele>1612.000000</ele>
        <time>2020-08-22T10:48:56Z</time>
      </trkpt>
      <trkpt lat="42.498745" lon="1.557160">
        <ele>1612.000000</ele>
        <time>2020-08-22T10:48:56Z</time>
      </trkpt>
      <trkpt lat="42.498745" lon="1.557174">
        <ele>1613.000000</ele>
        <time>2020-08-22T10:48:56Z</time>
      </trkpt>
      <trkpt lat="42.498745" lon="1.557174">
        <ele>1613.000000</ele>
        <time>2020-08-22T10:48:56Z</time>
      </trkpt>
      <trkpt lat="42.498745" lon="1.557189">
        <ele>1613.000000</ele>
        <time>2020-08-22T10:48:56Z</time>
      </trkpt>
      <trkpt lat="42.498745" lon="1.557189">
        <ele>1613.000000</ele>
        <time>2020-08-22T10:48:56Z</time>
      </trkpt>
      <trkpt lat="42.498745" lon="1.557204">
        <ele>1614.000000</ele>
        <time>2020-08-22T10:48:56Z</time>
      </trkpt>
      <trkpt lat="42.498745" lon="1.557204">
        <ele>1614.000000</ele>
        <time>2020-08-22T10:48:56Z</time>
      </trkpt>
      <trkpt lat="42.498741" lon="1.557220">
        <ele>1614.000000</ele>
        <time>2020-08-22T10:48:56Z</time>
      </trkpt>
      <trkpt lat="42.498741" lon="1.557220">
        <ele>1614.000000</ele>
        <time>2020-08-22T10:48:56Z</time>
      </trkpt>
      <trkpt lat="42.498737" lon="1.557236">
        <ele>1614.000000</ele>
        <time>2020-08-22T10:49:03Z</time>
      </trkpt>
      <trkpt lat="42.498737" lon="1.557236">
        <ele>1615.000000</ele>
        <time>2020-08-22T10:49:03Z</time>
      </trkpt>
      <trkpt lat="42.498734" lon="1.557251">
        <ele>1615.000000</ele>
        <time>2020-08-22T10:49:03Z</time>
      </trkpt>
      <trkpt lat="42.498734" lon="1.557251">
        <ele>1615.000000</ele>
        <time>2020-08-22T10:49:03Z</time>
      </trkpt>
      <trkpt lat="42.498730" lon="1.557265">
        <ele>1615.000000</ele>
        <time>2020-08-22T10:49:03Z</time>
      </trkpt>
      <trkpt lat="42.498730" lon="1.557265">
        <ele>1616.000000</ele>
        <time>2020-08-22T10:49:03Z</time>
      </trkpt>
      <trkpt lat="42.498726" lon="1.557278">
        <ele>1616.000000</ele>
        <time>2020-08-22T10:49:03Z</time>
      </trkpt>
      <trkpt lat="42.498726" lon="1.557278">
        <ele>1616.000000</ele>
        <time>2020-08-22T10:49:03Z</time>
      </trkpt>
      <trkpt lat="42.498718" lon="1.557291">
        <ele>1620.000000</ele>
        <time>2020-08-22T10:49:03Z</time>
      </trkpt>
      <trkpt lat="42.498718" lon="1.557291">
        <ele>1620.000000</ele>
        <time>2020-08-22T10:49:03Z</time>
      </trkpt>
      <trkpt lat="42.498718" lon="1.557304">
        <ele>1620.000000</ele>
        <time>2020-08-22T10:49:03Z</time>
      </trkpt>
      <trkpt lat="42.498718" lon="1.557304">
        <ele>1620.000000</ele>
        <time>2020-08-22T10:49:03Z</time>
      </trkpt>
      <trkpt lat="42.498711" lon="1.557318">
        <ele>1620.000000</ele>
        <time>2020-08-22T10:49:03Z</time>
      </trkpt>
      <trkpt lat="42.498711" lon="1.557318">
        <ele>1620.000000</ele>
        <time>2020-08-22T10:49:03Z</time>
      </trkpt>
      <trkpt lat="42.498703" lon="1.557333">
        <ele>1620.000000</ele>
        <time>2020-08-22T10:49:10Z</time>
      </trkpt>
      <trkpt lat="42.498703" lon="1.557333">
        <ele>1620.000000</ele>
        <time>2020-08-22T10:49:10Z</time>
      </trkpt>
      <trkpt lat="42.498699" lon="1.557347">
        <ele>1620.000000</ele>
        <time>2020-08-22T10:49:10Z</time>
      </trkpt>
      <trkpt lat="42.498699" lon="1.557347">
        <ele>1620.000000</ele>
        <time>2020-08-22T10:49:10Z</time>
      </trkpt>
      <trkpt lat="42.498692" lon="1.557362">
        <ele>1620.000000</ele>
        <time>2020-08-22T10:49:10Z</time>
      </trkpt>
      <trkpt lat="42.498692" lon="1.557362">
        <ele>1620.000000</ele>
        <time>2020-08-22T10:49:10Z</time>
      </trkpt>
      <trkpt lat="42.498688" lon="1.557376">
        <ele>1620.000000</ele>
        <time>2020-08-22T10:49:10Z</time>
      </trkpt>
      <trkpt lat="42.498688" lon="1.557376">
        <ele>1620.000000</ele>
        <time>2020-08-22T10:49:10Z</time>
      </trkpt>
      <trkpt lat="42.498680" lon="1.557390">
        <ele>1620.000000</ele>
        <time>2020-08-22T10:49:10Z</time>
      </trkpt>
      <trkpt lat="42.498680" lon="1.557390">
        <ele>1620.000000</ele>
        <time>2020-08-22T10:49:10Z</time>
      </trkpt>
      <trkpt lat="42.498672" lon="1.557406">
        <ele>1620.000000</ele>
        <time>2020-08-22T10:49:17Z</time>
      </trkpt>
      <trkpt lat="42.498672" lon="1.557406">
        <ele>1620.000000</ele>
        <time>2020-08-22T10:49:17Z</time>
      </trkpt>
      <trkpt lat="42.498665" lon="1.557423">
        <ele>1620.000000</ele>
        <time>2020-08-22T10:49:17Z</time>
      </trkpt>
      <trkpt lat="42.498665" lon="1.557423">
        <ele>1620.000000</ele>
        <time>2020-08-22T10:49:17Z</time>
      </trkpt>
      <trkpt lat="42.498657" lon="1.557443">
        <ele>1620.000000</ele>
        <time>2020-08-22T10:49:17Z</time>
      </trkpt>
      <trkpt lat="42.498657" lon="1.557443">
        <ele>1620.000000</ele>
        <time>2020-08-22T10:49:17Z</time>
      </trkpt>
      <trkpt lat="42.498650" lon="1.557463">
        <ele>1620.000000</ele>
        <time>2020-08-22T10:49:17Z</time>
      </trkpt>
      <trkpt lat="42.498650" lon="1.557463">
        <ele>1620.000000</ele>
        <time>2020-08-22T10:49:17Z</time>
      </trkpt>
      <trkpt lat="42.498650" lon="1.557480">
        <ele>1620.000000</ele>
        <time>2020-08-22T10:49:17Z</time>
      </trkpt>
      <trkpt lat="42.498650" lon="1.557480">
        <ele>1620.000000</ele>
        <time>2020-08-22T10:49:17Z</time>
      </trkpt>
      <trkpt lat="42.498646" lon="1.557497">
        <ele>1620.000000</ele>
        <time>2020-08-22T10:49:17Z</time>
      </trkpt>
      <trkpt lat="42.498646" lon="1.557497">
        <ele>1620.000000</ele>
        <time>2020-08-22T10:49:17Z</time>
      </trkpt>
      <trkpt lat="42.498642" lon="1.557514">
        <ele>1620.000000</ele>
        <time>2020-08-22T10:49:17Z</time>
      </trkpt>
      <trkpt lat="42.498642" lon="1.557514">
        <ele>1623.000000</ele>
        <time>2020-08-22T10:49:17Z</time>
      </trkpt>
      <trkpt lat="42.498638" lon="1.557531">
        <ele>1625.000000</ele>
        <time>2020-08-22T10:49:17Z</time>
      </trkpt>
      <trkpt lat="42.498638" lon="1.557531">
        <ele>1625.000000</ele>
        <time>2020-08-22T10:49:17Z</time>
      </trkpt>
      <trkpt lat="42.498634" lon="1.557547">
        <ele>1625.000000</ele>
        <time>2020-08-22T10:49:17Z</time>
      </trkpt>
      <trkpt lat="42.498634" lon="1.557547">
        <ele>1625.000000</ele>
        <time>2020-08-22T10:49:17Z</time>
      </trkpt>
      <trkpt lat="42.498631" lon="1.557563">
        <ele>1625.000000</ele>
        <time>2020-08-22T10:49:17Z</time>
      </trkpt>
      <trkpt lat="42.498631" lon="1.557563">
        <ele>1625.000000</ele>
        <time>2020-08-22T10:49:17Z</time>
      </trkpt>
      <trkpt lat="42.498627" lon="1.557578">
        <ele>1625.000000</ele>
        <time>2020-08-22T10:49:17Z</time>
      </trkpt>
      <trkpt lat="42.498627" lon="1.557578">
        <ele>1625.000000</ele>
        <time>2020-08-22T10:49:17Z</time>
      </trkpt>
      <trkpt lat="42.498623" lon="1.557589">
        <ele>1625.000000</ele>
        <time>2020-08-22T10:49:17Z</time>
      </trkpt>
      <trkpt lat="42.498623" lon="1.557589">
        <ele>1626.000000</ele>
        <time>2020-08-22T10:49:17Z</time>
      </trkpt>
      <trkpt lat="42.498619" lon="1.557598">
        <ele>1626.000000</ele>
        <time>2020-08-22T10:49:24Z</time>
      </trkpt>
      <trkpt lat="42.498619" lon="1.557598">
        <ele>1626.000000</ele>
        <time>2020-08-22T10:49:24Z</time>
      </trkpt>
      <trkpt lat="42.498611" lon="1.557606">
        <ele>1626.000000</ele>
        <time>2020-08-22T10:49:24Z</time>
      </trkpt>
      <trkpt lat="42.498611" lon="1.557606">
        <ele>1626.000000</ele>
        <time>2020-08-22T10:49:24Z</time>
      </trkpt>
      <trkpt lat="42.498604" lon="1.557611">
        <ele>1627.000000</ele>
        <time>2020-08-22T10:49:24Z</time>
      </trkpt>
      <trkpt lat="42.498604" lon="1.557611">
        <ele>1627.000000</ele>
        <time>2020-08-22T10:49:24Z</time>
      </trkpt>
      <trkpt lat="42.498596" lon="1.557614">
        <ele>1627.000000</ele>
        <time>2020-08-22T10:49:24Z</time>
      </trkpt>
      <trkpt lat="42.498596" lon="1.557614">
        <ele>1627.000000</ele>
        <time>2020-08-22T10:49:24Z</time>
      </trkpt>
      <trkpt lat="42.498589" lon="1.557617">
        <ele>1627.000000</ele>
        <time>2020-08-22T10:49:24Z</time>
      </trkpt>
      <trkpt lat="42.498589" lon="1.557617">
        <ele>1628.000000</ele>
        <time>2020-08-22T10:49:24Z</time>
      </trkpt>
      <trkpt lat="42.498581" lon="1.557622">
        <ele>1629.000000</ele>
        <time>2020-08-22T10:49:24Z</time>
      </trkpt>
      <trkpt lat="42.498581" lon="1.557622">
        <ele>1629.000000</ele>
        <time>2020-08-22T10:49:24Z</time>
      </trkpt>
      <trkpt lat="42.498569" lon="1.557627">
        <ele>1630.000000</ele>
        <time>2020-08-22T10:49:24Z</time>
      </trkpt>
      <trkpt lat="42.498569" lon="1.557627">
        <ele>1630.000000</ele>
        <time>2020-08-22T10:49:24Z</time>
      </trkpt>
      <trkpt lat="42.498562" lon="1.557633">
        <ele>1630.000000</ele>
        <time>2020-08-22T10:49:33Z</time>
      </trkpt>
      <trkpt lat="42.498562" lon="1.557633">
        <ele>1630.000000</ele>
        <time>2020-08-22T10:49:33Z</time>
      </trkpt>
      <trkpt lat="42.498554" lon="1.557640">
        <ele>1630.000000</ele>
        <time>2020-08-22T10:49:33Z</time>
      </trkpt>
      <trkpt lat="42.498554" lon="1.557640">
        <ele>1631.000000</ele>
        <time>2020-08-22T10:49:33Z</time>
      </trkpt>
      <trkpt lat="42.498547" lon="1.557649">
        <ele>1631.000000</ele>
        <time>2020-08-22T10:49:33Z</time>
      </trkpt>
      <trkpt lat="42.498547" lon="1.557649">
        <ele>1631.000000</ele>
        <time>2020-08-22T10:49:33Z</time>
      </trkpt>
      <trkpt lat="42.498539" lon="1.557658">
        <ele>1632.000000</ele>
        <time>2020-08-22T10:49:33Z</time>
      </trkpt>
      <trkpt lat="42.498539" lon="1.557658">
        <ele>1633.000000</ele>
        <time>2020-08-22T10:49:33Z</time>
      </trkpt>
      <trkpt lat="42.498531" lon="1.557669">
        <ele>1633.000000</ele>
        <time>2020-08-22T10:49:33Z</time>
      </trkpt>
      <trkpt lat="42.498531" lon="1.557669">
        <ele>1633.000000</ele>
        <time>2020-08-22T10:49:33Z</time>
      </trkpt>
      <trkpt lat="42.498516" lon="1.557686">
        <ele>1633.000000</ele>
        <time>2020-08-22T10:49:33Z</time>
      </trkpt>
      <trkpt lat="42.498516" lon="1.557686">
        <ele>1633.000000</ele>
        <time>2020-08-22T10:49:33Z</time>
      </trkpt>
      <trkpt lat="42.498497" lon="1.557703">
        <ele>1633.000000</ele>
        <time>2020-08-22T10:49:33Z</time>
      </trkpt>
      <trkpt lat="42.498497" lon="1.557703">
        <ele>1633.000000</ele>
        <time>2020-08-22T10:49:33Z</time>
      </trkpt>
      <trkpt lat="42.498482" lon="1.557719">
        <ele>1633.000000</ele>
        <time>2020-08-22T10:49:33Z</time>
      </trkpt>
      <trkpt lat="42.498482" lon="1.557719">
        <ele>1633.000000</ele>
        <time>2020-08-22T10:49:33Z</time>
      </trkpt>
      <trkpt lat="42.498463" lon="1.557734">
        <ele>1633.000000</ele>
        <time>2020-08-22T10:49:33Z</time>
      </trkpt>
      <trkpt lat="42.498463" lon="1.557734">
        <ele>1633.000000</ele>
        <time>2020-08-22T10:49:33Z</time>
      </trkpt>
      <trkpt lat="42.498447" lon="1.557749">
        <ele>1633.000000</ele>
        <time>2020-08-22T10:49:40Z</time>
      </trkpt>
      <trkpt lat="42.498447" lon="1.557749">
        <ele>1634.000000</ele>
        <time>2020-08-22T10:49:40Z</time>
      </trkpt>
      <trkpt lat="42.498428" lon="1.557763">
        <ele>1634.000000</ele>
        <time>2020-08-22T10:49:40Z</time>
      </trkpt>
      <trkpt lat="42.498428" lon="1.557763">
        <ele>1634.000000</ele>
        <time>2020-08-22T10:49:40Z</time>
      </trkpt>
      <trkpt lat="42.498409" lon="1.557776">
        <ele>1634.000000</ele>
        <time>2020-08-22T10:49:40Z</time>
      </trkpt>
      <trkpt lat="42.498409" lon="1.557776">
        <ele>1634.000000</ele>
        <time>2020-08-22T10:49:40Z</time>
      </trkpt>
      <trkpt lat="42.498390" lon="1.557788">
        <ele>1634.000000</ele>
        <time>2020-08-22T10:49:40Z</time>
      </trkpt>
      <trkpt lat="42.498390" lon="1.557788">
        <ele>1634.000000</ele>
        <time>2020-08-22T10:49:40Z</time>
      </trkpt>
      <trkpt lat="42.498375" lon="1.557798">
        <ele>1635.000000</ele>
        <time>2020-08-22T10:49:40Z</time>
      </trkpt>
      <trkpt lat="42.498375" lon="1.557798">
        <ele>1635.000000</ele>
        <time>2020-08-22T10:49:40Z</time>
      </trkpt>
      <trkpt lat="42.498356" lon="1.557807">
        <ele>1636.000000</ele>
        <time>2020-08-22T10:49:40Z</time>
      </trkpt>
      <trkpt lat="42.498356" lon="1.557807">
        <ele>1636.000000</ele>
        <time>2020-08-22T10:49:40Z</time>
      </trkpt>
      <trkpt lat="42.498348" lon="1.557818">
        <ele>1636.000000</ele>
        <time>2020-08-22T10:49:40Z</time>
      </trkpt>
      <trkpt lat="42.498348" lon="1.557818">
        <ele>1636.000000</ele>
        <time>2020-08-22T10:49:40Z</time>
      </trkpt>
      <trkpt lat="42.498341" lon="1.557829">
        <ele>1637.000000</ele>
        <time>2020-08-22T10:49:40Z</time>
      </trkpt>
      <trkpt lat="42.498341" lon="1.557829">
        <ele>1637.000000</ele>
        <time>2020-08-22T10:49:40Z</time>
      </trkpt>
      <trkpt lat="42.498337" lon="1.557841">
        <ele>1637.000000</ele>
        <time>2020-08-22T10:49:47Z</time>
      </trkpt>
      <trkpt lat="42.498337" lon="1.557841">
        <ele>1637.000000</ele>
        <time>2020-08-22T10:49:47Z</time>
      </trkpt>
      <trkpt lat="42.498337" lon="1.557853">
        <ele>1639.000000</ele>
        <time>2020-08-22T10:49:47Z</time>
      </trkpt>
      <trkpt lat="42.498337" lon="1.557853">
        <ele>1639.000000</ele>
        <time>2020-08-22T10:49:47Z</time>
      </trkpt>
      <trkpt lat="42.498333" lon="1.557864">
        <ele>1640.000000</ele>
        <time>2020-08-22T10:49:47Z</time>
      </trkpt>
      <trkpt lat="42.498333" lon="1.557864">
        <ele>1640.000000</ele>
        <time>2020-08-22T10:49:47Z</time>
      </trkpt>
      <trkpt lat="42.498337" lon="1.557874">
        <ele>1640.000000</ele>
        <time>2020-08-22T10:49:47Z</time>
      </trkpt>
      <trkpt lat="42.498337" lon="1.557874">
        <ele>1640.000000</ele>
        <time>2020-08-22T10:49:47Z</time>
      </trkpt>
      <trkpt lat="42.498337" lon="1.557883">
        <ele>1640.000000</ele>
        <time>2020-08-22T10:49:47Z</time>
      </trkpt>
      <trkpt lat="42.498337" lon="1.557883">
        <ele>1641.000000</ele>
        <time>2020-08-22T10:49:47Z</time>
      </trkpt>
      <trkpt lat="42.498341" lon="1.557891">
        <ele>1641.000000</ele>
        <time>2020-08-22T10:49:54Z</time>
      </trkpt>
      <trkpt lat="42.498341" lon="1.557891">
        <ele>1641.000000</ele>
        <time>2020-08-22T10:49:54Z</time>
      </trkpt>
      <trkpt lat="42.498348" lon="1.557899">
        <ele>1642.000000</ele>
        <time>2020-08-22T10:49:54Z</time>
      </trkpt>
      <trkpt lat="42.498348" lon="1.557899">
        <ele>1642.000000</ele>
        <time>2020-08-22T10:49:54Z</time>
      </trkpt>
      <trkpt lat="42.498352" lon="1.557904">
        <ele>1642.000000</ele>
        <time>2020-08-22T10:49:54Z</time>
      </trkpt>
      <trkpt lat="42.498352" lon="1.557904">
        <ele>1643.000000</ele>
        <time>2020-08-22T10:49:54Z</time>
      </trkpt>
      <trkpt lat="42.498352" lon="1.557908">
        <ele>1643.000000</ele>
        <time>2020-08-22T10:49:54Z</time>
      </trkpt>
      <trkpt lat="42.498352" lon="1.557908">
        <ele>1643.000000</ele>
        <time>2020-08-22T10:49:54Z</time>
      </trkpt>
      <trkpt lat="42.498356" lon="1.557912">
        <ele>1643.000000</ele>
        <time>2020-08-22T10:49:54Z</time>
      </trkpt>
      <trkpt lat="42.498356" lon="1.557912">
        <ele>1643.000000</ele>
        <time>2020-08-22T10:49:54Z</time>
      </trkpt>
      <trkpt lat="42.498352" lon="1.557914">
        <ele>1643.000000</ele>
        <time>2020-08-22T10:49:54Z</time>
      </trkpt>
      <trkpt lat="42.498352" lon="1.557914">
        <ele>1643.000000</ele>
        <time>2020-08-22T10:49:54Z</time>
      </trkpt>
      <trkpt lat="42.498341" lon="1.558001">
        <ele>1643.000000</ele>
        <time>2020-08-22T10:49:54Z</time>
      </trkpt>
      <trkpt lat="42.498341" lon="1.558001">
        <ele>1643.000000</ele>
        <time>2020-08-22T10:49:54Z</time>
      </trkpt>
      <trkpt lat="42.498337" lon="1.558002">
        <ele>1643.000000</ele>
        <time>2020-08-22T10:49:54Z</time>
      </trkpt>
      <trkpt lat="42.498337" lon="1.558002">
        <ele>1643.000000</ele>
        <time>2020-08-22T10:49:54Z</time>
      </trkpt>
      <trkpt lat="42.498333" lon="1.558004">
        <ele>1643.000000</ele>
        <time>2020-08-22T10:49:54Z</time>
      </trkpt>
      <trkpt lat="42.498333" lon="1.558004">
        <ele>1643.000000</ele>
        <time>2020-08-22T10:49:54Z</time>
      </trkpt>
      <trkpt lat="42.498329" lon="1.558004">
        <ele>1643.000000</ele>
        <time>2020-08-22T10:49:54Z</time>
      </trkpt>
      <trkpt lat="42.498329" lon="1.558004">
        <ele>1643.000000</ele>
        <time>2020-08-22T10:49:54Z</time>
      </trkpt>
      <trkpt lat="42.498325" lon="1.558004">
        <ele>1643.000000</ele>
        <time>2020-08-22T10:49:54Z</time>
      </trkpt>
      <trkpt lat="42.498325" lon="1.558004">
        <ele>1643.000000</ele>
        <time>2020-08-22T10:49:54Z</time>
      </trkpt>
      <trkpt lat="42.498322" lon="1.558004">
        <ele>1646.000000</ele>
        <time>2020-08-22T10:50:03Z</time>
      </trkpt>
      <trkpt lat="42.498322" lon="1.558004">
        <ele>1646.000000</ele>
        <time>2020-08-22T10:50:03Z</time>
      </trkpt>
      <trkpt lat="42.498310" lon="1.558005">
        <ele>1646.000000</ele>
        <time>2020-08-22T10:50:03Z</time>
      </trkpt>
      <trkpt lat="42.498310" lon="1.558005">
        <ele>1646.000000</ele>
        <time>2020-08-22T10:50:03Z</time>
      </trkpt>
      <trkpt lat="42.498302" lon="1.558006">
        <ele>1647.000000</ele>
        <time>2020-08-22T10:50:03Z</time>
      </trkpt>
      <trkpt lat="42.498302" lon="1.558006">
        <ele>1647.000000</ele>
        <time>2020-08-22T10:50:03Z</time>
      </trkpt>
      <trkpt lat="42.498295" lon="1.558007">
        <ele>1647.000000</ele>
        <time>2020-08-22T10:50:03Z</time>
      </trkpt>
      <trkpt lat="42.498295" lon="1.558007">
        <ele>1647.000000</ele>
        <time>2020-08-22T10:50:03Z</time>
      </trkpt>
      <trkpt lat="42.498287" lon="1.558009">
        <ele>1648.000000</ele>
        <time>2020-08-22T10:50:03Z</time>
      </trkpt>
      <trkpt lat="42.498287" lon="1.558009">
        <ele>1648.000000</ele>
        <time>2020-08-22T10:50:03Z</time>
      </trkpt>
      <trkpt lat="42.498280" lon="1.558011">
        <ele>1651.000000</ele>
        <time>2020-08-22T10:50:03Z</time>
      </trkpt>
      <trkpt lat="42.498280" lon="1.558011">
        <ele>1651.000000</ele>
        <time>2020-08-22T10:50:03Z</time>
      </trkpt>
      <trkpt lat="42.498272" lon="1.558013">
        <ele>1651.000000</ele>
        <time>2020-08-22T10:50:03Z</time>
      </trkpt>
      <trkpt lat="42.498272" lon="1.558013">
        <ele>1651.000000</ele>
        <time>2020-08-22T10:50:03Z</time>
      </trkpt>
      <trkpt lat="42.498268" lon="1.558015">
        <ele>1652.000000</ele>
        <time>2020-08-22T10:50:03Z</time>
      </trkpt>
      <trkpt lat="42.498268" lon="1.558015">
        <ele>1652.000000</ele>
        <time>2020-08-22T10:50:03Z</time>
      </trkpt>
      <trkpt lat="42.498260" lon="1.558016">
        <ele>1652.000000</ele>
        <time>2020-08-22T10:50:03Z</time>
      </trkpt>
      <trkpt lat="42.498260" lon="1.558016">
        <ele>1652.000000</ele>
        <time>2020-08-22T10:50:03Z</time>
      </trkpt>
      <trkpt lat="42.498260" lon="1.558018">
        <ele>1652.000000</ele>
        <time>2020-08-22T10:50:03Z</time>
      </trkpt>
      <trkpt lat="42.498260" lon="1.558018">
        <ele>1652.000000</ele>
        <time>2020-08-22T10:50:03Z</time>
      </trkpt>
      <trkpt lat="42.498260" lon="1.558016">
        <ele>1656.000000</ele>
        <time>2020-08-22T10:50:03Z</time>
      </trkpt>
      <trkpt lat="42.498260" lon="1.558016">
        <ele>1656.000000</ele>
        <time>2020-08-22T10:50:03Z</time>
      </trkpt>
      <trkpt lat="42.498264" lon="1.558014">
        <ele>1656.000000</ele>
        <time>2020-08-22T10:50:10Z</time>
      </trkpt>
      <trkpt lat="42.498264" lon="1.558014">
        <ele>1656.000000</ele>
        <time>2020-08-22T10:50:10Z</time>
      </trkpt>
      <trkpt lat="42.498268" lon="1.558011">
        <ele>1656.000000</ele>
        <time>2020-08-22T10:50:10Z</time>
      </trkpt>
      <trkpt lat="42.498268" lon="1.558011">
        <ele>1656.000000</ele>
        <time>2020-08-22T10:50:10Z</time>
      </trkpt>
      <trkpt lat="42.498276" lon="1.558006">
        <ele>1656.000000</ele>
        <time>2020-08-22T10:50:10Z</time>
      </trkpt>
      <trkpt lat="42.498276" lon="1.558006">
        <ele>1656.000000</ele>
        <time>2020-08-22T10:50:10Z</time>
      </trkpt>
      <trkpt lat="42.498283" lon="1.558001">
        <ele>1656.000000</ele>
        <time>2020-08-22T10:50:10Z</time>
      </trkpt>
      <trkpt lat="42.498283" lon="1.558001">
        <ele>1656.000000</ele>
        <time>2020-08-22T10:50:10Z</time>
      </trkpt>
      <trkpt lat="42.498302" lon="1.557944">
        <ele>1656.000000</ele>
        <time>2020-08-22T10:50:10Z</time>
      </trkpt>
      <trkpt lat="42.498302" lon="1.557944">
        <ele>1656.000000</ele>
        <time>2020-08-22T10:50:10Z</time>
      </trkpt>
      <trkpt lat="42.498302" lon="1.557939">
        <ele>1656.000000</ele>
        <time>2020-08-22T10:50:10Z</time>
      </trkpt>
      <trkpt lat="42.498302" lon="1.557939">
        <ele>1656.000000</ele>
        <time>2020-08-22T10:50:10Z</time>
      </trkpt>
      <trkpt lat="42.498306" lon="1.557933">
        <ele>1657.000000</ele>
        <time>2020-08-22T10:50:17Z</time>
      </trkpt>
      <trkpt lat="42.498306" lon="1.557933">
        <ele>1657.000000</ele>
        <time>2020-08-22T10:50:17Z</time>
      </trkpt>
      <trkpt lat="42.498310" lon="1.557928">
        <ele>1657.000000</ele>
        <time>2020-08-22T10:50:17Z</time>
      </trkpt>
      <trkpt lat="42.498310" lon="1.557928">
        <ele>1657.000000</ele>
        <time>2020-08-22T10:50:17Z</time>
      </trkpt>
      <trkpt lat="42.498314" lon="1.557924">
        <ele>1657.000000</ele>
        <time>2020-08-22T10:50:17Z</time>
      </trkpt>
      <trkpt lat="42.498314" lon="1.557924">
        <ele>1657.000000</ele>
        <time>2020-08-22T10:50:17Z</time>
      </trkpt>
      <trkpt lat="42.498314" lon="1.557921">
        <ele>1662.000000</ele>
        <time>2020-08-22T10:50:17Z</time>
      </trkpt>
      <trkpt lat="42.498314" lon="1.557921">
        <ele>1662.000000</ele>
        <time>2020-08-22T10:50:17Z</time>
      </trkpt>
      <trkpt lat="42.498314" lon="1.557918">
        <ele>1662.000000</ele>
        <time>2020-08-22T10:50:17Z</time>
      </trkpt>
      <trkpt lat="42.498314" lon="1.557918">
        <ele>1662.000000</ele>
        <time>2020-08-22T10:50:17Z</time>
      </trkpt>
      <trkpt lat="42.498318" lon="1.557915">
        <ele>1662.000000</ele>
        <time>2020-08-22T10:50:17Z</time>
      </trkpt>
      <trkpt lat="42.498318" lon="1.557915">
        <ele>1662.000000</ele>
        <time>2020-08-22T10:50:17Z</time>
      </trkpt>
      <trkpt lat="42.498322" lon="1.557911">
        <ele>1662.000000</ele>
        <time>2020-08-22T10:50:17Z</time>
      </trkpt>
      <trkpt lat="42.498322" lon="1.557911">
        <ele>1662.000000</ele>
        <time>2020-08-22T10:50:17Z</time>
      </trkpt>
      <trkpt lat="42.498322" lon="1.557909">
        <ele>1662.000000</ele>
        <time>2020-08-22T10:50:26Z</time>
      </trkpt>
      <trkpt lat="42.498322" lon="1.557909">
        <ele>1662.000000</ele>
        <time>2020-08-22T10:50:26Z</time>
      </trkpt>
      <trkpt lat="42.498325" lon="1.557905">
        <ele>1662.000000</ele>
        <time>2020-08-22T10:50:26Z</time>
      </trkpt>
      <trkpt lat="42.498325" lon="1.557905">
        <ele>1662.000000</ele>
        <time>2020-08-22T10:50:26Z</time>
      </trkpt>
      <trkpt lat="42.498329" lon="1.557903">
        <ele>1662.000000</ele>
        <time>2020-08-22T10:50:26Z</time>
      </trkpt>
      <trkpt lat="42.498329" lon="1.557903">
        <ele>1663.000000</ele>
        <time>2020-08-22T10:50:26Z</time>
      </trkpt>
      <trkpt lat="42.498329" lon="1.557907">
        <ele>1663.000000</ele>
        <time>2020-08-22T10:50:26Z</time>
      </trkpt>
      <trkpt lat="42.498329" lon="1.557907">
        <ele>1663.000000</ele>
        <time>2020-08-22T10:50:26Z</time>
      </trkpt>
      <trkpt lat="42.498325" lon="1.557914">
        <ele>1663.000000</ele>
        <time>2020-08-22T10:50:26Z</time>
      </trkpt>
      <trkpt lat="42.498325" lon="1.557914">
        <ele>1663.000000</ele>
        <time>2020-08-22T10:50:26Z</time>
      </trkpt>
      <trkpt lat="42.498360" lon="1.557939">
        <ele>1663.000000</ele>
        <time>2020-08-22T10:50:26Z</time>
      </trkpt>
      <trkpt lat="42.498360" lon="1.557939">
        <ele>1663.000000</ele>
        <time>2020-08-22T10:50:26Z</time>
      </trkpt>
      <trkpt lat="42.498356" lon="1.557937">
        <ele>1667.000000</ele>
        <time>2020-08-22T10:50:26Z</time>
      </trkpt>
      <trkpt lat="42.498356" lon="1.557937">
        <ele>1667.000000</ele>
        <time>2020-08-22T10:50:26Z</time>
      </trkpt>
      <trkpt lat="42.498356" lon="1.557935">
        <ele>1667.000000</ele>
        <time>2020-08-22T10:50:26Z</time>
      </trkpt>
      <trkpt lat="42.498356" lon="1.557935">
        <ele>1667.000000</ele>
        <time>2020-08-22T10:50:26Z</time>
      </trkpt>
      <trkpt lat="42.498360" lon="1.557932">
        <ele>1667.000000</ele>
        <time>2020-08-22T10:50:26Z</time>
      </trkpt>
      <trkpt lat="42.498360" lon="1.557932">
        <ele>1667.000000</ele>
        <time>2020-08-22T10:50:26Z</time>
      </trkpt>
      <trkpt lat="42.498360" lon="1.557928">
        <ele>1667.000000</ele>
        <time>2020-08-22T10:50:26Z</time>
      </trkpt>
      <trkpt lat="42.498360" lon="1.557928">
        <ele>1668.000000</ele>
        <time>2020-08-22T10:50:26Z</time>
      </trkpt>
      <trkpt lat="42.498360" lon="1.557924">
        <ele>1668.000000</ele>
        <time>2020-08-22T10:50:26Z</time>
      </trkpt>
      <trkpt lat="42.498360" lon="1.557924">
        <ele>1668.000000</ele>
        <time>2020-08-22T10:50:26Z</time>
      </trkpt>
      <trkpt lat="42.498363" lon="1.557921">
        <ele>1672.000000</ele>
        <time>2020-08-22T10:50:26Z</time>
      </trkpt>
      <trkpt lat="42.498363" lon="1.557921">
        <ele>1673.000000</ele>
        <time>2020-08-22T10:50:26Z</time>
      </trkpt>
      <trkpt lat="42.498363" lon="1.557917">
        <ele>1673.000000</ele>
        <time>2020-08-22T10:50:26Z</time>
      </trkpt>
      <trkpt lat="42.498363" lon="1.557917">
        <ele>1673.000000</ele>
        <time>2020-08-22T10:50:26Z</time>
      </trkpt>
      <trkpt lat="42.498363" lon="1.557914">
        <ele>1673.000000</ele>
        <time>2020-08-22T10:50:26Z</time>
      </trkpt>
      <trkpt lat="42.498363" lon="1.557914">
        <ele>1673.000000</ele>
        <time>2020-08-22T10:50:26Z</time>
      </trkpt>
      <trkpt lat="42.498363" lon="1.557910">
        <ele>1673.000000</ele>
        <time>2020-08-22T10:50:26Z</time>
      </trkpt>
      <trkpt lat="42.498363" lon="1.557910">
        <ele>1673.000000</ele>
        <time>2020-08-22T10:50:26Z</time>
      </trkpt>
      <trkpt lat="42.498352" lon="1.557925">
        <ele>1673.000000</ele>
        <time>2020-08-22T10:50:26Z</time>
      </trkpt>
      <trkpt lat="42.498352" lon="1.557925">
        <ele>1673.000000</ele>
        <time>2020-08-22T10:50:26Z</time>
      </trkpt>
      <trkpt lat="42.498337" lon="1.557941">
        <ele>1676.000000</ele>
        <time>2020-08-22T10:50:26Z</time>
      </trkpt>
      <trkpt lat="42.498337" lon="1.557941">
        <ele>1676.000000</ele>
        <time>2020-08-22T10:50:26Z</time>
      </trkpt>
      <trkpt lat="42.498325" lon="1.557958">
        <ele>1676.000000</ele>
        <time>2020-08-22T10:50:26Z</time>
      </trkpt>
      <trkpt lat="42.498325" lon="1.557958">
        <ele>1676.000000</ele>
        <time>2020-08-22T10:50:26Z</time>
      </trkpt>
      <trkpt lat="42.498314" lon="1.557977">
        <ele>1676.000000</ele>
        <time>2020-08-22T10:50:26Z</time>
      </trkpt>
      <trkpt lat="42.498314" lon="1.557977">
        <ele>1676.000000</ele>
        <time>2020-08-22T10:50:26Z</time>
      </trkpt>
      <trkpt lat="42.498299" lon="1.557999">
        <ele>1676.000000</ele>
        <time>2020-08-22T10:50:26Z</time>
      </trkpt>
      <trkpt lat="42.498299" lon="1.557999">
        <ele>1676.000000</ele>
        <time>2020-08-22T10:50:26Z</time>
      </trkpt>
      <trkpt lat="42.498287" lon="1.558022">
        <ele>1676.000000</ele>
        <time>2020-08-22T10:50:26Z</time>
      </trkpt>
      <trkpt lat="42.498287" lon="1.558022">
        <ele>1676.000000</ele>
        <time>2020-08-22T10:50:26Z</time>
      </trkpt>
      <trkpt lat="42.498268" lon="1.558046">
        <ele>1676.000000</ele>
        <time>2020-08-22T10:50:26Z</time>
      </trkpt>
      <trkpt lat="42.498268" lon="1.558046">
        <ele>1676.000000</ele>
        <time>2020-08-22T10:50:26Z</time>
      </trkpt>
      <trkpt lat="42.498253" lon="1.558072">
        <ele>1676.000000</ele>
        <time>2020-08-22T10:50:26Z</time>
      </trkpt>
      <trkpt lat="42.498253" lon="1.558072">
        <ele>1676.000000</ele>
        <time>2020-08-22T10:50:26Z</time>
      </trkpt>
      <trkpt lat="42.498238" lon="1.558101">
        <ele>1676.000000</ele>
        <time>2020-08-22T10:50:26Z</time>
      </trkpt>
      <trkpt lat="42.498238" lon="1.558101">
        <ele>1676.000000</ele>
        <time>2020-08-22T10:50:26Z</time>
      </trkpt>
      <trkpt lat="42.498222" lon="1.558131">
        <ele>1676.000000</ele>
        <time>2020-08-22T10:50:26Z</time>
      </trkpt>
      <trkpt lat="42.498222" lon="1.558131">
        <ele>1676.000000</ele>
        <time>2020-08-22T10:50:26Z</time>
      </trkpt>
      <trkpt lat="42.498219" lon="1.558143">
        <ele>1676.000000</ele>
        <time>2020-08-22T10:50:26Z</time>
      </trkpt>
      <trkpt lat="42.498219" lon="1.558143">
        <ele>1676.000000</ele>
        <time>2020-08-22T10:50:26Z</time>
      </trkpt>
      <trkpt lat="42.498215" lon="1.558154">
        <ele>1676.000000</ele>
        <time>2020-08-22T10:50:26Z</time>
      </trkpt>
      <trkpt lat="42.498215" lon="1.558154">
        <ele>1676.000000</ele>
        <time>2020-08-22T10:50:26Z</time>
      </trkpt>
      <trkpt lat="42.498215" lon="1.558164">
        <ele>1676.000000</ele>
        <time>2020-08-22T10:50:26Z</time>
      </trkpt>
      <trkpt lat="42.498215" lon="1.558164">
        <ele>1676.000000</ele>
        <time>2020-08-22T10:50:26Z</time>
      </trkpt>
      <trkpt lat="42.498211" lon="1.558174">
        <ele>1676.000000</ele>
        <time>2020-08-22T10:50:26Z</time>
      </trkpt>
      <trkpt lat="42.498211" lon="1.558174">
        <ele>1676.000000</ele>
        <time>2020-08-22T10:50:26Z</time>
      </trkpt>
      <trkpt lat="42.498207" lon="1.558181">
        <ele>1676.000000</ele>
        <time>2020-08-22T10:50:26Z</time>
      </trkpt>
      <trkpt lat="42.498207" lon="1.558181">
        <ele>1676.000000</ele>
        <time>2020-08-22T10:50:26Z</time>
      </trkpt>
      <trkpt lat="42.498207" lon="1.558187">
        <ele>1676.000000</ele>
        <time>2020-08-22T10:50:33Z</time>
      </trkpt>
      <trkpt lat="42.498207" lon="1.558187">
        <ele>1676.000000</ele>
        <time>2020-08-22T10:50:33Z</time>
      </trkpt>
      <trkpt lat="42.498207" lon="1.558190">
        <ele>1676.000000</ele>
        <time>2020-08-22T10:50:33Z</time>
      </trkpt>
      <trkpt lat="42.498207" lon="1.558190">
        <ele>1676.000000</ele>
        <time>2020-08-22T10:50:33Z</time>
      </trkpt>
      <trkpt lat="42.498211" lon="1.558192">
        <ele>1676.000000</ele>
        <time>2020-08-22T10:50:33Z</time>
      </trkpt>
      <trkpt lat="42.498211" lon="1.558192">
        <ele>1676.000000</ele>
        <time>2020-08-22T10:50:33Z</time>
      </trkpt>
      <trkpt lat="42.498215" lon="1.558190">
        <ele>1676.000000</ele>
        <time>2020-08-22T10:50:33Z</time>
      </trkpt>
      <trkpt lat="42.498215" lon="1.558190">
        <ele>1676.000000</ele>
        <time>2020-08-22T10:50:33Z</time>
      </trkpt>
      <trkpt lat="42.498222" lon="1.558187">
        <ele>1676.000000</ele>
        <time>2020-08-22T10:50:33Z</time>
      </trkpt>
      <trkpt lat="42.498222" lon="1.558187">
        <ele>1676.000000</ele>
        <time>2020-08-22T10:50:33Z</time>
      </trkpt>
      <trkpt lat="42.498222" lon="1.558186">
        <ele>1676.000000</ele>
        <time>2020-08-22T10:50:33Z</time>
      </trkpt>
      <trkpt lat="42.498222" lon="1.558186">
        <ele>1676.000000</ele>
        <time>2020-08-22T10:50:33Z</time>
      </trkpt>
      <trkpt lat="42.498222" lon="1.558184">
        <ele>1676.000000</ele>
        <time>2020-08-22T10:50:40Z</time>
      </trkpt>
      <trkpt lat="42.498222" lon="1.558184">
        <ele>1676.000000</ele>
        <time>2020-08-22T10:50:40Z</time>
      </trkpt>
      <trkpt lat="42.498222" lon="1.558183">
        <ele>1676.000000</ele>
        <time>2020-08-22T10:50:40Z</time>
      </trkpt>
      <trkpt lat="42.498222" lon="1.558183">
        <ele>1676.000000</ele>
        <time>2020-08-22T10:50:40Z</time>
      </trkpt>
      <trkpt lat="42.498226" lon="1.558181">
        <ele>1676.000000</ele>
        <time>2020-08-22T10:50:40Z</time>
      </trkpt>
      <trkpt lat="42.498226" lon="1.558181">
        <ele>1676.000000</ele>
        <time>2020-08-22T10:50:40Z</time>
      </trkpt>
      <trkpt lat="42.498230" lon="1.558179">
        <ele>1676.000000</ele>
        <time>2020-08-22T10:50:40Z</time>
      </trkpt>
      <trkpt lat="42.498230" lon="1.558179">
        <ele>1676.000000</ele>
        <time>2020-08-22T10:50:40Z</time>
      </trkpt>
      <trkpt lat="42.498234" lon="1.558179">
        <ele>1676.000000</ele>
        <time>2020-08-22T10:50:40Z</time>
      </trkpt>
      <trkpt lat="42.498234" lon="1.558179">
        <ele>1676.000000</ele>
        <time>2020-08-22T10:50:40Z</time>
      </trkpt>
      <trkpt lat="42.498238" lon="1.558179">
        <ele>1676.000000</ele>
        <time>2020-08-22T10:50:40Z</time>
      </trkpt>
      <trkpt lat="42.498238" lon="1.558179">
        <ele>1676.000000</ele>
        <time>2020-08-22T10:50:40Z</time>
      </trkpt>
      <trkpt lat="42.498241" lon="1.558181">
        <ele>1676.000000</ele>
        <time>2020-08-22T10:50:40Z</time>
      </trkpt>
      <trkpt lat="42.498241" lon="1.558181">
        <ele>1676.000000</ele>
        <time>2020-08-22T10:50:40Z</time>
      </trkpt>
      <trkpt lat="42.498241" lon="1.558183">
        <ele>1676.000000</ele>
        <time>2020-08-22T10:50:47Z</time>
      </trkpt>
      <trkpt lat="42.498241" lon="1.558183">
        <ele>1676.000000</ele>
        <time>2020-08-22T10:50:47Z</time>
      </trkpt>
      <trkpt lat="42.498249" lon="1.558187">
        <ele>1676.000000</ele>
        <time>2020-08-22T10:50:47Z</time>
      </trkpt>
      <trkpt lat="42.498249" lon="1.558187">
        <ele>1676.000000</ele>
        <time>2020-08-22T10:50:47Z</time>
      </trkpt>
      <trkpt lat="42.498257" lon="1.558187">
        <ele>1676.000000</ele>
        <time>2020-08-22T10:50:47Z</time>
      </trkpt>
      <trkpt lat="42.498257" lon="1.558187">
        <ele>1676.000000</ele>
        <time>2020-08-22T10:50:47Z</time>
      </trkpt>
      <trkpt lat="42.498268" lon="1.558188">
        <ele>1676.000000</ele>
        <time>2020-08-22T10:50:47Z</time>
      </trkpt>
      <trkpt lat="42.498268" lon="1.558188">
        <ele>1676.000000</ele>
        <time>2020-08-22T10:50:47Z</time>
      </trkpt>
      <trkpt lat="42.498276" lon="1.558190">
        <ele>1676.000000</ele>
        <time>2020-08-22T10:50:47Z</time>
      </trkpt>
      <trkpt lat="42.498276" lon="1.558190">
        <ele>1676.000000</ele>
        <time>2020-08-22T10:50:47Z</time>
      </trkpt>
      <trkpt lat="42.498283" lon="1.558192">
        <ele>1676.000000</ele>
        <time>2020-08-22T10:50:47Z</time>
      </trkpt>
      <trkpt lat="42.498283" lon="1.558192">
        <ele>1676.000000</ele>
        <time>2020-08-22T10:50:47Z</time>
      </trkpt>
      <trkpt lat="42.498291" lon="1.558195">
        <ele>1676.000000</ele>
        <time>2020-08-22T10:50:47Z</time>
      </trkpt>
      <trkpt lat="42.498291" lon="1.558195">
        <ele>1676.000000</ele>
        <time>2020-08-22T10:50:47Z</time>
      </trkpt>
      <trkpt lat="42.498299" lon="1.558200">
        <ele>1676.000000</ele>
        <time>2020-08-22T10:50:54Z</time>
      </trkpt>
      <trkpt lat="42.498299" lon="1.558200">
        <ele>1676.000000</ele>
        <time>2020-08-22T10:50:54Z</time>
      </trkpt>
      <trkpt lat="42.498306" lon="1.558207">
        <ele>1676.000000</ele>
        <time>2020-08-22T10:50:54Z</time>
      </trkpt>
      <trkpt lat="42.498306" lon="1.558207">
        <ele>1676.000000</ele>
        <time>2020-08-22T10:50:54Z</time>
      </trkpt>
      <trkpt lat="42.498314" lon="1.558217">
        <ele>1676.000000</ele>
        <time>2020-08-22T10:50:54Z</time>
      </trkpt>
      <trkpt lat="42.498314" lon="1.558217">
        <ele>1676.000000</ele>
        <time>2020-08-22T10:50:54Z</time>
      </trkpt>
      <trkpt lat="42.498318" lon="1.558230">
        <ele>1676.000000</ele>
        <time>2020-08-22T10:50:54Z</time>
      </trkpt>
      <trkpt lat="42.498318" lon="1.558230">
        <ele>1676.000000</ele>
        <time>2020-08-22T10:50:54Z</time>
      </trkpt>
      <trkpt lat="42.498322" lon="1.558244">
        <ele>1676.000000</ele>
        <time>2020-08-22T10:50:54Z</time>
      </trkpt>
      <trkpt lat="42.498322" lon="1.558244">
        <ele>1676.000000</ele>
        <time>2020-08-22T10:50:54Z</time>
      </trkpt>
      <trkpt lat="42.498329" lon="1.558258">
        <ele>1676.000000</ele>
        <time>2020-08-22T10:51:01Z</time>
      </trkpt>
      <trkpt lat="42.498329" lon="1.558258">
        <ele>1676.000000</ele>
        <time>2020-08-22T10:51:01Z</time>
      </trkpt>
      <trkpt lat="42.498333" lon="1.558273">
        <ele>1676.000000</ele>
        <time>2020-08-22T10:51:01Z</time>
      </trkpt>
      <trkpt lat="42.498333" lon="1.558273">
        <ele>1676.000000</ele>
        <time>2020-08-22T10:51:01Z</time>
      </trkpt>
      <trkpt lat="42.498337" lon="1.558288">
        <ele>1676.000000</ele>
        <time>2020-08-22T10:51:01Z</time>
      </trkpt>
      <trkpt lat="42.498337" lon="1.558288">
        <ele>1676.000000</ele>
        <time>2020-08-22T10:51:01Z</time>
      </trkpt>
      <trkpt lat="42.498341" lon="1.558304">
        <ele>1676.000000</ele>
        <time>2020-08-22T10:51:01Z</time>
      </trkpt>
      <trkpt lat="42.498341" lon="1.558304">
        <ele>1676.000000</ele>
        <time>2020-08-22T10:51:01Z</time>
      </trkpt>
      <trkpt lat="42.498341" lon="1.558319">
        <ele>1676.000000</ele>
        <time>2020-08-22T10:51:01Z</time>
      </trkpt>
      <trkpt lat="42.498341" lon="1.558319">
        <ele>1676.000000</ele>
        <time>2020-08-22T10:51:01Z</time>
      </trkpt>
      <trkpt lat="42.498341" lon="1.558336">
        <ele>1676.000000</ele>
        <time>2020-08-22T10:51:01Z</time>
      </trkpt>
      <trkpt lat="42.498341" lon="1.558336">
        <ele>1676.000000</ele>
        <time>2020-08-22T10:51:01Z</time>
      </trkpt>
      <trkpt lat="42.498341" lon="1.558353">
        <ele>1676.000000</ele>
        <time>2020-08-22T10:51:01Z</time>
      </trkpt>
      <trkpt lat="42.498341" lon="1.558353">
        <ele>1676.000000</ele>
        <time>2020-08-22T10:51:01Z</time>
      </trkpt>
      <trkpt lat="42.498341" lon="1.558369">
        <ele>1676.000000</ele>
        <time>2020-08-22T10:51:01Z</time>
      </trkpt>
      <trkpt lat="42.498341" lon="1.558369">
        <ele>1676.000000</ele>
        <time>2020-08-22T10:51:01Z</time>
      </trkpt>
      <trkpt lat="42.498337" lon="1.558384">
        <ele>1676.000000</ele>
        <time>2020-08-22T10:51:01Z</time>
      </trkpt>
      <trkpt lat="42.498337" lon="1.558384">
        <ele>1676.000000</ele>
        <time>2020-08-22T10:51:01Z</time>
      </trkpt>
      <trkpt lat="42.498337" lon="1.558398">
        <ele>1676.000000</ele>
        <time>2020-08-22T10:51:01Z</time>
      </trkpt>
      <trkpt lat="42.498337" lon="1.558398">
        <ele>1676.000000</ele>
        <time>2020-08-22T10:51:01Z</time>
      </trkpt>
      <trkpt lat="42.498325" lon="1.558441">
        <ele>1676.000000</ele>
        <time>2020-08-22T10:51:08Z</time>
      </trkpt>
      <trkpt lat="42.498325" lon="1.558441">
        <ele>1676.000000</ele>
        <time>2020-08-22T10:51:08Z</time>
      </trkpt>
      <trkpt lat="42.498314" lon="1.558484">
        <ele>1676.000000</ele>
        <time>2020-08-22T10:51:08Z</time>
      </trkpt>
      <trkpt lat="42.498314" lon="1.558484">
        <ele>1676.000000</ele>
        <time>2020-08-22T10:51:08Z</time>
      </trkpt>
      <trkpt lat="42.498302" lon="1.558527">
        <ele>1676.000000</ele>
        <time>2020-08-22T10:51:08Z</time>
      </trkpt>
      <trkpt lat="42.498302" lon="1.558527">
        <ele>1676.000000</ele>
        <time>2020-08-22T10:51:08Z</time>
      </trkpt>
      <trkpt lat="42.498291" lon="1.558570">
        <ele>1676.000000</ele>
        <time>2020-08-22T10:51:08Z</time>
      </trkpt>
      <trkpt lat="42.498291" lon="1.558570">
        <ele>1676.000000</ele>
        <time>2020-08-22T10:51:08Z</time>
      </trkpt>
      <trkpt lat="42.498280" lon="1.558613">
        <ele>1676.000000</ele>
        <time>2020-08-22T10:51:08Z</time>
      </trkpt>
      <trkpt lat="42.498280" lon="1.558613">
        <ele>1676.000000</ele>
        <time>2020-08-22T10:51:08Z</time>
      </trkpt>
      <trkpt lat="42.498268" lon="1.558656">
        <ele>1676.000000</ele>
        <time>2020-08-22T10:51:08Z</time>
      </trkpt>
      <trkpt lat="42.498268" lon="1.558656">
        <ele>1676.000000</ele>
        <time>2020-08-22T10:51:08Z</time>
      </trkpt>
      <trkpt lat="42.498257" lon="1.558696">
        <ele>1676.000000</ele>
        <time>2020-08-22T10:51:08Z</time>
      </trkpt>
      <trkpt lat="42.498257" lon="1.558696">
        <ele>1676.000000</ele>
        <time>2020-08-22T10:51:08Z</time>
      </trkpt>
      <trkpt lat="42.498245" lon="1.558737">
        <ele>1676.000000</ele>
        <time>2020-08-22T10:51:15Z</time>
      </trkpt>
      <trkpt lat="42.498245" lon="1.558737">
        <ele>1676.000000</ele>
        <time>2020-08-22T10:51:15Z</time>
      </trkpt>
      <trkpt lat="42.498238" lon="1.558778">
        <ele>1676.000000</ele>
        <time>2020-08-22T10:51:15Z</time>
      </trkpt>
      <trkpt lat="42.498238" lon="1.558778">
        <ele>1676.000000</ele>
        <time>2020-08-22T10:51:15Z</time>
      </trkpt>
      <trkpt lat="42.498226" lon="1.558819">
        <ele>1676.000000</ele>
        <time>2020-08-22T10:51:15Z</time>
      </trkpt>
      <trkpt lat="42.498226" lon="1.558819">
        <ele>1676.000000</ele>
        <time>2020-08-22T10:51:15Z</time>
      </trkpt>
      <trkpt lat="42.498226" lon="1.558831">
        <ele>1676.000000</ele>
        <time>2020-08-22T10:51:15Z</time>
      </trkpt>
      <trkpt lat="42.498226" lon="1.558831">
        <ele>1676.000000</ele>
        <time>2020-08-22T10:51:15Z</time>
      </trkpt>
      <trkpt lat="42.498230" lon="1.558842">
        <ele>1676.000000</ele>
        <time>2020-08-22T10:51:15Z</time>
      </trkpt>
      <trkpt lat="42.498230" lon="1.558842">
        <ele>1676.000000</ele>
        <time>2020-08-22T10:51:15Z</time>
      </trkpt>
      <trkpt lat="42.498230" lon="1.558851">
        <ele>1676.000000</ele>
        <time>2020-08-22T10:51:15Z</time>
      </trkpt>
      <trkpt lat="42.498230" lon="1.558851">
        <ele>1676.000000</ele>
        <time>2020-08-22T10:51:15Z</time>
      </trkpt>
      <trkpt lat="42.498234" lon="1.558859">
        <ele>1676.000000</ele>
        <time>2020-08-22T10:51:15Z</time>
      </trkpt>
      <trkpt lat="42.498234" lon="1.558859">
        <ele>1676.000000</ele>
        <time>2020-08-22T10:51:15Z</time>
      </trkpt>
      <trkpt lat="42.498234" lon="1.558866">
        <ele>1676.000000</ele>
        <time>2020-08-22T10:51:22Z</time>
      </trkpt>
      <trkpt lat="42.498234" lon="1.558866">
        <ele>1676.000000</ele>
        <time>2020-08-22T10:51:22Z</time>
      </trkpt>
      <trkpt lat="42.498241" lon="1.558873">
        <ele>1676.000000</ele>
        <time>2020-08-22T10:51:22Z</time>
      </trkpt>
      <trkpt lat="42.498241" lon="1.558873">
        <ele>1676.000000</ele>
        <time>2020-08-22T10:51:22Z</time>
      </trkpt>
      <trkpt lat="42.498245" lon="1.558878">
        <ele>1676.000000</ele>
        <time>2020-08-22T10:51:22Z</time>
      </trkpt>
      <trkpt lat="42.498245" lon="1.558878">
        <ele>1676.000000</ele>
        <time>2020-08-22T10:51:22Z</time>
      </trkpt>
      <trkpt lat="42.498249" lon="1.558883">
        <ele>1676.000000</ele>
        <time>2020-08-22T10:51:22Z</time>
      </trkpt>
      <trkpt lat="42.498249" lon="1.558883">
        <ele>1676.000000</ele>
        <time>2020-08-22T10:51:22Z</time>
      </trkpt>
      <trkpt lat="42.498257" lon="1.558886">
        <ele>1676.000000</ele>
        <time>2020-08-22T10:51:22Z</time>
      </trkpt>
      <trkpt lat="42.498257" lon="1.558886">
        <ele>1676.000000</ele>
        <time>2020-08-22T10:51:22Z</time>
      </trkpt>
      <trkpt lat="42.498264" lon="1.558890">
        <ele>1676.000000</ele>
        <time>2020-08-22T10:51:22Z</time>
      </trkpt>
      <trkpt lat="42.498264" lon="1.558890">
        <ele>1676.000000</ele>
        <time>2020-08-22T10:51:22Z</time>
      </trkpt>
      <trkpt lat="42.498272" lon="1.558895">
        <ele>1676.000000</ele>
        <time>2020-08-22T10:51:22Z</time>
      </trkpt>
      <trkpt lat="42.498272" lon="1.558895">
        <ele>1676.000000</ele>
        <time>2020-08-22T10:51:22Z</time>
      </trkpt>
      <trkpt lat="42.498280" lon="1.558901">
        <ele>1676.000000</ele>
        <time>2020-08-22T10:51:29Z</time>
      </trkpt>
      <trkpt lat="42.498280" lon="1.558901">
        <ele>1676.000000</ele>
        <time>2020-08-22T10:51:29Z</time>
      </trkpt>
      <trkpt lat="42.498287" lon="1.558908">
        <ele>1676.000000</ele>
        <time>2020-08-22T10:51:29Z</time>
      </trkpt>
      <trkpt lat="42.498287" lon="1.558908">
        <ele>1676.000000</ele>
        <time>2020-08-22T10:51:29Z</time>
      </trkpt>
      <trkpt lat="42.498295" lon="1.558916">
        <ele>1676.000000</ele>
        <time>2020-08-22T10:51:29Z</time>
      </trkpt>
      <trkpt lat="42.498295" lon="1.558916">
        <ele>1676.000000</ele>
        <time>2020-08-22T10:51:29Z</time>
      </trkpt>
      <trkpt lat="42.498295" lon="1.558923">
        <ele>1676.000000</ele>
        <time>2020-08-22T10:51:29Z</time>
      </trkpt>
      <trkpt lat="42.498295" lon="1.558923">
        <ele>1676.000000</ele>
        <time>2020-08-22T10:51:29Z</time>
      </trkpt>
      <trkpt lat="42.498299" lon="1.558931">
        <ele>1676.000000</ele>
        <time>2020-08-22T10:51:29Z</time>
      </trkpt>
      <trkpt lat="42.498299" lon="1.558931">
        <ele>1676.000000</ele>
        <time>2020-08-22T10:51:29Z</time>
      </trkpt>
      <trkpt lat="42.498299" lon="1.558938">
        <ele>1676.000000</ele>
        <time>2020-08-22T10:51:29Z</time>
      </trkpt>
      <trkpt lat="42.498299" lon="1.558938">
        <ele>1676.000000</ele>
        <time>2020-08-22T10:51:29Z</time>
      </trkpt>
      <trkpt lat="42.498295" lon="1.558945">
        <ele>1676.000000</ele>
        <time>2020-08-22T10:51:29Z</time>
      </trkpt>
      <trkpt lat="42.498295" lon="1.558945">
        <ele>1676.000000</ele>
        <time>2020-08-22T10:51:29Z</time>
      </trkpt>
      <trkpt lat="42.498295" lon="1.558953">
        <ele>1676.000000</ele>
        <time>2020-08-22T10:51:29Z</time>
      </trkpt>
      <trkpt lat="42.498295" lon="1.558953">
        <ele>1676.000000</ele>
        <time>2020-08-22T10:51:29Z</time>
      </trkpt>
      <trkpt lat="42.498291" lon="1.558961">
        <ele>1676.000000</ele>
        <time>2020-08-22T10:51:29Z</time>
      </trkpt>
      <trkpt lat="42.498291" lon="1.558961">
        <ele>1676.000000</ele>
        <time>2020-08-22T10:51:29Z</time>
      </trkpt>
      <trkpt lat="42.498287" lon="1.558968">
        <ele>1676.000000</ele>
        <time>2020-08-22T10:51:29Z</time>
      </trkpt>
      <trkpt lat="42.498287" lon="1.558968">
        <ele>1676.000000</ele>
        <time>2020-08-22T10:51:29Z</time>
      </trkpt>
      <trkpt lat="42.498280" lon="1.558974">
        <ele>1676.000000</ele>
        <time>2020-08-22T10:51:29Z</time>
      </trkpt>
      <trkpt lat="42.498280" lon="1.558974">
        <ele>1676.000000</ele>
        <time>2020-08-22T10:51:29Z</time>
      </trkpt>
      <trkpt lat="42.498276" lon="1.558981">
        <ele>1676.000000</ele>
        <time>2020-08-22T10:51:29Z</time>
      </trkpt>
      <trkpt lat="42.498276" lon="1.558981">
        <ele>1676.000000</ele>
        <time>2020-08-22T10:51:29Z</time>
      </trkpt>
      <trkpt lat="42.498276" lon="1.558989">
        <ele>1676.000000</ele>
        <time>2020-08-22T10:51:29Z</time>
      </trkpt>
      <trkpt lat="42.498276" lon="1.558989">
        <ele>1676.000000</ele>
        <time>2020-08-22T10:51:29Z</time>
      </trkpt>
      <trkpt lat="42.498272" lon="1.558998">
        <ele>1676.000000</ele>
        <time>2020-08-22T10:51:36Z</time>
      </trkpt>
      <trkpt lat="42.498272" lon="1.558998">
        <ele>1676.000000</ele>
        <time>2020-08-22T10:51:36Z</time>
      </trkpt>
      <trkpt lat="42.498268" lon="1.559007">
        <ele>1676.000000</ele>
        <time>2020-08-22T10:51:36Z</time>
      </trkpt>
      <trkpt lat="42.498268" lon="1.559007">
        <ele>1676.000000</ele>
        <time>2020-08-22T10:51:36Z</time>
      </trkpt>
      <trkpt lat="42.498268" lon="1.559017">
        <ele>1676.000000</ele>
        <time>2020-08-22T10:51:36Z</time>
      </trkpt>
      <trkpt lat="42.498268" lon="1.559017">
        <ele>1676.000000</ele>
        <time>2020-08-22T10:51:36Z</time>
      </trkpt>
      <trkpt lat="42.498268" lon="1.559027">
        <ele>1676.000000</ele>
        <time>2020-08-22T10:51:36Z</time>
      </trkpt>
      <trkpt lat="42.498268" lon="1.559027">
        <ele>1676.000000</ele>
        <time>2020-08-22T10:51:36Z</time>
      </trkpt>
      <trkpt lat="42.498268" lon="1.559036">
        <ele>1676.000000</ele>
        <time>2020-08-22T10:51:36Z</time>
      </trkpt>
      <trkpt lat="42.498268" lon="1.559036">
        <ele>1695.000000</ele>
        <time>2020-08-22T10:51:36Z</time>
      </trkpt>
      <trkpt lat="42.498268" lon="1.559046">
        <ele>1695.000000</ele>
        <time>2020-08-22T10:51:36Z</time>
      </trkpt>
      <trkpt lat="42.498268" lon="1.559046">
        <ele>1695.000000</ele>
        <time>2020-08-22T10:51:36Z</time>
      </trkpt>
      <trkpt lat="42.498268" lon="1.559055">
        <ele>1695.000000</ele>
        <time>2020-08-22T10:51:36Z</time>
      </trkpt>
      <trkpt lat="42.498268" lon="1.559055">
        <ele>1695.000000</ele>
        <time>2020-08-22T10:51:36Z</time>
      </trkpt>
      <trkpt lat="42.498268" lon="1.559064">
        <ele>1696.000000</ele>
        <time>2020-08-22T10:51:43Z</time>
      </trkpt>
      <trkpt lat="42.498268" lon="1.559064">
        <ele>1696.000000</ele>
        <time>2020-08-22T10:51:43Z</time>
      </trkpt>
      <trkpt lat="42.498264" lon="1.559074">
        <ele>1696.000000</ele>
        <time>2020-08-22T10:51:43Z</time>
      </trkpt>
      <trkpt lat="42.498264" lon="1.559074">
        <ele>1696.000000</ele>
        <time>2020-08-22T10:51:43Z</time>
      </trkpt>
      <trkpt lat="42.498260" lon="1.559083">
        <ele>1696.000000</ele>
        <time>2020-08-22T10:51:43Z</time>
      </trkpt>
      <trkpt lat="42.498260" lon="1.559083">
        <ele>1696.000000</ele>
        <time>2020-08-22T10:51:43Z</time>
      </trkpt>
      <trkpt lat="42.498257" lon="1.559092">
        <ele>1696.000000</ele>
        <time>2020-08-22T10:51:43Z</time>
      </trkpt>
      <trkpt lat="42.498257" lon="1.559092">
        <ele>1696.000000</ele>
        <time>2020-08-22T10:51:43Z</time>
      </trkpt>
      <trkpt lat="42.498253" lon="1.559101">
        <ele>1696.000000</ele>
        <time>2020-08-22T10:51:43Z</time>
      </trkpt>
      <trkpt lat="42.498253" lon="1.559101">
        <ele>1696.000000</ele>
        <time>2020-08-22T10:51:43Z</time>
      </trkpt>
      <trkpt lat="42.498249" lon="1.559109">
        <ele>1696.000000</ele>
        <time>2020-08-22T10:51:43Z</time>
      </trkpt>
      <trkpt lat="42.498249" lon="1.559109">
        <ele>1697.000000</ele>
        <time>2020-08-22T10:51:43Z</time>
      </trkpt>
      <trkpt lat="42.498241" lon="1.559117">
        <ele>1697.000000</ele>
        <time>2020-08-22T10:51:51Z</time>
      </trkpt>
      <trkpt lat="42.498241" lon="1.559117">
        <ele>1697.000000</ele>
        <time>2020-08-22T10:51:51Z</time>
      </trkpt>
      <trkpt lat="42.498238" lon="1.559126">
        <ele>1697.000000</ele>
        <time>2020-08-22T10:51:51Z</time>
      </trkpt>
      <trkpt lat="42.498238" lon="1.559126">
        <ele>1697.000000</ele>
        <time>2020-08-22T10:51:51Z</time>
      </trkpt>
      <trkpt lat="42.498234" lon="1.559136">
        <ele>1698.000000</ele>
        <time>2020-08-22T10:51:51Z</time>
      </trkpt>
      <trkpt lat="42.498234" lon="1.559136">
        <ele>1698.000000</ele>
        <time>2020-08-22T10:51:51Z</time>
      </trkpt>
      <trkpt lat="42.498230" lon="1.559147">
        <ele>1698.000000</ele>
        <time>2020-08-22T10:51:58Z</time>
      </trkpt>
      <trkpt lat="42.498230" lon="1.559147">
        <ele>1699.000000</ele>
        <time>2020-08-22T10:51:58Z</time>
      </trkpt>
      <trkpt lat="42.498222" lon="1.559159">
        <ele>1699.000000</ele>
        <time>2020-08-22T10:51:58Z</time>
      </trkpt>
      <trkpt lat="42.498222" lon="1.559159">
        <ele>1699.000000</ele>
        <time>2020-08-22T10:51:58Z</time>
      </trkpt>
      <trkpt lat="42.498219" lon="1.559171">
        <ele>1699.000000</ele>
        <time>2020-08-22T10:51:58Z</time>
      </trkpt>
      <trkpt lat="42.498219" lon="1.559171">
        <ele>1699.000000</ele>
        <time>2020-08-22T10:51:58Z</time>
      </trkpt>
      <trkpt lat="42.498215" lon="1.559182">
        <ele>1700.000000</ele>
        <time>2020-08-22T10:51:58Z</time>
      </trkpt>
      <trkpt lat="42.498215" lon="1.559182">
        <ele>1700.000000</ele>
        <time>2020-08-22T10:51:58Z</time>
      </trkpt>
      <trkpt lat="42.498211" lon="1.559194">
        <ele>1700.000000</ele>
        <time>2020-08-22T10:51:58Z</time>
      </trkpt>
      <trkpt lat="42.498211" lon="1.559194">
        <ele>1700.000000</ele>
        <time>2020-08-22T10:51:58Z</time>
      </trkpt>
      <trkpt lat="42.498207" lon="1.559206">
        <ele>1700.000000</ele>
        <time>2020-08-22T10:51:58Z</time>
      </trkpt>
      <trkpt lat="42.498207" lon="1.559206">
        <ele>1702.000000</ele>
        <time>2020-08-22T10:51:58Z</time>
      </trkpt>
      <trkpt lat="42.498199" lon="1.559218">
        <ele>1702.000000</ele>
        <time>2020-08-22T10:51:58Z</time>
      </trkpt>
      <trkpt lat="42.498199" lon="1.559218">
        <ele>1702.000000</ele>
        <time>2020-08-22T10:51:58Z</time>
      </trkpt>
      <trkpt lat="42.498192" lon="1.559229">
        <ele>1702.000000</ele>
        <time>2020-08-22T10:52:05Z</time>
      </trkpt>
      <trkpt lat="42.498192" lon="1.559229">
        <ele>1702.000000</ele>
        <time>2020-08-22T10:52:05Z</time>
      </trkpt>
      <trkpt lat="42.498188" lon="1.559239">
        <ele>1703.000000</ele>
        <time>2020-08-22T10:52:05Z</time>
      </trkpt>
      <trkpt lat="42.498188" lon="1.559239">
        <ele>1703.000000</ele>
        <time>2020-08-22T10:52:05Z</time>
      </trkpt>
      <trkpt lat="42.498180" lon="1.559248">
        <ele>1703.000000</ele>
        <time>2020-08-22T10:52:05Z</time>
      </trkpt>
      <trkpt lat="42.498180" lon="1.559248">
        <ele>1703.000000</ele>
        <time>2020-08-22T10:52:05Z</time>
      </trkpt>
      <trkpt lat="42.498169" lon="1.559255">
        <ele>1703.000000</ele>
        <time>2020-08-22T10:52:05Z</time>
      </trkpt>
      <trkpt lat="42.498169" lon="1.559255">
        <ele>1703.000000</ele>
        <time>2020-08-22T10:52:05Z</time>
      </trkpt>
      <trkpt lat="42.498161" lon="1.559262">
        <ele>1703.000000</ele>
        <time>2020-08-22T10:52:05Z</time>
      </trkpt>
      <trkpt lat="42.498161" lon="1.559262">
        <ele>1703.000000</ele>
        <time>2020-08-22T10:52:05Z</time>
      </trkpt>
      <trkpt lat="42.498154" lon="1.559269">
        <ele>1703.000000</ele>
        <time>2020-08-22T10:52:05Z</time>
      </trkpt>
      <trkpt lat="42.498154" lon="1.559269">
        <ele>1703.000000</ele>
        <time>2020-08-22T10:52:05Z</time>
      </trkpt>
      <trkpt lat="42.498146" lon="1.559275">
        <ele>1703.000000</ele>
        <time>2020-08-22T10:52:05Z</time>
      </trkpt>
      <trkpt lat="42.498146" lon="1.559275">
        <ele>1703.000000</ele>
        <time>2020-08-22T10:52:05Z</time>
      </trkpt>
      <trkpt lat="42.498138" lon="1.559282">
        <ele>1703.000000</ele>
        <time>2020-08-22T10:52:13Z</time>
      </trkpt>
      <trkpt lat="42.498138" lon="1.559282">
        <ele>1703.000000</ele>
        <time>2020-08-22T10:52:13Z</time>
      </trkpt>
      <trkpt lat="42.498131" lon="1.559288">
        <ele>1703.000000</ele>
        <time>2020-08-22T10:52:13Z</time>
      </trkpt>
      <trkpt lat="42.498131" lon="1.559288">
        <ele>1703.000000</ele>
        <time>2020-08-22T10:52:13Z</time>
      </trkpt>
      <trkpt lat="42.498123" lon="1.559294">
        <ele>1703.000000</ele>
        <time>2020-08-22T10:52:13Z</time>
      </trkpt>
      <trkpt lat="42.498123" lon="1.559294">
        <ele>1703.000000</ele>
        <time>2020-08-22T10:52:13Z</time>
      </trkpt>
      <trkpt lat="42.498116" lon="1.559300">
        <ele>1703.000000</ele>
        <time>2020-08-22T10:52:13Z</time>
      </trkpt>
      <trkpt lat="42.498116" lon="1.559300">
        <ele>1703.000000</ele>
        <time>2020-08-22T10:52:13Z</time>
      </trkpt>
      <trkpt lat="42.498108" lon="1.559306">
        <ele>1703.000000</ele>
        <time>2020-08-22T10:52:13Z</time>
      </trkpt>
      <trkpt lat="42.498108" lon="1.559306">
        <ele>1703.000000</ele>
        <time>2020-08-22T10:52:13Z</time>
      </trkpt>
      <trkpt lat="42.498100" lon="1.559311">
        <ele>1703.000000</ele>
        <time>2020-08-22T10:52:13Z</time>
      </trkpt>
      <trkpt lat="42.498100" lon="1.559311">
        <ele>1703.000000</ele>
        <time>2020-08-22T10:52:13Z</time>
      </trkpt>
      <trkpt lat="42.498093" lon="1.559316">
        <ele>1703.000000</ele>
        <time>2020-08-22T10:52:13Z</time>
      </trkpt>
      <trkpt lat="42.498093" lon="1.559316">
        <ele>1703.000000</ele>
        <time>2020-08-22T10:52:13Z</time>
      </trkpt>
      <trkpt lat="42.498089" lon="1.559320">
        <ele>1703.000000</ele>
        <time>2020-08-22T10:52:13Z</time>
      </trkpt>
      <trkpt lat="42.498089" lon="1.559320">
        <ele>1703.000000</ele>
        <time>2020-08-22T10:52:13Z</time>
      </trkpt>
      <trkpt lat="42.498123" lon="1.559292">
        <ele>1703.000000</ele>
        <time>2020-08-22T10:52:13Z</time>
      </trkpt>
      <trkpt lat="42.498123" lon="1.559292">
        <ele>1703.000000</ele>
        <time>2020-08-22T10:52:13Z</time>
      </trkpt>
      <trkpt lat="42.498142" lon="1.559280">
        <ele>1703.000000</ele>
        <time>2020-08-22T10:52:23Z</time>
      </trkpt>
      <trkpt lat="42.498142" lon="1.559280">
        <ele>1703.000000</ele>
        <time>2020-08-22T10:52:23Z</time>
      </trkpt>
      <trkpt lat="42.498150" lon="1.559275">
        <ele>1703.000000</ele>
        <time>2020-08-22T10:52:23Z</time>
      </trkpt>
      <trkpt lat="42.498150" lon="1.559275">
        <ele>1703.000000</ele>
        <time>2020-08-22T10:52:23Z</time>
      </trkpt>
      <trkpt lat="42.498154" lon="1.559272">
        <ele>1703.000000</ele>
        <time>2020-08-22T10:52:23Z</time>
      </trkpt>
      <trkpt lat="42.498154" lon="1.559272">
        <ele>1706.000000</ele>
        <time>2020-08-22T10:52:23Z</time>
      </trkpt>
      <trkpt lat="42.498157" lon="1.559272">
        <ele>1706.000000</ele>
        <time>2020-08-22T10:52:23Z</time>
      </trkpt>
      <trkpt lat="42.498157" lon="1.559272">
        <ele>1706.000000</ele>
        <time>2020-08-22T10:52:23Z</time>
      </trkpt>
      <trkpt lat="42.498157" lon="1.559273">
        <ele>1706.000000</ele>
        <time>2020-08-22T10:52:23Z</time>
      </trkpt>
      <trkpt lat="42.498157" lon="1.559273">
        <ele>1706.000000</ele>
        <time>2020-08-22T10:52:23Z</time>
      </trkpt>
      <trkpt lat="42.498157" lon="1.559276">
        <ele>1706.000000</ele>
        <time>2020-08-22T10:52:30Z</time>
      </trkpt>
      <trkpt lat="42.498157" lon="1.559276">
        <ele>1706.000000</ele>
        <time>2020-08-22T10:52:30Z</time>
      </trkpt>
      <trkpt lat="42.498157" lon="1.559279">
        <ele>1707.000000</ele>
        <time>2020-08-22T10:52:30Z</time>
      </trkpt>
      <trkpt lat="42.498157" lon="1.559279">
        <ele>1707.000000</ele>
        <time>2020-08-22T10:52:30Z</time>
      </trkpt>
      <trkpt lat="42.498154" lon="1.559282">
        <ele>1707.000000</ele>
        <time>2020-08-22T10:52:30Z</time>
      </trkpt>
      <trkpt lat="42.498154" lon="1.559282">
        <ele>1707.000000</ele>
        <time>2020-08-22T10:52:30Z</time>
      </trkpt>
      <trkpt lat="42.498154" lon="1.559286">
        <ele>1707.000000</ele>
        <time>2020-08-22T10:52:30Z</time>
      </trkpt>
      <trkpt lat="42.498154" lon="1.559286">
        <ele>1707.000000</ele>
        <time>2020-08-22T10:52:30Z</time>
      </trkpt>
      <trkpt lat="42.498154" lon="1.559289">
        <ele>1708.000000</ele>
        <time>2020-08-22T10:52:30Z</time>
      </trkpt>
      <trkpt lat="42.498154" lon="1.559289">
        <ele>1708.000000</ele>
        <time>2020-08-22T10:52:30Z</time>
      </trkpt>
      <trkpt lat="42.498154" lon="1.559295">
        <ele>1708.000000</ele>
        <time>2020-08-22T10:52:30Z</time>
      </trkpt>
      <trkpt lat="42.498154" lon="1.559295">
        <ele>1708.000000</ele>
        <time>2020-08-22T10:52:30Z</time>
      </trkpt>
      <trkpt lat="42.498150" lon="1.559303">
        <ele>1708.000000</ele>
        <time>2020-08-22T10:52:30Z</time>
      </trkpt>
      <trkpt lat="42.498150" lon="1.559303">
        <ele>1708.000000</ele>
        <time>2020-08-22T10:52:30Z</time>
      </trkpt>
      <trkpt lat="42.498142" lon="1.559312">
        <ele>1709.000000</ele>
        <time>2020-08-22T10:52:37Z</time>
      </trkpt>
      <trkpt lat="42.498142" lon="1.559312">
        <ele>1712.000000</ele>
        <time>2020-08-22T10:52:37Z</time>
      </trkpt>
      <trkpt lat="42.498135" lon="1.559320">
        <ele>1712.000000</ele>
        <time>2020-08-22T10:52:37Z</time>
      </trkpt>
      <trkpt lat="42.498135" lon="1.559320">
        <ele>1712.000000</ele>
        <time>2020-08-22T10:52:37Z</time>
      </trkpt>
      <trkpt lat="42.498131" lon="1.559329">
        <ele>1713.000000</ele>
        <time>2020-08-22T10:52:37Z</time>
      </trkpt>
      <trkpt lat="42.498131" lon="1.559329">
        <ele>1713.000000</ele>
        <time>2020-08-22T10:52:37Z</time>
      </trkpt>
      <trkpt lat="42.498123" lon="1.559338">
        <ele>1713.000000</ele>
        <time>2020-08-22T10:52:37Z</time>
      </trkpt>
      <trkpt lat="42.498123" lon="1.559338">
        <ele>1713.000000</ele>
        <time>2020-08-22T10:52:37Z</time>
      </trkpt>
      <trkpt lat="42.498116" lon="1.559347">
        <ele>1713.000000</ele>
        <time>2020-08-22T10:52:37Z</time>
      </trkpt>
      <trkpt lat="42.498116" lon="1.559347">
        <ele>1713.000000</ele>
        <time>2020-08-22T10:52:37Z</time>
      </trkpt>
      <trkpt lat="42.498108" lon="1.559356">
        <ele>1713.000000</ele>
        <time>2020-08-22T10:52:37Z</time>
      </trkpt>
      <trkpt lat="42.498108" lon="1.559356">
        <ele>1717.000000</ele>
        <time>2020-08-22T10:52:37Z</time>
      </trkpt>
      <trkpt lat="42.498100" lon="1.559365">
        <ele>1718.000000</ele>
        <time>2020-08-22T10:52:37Z</time>
      </trkpt>
      <trkpt lat="42.498100" lon="1.559365">
        <ele>1718.000000</ele>
        <time>2020-08-22T10:52:37Z</time>
      </trkpt>
      <trkpt lat="42.498085" lon="1.559383">
        <ele>1718.000000</ele>
        <time>2020-08-22T10:52:37Z</time>
      </trkpt>
      <trkpt lat="42.498085" lon="1.559383">
        <ele>1718.000000</ele>
        <time>2020-08-22T10:52:37Z</time>
      </trkpt>
      <trkpt lat="42.498074" lon="1.559400">
        <ele>1718.000000</ele>
        <time>2020-08-22T10:52:37Z</time>
      </trkpt>
      <trkpt lat="42.498074" lon="1.559400">
        <ele>1719.000000</ele>
        <time>2020-08-22T10:52:37Z</time>
      </trkpt>
      <trkpt lat="42.498062" lon="1.559417">
        <ele>1719.000000</ele>
        <time>2020-08-22T10:52:37Z</time>
      </trkpt>
      <trkpt lat="42.498062" lon="1.559417">
        <ele>1719.000000</ele>
        <time>2020-08-22T10:52:37Z</time>
      </trkpt>
      <trkpt lat="42.498051" lon="1.559434">
        <ele>1719.000000</ele>
        <time>2020-08-22T10:52:37Z</time>
      </trkpt>
      <trkpt lat="42.498051" lon="1.559434">
        <ele>1722.000000</ele>
        <time>2020-08-22T10:52:37Z</time>
      </trkpt>
      <trkpt lat="42.498039" lon="1.559452">
        <ele>1722.000000</ele>
        <time>2020-08-22T10:52:45Z</time>
      </trkpt>
      <trkpt lat="42.498039" lon="1.559452">
        <ele>1722.000000</ele>
        <time>2020-08-22T10:52:45Z</time>
      </trkpt>
      <trkpt lat="42.498028" lon="1.559469">
        <ele>1722.000000</ele>
        <time>2020-08-22T10:52:45Z</time>
      </trkpt>
      <trkpt lat="42.498028" lon="1.559469">
        <ele>1722.000000</ele>
        <time>2020-08-22T10:52:45Z</time>
      </trkpt>
      <trkpt lat="42.498020" lon="1.559486">
        <ele>1723.000000</ele>
        <time>2020-08-22T10:52:45Z</time>
      </trkpt>
      <trkpt lat="42.498020" lon="1.559486">
        <ele>1723.000000</ele>
        <time>2020-08-22T10:52:45Z</time>
      </trkpt>
      <trkpt lat="42.498013" lon="1.559503">
        <ele>1723.000000</ele>
        <time>2020-08-22T10:52:45Z</time>
      </trkpt>
      <trkpt lat="42.498013" lon="1.559503">
        <ele>1723.000000</ele>
        <time>2020-08-22T10:52:45Z</time>
      </trkpt>
      <trkpt lat="42.498005" lon="1.559519">
        <ele>1723.000000</ele>
        <time>2020-08-22T10:52:45Z</time>
      </trkpt>
      <trkpt lat="42.498005" lon="1.559519">
        <ele>1734.000000</ele>
        <time>2020-08-22T10:52:45Z</time>
      </trkpt>
      <trkpt lat="42.498001" lon="1.559534">
        <ele>1734.000000</ele>
        <time>2020-08-22T10:52:45Z</time>
      </trkpt>
      <trkpt lat="42.498001" lon="1.559534">
        <ele>1734.000000</ele>
        <time>2020-08-22T10:52:45Z</time>
      </trkpt>
      <trkpt lat="42.498001" lon="1.559542">
        <ele>1734.000000</ele>
        <time>2020-08-22T10:52:45Z</time>
      </trkpt>
      <trkpt lat="42.498001" lon="1.559542">
        <ele>1734.000000</ele>
        <time>2020-08-22T10:52:45Z</time>
      </trkpt>
      <trkpt lat="42.498001" lon="1.559550">
        <ele>1734.000000</ele>
        <time>2020-08-22T10:52:52Z</time>
      </trkpt>
      <trkpt lat="42.498001" lon="1.559550">
        <ele>1734.000000</ele>
        <time>2020-08-22T10:52:52Z</time>
      </trkpt>
      <trkpt lat="42.498001" lon="1.559558">
        <ele>1734.000000</ele>
        <time>2020-08-22T10:52:52Z</time>
      </trkpt>
      <trkpt lat="42.498001" lon="1.559558">
        <ele>1734.000000</ele>
        <time>2020-08-22T10:52:52Z</time>
      </trkpt>
      <trkpt lat="42.497997" lon="1.559565">
        <ele>1734.000000</ele>
        <time>2020-08-22T10:52:52Z</time>
      </trkpt>
      <trkpt lat="42.497997" lon="1.559565">
        <ele>1734.000000</ele>
        <time>2020-08-22T10:52:52Z</time>
      </trkpt>
      <trkpt lat="42.497997" lon="1.559571">
        <ele>1734.000000</ele>
        <time>2020-08-22T10:52:52Z</time>
      </trkpt>
      <trkpt lat="42.497997" lon="1.559571">
        <ele>1734.000000</ele>
        <time>2020-08-22T10:52:52Z</time>
      </trkpt>
      <trkpt lat="42.497997" lon="1.559578">
        <ele>1735.000000</ele>
        <time>2020-08-22T10:52:52Z</time>
      </trkpt>
      <trkpt lat="42.497997" lon="1.559578">
        <ele>1735.000000</ele>
        <time>2020-08-22T10:52:52Z</time>
      </trkpt>
      <trkpt lat="42.497993" lon="1.559584">
        <ele>1735.000000</ele>
        <time>2020-08-22T10:52:52Z</time>
      </trkpt>
      <trkpt lat="42.497993" lon="1.559584">
        <ele>1735.000000</ele>
        <time>2020-08-22T10:52:52Z</time>
      </trkpt>
      <trkpt lat="42.497993" lon="1.559590">
        <ele>1735.000000</ele>
        <time>2020-08-22T10:52:52Z</time>
      </trkpt>
      <trkpt lat="42.497993" lon="1.559590">
        <ele>1735.000000</ele>
        <time>2020-08-22T10:52:52Z</time>
      </trkpt>
      <trkpt lat="42.497993" lon="1.559598">
        <ele>1735.000000</ele>
        <time>2020-08-22T10:52:52Z</time>
      </trkpt>
      <trkpt lat="42.497993" lon="1.559598">
        <ele>1736.000000</ele>
        <time>2020-08-22T10:52:52Z</time>
      </trkpt>
      <trkpt lat="42.497990" lon="1.559607">
        <ele>1737.000000</ele>
        <time>2020-08-22T10:52:52Z</time>
      </trkpt>
      <trkpt lat="42.497990" lon="1.559607">
        <ele>1737.000000</ele>
        <time>2020-08-22T10:52:52Z</time>
      </trkpt>
      <trkpt lat="42.497986" lon="1.559616">
        <ele>1737.000000</ele>
        <time>2020-08-22T10:52:52Z</time>
      </trkpt>
      <trkpt lat="42.497986" lon="1.559616">
        <ele>1737.000000</ele>
        <time>2020-08-22T10:52:52Z</time>
      </trkpt>
      <trkpt lat="42.497982" lon="1.559625">
        <ele>1737.000000</ele>
        <time>2020-08-22T10:52:52Z</time>
      </trkpt>
      <trkpt lat="42.497982" lon="1.559625">
        <ele>1738.000000</ele>
        <time>2020-08-22T10:52:52Z</time>
      </trkpt>
      <trkpt lat="42.497978" lon="1.559636">
        <ele>1738.000000</ele>
        <time>2020-08-22T10:52:52Z</time>
      </trkpt>
      <trkpt lat="42.497978" lon="1.559636">
        <ele>1738.000000</ele>
        <time>2020-08-22T10:52:52Z</time>
      </trkpt>
      <trkpt lat="42.497974" lon="1.559646">
        <ele>1738.000000</ele>
        <time>2020-08-22T10:52:52Z</time>
      </trkpt>
      <trkpt lat="42.497974" lon="1.559646">
        <ele>1739.000000</ele>
        <time>2020-08-22T10:52:52Z</time>
      </trkpt>
      <trkpt lat="42.497974" lon="1.559658">
        <ele>1739.000000</ele>
        <time>2020-08-22T10:52:59Z</time>
      </trkpt>
      <trkpt lat="42.497974" lon="1.559658">
        <ele>1739.000000</ele>
        <time>2020-08-22T10:52:59Z</time>
      </trkpt>
      <trkpt lat="42.497967" lon="1.559669">
        <ele>1739.000000</ele>
        <time>2020-08-22T10:52:59Z</time>
      </trkpt>
      <trkpt lat="42.497967" lon="1.559669">
        <ele>1739.000000</ele>
        <time>2020-08-22T10:52:59Z</time>
      </trkpt>
      <trkpt lat="42.497967" lon="1.559682">
        <ele>1739.000000</ele>
        <time>2020-08-22T10:52:59Z</time>
      </trkpt>
      <trkpt lat="42.497967" lon="1.559682">
        <ele>1739.000000</ele>
        <time>2020-08-22T10:52:59Z</time>
      </trkpt>
      <trkpt lat="42.497963" lon="1.559694">
        <ele>1739.000000</ele>
        <time>2020-08-22T10:52:59Z</time>
      </trkpt>
      <trkpt lat="42.497963" lon="1.559694">
        <ele>1739.000000</ele>
        <time>2020-08-22T10:52:59Z</time>
      </trkpt>
      <trkpt lat="42.497959" lon="1.559705">
        <ele>1739.000000</ele>
        <time>2020-08-22T10:52:59Z</time>
      </trkpt>
      <trkpt lat="42.497959" lon="1.559705">
        <ele>1743.000000</ele>
        <time>2020-08-22T10:52:59Z</time>
      </trkpt>
      <trkpt lat="42.497951" lon="1.559716">
        <ele>1743.000000</ele>
        <time>2020-08-22T10:52:59Z</time>
      </trkpt>
      <trkpt lat="42.497951" lon="1.559716">
        <ele>1743.000000</ele>
        <time>2020-08-22T10:52:59Z</time>
      </trkpt>
      <trkpt lat="42.497951" lon="1.559739">
        <ele>1744.000000</ele>
        <time>2020-08-22T10:52:59Z</time>
      </trkpt>
      <trkpt lat="42.497951" lon="1.559739">
        <ele>1744.000000</ele>
        <time>2020-08-22T10:52:59Z</time>
      </trkpt>
      <trkpt lat="42.497951" lon="1.559760">
        <ele>1744.000000</ele>
        <time>2020-08-22T10:52:59Z</time>
      </trkpt>
      <trkpt lat="42.497951" lon="1.559760">
        <ele>1744.000000</ele>
        <time>2020-08-22T10:52:59Z</time>
      </trkpt>
      <trkpt lat="42.497951" lon="1.559781">
        <ele>1744.000000</ele>
        <time>2020-08-22T10:52:59Z</time>
      </trkpt>
      <trkpt lat="42.497951" lon="1.559781">
        <ele>1744.000000</ele>
        <time>2020-08-22T10:52:59Z</time>
      </trkpt>
      <trkpt lat="42.497948" lon="1.559800">
        <ele>1744.000000</ele>
        <time>2020-08-22T10:52:59Z</time>
      </trkpt>
      <trkpt lat="42.497948" lon="1.559800">
        <ele>1746.000000</ele>
        <time>2020-08-22T10:52:59Z</time>
      </trkpt>
      <trkpt lat="42.497948" lon="1.559819">
        <ele>1746.000000</ele>
        <time>2020-08-22T10:52:59Z</time>
      </trkpt>
      <trkpt lat="42.497948" lon="1.559819">
        <ele>1746.000000</ele>
        <time>2020-08-22T10:52:59Z</time>
      </trkpt>
      <trkpt lat="42.497944" lon="1.559836">
        <ele>1746.000000</ele>
        <time>2020-08-22T10:53:06Z</time>
      </trkpt>
      <trkpt lat="42.497944" lon="1.559836">
        <ele>1746.000000</ele>
        <time>2020-08-22T10:53:06Z</time>
      </trkpt>
      <trkpt lat="42.497940" lon="1.559853">
        <ele>1746.000000</ele>
        <time>2020-08-22T10:53:06Z</time>
      </trkpt>
      <trkpt lat="42.497940" lon="1.559853">
        <ele>1746.000000</ele>
        <time>2020-08-22T10:53:06Z</time>
      </trkpt>
      <trkpt lat="42.497940" lon="1.559868">
        <ele>1746.000000</ele>
        <time>2020-08-22T10:53:06Z</time>
      </trkpt>
      <trkpt lat="42.497940" lon="1.559868">
        <ele>1746.000000</ele>
        <time>2020-08-22T10:53:06Z</time>
      </trkpt>
      <trkpt lat="42.497940" lon="1.559882">
        <ele>1746.000000</ele>
        <time>2020-08-22T10:53:06Z</time>
      </trkpt>
      <trkpt lat="42.497940" lon="1.559882">
        <ele>1753.000000</ele>
        <time>2020-08-22T10:53:06Z</time>
      </trkpt>
      <trkpt lat="42.497936" lon="1.559895">
        <ele>1753.000000</ele>
        <time>2020-08-22T10:53:06Z</time>
      </trkpt>
      <trkpt lat="42.497936" lon="1.559895">
        <ele>1753.000000</ele>
        <time>2020-08-22T10:53:06Z</time>
      </trkpt>
      <trkpt lat="42.497925" lon="1.559895">
        <ele>1753.000000</ele>
        <time>2020-08-22T10:53:06Z</time>
      </trkpt>
      <trkpt lat="42.497925" lon="1.559895">
        <ele>1753.000000</ele>
        <time>2020-08-22T10:53:06Z</time>
      </trkpt>
      <trkpt lat="42.497890" lon="1.559879">
        <ele>1753.000000</ele>
        <time>2020-08-22T10:53:06Z</time>
      </trkpt>
      <trkpt lat="42.497890" lon="1.559879">
        <ele>1753.000000</ele>
        <time>2020-08-22T10:53:06Z</time>
      </trkpt>
      <trkpt lat="42.497887" lon="1.559881">
        <ele>1754.000000</ele>
        <time>2020-08-22T10:53:06Z</time>
      </trkpt>
      <trkpt lat="42.497887" lon="1.559881">
        <ele>1754.000000</ele>
        <time>2020-08-22T10:53:06Z</time>
      </trkpt>
      <trkpt lat="42.497883" lon="1.559883">
        <ele>1754.000000</ele>
        <time>2020-08-22T10:53:06Z</time>
      </trkpt>
      <trkpt lat="42.497883" lon="1.559883">
        <ele>1754.000000</ele>
        <time>2020-08-22T10:53:06Z</time>
      </trkpt>
      <trkpt lat="42.497879" lon="1.559885">
        <ele>1754.000000</ele>
        <time>2020-08-22T10:53:06Z</time>
      </trkpt>
      <trkpt lat="42.497879" lon="1.559885">
        <ele>1754.000000</ele>
        <time>2020-08-22T10:53:06Z</time>
      </trkpt>
      <trkpt lat="42.497875" lon="1.559887">
        <ele>1755.000000</ele>
        <time>2020-08-22T10:53:06Z</time>
      </trkpt>
      <trkpt lat="42.497875" lon="1.559887">
        <ele>1755.000000</ele>
        <time>2020-08-22T10:53:06Z</time>
      </trkpt>
      <trkpt lat="42.497871" lon="1.559891">
        <ele>1755.000000</ele>
        <time>2020-08-22T10:53:06Z</time>
      </trkpt>
      <trkpt lat="42.497871" lon="1.559891">
        <ele>1755.000000</ele>
        <time>2020-08-22T10:53:06Z</time>
      </trkpt>
      <trkpt lat="42.497868" lon="1.559893">
        <ele>1755.000000</ele>
        <time>2020-08-22T10:53:06Z</time>
      </trkpt>
      <trkpt lat="42.497868" lon="1.559893">
        <ele>1755.000000</ele>
        <time>2020-08-22T10:53:06Z</time>
      </trkpt>
      <trkpt lat="42.497864" lon="1.559896">
        <ele>1756.000000</ele>
        <time>2020-08-22T10:53:06Z</time>
      </trkpt>
      <trkpt lat="42.497864" lon="1.559896">
        <ele>1757.000000</ele>
        <time>2020-08-22T10:53:06Z</time>
      </trkpt>
      <trkpt lat="42.497860" lon="1.559898">
        <ele>1757.000000</ele>
        <time>2020-08-22T10:53:06Z</time>
      </trkpt>
      <trkpt lat="42.497860" lon="1.559898">
        <ele>1757.000000</ele>
        <time>2020-08-22T10:53:06Z</time>
      </trkpt>
      <trkpt lat="42.497860" lon="1.559900">
        <ele>1757.000000</ele>
        <time>2020-08-22T10:53:06Z</time>
      </trkpt>
      <trkpt lat="42.497860" lon="1.559900">
        <ele>1757.000000</ele>
        <time>2020-08-22T10:53:06Z</time>
      </trkpt>
      <trkpt lat="42.497845" lon="1.559937">
        <ele>1757.000000</ele>
        <time>2020-08-22T10:53:16Z</time>
      </trkpt>
      <trkpt lat="42.497845" lon="1.559937">
        <ele>1757.000000</ele>
        <time>2020-08-22T10:53:16Z</time>
      </trkpt>
      <trkpt lat="42.497849" lon="1.559936">
        <ele>1757.000000</ele>
        <time>2020-08-22T10:53:16Z</time>
      </trkpt>
      <trkpt lat="42.497849" lon="1.559936">
        <ele>1758.000000</ele>
        <time>2020-08-22T10:53:16Z</time>
      </trkpt>
      <trkpt lat="42.497852" lon="1.559934">
        <ele>1758.000000</ele>
        <time>2020-08-22T10:53:16Z</time>
      </trkpt>
      <trkpt lat="42.497852" lon="1.559934">
        <ele>1759.000000</ele>
        <time>2020-08-22T10:53:16Z</time>
      </trkpt>
      <trkpt lat="42.497852" lon="1.559930">
        <ele>1759.000000</ele>
        <time>2020-08-22T10:53:16Z</time>
      </trkpt>
      <trkpt lat="42.497852" lon="1.559930">
        <ele>1759.000000</ele>
        <time>2020-08-22T10:53:16Z</time>
      </trkpt>
      <trkpt lat="42.497898" lon="1.559885">
        <ele>1759.000000</ele>
        <time>2020-08-22T10:53:16Z</time>
      </trkpt>
      <trkpt lat="42.497898" lon="1.559885">
        <ele>1759.000000</ele>
        <time>2020-08-22T10:53:16Z</time>
      </trkpt>
      <trkpt lat="42.497898" lon="1.559923">
        <ele>1759.000000</ele>
        <time>2020-08-22T10:53:16Z</time>
      </trkpt>
      <trkpt lat="42.497898" lon="1.559923">
        <ele>1759.000000</ele>
        <time>2020-08-22T10:53:16Z</time>
      </trkpt>
      <trkpt lat="42.497894" lon="1.559925">
        <ele>1759.000000</ele>
        <time>2020-08-22T10:53:16Z</time>
      </trkpt>
      <trkpt lat="42.497894" lon="1.559925">
        <ele>1759.000000</ele>
        <time>2020-08-22T10:53:16Z</time>
      </trkpt>
      <trkpt lat="42.497894" lon="1.559928">
        <ele>1759.000000</ele>
        <time>2020-08-22T10:53:16Z</time>
      </trkpt>
      <trkpt lat="42.497894" lon="1.559928">
        <ele>1766.000000</ele>
        <time>2020-08-22T10:53:16Z</time>
      </trkpt>
      <trkpt lat="42.497894" lon="1.559932">
        <ele>1766.000000</ele>
        <time>2020-08-22T10:53:23Z</time>
      </trkpt>
      <trkpt lat="42.497894" lon="1.559932">
        <ele>1767.000000</ele>
        <time>2020-08-22T10:53:23Z</time>
      </trkpt>
      <trkpt lat="42.497894" lon="1.559938">
        <ele>1767.000000</ele>
        <time>2020-08-22T10:53:23Z</time>
      </trkpt>
      <trkpt lat="42.497894" lon="1.559938">
        <ele>1767.000000</ele>
        <time>2020-08-22T10:53:23Z</time>
      </trkpt>
      <trkpt lat="42.497890" lon="1.559943">
        <ele>1767.000000</ele>
        <time>2020-08-22T10:53:23Z</time>
      </trkpt>
      <trkpt lat="42.497890" lon="1.559943">
        <ele>1767.000000</ele>
        <time>2020-08-22T10:53:23Z</time>
      </trkpt>
      <trkpt lat="42.497887" lon="1.559949">
        <ele>1767.000000</ele>
        <time>2020-08-22T10:53:23Z</time>
      </trkpt>
      <trkpt lat="42.497887" lon="1.559949">
        <ele>1767.000000</ele>
        <time>2020-08-22T10:53:23Z</time>
      </trkpt>
      <trkpt lat="42.497887" lon="1.559955">
        <ele>1768.000000</ele>
        <time>2020-08-22T10:53:23Z</time>
      </trkpt>
      <trkpt lat="42.497887" lon="1.559955">
        <ele>1768.000000</ele>
        <time>2020-08-22T10:53:23Z</time>
      </trkpt>
      <trkpt lat="42.497887" lon="1.559961">
        <ele>1768.000000</ele>
        <time>2020-08-22T10:53:23Z</time>
      </trkpt>
      <trkpt lat="42.497887" lon="1.559961">
        <ele>1768.000000</ele>
        <time>2020-08-22T10:53:23Z</time>
      </trkpt>
      <trkpt lat="42.497887" lon="1.559968">
        <ele>1768.000000</ele>
        <time>2020-08-22T10:53:23Z</time>
      </trkpt>
      <trkpt lat="42.497887" lon="1.559968">
        <ele>1768.000000</ele>
        <time>2020-08-22T10:53:23Z</time>
      </trkpt>
      <trkpt lat="42.497894" lon="1.560012">
        <ele>1768.000000</ele>
        <time>2020-08-22T10:53:30Z</time>
      </trkpt>
      <trkpt lat="42.497894" lon="1.560012">
        <ele>1768.000000</ele>
        <time>2020-08-22T10:53:30Z</time>
      </trkpt>
      <trkpt lat="42.497902" lon="1.560056">
        <ele>1768.000000</ele>
        <time>2020-08-22T10:53:30Z</time>
      </trkpt>
      <trkpt lat="42.497902" lon="1.560056">
        <ele>1768.000000</ele>
        <time>2020-08-22T10:53:30Z</time>
      </trkpt>
      <trkpt lat="42.497913" lon="1.560100">
        <ele>1768.000000</ele>
        <time>2020-08-22T10:53:30Z</time>
      </trkpt>
      <trkpt lat="42.497913" lon="1.560100">
        <ele>1774.000000</ele>
        <time>2020-08-22T10:53:30Z</time>
      </trkpt>
      <trkpt lat="42.497921" lon="1.560144">
        <ele>1774.000000</ele>
        <time>2020-08-22T10:53:30Z</time>
      </trkpt>
      <trkpt lat="42.497921" lon="1.560144">
        <ele>1775.000000</ele>
        <time>2020-08-22T10:53:30Z</time>
      </trkpt>
      <trkpt lat="42.497936" lon="1.560188">
        <ele>1775.000000</ele>
        <time>2020-08-22T10:53:30Z</time>
      </trkpt>
      <trkpt lat="42.497936" lon="1.560188">
        <ele>1775.000000</ele>
        <time>2020-08-22T10:53:30Z</time>
      </trkpt>
      <trkpt lat="42.497948" lon="1.560231">
        <ele>1776.000000</ele>
        <time>2020-08-22T10:53:30Z</time>
      </trkpt>
      <trkpt lat="42.497948" lon="1.560231">
        <ele>1776.000000</ele>
        <time>2020-08-22T10:53:30Z</time>
      </trkpt>
      <trkpt lat="42.497959" lon="1.560274">
        <ele>1776.000000</ele>
        <time>2020-08-22T10:53:30Z</time>
      </trkpt>
      <trkpt lat="42.497959" lon="1.560274">
        <ele>1776.000000</ele>
        <time>2020-08-22T10:53:30Z</time>
      </trkpt>
      <trkpt lat="42.497974" lon="1.560316">
        <ele>1776.000000</ele>
        <time>2020-08-22T10:53:39Z</time>
      </trkpt>
      <trkpt lat="42.497974" lon="1.560316">
        <ele>1781.000000</ele>
        <time>2020-08-22T10:53:39Z</time>
      </trkpt>
      <trkpt lat="42.497986" lon="1.560360">
        <ele>1781.000000</ele>
        <time>2020-08-22T10:53:39Z</time>
      </trkpt>
      <trkpt lat="42.497986" lon="1.560360">
        <ele>1781.000000</ele>
        <time>2020-08-22T10:53:39Z</time>
      </trkpt>
      <trkpt lat="42.498001" lon="1.560403">
        <ele>1781.000000</ele>
        <time>2020-08-22T10:53:39Z</time>
      </trkpt>
      <trkpt lat="42.498001" lon="1.560403">
        <ele>1781.000000</ele>
        <time>2020-08-22T10:53:39Z</time>
      </trkpt>
      <trkpt lat="42.498001" lon="1.560414">
        <ele>1781.000000</ele>
        <time>2020-08-22T10:53:39Z</time>
      </trkpt>
      <trkpt lat="42.498001" lon="1.560414">
        <ele>1781.000000</ele>
        <time>2020-08-22T10:53:39Z</time>
      </trkpt>
      <trkpt lat="42.498001" lon="1.560426">
        <ele>1781.000000</ele>
        <time>2020-08-22T10:53:39Z</time>
      </trkpt>
      <trkpt lat="42.498001" lon="1.560426">
        <ele>1781.000000</ele>
        <time>2020-08-22T10:53:39Z</time>
      </trkpt>
      <trkpt lat="42.498001" lon="1.560439">
        <ele>1781.000000</ele>
        <time>2020-08-22T10:53:39Z</time>
      </trkpt>
      <trkpt lat="42.498001" lon="1.560439">
        <ele>1785.000000</ele>
        <time>2020-08-22T10:53:39Z</time>
      </trkpt>
      <trkpt lat="42.498001" lon="1.560451">
        <ele>1785.000000</ele>
        <time>2020-08-22T10:53:46Z</time>
      </trkpt>
      <trkpt lat="42.498001" lon="1.560451">
        <ele>1785.000000</ele>
        <time>2020-08-22T10:53:46Z</time>
      </trkpt>
      <trkpt lat="42.498001" lon="1.560463">
        <ele>1785.000000</ele>
        <time>2020-08-22T10:53:46Z</time>
      </trkpt>
      <trkpt lat="42.498001" lon="1.560463">
        <ele>1785.000000</ele>
        <time>2020-08-22T10:53:46Z</time>
      </trkpt>
      <trkpt lat="42.497997" lon="1.560475">
        <ele>1786.000000</ele>
        <time>2020-08-22T10:53:46Z</time>
      </trkpt>
      <trkpt lat="42.497997" lon="1.560475">
        <ele>1786.000000</ele>
        <time>2020-08-22T10:53:46Z</time>
      </trkpt>
      <trkpt lat="42.497997" lon="1.560488">
        <ele>1786.000000</ele>
        <time>2020-08-22T10:53:46Z</time>
      </trkpt>
      <trkpt lat="42.497997" lon="1.560488">
        <ele>1786.000000</ele>
        <time>2020-08-22T10:53:46Z</time>
      </trkpt>
      <trkpt lat="42.497993" lon="1.560501">
        <ele>1787.000000</ele>
        <time>2020-08-22T10:53:46Z</time>
      </trkpt>
      <trkpt lat="42.497993" lon="1.560501">
        <ele>1792.000000</ele>
        <time>2020-08-22T10:53:46Z</time>
      </trkpt>
      <trkpt lat="42.497990" lon="1.560515">
        <ele>1792.000000</ele>
        <time>2020-08-22T10:53:46Z</time>
      </trkpt>
      <trkpt lat="42.497990" lon="1.560515">
        <ele>1792.000000</ele>
        <time>2020-08-22T10:53:46Z</time>
      </trkpt>
      <trkpt lat="42.497990" lon="1.560531">
        <ele>1792.000000</ele>
        <time>2020-08-22T10:53:46Z</time>
      </trkpt>
      <trkpt lat="42.497990" lon="1.560531">
        <ele>1793.000000</ele>
        <time>2020-08-22T10:53:46Z</time>
      </trkpt>
      <trkpt lat="42.497990" lon="1.560548">
        <ele>1793.000000</ele>
        <time>2020-08-22T10:53:46Z</time>
      </trkpt>
      <trkpt lat="42.497990" lon="1.560548">
        <ele>1793.000000</ele>
        <time>2020-08-22T10:53:46Z</time>
      </trkpt>
      <trkpt lat="42.497993" lon="1.560564">
        <ele>1793.000000</ele>
        <time>2020-08-22T10:53:46Z</time>
      </trkpt>
      <trkpt lat="42.497993" lon="1.560564">
        <ele>1793.000000</ele>
        <time>2020-08-22T10:53:46Z</time>
      </trkpt>
      <trkpt lat="42.497993" lon="1.560580">
        <ele>1794.000000</ele>
        <time>2020-08-22T10:53:46Z</time>
      </trkpt>
      <trkpt lat="42.497993" lon="1.560580">
        <ele>1794.000000</ele>
        <time>2020-08-22T10:53:46Z</time>
      </trkpt>
      <trkpt lat="42.497993" lon="1.560596">
        <ele>1794.000000</ele>
        <time>2020-08-22T10:53:46Z</time>
      </trkpt>
      <trkpt lat="42.497993" lon="1.560596">
        <ele>1794.000000</ele>
        <time>2020-08-22T10:53:46Z</time>
      </trkpt>
      <trkpt lat="42.497993" lon="1.560613">
        <ele>1794.000000</ele>
        <time>2020-08-22T10:53:53Z</time>
      </trkpt>
      <trkpt lat="42.497993" lon="1.560613">
        <ele>1794.000000</ele>
        <time>2020-08-22T10:53:53Z</time>
      </trkpt>
      <trkpt lat="42.497990" lon="1.560630">
        <ele>1794.000000</ele>
        <time>2020-08-22T10:53:53Z</time>
      </trkpt>
      <trkpt lat="42.497990" lon="1.560630">
        <ele>1794.000000</ele>
        <time>2020-08-22T10:53:53Z</time>
      </trkpt>
      <trkpt lat="42.497990" lon="1.560648">
        <ele>1795.000000</ele>
        <time>2020-08-22T10:53:53Z</time>
      </trkpt>
      <trkpt lat="42.497990" lon="1.560648">
        <ele>1795.000000</ele>
        <time>2020-08-22T10:53:53Z</time>
      </trkpt>
      <trkpt lat="42.497986" lon="1.560666">
        <ele>1795.000000</ele>
        <time>2020-08-22T10:53:53Z</time>
      </trkpt>
      <trkpt lat="42.497986" lon="1.560666">
        <ele>1796.000000</ele>
        <time>2020-08-22T10:53:53Z</time>
      </trkpt>
      <trkpt lat="42.497986" lon="1.560682">
        <ele>1796.000000</ele>
        <time>2020-08-22T10:53:53Z</time>
      </trkpt>
      <trkpt lat="42.497986" lon="1.560682">
        <ele>1796.000000</ele>
        <time>2020-08-22T10:53:53Z</time>
      </trkpt>
      <trkpt lat="42.497978" lon="1.560698">
        <ele>1796.000000</ele>
        <time>2020-08-22T10:53:53Z</time>
      </trkpt>
      <trkpt lat="42.497978" lon="1.560698">
        <ele>1796.000000</ele>
        <time>2020-08-22T10:53:53Z</time>
      </trkpt>
      <trkpt lat="42.497978" lon="1.560717">
        <ele>1797.000000</ele>
        <time>2020-08-22T10:53:53Z</time>
      </trkpt>
      <trkpt lat="42.497978" lon="1.560717">
        <ele>1798.000000</ele>
        <time>2020-08-22T10:53:53Z</time>
      </trkpt>
      <trkpt lat="42.497978" lon="1.560736">
        <ele>1798.000000</ele>
        <time>2020-08-22T10:53:53Z</time>
      </trkpt>
      <trkpt lat="42.497978" lon="1.560736">
        <ele>1799.000000</ele>
        <time>2020-08-22T10:53:53Z</time>
      </trkpt>
      <trkpt lat="42.497978" lon="1.560756">
        <ele>1799.000000</ele>
        <time>2020-08-22T10:53:53Z</time>
      </trkpt>
      <trkpt lat="42.497978" lon="1.560756">
        <ele>1800.000000</ele>
        <time>2020-08-22T10:53:53Z</time>
      </trkpt>
      <trkpt lat="42.497978" lon="1.560776">
        <ele>1800.000000</ele>
        <time>2020-08-22T10:54:00Z</time>
      </trkpt>
      <trkpt lat="42.497978" lon="1.560776">
        <ele>1800.000000</ele>
        <time>2020-08-22T10:54:00Z</time>
      </trkpt>
      <trkpt lat="42.497978" lon="1.560795">
        <ele>1800.000000</ele>
        <time>2020-08-22T10:54:00Z</time>
      </trkpt>
      <trkpt lat="42.497978" lon="1.560795">
        <ele>1800.000000</ele>
        <time>2020-08-22T10:54:00Z</time>
      </trkpt>
      <trkpt lat="42.497982" lon="1.560813">
        <ele>1800.000000</ele>
        <time>2020-08-22T10:54:00Z</time>
      </trkpt>
      <trkpt lat="42.497982" lon="1.560813">
        <ele>1801.000000</ele>
        <time>2020-08-22T10:54:00Z</time>
      </trkpt>
      <trkpt lat="42.497986" lon="1.560829">
        <ele>1801.000000</ele>
        <time>2020-08-22T10:54:00Z</time>
      </trkpt>
      <trkpt lat="42.497986" lon="1.560829">
        <ele>1801.000000</ele>
        <time>2020-08-22T10:54:00Z</time>
      </trkpt>
      <trkpt lat="42.497986" lon="1.560845">
        <ele>1801.000000</ele>
        <time>2020-08-22T10:54:00Z</time>
      </trkpt>
      <trkpt lat="42.497986" lon="1.560845">
        <ele>1803.000000</ele>
        <time>2020-08-22T10:54:00Z</time>
      </trkpt>
      <trkpt lat="42.497990" lon="1.560860">
        <ele>1803.000000</ele>
        <time>2020-08-22T10:54:00Z</time>
      </trkpt>
      <trkpt lat="42.497990" lon="1.560860">
        <ele>1803.000000</ele>
        <time>2020-08-22T10:54:00Z</time>
      </trkpt>
      <trkpt lat="42.497993" lon="1.560876">
        <ele>1803.000000</ele>
        <time>2020-08-22T10:54:00Z</time>
      </trkpt>
      <trkpt lat="42.497993" lon="1.560876">
        <ele>1804.000000</ele>
        <time>2020-08-22T10:54:00Z</time>
      </trkpt>
      <trkpt lat="42.497993" lon="1.560885">
        <ele>1804.000000</ele>
        <time>2020-08-22T10:54:07Z</time>
      </trkpt>
      <trkpt lat="42.497993" lon="1.560885">
        <ele>1804.000000</ele>
        <time>2020-08-22T10:54:07Z</time>
      </trkpt>
      <trkpt lat="42.497990" lon="1.560896">
        <ele>1804.000000</ele>
        <time>2020-08-22T10:54:07Z</time>
      </trkpt>
      <trkpt lat="42.497990" lon="1.560896">
        <ele>1804.000000</ele>
        <time>2020-08-22T10:54:07Z</time>
      </trkpt>
      <trkpt lat="42.497986" lon="1.560907">
        <ele>1804.000000</ele>
        <time>2020-08-22T10:54:07Z</time>
      </trkpt>
      <trkpt lat="42.497986" lon="1.560907">
        <ele>1805.000000</ele>
        <time>2020-08-22T10:54:07Z</time>
      </trkpt>
      <trkpt lat="42.497986" lon="1.560920">
        <ele>1805.000000</ele>
        <time>2020-08-22T10:54:07Z</time>
      </trkpt>
      <trkpt lat="42.497986" lon="1.560920">
        <ele>1805.000000</ele>
        <time>2020-08-22T10:54:07Z</time>
      </trkpt>
      <trkpt lat="42.497986" lon="1.560934">
        <ele>1805.000000</ele>
        <time>2020-08-22T10:54:07Z</time>
      </trkpt>
      <trkpt lat="42.497986" lon="1.560934">
        <ele>1805.000000</ele>
        <time>2020-08-22T10:54:07Z</time>
      </trkpt>
      <trkpt lat="42.497978" lon="1.560949">
        <ele>1805.000000</ele>
        <time>2020-08-22T10:54:07Z</time>
      </trkpt>
      <trkpt lat="42.497978" lon="1.560949">
        <ele>1805.000000</ele>
        <time>2020-08-22T10:54:07Z</time>
      </trkpt>
      <trkpt lat="42.497974" lon="1.560964">
        <ele>1805.000000</ele>
        <time>2020-08-22T10:54:07Z</time>
      </trkpt>
      <trkpt lat="42.497974" lon="1.560964">
        <ele>1805.000000</ele>
        <time>2020-08-22T10:54:07Z</time>
      </trkpt>
      <trkpt lat="42.497974" lon="1.560980">
        <ele>1805.000000</ele>
        <time>2020-08-22T10:54:15Z</time>
      </trkpt>
      <trkpt lat="42.497974" lon="1.560980">
        <ele>1806.000000</ele>
        <time>2020-08-22T10:54:15Z</time>
      </trkpt>
      <trkpt lat="42.497971" lon="1.560995">
        <ele>1807.000000</ele>
        <time>2020-08-22T10:54:15Z</time>
      </trkpt>
      <trkpt lat="42.497971" lon="1.560995">
        <ele>1807.000000</ele>
        <time>2020-08-22T10:54:15Z</time>
      </trkpt>
      <trkpt lat="42.497967" lon="1.561010">
        <ele>1807.000000</ele>
        <time>2020-08-22T10:54:15Z</time>
      </trkpt>
      <trkpt lat="42.497967" lon="1.561010">
        <ele>1807.000000</ele>
        <time>2020-08-22T10:54:15Z</time>
      </trkpt>
      <trkpt lat="42.497967" lon="1.561026">
        <ele>1807.000000</ele>
        <time>2020-08-22T10:54:31Z</time>
      </trkpt>
      <trkpt lat="42.497967" lon="1.561026">
        <ele>1808.000000</ele>
        <time>2020-08-22T10:54:31Z</time>
      </trkpt>
      <trkpt lat="42.497967" lon="1.561040">
        <ele>1808.000000</ele>
        <time>2020-08-22T10:54:31Z</time>
      </trkpt>
      <trkpt lat="42.497967" lon="1.561040">
        <ele>1808.000000</ele>
        <time>2020-08-22T10:54:31Z</time>
      </trkpt>
      <trkpt lat="42.497967" lon="1.561053">
        <ele>1808.000000</ele>
        <time>2020-08-22T10:54:31Z</time>
      </trkpt>
      <trkpt lat="42.497967" lon="1.561053">
        <ele>1810.000000</ele>
        <time>2020-08-22T10:54:31Z</time>
      </trkpt>
      <trkpt lat="42.497971" lon="1.561064">
        <ele>1810.000000</ele>
        <time>2020-08-22T10:54:31Z</time>
      </trkpt>
      <trkpt lat="42.497971" lon="1.561064">
        <ele>1810.000000</ele>
        <time>2020-08-22T10:54:31Z</time>
      </trkpt>
      <trkpt lat="42.497974" lon="1.561074">
        <ele>1810.000000</ele>
        <time>2020-08-22T10:54:38Z</time>
      </trkpt>
      <trkpt lat="42.497974" lon="1.561074">
        <ele>1811.000000</ele>
        <time>2020-08-22T10:54:38Z</time>
      </trkpt>
      <trkpt lat="42.497982" lon="1.561083">
        <ele>1811.000000</ele>
        <time>2020-08-22T10:54:38Z</time>
      </trkpt>
      <trkpt lat="42.497982" lon="1.561083">
        <ele>1811.000000</ele>
        <time>2020-08-22T10:54:38Z</time>
      </trkpt>
      <trkpt lat="42.497986" lon="1.561092">
        <ele>1811.000000</ele>
        <time>2020-08-22T10:54:38Z</time>
      </trkpt>
      <trkpt lat="42.497986" lon="1.561092">
        <ele>1811.000000</ele>
        <time>2020-08-22T10:54:38Z</time>
      </trkpt>
      <trkpt lat="42.497993" lon="1.561102">
        <ele>1811.000000</ele>
        <time>2020-08-22T10:54:38Z</time>
      </trkpt>
      <trkpt lat="42.497993" lon="1.561102">
        <ele>1811.000000</ele>
        <time>2020-08-22T10:54:38Z</time>
      </trkpt>
      <trkpt lat="42.498001" lon="1.561113">
        <ele>1811.000000</ele>
        <time>2020-08-22T10:54:38Z</time>
      </trkpt>
      <trkpt lat="42.498001" lon="1.561113">
        <ele>1811.000000</ele>
        <time>2020-08-22T10:54:38Z</time>
      </trkpt>
      <trkpt lat="42.498013" lon="1.561124">
        <ele>1812.000000</ele>
        <time>2020-08-22T10:54:38Z</time>
      </trkpt>
      <trkpt lat="42.498013" lon="1.561124">
        <ele>1812.000000</ele>
        <time>2020-08-22T10:54:38Z</time>
      </trkpt>
      <trkpt lat="42.498020" lon="1.561134">
        <ele>1812.000000</ele>
        <time>2020-08-22T10:54:38Z</time>
      </trkpt>
      <trkpt lat="42.498020" lon="1.561134">
        <ele>1812.000000</ele>
        <time>2020-08-22T10:54:38Z</time>
      </trkpt>
      <trkpt lat="42.498028" lon="1.561145">
        <ele>1812.000000</ele>
        <time>2020-08-22T10:54:45Z</time>
      </trkpt>
      <trkpt lat="42.498028" lon="1.561145">
        <ele>1813.000000</ele>
        <time>2020-08-22T10:54:45Z</time>
      </trkpt>
      <trkpt lat="42.498035" lon="1.561158">
        <ele>1813.000000</ele>
        <time>2020-08-22T10:54:45Z</time>
      </trkpt>
      <trkpt lat="42.498035" lon="1.561158">
        <ele>1814.000000</ele>
        <time>2020-08-22T10:54:45Z</time>
      </trkpt>
      <trkpt lat="42.498043" lon="1.561170">
        <ele>1814.000000</ele>
        <time>2020-08-22T10:54:45Z</time>
      </trkpt>
      <trkpt lat="42.498043" lon="1.561170">
        <ele>1814.000000</ele>
        <time>2020-08-22T10:54:45Z</time>
      </trkpt>
      <trkpt lat="42.498051" lon="1.561183">
        <ele>1814.000000</ele>
        <time>2020-08-22T10:54:45Z</time>
      </trkpt>
      <trkpt lat="42.498051" lon="1.561183">
        <ele>1814.000000</ele>
        <time>2020-08-22T10:54:45Z</time>
      </trkpt>
      <trkpt lat="42.498058" lon="1.561197">
        <ele>1814.000000</ele>
        <time>2020-08-22T10:54:45Z</time>
      </trkpt>
      <trkpt lat="42.498058" lon="1.561197">
        <ele>1814.000000</ele>
        <time>2020-08-22T10:54:45Z</time>
      </trkpt>
      <trkpt lat="42.498062" lon="1.561210">
        <ele>1814.000000</ele>
        <time>2020-08-22T10:54:45Z</time>
      </trkpt>
      <trkpt lat="42.498062" lon="1.561210">
        <ele>1814.000000</ele>
        <time>2020-08-22T10:54:45Z</time>
      </trkpt>
      <trkpt lat="42.498070" lon="1.561223">
        <ele>1815.000000</ele>
        <time>2020-08-22T10:54:45Z</time>
      </trkpt>
      <trkpt lat="42.498070" lon="1.561223">
        <ele>1816.000000</ele>
        <time>2020-08-22T10:54:45Z</time>
      </trkpt>
      <trkpt lat="42.498074" lon="1.561236">
        <ele>1816.000000</ele>
        <time>2020-08-22T10:54:45Z</time>
      </trkpt>
      <trkpt lat="42.498074" lon="1.561236">
        <ele>1817.000000</ele>
        <time>2020-08-22T10:54:45Z</time>
      </trkpt>
      <trkpt lat="42.498081" lon="1.561250">
        <ele>1817.000000</ele>
        <time>2020-08-22T10:54:45Z</time>
      </trkpt>
      <trkpt lat="42.498081" lon="1.561250">
        <ele>1817.000000</ele>
        <time>2020-08-22T10:54:45Z</time>
      </trkpt>
      <trkpt lat="42.498089" lon="1.561263">
        <ele>1817.000000</ele>
        <time>2020-08-22T10:54:45Z</time>
      </trkpt>
      <trkpt lat="42.498089" lon="1.561263">
        <ele>1817.000000</ele>
        <time>2020-08-22T10:54:45Z</time>
      </trkpt>
      <trkpt lat="42.498093" lon="1.561276">
        <ele>1817.000000</ele>
        <time>2020-08-22T10:54:52Z</time>
      </trkpt>
      <trkpt lat="42.498093" lon="1.561276">
        <ele>1818.000000</ele>
        <time>2020-08-22T10:54:52Z</time>
      </trkpt>
      <trkpt lat="42.498100" lon="1.561288">
        <ele>1818.000000</ele>
        <time>2020-08-22T10:54:52Z</time>
      </trkpt>
      <trkpt lat="42.498100" lon="1.561288">
        <ele>1820.000000</ele>
        <time>2020-08-22T10:54:52Z</time>
      </trkpt>
      <trkpt lat="42.498100" lon="1.561300">
        <ele>1820.000000</ele>
        <time>2020-08-22T10:54:52Z</time>
      </trkpt>
      <trkpt lat="42.498100" lon="1.561300">
        <ele>1820.000000</ele>
        <time>2020-08-22T10:54:52Z</time>
      </trkpt>
      <trkpt lat="42.498108" lon="1.561312">
        <ele>1820.000000</ele>
        <time>2020-08-22T10:54:52Z</time>
      </trkpt>
      <trkpt lat="42.498108" lon="1.561312">
        <ele>1821.000000</ele>
        <time>2020-08-22T10:54:52Z</time>
      </trkpt>
      <trkpt lat="42.498108" lon="1.561324">
        <ele>1821.000000</ele>
        <time>2020-08-22T10:54:52Z</time>
      </trkpt>
      <trkpt lat="42.498108" lon="1.561324">
        <ele>1821.000000</ele>
        <time>2020-08-22T10:54:52Z</time>
      </trkpt>
      <trkpt lat="42.498112" lon="1.561337">
        <ele>1821.000000</ele>
        <time>2020-08-22T10:54:52Z</time>
      </trkpt>
      <trkpt lat="42.498112" lon="1.561337">
        <ele>1822.000000</ele>
        <time>2020-08-22T10:54:52Z</time>
      </trkpt>
      <trkpt lat="42.498116" lon="1.561349">
        <ele>1822.000000</ele>
        <time>2020-08-22T10:54:52Z</time>
      </trkpt>
      <trkpt lat="42.498116" lon="1.561349">
        <ele>1822.000000</ele>
        <time>2020-08-22T10:54:52Z</time>
      </trkpt>
      <trkpt lat="42.498119" lon="1.561360">
        <ele>1822.000000</ele>
        <time>2020-08-22T10:54:59Z</time>
      </trkpt>
      <trkpt lat="42.498119" lon="1.561360">
        <ele>1822.000000</ele>
        <time>2020-08-22T10:54:59Z</time>
      </trkpt>
      <trkpt lat="42.498123" lon="1.561371">
        <ele>1823.000000</ele>
        <time>2020-08-22T10:54:59Z</time>
      </trkpt>
      <trkpt lat="42.498123" lon="1.561371">
        <ele>1823.000000</ele>
        <time>2020-08-22T10:54:59Z</time>
      </trkpt>
      <trkpt lat="42.498123" lon="1.561381">
        <ele>1823.000000</ele>
        <time>2020-08-22T10:54:59Z</time>
      </trkpt>
      <trkpt lat="42.498123" lon="1.561381">
        <ele>1823.000000</ele>
        <time>2020-08-22T10:54:59Z</time>
      </trkpt>
      <trkpt lat="42.498127" lon="1.561393">
        <ele>1823.000000</ele>
        <time>2020-08-22T10:54:59Z</time>
      </trkpt>
      <trkpt lat="42.498127" lon="1.561393">
        <ele>1824.000000</ele>
        <time>2020-08-22T10:54:59Z</time>
      </trkpt>
      <trkpt lat="42.498127" lon="1.561405">
        <ele>1824.000000</ele>
        <time>2020-08-22T10:54:59Z</time>
      </trkpt>
      <trkpt lat="42.498127" lon="1.561405">
        <ele>1826.000000</ele>
        <time>2020-08-22T10:54:59Z</time>
      </trkpt>
      <trkpt lat="42.498127" lon="1.561416">
        <ele>1826.000000</ele>
        <time>2020-08-22T10:54:59Z</time>
      </trkpt>
      <trkpt lat="42.498127" lon="1.561416">
        <ele>1826.000000</ele>
        <time>2020-08-22T10:54:59Z</time>
      </trkpt>
      <trkpt lat="42.498131" lon="1.561427">
        <ele>1826.000000</ele>
        <time>2020-08-22T10:54:59Z</time>
      </trkpt>
      <trkpt lat="42.498131" lon="1.561427">
        <ele>1826.000000</ele>
        <time>2020-08-22T10:54:59Z</time>
      </trkpt>
      <trkpt lat="42.498135" lon="1.561437">
        <ele>1826.000000</ele>
        <time>2020-08-22T10:55:06Z</time>
      </trkpt>
      <trkpt lat="42.498135" lon="1.561437">
        <ele>1826.000000</ele>
        <time>2020-08-22T10:55:06Z</time>
      </trkpt>
      <trkpt lat="42.498138" lon="1.561448">
        <ele>1826.000000</ele>
        <time>2020-08-22T10:55:06Z</time>
      </trkpt>
      <trkpt lat="42.498138" lon="1.561448">
        <ele>1826.000000</ele>
        <time>2020-08-22T10:55:06Z</time>
      </trkpt>
      <trkpt lat="42.498142" lon="1.561458">
        <ele>1826.000000</ele>
        <time>2020-08-22T10:55:06Z</time>
      </trkpt>
      <trkpt lat="42.498142" lon="1.561458">
        <ele>1832.000000</ele>
        <time>2020-08-22T10:55:06Z</time>
      </trkpt>
      <trkpt lat="42.498146" lon="1.561469">
        <ele>1832.000000</ele>
        <time>2020-08-22T10:55:06Z</time>
      </trkpt>
      <trkpt lat="42.498146" lon="1.561469">
        <ele>1832.000000</ele>
        <time>2020-08-22T10:55:06Z</time>
      </trkpt>
      <trkpt lat="42.498154" lon="1.561481">
        <ele>1832.000000</ele>
        <time>2020-08-22T10:55:06Z</time>
      </trkpt>
      <trkpt lat="42.498154" lon="1.561481">
        <ele>1832.000000</ele>
        <time>2020-08-22T10:55:06Z</time>
      </trkpt>
      <trkpt lat="42.498157" lon="1.561492">
        <ele>1833.000000</ele>
        <time>2020-08-22T10:55:06Z</time>
      </trkpt>
      <trkpt lat="42.498157" lon="1.561492">
        <ele>1833.000000</ele>
        <time>2020-08-22T10:55:06Z</time>
      </trkpt>
      <trkpt lat="42.498161" lon="1.561504">
        <ele>1833.000000</ele>
        <time>2020-08-22T10:55:06Z</time>
      </trkpt>
      <trkpt lat="42.498161" lon="1.561504">
        <ele>1833.000000</ele>
        <time>2020-08-22T10:55:06Z</time>
      </trkpt>
      <trkpt lat="42.498169" lon="1.561517">
        <ele>1833.000000</ele>
        <time>2020-08-22T10:55:13Z</time>
      </trkpt>
      <trkpt lat="42.498169" lon="1.561517">
        <ele>1833.000000</ele>
        <time>2020-08-22T10:55:13Z</time>
      </trkpt>
      <trkpt lat="42.498177" lon="1.561530">
        <ele>1833.000000</ele>
        <time>2020-08-22T10:55:13Z</time>
      </trkpt>
      <trkpt lat="42.498177" lon="1.561530">
        <ele>1833.000000</ele>
        <time>2020-08-22T10:55:13Z</time>
      </trkpt>
      <trkpt lat="42.498180" lon="1.561544">
        <ele>1833.000000</ele>
        <time>2020-08-22T10:55:13Z</time>
      </trkpt>
      <trkpt lat="42.498180" lon="1.561544">
        <ele>1833.000000</ele>
        <time>2020-08-22T10:55:13Z</time>
      </trkpt>
      <trkpt lat="42.498184" lon="1.561557">
        <ele>1833.000000</ele>
        <time>2020-08-22T10:55:13Z</time>
      </trkpt>
      <trkpt lat="42.498184" lon="1.561557">
        <ele>1833.000000</ele>
        <time>2020-08-22T10:55:13Z</time>
      </trkpt>
      <trkpt lat="42.498188" lon="1.561570">
        <ele>1833.000000</ele>
        <time>2020-08-22T10:55:13Z</time>
      </trkpt>
      <trkpt lat="42.498188" lon="1.561570">
        <ele>1833.000000</ele>
        <time>2020-08-22T10:55:13Z</time>
      </trkpt>
      <trkpt lat="42.498188" lon="1.561583">
        <ele>1833.000000</ele>
        <time>2020-08-22T10:55:13Z</time>
      </trkpt>
      <trkpt lat="42.498188" lon="1.561583">
        <ele>1834.000000</ele>
        <time>2020-08-22T10:55:13Z</time>
      </trkpt>
      <trkpt lat="42.498192" lon="1.561594">
        <ele>1834.000000</ele>
        <time>2020-08-22T10:55:13Z</time>
      </trkpt>
      <trkpt lat="42.498192" lon="1.561594">
        <ele>1834.000000</ele>
        <time>2020-08-22T10:55:13Z</time>
      </trkpt>
      <trkpt lat="42.498192" lon="1.561604">
        <ele>1834.000000</ele>
        <time>2020-08-22T10:55:20Z</time>
      </trkpt>
      <trkpt lat="42.498192" lon="1.561604">
        <ele>1834.000000</ele>
        <time>2020-08-22T10:55:20Z</time>
      </trkpt>
      <trkpt lat="42.498192" lon="1.561614">
        <ele>1834.000000</ele>
        <time>2020-08-22T10:55:20Z</time>
      </trkpt>
      <trkpt lat="42.498192" lon="1.561614">
        <ele>1834.000000</ele>
        <time>2020-08-22T10:55:20Z</time>
      </trkpt>
      <trkpt lat="42.498188" lon="1.561623">
        <ele>1834.000000</ele>
        <time>2020-08-22T10:55:20Z</time>
      </trkpt>
      <trkpt lat="42.498188" lon="1.561623">
        <ele>1834.000000</ele>
        <time>2020-08-22T10:55:20Z</time>
      </trkpt>
      <trkpt lat="42.498188" lon="1.561633">
        <ele>1834.000000</ele>
        <time>2020-08-22T10:55:20Z</time>
      </trkpt>
      <trkpt lat="42.498188" lon="1.561633">
        <ele>1834.000000</ele>
        <time>2020-08-22T10:55:20Z</time>
      </trkpt>
      <trkpt lat="42.498184" lon="1.561642">
        <ele>1834.000000</ele>
        <time>2020-08-22T10:55:20Z</time>
      </trkpt>
      <trkpt lat="42.498184" lon="1.561642">
        <ele>1834.000000</ele>
        <time>2020-08-22T10:55:20Z</time>
      </trkpt>
      <trkpt lat="42.498180" lon="1.561654">
        <ele>1834.000000</ele>
        <time>2020-08-22T10:55:20Z</time>
      </trkpt>
      <trkpt lat="42.498180" lon="1.561654">
        <ele>1834.000000</ele>
        <time>2020-08-22T10:55:20Z</time>
      </trkpt>
      <trkpt lat="42.498177" lon="1.561667">
        <ele>1834.000000</ele>
        <time>2020-08-22T10:55:27Z</time>
      </trkpt>
      <trkpt lat="42.498177" lon="1.561667">
        <ele>1834.000000</ele>
        <time>2020-08-22T10:55:27Z</time>
      </trkpt>
      <trkpt lat="42.498169" lon="1.561680">
        <ele>1834.000000</ele>
        <time>2020-08-22T10:55:27Z</time>
      </trkpt>
      <trkpt lat="42.498169" lon="1.561680">
        <ele>1834.000000</ele>
        <time>2020-08-22T10:55:27Z</time>
      </trkpt>
      <trkpt lat="42.498165" lon="1.561694">
        <ele>1834.000000</ele>
        <time>2020-08-22T10:55:27Z</time>
      </trkpt>
      <trkpt lat="42.498165" lon="1.561694">
        <ele>1834.000000</ele>
        <time>2020-08-22T10:55:27Z</time>
      </trkpt>
      <trkpt lat="42.498161" lon="1.561710">
        <ele>1834.000000</ele>
        <time>2020-08-22T10:55:27Z</time>
      </trkpt>
      <trkpt lat="42.498161" lon="1.561710">
        <ele>1834.000000</ele>
        <time>2020-08-22T10:55:27Z</time>
      </trkpt>
      <trkpt lat="42.498154" lon="1.561727">
        <ele>1834.000000</ele>
        <time>2020-08-22T10:55:27Z</time>
      </trkpt>
      <trkpt lat="42.498154" lon="1.561727">
        <ele>1834.000000</ele>
        <time>2020-08-22T10:55:27Z</time>
      </trkpt>
      <trkpt lat="42.498150" lon="1.561747">
        <ele>1834.000000</ele>
        <time>2020-08-22T10:55:27Z</time>
      </trkpt>
      <trkpt lat="42.498150" lon="1.561747">
        <ele>1834.000000</ele>
        <time>2020-08-22T10:55:27Z</time>
      </trkpt>
      <trkpt lat="42.498142" lon="1.561767">
        <ele>1834.000000</ele>
        <time>2020-08-22T10:55:27Z</time>
      </trkpt>
      <trkpt lat="42.498142" lon="1.561767">
        <ele>1834.000000</ele>
        <time>2020-08-22T10:55:27Z</time>
      </trkpt>
      <trkpt lat="42.498138" lon="1.561786">
        <ele>1834.000000</ele>
        <time>2020-08-22T10:55:27Z</time>
      </trkpt>
      <trkpt lat="42.498138" lon="1.561786">
        <ele>1834.000000</ele>
        <time>2020-08-22T10:55:27Z</time>
      </trkpt>
      <trkpt lat="42.498135" lon="1.561804">
        <ele>1834.000000</ele>
        <time>2020-08-22T10:55:27Z</time>
      </trkpt>
      <trkpt lat="42.498135" lon="1.561804">
        <ele>1834.000000</ele>
        <time>2020-08-22T10:55:27Z</time>
      </trkpt>
      <trkpt lat="42.498131" lon="1.561820">
        <ele>1834.000000</ele>
        <time>2020-08-22T10:55:27Z</time>
      </trkpt>
      <trkpt lat="42.498131" lon="1.561820">
        <ele>1834.000000</ele>
        <time>2020-08-22T10:55:27Z</time>
      </trkpt>
      <trkpt lat="42.498127" lon="1.561835">
        <ele>1834.000000</ele>
        <time>2020-08-22T10:55:34Z</time>
      </trkpt>
      <trkpt lat="42.498127" lon="1.561835">
        <ele>1834.000000</ele>
        <time>2020-08-22T10:55:34Z</time>
      </trkpt>
      <trkpt lat="42.498127" lon="1.561850">
        <ele>1834.000000</ele>
        <time>2020-08-22T10:55:34Z</time>
      </trkpt>
      <trkpt lat="42.498127" lon="1.561850">
        <ele>1834.000000</ele>
        <time>2020-08-22T10:55:34Z</time>
      </trkpt>
      <trkpt lat="42.498123" lon="1.561864">
        <ele>1834.000000</ele>
        <time>2020-08-22T10:55:34Z</time>
      </trkpt>
      <trkpt lat="42.498123" lon="1.561864">
        <ele>1834.000000</ele>
        <time>2020-08-22T10:55:34Z</time>
      </trkpt>
      <trkpt lat="42.498123" lon="1.561878">
        <ele>1834.000000</ele>
        <time>2020-08-22T10:55:34Z</time>
      </trkpt>
      <trkpt lat="42.498123" lon="1.561878">
        <ele>1833.000000</ele>
        <time>2020-08-22T10:55:34Z</time>
      </trkpt>
      <trkpt lat="42.498123" lon="1.561890">
        <ele>1833.000000</ele>
        <time>2020-08-22T10:55:34Z</time>
      </trkpt>
      <trkpt lat="42.498123" lon="1.561890">
        <ele>1833.000000</ele>
        <time>2020-08-22T10:55:34Z</time>
      </trkpt>
      <trkpt lat="42.498127" lon="1.561895">
        <ele>1833.000000</ele>
        <time>2020-08-22T10:55:34Z</time>
      </trkpt>
      <trkpt lat="42.498127" lon="1.561895">
        <ele>1833.000000</ele>
        <time>2020-08-22T10:55:34Z</time>
      </trkpt>
      <trkpt lat="42.498127" lon="1.561899">
        <ele>1833.000000</ele>
        <time>2020-08-22T10:55:34Z</time>
      </trkpt>
      <trkpt lat="42.498127" lon="1.561899">
        <ele>1833.000000</ele>
        <time>2020-08-22T10:55:34Z</time>
      </trkpt>
      <trkpt lat="42.498127" lon="1.561903">
        <ele>1833.000000</ele>
        <time>2020-08-22T10:55:34Z</time>
      </trkpt>
      <trkpt lat="42.498127" lon="1.561903">
        <ele>1833.000000</ele>
        <time>2020-08-22T10:55:34Z</time>
      </trkpt>
      <trkpt lat="42.498127" lon="1.561906">
        <ele>1833.000000</ele>
        <time>2020-08-22T10:55:34Z</time>
      </trkpt>
      <trkpt lat="42.498127" lon="1.561906">
        <ele>1833.000000</ele>
        <time>2020-08-22T10:55:34Z</time>
      </trkpt>
      <trkpt lat="42.498127" lon="1.561909">
        <ele>1833.000000</ele>
        <time>2020-08-22T10:55:34Z</time>
      </trkpt>
      <trkpt lat="42.498127" lon="1.561909">
        <ele>1833.000000</ele>
        <time>2020-08-22T10:55:34Z</time>
      </trkpt>
      <trkpt lat="42.498127" lon="1.561910">
        <ele>1833.000000</ele>
        <time>2020-08-22T10:55:34Z</time>
      </trkpt>
      <trkpt lat="42.498127" lon="1.561910">
        <ele>1833.000000</ele>
        <time>2020-08-22T10:55:34Z</time>
      </trkpt>
      <trkpt lat="42.498127" lon="1.561911">
        <ele>1833.000000</ele>
        <time>2020-08-22T10:55:41Z</time>
      </trkpt>
      <trkpt lat="42.498127" lon="1.561911">
        <ele>1833.000000</ele>
        <time>2020-08-22T10:55:41Z</time>
      </trkpt>
      <trkpt lat="42.498127" lon="1.561912">
        <ele>1833.000000</ele>
        <time>2020-08-22T10:55:41Z</time>
      </trkpt>
      <trkpt lat="42.498127" lon="1.561912">
        <ele>1833.000000</ele>
        <time>2020-08-22T10:55:41Z</time>
      </trkpt>
      <trkpt lat="42.498127" lon="1.561913">
        <ele>1833.000000</ele>
        <time>2020-08-22T10:55:41Z</time>
      </trkpt>
      <trkpt lat="42.498127" lon="1.561913">
        <ele>1833.000000</ele>
        <time>2020-08-22T10:55:41Z</time>
      </trkpt>
      <trkpt lat="42.498127" lon="1.561914">
        <ele>1833.000000</ele>
        <time>2020-08-22T10:55:41Z</time>
      </trkpt>
      <trkpt lat="42.498127" lon="1.561914">
        <ele>1833.000000</ele>
        <time>2020-08-22T10:55:41Z</time>
      </trkpt>
      <trkpt lat="42.498127" lon="1.561918">
        <ele>1833.000000</ele>
        <time>2020-08-22T10:55:41Z</time>
      </trkpt>
      <trkpt lat="42.498127" lon="1.561918">
        <ele>1833.000000</ele>
        <time>2020-08-22T10:55:41Z</time>
      </trkpt>
      <trkpt lat="42.498123" lon="1.561924">
        <ele>1833.000000</ele>
        <time>2020-08-22T10:55:41Z</time>
      </trkpt>
      <trkpt lat="42.498123" lon="1.561924">
        <ele>1833.000000</ele>
        <time>2020-08-22T10:55:41Z</time>
      </trkpt>
      <trkpt lat="42.498123" lon="1.561931">
        <ele>1833.000000</ele>
        <time>2020-08-22T10:55:41Z</time>
      </trkpt>
      <trkpt lat="42.498123" lon="1.561931">
        <ele>1833.000000</ele>
        <time>2020-08-22T10:55:41Z</time>
      </trkpt>
      <trkpt lat="42.498119" lon="1.561939">
        <ele>1833.000000</ele>
        <time>2020-08-22T10:55:48Z</time>
      </trkpt>
      <trkpt lat="42.498119" lon="1.561939">
        <ele>1833.000000</ele>
        <time>2020-08-22T10:55:48Z</time>
      </trkpt>
      <trkpt lat="42.498119" lon="1.561947">
        <ele>1833.000000</ele>
        <time>2020-08-22T10:55:48Z</time>
      </trkpt>
      <trkpt lat="42.498119" lon="1.561947">
        <ele>1833.000000</ele>
        <time>2020-08-22T10:55:48Z</time>
      </trkpt>
      <trkpt lat="42.498116" lon="1.561956">
        <ele>1833.000000</ele>
        <time>2020-08-22T10:55:48Z</time>
      </trkpt>
      <trkpt lat="42.498116" lon="1.561956">
        <ele>1833.000000</ele>
        <time>2020-08-22T10:55:48Z</time>
      </trkpt>
      <trkpt lat="42.498116" lon="1.561964">
        <ele>1833.000000</ele>
        <time>2020-08-22T10:55:48Z</time>
      </trkpt>
      <trkpt lat="42.498116" lon="1.561964">
        <ele>1833.000000</ele>
        <time>2020-08-22T10:55:48Z</time>
      </trkpt>
      <trkpt lat="42.498112" lon="1.561972">
        <ele>1833.000000</ele>
        <time>2020-08-22T10:55:48Z</time>
      </trkpt>
      <trkpt lat="42.498112" lon="1.561972">
        <ele>1833.000000</ele>
        <time>2020-08-22T10:55:48Z</time>
      </trkpt>
      <trkpt lat="42.498108" lon="1.561980">
        <ele>1833.000000</ele>
        <time>2020-08-22T10:55:48Z</time>
      </trkpt>
      <trkpt lat="42.498108" lon="1.561980">
        <ele>1833.000000</ele>
        <time>2020-08-22T10:55:48Z</time>
      </trkpt>
      <trkpt lat="42.498100" lon="1.561988">
        <ele>1833.000000</ele>
        <time>2020-08-22T10:55:48Z</time>
      </trkpt>
      <trkpt lat="42.498100" lon="1.561988">
        <ele>1833.000000</ele>
        <time>2020-08-22T10:55:48Z</time>
      </trkpt>
      <trkpt lat="42.498093" lon="1.561996">
        <ele>1833.000000</ele>
        <time>2020-08-22T10:55:55Z</time>
      </trkpt>
      <trkpt lat="42.498093" lon="1.561996">
        <ele>1833.000000</ele>
        <time>2020-08-22T10:55:55Z</time>
      </trkpt>
      <trkpt lat="42.498085" lon="1.562004">
        <ele>1833.000000</ele>
        <time>2020-08-22T10:55:55Z</time>
      </trkpt>
      <trkpt lat="42.498085" lon="1.562004">
        <ele>1833.000000</ele>
        <time>2020-08-22T10:55:55Z</time>
      </trkpt>
      <trkpt lat="42.498081" lon="1.562012">
        <ele>1833.000000</ele>
        <time>2020-08-22T10:55:55Z</time>
      </trkpt>
      <trkpt lat="42.498081" lon="1.562012">
        <ele>1837.000000</ele>
        <time>2020-08-22T10:55:55Z</time>
      </trkpt>
      <trkpt lat="42.498074" lon="1.562021">
        <ele>1837.000000</ele>
        <time>2020-08-22T10:55:55Z</time>
      </trkpt>
      <trkpt lat="42.498074" lon="1.562021">
        <ele>1837.000000</ele>
        <time>2020-08-22T10:55:55Z</time>
      </trkpt>
      <trkpt lat="42.498062" lon="1.562030">
        <ele>1837.000000</ele>
        <time>2020-08-22T10:55:55Z</time>
      </trkpt>
      <trkpt lat="42.498062" lon="1.562030">
        <ele>1837.000000</ele>
        <time>2020-08-22T10:55:55Z</time>
      </trkpt>
      <trkpt lat="42.498058" lon="1.562039">
        <ele>1837.000000</ele>
        <time>2020-08-22T10:55:55Z</time>
      </trkpt>
      <trkpt lat="42.498058" lon="1.562039">
        <ele>1837.000000</ele>
        <time>2020-08-22T10:55:55Z</time>
      </trkpt>
      <trkpt lat="42.498054" lon="1.562049">
        <ele>1837.000000</ele>
        <time>2020-08-22T10:55:55Z</time>
      </trkpt>
      <trkpt lat="42.498054" lon="1.562049">
        <ele>1837.000000</ele>
        <time>2020-08-22T10:55:55Z</time>
      </trkpt>
      <trkpt lat="42.498051" lon="1.562060">
        <ele>1838.000000</ele>
        <time>2020-08-22T10:56:02Z</time>
      </trkpt>
      <trkpt lat="42.498051" lon="1.562060">
        <ele>1841.000000</ele>
        <time>2020-08-22T10:56:02Z</time>
      </trkpt>
      <trkpt lat="42.498047" lon="1.562072">
        <ele>1842.000000</ele>
        <time>2020-08-22T10:56:02Z</time>
      </trkpt>
      <trkpt lat="42.498047" lon="1.562072">
        <ele>1842.000000</ele>
        <time>2020-08-22T10:56:02Z</time>
      </trkpt>
      <trkpt lat="42.498047" lon="1.562085">
        <ele>1842.000000</ele>
        <time>2020-08-22T10:56:02Z</time>
      </trkpt>
      <trkpt lat="42.498047" lon="1.562085">
        <ele>1842.000000</ele>
        <time>2020-08-22T10:56:02Z</time>
      </trkpt>
      <trkpt lat="42.498054" lon="1.562104">
        <ele>1842.000000</ele>
        <time>2020-08-22T10:56:02Z</time>
      </trkpt>
      <trkpt lat="42.498054" lon="1.562104">
        <ele>1842.000000</ele>
        <time>2020-08-22T10:56:02Z</time>
      </trkpt>
      <trkpt lat="42.498058" lon="1.562122">
        <ele>1842.000000</ele>
        <time>2020-08-22T10:56:02Z</time>
      </trkpt>
      <trkpt lat="42.498058" lon="1.562122">
        <ele>1843.000000</ele>
        <time>2020-08-22T10:56:02Z</time>
      </trkpt>
      <trkpt lat="42.498062" lon="1.562141">
        <ele>1843.000000</ele>
        <time>2020-08-22T10:56:02Z</time>
      </trkpt>
      <trkpt lat="42.498062" lon="1.562141">
        <ele>1843.000000</ele>
        <time>2020-08-22T10:56:02Z</time>
      </trkpt>
      <trkpt lat="42.498074" lon="1.562161">
        <ele>1843.000000</ele>
        <time>2020-08-22T10:56:02Z</time>
      </trkpt>
      <trkpt lat="42.498074" lon="1.562161">
        <ele>1843.000000</ele>
        <time>2020-08-22T10:56:02Z</time>
      </trkpt>
      <trkpt lat="42.498081" lon="1.562181">
        <ele>1843.000000</ele>
        <time>2020-08-22T10:56:02Z</time>
      </trkpt>
      <trkpt lat="42.498081" lon="1.562181">
        <ele>1843.000000</ele>
        <time>2020-08-22T10:56:02Z</time>
      </trkpt>
      <trkpt lat="42.498085" lon="1.562202">
        <ele>1843.000000</ele>
        <time>2020-08-22T10:56:09Z</time>
      </trkpt>
      <trkpt lat="42.498085" lon="1.562202">
        <ele>1843.000000</ele>
        <time>2020-08-22T10:56:09Z</time>
      </trkpt>
      <trkpt lat="42.498093" lon="1.562224">
        <ele>1843.000000</ele>
        <time>2020-08-22T10:56:09Z</time>
      </trkpt>
      <trkpt lat="42.498093" lon="1.562224">
        <ele>1843.000000</ele>
        <time>2020-08-22T10:56:09Z</time>
      </trkpt>
      <trkpt lat="42.498100" lon="1.562247">
        <ele>1843.000000</ele>
        <time>2020-08-22T10:56:09Z</time>
      </trkpt>
      <trkpt lat="42.498100" lon="1.562247">
        <ele>1843.000000</ele>
        <time>2020-08-22T10:56:09Z</time>
      </trkpt>
      <trkpt lat="42.498108" lon="1.562269">
        <ele>1843.000000</ele>
        <time>2020-08-22T10:56:09Z</time>
      </trkpt>
      <trkpt lat="42.498108" lon="1.562269">
        <ele>1844.000000</ele>
        <time>2020-08-22T10:56:09Z</time>
      </trkpt>
      <trkpt lat="42.498112" lon="1.562291">
        <ele>1844.000000</ele>
        <time>2020-08-22T10:56:09Z</time>
      </trkpt>
      <trkpt lat="42.498112" lon="1.562291">
        <ele>1844.000000</ele>
        <time>2020-08-22T10:56:09Z</time>
      </trkpt>
      <trkpt lat="42.498112" lon="1.562308">
        <ele>1844.000000</ele>
        <time>2020-08-22T10:56:09Z</time>
      </trkpt>
      <trkpt lat="42.498112" lon="1.562308">
        <ele>1844.000000</ele>
        <time>2020-08-22T10:56:09Z</time>
      </trkpt>
      <trkpt lat="42.498116" lon="1.562324">
        <ele>1845.000000</ele>
        <time>2020-08-22T10:56:09Z</time>
      </trkpt>
      <trkpt lat="42.498116" lon="1.562324">
        <ele>1845.000000</ele>
        <time>2020-08-22T10:56:09Z</time>
      </trkpt>
      <trkpt lat="42.498116" lon="1.562339">
        <ele>1845.000000</ele>
        <time>2020-08-22T10:56:16Z</time>
      </trkpt>
      <trkpt lat="42.498116" lon="1.562339">
        <ele>1850.000000</ele>
        <time>2020-08-22T10:56:16Z</time>
      </trkpt>
      <trkpt lat="42.498116" lon="1.562352">
        <ele>1850.000000</ele>
        <time>2020-08-22T10:56:16Z</time>
      </trkpt>
      <trkpt lat="42.498116" lon="1.562352">
        <ele>1850.000000</ele>
        <time>2020-08-22T10:56:16Z</time>
      </trkpt>
      <trkpt lat="42.498119" lon="1.562366">
        <ele>1850.000000</ele>
        <time>2020-08-22T10:56:16Z</time>
      </trkpt>
      <trkpt lat="42.498119" lon="1.562366">
        <ele>1851.000000</ele>
        <time>2020-08-22T10:56:16Z</time>
      </trkpt>
      <trkpt lat="42.498123" lon="1.562378">
        <ele>1851.000000</ele>
        <time>2020-08-22T10:56:16Z</time>
      </trkpt>
      <trkpt lat="42.498123" lon="1.562378">
        <ele>1851.000000</ele>
        <time>2020-08-22T10:56:16Z</time>
      </trkpt>
      <trkpt lat="42.498127" lon="1.562389">
        <ele>1851.000000</ele>
        <time>2020-08-22T10:56:16Z</time>
      </trkpt>
      <trkpt lat="42.498127" lon="1.562389">
        <ele>1851.000000</ele>
        <time>2020-08-22T10:56:16Z</time>
      </trkpt>
      <trkpt lat="42.498135" lon="1.562400">
        <ele>1851.000000</ele>
        <time>2020-08-22T10:56:16Z</time>
      </trkpt>
      <trkpt lat="42.498135" lon="1.562400">
        <ele>1856.000000</ele>
        <time>2020-08-22T10:56:16Z</time>
      </trkpt>
      <trkpt lat="42.498138" lon="1.562409">
        <ele>1856.000000</ele>
        <time>2020-08-22T10:56:16Z</time>
      </trkpt>
      <trkpt lat="42.498138" lon="1.562409">
        <ele>1856.000000</ele>
        <time>2020-08-22T10:56:16Z</time>
      </trkpt>
      <trkpt lat="42.498142" lon="1.562419">
        <ele>1856.000000</ele>
        <time>2020-08-22T10:56:23Z</time>
      </trkpt>
      <trkpt lat="42.498142" lon="1.562419">
        <ele>1856.000000</ele>
        <time>2020-08-22T10:56:23Z</time>
      </trkpt>
      <trkpt lat="42.498161" lon="1.562432">
        <ele>1856.000000</ele>
        <time>2020-08-22T10:56:23Z</time>
      </trkpt>
      <trkpt lat="42.498161" lon="1.562432">
        <ele>1856.000000</ele>
        <time>2020-08-22T10:56:23Z</time>
      </trkpt>
      <trkpt lat="42.498173" lon="1.562445">
        <ele>1856.000000</ele>
        <time>2020-08-22T10:56:23Z</time>
      </trkpt>
      <trkpt lat="42.498173" lon="1.562445">
        <ele>1856.000000</ele>
        <time>2020-08-22T10:56:23Z</time>
      </trkpt>
      <trkpt lat="42.498188" lon="1.562459">
        <ele>1856.000000</ele>
        <time>2020-08-22T10:56:23Z</time>
      </trkpt>
      <trkpt lat="42.498188" lon="1.562459">
        <ele>1869.000000</ele>
        <time>2020-08-22T10:56:23Z</time>
      </trkpt>
      <trkpt lat="42.498203" lon="1.562473">
        <ele>1869.000000</ele>
        <time>2020-08-22T10:56:23Z</time>
      </trkpt>
      <trkpt lat="42.498203" lon="1.562473">
        <ele>1869.000000</ele>
        <time>2020-08-22T10:56:23Z</time>
      </trkpt>
      <trkpt lat="42.498219" lon="1.562486">
        <ele>1869.000000</ele>
        <time>2020-08-22T10:56:23Z</time>
      </trkpt>
      <trkpt lat="42.498219" lon="1.562486">
        <ele>1869.000000</ele>
        <time>2020-08-22T10:56:23Z</time>
      </trkpt>
      <trkpt lat="42.498234" lon="1.562499">
        <ele>1869.000000</ele>
        <time>2020-08-22T10:56:23Z</time>
      </trkpt>
      <trkpt lat="42.498234" lon="1.562499">
        <ele>1869.000000</ele>
        <time>2020-08-22T10:56:23Z</time>
      </trkpt>
      <trkpt lat="42.498245" lon="1.562512">
        <ele>1869.000000</ele>
        <time>2020-08-22T10:56:30Z</time>
      </trkpt>
      <trkpt lat="42.498245" lon="1.562512">
        <ele>1869.000000</ele>
        <time>2020-08-22T10:56:30Z</time>
      </trkpt>
      <trkpt lat="42.498260" lon="1.562524">
        <ele>1869.000000</ele>
        <time>2020-08-22T10:56:30Z</time>
      </trkpt>
      <trkpt lat="42.498260" lon="1.562524">
        <ele>1869.000000</ele>
        <time>2020-08-22T10:56:30Z</time>
      </trkpt>
      <trkpt lat="42.498272" lon="1.562536">
        <ele>1869.000000</ele>
        <time>2020-08-22T10:56:30Z</time>
      </trkpt>
      <trkpt lat="42.498272" lon="1.562536">
        <ele>1869.000000</ele>
        <time>2020-08-22T10:56:30Z</time>
      </trkpt>
      <trkpt lat="42.498287" lon="1.562548">
        <ele>1869.000000</ele>
        <time>2020-08-22T10:56:30Z</time>
      </trkpt>
      <trkpt lat="42.498287" lon="1.562548">
        <ele>1869.000000</ele>
        <time>2020-08-22T10:56:30Z</time>
      </trkpt>
      <trkpt lat="42.498295" lon="1.562573">
        <ele>1869.000000</ele>
        <time>2020-08-22T10:56:30Z</time>
      </trkpt>
      <trkpt lat="42.498295" lon="1.562573">
        <ele>1869.000000</ele>
        <time>2020-08-22T10:56:30Z</time>
      </trkpt>
      <trkpt lat="42.498302" lon="1.562599">
        <ele>1869.000000</ele>
        <time>2020-08-22T10:56:30Z</time>
      </trkpt>
      <trkpt lat="42.498302" lon="1.562599">
        <ele>1869.000000</ele>
        <time>2020-08-22T10:56:30Z</time>
      </trkpt>
      <trkpt lat="42.498306" lon="1.562624">
        <ele>1869.000000</ele>
        <time>2020-08-22T10:56:30Z</time>
      </trkpt>
      <trkpt lat="42.498306" lon="1.562624">
        <ele>1873.000000</ele>
        <time>2020-08-22T10:56:30Z</time>
      </trkpt>
      <trkpt lat="42.498310" lon="1.562650">
        <ele>1874.000000</ele>
        <time>2020-08-22T10:56:30Z</time>
      </trkpt>
      <trkpt lat="42.498310" lon="1.562650">
        <ele>1874.000000</ele>
        <time>2020-08-22T10:56:30Z</time>
      </trkpt>
      <trkpt lat="42.498314" lon="1.562677">
        <ele>1874.000000</ele>
        <time>2020-08-22T10:56:30Z</time>
      </trkpt>
      <trkpt lat="42.498314" lon="1.562677">
        <ele>1874.000000</ele>
        <time>2020-08-22T10:56:30Z</time>
      </trkpt>
      <trkpt lat="42.498318" lon="1.562704">
        <ele>1874.000000</ele>
        <time>2020-08-22T10:56:37Z</time>
      </trkpt>
      <trkpt lat="42.498318" lon="1.562704">
        <ele>1875.000000</ele>
        <time>2020-08-22T10:56:37Z</time>
      </trkpt>
      <trkpt lat="42.498322" lon="1.562731">
        <ele>1875.000000</ele>
        <time>2020-08-22T10:56:37Z</time>
      </trkpt>
      <trkpt lat="42.498322" lon="1.562731">
        <ele>1875.000000</ele>
        <time>2020-08-22T10:56:37Z</time>
      </trkpt>
      <trkpt lat="42.498322" lon="1.562759">
        <ele>1875.000000</ele>
        <time>2020-08-22T10:56:37Z</time>
      </trkpt>
      <trkpt lat="42.498322" lon="1.562759">
        <ele>1885.000000</ele>
        <time>2020-08-22T10:56:37Z</time>
      </trkpt>
      <trkpt lat="42.498325" lon="1.562787">
        <ele>1885.000000</ele>
        <time>2020-08-22T10:56:37Z</time>
      </trkpt>
      <trkpt lat="42.498325" lon="1.562787">
        <ele>1885.000000</ele>
        <time>2020-08-22T10:56:37Z</time>
      </trkpt>
      <trkpt lat="42.498329" lon="1.562816">
        <ele>1885.000000</ele>
        <time>2020-08-22T10:56:37Z</time>
      </trkpt>
      <trkpt lat="42.498329" lon="1.562816">
        <ele>1885.000000</ele>
        <time>2020-08-22T10:56:37Z</time>
      </trkpt>
      <trkpt lat="42.498329" lon="1.562828">
        <ele>1885.000000</ele>
        <time>2020-08-22T10:56:37Z</time>
      </trkpt>
      <trkpt lat="42.498329" lon="1.562828">
        <ele>1886.000000</ele>
        <time>2020-08-22T10:56:37Z</time>
      </trkpt>
      <trkpt lat="42.498325" lon="1.562840">
        <ele>1886.000000</ele>
        <time>2020-08-22T10:56:37Z</time>
      </trkpt>
      <trkpt lat="42.498325" lon="1.562840">
        <ele>1886.000000</ele>
        <time>2020-08-22T10:56:37Z</time>
      </trkpt>
      <trkpt lat="42.498325" lon="1.562851">
        <ele>1886.000000</ele>
        <time>2020-08-22T10:56:44Z</time>
      </trkpt>
      <trkpt lat="42.498325" lon="1.562851">
        <ele>1887.000000</ele>
        <time>2020-08-22T10:56:44Z</time>
      </trkpt>
      <trkpt lat="42.498325" lon="1.562862">
        <ele>1887.000000</ele>
        <time>2020-08-22T10:56:44Z</time>
      </trkpt>
      <trkpt lat="42.498325" lon="1.562862">
        <ele>1887.000000</ele>
        <time>2020-08-22T10:56:44Z</time>
      </trkpt>
      <trkpt lat="42.498329" lon="1.562873">
        <ele>1887.000000</ele>
        <time>2020-08-22T10:56:44Z</time>
      </trkpt>
      <trkpt lat="42.498329" lon="1.562873">
        <ele>1887.000000</ele>
        <time>2020-08-22T10:56:44Z</time>
      </trkpt>
      <trkpt lat="42.498329" lon="1.562884">
        <ele>1887.000000</ele>
        <time>2020-08-22T10:56:44Z</time>
      </trkpt>
      <trkpt lat="42.498329" lon="1.562884">
        <ele>1887.000000</ele>
        <time>2020-08-22T10:56:44Z</time>
      </trkpt>
      <trkpt lat="42.498329" lon="1.562895">
        <ele>1887.000000</ele>
        <time>2020-08-22T10:56:44Z</time>
      </trkpt>
      <trkpt lat="42.498329" lon="1.562895">
        <ele>1887.000000</ele>
        <time>2020-08-22T10:56:44Z</time>
      </trkpt>
      <trkpt lat="42.498329" lon="1.562905">
        <ele>1888.000000</ele>
        <time>2020-08-22T10:56:44Z</time>
      </trkpt>
      <trkpt lat="42.498329" lon="1.562905">
        <ele>1895.000000</ele>
        <time>2020-08-22T10:56:44Z</time>
      </trkpt>
      <trkpt lat="42.498329" lon="1.562916">
        <ele>1895.000000</ele>
        <time>2020-08-22T10:56:44Z</time>
      </trkpt>
      <trkpt lat="42.498329" lon="1.562916">
        <ele>1895.000000</ele>
        <time>2020-08-22T10:56:44Z</time>
      </trkpt>
      <trkpt lat="42.498329" lon="1.562927">
        <ele>1895.000000</ele>
        <time>2020-08-22T10:56:44Z</time>
      </trkpt>
      <trkpt lat="42.498329" lon="1.562927">
        <ele>1895.000000</ele>
        <time>2020-08-22T10:56:44Z</time>
      </trkpt>
      <trkpt lat="42.498329" lon="1.562938">
        <ele>1895.000000</ele>
        <time>2020-08-22T10:56:44Z</time>
      </trkpt>
      <trkpt lat="42.498329" lon="1.562938">
        <ele>1895.000000</ele>
        <time>2020-08-22T10:56:44Z</time>
      </trkpt>
      <trkpt lat="42.498333" lon="1.562949">
        <ele>1895.000000</ele>
        <time>2020-08-22T10:56:44Z</time>
      </trkpt>
      <trkpt lat="42.498333" lon="1.562949">
        <ele>1895.000000</ele>
        <time>2020-08-22T10:56:44Z</time>
      </trkpt>
      <trkpt lat="42.498337" lon="1.562960">
        <ele>1895.000000</ele>
        <time>2020-08-22T10:56:51Z</time>
      </trkpt>
      <trkpt lat="42.498337" lon="1.562960">
        <ele>1897.000000</ele>
        <time>2020-08-22T10:56:51Z</time>
      </trkpt>
      <trkpt lat="42.498341" lon="1.562970">
        <ele>1897.000000</ele>
        <time>2020-08-22T10:56:51Z</time>
      </trkpt>
      <trkpt lat="42.498341" lon="1.562970">
        <ele>1898.000000</ele>
        <time>2020-08-22T10:56:51Z</time>
      </trkpt>
      <trkpt lat="42.498348" lon="1.562981">
        <ele>1898.000000</ele>
        <time>2020-08-22T10:56:51Z</time>
      </trkpt>
      <trkpt lat="42.498348" lon="1.562981">
        <ele>1898.000000</ele>
        <time>2020-08-22T10:56:51Z</time>
      </trkpt>
      <trkpt lat="42.498352" lon="1.562990">
        <ele>1898.000000</ele>
        <time>2020-08-22T10:56:51Z</time>
      </trkpt>
      <trkpt lat="42.498352" lon="1.562990">
        <ele>1898.000000</ele>
        <time>2020-08-22T10:56:51Z</time>
      </trkpt>
      <trkpt lat="42.498360" lon="1.562999">
        <ele>1898.000000</ele>
        <time>2020-08-22T10:56:51Z</time>
      </trkpt>
      <trkpt lat="42.498360" lon="1.562999">
        <ele>1898.000000</ele>
        <time>2020-08-22T10:56:51Z</time>
      </trkpt>
      <trkpt lat="42.498367" lon="1.563006">
        <ele>1898.000000</ele>
        <time>2020-08-22T10:56:51Z</time>
      </trkpt>
      <trkpt lat="42.498367" lon="1.563006">
        <ele>1899.000000</ele>
        <time>2020-08-22T10:56:51Z</time>
      </trkpt>
      <trkpt lat="42.498375" lon="1.563012">
        <ele>1899.000000</ele>
        <time>2020-08-22T10:56:51Z</time>
      </trkpt>
      <trkpt lat="42.498375" lon="1.563012">
        <ele>1899.000000</ele>
        <time>2020-08-22T10:56:51Z</time>
      </trkpt>
      <trkpt lat="42.498383" lon="1.563016">
        <ele>1899.000000</ele>
        <time>2020-08-22T10:56:58Z</time>
      </trkpt>
      <trkpt lat="42.498383" lon="1.563016">
        <ele>1899.000000</ele>
        <time>2020-08-22T10:56:58Z</time>
      </trkpt>
      <trkpt lat="42.498390" lon="1.563020">
        <ele>1899.000000</ele>
        <time>2020-08-22T10:56:58Z</time>
      </trkpt>
      <trkpt lat="42.498390" lon="1.563020">
        <ele>1899.000000</ele>
        <time>2020-08-22T10:56:58Z</time>
      </trkpt>
      <trkpt lat="42.498398" lon="1.563025">
        <ele>1899.000000</ele>
        <time>2020-08-22T10:56:58Z</time>
      </trkpt>
      <trkpt lat="42.498398" lon="1.563025">
        <ele>1899.000000</ele>
        <time>2020-08-22T10:56:58Z</time>
      </trkpt>
      <trkpt lat="42.498405" lon="1.563030">
        <ele>1900.000000</ele>
        <time>2020-08-22T10:56:58Z</time>
      </trkpt>
      <trkpt lat="42.498405" lon="1.563030">
        <ele>1901.000000</ele>
        <time>2020-08-22T10:56:58Z</time>
      </trkpt>
      <trkpt lat="42.498409" lon="1.563037">
        <ele>1902.000000</ele>
        <time>2020-08-22T10:56:58Z</time>
      </trkpt>
      <trkpt lat="42.498409" lon="1.563037">
        <ele>1902.000000</ele>
        <time>2020-08-22T10:56:58Z</time>
      </trkpt>
      <trkpt lat="42.498417" lon="1.563045">
        <ele>1902.000000</ele>
        <time>2020-08-22T10:57:05Z</time>
      </trkpt>
      <trkpt lat="42.498417" lon="1.563045">
        <ele>1902.000000</ele>
        <time>2020-08-22T10:57:05Z</time>
      </trkpt>
      <trkpt lat="42.498421" lon="1.563055">
        <ele>1902.000000</ele>
        <time>2020-08-22T10:57:05Z</time>
      </trkpt>
      <trkpt lat="42.498421" lon="1.563055">
        <ele>1903.000000</ele>
        <time>2020-08-22T10:57:05Z</time>
      </trkpt>
      <trkpt lat="42.498428" lon="1.563066">
        <ele>1903.000000</ele>
        <time>2020-08-22T10:57:05Z</time>
      </trkpt>
      <trkpt lat="42.498428" lon="1.563066">
        <ele>1903.000000</ele>
        <time>2020-08-22T10:57:05Z</time>
      </trkpt>
      <trkpt lat="42.498428" lon="1.563080">
        <ele>1903.000000</ele>
        <time>2020-08-22T10:57:05Z</time>
      </trkpt>
      <trkpt lat="42.498428" lon="1.563080">
        <ele>1908.000000</ele>
        <time>2020-08-22T10:57:05Z</time>
      </trkpt>
      <trkpt lat="42.498432" lon="1.563095">
        <ele>1909.000000</ele>
        <time>2020-08-22T10:57:05Z</time>
      </trkpt>
      <trkpt lat="42.498432" lon="1.563095">
        <ele>1909.000000</ele>
        <time>2020-08-22T10:57:05Z</time>
      </trkpt>
      <trkpt lat="42.498436" lon="1.563113">
        <ele>1909.000000</ele>
        <time>2020-08-22T10:57:05Z</time>
      </trkpt>
      <trkpt lat="42.498436" lon="1.563113">
        <ele>1909.000000</ele>
        <time>2020-08-22T10:57:05Z</time>
      </trkpt>
      <trkpt lat="42.498436" lon="1.563132">
        <ele>1909.000000</ele>
        <time>2020-08-22T10:57:05Z</time>
      </trkpt>
      <trkpt lat="42.498436" lon="1.563132">
        <ele>1909.000000</ele>
        <time>2020-08-22T10:57:05Z</time>
      </trkpt>
      <trkpt lat="42.498436" lon="1.563151">
        <ele>1909.000000</ele>
        <time>2020-08-22T10:57:12Z</time>
      </trkpt>
      <trkpt lat="42.498436" lon="1.563151">
        <ele>1909.000000</ele>
        <time>2020-08-22T10:57:12Z</time>
      </trkpt>
      <trkpt lat="42.498436" lon="1.563171">
        <ele>1910.000000</ele>
        <time>2020-08-22T10:57:12Z</time>
      </trkpt>
      <trkpt lat="42.498436" lon="1.563171">
        <ele>1912.000000</ele>
        <time>2020-08-22T10:57:12Z</time>
      </trkpt>
      <trkpt lat="42.498436" lon="1.563191">
        <ele>1912.000000</ele>
        <time>2020-08-22T10:57:12Z</time>
      </trkpt>
      <trkpt lat="42.498436" lon="1.563191">
        <ele>1913.000000</ele>
        <time>2020-08-22T10:57:12Z</time>
      </trkpt>
      <trkpt lat="42.498436" lon="1.563211">
        <ele>1913.000000</ele>
        <time>2020-08-22T10:57:12Z</time>
      </trkpt>
      <trkpt lat="42.498436" lon="1.563211">
        <ele>1913.000000</ele>
        <time>2020-08-22T10:57:12Z</time>
      </trkpt>
      <trkpt lat="42.498436" lon="1.563231">
        <ele>1913.000000</ele>
        <time>2020-08-22T10:57:12Z</time>
      </trkpt>
      <trkpt lat="42.498436" lon="1.563231">
        <ele>1913.000000</ele>
        <time>2020-08-22T10:57:12Z</time>
      </trkpt>
      <trkpt lat="42.498432" lon="1.563251">
        <ele>1913.000000</ele>
        <time>2020-08-22T10:57:12Z</time>
      </trkpt>
      <trkpt lat="42.498432" lon="1.563251">
        <ele>1914.000000</ele>
        <time>2020-08-22T10:57:12Z</time>
      </trkpt>
      <trkpt lat="42.498428" lon="1.563271">
        <ele>1914.000000</ele>
        <time>2020-08-22T10:57:12Z</time>
      </trkpt>
      <trkpt lat="42.498428" lon="1.563271">
        <ele>1914.000000</ele>
        <time>2020-08-22T10:57:12Z</time>
      </trkpt>
      <trkpt lat="42.498428" lon="1.563292">
        <ele>1914.000000</ele>
        <time>2020-08-22T10:57:19Z</time>
      </trkpt>
      <trkpt lat="42.498428" lon="1.563292">
        <ele>1914.000000</ele>
        <time>2020-08-22T10:57:19Z</time>
      </trkpt>
      <trkpt lat="42.498425" lon="1.563311">
        <ele>1914.000000</ele>
        <time>2020-08-22T10:57:19Z</time>
      </trkpt>
      <trkpt lat="42.498425" lon="1.563311">
        <ele>1914.000000</ele>
        <time>2020-08-22T10:57:19Z</time>
      </trkpt>
      <trkpt lat="42.498421" lon="1.563329">
        <ele>1915.000000</ele>
        <time>2020-08-22T10:57:19Z</time>
      </trkpt>
      <trkpt lat="42.498421" lon="1.563329">
        <ele>1915.000000</ele>
        <time>2020-08-22T10:57:19Z</time>
      </trkpt>
      <trkpt lat="42.498417" lon="1.563346">
        <ele>1915.000000</ele>
        <time>2020-08-22T10:57:19Z</time>
      </trkpt>
      <trkpt lat="42.498417" lon="1.563346">
        <ele>1915.000000</ele>
        <time>2020-08-22T10:57:19Z</time>
      </trkpt>
      <trkpt lat="42.498413" lon="1.563365">
        <ele>1915.000000</ele>
        <time>2020-08-22T10:57:19Z</time>
      </trkpt>
      <trkpt lat="42.498413" lon="1.563365">
        <ele>1915.000000</ele>
        <time>2020-08-22T10:57:19Z</time>
      </trkpt>
      <trkpt lat="42.498413" lon="1.563382">
        <ele>1915.000000</ele>
        <time>2020-08-22T10:57:26Z</time>
      </trkpt>
      <trkpt lat="42.498413" lon="1.563382">
        <ele>1915.000000</ele>
        <time>2020-08-22T10:57:26Z</time>
      </trkpt>
      <trkpt lat="42.498409" lon="1.563399">
        <ele>1915.000000</ele>
        <time>2020-08-22T10:57:26Z</time>
      </trkpt>
      <trkpt lat="42.498409" lon="1.563399">
        <ele>1915.000000</ele>
        <time>2020-08-22T10:57:26Z</time>
      </trkpt>
      <trkpt lat="42.498409" lon="1.563415">
        <ele>1915.000000</ele>
        <time>2020-08-22T10:57:26Z</time>
      </trkpt>
      <trkpt lat="42.498409" lon="1.563415">
        <ele>1915.000000</ele>
        <time>2020-08-22T10:57:26Z</time>
      </trkpt>
      <trkpt lat="42.498409" lon="1.563429">
        <ele>1916.000000</ele>
        <time>2020-08-22T10:57:26Z</time>
      </trkpt>
      <trkpt lat="42.498409" lon="1.563429">
        <ele>1916.000000</ele>
        <time>2020-08-22T10:57:26Z</time>
      </trkpt>
      <trkpt lat="42.498405" lon="1.563444">
        <ele>1916.000000</ele>
        <time>2020-08-22T10:57:26Z</time>
      </trkpt>
      <trkpt lat="42.498405" lon="1.563444">
        <ele>1916.000000</ele>
        <time>2020-08-22T10:57:26Z</time>
      </trkpt>
      <trkpt lat="42.498402" lon="1.563458">
        <ele>1916.000000</ele>
        <time>2020-08-22T10:57:26Z</time>
      </trkpt>
      <trkpt lat="42.498402" lon="1.563458">
        <ele>1916.000000</ele>
        <time>2020-08-22T10:57:26Z</time>
      </trkpt>
      <trkpt lat="42.498402" lon="1.563472">
        <ele>1917.000000</ele>
        <time>2020-08-22T10:57:26Z</time>
      </trkpt>
      <trkpt lat="42.498402" lon="1.563472">
        <ele>1917.000000</ele>
        <time>2020-08-22T10:57:26Z</time>
      </trkpt>
      <trkpt lat="42.498402" lon="1.563490">
        <ele>1917.000000</ele>
        <time>2020-08-22T10:57:26Z</time>
      </trkpt>
      <trkpt lat="42.498402" lon="1.563490">
        <ele>1917.000000</ele>
        <time>2020-08-22T10:57:26Z</time>
      </trkpt>
      <trkpt lat="42.498402" lon="1.563510">
        <ele>1917.000000</ele>
        <time>2020-08-22T10:57:26Z</time>
      </trkpt>
      <trkpt lat="42.498402" lon="1.563510">
        <ele>1918.000000</ele>
        <time>2020-08-22T10:57:26Z</time>
      </trkpt>
      <trkpt lat="42.498398" lon="1.563527">
        <ele>1918.000000</ele>
        <time>2020-08-22T10:57:33Z</time>
      </trkpt>
      <trkpt lat="42.498398" lon="1.563527">
        <ele>1918.000000</ele>
        <time>2020-08-22T10:57:33Z</time>
      </trkpt>
      <trkpt lat="42.498394" lon="1.563544">
        <ele>1918.000000</ele>
        <time>2020-08-22T10:57:33Z</time>
      </trkpt>
      <trkpt lat="42.498394" lon="1.563544">
        <ele>1918.000000</ele>
        <time>2020-08-22T10:57:33Z</time>
      </trkpt>
      <trkpt lat="42.498390" lon="1.563562">
        <ele>1918.000000</ele>
        <time>2020-08-22T10:57:33Z</time>
      </trkpt>
      <trkpt lat="42.498390" lon="1.563562">
        <ele>1918.000000</ele>
        <time>2020-08-22T10:57:33Z</time>
      </trkpt>
      <trkpt lat="42.498390" lon="1.563579">
        <ele>1918.000000</ele>
        <time>2020-08-22T10:57:33Z</time>
      </trkpt>
      <trkpt lat="42.498390" lon="1.563579">
        <ele>1918.000000</ele>
        <time>2020-08-22T10:57:33Z</time>
      </trkpt>
      <trkpt lat="42.498386" lon="1.563596">
        <ele>1918.000000</ele>
        <time>2020-08-22T10:57:33Z</time>
      </trkpt>
      <trkpt lat="42.498386" lon="1.563596">
        <ele>1918.000000</ele>
        <time>2020-08-22T10:57:33Z</time>
      </trkpt>
      <trkpt lat="42.498383" lon="1.563613">
        <ele>1918.000000</ele>
        <time>2020-08-22T10:57:33Z</time>
      </trkpt>
      <trkpt lat="42.498383" lon="1.563613">
        <ele>1918.000000</ele>
        <time>2020-08-22T10:57:33Z</time>
      </trkpt>
      <trkpt lat="42.498383" lon="1.563631">
        <ele>1918.000000</ele>
        <time>2020-08-22T10:57:33Z</time>
      </trkpt>
      <trkpt lat="42.498383" lon="1.563631">
        <ele>1918.000000</ele>
        <time>2020-08-22T10:57:33Z</time>
      </trkpt>
      <trkpt lat="42.498379" lon="1.563648">
        <ele>1918.000000</ele>
        <time>2020-08-22T10:57:40Z</time>
      </trkpt>
      <trkpt lat="42.498379" lon="1.563648">
        <ele>1918.000000</ele>
        <time>2020-08-22T10:57:40Z</time>
      </trkpt>
      <trkpt lat="42.498379" lon="1.563680">
        <ele>1918.000000</ele>
        <time>2020-08-22T10:57:40Z</time>
      </trkpt>
      <trkpt lat="42.498379" lon="1.563680">
        <ele>1918.000000</ele>
        <time>2020-08-22T10:57:40Z</time>
      </trkpt>
      <trkpt lat="42.498379" lon="1.563712">
        <ele>1918.000000</ele>
        <time>2020-08-22T10:57:47Z</time>
      </trkpt>
      <trkpt lat="42.498379" lon="1.563712">
        <ele>1918.000000</ele>
        <time>2020-08-22T10:57:47Z</time>
      </trkpt>
      <trkpt lat="42.498383" lon="1.563744">
        <ele>1918.000000</ele>
        <time>2020-08-22T10:57:47Z</time>
      </trkpt>
      <trkpt lat="42.498383" lon="1.563744">
        <ele>1923.000000</ele>
        <time>2020-08-22T10:57:47Z</time>
      </trkpt>
      <trkpt lat="42.498383" lon="1.563775">
        <ele>1923.000000</ele>
        <time>2020-08-22T10:57:47Z</time>
      </trkpt>
      <trkpt lat="42.498383" lon="1.563775">
        <ele>1923.000000</ele>
        <time>2020-08-22T10:57:47Z</time>
      </trkpt>
      <trkpt lat="42.498386" lon="1.563805">
        <ele>1924.000000</ele>
        <time>2020-08-22T10:57:47Z</time>
      </trkpt>
      <trkpt lat="42.498386" lon="1.563805">
        <ele>1924.000000</ele>
        <time>2020-08-22T10:57:47Z</time>
      </trkpt>
      <trkpt lat="42.498390" lon="1.563836">
        <ele>1924.000000</ele>
        <time>2020-08-22T10:57:47Z</time>
      </trkpt>
      <trkpt lat="42.498390" lon="1.563836">
        <ele>1924.000000</ele>
        <time>2020-08-22T10:57:47Z</time>
      </trkpt>
      <trkpt lat="42.498398" lon="1.563865">
        <ele>1924.000000</ele>
        <time>2020-08-22T10:57:47Z</time>
      </trkpt>
      <trkpt lat="42.498398" lon="1.563865">
        <ele>1924.000000</ele>
        <time>2020-08-22T10:57:47Z</time>
      </trkpt>
      <trkpt lat="42.498402" lon="1.563894">
        <ele>1925.000000</ele>
        <time>2020-08-22T10:57:54Z</time>
      </trkpt>
      <trkpt lat="42.498402" lon="1.563894">
        <ele>1926.000000</ele>
        <time>2020-08-22T10:57:54Z</time>
      </trkpt>
      <trkpt lat="42.498405" lon="1.563922">
        <ele>1927.000000</ele>
        <time>2020-08-22T10:57:54Z</time>
      </trkpt>
      <trkpt lat="42.498405" lon="1.563922">
        <ele>1927.000000</ele>
        <time>2020-08-22T10:57:54Z</time>
      </trkpt>
      <trkpt lat="42.498409" lon="1.563950">
        <ele>1927.000000</ele>
        <time>2020-08-22T10:57:54Z</time>
      </trkpt>
      <trkpt lat="42.498409" lon="1.563950">
        <ele>1927.000000</ele>
        <time>2020-08-22T10:57:54Z</time>
      </trkpt>
      <trkpt lat="42.498409" lon="1.563959">
        <ele>1927.000000</ele>
        <time>2020-08-22T10:58:01Z</time>
      </trkpt>
      <trkpt lat="42.498409" lon="1.563959">
        <ele>1927.000000</ele>
        <time>2020-08-22T10:58:01Z</time>
      </trkpt>
      <trkpt lat="42.498405" lon="1.563967">
        <ele>1927.000000</ele>
        <time>2020-08-22T10:58:01Z</time>
      </trkpt>
      <trkpt lat="42.498405" lon="1.563967">
        <ele>1927.000000</ele>
        <time>2020-08-22T10:58:01Z</time>
      </trkpt>
      <trkpt lat="42.498402" lon="1.563974">
        <ele>1927.000000</ele>
        <time>2020-08-22T10:58:01Z</time>
      </trkpt>
      <trkpt lat="42.498402" lon="1.563974">
        <ele>1927.000000</ele>
        <time>2020-08-22T10:58:01Z</time>
      </trkpt>
      <trkpt lat="42.498398" lon="1.563980">
        <ele>1927.000000</ele>
        <time>2020-08-22T10:58:01Z</time>
      </trkpt>
      <trkpt lat="42.498398" lon="1.563980">
        <ele>1927.000000</ele>
        <time>2020-08-22T10:58:01Z</time>
      </trkpt>
      <trkpt lat="42.498390" lon="1.563986">
        <ele>1928.000000</ele>
        <time>2020-08-22T10:58:01Z</time>
      </trkpt>
      <trkpt lat="42.498390" lon="1.563986">
        <ele>1928.000000</ele>
        <time>2020-08-22T10:58:01Z</time>
      </trkpt>
      <trkpt lat="42.498383" lon="1.563992">
        <ele>1928.000000</ele>
        <time>2020-08-22T10:58:01Z</time>
      </trkpt>
      <trkpt lat="42.498383" lon="1.563992">
        <ele>1928.000000</ele>
        <time>2020-08-22T10:58:01Z</time>
      </trkpt>
      <trkpt lat="42.498375" lon="1.563997">
        <ele>1928.000000</ele>
        <time>2020-08-22T10:58:01Z</time>
      </trkpt>
      <trkpt lat="42.498375" lon="1.563997">
        <ele>1928.000000</ele>
        <time>2020-08-22T10:58:01Z</time>
      </trkpt>
      <trkpt lat="42.498363" lon="1.564002">
        <ele>1928.000000</ele>
        <time>2020-08-22T10:58:10Z</time>
      </trkpt>
      <trkpt lat="42.498363" lon="1.564002">
        <ele>1928.000000</ele>
        <time>2020-08-22T10:58:10Z</time>
      </trkpt>
      <trkpt lat="42.498356" lon="1.564007">
        <ele>1928.000000</ele>
        <time>2020-08-22T10:58:10Z</time>
      </trkpt>
      <trkpt lat="42.498356" lon="1.564007">
        <ele>1928.000000</ele>
        <time>2020-08-22T10:58:10Z</time>
      </trkpt>
      <trkpt lat="42.498341" lon="1.564010">
        <ele>1928.000000</ele>
        <time>2020-08-22T10:58:10Z</time>
      </trkpt>
      <trkpt lat="42.498341" lon="1.564010">
        <ele>1929.000000</ele>
        <time>2020-08-22T10:58:10Z</time>
      </trkpt>
      <trkpt lat="42.498329" lon="1.564004">
        <ele>1929.000000</ele>
        <time>2020-08-22T10:58:10Z</time>
      </trkpt>
      <trkpt lat="42.498329" lon="1.564004">
        <ele>1929.000000</ele>
        <time>2020-08-22T10:58:10Z</time>
      </trkpt>
      <trkpt lat="42.498322" lon="1.563997">
        <ele>1929.000000</ele>
        <time>2020-08-22T10:58:10Z</time>
      </trkpt>
      <trkpt lat="42.498322" lon="1.563997">
        <ele>1929.000000</ele>
        <time>2020-08-22T10:58:10Z</time>
      </trkpt>
      <trkpt lat="42.498314" lon="1.563990">
        <ele>1929.000000</ele>
        <time>2020-08-22T10:58:10Z</time>
      </trkpt>
      <trkpt lat="42.498314" lon="1.563990">
        <ele>1930.000000</ele>
        <time>2020-08-22T10:58:10Z</time>
      </trkpt>
      <trkpt lat="42.498306" lon="1.563985">
        <ele>1930.000000</ele>
        <time>2020-08-22T10:58:10Z</time>
      </trkpt>
      <trkpt lat="42.498306" lon="1.563985">
        <ele>1930.000000</ele>
        <time>2020-08-22T10:58:10Z</time>
      </trkpt>
      <trkpt lat="42.498299" lon="1.563982">
        <ele>1931.000000</ele>
        <time>2020-08-22T10:58:10Z</time>
      </trkpt>
      <trkpt lat="42.498299" lon="1.563982">
        <ele>1931.000000</ele>
        <time>2020-08-22T10:58:10Z</time>
      </trkpt>
      <trkpt lat="42.498291" lon="1.563981">
        <ele>1931.000000</ele>
        <time>2020-08-22T10:58:10Z</time>
      </trkpt>
      <trkpt lat="42.498291" lon="1.563981">
        <ele>1931.000000</ele>
        <time>2020-08-22T10:58:10Z</time>
      </trkpt>
      <trkpt lat="42.498287" lon="1.563980">
        <ele>1931.000000</ele>
        <time>2020-08-22T10:58:10Z</time>
      </trkpt>
      <trkpt lat="42.498287" lon="1.563980">
        <ele>1931.000000</ele>
        <time>2020-08-22T10:58:10Z</time>
      </trkpt>
      <trkpt lat="42.498276" lon="1.563981">
        <ele>1931.000000</ele>
        <time>2020-08-22T10:58:10Z</time>
      </trkpt>
      <trkpt lat="42.498276" lon="1.563981">
        <ele>1933.000000</ele>
        <time>2020-08-22T10:58:10Z</time>
      </trkpt>
      <trkpt lat="42.498272" lon="1.563983">
        <ele>1934.000000</ele>
        <time>2020-08-22T10:58:10Z</time>
      </trkpt>
      <trkpt lat="42.498272" lon="1.563983">
        <ele>1934.000000</ele>
        <time>2020-08-22T10:58:10Z</time>
      </trkpt>
      <trkpt lat="42.498268" lon="1.563987">
        <ele>1934.000000</ele>
        <time>2020-08-22T10:58:10Z</time>
      </trkpt>
      <trkpt lat="42.498268" lon="1.563987">
        <ele>1934.000000</ele>
        <time>2020-08-22T10:58:10Z</time>
      </trkpt>
      <trkpt lat="42.498276" lon="1.564000">
        <ele>1935.000000</ele>
        <time>2020-08-22T10:58:17Z</time>
      </trkpt>
      <trkpt lat="42.498276" lon="1.564000">
        <ele>1935.000000</ele>
        <time>2020-08-22T10:58:17Z</time>
      </trkpt>
      <trkpt lat="42.498283" lon="1.564014">
        <ele>1935.000000</ele>
        <time>2020-08-22T10:58:17Z</time>
      </trkpt>
      <trkpt lat="42.498283" lon="1.564014">
        <ele>1935.000000</ele>
        <time>2020-08-22T10:58:17Z</time>
      </trkpt>
      <trkpt lat="42.498287" lon="1.564030">
        <ele>1935.000000</ele>
        <time>2020-08-22T10:58:17Z</time>
      </trkpt>
      <trkpt lat="42.498287" lon="1.564030">
        <ele>1939.000000</ele>
        <time>2020-08-22T10:58:17Z</time>
      </trkpt>
      <trkpt lat="42.498295" lon="1.564043">
        <ele>1939.000000</ele>
        <time>2020-08-22T10:58:17Z</time>
      </trkpt>
      <trkpt lat="42.498295" lon="1.564043">
        <ele>1939.000000</ele>
        <time>2020-08-22T10:58:17Z</time>
      </trkpt>
      <trkpt lat="42.498302" lon="1.564053">
        <ele>1939.000000</ele>
        <time>2020-08-22T10:58:17Z</time>
      </trkpt>
      <trkpt lat="42.498302" lon="1.564053">
        <ele>1939.000000</ele>
        <time>2020-08-22T10:58:17Z</time>
      </trkpt>
      <trkpt lat="42.498314" lon="1.564063">
        <ele>1940.000000</ele>
        <time>2020-08-22T10:58:17Z</time>
      </trkpt>
      <trkpt lat="42.498314" lon="1.564063">
        <ele>1940.000000</ele>
        <time>2020-08-22T10:58:17Z</time>
      </trkpt>
      <trkpt lat="42.498322" lon="1.564071">
        <ele>1940.000000</ele>
        <time>2020-08-22T10:58:17Z</time>
      </trkpt>
      <trkpt lat="42.498322" lon="1.564071">
        <ele>1940.000000</ele>
        <time>2020-08-22T10:58:17Z</time>
      </trkpt>
      <trkpt lat="42.498333" lon="1.564078">
        <ele>1940.000000</ele>
        <time>2020-08-22T10:58:24Z</time>
      </trkpt>
      <trkpt lat="42.498333" lon="1.564078">
        <ele>1940.000000</ele>
        <time>2020-08-22T10:58:24Z</time>
      </trkpt>
      <trkpt lat="42.498348" lon="1.564083">
        <ele>1940.000000</ele>
        <time>2020-08-22T10:58:24Z</time>
      </trkpt>
      <trkpt lat="42.498348" lon="1.564083">
        <ele>1940.000000</ele>
        <time>2020-08-22T10:58:24Z</time>
      </trkpt>
      <trkpt lat="42.498356" lon="1.564088">
        <ele>1941.000000</ele>
        <time>2020-08-22T10:58:24Z</time>
      </trkpt>
      <trkpt lat="42.498356" lon="1.564088">
        <ele>1941.000000</ele>
        <time>2020-08-22T10:58:24Z</time>
      </trkpt>
      <trkpt lat="42.498360" lon="1.564103">
        <ele>1941.000000</ele>
        <time>2020-08-22T10:58:24Z</time>
      </trkpt>
      <trkpt lat="42.498360" lon="1.564103">
        <ele>1941.000000</ele>
        <time>2020-08-22T10:58:24Z</time>
      </trkpt>
      <trkpt lat="42.498363" lon="1.564119">
        <ele>1941.000000</ele>
        <time>2020-08-22T10:58:31Z</time>
      </trkpt>
      <trkpt lat="42.498363" lon="1.564119">
        <ele>1941.000000</ele>
        <time>2020-08-22T10:58:31Z</time>
      </trkpt>
      <trkpt lat="42.498367" lon="1.564137">
        <ele>1941.000000</ele>
        <time>2020-08-22T10:58:31Z</time>
      </trkpt>
      <trkpt lat="42.498367" lon="1.564137">
        <ele>1941.000000</ele>
        <time>2020-08-22T10:58:31Z</time>
      </trkpt>
      <trkpt lat="42.498371" lon="1.564154">
        <ele>1941.000000</ele>
        <time>2020-08-22T10:58:31Z</time>
      </trkpt>
      <trkpt lat="42.498371" lon="1.564154">
        <ele>1942.000000</ele>
        <time>2020-08-22T10:58:31Z</time>
      </trkpt>
      <trkpt lat="42.498375" lon="1.564173">
        <ele>1942.000000</ele>
        <time>2020-08-22T10:58:31Z</time>
      </trkpt>
      <trkpt lat="42.498375" lon="1.564173">
        <ele>1942.000000</ele>
        <time>2020-08-22T10:58:31Z</time>
      </trkpt>
      <trkpt lat="42.498375" lon="1.564192">
        <ele>1942.000000</ele>
        <time>2020-08-22T10:58:31Z</time>
      </trkpt>
      <trkpt lat="42.498375" lon="1.564192">
        <ele>1942.000000</ele>
        <time>2020-08-22T10:58:31Z</time>
      </trkpt>
      <trkpt lat="42.498379" lon="1.564211">
        <ele>1942.000000</ele>
        <time>2020-08-22T10:58:31Z</time>
      </trkpt>
      <trkpt lat="42.498379" lon="1.564211">
        <ele>1942.000000</ele>
        <time>2020-08-22T10:58:31Z</time>
      </trkpt>
      <trkpt lat="42.498379" lon="1.564232">
        <ele>1942.000000</ele>
        <time>2020-08-22T10:58:31Z</time>
      </trkpt>
      <trkpt lat="42.498379" lon="1.564232">
        <ele>1949.000000</ele>
        <time>2020-08-22T10:58:31Z</time>
      </trkpt>
      <trkpt lat="42.498379" lon="1.564254">
        <ele>1950.000000</ele>
        <time>2020-08-22T10:58:38Z</time>
      </trkpt>
      <trkpt lat="42.498379" lon="1.564254">
        <ele>1950.000000</ele>
        <time>2020-08-22T10:58:38Z</time>
      </trkpt>
      <trkpt lat="42.498379" lon="1.564277">
        <ele>1950.000000</ele>
        <time>2020-08-22T10:58:38Z</time>
      </trkpt>
      <trkpt lat="42.498379" lon="1.564277">
        <ele>1950.000000</ele>
        <time>2020-08-22T10:58:38Z</time>
      </trkpt>
      <trkpt lat="42.498379" lon="1.564288">
        <ele>1950.000000</ele>
        <time>2020-08-22T10:58:38Z</time>
      </trkpt>
      <trkpt lat="42.498379" lon="1.564288">
        <ele>1950.000000</ele>
        <time>2020-08-22T10:58:38Z</time>
      </trkpt>
      <trkpt lat="42.498379" lon="1.564300">
        <ele>1950.000000</ele>
        <time>2020-08-22T10:58:38Z</time>
      </trkpt>
      <trkpt lat="42.498379" lon="1.564300">
        <ele>1950.000000</ele>
        <time>2020-08-22T10:58:38Z</time>
      </trkpt>
      <trkpt lat="42.498379" lon="1.564311">
        <ele>1950.000000</ele>
        <time>2020-08-22T10:58:38Z</time>
      </trkpt>
      <trkpt lat="42.498379" lon="1.564311">
        <ele>1950.000000</ele>
        <time>2020-08-22T10:58:38Z</time>
      </trkpt>
      <trkpt lat="42.498379" lon="1.564323">
        <ele>1950.000000</ele>
        <time>2020-08-22T10:58:38Z</time>
      </trkpt>
      <trkpt lat="42.498379" lon="1.564323">
        <ele>1950.000000</ele>
        <time>2020-08-22T10:58:38Z</time>
      </trkpt>
      <trkpt lat="42.498375" lon="1.564334">
        <ele>1950.000000</ele>
        <time>2020-08-22T10:58:38Z</time>
      </trkpt>
      <trkpt lat="42.498375" lon="1.564334">
        <ele>1950.000000</ele>
        <time>2020-08-22T10:58:38Z</time>
      </trkpt>
      <trkpt lat="42.498375" lon="1.564344">
        <ele>1950.000000</ele>
        <time>2020-08-22T10:58:45Z</time>
      </trkpt>
      <trkpt lat="42.498375" lon="1.564344">
        <ele>1950.000000</ele>
        <time>2020-08-22T10:58:45Z</time>
      </trkpt>
      <trkpt lat="42.498371" lon="1.564354">
        <ele>1950.000000</ele>
        <time>2020-08-22T10:58:45Z</time>
      </trkpt>
      <trkpt lat="42.498371" lon="1.564354">
        <ele>1950.000000</ele>
        <time>2020-08-22T10:58:45Z</time>
      </trkpt>
      <trkpt lat="42.498363" lon="1.564363">
        <ele>1950.000000</ele>
        <time>2020-08-22T10:58:45Z</time>
      </trkpt>
      <trkpt lat="42.498363" lon="1.564363">
        <ele>1954.000000</ele>
        <time>2020-08-22T10:58:45Z</time>
      </trkpt>
      <trkpt lat="42.498363" lon="1.564372">
        <ele>1954.000000</ele>
        <time>2020-08-22T10:58:45Z</time>
      </trkpt>
      <trkpt lat="42.498363" lon="1.564372">
        <ele>1954.000000</ele>
        <time>2020-08-22T10:58:45Z</time>
      </trkpt>
      <trkpt lat="42.498360" lon="1.564383">
        <ele>1955.000000</ele>
        <time>2020-08-22T10:58:45Z</time>
      </trkpt>
      <trkpt lat="42.498360" lon="1.564383">
        <ele>1955.000000</ele>
        <time>2020-08-22T10:58:45Z</time>
      </trkpt>
      <trkpt lat="42.498363" lon="1.564392">
        <ele>1955.000000</ele>
        <time>2020-08-22T10:58:45Z</time>
      </trkpt>
      <trkpt lat="42.498363" lon="1.564392">
        <ele>1955.000000</ele>
        <time>2020-08-22T10:58:45Z</time>
      </trkpt>
      <trkpt lat="42.498363" lon="1.564399">
        <ele>1955.000000</ele>
        <time>2020-08-22T10:58:45Z</time>
      </trkpt>
      <trkpt lat="42.498363" lon="1.564399">
        <ele>1955.000000</ele>
        <time>2020-08-22T10:58:45Z</time>
      </trkpt>
      <trkpt lat="42.498363" lon="1.564404">
        <ele>1955.000000</ele>
        <time>2020-08-22T10:58:52Z</time>
      </trkpt>
      <trkpt lat="42.498363" lon="1.564404">
        <ele>1959.000000</ele>
        <time>2020-08-22T10:58:52Z</time>
      </trkpt>
      <trkpt lat="42.498363" lon="1.564408">
        <ele>1959.000000</ele>
        <time>2020-08-22T10:58:52Z</time>
      </trkpt>
      <trkpt lat="42.498363" lon="1.564408">
        <ele>1959.000000</ele>
        <time>2020-08-22T10:58:52Z</time>
      </trkpt>
      <trkpt lat="42.498363" lon="1.564411">
        <ele>1959.000000</ele>
        <time>2020-08-22T10:58:52Z</time>
      </trkpt>
      <trkpt lat="42.498363" lon="1.564411">
        <ele>1959.000000</ele>
        <time>2020-08-22T10:58:52Z</time>
      </trkpt>
      <trkpt lat="42.498363" lon="1.564414">
        <ele>1960.000000</ele>
        <time>2020-08-22T10:58:52Z</time>
      </trkpt>
      <trkpt lat="42.498363" lon="1.564414">
        <ele>1960.000000</ele>
        <time>2020-08-22T10:58:52Z</time>
      </trkpt>
      <trkpt lat="42.498363" lon="1.564417">
        <ele>1960.000000</ele>
        <time>2020-08-22T10:58:52Z</time>
      </trkpt>
      <trkpt lat="42.498363" lon="1.564417">
        <ele>1960.000000</ele>
        <time>2020-08-22T10:58:52Z</time>
      </trkpt>
      <trkpt lat="42.498363" lon="1.564420">
        <ele>1960.000000</ele>
        <time>2020-08-22T10:58:52Z</time>
      </trkpt>
      <trkpt lat="42.498363" lon="1.564420">
        <ele>1960.000000</ele>
        <time>2020-08-22T10:58:52Z</time>
      </trkpt>
      <trkpt lat="42.498360" lon="1.564421">
        <ele>1960.000000</ele>
        <time>2020-08-22T10:58:59Z</time>
      </trkpt>
      <trkpt lat="42.498360" lon="1.564421">
        <ele>1960.000000</ele>
        <time>2020-08-22T10:58:59Z</time>
      </trkpt>
      <trkpt lat="42.498356" lon="1.564419">
        <ele>1960.000000</ele>
        <time>2020-08-22T10:58:59Z</time>
      </trkpt>
      <trkpt lat="42.498356" lon="1.564419">
        <ele>1960.000000</ele>
        <time>2020-08-22T10:58:59Z</time>
      </trkpt>
      <trkpt lat="42.498352" lon="1.564419">
        <ele>1961.000000</ele>
        <time>2020-08-22T10:58:59Z</time>
      </trkpt>
      <trkpt lat="42.498352" lon="1.564419">
        <ele>1961.000000</ele>
        <time>2020-08-22T10:58:59Z</time>
      </trkpt>
      <trkpt lat="42.498352" lon="1.564421">
        <ele>1961.000000</ele>
        <time>2020-08-22T10:58:59Z</time>
      </trkpt>
      <trkpt lat="42.498352" lon="1.564421">
        <ele>1961.000000</ele>
        <time>2020-08-22T10:58:59Z</time>
      </trkpt>
      <trkpt lat="42.498356" lon="1.564425">
        <ele>1961.000000</ele>
        <time>2020-08-22T10:58:59Z</time>
      </trkpt>
      <trkpt lat="42.498356" lon="1.564425">
        <ele>1964.000000</ele>
        <time>2020-08-22T10:58:59Z</time>
      </trkpt>
      <trkpt lat="42.498363" lon="1.564430">
        <ele>1964.000000</ele>
        <time>2020-08-22T10:59:06Z</time>
      </trkpt>
      <trkpt lat="42.498363" lon="1.564430">
        <ele>1964.000000</ele>
        <time>2020-08-22T10:59:06Z</time>
      </trkpt>
      <trkpt lat="42.498375" lon="1.564437">
        <ele>1964.000000</ele>
        <time>2020-08-22T10:59:06Z</time>
      </trkpt>
      <trkpt lat="42.498375" lon="1.564437">
        <ele>1964.000000</ele>
        <time>2020-08-22T10:59:06Z</time>
      </trkpt>
      <trkpt lat="42.498383" lon="1.564445">
        <ele>1964.000000</ele>
        <time>2020-08-22T10:59:06Z</time>
      </trkpt>
      <trkpt lat="42.498383" lon="1.564445">
        <ele>1964.000000</ele>
        <time>2020-08-22T10:59:06Z</time>
      </trkpt>
      <trkpt lat="42.498398" lon="1.564455">
        <ele>1964.000000</ele>
        <time>2020-08-22T10:59:06Z</time>
      </trkpt>
      <trkpt lat="42.498398" lon="1.564455">
        <ele>1964.000000</ele>
        <time>2020-08-22T10:59:06Z</time>
      </trkpt>
      <trkpt lat="42.498413" lon="1.564465">
        <ele>1964.000000</ele>
        <time>2020-08-22T10:59:06Z</time>
      </trkpt>
      <trkpt lat="42.498413" lon="1.564465">
        <ele>1971.000000</ele>
        <time>2020-08-22T10:59:06Z</time>
      </trkpt>
      <trkpt lat="42.498428" lon="1.564478">
        <ele>1971.000000</ele>
        <time>2020-08-22T10:59:06Z</time>
      </trkpt>
      <trkpt lat="42.498428" lon="1.564478">
        <ele>1971.000000</ele>
        <time>2020-08-22T10:59:06Z</time>
      </trkpt>
      <trkpt lat="42.498447" lon="1.564492">
        <ele>1971.000000</ele>
        <time>2020-08-22T10:59:06Z</time>
      </trkpt>
      <trkpt lat="42.498447" lon="1.564492">
        <ele>1971.000000</ele>
        <time>2020-08-22T10:59:06Z</time>
      </trkpt>
      <trkpt lat="42.498466" lon="1.564505">
        <ele>1971.000000</ele>
        <time>2020-08-22T10:59:06Z</time>
      </trkpt>
      <trkpt lat="42.498466" lon="1.564505">
        <ele>1971.000000</ele>
        <time>2020-08-22T10:59:06Z</time>
      </trkpt>
      <trkpt lat="42.498482" lon="1.564518">
        <ele>1971.000000</ele>
        <time>2020-08-22T10:59:06Z</time>
      </trkpt>
      <trkpt lat="42.498482" lon="1.564518">
        <ele>1971.000000</ele>
        <time>2020-08-22T10:59:06Z</time>
      </trkpt>
      <trkpt lat="42.498493" lon="1.564531">
        <ele>1971.000000</ele>
        <time>2020-08-22T10:59:06Z</time>
      </trkpt>
      <trkpt lat="42.498493" lon="1.564531">
        <ele>1971.000000</ele>
        <time>2020-08-22T10:59:06Z</time>
      </trkpt>
      <trkpt lat="42.498505" lon="1.564545">
        <ele>1972.000000</ele>
        <time>2020-08-22T10:59:13Z</time>
      </trkpt>
      <trkpt lat="42.498505" lon="1.564545">
        <ele>1972.000000</ele>
        <time>2020-08-22T10:59:13Z</time>
      </trkpt>
      <trkpt lat="42.498508" lon="1.564559">
        <ele>1972.000000</ele>
        <time>2020-08-22T10:59:13Z</time>
      </trkpt>
      <trkpt lat="42.498508" lon="1.564559">
        <ele>1972.000000</ele>
        <time>2020-08-22T10:59:13Z</time>
      </trkpt>
      <trkpt lat="42.498516" lon="1.564573">
        <ele>1972.000000</ele>
        <time>2020-08-22T10:59:13Z</time>
      </trkpt>
      <trkpt lat="42.498516" lon="1.564573">
        <ele>1973.000000</ele>
        <time>2020-08-22T10:59:13Z</time>
      </trkpt>
      <trkpt lat="42.498516" lon="1.564587">
        <ele>1974.000000</ele>
        <time>2020-08-22T10:59:13Z</time>
      </trkpt>
      <trkpt lat="42.498516" lon="1.564587">
        <ele>1974.000000</ele>
        <time>2020-08-22T10:59:13Z</time>
      </trkpt>
      <trkpt lat="42.498520" lon="1.564602">
        <ele>1974.000000</ele>
        <time>2020-08-22T10:59:13Z</time>
      </trkpt>
      <trkpt lat="42.498520" lon="1.564602">
        <ele>1977.000000</ele>
        <time>2020-08-22T10:59:13Z</time>
      </trkpt>
      <trkpt lat="42.498524" lon="1.564619">
        <ele>1977.000000</ele>
        <time>2020-08-22T10:59:13Z</time>
      </trkpt>
      <trkpt lat="42.498524" lon="1.564619">
        <ele>1977.000000</ele>
        <time>2020-08-22T10:59:13Z</time>
      </trkpt>
      <trkpt lat="42.498524" lon="1.564635">
        <ele>1977.000000</ele>
        <time>2020-08-22T10:59:20Z</time>
      </trkpt>
      <trkpt lat="42.498524" lon="1.564635">
        <ele>1977.000000</ele>
        <time>2020-08-22T10:59:20Z</time>
      </trkpt>
      <trkpt lat="42.498520" lon="1.564652">
        <ele>1977.000000</ele>
        <time>2020-08-22T10:59:20Z</time>
      </trkpt>
      <trkpt lat="42.498520" lon="1.564652">
        <ele>1977.000000</ele>
        <time>2020-08-22T10:59:20Z</time>
      </trkpt>
      <trkpt lat="42.498516" lon="1.564668">
        <ele>1977.000000</ele>
        <time>2020-08-22T10:59:20Z</time>
      </trkpt>
      <trkpt lat="42.498516" lon="1.564668">
        <ele>1977.000000</ele>
        <time>2020-08-22T10:59:20Z</time>
      </trkpt>
      <trkpt lat="42.498508" lon="1.564683">
        <ele>1978.000000</ele>
        <time>2020-08-22T10:59:20Z</time>
      </trkpt>
      <trkpt lat="42.498508" lon="1.564683">
        <ele>1984.000000</ele>
        <time>2020-08-22T10:59:20Z</time>
      </trkpt>
      <trkpt lat="42.498505" lon="1.564698">
        <ele>1984.000000</ele>
        <time>2020-08-22T10:59:20Z</time>
      </trkpt>
      <trkpt lat="42.498505" lon="1.564698">
        <ele>1985.000000</ele>
        <time>2020-08-22T10:59:20Z</time>
      </trkpt>
      <trkpt lat="42.498497" lon="1.564711">
        <ele>1985.000000</ele>
        <time>2020-08-22T10:59:20Z</time>
      </trkpt>
      <trkpt lat="42.498497" lon="1.564711">
        <ele>1985.000000</ele>
        <time>2020-08-22T10:59:20Z</time>
      </trkpt>
      <trkpt lat="42.498489" lon="1.564724">
        <ele>1985.000000</ele>
        <time>2020-08-22T10:59:20Z</time>
      </trkpt>
      <trkpt lat="42.498489" lon="1.564724">
        <ele>1985.000000</ele>
        <time>2020-08-22T10:59:20Z</time>
      </trkpt>
      <trkpt lat="42.498486" lon="1.564736">
        <ele>1985.000000</ele>
        <time>2020-08-22T10:59:28Z</time>
      </trkpt>
      <trkpt lat="42.498486" lon="1.564736">
        <ele>1985.000000</ele>
        <time>2020-08-22T10:59:28Z</time>
      </trkpt>
      <trkpt lat="42.498478" lon="1.564746">
        <ele>1985.000000</ele>
        <time>2020-08-22T10:59:28Z</time>
      </trkpt>
      <trkpt lat="42.498478" lon="1.564746">
        <ele>1988.000000</ele>
        <time>2020-08-22T10:59:28Z</time>
      </trkpt>
      <trkpt lat="42.498470" lon="1.564757">
        <ele>1988.000000</ele>
        <time>2020-08-22T10:59:28Z</time>
      </trkpt>
      <trkpt lat="42.498470" lon="1.564757">
        <ele>1988.000000</ele>
        <time>2020-08-22T10:59:28Z</time>
      </trkpt>
      <trkpt lat="42.498463" lon="1.564767">
        <ele>1989.000000</ele>
        <time>2020-08-22T10:59:28Z</time>
      </trkpt>
      <trkpt lat="42.498463" lon="1.564767">
        <ele>1989.000000</ele>
        <time>2020-08-22T10:59:28Z</time>
      </trkpt>
      <trkpt lat="42.498455" lon="1.564783">
        <ele>1989.000000</ele>
        <time>2020-08-22T10:59:28Z</time>
      </trkpt>
      <trkpt lat="42.498455" lon="1.564783">
        <ele>1989.000000</ele>
        <time>2020-08-22T10:59:28Z</time>
      </trkpt>
      <trkpt lat="42.498444" lon="1.564798">
        <ele>1989.000000</ele>
        <time>2020-08-22T10:59:35Z</time>
      </trkpt>
      <trkpt lat="42.498444" lon="1.564798">
        <ele>1989.000000</ele>
        <time>2020-08-22T10:59:35Z</time>
      </trkpt>
      <trkpt lat="42.498436" lon="1.564814">
        <ele>1990.000000</ele>
        <time>2020-08-22T10:59:35Z</time>
      </trkpt>
      <trkpt lat="42.498436" lon="1.564814">
        <ele>1990.000000</ele>
        <time>2020-08-22T10:59:35Z</time>
      </trkpt>
      <trkpt lat="42.498432" lon="1.564832">
        <ele>1990.000000</ele>
        <time>2020-08-22T10:59:35Z</time>
      </trkpt>
      <trkpt lat="42.498432" lon="1.564832">
        <ele>1990.000000</ele>
        <time>2020-08-22T10:59:35Z</time>
      </trkpt>
      <trkpt lat="42.498428" lon="1.564850">
        <ele>1990.000000</ele>
        <time>2020-08-22T10:59:35Z</time>
      </trkpt>
      <trkpt lat="42.498428" lon="1.564850">
        <ele>1991.000000</ele>
        <time>2020-08-22T10:59:35Z</time>
      </trkpt>
      <trkpt lat="42.498428" lon="1.564869">
        <ele>1991.000000</ele>
        <time>2020-08-22T10:59:35Z</time>
      </trkpt>
      <trkpt lat="42.498428" lon="1.564869">
        <ele>1991.000000</ele>
        <time>2020-08-22T10:59:35Z</time>
      </trkpt>
      <trkpt lat="42.498425" lon="1.564888">
        <ele>1991.000000</ele>
        <time>2020-08-22T10:59:35Z</time>
      </trkpt>
      <trkpt lat="42.498425" lon="1.564888">
        <ele>1991.000000</ele>
        <time>2020-08-22T10:59:35Z</time>
      </trkpt>
      <trkpt lat="42.498425" lon="1.564907">
        <ele>1991.000000</ele>
        <time>2020-08-22T10:59:35Z</time>
      </trkpt>
      <trkpt lat="42.498425" lon="1.564907">
        <ele>1991.000000</ele>
        <time>2020-08-22T10:59:35Z</time>
      </trkpt>
      <trkpt lat="42.498425" lon="1.564924">
        <ele>1991.000000</ele>
        <time>2020-08-22T10:59:42Z</time>
      </trkpt>
      <trkpt lat="42.498425" lon="1.564924">
        <ele>1991.000000</ele>
        <time>2020-08-22T10:59:42Z</time>
      </trkpt>
      <trkpt lat="42.498425" lon="1.564940">
        <ele>1991.000000</ele>
        <time>2020-08-22T10:59:42Z</time>
      </trkpt>
      <trkpt lat="42.498425" lon="1.564940">
        <ele>1991.000000</ele>
        <time>2020-08-22T10:59:42Z</time>
      </trkpt>
      <trkpt lat="42.498428" lon="1.564951">
        <ele>1991.000000</ele>
        <time>2020-08-22T10:59:42Z</time>
      </trkpt>
      <trkpt lat="42.498428" lon="1.564951">
        <ele>1991.000000</ele>
        <time>2020-08-22T10:59:42Z</time>
      </trkpt>
      <trkpt lat="42.498428" lon="1.564962">
        <ele>1991.000000</ele>
        <time>2020-08-22T10:59:42Z</time>
      </trkpt>
      <trkpt lat="42.498428" lon="1.564962">
        <ele>1991.000000</ele>
        <time>2020-08-22T10:59:42Z</time>
      </trkpt>
      <trkpt lat="42.498428" lon="1.564971">
        <ele>1991.000000</ele>
        <time>2020-08-22T10:59:42Z</time>
      </trkpt>
      <trkpt lat="42.498428" lon="1.564971">
        <ele>1991.000000</ele>
        <time>2020-08-22T10:59:42Z</time>
      </trkpt>
      <trkpt lat="42.498428" lon="1.564980">
        <ele>1991.000000</ele>
        <time>2020-08-22T10:59:42Z</time>
      </trkpt>
      <trkpt lat="42.498428" lon="1.564980">
        <ele>1991.000000</ele>
        <time>2020-08-22T10:59:42Z</time>
      </trkpt>
      <trkpt lat="42.498428" lon="1.564988">
        <ele>1991.000000</ele>
        <time>2020-08-22T10:59:42Z</time>
      </trkpt>
      <trkpt lat="42.498428" lon="1.564988">
        <ele>1991.000000</ele>
        <time>2020-08-22T10:59:42Z</time>
      </trkpt>
      <trkpt lat="42.498428" lon="1.564995">
        <ele>1991.000000</ele>
        <time>2020-08-22T10:59:42Z</time>
      </trkpt>
      <trkpt lat="42.498428" lon="1.564995">
        <ele>1991.000000</ele>
        <time>2020-08-22T10:59:42Z</time>
      </trkpt>
      <trkpt lat="42.498428" lon="1.565002">
        <ele>1991.000000</ele>
        <time>2020-08-22T10:59:49Z</time>
      </trkpt>
      <trkpt lat="42.498428" lon="1.565002">
        <ele>1991.000000</ele>
        <time>2020-08-22T10:59:49Z</time>
      </trkpt>
      <trkpt lat="42.498425" lon="1.565009">
        <ele>1991.000000</ele>
        <time>2020-08-22T10:59:49Z</time>
      </trkpt>
      <trkpt lat="42.498425" lon="1.565009">
        <ele>1991.000000</ele>
        <time>2020-08-22T10:59:49Z</time>
      </trkpt>
      <trkpt lat="42.498421" lon="1.565016">
        <ele>1991.000000</ele>
        <time>2020-08-22T10:59:49Z</time>
      </trkpt>
      <trkpt lat="42.498421" lon="1.565016">
        <ele>1991.000000</ele>
        <time>2020-08-22T10:59:49Z</time>
      </trkpt>
      <trkpt lat="42.498421" lon="1.565024">
        <ele>1991.000000</ele>
        <time>2020-08-22T10:59:49Z</time>
      </trkpt>
      <trkpt lat="42.498421" lon="1.565024">
        <ele>1991.000000</ele>
        <time>2020-08-22T10:59:49Z</time>
      </trkpt>
      <trkpt lat="42.498421" lon="1.565045">
        <ele>1991.000000</ele>
        <time>2020-08-22T10:59:49Z</time>
      </trkpt>
      <trkpt lat="42.498421" lon="1.565045">
        <ele>1991.000000</ele>
        <time>2020-08-22T10:59:49Z</time>
      </trkpt>
      <trkpt lat="42.498425" lon="1.565067">
        <ele>1991.000000</ele>
        <time>2020-08-22T10:59:49Z</time>
      </trkpt>
      <trkpt lat="42.498425" lon="1.565067">
        <ele>1991.000000</ele>
        <time>2020-08-22T10:59:49Z</time>
      </trkpt>
      <trkpt lat="42.498428" lon="1.565090">
        <ele>1991.000000</ele>
        <time>2020-08-22T10:59:49Z</time>
      </trkpt>
      <trkpt lat="42.498428" lon="1.565090">
        <ele>1991.000000</ele>
        <time>2020-08-22T10:59:49Z</time>
      </trkpt>
      <trkpt lat="42.498428" lon="1.565115">
        <ele>1991.000000</ele>
        <time>2020-08-22T10:59:56Z</time>
      </trkpt>
      <trkpt lat="42.498428" lon="1.565115">
        <ele>1991.000000</ele>
        <time>2020-08-22T10:59:56Z</time>
      </trkpt>
      <trkpt lat="42.498428" lon="1.565141">
        <ele>1991.000000</ele>
        <time>2020-08-22T10:59:56Z</time>
      </trkpt>
      <trkpt lat="42.498428" lon="1.565141">
        <ele>1997.000000</ele>
        <time>2020-08-22T10:59:56Z</time>
      </trkpt>
      <trkpt lat="42.498432" lon="1.565169">
        <ele>1997.000000</ele>
        <time>2020-08-22T10:59:56Z</time>
      </trkpt>
      <trkpt lat="42.498432" lon="1.565169">
        <ele>1997.000000</ele>
        <time>2020-08-22T10:59:56Z</time>
      </trkpt>
      <trkpt lat="42.498436" lon="1.565197">
        <ele>2005.000000</ele>
        <time>2020-08-22T10:59:56Z</time>
      </trkpt>
      <trkpt lat="42.498436" lon="1.565197">
        <ele>2005.000000</ele>
        <time>2020-08-22T10:59:56Z</time>
      </trkpt>
      <trkpt lat="42.498440" lon="1.565226">
        <ele>2005.000000</ele>
        <time>2020-08-22T10:59:56Z</time>
      </trkpt>
      <trkpt lat="42.498440" lon="1.565226">
        <ele>2005.000000</ele>
        <time>2020-08-22T10:59:56Z</time>
      </trkpt>
      <trkpt lat="42.498444" lon="1.565256">
        <ele>2005.000000</ele>
        <time>2020-08-22T10:59:56Z</time>
      </trkpt>
      <trkpt lat="42.498444" lon="1.565256">
        <ele>2005.000000</ele>
        <time>2020-08-22T10:59:56Z</time>
      </trkpt>
      <trkpt lat="42.498451" lon="1.565287">
        <ele>2005.000000</ele>
        <time>2020-08-22T10:59:56Z</time>
      </trkpt>
      <trkpt lat="42.498451" lon="1.565287">
        <ele>2005.000000</ele>
        <time>2020-08-22T10:59:56Z</time>
      </trkpt>
      <trkpt lat="42.498436" lon="1.565311">
        <ele>2005.000000</ele>
        <time>2020-08-22T10:59:56Z</time>
      </trkpt>
      <trkpt lat="42.498436" lon="1.565311">
        <ele>2005.000000</ele>
        <time>2020-08-22T10:59:56Z</time>
      </trkpt>
      <trkpt lat="42.498428" lon="1.565334">
        <ele>2005.000000</ele>
        <time>2020-08-22T10:59:56Z</time>
      </trkpt>
      <trkpt lat="42.498428" lon="1.565334">
        <ele>2005.000000</ele>
        <time>2020-08-22T10:59:56Z</time>
      </trkpt>
      <trkpt lat="42.498417" lon="1.565356">
        <ele>2005.000000</ele>
        <time>2020-08-22T10:59:56Z</time>
      </trkpt>
      <trkpt lat="42.498417" lon="1.565356">
        <ele>2005.000000</ele>
        <time>2020-08-22T10:59:56Z</time>
      </trkpt>
      <trkpt lat="42.498409" lon="1.565377">
        <ele>2005.000000</ele>
        <time>2020-08-22T11:00:03Z</time>
      </trkpt>
      <trkpt lat="42.498409" lon="1.565377">
        <ele>2005.000000</ele>
        <time>2020-08-22T11:00:03Z</time>
      </trkpt>
      <trkpt lat="42.498402" lon="1.565398">
        <ele>2005.000000</ele>
        <time>2020-08-22T11:00:03Z</time>
      </trkpt>
      <trkpt lat="42.498402" lon="1.565398">
        <ele>2005.000000</ele>
        <time>2020-08-22T11:00:03Z</time>
      </trkpt>
      <trkpt lat="42.498394" lon="1.565417">
        <ele>2005.000000</ele>
        <time>2020-08-22T11:00:03Z</time>
      </trkpt>
      <trkpt lat="42.498394" lon="1.565417">
        <ele>2005.000000</ele>
        <time>2020-08-22T11:00:03Z</time>
      </trkpt>
      <trkpt lat="42.498383" lon="1.565436">
        <ele>2006.000000</ele>
        <time>2020-08-22T11:00:03Z</time>
      </trkpt>
      <trkpt lat="42.498383" lon="1.565436">
        <ele>2006.000000</ele>
        <time>2020-08-22T11:00:03Z</time>
      </trkpt>
      <trkpt lat="42.498375" lon="1.565455">
        <ele>2006.000000</ele>
        <time>2020-08-22T11:00:03Z</time>
      </trkpt>
      <trkpt lat="42.498375" lon="1.565455">
        <ele>2006.000000</ele>
        <time>2020-08-22T11:00:03Z</time>
      </trkpt>
      <trkpt lat="42.498363" lon="1.565472">
        <ele>2006.000000</ele>
        <time>2020-08-22T11:00:03Z</time>
      </trkpt>
      <trkpt lat="42.498363" lon="1.565472">
        <ele>2007.000000</ele>
        <time>2020-08-22T11:00:03Z</time>
      </trkpt>
      <trkpt lat="42.498356" lon="1.565489">
        <ele>2007.000000</ele>
        <time>2020-08-22T11:00:03Z</time>
      </trkpt>
      <trkpt lat="42.498356" lon="1.565489">
        <ele>2007.000000</ele>
        <time>2020-08-22T11:00:03Z</time>
      </trkpt>
      <trkpt lat="42.498356" lon="1.565504">
        <ele>2007.000000</ele>
        <time>2020-08-22T11:00:03Z</time>
      </trkpt>
      <trkpt lat="42.498356" lon="1.565504">
        <ele>2007.000000</ele>
        <time>2020-08-22T11:00:03Z</time>
      </trkpt>
      <trkpt lat="42.498356" lon="1.565518">
        <ele>2007.000000</ele>
        <time>2020-08-22T11:00:03Z</time>
      </trkpt>
      <trkpt lat="42.498356" lon="1.565518">
        <ele>2007.000000</ele>
        <time>2020-08-22T11:00:03Z</time>
      </trkpt>
      <trkpt lat="42.498356" lon="1.565532">
        <ele>2008.000000</ele>
        <time>2020-08-22T11:00:10Z</time>
      </trkpt>
      <trkpt lat="42.498356" lon="1.565532">
        <ele>2008.000000</ele>
        <time>2020-08-22T11:00:10Z</time>
      </trkpt>
      <trkpt lat="42.498356" lon="1.565545">
        <ele>2008.000000</ele>
        <time>2020-08-22T11:00:10Z</time>
      </trkpt>
      <trkpt lat="42.498356" lon="1.565545">
        <ele>2008.000000</ele>
        <time>2020-08-22T11:00:10Z</time>
      </trkpt>
      <trkpt lat="42.498356" lon="1.565558">
        <ele>2008.000000</ele>
        <time>2020-08-22T11:00:10Z</time>
      </trkpt>
      <trkpt lat="42.498356" lon="1.565558">
        <ele>2008.000000</ele>
        <time>2020-08-22T11:00:10Z</time>
      </trkpt>
      <trkpt lat="42.498356" lon="1.565570">
        <ele>2009.000000</ele>
        <time>2020-08-22T11:00:10Z</time>
      </trkpt>
      <trkpt lat="42.498356" lon="1.565570">
        <ele>2009.000000</ele>
        <time>2020-08-22T11:00:10Z</time>
      </trkpt>
      <trkpt lat="42.498352" lon="1.565583">
        <ele>2012.000000</ele>
        <time>2020-08-22T11:00:10Z</time>
      </trkpt>
      <trkpt lat="42.498352" lon="1.565583">
        <ele>2012.000000</ele>
        <time>2020-08-22T11:00:10Z</time>
      </trkpt>
      <trkpt lat="42.498352" lon="1.565597">
        <ele>2012.000000</ele>
        <time>2020-08-22T11:00:10Z</time>
      </trkpt>
      <trkpt lat="42.498352" lon="1.565597">
        <ele>2012.000000</ele>
        <time>2020-08-22T11:00:10Z</time>
      </trkpt>
      <trkpt lat="42.498348" lon="1.565611">
        <ele>2014.000000</ele>
        <time>2020-08-22T11:00:17Z</time>
      </trkpt>
      <trkpt lat="42.498348" lon="1.565611">
        <ele>2014.000000</ele>
        <time>2020-08-22T11:00:17Z</time>
      </trkpt>
      <trkpt lat="42.498348" lon="1.565626">
        <ele>2014.000000</ele>
        <time>2020-08-22T11:00:17Z</time>
      </trkpt>
      <trkpt lat="42.498348" lon="1.565626">
        <ele>2014.000000</ele>
        <time>2020-08-22T11:00:17Z</time>
      </trkpt>
      <trkpt lat="42.498348" lon="1.565637">
        <ele>2014.000000</ele>
        <time>2020-08-22T11:00:17Z</time>
      </trkpt>
      <trkpt lat="42.498348" lon="1.565637">
        <ele>2014.000000</ele>
        <time>2020-08-22T11:00:17Z</time>
      </trkpt>
      <trkpt lat="42.498348" lon="1.565649">
        <ele>2016.000000</ele>
        <time>2020-08-22T11:00:17Z</time>
      </trkpt>
      <trkpt lat="42.498348" lon="1.565649">
        <ele>2016.000000</ele>
        <time>2020-08-22T11:00:17Z</time>
      </trkpt>
      <trkpt lat="42.498341" lon="1.565661">
        <ele>2016.000000</ele>
        <time>2020-08-22T11:00:17Z</time>
      </trkpt>
      <trkpt lat="42.498341" lon="1.565661">
        <ele>2016.000000</ele>
        <time>2020-08-22T11:00:17Z</time>
      </trkpt>
      <trkpt lat="42.498337" lon="1.565673">
        <ele>2017.000000</ele>
        <time>2020-08-22T11:00:17Z</time>
      </trkpt>
      <trkpt lat="42.498337" lon="1.565673">
        <ele>2017.000000</ele>
        <time>2020-08-22T11:00:17Z</time>
      </trkpt>
      <trkpt lat="42.498337" lon="1.565686">
        <ele>2017.000000</ele>
        <time>2020-08-22T11:00:25Z</time>
      </trkpt>
      <trkpt lat="42.498337" lon="1.565686">
        <ele>2018.000000</ele>
        <time>2020-08-22T11:00:25Z</time>
      </trkpt>
      <trkpt lat="42.498333" lon="1.565700">
        <ele>2018.000000</ele>
        <time>2020-08-22T11:00:25Z</time>
      </trkpt>
      <trkpt lat="42.498333" lon="1.565700">
        <ele>2018.000000</ele>
        <time>2020-08-22T11:00:25Z</time>
      </trkpt>
      <trkpt lat="42.498329" lon="1.565714">
        <ele>2018.000000</ele>
        <time>2020-08-22T11:00:25Z</time>
      </trkpt>
      <trkpt lat="42.498329" lon="1.565714">
        <ele>2018.000000</ele>
        <time>2020-08-22T11:00:25Z</time>
      </trkpt>
      <trkpt lat="42.498329" lon="1.565728">
        <ele>2019.000000</ele>
        <time>2020-08-22T11:00:25Z</time>
      </trkpt>
      <trkpt lat="42.498329" lon="1.565728">
        <ele>2019.000000</ele>
        <time>2020-08-22T11:00:25Z</time>
      </trkpt>
      <trkpt lat="42.498325" lon="1.565741">
        <ele>2019.000000</ele>
        <time>2020-08-22T11:00:25Z</time>
      </trkpt>
      <trkpt lat="42.498325" lon="1.565741">
        <ele>2019.000000</ele>
        <time>2020-08-22T11:00:25Z</time>
      </trkpt>
      <trkpt lat="42.498322" lon="1.565754">
        <ele>2019.000000</ele>
        <time>2020-08-22T11:00:25Z</time>
      </trkpt>
      <trkpt lat="42.498322" lon="1.565754">
        <ele>2019.000000</ele>
        <time>2020-08-22T11:00:25Z</time>
      </trkpt>
      <trkpt lat="42.498314" lon="1.565769">
        <ele>2019.000000</ele>
        <time>2020-08-22T11:00:25Z</time>
      </trkpt>
      <trkpt lat="42.498314" lon="1.565769">
        <ele>2020.000000</ele>
        <time>2020-08-22T11:00:25Z</time>
      </trkpt>
      <trkpt lat="42.498310" lon="1.565783">
        <ele>2020.000000</ele>
        <time>2020-08-22T11:00:25Z</time>
      </trkpt>
      <trkpt lat="42.498310" lon="1.565783">
        <ele>2020.000000</ele>
        <time>2020-08-22T11:00:25Z</time>
      </trkpt>
      <trkpt lat="42.498299" lon="1.565796">
        <ele>2020.000000</ele>
        <time>2020-08-22T11:00:25Z</time>
      </trkpt>
      <trkpt lat="42.498299" lon="1.565796">
        <ele>2020.000000</ele>
        <time>2020-08-22T11:00:25Z</time>
      </trkpt>
      <trkpt lat="42.498287" lon="1.565807">
        <ele>2020.000000</ele>
        <time>2020-08-22T11:00:25Z</time>
      </trkpt>
      <trkpt lat="42.498287" lon="1.565807">
        <ele>2020.000000</ele>
        <time>2020-08-22T11:00:25Z</time>
      </trkpt>
      <trkpt lat="42.498276" lon="1.565817">
        <ele>2021.000000</ele>
        <time>2020-08-22T11:00:25Z</time>
      </trkpt>
      <trkpt lat="42.498276" lon="1.565817">
        <ele>2021.000000</ele>
        <time>2020-08-22T11:00:25Z</time>
      </trkpt>
      <trkpt lat="42.498260" lon="1.565823">
        <ele>2021.000000</ele>
        <time>2020-08-22T11:00:25Z</time>
      </trkpt>
      <trkpt lat="42.498260" lon="1.565823">
        <ele>2021.000000</ele>
        <time>2020-08-22T11:00:25Z</time>
      </trkpt>
      <trkpt lat="42.498245" lon="1.565827">
        <ele>2022.000000</ele>
        <time>2020-08-22T11:00:33Z</time>
      </trkpt>
      <trkpt lat="42.498245" lon="1.565827">
        <ele>2022.000000</ele>
        <time>2020-08-22T11:00:33Z</time>
      </trkpt>
      <trkpt lat="42.498230" lon="1.565829">
        <ele>2022.000000</ele>
        <time>2020-08-22T11:00:33Z</time>
      </trkpt>
      <trkpt lat="42.498230" lon="1.565829">
        <ele>2022.000000</ele>
        <time>2020-08-22T11:00:33Z</time>
      </trkpt>
      <trkpt lat="42.498207" lon="1.565830">
        <ele>2022.000000</ele>
        <time>2020-08-22T11:00:33Z</time>
      </trkpt>
      <trkpt lat="42.498207" lon="1.565830">
        <ele>2022.000000</ele>
        <time>2020-08-22T11:00:33Z</time>
      </trkpt>
      <trkpt lat="42.498188" lon="1.565830">
        <ele>2023.000000</ele>
        <time>2020-08-22T11:00:33Z</time>
      </trkpt>
      <trkpt lat="42.498188" lon="1.565830">
        <ele>2023.000000</ele>
        <time>2020-08-22T11:00:33Z</time>
      </trkpt>
      <trkpt lat="42.498188" lon="1.565837">
        <ele>2023.000000</ele>
        <time>2020-08-22T11:00:33Z</time>
      </trkpt>
      <trkpt lat="42.498188" lon="1.565837">
        <ele>2023.000000</ele>
        <time>2020-08-22T11:00:33Z</time>
      </trkpt>
      <trkpt lat="42.498188" lon="1.565845">
        <ele>2024.000000</ele>
        <time>2020-08-22T11:00:40Z</time>
      </trkpt>
      <trkpt lat="42.498188" lon="1.565845">
        <ele>2024.000000</ele>
        <time>2020-08-22T11:00:40Z</time>
      </trkpt>
      <trkpt lat="42.498188" lon="1.565852">
        <ele>2024.000000</ele>
        <time>2020-08-22T11:00:40Z</time>
      </trkpt>
      <trkpt lat="42.498188" lon="1.565852">
        <ele>2024.000000</ele>
        <time>2020-08-22T11:00:40Z</time>
      </trkpt>
      <trkpt lat="42.498188" lon="1.565859">
        <ele>2024.000000</ele>
        <time>2020-08-22T11:00:40Z</time>
      </trkpt>
      <trkpt lat="42.498188" lon="1.565859">
        <ele>2024.000000</ele>
        <time>2020-08-22T11:00:40Z</time>
      </trkpt>
      <trkpt lat="42.498192" lon="1.565866">
        <ele>2024.000000</ele>
        <time>2020-08-22T11:00:40Z</time>
      </trkpt>
      <trkpt lat="42.498192" lon="1.565866">
        <ele>2024.000000</ele>
        <time>2020-08-22T11:00:40Z</time>
      </trkpt>
      <trkpt lat="42.498196" lon="1.565873">
        <ele>2024.000000</ele>
        <time>2020-08-22T11:00:40Z</time>
      </trkpt>
      <trkpt lat="42.498196" lon="1.565873">
        <ele>2024.000000</ele>
        <time>2020-08-22T11:00:40Z</time>
      </trkpt>
      <trkpt lat="42.498199" lon="1.565880">
        <ele>2024.000000</ele>
        <time>2020-08-22T11:00:40Z</time>
      </trkpt>
      <trkpt lat="42.498199" lon="1.565880">
        <ele>2024.000000</ele>
        <time>2020-08-22T11:00:40Z</time>
      </trkpt>
      <trkpt lat="42.498207" lon="1.565888">
        <ele>2024.000000</ele>
        <time>2020-08-22T11:00:47Z</time>
      </trkpt>
      <trkpt lat="42.498207" lon="1.565888">
        <ele>2024.000000</ele>
        <time>2020-08-22T11:00:47Z</time>
      </trkpt>
      <trkpt lat="42.498219" lon="1.565897">
        <ele>2024.000000</ele>
        <time>2020-08-22T11:00:47Z</time>
      </trkpt>
      <trkpt lat="42.498219" lon="1.565897">
        <ele>2024.000000</ele>
        <time>2020-08-22T11:00:47Z</time>
      </trkpt>
      <trkpt lat="42.498230" lon="1.565907">
        <ele>2024.000000</ele>
        <time>2020-08-22T11:00:47Z</time>
      </trkpt>
      <trkpt lat="42.498230" lon="1.565907">
        <ele>2026.000000</ele>
        <time>2020-08-22T11:00:47Z</time>
      </trkpt>
      <trkpt lat="42.498219" lon="1.565942">
        <ele>2026.000000</ele>
        <time>2020-08-22T11:00:47Z</time>
      </trkpt>
      <trkpt lat="42.498219" lon="1.565942">
        <ele>2026.000000</ele>
        <time>2020-08-22T11:00:47Z</time>
      </trkpt>
      <trkpt lat="42.498207" lon="1.565978">
        <ele>2027.000000</ele>
        <time>2020-08-22T11:00:47Z</time>
      </trkpt>
      <trkpt lat="42.498207" lon="1.565978">
        <ele>2027.000000</ele>
        <time>2020-08-22T11:00:47Z</time>
      </trkpt>
      <trkpt lat="42.498196" lon="1.566016">
        <ele>2027.000000</ele>
        <time>2020-08-22T11:00:47Z</time>
      </trkpt>
      <trkpt lat="42.498196" lon="1.566016">
        <ele>2027.000000</ele>
        <time>2020-08-22T11:00:47Z</time>
      </trkpt>
      <trkpt lat="42.498188" lon="1.566056">
        <ele>2028.000000</ele>
        <time>2020-08-22T11:00:47Z</time>
      </trkpt>
      <trkpt lat="42.498188" lon="1.566056">
        <ele>2028.000000</ele>
        <time>2020-08-22T11:00:47Z</time>
      </trkpt>
      <trkpt lat="42.498177" lon="1.566097">
        <ele>2028.000000</ele>
        <time>2020-08-22T11:00:54Z</time>
      </trkpt>
      <trkpt lat="42.498177" lon="1.566097">
        <ele>2028.000000</ele>
        <time>2020-08-22T11:00:54Z</time>
      </trkpt>
      <trkpt lat="42.498169" lon="1.566140">
        <ele>2029.000000</ele>
        <time>2020-08-22T11:00:54Z</time>
      </trkpt>
      <trkpt lat="42.498169" lon="1.566140">
        <ele>2029.000000</ele>
        <time>2020-08-22T11:00:54Z</time>
      </trkpt>
      <trkpt lat="42.498161" lon="1.566186">
        <ele>2032.000000</ele>
        <time>2020-08-22T11:00:54Z</time>
      </trkpt>
      <trkpt lat="42.498161" lon="1.566186">
        <ele>2032.000000</ele>
        <time>2020-08-22T11:00:54Z</time>
      </trkpt>
      <trkpt lat="42.498154" lon="1.566232">
        <ele>2033.000000</ele>
        <time>2020-08-22T11:00:54Z</time>
      </trkpt>
      <trkpt lat="42.498154" lon="1.566232">
        <ele>2033.000000</ele>
        <time>2020-08-22T11:00:54Z</time>
      </trkpt>
      <trkpt lat="42.498146" lon="1.566278">
        <ele>2033.000000</ele>
        <time>2020-08-22T11:00:54Z</time>
      </trkpt>
      <trkpt lat="42.498146" lon="1.566278">
        <ele>2033.000000</ele>
        <time>2020-08-22T11:00:54Z</time>
      </trkpt>
      <trkpt lat="42.498138" lon="1.566325">
        <ele>2033.000000</ele>
        <time>2020-08-22T11:00:54Z</time>
      </trkpt>
      <trkpt lat="42.498138" lon="1.566325">
        <ele>2033.000000</ele>
        <time>2020-08-22T11:00:54Z</time>
      </trkpt>
      <trkpt lat="42.498138" lon="1.566343">
        <ele>2033.000000</ele>
        <time>2020-08-22T11:00:54Z</time>
      </trkpt>
      <trkpt lat="42.498138" lon="1.566343">
        <ele>2034.000000</ele>
        <time>2020-08-22T11:00:54Z</time>
      </trkpt>
      <trkpt lat="42.498138" lon="1.566361">
        <ele>2038.000000</ele>
        <time>2020-08-22T11:00:54Z</time>
      </trkpt>
      <trkpt lat="42.498138" lon="1.566361">
        <ele>2038.000000</ele>
        <time>2020-08-22T11:00:54Z</time>
      </trkpt>
      <trkpt lat="42.498138" lon="1.566379">
        <ele>2039.000000</ele>
        <time>2020-08-22T11:00:54Z</time>
      </trkpt>
      <trkpt lat="42.498138" lon="1.566379">
        <ele>2039.000000</ele>
        <time>2020-08-22T11:00:54Z</time>
      </trkpt>
      <trkpt lat="42.498142" lon="1.566396">
        <ele>2039.000000</ele>
        <time>2020-08-22T11:01:01Z</time>
      </trkpt>
      <trkpt lat="42.498142" lon="1.566396">
        <ele>2039.000000</ele>
        <time>2020-08-22T11:01:01Z</time>
      </trkpt>
      <trkpt lat="42.498142" lon="1.566413">
        <ele>2039.000000</ele>
        <time>2020-08-22T11:01:01Z</time>
      </trkpt>
      <trkpt lat="42.498142" lon="1.566413">
        <ele>2039.000000</ele>
        <time>2020-08-22T11:01:01Z</time>
      </trkpt>
      <trkpt lat="42.498142" lon="1.566429">
        <ele>2040.000000</ele>
        <time>2020-08-22T11:01:01Z</time>
      </trkpt>
      <trkpt lat="42.498142" lon="1.566429">
        <ele>2040.000000</ele>
        <time>2020-08-22T11:01:01Z</time>
      </trkpt>
      <trkpt lat="42.498142" lon="1.566445">
        <ele>2040.000000</ele>
        <time>2020-08-22T11:01:01Z</time>
      </trkpt>
      <trkpt lat="42.498142" lon="1.566445">
        <ele>2040.000000</ele>
        <time>2020-08-22T11:01:01Z</time>
      </trkpt>
      <trkpt lat="42.498142" lon="1.566460">
        <ele>2040.000000</ele>
        <time>2020-08-22T11:01:01Z</time>
      </trkpt>
      <trkpt lat="42.498142" lon="1.566460">
        <ele>2040.000000</ele>
        <time>2020-08-22T11:01:01Z</time>
      </trkpt>
      <trkpt lat="42.498138" lon="1.566475">
        <ele>2040.000000</ele>
        <time>2020-08-22T11:01:01Z</time>
      </trkpt>
      <trkpt lat="42.498138" lon="1.566475">
        <ele>2040.000000</ele>
        <time>2020-08-22T11:01:01Z</time>
      </trkpt>
      <trkpt lat="42.498138" lon="1.566490">
        <ele>2040.000000</ele>
        <time>2020-08-22T11:01:01Z</time>
      </trkpt>
      <trkpt lat="42.498138" lon="1.566490">
        <ele>2040.000000</ele>
        <time>2020-08-22T11:01:01Z</time>
      </trkpt>
      <trkpt lat="42.498138" lon="1.566498">
        <ele>2040.000000</ele>
        <time>2020-08-22T11:01:01Z</time>
      </trkpt>
      <trkpt lat="42.498138" lon="1.566498">
        <ele>2040.000000</ele>
        <time>2020-08-22T11:01:01Z</time>
      </trkpt>
      <trkpt lat="42.498142" lon="1.566507">
        <ele>2041.000000</ele>
        <time>2020-08-22T11:01:01Z</time>
      </trkpt>
      <trkpt lat="42.498142" lon="1.566507">
        <ele>2041.000000</ele>
        <time>2020-08-22T11:01:01Z</time>
      </trkpt>
      <trkpt lat="42.498142" lon="1.566516">
        <ele>2042.000000</ele>
        <time>2020-08-22T11:01:01Z</time>
      </trkpt>
      <trkpt lat="42.498142" lon="1.566516">
        <ele>2042.000000</ele>
        <time>2020-08-22T11:01:01Z</time>
      </trkpt>
      <trkpt lat="42.498142" lon="1.566525">
        <ele>2042.000000</ele>
        <time>2020-08-22T11:01:08Z</time>
      </trkpt>
      <trkpt lat="42.498142" lon="1.566525">
        <ele>2042.000000</ele>
        <time>2020-08-22T11:01:08Z</time>
      </trkpt>
      <trkpt lat="42.498138" lon="1.566534">
        <ele>2042.000000</ele>
        <time>2020-08-22T11:01:08Z</time>
      </trkpt>
      <trkpt lat="42.498138" lon="1.566534">
        <ele>2042.000000</ele>
        <time>2020-08-22T11:01:08Z</time>
      </trkpt>
      <trkpt lat="42.498138" lon="1.566544">
        <ele>2042.000000</ele>
        <time>2020-08-22T11:01:08Z</time>
      </trkpt>
      <trkpt lat="42.498138" lon="1.566544">
        <ele>2042.000000</ele>
        <time>2020-08-22T11:01:08Z</time>
      </trkpt>
      <trkpt lat="42.498135" lon="1.566554">
        <ele>2043.000000</ele>
        <time>2020-08-22T11:01:08Z</time>
      </trkpt>
      <trkpt lat="42.498135" lon="1.566554">
        <ele>2043.000000</ele>
        <time>2020-08-22T11:01:08Z</time>
      </trkpt>
      <trkpt lat="42.498135" lon="1.566563">
        <ele>2043.000000</ele>
        <time>2020-08-22T11:01:08Z</time>
      </trkpt>
      <trkpt lat="42.498135" lon="1.566563">
        <ele>2044.000000</ele>
        <time>2020-08-22T11:01:08Z</time>
      </trkpt>
      <trkpt lat="42.498127" lon="1.566573">
        <ele>2044.000000</ele>
        <time>2020-08-22T11:01:08Z</time>
      </trkpt>
      <trkpt lat="42.498127" lon="1.566573">
        <ele>2044.000000</ele>
        <time>2020-08-22T11:01:08Z</time>
      </trkpt>
      <trkpt lat="42.498123" lon="1.566583">
        <ele>2044.000000</ele>
        <time>2020-08-22T11:01:08Z</time>
      </trkpt>
      <trkpt lat="42.498123" lon="1.566583">
        <ele>2044.000000</ele>
        <time>2020-08-22T11:01:08Z</time>
      </trkpt>
      <trkpt lat="42.498112" lon="1.566596">
        <ele>2044.000000</ele>
        <time>2020-08-22T11:01:08Z</time>
      </trkpt>
      <trkpt lat="42.498112" lon="1.566596">
        <ele>2044.000000</ele>
        <time>2020-08-22T11:01:08Z</time>
      </trkpt>
      <trkpt lat="42.498104" lon="1.566610">
        <ele>2045.000000</ele>
        <time>2020-08-22T11:01:08Z</time>
      </trkpt>
      <trkpt lat="42.498104" lon="1.566610">
        <ele>2045.000000</ele>
        <time>2020-08-22T11:01:08Z</time>
      </trkpt>
      <trkpt lat="42.498096" lon="1.566624">
        <ele>2045.000000</ele>
        <time>2020-08-22T11:01:08Z</time>
      </trkpt>
      <trkpt lat="42.498096" lon="1.566624">
        <ele>2045.000000</ele>
        <time>2020-08-22T11:01:08Z</time>
      </trkpt>
      <trkpt lat="42.498089" lon="1.566638">
        <ele>2045.000000</ele>
        <time>2020-08-22T11:01:08Z</time>
      </trkpt>
      <trkpt lat="42.498089" lon="1.566638">
        <ele>2045.000000</ele>
        <time>2020-08-22T11:01:08Z</time>
      </trkpt>
      <trkpt lat="42.498081" lon="1.566652">
        <ele>2045.000000</ele>
        <time>2020-08-22T11:01:08Z</time>
      </trkpt>
      <trkpt lat="42.498081" lon="1.566652">
        <ele>2045.000000</ele>
        <time>2020-08-22T11:01:08Z</time>
      </trkpt>
      <trkpt lat="42.498077" lon="1.566665">
        <ele>2045.000000</ele>
        <time>2020-08-22T11:01:08Z</time>
      </trkpt>
      <trkpt lat="42.498077" lon="1.566665">
        <ele>2045.000000</ele>
        <time>2020-08-22T11:01:08Z</time>
      </trkpt>
      <trkpt lat="42.498074" lon="1.566680">
        <ele>2045.000000</ele>
        <time>2020-08-22T11:01:15Z</time>
      </trkpt>
      <trkpt lat="42.498074" lon="1.566680">
        <ele>2045.000000</ele>
        <time>2020-08-22T11:01:15Z</time>
      </trkpt>
      <trkpt lat="42.498070" lon="1.566695">
        <ele>2045.000000</ele>
        <time>2020-08-22T11:01:15Z</time>
      </trkpt>
      <trkpt lat="42.498070" lon="1.566695">
        <ele>2045.000000</ele>
        <time>2020-08-22T11:01:15Z</time>
      </trkpt>
      <trkpt lat="42.498070" lon="1.566711">
        <ele>2045.000000</ele>
        <time>2020-08-22T11:01:15Z</time>
      </trkpt>
      <trkpt lat="42.498070" lon="1.566711">
        <ele>2045.000000</ele>
        <time>2020-08-22T11:01:15Z</time>
      </trkpt>
      <trkpt lat="42.498070" lon="1.566728">
        <ele>2045.000000</ele>
        <time>2020-08-22T11:01:15Z</time>
      </trkpt>
      <trkpt lat="42.498070" lon="1.566728">
        <ele>2046.000000</ele>
        <time>2020-08-22T11:01:15Z</time>
      </trkpt>
      <trkpt lat="42.498074" lon="1.566739">
        <ele>2046.000000</ele>
        <time>2020-08-22T11:01:15Z</time>
      </trkpt>
      <trkpt lat="42.498074" lon="1.566739">
        <ele>2047.000000</ele>
        <time>2020-08-22T11:01:15Z</time>
      </trkpt>
      <trkpt lat="42.498074" lon="1.566751">
        <ele>2047.000000</ele>
        <time>2020-08-22T11:01:15Z</time>
      </trkpt>
      <trkpt lat="42.498074" lon="1.566751">
        <ele>2047.000000</ele>
        <time>2020-08-22T11:01:15Z</time>
      </trkpt>
      <trkpt lat="42.498081" lon="1.566764">
        <ele>2047.000000</ele>
        <time>2020-08-22T11:01:22Z</time>
      </trkpt>
      <trkpt lat="42.498081" lon="1.566764">
        <ele>2047.000000</ele>
        <time>2020-08-22T11:01:22Z</time>
      </trkpt>
      <trkpt lat="42.498081" lon="1.566778">
        <ele>2047.000000</ele>
        <time>2020-08-22T11:01:22Z</time>
      </trkpt>
      <trkpt lat="42.498081" lon="1.566778">
        <ele>2047.000000</ele>
        <time>2020-08-22T11:01:22Z</time>
      </trkpt>
      <trkpt lat="42.498085" lon="1.566793">
        <ele>2047.000000</ele>
        <time>2020-08-22T11:01:22Z</time>
      </trkpt>
      <trkpt lat="42.498085" lon="1.566793">
        <ele>2047.000000</ele>
        <time>2020-08-22T11:01:22Z</time>
      </trkpt>
      <trkpt lat="42.498089" lon="1.566808">
        <ele>2047.000000</ele>
        <time>2020-08-22T11:01:22Z</time>
      </trkpt>
      <trkpt lat="42.498089" lon="1.566808">
        <ele>2047.000000</ele>
        <time>2020-08-22T11:01:22Z</time>
      </trkpt>
      <trkpt lat="42.498093" lon="1.566824">
        <ele>2047.000000</ele>
        <time>2020-08-22T11:01:22Z</time>
      </trkpt>
      <trkpt lat="42.498093" lon="1.566824">
        <ele>2047.000000</ele>
        <time>2020-08-22T11:01:22Z</time>
      </trkpt>
      <trkpt lat="42.498093" lon="1.566839">
        <ele>2047.000000</ele>
        <time>2020-08-22T11:01:29Z</time>
      </trkpt>
      <trkpt lat="42.498093" lon="1.566839">
        <ele>2047.000000</ele>
        <time>2020-08-22T11:01:29Z</time>
      </trkpt>
      <trkpt lat="42.498096" lon="1.566854">
        <ele>2047.000000</ele>
        <time>2020-08-22T11:01:29Z</time>
      </trkpt>
      <trkpt lat="42.498096" lon="1.566854">
        <ele>2047.000000</ele>
        <time>2020-08-22T11:01:29Z</time>
      </trkpt>
      <trkpt lat="42.498096" lon="1.566869">
        <ele>2047.000000</ele>
        <time>2020-08-22T11:01:29Z</time>
      </trkpt>
      <trkpt lat="42.498096" lon="1.566869">
        <ele>2047.000000</ele>
        <time>2020-08-22T11:01:29Z</time>
      </trkpt>
      <trkpt lat="42.498093" lon="1.566884">
        <ele>2047.000000</ele>
        <time>2020-08-22T11:01:29Z</time>
      </trkpt>
      <trkpt lat="42.498093" lon="1.566884">
        <ele>2047.000000</ele>
        <time>2020-08-22T11:01:29Z</time>
      </trkpt>
      <trkpt lat="42.498089" lon="1.566900">
        <ele>2047.000000</ele>
        <time>2020-08-22T11:01:36Z</time>
      </trkpt>
      <trkpt lat="42.498089" lon="1.566900">
        <ele>2047.000000</ele>
        <time>2020-08-22T11:01:36Z</time>
      </trkpt>
      <trkpt lat="42.498089" lon="1.566916">
        <ele>2047.000000</ele>
        <time>2020-08-22T11:01:36Z</time>
      </trkpt>
      <trkpt lat="42.498089" lon="1.566916">
        <ele>2047.000000</ele>
        <time>2020-08-22T11:01:36Z</time>
      </trkpt>
      <trkpt lat="42.498089" lon="1.566932">
        <ele>2047.000000</ele>
        <time>2020-08-22T11:01:36Z</time>
      </trkpt>
      <trkpt lat="42.498089" lon="1.566932">
        <ele>2047.000000</ele>
        <time>2020-08-22T11:01:36Z</time>
      </trkpt>
      <trkpt lat="42.498089" lon="1.566947">
        <ele>2047.000000</ele>
        <time>2020-08-22T11:01:36Z</time>
      </trkpt>
      <trkpt lat="42.498089" lon="1.566947">
        <ele>2047.000000</ele>
        <time>2020-08-22T11:01:36Z</time>
      </trkpt>
      <trkpt lat="42.498085" lon="1.566962">
        <ele>2047.000000</ele>
        <time>2020-08-22T11:01:36Z</time>
      </trkpt>
      <trkpt lat="42.498085" lon="1.566962">
        <ele>2047.000000</ele>
        <time>2020-08-22T11:01:36Z</time>
      </trkpt>
      <trkpt lat="42.498089" lon="1.566976">
        <ele>2047.000000</ele>
        <time>2020-08-22T11:01:36Z</time>
      </trkpt>
      <trkpt lat="42.498089" lon="1.566976">
        <ele>2047.000000</ele>
        <time>2020-08-22T11:01:36Z</time>
      </trkpt>
      <trkpt lat="42.498089" lon="1.566990">
        <ele>2047.000000</ele>
        <time>2020-08-22T11:01:36Z</time>
      </trkpt>
      <trkpt lat="42.498089" lon="1.566990">
        <ele>2047.000000</ele>
        <time>2020-08-22T11:01:36Z</time>
      </trkpt>
      <trkpt lat="42.498096" lon="1.567004">
        <ele>2047.000000</ele>
        <time>2020-08-22T11:01:43Z</time>
      </trkpt>
      <trkpt lat="42.498096" lon="1.567004">
        <ele>2047.000000</ele>
        <time>2020-08-22T11:01:43Z</time>
      </trkpt>
      <trkpt lat="42.498100" lon="1.567017">
        <ele>2047.000000</ele>
        <time>2020-08-22T11:01:43Z</time>
      </trkpt>
      <trkpt lat="42.498100" lon="1.567017">
        <ele>2050.000000</ele>
        <time>2020-08-22T11:01:43Z</time>
      </trkpt>
      <trkpt lat="42.498108" lon="1.567027">
        <ele>2050.000000</ele>
        <time>2020-08-22T11:01:43Z</time>
      </trkpt>
      <trkpt lat="42.498108" lon="1.567027">
        <ele>2050.000000</ele>
        <time>2020-08-22T11:01:43Z</time>
      </trkpt>
      <trkpt lat="42.498116" lon="1.567037">
        <ele>2050.000000</ele>
        <time>2020-08-22T11:01:43Z</time>
      </trkpt>
      <trkpt lat="42.498116" lon="1.567037">
        <ele>2050.000000</ele>
        <time>2020-08-22T11:01:43Z</time>
      </trkpt>
      <trkpt lat="42.498127" lon="1.567045">
        <ele>2050.000000</ele>
        <time>2020-08-22T11:01:43Z</time>
      </trkpt>
      <trkpt lat="42.498127" lon="1.567045">
        <ele>2050.000000</ele>
        <time>2020-08-22T11:01:43Z</time>
      </trkpt>
      <trkpt lat="42.498135" lon="1.567052">
        <ele>2050.000000</ele>
        <time>2020-08-22T11:01:43Z</time>
      </trkpt>
      <trkpt lat="42.498135" lon="1.567052">
        <ele>2050.000000</ele>
        <time>2020-08-22T11:01:43Z</time>
      </trkpt>
      <trkpt lat="42.498142" lon="1.567058">
        <ele>2051.000000</ele>
        <time>2020-08-22T11:01:43Z</time>
      </trkpt>
      <trkpt lat="42.498142" lon="1.567058">
        <ele>2051.000000</ele>
        <time>2020-08-22T11:01:43Z</time>
      </trkpt>
      <trkpt lat="42.498154" lon="1.567063">
        <ele>2051.000000</ele>
        <time>2020-08-22T11:01:50Z</time>
      </trkpt>
      <trkpt lat="42.498154" lon="1.567063">
        <ele>2051.000000</ele>
        <time>2020-08-22T11:01:50Z</time>
      </trkpt>
      <trkpt lat="42.498161" lon="1.567068">
        <ele>2051.000000</ele>
        <time>2020-08-22T11:01:50Z</time>
      </trkpt>
      <trkpt lat="42.498161" lon="1.567068">
        <ele>2051.000000</ele>
        <time>2020-08-22T11:01:50Z</time>
      </trkpt>
      <trkpt lat="42.498169" lon="1.567073">
        <ele>2051.000000</ele>
        <time>2020-08-22T11:01:50Z</time>
      </trkpt>
      <trkpt lat="42.498169" lon="1.567073">
        <ele>2051.000000</ele>
        <time>2020-08-22T11:01:50Z</time>
      </trkpt>
      <trkpt lat="42.498180" lon="1.567078">
        <ele>2051.000000</ele>
        <time>2020-08-22T11:01:50Z</time>
      </trkpt>
      <trkpt lat="42.498180" lon="1.567078">
        <ele>2051.000000</ele>
        <time>2020-08-22T11:01:50Z</time>
      </trkpt>
      <trkpt lat="42.498188" lon="1.567084">
        <ele>2051.000000</ele>
        <time>2020-08-22T11:01:50Z</time>
      </trkpt>
      <trkpt lat="42.498188" lon="1.567084">
        <ele>2051.000000</ele>
        <time>2020-08-22T11:01:50Z</time>
      </trkpt>
      <trkpt lat="42.498192" lon="1.567091">
        <ele>2051.000000</ele>
        <time>2020-08-22T11:01:57Z</time>
      </trkpt>
      <trkpt lat="42.498192" lon="1.567091">
        <ele>2052.000000</ele>
        <time>2020-08-22T11:01:57Z</time>
      </trkpt>
      <trkpt lat="42.498196" lon="1.567098">
        <ele>2052.000000</ele>
        <time>2020-08-22T11:01:57Z</time>
      </trkpt>
      <trkpt lat="42.498196" lon="1.567098">
        <ele>2052.000000</ele>
        <time>2020-08-22T11:01:57Z</time>
      </trkpt>
      <trkpt lat="42.498199" lon="1.567105">
        <ele>2052.000000</ele>
        <time>2020-08-22T11:01:57Z</time>
      </trkpt>
      <trkpt lat="42.498199" lon="1.567105">
        <ele>2052.000000</ele>
        <time>2020-08-22T11:01:57Z</time>
      </trkpt>
      <trkpt lat="42.498203" lon="1.567114">
        <ele>2053.000000</ele>
        <time>2020-08-22T11:01:57Z</time>
      </trkpt>
      <trkpt lat="42.498203" lon="1.567114">
        <ele>2053.000000</ele>
        <time>2020-08-22T11:01:57Z</time>
      </trkpt>
      <trkpt lat="42.498203" lon="1.567123">
        <ele>2053.000000</ele>
        <time>2020-08-22T11:01:57Z</time>
      </trkpt>
      <trkpt lat="42.498203" lon="1.567123">
        <ele>2053.000000</ele>
        <time>2020-08-22T11:01:57Z</time>
      </trkpt>
      <trkpt lat="42.498207" lon="1.567134">
        <ele>2053.000000</ele>
        <time>2020-08-22T11:01:57Z</time>
      </trkpt>
      <trkpt lat="42.498207" lon="1.567134">
        <ele>2053.000000</ele>
        <time>2020-08-22T11:01:57Z</time>
      </trkpt>
      <trkpt lat="42.498207" lon="1.567145">
        <ele>2056.000000</ele>
        <time>2020-08-22T11:01:57Z</time>
      </trkpt>
      <trkpt lat="42.498207" lon="1.567145">
        <ele>2056.000000</ele>
        <time>2020-08-22T11:01:57Z</time>
      </trkpt>
      <trkpt lat="42.498207" lon="1.567156">
        <ele>2056.000000</ele>
        <time>2020-08-22T11:02:04Z</time>
      </trkpt>
      <trkpt lat="42.498207" lon="1.567156">
        <ele>2056.000000</ele>
        <time>2020-08-22T11:02:04Z</time>
      </trkpt>
      <trkpt lat="42.498207" lon="1.567167">
        <ele>2056.000000</ele>
        <time>2020-08-22T11:02:04Z</time>
      </trkpt>
      <trkpt lat="42.498207" lon="1.567167">
        <ele>2056.000000</ele>
        <time>2020-08-22T11:02:04Z</time>
      </trkpt>
      <trkpt lat="42.498207" lon="1.567178">
        <ele>2056.000000</ele>
        <time>2020-08-22T11:02:04Z</time>
      </trkpt>
      <trkpt lat="42.498207" lon="1.567178">
        <ele>2056.000000</ele>
        <time>2020-08-22T11:02:04Z</time>
      </trkpt>
      <trkpt lat="42.498207" lon="1.567188">
        <ele>2056.000000</ele>
        <time>2020-08-22T11:02:04Z</time>
      </trkpt>
      <trkpt lat="42.498207" lon="1.567188">
        <ele>2056.000000</ele>
        <time>2020-08-22T11:02:04Z</time>
      </trkpt>
      <trkpt lat="42.498207" lon="1.567197">
        <ele>2057.000000</ele>
        <time>2020-08-22T11:02:11Z</time>
      </trkpt>
      <trkpt lat="42.498207" lon="1.567197">
        <ele>2057.000000</ele>
        <time>2020-08-22T11:02:11Z</time>
      </trkpt>
      <trkpt lat="42.498211" lon="1.567205">
        <ele>2057.000000</ele>
        <time>2020-08-22T11:02:11Z</time>
      </trkpt>
      <trkpt lat="42.498211" lon="1.567205">
        <ele>2057.000000</ele>
        <time>2020-08-22T11:02:11Z</time>
      </trkpt>
      <trkpt lat="42.498215" lon="1.567210">
        <ele>2057.000000</ele>
        <time>2020-08-22T11:02:11Z</time>
      </trkpt>
      <trkpt lat="42.498215" lon="1.567210">
        <ele>2057.000000</ele>
        <time>2020-08-22T11:02:11Z</time>
      </trkpt>
      <trkpt lat="42.498219" lon="1.567214">
        <ele>2057.000000</ele>
        <time>2020-08-22T11:02:11Z</time>
      </trkpt>
      <trkpt lat="42.498219" lon="1.567214">
        <ele>2057.000000</ele>
        <time>2020-08-22T11:02:11Z</time>
      </trkpt>
      <trkpt lat="42.498222" lon="1.567215">
        <ele>2057.000000</ele>
        <time>2020-08-22T11:02:11Z</time>
      </trkpt>
      <trkpt lat="42.498222" lon="1.567215">
        <ele>2057.000000</ele>
        <time>2020-08-22T11:02:11Z</time>
      </trkpt>
      <trkpt lat="42.498226" lon="1.567215">
        <ele>2058.000000</ele>
        <time>2020-08-22T11:02:11Z</time>
      </trkpt>
      <trkpt lat="42.498226" lon="1.567215">
        <ele>2058.000000</ele>
        <time>2020-08-22T11:02:11Z</time>
      </trkpt>
      <trkpt lat="42.498234" lon="1.567212">
        <ele>2058.000000</ele>
        <time>2020-08-22T11:02:11Z</time>
      </trkpt>
      <trkpt lat="42.498234" lon="1.567212">
        <ele>2058.000000</ele>
        <time>2020-08-22T11:02:11Z</time>
      </trkpt>
      <trkpt lat="42.498234" lon="1.567207">
        <ele>2058.000000</ele>
        <time>2020-08-22T11:02:19Z</time>
      </trkpt>
      <trkpt lat="42.498234" lon="1.567207">
        <ele>2058.000000</ele>
        <time>2020-08-22T11:02:19Z</time>
      </trkpt>
      <trkpt lat="42.498241" lon="1.567200">
        <ele>2058.000000</ele>
        <time>2020-08-22T11:02:19Z</time>
      </trkpt>
      <trkpt lat="42.498241" lon="1.567200">
        <ele>2058.000000</ele>
        <time>2020-08-22T11:02:19Z</time>
      </trkpt>
      <trkpt lat="42.498234" lon="1.567196">
        <ele>2058.000000</ele>
        <time>2020-08-22T11:02:19Z</time>
      </trkpt>
      <trkpt lat="42.498234" lon="1.567196">
        <ele>2059.000000</ele>
        <time>2020-08-22T11:02:19Z</time>
      </trkpt>
      <trkpt lat="42.498226" lon="1.567192">
        <ele>2059.000000</ele>
        <time>2020-08-22T11:02:19Z</time>
      </trkpt>
      <trkpt lat="42.498226" lon="1.567192">
        <ele>2059.000000</ele>
        <time>2020-08-22T11:02:19Z</time>
      </trkpt>
      <trkpt lat="42.498222" lon="1.567189">
        <ele>2059.000000</ele>
        <time>2020-08-22T11:02:26Z</time>
      </trkpt>
      <trkpt lat="42.498222" lon="1.567189">
        <ele>2059.000000</ele>
        <time>2020-08-22T11:02:26Z</time>
      </trkpt>
      <trkpt lat="42.498215" lon="1.567188">
        <ele>2059.000000</ele>
        <time>2020-08-22T11:02:26Z</time>
      </trkpt>
      <trkpt lat="42.498215" lon="1.567188">
        <ele>2059.000000</ele>
        <time>2020-08-22T11:02:26Z</time>
      </trkpt>
      <trkpt lat="42.498207" lon="1.567188">
        <ele>2059.000000</ele>
        <time>2020-08-22T11:02:26Z</time>
      </trkpt>
      <trkpt lat="42.498207" lon="1.567188">
        <ele>2059.000000</ele>
        <time>2020-08-22T11:02:26Z</time>
      </trkpt>
      <trkpt lat="42.498203" lon="1.567189">
        <ele>2059.000000</ele>
        <time>2020-08-22T11:02:26Z</time>
      </trkpt>
      <trkpt lat="42.498203" lon="1.567189">
        <ele>2059.000000</ele>
        <time>2020-08-22T11:02:26Z</time>
      </trkpt>
      <trkpt lat="42.498196" lon="1.567193">
        <ele>2059.000000</ele>
        <time>2020-08-22T11:02:26Z</time>
      </trkpt>
      <trkpt lat="42.498196" lon="1.567193">
        <ele>2059.000000</ele>
        <time>2020-08-22T11:02:26Z</time>
      </trkpt>
      <trkpt lat="42.498196" lon="1.567200">
        <ele>2059.000000</ele>
        <time>2020-08-22T11:02:26Z</time>
      </trkpt>
      <trkpt lat="42.498196" lon="1.567200">
        <ele>2059.000000</ele>
        <time>2020-08-22T11:02:26Z</time>
      </trkpt>
      <trkpt lat="42.498192" lon="1.567208">
        <ele>2059.000000</ele>
        <time>2020-08-22T11:02:26Z</time>
      </trkpt>
      <trkpt lat="42.498192" lon="1.567208">
        <ele>2059.000000</ele>
        <time>2020-08-22T11:02:26Z</time>
      </trkpt>
      <trkpt lat="42.498188" lon="1.567219">
        <ele>2059.000000</ele>
        <time>2020-08-22T11:02:33Z</time>
      </trkpt>
      <trkpt lat="42.498188" lon="1.567219">
        <ele>2059.000000</ele>
        <time>2020-08-22T11:02:33Z</time>
      </trkpt>
      <trkpt lat="42.498199" lon="1.567236">
        <ele>2059.000000</ele>
        <time>2020-08-22T11:02:33Z</time>
      </trkpt>
      <trkpt lat="42.498199" lon="1.567236">
        <ele>2059.000000</ele>
        <time>2020-08-22T11:02:33Z</time>
      </trkpt>
      <trkpt lat="42.498207" lon="1.567254">
        <ele>2059.000000</ele>
        <time>2020-08-22T11:02:33Z</time>
      </trkpt>
      <trkpt lat="42.498207" lon="1.567254">
        <ele>2059.000000</ele>
        <time>2020-08-22T11:02:33Z</time>
      </trkpt>
      <trkpt lat="42.498215" lon="1.567273">
        <ele>2059.000000</ele>
        <time>2020-08-22T11:02:33Z</time>
      </trkpt>
      <trkpt lat="42.498215" lon="1.567273">
        <ele>2059.000000</ele>
        <time>2020-08-22T11:02:33Z</time>
      </trkpt>
      <trkpt lat="42.498222" lon="1.567292">
        <ele>2059.000000</ele>
        <time>2020-08-22T11:02:40Z</time>
      </trkpt>
      <trkpt lat="42.498222" lon="1.567292">
        <ele>2059.000000</ele>
        <time>2020-08-22T11:02:40Z</time>
      </trkpt>
      <trkpt lat="42.498230" lon="1.567311">
        <ele>2059.000000</ele>
        <time>2020-08-22T11:02:40Z</time>
      </trkpt>
      <trkpt lat="42.498230" lon="1.567311">
        <ele>2059.000000</ele>
        <time>2020-08-22T11:02:40Z</time>
      </trkpt>
      <trkpt lat="42.498234" lon="1.567331">
        <ele>2059.000000</ele>
        <time>2020-08-22T11:02:40Z</time>
      </trkpt>
      <trkpt lat="42.498234" lon="1.567331">
        <ele>2059.000000</ele>
        <time>2020-08-22T11:02:40Z</time>
      </trkpt>
      <trkpt lat="42.498241" lon="1.567351">
        <ele>2059.000000</ele>
        <time>2020-08-22T11:02:40Z</time>
      </trkpt>
      <trkpt lat="42.498241" lon="1.567351">
        <ele>2059.000000</ele>
        <time>2020-08-22T11:02:40Z</time>
      </trkpt>
      <trkpt lat="42.498245" lon="1.567371">
        <ele>2059.000000</ele>
        <time>2020-08-22T11:02:40Z</time>
      </trkpt>
      <trkpt lat="42.498245" lon="1.567371">
        <ele>2059.000000</ele>
        <time>2020-08-22T11:02:40Z</time>
      </trkpt>
      <trkpt lat="42.498249" lon="1.567391">
        <ele>2059.000000</ele>
        <time>2020-08-22T11:02:40Z</time>
      </trkpt>
      <trkpt lat="42.498249" lon="1.567391">
        <ele>2063.000000</ele>
        <time>2020-08-22T11:02:40Z</time>
      </trkpt>
      <trkpt lat="42.498260" lon="1.567411">
        <ele>2063.000000</ele>
        <time>2020-08-22T11:02:40Z</time>
      </trkpt>
      <trkpt lat="42.498260" lon="1.567411">
        <ele>2063.000000</ele>
        <time>2020-08-22T11:02:40Z</time>
      </trkpt>
      <trkpt lat="42.498260" lon="1.567427">
        <ele>2063.000000</ele>
        <time>2020-08-22T11:02:40Z</time>
      </trkpt>
      <trkpt lat="42.498260" lon="1.567427">
        <ele>2063.000000</ele>
        <time>2020-08-22T11:02:40Z</time>
      </trkpt>
      <trkpt lat="42.498260" lon="1.567442">
        <ele>2064.000000</ele>
        <time>2020-08-22T11:02:40Z</time>
      </trkpt>
      <trkpt lat="42.498260" lon="1.567442">
        <ele>2065.000000</ele>
        <time>2020-08-22T11:02:40Z</time>
      </trkpt>
      <trkpt lat="42.498257" lon="1.567457">
        <ele>2065.000000</ele>
        <time>2020-08-22T11:02:40Z</time>
      </trkpt>
      <trkpt lat="42.498257" lon="1.567457">
        <ele>2065.000000</ele>
        <time>2020-08-22T11:02:40Z</time>
      </trkpt>
      <trkpt lat="42.498249" lon="1.567471">
        <ele>2065.000000</ele>
        <time>2020-08-22T11:02:40Z</time>
      </trkpt>
      <trkpt lat="42.498249" lon="1.567471">
        <ele>2065.000000</ele>
        <time>2020-08-22T11:02:40Z</time>
      </trkpt>
      <trkpt lat="42.498241" lon="1.567484">
        <ele>2065.000000</ele>
        <time>2020-08-22T11:02:40Z</time>
      </trkpt>
      <trkpt lat="42.498241" lon="1.567484">
        <ele>2065.000000</ele>
        <time>2020-08-22T11:02:40Z</time>
      </trkpt>
      <trkpt lat="42.498234" lon="1.567495">
        <ele>2065.000000</ele>
        <time>2020-08-22T11:02:48Z</time>
      </trkpt>
      <trkpt lat="42.498234" lon="1.567495">
        <ele>2065.000000</ele>
        <time>2020-08-22T11:02:48Z</time>
      </trkpt>
      <trkpt lat="42.498215" lon="1.567504">
        <ele>2065.000000</ele>
        <time>2020-08-22T11:02:48Z</time>
      </trkpt>
      <trkpt lat="42.498215" lon="1.567504">
        <ele>2065.000000</ele>
        <time>2020-08-22T11:02:48Z</time>
      </trkpt>
      <trkpt lat="42.498199" lon="1.567511">
        <ele>2065.000000</ele>
        <time>2020-08-22T11:02:48Z</time>
      </trkpt>
      <trkpt lat="42.498199" lon="1.567511">
        <ele>2065.000000</ele>
        <time>2020-08-22T11:02:48Z</time>
      </trkpt>
      <trkpt lat="42.498180" lon="1.567517">
        <ele>2065.000000</ele>
        <time>2020-08-22T11:02:55Z</time>
      </trkpt>
      <trkpt lat="42.498180" lon="1.567517">
        <ele>2065.000000</ele>
        <time>2020-08-22T11:02:55Z</time>
      </trkpt>
      <trkpt lat="42.498161" lon="1.567521">
        <ele>2065.000000</ele>
        <time>2020-08-22T11:02:55Z</time>
      </trkpt>
      <trkpt lat="42.498161" lon="1.567521">
        <ele>2065.000000</ele>
        <time>2020-08-22T11:02:55Z</time>
      </trkpt>
      <trkpt lat="42.498142" lon="1.567529">
        <ele>2065.000000</ele>
        <time>2020-08-22T11:02:55Z</time>
      </trkpt>
      <trkpt lat="42.498142" lon="1.567529">
        <ele>2065.000000</ele>
        <time>2020-08-22T11:02:55Z</time>
      </trkpt>
      <trkpt lat="42.498127" lon="1.567538">
        <ele>2065.000000</ele>
        <time>2020-08-22T11:02:55Z</time>
      </trkpt>
      <trkpt lat="42.498127" lon="1.567538">
        <ele>2065.000000</ele>
        <time>2020-08-22T11:02:55Z</time>
      </trkpt>
      <trkpt lat="42.498116" lon="1.567548">
        <ele>2065.000000</ele>
        <time>2020-08-22T11:03:02Z</time>
      </trkpt>
      <trkpt lat="42.498116" lon="1.567548">
        <ele>2065.000000</ele>
        <time>2020-08-22T11:03:02Z</time>
      </trkpt>
      <trkpt lat="42.498104" lon="1.567561">
        <ele>2065.000000</ele>
        <time>2020-08-22T11:03:02Z</time>
      </trkpt>
      <trkpt lat="42.498104" lon="1.567561">
        <ele>2065.000000</ele>
        <time>2020-08-22T11:03:02Z</time>
      </trkpt>
      <trkpt lat="42.498096" lon="1.567577">
        <ele>2065.000000</ele>
        <time>2020-08-22T11:03:02Z</time>
      </trkpt>
      <trkpt lat="42.498096" lon="1.567577">
        <ele>2065.000000</ele>
        <time>2020-08-22T11:03:02Z</time>
      </trkpt>
      <trkpt lat="42.498093" lon="1.567596">
        <ele>2065.000000</ele>
        <time>2020-08-22T11:03:02Z</time>
      </trkpt>
      <trkpt lat="42.498093" lon="1.567596">
        <ele>2065.000000</ele>
        <time>2020-08-22T11:03:02Z</time>
      </trkpt>
      <trkpt lat="42.498093" lon="1.567618">
        <ele>2065.000000</ele>
        <time>2020-08-22T11:03:02Z</time>
      </trkpt>
      <trkpt lat="42.498093" lon="1.567618">
        <ele>2065.000000</ele>
        <time>2020-08-22T11:03:02Z</time>
      </trkpt>
      <trkpt lat="42.498093" lon="1.567642">
        <ele>2065.000000</ele>
        <time>2020-08-22T11:03:02Z</time>
      </trkpt>
      <trkpt lat="42.498093" lon="1.567642">
        <ele>2065.000000</ele>
        <time>2020-08-22T11:03:02Z</time>
      </trkpt>
      <trkpt lat="42.498093" lon="1.567668">
        <ele>2065.000000</ele>
        <time>2020-08-22T11:03:09Z</time>
      </trkpt>
      <trkpt lat="42.498093" lon="1.567668">
        <ele>2065.000000</ele>
        <time>2020-08-22T11:03:09Z</time>
      </trkpt>
      <trkpt lat="42.498096" lon="1.567695">
        <ele>2065.000000</ele>
        <time>2020-08-22T11:03:09Z</time>
      </trkpt>
      <trkpt lat="42.498096" lon="1.567695">
        <ele>2065.000000</ele>
        <time>2020-08-22T11:03:09Z</time>
      </trkpt>
      <trkpt lat="42.498096" lon="1.567717">
        <ele>2065.000000</ele>
        <time>2020-08-22T11:03:09Z</time>
      </trkpt>
      <trkpt lat="42.498096" lon="1.567717">
        <ele>2065.000000</ele>
        <time>2020-08-22T11:03:09Z</time>
      </trkpt>
      <trkpt lat="42.498100" lon="1.567739">
        <ele>2065.000000</ele>
        <time>2020-08-22T11:03:09Z</time>
      </trkpt>
      <trkpt lat="42.498100" lon="1.567739">
        <ele>2065.000000</ele>
        <time>2020-08-22T11:03:09Z</time>
      </trkpt>
      <trkpt lat="42.498104" lon="1.567760">
        <ele>2065.000000</ele>
        <time>2020-08-22T11:03:09Z</time>
      </trkpt>
      <trkpt lat="42.498104" lon="1.567760">
        <ele>2065.000000</ele>
        <time>2020-08-22T11:03:09Z</time>
      </trkpt>
      <trkpt lat="42.498108" lon="1.567779">
        <ele>2065.000000</ele>
        <time>2020-08-22T11:03:09Z</time>
      </trkpt>
      <trkpt lat="42.498108" lon="1.567779">
        <ele>2065.000000</ele>
        <time>2020-08-22T11:03:09Z</time>
      </trkpt>
      <trkpt lat="42.498112" lon="1.567796">
        <ele>2065.000000</ele>
        <time>2020-08-22T11:03:16Z</time>
      </trkpt>
      <trkpt lat="42.498112" lon="1.567796">
        <ele>2065.000000</ele>
        <time>2020-08-22T11:03:16Z</time>
      </trkpt>
      <trkpt lat="42.498116" lon="1.567811">
        <ele>2065.000000</ele>
        <time>2020-08-22T11:03:16Z</time>
      </trkpt>
      <trkpt lat="42.498116" lon="1.567811">
        <ele>2065.000000</ele>
        <time>2020-08-22T11:03:16Z</time>
      </trkpt>
      <trkpt lat="42.498116" lon="1.567823">
        <ele>2065.000000</ele>
        <time>2020-08-22T11:03:16Z</time>
      </trkpt>
      <trkpt lat="42.498116" lon="1.567823">
        <ele>2065.000000</ele>
        <time>2020-08-22T11:03:16Z</time>
      </trkpt>
      <trkpt lat="42.498119" lon="1.567834">
        <ele>2065.000000</ele>
        <time>2020-08-22T11:03:16Z</time>
      </trkpt>
      <trkpt lat="42.498119" lon="1.567834">
        <ele>2066.000000</ele>
        <time>2020-08-22T11:03:16Z</time>
      </trkpt>
      <trkpt lat="42.498123" lon="1.567844">
        <ele>2066.000000</ele>
        <time>2020-08-22T11:03:16Z</time>
      </trkpt>
      <trkpt lat="42.498123" lon="1.567844">
        <ele>2066.000000</ele>
        <time>2020-08-22T11:03:16Z</time>
      </trkpt>
      <trkpt lat="42.498127" lon="1.567853">
        <ele>2066.000000</ele>
        <time>2020-08-22T11:03:16Z</time>
      </trkpt>
      <trkpt lat="42.498127" lon="1.567853">
        <ele>2066.000000</ele>
        <time>2020-08-22T11:03:16Z</time>
      </trkpt>
      <trkpt lat="42.498127" lon="1.567861">
        <ele>2066.000000</ele>
        <time>2020-08-22T11:03:16Z</time>
      </trkpt>
      <trkpt lat="42.498127" lon="1.567861">
        <ele>2066.000000</ele>
        <time>2020-08-22T11:03:16Z</time>
      </trkpt>
      <trkpt lat="42.498127" lon="1.567869">
        <ele>2066.000000</ele>
        <time>2020-08-22T11:03:16Z</time>
      </trkpt>
      <trkpt lat="42.498127" lon="1.567869">
        <ele>2066.000000</ele>
        <time>2020-08-22T11:03:16Z</time>
      </trkpt>
      <trkpt lat="42.498127" lon="1.567878">
        <ele>2066.000000</ele>
        <time>2020-08-22T11:03:16Z</time>
      </trkpt>
      <trkpt lat="42.498127" lon="1.567878">
        <ele>2066.000000</ele>
        <time>2020-08-22T11:03:16Z</time>
      </trkpt>
      <trkpt lat="42.498119" lon="1.567887">
        <ele>2066.000000</ele>
        <time>2020-08-22T11:03:16Z</time>
      </trkpt>
      <trkpt lat="42.498119" lon="1.567887">
        <ele>2067.000000</ele>
        <time>2020-08-22T11:03:16Z</time>
      </trkpt>
      <trkpt lat="42.498116" lon="1.567895">
        <ele>2067.000000</ele>
        <time>2020-08-22T11:03:16Z</time>
      </trkpt>
      <trkpt lat="42.498116" lon="1.567895">
        <ele>2067.000000</ele>
        <time>2020-08-22T11:03:16Z</time>
      </trkpt>
      <trkpt lat="42.498112" lon="1.567905">
        <ele>2067.000000</ele>
        <time>2020-08-22T11:03:16Z</time>
      </trkpt>
      <trkpt lat="42.498112" lon="1.567905">
        <ele>2067.000000</ele>
        <time>2020-08-22T11:03:16Z</time>
      </trkpt>
      <trkpt lat="42.498104" lon="1.567916">
        <ele>2069.000000</ele>
        <time>2020-08-22T11:03:24Z</time>
      </trkpt>
      <trkpt lat="42.498104" lon="1.567916">
        <ele>2069.000000</ele>
        <time>2020-08-22T11:03:24Z</time>
      </trkpt>
      <trkpt lat="42.498100" lon="1.567928">
        <ele>2069.000000</ele>
        <time>2020-08-22T11:03:24Z</time>
      </trkpt>
      <trkpt lat="42.498100" lon="1.567928">
        <ele>2069.000000</ele>
        <time>2020-08-22T11:03:24Z</time>
      </trkpt>
      <trkpt lat="42.498089" lon="1.567940">
        <ele>2069.000000</ele>
        <time>2020-08-22T11:03:24Z</time>
      </trkpt>
      <trkpt lat="42.498089" lon="1.567940">
        <ele>2069.000000</ele>
        <time>2020-08-22T11:03:24Z</time>
      </trkpt>
      <trkpt lat="42.498081" lon="1.567955">
        <ele>2069.000000</ele>
        <time>2020-08-22T11:03:24Z</time>
      </trkpt>
      <trkpt lat="42.498081" lon="1.567955">
        <ele>2069.000000</ele>
        <time>2020-08-22T11:03:24Z</time>
      </trkpt>
      <trkpt lat="42.498077" lon="1.567969">
        <ele>2069.000000</ele>
        <time>2020-08-22T11:03:24Z</time>
      </trkpt>
      <trkpt lat="42.498077" lon="1.567969">
        <ele>2069.000000</ele>
        <time>2020-08-22T11:03:24Z</time>
      </trkpt>
      <trkpt lat="42.498074" lon="1.567983">
        <ele>2069.000000</ele>
        <time>2020-08-22T11:03:24Z</time>
      </trkpt>
      <trkpt lat="42.498074" lon="1.567983">
        <ele>2069.000000</ele>
        <time>2020-08-22T11:03:24Z</time>
      </trkpt>
      <trkpt lat="42.498070" lon="1.567996">
        <ele>2069.000000</ele>
        <time>2020-08-22T11:03:24Z</time>
      </trkpt>
      <trkpt lat="42.498070" lon="1.567996">
        <ele>2069.000000</ele>
        <time>2020-08-22T11:03:24Z</time>
      </trkpt>
      <trkpt lat="42.498066" lon="1.568009">
        <ele>2069.000000</ele>
        <time>2020-08-22T11:03:31Z</time>
      </trkpt>
      <trkpt lat="42.498066" lon="1.568009">
        <ele>2069.000000</ele>
        <time>2020-08-22T11:03:31Z</time>
      </trkpt>
      <trkpt lat="42.498066" lon="1.568023">
        <ele>2069.000000</ele>
        <time>2020-08-22T11:03:31Z</time>
      </trkpt>
      <trkpt lat="42.498066" lon="1.568023">
        <ele>2069.000000</ele>
        <time>2020-08-22T11:03:31Z</time>
      </trkpt>
      <trkpt lat="42.498062" lon="1.568035">
        <ele>2069.000000</ele>
        <time>2020-08-22T11:03:31Z</time>
      </trkpt>
      <trkpt lat="42.498062" lon="1.568035">
        <ele>2069.000000</ele>
        <time>2020-08-22T11:03:31Z</time>
      </trkpt>
      <trkpt lat="42.498062" lon="1.568047">
        <ele>2069.000000</ele>
        <time>2020-08-22T11:03:31Z</time>
      </trkpt>
      <trkpt lat="42.498062" lon="1.568047">
        <ele>2069.000000</ele>
        <time>2020-08-22T11:03:31Z</time>
      </trkpt>
      <trkpt lat="42.498062" lon="1.568058">
        <ele>2069.000000</ele>
        <time>2020-08-22T11:03:31Z</time>
      </trkpt>
      <trkpt lat="42.498062" lon="1.568058">
        <ele>2069.000000</ele>
        <time>2020-08-22T11:03:31Z</time>
      </trkpt>
      <trkpt lat="42.498058" lon="1.568069">
        <ele>2069.000000</ele>
        <time>2020-08-22T11:03:31Z</time>
      </trkpt>
      <trkpt lat="42.498058" lon="1.568069">
        <ele>2069.000000</ele>
        <time>2020-08-22T11:03:31Z</time>
      </trkpt>
      <trkpt lat="42.498054" lon="1.568080">
        <ele>2071.000000</ele>
        <time>2020-08-22T11:03:39Z</time>
      </trkpt>
      <trkpt lat="42.498054" lon="1.568080">
        <ele>2071.000000</ele>
        <time>2020-08-22T11:03:39Z</time>
      </trkpt>
      <trkpt lat="42.498051" lon="1.568090">
        <ele>2071.000000</ele>
        <time>2020-08-22T11:03:46Z</time>
      </trkpt>
      <trkpt lat="42.498051" lon="1.568090">
        <ele>2071.000000</ele>
        <time>2020-08-22T11:03:46Z</time>
      </trkpt>
      <trkpt lat="42.498043" lon="1.568100">
        <ele>2071.000000</ele>
        <time>2020-08-22T11:03:46Z</time>
      </trkpt>
      <trkpt lat="42.498043" lon="1.568100">
        <ele>2071.000000</ele>
        <time>2020-08-22T11:03:46Z</time>
      </trkpt>
      <trkpt lat="42.498035" lon="1.568110">
        <ele>2071.000000</ele>
        <time>2020-08-22T11:03:46Z</time>
      </trkpt>
      <trkpt lat="42.498035" lon="1.568110">
        <ele>2071.000000</ele>
        <time>2020-08-22T11:03:46Z</time>
      </trkpt>
      <trkpt lat="42.498032" lon="1.568119">
        <ele>2071.000000</ele>
        <time>2020-08-22T11:03:46Z</time>
      </trkpt>
      <trkpt lat="42.498032" lon="1.568119">
        <ele>2072.000000</ele>
        <time>2020-08-22T11:03:46Z</time>
      </trkpt>
      <trkpt lat="42.498028" lon="1.568127">
        <ele>2072.000000</ele>
        <time>2020-08-22T11:03:46Z</time>
      </trkpt>
      <trkpt lat="42.498028" lon="1.568127">
        <ele>2072.000000</ele>
        <time>2020-08-22T11:03:46Z</time>
      </trkpt>
      <trkpt lat="42.498028" lon="1.568134">
        <ele>2072.000000</ele>
        <time>2020-08-22T11:03:46Z</time>
      </trkpt>
      <trkpt lat="42.498028" lon="1.568134">
        <ele>2072.000000</ele>
        <time>2020-08-22T11:03:46Z</time>
      </trkpt>
      <trkpt lat="42.498028" lon="1.568140">
        <ele>2072.000000</ele>
        <time>2020-08-22T11:03:46Z</time>
      </trkpt>
      <trkpt lat="42.498028" lon="1.568140">
        <ele>2073.000000</ele>
        <time>2020-08-22T11:03:46Z</time>
      </trkpt>
      <trkpt lat="42.498028" lon="1.568145">
        <ele>2073.000000</ele>
        <time>2020-08-22T11:03:54Z</time>
      </trkpt>
      <trkpt lat="42.498028" lon="1.568145">
        <ele>2073.000000</ele>
        <time>2020-08-22T11:03:54Z</time>
      </trkpt>
      <trkpt lat="42.498028" lon="1.568149">
        <ele>2073.000000</ele>
        <time>2020-08-22T11:03:54Z</time>
      </trkpt>
      <trkpt lat="42.498028" lon="1.568149">
        <ele>2073.000000</ele>
        <time>2020-08-22T11:03:54Z</time>
      </trkpt>
      <trkpt lat="42.498032" lon="1.568150">
        <ele>2073.000000</ele>
        <time>2020-08-22T11:03:54Z</time>
      </trkpt>
      <trkpt lat="42.498032" lon="1.568150">
        <ele>2073.000000</ele>
        <time>2020-08-22T11:03:54Z</time>
      </trkpt>
      <trkpt lat="42.498043" lon="1.568147">
        <ele>2073.000000</ele>
        <time>2020-08-22T11:03:54Z</time>
      </trkpt>
      <trkpt lat="42.498043" lon="1.568147">
        <ele>2073.000000</ele>
        <time>2020-08-22T11:03:54Z</time>
      </trkpt>
      <trkpt lat="42.498054" lon="1.568144">
        <ele>2073.000000</ele>
        <time>2020-08-22T11:03:54Z</time>
      </trkpt>
      <trkpt lat="42.498054" lon="1.568144">
        <ele>2073.000000</ele>
        <time>2020-08-22T11:03:54Z</time>
      </trkpt>
      <trkpt lat="42.498058" lon="1.568142">
        <ele>2073.000000</ele>
        <time>2020-08-22T11:03:54Z</time>
      </trkpt>
      <trkpt lat="42.498058" lon="1.568142">
        <ele>2074.000000</ele>
        <time>2020-08-22T11:03:54Z</time>
      </trkpt>
      <trkpt lat="42.498062" lon="1.568140">
        <ele>2074.000000</ele>
        <time>2020-08-22T11:04:01Z</time>
      </trkpt>
      <trkpt lat="42.498062" lon="1.568140">
        <ele>2074.000000</ele>
        <time>2020-08-22T11:04:01Z</time>
      </trkpt>
      <trkpt lat="42.498070" lon="1.568139">
        <ele>2074.000000</ele>
        <time>2020-08-22T11:04:01Z</time>
      </trkpt>
      <trkpt lat="42.498070" lon="1.568139">
        <ele>2074.000000</ele>
        <time>2020-08-22T11:04:01Z</time>
      </trkpt>
      <trkpt lat="42.498070" lon="1.568140">
        <ele>2074.000000</ele>
        <time>2020-08-22T11:04:01Z</time>
      </trkpt>
      <trkpt lat="42.498070" lon="1.568140">
        <ele>2074.000000</ele>
        <time>2020-08-22T11:04:01Z</time>
      </trkpt>
      <trkpt lat="42.498070" lon="1.568143">
        <ele>2075.000000</ele>
        <time>2020-08-22T11:04:01Z</time>
      </trkpt>
      <trkpt lat="42.498070" lon="1.568143">
        <ele>2075.000000</ele>
        <time>2020-08-22T11:04:01Z</time>
      </trkpt>
      <trkpt lat="42.498070" lon="1.568147">
        <ele>2075.000000</ele>
        <time>2020-08-22T11:04:01Z</time>
      </trkpt>
      <trkpt lat="42.498070" lon="1.568147">
        <ele>2075.000000</ele>
        <time>2020-08-22T11:04:01Z</time>
      </trkpt>
      <trkpt lat="42.498066" lon="1.568154">
        <ele>2075.000000</ele>
        <time>2020-08-22T11:04:01Z</time>
      </trkpt>
      <trkpt lat="42.498066" lon="1.568154">
        <ele>2075.000000</ele>
        <time>2020-08-22T11:04:01Z</time>
      </trkpt>
      <trkpt lat="42.498062" lon="1.568161">
        <ele>2075.000000</ele>
        <time>2020-08-22T11:04:01Z</time>
      </trkpt>
      <trkpt lat="42.498062" lon="1.568161">
        <ele>2075.000000</ele>
        <time>2020-08-22T11:04:01Z</time>
      </trkpt>
      <trkpt lat="42.498047" lon="1.568180">
        <ele>2076.000000</ele>
        <time>2020-08-22T11:04:08Z</time>
      </trkpt>
      <trkpt lat="42.498047" lon="1.568180">
        <ele>2076.000000</ele>
        <time>2020-08-22T11:04:08Z</time>
      </trkpt>
      <trkpt lat="42.498035" lon="1.568200">
        <ele>2076.000000</ele>
        <time>2020-08-22T11:04:08Z</time>
      </trkpt>
      <trkpt lat="42.498035" lon="1.568200">
        <ele>2076.000000</ele>
        <time>2020-08-22T11:04:08Z</time>
      </trkpt>
      <trkpt lat="42.498024" lon="1.568221">
        <ele>2076.000000</ele>
        <time>2020-08-22T11:04:08Z</time>
      </trkpt>
      <trkpt lat="42.498024" lon="1.568221">
        <ele>2076.000000</ele>
        <time>2020-08-22T11:04:08Z</time>
      </trkpt>
      <trkpt lat="42.498013" lon="1.568242">
        <ele>2076.000000</ele>
        <time>2020-08-22T11:04:08Z</time>
      </trkpt>
      <trkpt lat="42.498013" lon="1.568242">
        <ele>2076.000000</ele>
        <time>2020-08-22T11:04:08Z</time>
      </trkpt>
      <trkpt lat="42.498001" lon="1.568262">
        <ele>2076.000000</ele>
        <time>2020-08-22T11:04:08Z</time>
      </trkpt>
      <trkpt lat="42.498001" lon="1.568262">
        <ele>2076.000000</ele>
        <time>2020-08-22T11:04:08Z</time>
      </trkpt>
      <trkpt lat="42.497986" lon="1.568282">
        <ele>2076.000000</ele>
        <time>2020-08-22T11:04:08Z</time>
      </trkpt>
      <trkpt lat="42.497986" lon="1.568282">
        <ele>2076.000000</ele>
        <time>2020-08-22T11:04:08Z</time>
      </trkpt>
      <trkpt lat="42.497974" lon="1.568300">
        <ele>2078.000000</ele>
        <time>2020-08-22T11:04:08Z</time>
      </trkpt>
      <trkpt lat="42.497974" lon="1.568300">
        <ele>2078.000000</ele>
        <time>2020-08-22T11:04:08Z</time>
      </trkpt>
      <trkpt lat="42.497959" lon="1.568318">
        <ele>2078.000000</ele>
        <time>2020-08-22T11:04:15Z</time>
      </trkpt>
      <trkpt lat="42.497959" lon="1.568318">
        <ele>2078.000000</ele>
        <time>2020-08-22T11:04:15Z</time>
      </trkpt>
      <trkpt lat="42.497944" lon="1.568335">
        <ele>2078.000000</ele>
        <time>2020-08-22T11:04:15Z</time>
      </trkpt>
      <trkpt lat="42.497944" lon="1.568335">
        <ele>2078.000000</ele>
        <time>2020-08-22T11:04:15Z</time>
      </trkpt>
      <trkpt lat="42.497932" lon="1.568352">
        <ele>2078.000000</ele>
        <time>2020-08-22T11:04:15Z</time>
      </trkpt>
      <trkpt lat="42.497932" lon="1.568352">
        <ele>2078.000000</ele>
        <time>2020-08-22T11:04:15Z</time>
      </trkpt>
      <trkpt lat="42.497921" lon="1.568361">
        <ele>2078.000000</ele>
        <time>2020-08-22T11:04:15Z</time>
      </trkpt>
      <trkpt lat="42.497921" lon="1.568361">
        <ele>2078.000000</ele>
        <time>2020-08-22T11:04:15Z</time>
      </trkpt>
      <trkpt lat="42.497910" lon="1.568368">
        <ele>2078.000000</ele>
        <time>2020-08-22T11:04:15Z</time>
      </trkpt>
      <trkpt lat="42.497910" lon="1.568368">
        <ele>2078.000000</ele>
        <time>2020-08-22T11:04:15Z</time>
      </trkpt>
      <trkpt lat="42.497898" lon="1.568376">
        <ele>2078.000000</ele>
        <time>2020-08-22T11:04:15Z</time>
      </trkpt>
      <trkpt lat="42.497898" lon="1.568376">
        <ele>2078.000000</ele>
        <time>2020-08-22T11:04:15Z</time>
      </trkpt>
      <trkpt lat="42.497887" lon="1.568383">
        <ele>2078.000000</ele>
        <time>2020-08-22T11:04:15Z</time>
      </trkpt>
      <trkpt lat="42.497887" lon="1.568383">
        <ele>2078.000000</ele>
        <time>2020-08-22T11:04:15Z</time>
      </trkpt>
      <trkpt lat="42.497879" lon="1.568392">
        <ele>2078.000000</ele>
        <time>2020-08-22T11:04:22Z</time>
      </trkpt>
      <trkpt lat="42.497879" lon="1.568392">
        <ele>2078.000000</ele>
        <time>2020-08-22T11:04:22Z</time>
      </trkpt>
      <trkpt lat="42.497868" lon="1.568401">
        <ele>2078.000000</ele>
        <time>2020-08-22T11:04:22Z</time>
      </trkpt>
      <trkpt lat="42.497868" lon="1.568401">
        <ele>2078.000000</ele>
        <time>2020-08-22T11:04:22Z</time>
      </trkpt>
      <trkpt lat="42.497860" lon="1.568409">
        <ele>2078.000000</ele>
        <time>2020-08-22T11:04:22Z</time>
      </trkpt>
      <trkpt lat="42.497860" lon="1.568409">
        <ele>2078.000000</ele>
        <time>2020-08-22T11:04:22Z</time>
      </trkpt>
      <trkpt lat="42.497849" lon="1.568417">
        <ele>2078.000000</ele>
        <time>2020-08-22T11:04:22Z</time>
      </trkpt>
      <trkpt lat="42.497849" lon="1.568417">
        <ele>2078.000000</ele>
        <time>2020-08-22T11:04:22Z</time>
      </trkpt>
      <trkpt lat="42.497837" lon="1.568424">
        <ele>2078.000000</ele>
        <time>2020-08-22T11:04:22Z</time>
      </trkpt>
      <trkpt lat="42.497837" lon="1.568424">
        <ele>2078.000000</ele>
        <time>2020-08-22T11:04:22Z</time>
      </trkpt>
      <trkpt lat="42.497826" lon="1.568429">
        <ele>2078.000000</ele>
        <time>2020-08-22T11:04:22Z</time>
      </trkpt>
      <trkpt lat="42.497826" lon="1.568429">
        <ele>2078.000000</ele>
        <time>2020-08-22T11:04:22Z</time>
      </trkpt>
      <trkpt lat="42.497814" lon="1.568434">
        <ele>2078.000000</ele>
        <time>2020-08-22T11:04:22Z</time>
      </trkpt>
      <trkpt lat="42.497814" lon="1.568434">
        <ele>2078.000000</ele>
        <time>2020-08-22T11:04:22Z</time>
      </trkpt>
      <trkpt lat="42.497803" lon="1.568437">
        <ele>2078.000000</ele>
        <time>2020-08-22T11:04:29Z</time>
      </trkpt>
      <trkpt lat="42.497803" lon="1.568437">
        <ele>2078.000000</ele>
        <time>2020-08-22T11:04:29Z</time>
      </trkpt>
      <trkpt lat="42.497791" lon="1.568439">
        <ele>2078.000000</ele>
        <time>2020-08-22T11:04:29Z</time>
      </trkpt>
      <trkpt lat="42.497791" lon="1.568439">
        <ele>2078.000000</ele>
        <time>2020-08-22T11:04:29Z</time>
      </trkpt>
      <trkpt lat="42.497780" lon="1.568441">
        <ele>2078.000000</ele>
        <time>2020-08-22T11:04:29Z</time>
      </trkpt>
      <trkpt lat="42.497780" lon="1.568441">
        <ele>2078.000000</ele>
        <time>2020-08-22T11:04:29Z</time>
      </trkpt>
      <trkpt lat="42.497772" lon="1.568446">
        <ele>2078.000000</ele>
        <time>2020-08-22T11:04:29Z</time>
      </trkpt>
      <trkpt lat="42.497772" lon="1.568446">
        <ele>2078.000000</ele>
        <time>2020-08-22T11:04:29Z</time>
      </trkpt>
      <trkpt lat="42.497765" lon="1.568451">
        <ele>2078.000000</ele>
        <time>2020-08-22T11:04:29Z</time>
      </trkpt>
      <trkpt lat="42.497765" lon="1.568451">
        <ele>2078.000000</ele>
        <time>2020-08-22T11:04:29Z</time>
      </trkpt>
      <trkpt lat="42.497753" lon="1.568457">
        <ele>2077.000000</ele>
        <time>2020-08-22T11:04:29Z</time>
      </trkpt>
      <trkpt lat="42.497753" lon="1.568457">
        <ele>2077.000000</ele>
        <time>2020-08-22T11:04:29Z</time>
      </trkpt>
      <trkpt lat="42.497746" lon="1.568463">
        <ele>2077.000000</ele>
        <time>2020-08-22T11:04:29Z</time>
      </trkpt>
      <trkpt lat="42.497746" lon="1.568463">
        <ele>2077.000000</ele>
        <time>2020-08-22T11:04:29Z</time>
      </trkpt>
      <trkpt lat="42.497738" lon="1.568472">
        <ele>2077.000000</ele>
        <time>2020-08-22T11:04:29Z</time>
      </trkpt>
      <trkpt lat="42.497738" lon="1.568472">
        <ele>2077.000000</ele>
        <time>2020-08-22T11:04:29Z</time>
      </trkpt>
      <trkpt lat="42.497734" lon="1.568482">
        <ele>2077.000000</ele>
        <time>2020-08-22T11:04:29Z</time>
      </trkpt>
      <trkpt lat="42.497734" lon="1.568482">
        <ele>2077.000000</ele>
        <time>2020-08-22T11:04:29Z</time>
      </trkpt>
      <trkpt lat="42.497723" lon="1.568499">
        <ele>2077.000000</ele>
        <time>2020-08-22T11:04:29Z</time>
      </trkpt>
      <trkpt lat="42.497723" lon="1.568499">
        <ele>2077.000000</ele>
        <time>2020-08-22T11:04:29Z</time>
      </trkpt>
      <trkpt lat="42.497711" lon="1.568518">
        <ele>2077.000000</ele>
        <time>2020-08-22T11:04:29Z</time>
      </trkpt>
      <trkpt lat="42.497711" lon="1.568518">
        <ele>2077.000000</ele>
        <time>2020-08-22T11:04:29Z</time>
      </trkpt>
      <trkpt lat="42.497700" lon="1.568538">
        <ele>2077.000000</ele>
        <time>2020-08-22T11:04:29Z</time>
      </trkpt>
      <trkpt lat="42.497700" lon="1.568538">
        <ele>2077.000000</ele>
        <time>2020-08-22T11:04:29Z</time>
      </trkpt>
      <trkpt lat="42.497692" lon="1.568558">
        <ele>2077.000000</ele>
        <time>2020-08-22T11:04:29Z</time>
      </trkpt>
      <trkpt lat="42.497692" lon="1.568558">
        <ele>2077.000000</ele>
        <time>2020-08-22T11:04:29Z</time>
      </trkpt>
      <trkpt lat="42.497684" lon="1.568575">
        <ele>2077.000000</ele>
        <time>2020-08-22T11:04:36Z</time>
      </trkpt>
      <trkpt lat="42.497684" lon="1.568575">
        <ele>2077.000000</ele>
        <time>2020-08-22T11:04:36Z</time>
      </trkpt>
      <trkpt lat="42.497673" lon="1.568592">
        <ele>2077.000000</ele>
        <time>2020-08-22T11:04:36Z</time>
      </trkpt>
      <trkpt lat="42.497673" lon="1.568592">
        <ele>2077.000000</ele>
        <time>2020-08-22T11:04:36Z</time>
      </trkpt>
      <trkpt lat="42.497665" lon="1.568608">
        <ele>2077.000000</ele>
        <time>2020-08-22T11:04:36Z</time>
      </trkpt>
      <trkpt lat="42.497665" lon="1.568608">
        <ele>2077.000000</ele>
        <time>2020-08-22T11:04:36Z</time>
      </trkpt>
      <trkpt lat="42.497654" lon="1.568624">
        <ele>2077.000000</ele>
        <time>2020-08-22T11:04:36Z</time>
      </trkpt>
      <trkpt lat="42.497654" lon="1.568624">
        <ele>2077.000000</ele>
        <time>2020-08-22T11:04:36Z</time>
      </trkpt>
      <trkpt lat="42.497646" lon="1.568640">
        <ele>2077.000000</ele>
        <time>2020-08-22T11:04:36Z</time>
      </trkpt>
      <trkpt lat="42.497646" lon="1.568640">
        <ele>2077.000000</ele>
        <time>2020-08-22T11:04:36Z</time>
      </trkpt>
      <trkpt lat="42.497635" lon="1.568655">
        <ele>2077.000000</ele>
        <time>2020-08-22T11:04:36Z</time>
      </trkpt>
      <trkpt lat="42.497635" lon="1.568655">
        <ele>2077.000000</ele>
        <time>2020-08-22T11:04:36Z</time>
      </trkpt>
      <trkpt lat="42.497631" lon="1.568664">
        <ele>2077.000000</ele>
        <time>2020-08-22T11:04:36Z</time>
      </trkpt>
      <trkpt lat="42.497631" lon="1.568664">
        <ele>2077.000000</ele>
        <time>2020-08-22T11:04:36Z</time>
      </trkpt>
      <trkpt lat="42.497627" lon="1.568671">
        <ele>2077.000000</ele>
        <time>2020-08-22T11:04:43Z</time>
      </trkpt>
      <trkpt lat="42.497627" lon="1.568671">
        <ele>2077.000000</ele>
        <time>2020-08-22T11:04:43Z</time>
      </trkpt>
      <trkpt lat="42.497620" lon="1.568677">
        <ele>2077.000000</ele>
        <time>2020-08-22T11:04:43Z</time>
      </trkpt>
      <trkpt lat="42.497620" lon="1.568677">
        <ele>2077.000000</ele>
        <time>2020-08-22T11:04:43Z</time>
      </trkpt>
      <trkpt lat="42.497612" lon="1.568681">
        <ele>2077.000000</ele>
        <time>2020-08-22T11:04:43Z</time>
      </trkpt>
      <trkpt lat="42.497612" lon="1.568681">
        <ele>2077.000000</ele>
        <time>2020-08-22T11:04:43Z</time>
      </trkpt>
      <trkpt lat="42.497604" lon="1.568685">
        <ele>2077.000000</ele>
        <time>2020-08-22T11:04:43Z</time>
      </trkpt>
      <trkpt lat="42.497604" lon="1.568685">
        <ele>2077.000000</ele>
        <time>2020-08-22T11:04:43Z</time>
      </trkpt>
      <trkpt lat="42.497601" lon="1.568688">
        <ele>2077.000000</ele>
        <time>2020-08-22T11:04:43Z</time>
      </trkpt>
      <trkpt lat="42.497601" lon="1.568688">
        <ele>2077.000000</ele>
        <time>2020-08-22T11:04:43Z</time>
      </trkpt>
      <trkpt lat="42.497593" lon="1.568690">
        <ele>2077.000000</ele>
        <time>2020-08-22T11:04:43Z</time>
      </trkpt>
      <trkpt lat="42.497593" lon="1.568690">
        <ele>2077.000000</ele>
        <time>2020-08-22T11:04:43Z</time>
      </trkpt>
      <trkpt lat="42.497581" lon="1.568692">
        <ele>2077.000000</ele>
        <time>2020-08-22T11:04:43Z</time>
      </trkpt>
      <trkpt lat="42.497581" lon="1.568692">
        <ele>2076.000000</ele>
        <time>2020-08-22T11:04:43Z</time>
      </trkpt>
      <trkpt lat="42.497574" lon="1.568694">
        <ele>2076.000000</ele>
        <time>2020-08-22T11:04:50Z</time>
      </trkpt>
      <trkpt lat="42.497574" lon="1.568694">
        <ele>2076.000000</ele>
        <time>2020-08-22T11:04:50Z</time>
      </trkpt>
      <trkpt lat="42.497562" lon="1.568696">
        <ele>2076.000000</ele>
        <time>2020-08-22T11:04:50Z</time>
      </trkpt>
      <trkpt lat="42.497562" lon="1.568696">
        <ele>2076.000000</ele>
        <time>2020-08-22T11:04:50Z</time>
      </trkpt>
      <trkpt lat="42.497547" lon="1.568705">
        <ele>2076.000000</ele>
        <time>2020-08-22T11:04:50Z</time>
      </trkpt>
      <trkpt lat="42.497547" lon="1.568705">
        <ele>2076.000000</ele>
        <time>2020-08-22T11:04:50Z</time>
      </trkpt>
      <trkpt lat="42.497532" lon="1.568713">
        <ele>2076.000000</ele>
        <time>2020-08-22T11:04:50Z</time>
      </trkpt>
      <trkpt lat="42.497532" lon="1.568713">
        <ele>2076.000000</ele>
        <time>2020-08-22T11:04:50Z</time>
      </trkpt>
      <trkpt lat="42.497513" lon="1.568721">
        <ele>2076.000000</ele>
        <time>2020-08-22T11:04:50Z</time>
      </trkpt>
      <trkpt lat="42.497513" lon="1.568721">
        <ele>2076.000000</ele>
        <time>2020-08-22T11:04:50Z</time>
      </trkpt>
      <trkpt lat="42.497498" lon="1.568730">
        <ele>2076.000000</ele>
        <time>2020-08-22T11:04:50Z</time>
      </trkpt>
      <trkpt lat="42.497498" lon="1.568730">
        <ele>2076.000000</ele>
        <time>2020-08-22T11:04:50Z</time>
      </trkpt>
      <trkpt lat="42.497482" lon="1.568738">
        <ele>2076.000000</ele>
        <time>2020-08-22T11:04:58Z</time>
      </trkpt>
      <trkpt lat="42.497482" lon="1.568738">
        <ele>2076.000000</ele>
        <time>2020-08-22T11:04:58Z</time>
      </trkpt>
      <trkpt lat="42.497467" lon="1.568746">
        <ele>2076.000000</ele>
        <time>2020-08-22T11:04:58Z</time>
      </trkpt>
      <trkpt lat="42.497467" lon="1.568746">
        <ele>2076.000000</ele>
        <time>2020-08-22T11:04:58Z</time>
      </trkpt>
      <trkpt lat="42.497452" lon="1.568753">
        <ele>2076.000000</ele>
        <time>2020-08-22T11:04:58Z</time>
      </trkpt>
      <trkpt lat="42.497452" lon="1.568753">
        <ele>2076.000000</ele>
        <time>2020-08-22T11:04:58Z</time>
      </trkpt>
      <trkpt lat="42.497437" lon="1.568759">
        <ele>2076.000000</ele>
        <time>2020-08-22T11:04:58Z</time>
      </trkpt>
      <trkpt lat="42.497437" lon="1.568759">
        <ele>2076.000000</ele>
        <time>2020-08-22T11:04:58Z</time>
      </trkpt>
      <trkpt lat="42.497425" lon="1.568765">
        <ele>2076.000000</ele>
        <time>2020-08-22T11:04:58Z</time>
      </trkpt>
      <trkpt lat="42.497425" lon="1.568765">
        <ele>2076.000000</ele>
        <time>2020-08-22T11:04:58Z</time>
      </trkpt>
      <trkpt lat="42.497410" lon="1.568769">
        <ele>2076.000000</ele>
        <time>2020-08-22T11:04:58Z</time>
      </trkpt>
      <trkpt lat="42.497410" lon="1.568769">
        <ele>2076.000000</ele>
        <time>2020-08-22T11:04:58Z</time>
      </trkpt>
      <trkpt lat="42.497406" lon="1.568763">
        <ele>2076.000000</ele>
        <time>2020-08-22T11:04:58Z</time>
      </trkpt>
      <trkpt lat="42.497406" lon="1.568763">
        <ele>2076.000000</ele>
        <time>2020-08-22T11:04:58Z</time>
      </trkpt>
      <trkpt lat="42.497402" lon="1.568757">
        <ele>2076.000000</ele>
        <time>2020-08-22T11:04:58Z</time>
      </trkpt>
      <trkpt lat="42.497402" lon="1.568757">
        <ele>2076.000000</ele>
        <time>2020-08-22T11:04:58Z</time>
      </trkpt>
      <trkpt lat="42.497398" lon="1.568751">
        <ele>2076.000000</ele>
        <time>2020-08-22T11:04:58Z</time>
      </trkpt>
      <trkpt lat="42.497398" lon="1.568751">
        <ele>2076.000000</ele>
        <time>2020-08-22T11:04:58Z</time>
      </trkpt>
      <trkpt lat="42.497398" lon="1.568747">
        <ele>2076.000000</ele>
        <time>2020-08-22T11:04:58Z</time>
      </trkpt>
      <trkpt lat="42.497398" lon="1.568747">
        <ele>2076.000000</ele>
        <time>2020-08-22T11:04:58Z</time>
      </trkpt>
      <trkpt lat="42.497395" lon="1.568744">
        <ele>2076.000000</ele>
        <time>2020-08-22T11:04:58Z</time>
      </trkpt>
      <trkpt lat="42.497395" lon="1.568744">
        <ele>2076.000000</ele>
        <time>2020-08-22T11:04:58Z</time>
      </trkpt>
      <trkpt lat="42.497391" lon="1.568741">
        <ele>2076.000000</ele>
        <time>2020-08-22T11:04:58Z</time>
      </trkpt>
      <trkpt lat="42.497391" lon="1.568741">
        <ele>2076.000000</ele>
        <time>2020-08-22T11:04:58Z</time>
      </trkpt>
      <trkpt lat="42.497387" lon="1.568738">
        <ele>2076.000000</ele>
        <time>2020-08-22T11:04:58Z</time>
      </trkpt>
      <trkpt lat="42.497387" lon="1.568738">
        <ele>2076.000000</ele>
        <time>2020-08-22T11:04:58Z</time>
      </trkpt>
      <trkpt lat="42.497383" lon="1.568736">
        <ele>2076.000000</ele>
        <time>2020-08-22T11:04:58Z</time>
      </trkpt>
      <trkpt lat="42.497383" lon="1.568736">
        <ele>2076.000000</ele>
        <time>2020-08-22T11:04:58Z</time>
      </trkpt>
      <trkpt lat="42.497379" lon="1.568735">
        <ele>2076.000000</ele>
        <time>2020-08-22T11:04:58Z</time>
      </trkpt>
      <trkpt lat="42.497379" lon="1.568735">
        <ele>2076.000000</ele>
        <time>2020-08-22T11:04:58Z</time>
      </trkpt>
      <trkpt lat="42.497372" lon="1.568734">
        <ele>2076.000000</ele>
        <time>2020-08-22T11:04:58Z</time>
      </trkpt>
      <trkpt lat="42.497372" lon="1.568734">
        <ele>2076.000000</ele>
        <time>2020-08-22T11:04:58Z</time>
      </trkpt>
      <trkpt lat="42.497360" lon="1.568722">
        <ele>2076.000000</ele>
        <time>2020-08-22T11:04:58Z</time>
      </trkpt>
      <trkpt lat="42.497360" lon="1.568722">
        <ele>2076.000000</ele>
        <time>2020-08-22T11:04:58Z</time>
      </trkpt>
      <trkpt lat="42.497345" lon="1.568710">
        <ele>2076.000000</ele>
        <time>2020-08-22T11:05:06Z</time>
      </trkpt>
      <trkpt lat="42.497345" lon="1.568710">
        <ele>2076.000000</ele>
        <time>2020-08-22T11:05:06Z</time>
      </trkpt>
      <trkpt lat="42.497334" lon="1.568700">
        <ele>2076.000000</ele>
        <time>2020-08-22T11:05:06Z</time>
      </trkpt>
      <trkpt lat="42.497334" lon="1.568700">
        <ele>2076.000000</ele>
        <time>2020-08-22T11:05:06Z</time>
      </trkpt>
      <trkpt lat="42.497318" lon="1.568688">
        <ele>2076.000000</ele>
        <time>2020-08-22T11:05:06Z</time>
      </trkpt>
      <trkpt lat="42.497318" lon="1.568688">
        <ele>2076.000000</ele>
        <time>2020-08-22T11:05:06Z</time>
      </trkpt>
      <trkpt lat="42.497311" lon="1.568674">
        <ele>2076.000000</ele>
        <time>2020-08-22T11:05:06Z</time>
      </trkpt>
      <trkpt lat="42.497311" lon="1.568674">
        <ele>2076.000000</ele>
        <time>2020-08-22T11:05:06Z</time>
      </trkpt>
      <trkpt lat="42.497299" lon="1.568659">
        <ele>2076.000000</ele>
        <time>2020-08-22T11:05:06Z</time>
      </trkpt>
      <trkpt lat="42.497299" lon="1.568659">
        <ele>2076.000000</ele>
        <time>2020-08-22T11:05:06Z</time>
      </trkpt>
      <trkpt lat="42.497292" lon="1.568644">
        <ele>2076.000000</ele>
        <time>2020-08-22T11:05:06Z</time>
      </trkpt>
      <trkpt lat="42.497292" lon="1.568644">
        <ele>2076.000000</ele>
        <time>2020-08-22T11:05:06Z</time>
      </trkpt>
      <trkpt lat="42.497280" lon="1.568628">
        <ele>2076.000000</ele>
        <time>2020-08-22T11:05:13Z</time>
      </trkpt>
      <trkpt lat="42.497280" lon="1.568628">
        <ele>2076.000000</ele>
        <time>2020-08-22T11:05:13Z</time>
      </trkpt>
      <trkpt lat="42.497272" lon="1.568612">
        <ele>2076.000000</ele>
        <time>2020-08-22T11:05:13Z</time>
      </trkpt>
      <trkpt lat="42.497272" lon="1.568612">
        <ele>2076.000000</ele>
        <time>2020-08-22T11:05:13Z</time>
      </trkpt>
      <trkpt lat="42.497265" lon="1.568596">
        <ele>2076.000000</ele>
        <time>2020-08-22T11:05:13Z</time>
      </trkpt>
      <trkpt lat="42.497265" lon="1.568596">
        <ele>2076.000000</ele>
        <time>2020-08-22T11:05:13Z</time>
      </trkpt>
      <trkpt lat="42.497265" lon="1.568589">
        <ele>2076.000000</ele>
        <time>2020-08-22T11:05:13Z</time>
      </trkpt>
      <trkpt lat="42.497265" lon="1.568589">
        <ele>2076.000000</ele>
        <time>2020-08-22T11:05:13Z</time>
      </trkpt>
      <trkpt lat="42.497261" lon="1.568581">
        <ele>2076.000000</ele>
        <time>2020-08-22T11:05:13Z</time>
      </trkpt>
      <trkpt lat="42.497261" lon="1.568581">
        <ele>2076.000000</ele>
        <time>2020-08-22T11:05:13Z</time>
      </trkpt>
      <trkpt lat="42.497257" lon="1.568571">
        <ele>2076.000000</ele>
        <time>2020-08-22T11:05:13Z</time>
      </trkpt>
      <trkpt lat="42.497257" lon="1.568571">
        <ele>2076.000000</ele>
        <time>2020-08-22T11:05:13Z</time>
      </trkpt>
      <trkpt lat="42.497250" lon="1.568563">
        <ele>2076.000000</ele>
        <time>2020-08-22T11:05:13Z</time>
      </trkpt>
      <trkpt lat="42.497250" lon="1.568563">
        <ele>2076.000000</ele>
        <time>2020-08-22T11:05:13Z</time>
      </trkpt>
      <trkpt lat="42.497246" lon="1.568555">
        <ele>2076.000000</ele>
        <time>2020-08-22T11:05:13Z</time>
      </trkpt>
      <trkpt lat="42.497246" lon="1.568555">
        <ele>2076.000000</ele>
        <time>2020-08-22T11:05:13Z</time>
      </trkpt>
      <trkpt lat="42.497238" lon="1.568549">
        <ele>2076.000000</ele>
        <time>2020-08-22T11:05:20Z</time>
      </trkpt>
      <trkpt lat="42.497238" lon="1.568549">
        <ele>2076.000000</ele>
        <time>2020-08-22T11:05:20Z</time>
      </trkpt>
      <trkpt lat="42.497231" lon="1.568543">
        <ele>2076.000000</ele>
        <time>2020-08-22T11:05:20Z</time>
      </trkpt>
      <trkpt lat="42.497231" lon="1.568543">
        <ele>2076.000000</ele>
        <time>2020-08-22T11:05:20Z</time>
      </trkpt>
      <trkpt lat="42.497227" lon="1.568536">
        <ele>2076.000000</ele>
        <time>2020-08-22T11:05:20Z</time>
      </trkpt>
      <trkpt lat="42.497227" lon="1.568536">
        <ele>2076.000000</ele>
        <time>2020-08-22T11:05:20Z</time>
      </trkpt>
      <trkpt lat="42.497219" lon="1.568529">
        <ele>2076.000000</ele>
        <time>2020-08-22T11:05:20Z</time>
      </trkpt>
      <trkpt lat="42.497219" lon="1.568529">
        <ele>2076.000000</ele>
        <time>2020-08-22T11:05:20Z</time>
      </trkpt>
      <trkpt lat="42.497211" lon="1.568523">
        <ele>2076.000000</ele>
        <time>2020-08-22T11:05:20Z</time>
      </trkpt>
      <trkpt lat="42.497211" lon="1.568523">
        <ele>2076.000000</ele>
        <time>2020-08-22T11:05:20Z</time>
      </trkpt>
      <trkpt lat="42.497211" lon="1.568527">
        <ele>2076.000000</ele>
        <time>2020-08-22T11:05:20Z</time>
      </trkpt>
      <trkpt lat="42.497211" lon="1.568527">
        <ele>2076.000000</ele>
        <time>2020-08-22T11:05:20Z</time>
      </trkpt>
      <trkpt lat="42.497211" lon="1.568531">
        <ele>2076.000000</ele>
        <time>2020-08-22T11:05:20Z</time>
      </trkpt>
      <trkpt lat="42.497211" lon="1.568531">
        <ele>2076.000000</ele>
        <time>2020-08-22T11:05:20Z</time>
      </trkpt>
      <trkpt lat="42.497211" lon="1.568536">
        <ele>2076.000000</ele>
        <time>2020-08-22T11:05:20Z</time>
      </trkpt>
      <trkpt lat="42.497211" lon="1.568536">
        <ele>2076.000000</ele>
        <time>2020-08-22T11:05:20Z</time>
      </trkpt>
      <trkpt lat="42.497211" lon="1.568540">
        <ele>2076.000000</ele>
        <time>2020-08-22T11:05:20Z</time>
      </trkpt>
      <trkpt lat="42.497211" lon="1.568540">
        <ele>2076.000000</ele>
        <time>2020-08-22T11:05:20Z</time>
      </trkpt>
      <trkpt lat="42.497211" lon="1.568543">
        <ele>2076.000000</ele>
        <time>2020-08-22T11:05:20Z</time>
      </trkpt>
      <trkpt lat="42.497211" lon="1.568543">
        <ele>2076.000000</ele>
        <time>2020-08-22T11:05:20Z</time>
      </trkpt>
      <trkpt lat="42.497211" lon="1.568545">
        <ele>2076.000000</ele>
        <time>2020-08-22T11:05:27Z</time>
      </trkpt>
      <trkpt lat="42.497211" lon="1.568545">
        <ele>2076.000000</ele>
        <time>2020-08-22T11:05:27Z</time>
      </trkpt>
      <trkpt lat="42.497208" lon="1.568546">
        <ele>2077.000000</ele>
        <time>2020-08-22T11:05:27Z</time>
      </trkpt>
      <trkpt lat="42.497208" lon="1.568546">
        <ele>2077.000000</ele>
        <time>2020-08-22T11:05:27Z</time>
      </trkpt>
      <trkpt lat="42.497208" lon="1.568547">
        <ele>2077.000000</ele>
        <time>2020-08-22T11:05:27Z</time>
      </trkpt>
      <trkpt lat="42.497208" lon="1.568547">
        <ele>2077.000000</ele>
        <time>2020-08-22T11:05:27Z</time>
      </trkpt>
      <trkpt lat="42.497208" lon="1.568548">
        <ele>2077.000000</ele>
        <time>2020-08-22T11:05:27Z</time>
      </trkpt>
      <trkpt lat="42.497208" lon="1.568548">
        <ele>2077.000000</ele>
        <time>2020-08-22T11:05:27Z</time>
      </trkpt>
      <trkpt lat="42.497204" lon="1.568548">
        <ele>2077.000000</ele>
        <time>2020-08-22T11:05:27Z</time>
      </trkpt>
      <trkpt lat="42.497204" lon="1.568548">
        <ele>2077.000000</ele>
        <time>2020-08-22T11:05:27Z</time>
      </trkpt>
      <trkpt lat="42.497196" lon="1.568543">
        <ele>2077.000000</ele>
        <time>2020-08-22T11:05:27Z</time>
      </trkpt>
      <trkpt lat="42.497196" lon="1.568543">
        <ele>2078.000000</ele>
        <time>2020-08-22T11:05:27Z</time>
      </trkpt>
      <trkpt lat="42.497189" lon="1.568535">
        <ele>2078.000000</ele>
        <time>2020-08-22T11:05:27Z</time>
      </trkpt>
      <trkpt lat="42.497189" lon="1.568535">
        <ele>2078.000000</ele>
        <time>2020-08-22T11:05:27Z</time>
      </trkpt>
      <trkpt lat="42.497185" lon="1.568527">
        <ele>2078.000000</ele>
        <time>2020-08-22T11:05:34Z</time>
      </trkpt>
      <trkpt lat="42.497185" lon="1.568527">
        <ele>2078.000000</ele>
        <time>2020-08-22T11:05:34Z</time>
      </trkpt>
      <trkpt lat="42.497177" lon="1.568518">
        <ele>2079.000000</ele>
        <time>2020-08-22T11:05:34Z</time>
      </trkpt>
      <trkpt lat="42.497177" lon="1.568518">
        <ele>2079.000000</ele>
        <time>2020-08-22T11:05:34Z</time>
      </trkpt>
      <trkpt lat="42.497173" lon="1.568509">
        <ele>2079.000000</ele>
        <time>2020-08-22T11:05:34Z</time>
      </trkpt>
      <trkpt lat="42.497173" lon="1.568509">
        <ele>2079.000000</ele>
        <time>2020-08-22T11:05:34Z</time>
      </trkpt>
      <trkpt lat="42.497169" lon="1.568500">
        <ele>2079.000000</ele>
        <time>2020-08-22T11:05:34Z</time>
      </trkpt>
      <trkpt lat="42.497169" lon="1.568500">
        <ele>2079.000000</ele>
        <time>2020-08-22T11:05:34Z</time>
      </trkpt>
      <trkpt lat="42.497166" lon="1.568491">
        <ele>2080.000000</ele>
        <time>2020-08-22T11:05:34Z</time>
      </trkpt>
      <trkpt lat="42.497166" lon="1.568491">
        <ele>2080.000000</ele>
        <time>2020-08-22T11:05:34Z</time>
      </trkpt>
      <trkpt lat="42.497162" lon="1.568483">
        <ele>2080.000000</ele>
        <time>2020-08-22T11:05:41Z</time>
      </trkpt>
      <trkpt lat="42.497162" lon="1.568483">
        <ele>2080.000000</ele>
        <time>2020-08-22T11:05:41Z</time>
      </trkpt>
      <trkpt lat="42.497162" lon="1.568475">
        <ele>2080.000000</ele>
        <time>2020-08-22T11:05:41Z</time>
      </trkpt>
      <trkpt lat="42.497162" lon="1.568475">
        <ele>2080.000000</ele>
        <time>2020-08-22T11:05:41Z</time>
      </trkpt>
      <trkpt lat="42.497158" lon="1.568468">
        <ele>2080.000000</ele>
        <time>2020-08-22T11:05:41Z</time>
      </trkpt>
      <trkpt lat="42.497158" lon="1.568468">
        <ele>2080.000000</ele>
        <time>2020-08-22T11:05:41Z</time>
      </trkpt>
      <trkpt lat="42.497150" lon="1.568463">
        <ele>2080.000000</ele>
        <time>2020-08-22T11:05:41Z</time>
      </trkpt>
      <trkpt lat="42.497150" lon="1.568463">
        <ele>2080.000000</ele>
        <time>2020-08-22T11:05:41Z</time>
      </trkpt>
      <trkpt lat="42.497150" lon="1.568460">
        <ele>2080.000000</ele>
        <time>2020-08-22T11:05:41Z</time>
      </trkpt>
      <trkpt lat="42.497150" lon="1.568460">
        <ele>2080.000000</ele>
        <time>2020-08-22T11:05:41Z</time>
      </trkpt>
      <trkpt lat="42.497147" lon="1.568455">
        <ele>2080.000000</ele>
        <time>2020-08-22T11:05:48Z</time>
      </trkpt>
      <trkpt lat="42.497147" lon="1.568455">
        <ele>2080.000000</ele>
        <time>2020-08-22T11:05:48Z</time>
      </trkpt>
      <trkpt lat="42.497143" lon="1.568446">
        <ele>2081.000000</ele>
        <time>2020-08-22T11:05:48Z</time>
      </trkpt>
      <trkpt lat="42.497143" lon="1.568446">
        <ele>2081.000000</ele>
        <time>2020-08-22T11:05:48Z</time>
      </trkpt>
      <trkpt lat="42.497143" lon="1.568436">
        <ele>2081.000000</ele>
        <time>2020-08-22T11:05:48Z</time>
      </trkpt>
      <trkpt lat="42.497143" lon="1.568436">
        <ele>2081.000000</ele>
        <time>2020-08-22T11:05:48Z</time>
      </trkpt>
      <trkpt lat="42.497135" lon="1.568425">
        <ele>2081.000000</ele>
        <time>2020-08-22T11:05:48Z</time>
      </trkpt>
      <trkpt lat="42.497135" lon="1.568425">
        <ele>2081.000000</ele>
        <time>2020-08-22T11:05:48Z</time>
      </trkpt>
      <trkpt lat="42.497135" lon="1.568414">
        <ele>2081.000000</ele>
        <time>2020-08-22T11:05:55Z</time>
      </trkpt>
      <trkpt lat="42.497135" lon="1.568414">
        <ele>2081.000000</ele>
        <time>2020-08-22T11:05:55Z</time>
      </trkpt>
      <trkpt lat="42.497131" lon="1.568401">
        <ele>2081.000000</ele>
        <time>2020-08-22T11:05:55Z</time>
      </trkpt>
      <trkpt lat="42.497131" lon="1.568401">
        <ele>2081.000000</ele>
        <time>2020-08-22T11:05:55Z</time>
      </trkpt>
      <trkpt lat="42.497124" lon="1.568388">
        <ele>2081.000000</ele>
        <time>2020-08-22T11:05:55Z</time>
      </trkpt>
      <trkpt lat="42.497124" lon="1.568388">
        <ele>2081.000000</ele>
        <time>2020-08-22T11:05:55Z</time>
      </trkpt>
      <trkpt lat="42.497124" lon="1.568375">
        <ele>2081.000000</ele>
        <time>2020-08-22T11:05:55Z</time>
      </trkpt>
      <trkpt lat="42.497124" lon="1.568375">
        <ele>2081.000000</ele>
        <time>2020-08-22T11:05:55Z</time>
      </trkpt>
      <trkpt lat="42.497116" lon="1.568351">
        <ele>2082.000000</ele>
        <time>2020-08-22T11:05:55Z</time>
      </trkpt>
      <trkpt lat="42.497116" lon="1.568351">
        <ele>2082.000000</ele>
        <time>2020-08-22T11:05:55Z</time>
      </trkpt>
      <trkpt lat="42.497105" lon="1.568328">
        <ele>2082.000000</ele>
        <time>2020-08-22T11:05:55Z</time>
      </trkpt>
      <trkpt lat="42.497105" lon="1.568328">
        <ele>2082.000000</ele>
        <time>2020-08-22T11:05:55Z</time>
      </trkpt>
      <trkpt lat="42.497093" lon="1.568307">
        <ele>2082.000000</ele>
        <time>2020-08-22T11:06:02Z</time>
      </trkpt>
      <trkpt lat="42.497093" lon="1.568307">
        <ele>2082.000000</ele>
        <time>2020-08-22T11:06:02Z</time>
      </trkpt>
      <trkpt lat="42.497082" lon="1.568290">
        <ele>2082.000000</ele>
        <time>2020-08-22T11:06:02Z</time>
      </trkpt>
      <trkpt lat="42.497082" lon="1.568290">
        <ele>2082.000000</ele>
        <time>2020-08-22T11:06:02Z</time>
      </trkpt>
      <trkpt lat="42.497070" lon="1.568274">
        <ele>2082.000000</ele>
        <time>2020-08-22T11:06:02Z</time>
      </trkpt>
      <trkpt lat="42.497070" lon="1.568274">
        <ele>2082.000000</ele>
        <time>2020-08-22T11:06:02Z</time>
      </trkpt>
      <trkpt lat="42.497063" lon="1.568259">
        <ele>2082.000000</ele>
        <time>2020-08-22T11:06:02Z</time>
      </trkpt>
      <trkpt lat="42.497063" lon="1.568259">
        <ele>2082.000000</ele>
        <time>2020-08-22T11:06:02Z</time>
      </trkpt>
      <trkpt lat="42.497051" lon="1.568244">
        <ele>2082.000000</ele>
        <time>2020-08-22T11:06:02Z</time>
      </trkpt>
      <trkpt lat="42.497051" lon="1.568244">
        <ele>2082.000000</ele>
        <time>2020-08-22T11:06:02Z</time>
      </trkpt>
      <trkpt lat="42.497040" lon="1.568229">
        <ele>2082.000000</ele>
        <time>2020-08-22T11:06:02Z</time>
      </trkpt>
      <trkpt lat="42.497040" lon="1.568229">
        <ele>2082.000000</ele>
        <time>2020-08-22T11:06:02Z</time>
      </trkpt>
      <trkpt lat="42.497028" lon="1.568215">
        <ele>2082.000000</ele>
        <time>2020-08-22T11:06:02Z</time>
      </trkpt>
      <trkpt lat="42.497028" lon="1.568215">
        <ele>2082.000000</ele>
        <time>2020-08-22T11:06:02Z</time>
      </trkpt>
      <trkpt lat="42.497017" lon="1.568202">
        <ele>2082.000000</ele>
        <time>2020-08-22T11:06:09Z</time>
      </trkpt>
      <trkpt lat="42.497017" lon="1.568202">
        <ele>2082.000000</ele>
        <time>2020-08-22T11:06:09Z</time>
      </trkpt>
      <trkpt lat="42.497009" lon="1.568197">
        <ele>2082.000000</ele>
        <time>2020-08-22T11:06:09Z</time>
      </trkpt>
      <trkpt lat="42.497009" lon="1.568197">
        <ele>2082.000000</ele>
        <time>2020-08-22T11:06:09Z</time>
      </trkpt>
      <trkpt lat="42.497005" lon="1.568192">
        <ele>2082.000000</ele>
        <time>2020-08-22T11:06:09Z</time>
      </trkpt>
      <trkpt lat="42.497005" lon="1.568192">
        <ele>2082.000000</ele>
        <time>2020-08-22T11:06:09Z</time>
      </trkpt>
      <trkpt lat="42.496998" lon="1.568185">
        <ele>2082.000000</ele>
        <time>2020-08-22T11:06:09Z</time>
      </trkpt>
      <trkpt lat="42.496998" lon="1.568185">
        <ele>2082.000000</ele>
        <time>2020-08-22T11:06:09Z</time>
      </trkpt>
      <trkpt lat="42.496986" lon="1.568178">
        <ele>2082.000000</ele>
        <time>2020-08-22T11:06:09Z</time>
      </trkpt>
      <trkpt lat="42.496986" lon="1.568178">
        <ele>2082.000000</ele>
        <time>2020-08-22T11:06:09Z</time>
      </trkpt>
      <trkpt lat="42.496979" lon="1.568169">
        <ele>2082.000000</ele>
        <time>2020-08-22T11:06:09Z</time>
      </trkpt>
      <trkpt lat="42.496979" lon="1.568169">
        <ele>2082.000000</ele>
        <time>2020-08-22T11:06:09Z</time>
      </trkpt>
      <trkpt lat="42.496971" lon="1.568160">
        <ele>2082.000000</ele>
        <time>2020-08-22T11:06:09Z</time>
      </trkpt>
      <trkpt lat="42.496971" lon="1.568160">
        <ele>2082.000000</ele>
        <time>2020-08-22T11:06:09Z</time>
      </trkpt>
      <trkpt lat="42.496960" lon="1.568151">
        <ele>2082.000000</ele>
        <time>2020-08-22T11:06:16Z</time>
      </trkpt>
      <trkpt lat="42.496960" lon="1.568151">
        <ele>2082.000000</ele>
        <time>2020-08-22T11:06:16Z</time>
      </trkpt>
      <trkpt lat="42.496952" lon="1.568141">
        <ele>2082.000000</ele>
        <time>2020-08-22T11:06:16Z</time>
      </trkpt>
      <trkpt lat="42.496952" lon="1.568141">
        <ele>2082.000000</ele>
        <time>2020-08-22T11:06:16Z</time>
      </trkpt>
      <trkpt lat="42.496944" lon="1.568130">
        <ele>2084.000000</ele>
        <time>2020-08-22T11:06:16Z</time>
      </trkpt>
      <trkpt lat="42.496944" lon="1.568130">
        <ele>2084.000000</ele>
        <time>2020-08-22T11:06:16Z</time>
      </trkpt>
      <trkpt lat="42.496933" lon="1.568119">
        <ele>2084.000000</ele>
        <time>2020-08-22T11:06:16Z</time>
      </trkpt>
      <trkpt lat="42.496933" lon="1.568119">
        <ele>2084.000000</ele>
        <time>2020-08-22T11:06:16Z</time>
      </trkpt>
      <trkpt lat="42.496922" lon="1.568131">
        <ele>2084.000000</ele>
        <time>2020-08-22T11:06:16Z</time>
      </trkpt>
      <trkpt lat="42.496922" lon="1.568131">
        <ele>2084.000000</ele>
        <time>2020-08-22T11:06:16Z</time>
      </trkpt>
      <trkpt lat="42.496910" lon="1.568144">
        <ele>2084.000000</ele>
        <time>2020-08-22T11:06:16Z</time>
      </trkpt>
      <trkpt lat="42.496910" lon="1.568144">
        <ele>2084.000000</ele>
        <time>2020-08-22T11:06:16Z</time>
      </trkpt>
      <trkpt lat="42.496902" lon="1.568158">
        <ele>2084.000000</ele>
        <time>2020-08-22T11:06:16Z</time>
      </trkpt>
      <trkpt lat="42.496902" lon="1.568158">
        <ele>2084.000000</ele>
        <time>2020-08-22T11:06:16Z</time>
      </trkpt>
      <trkpt lat="42.496891" lon="1.568174">
        <ele>2084.000000</ele>
        <time>2020-08-22T11:06:16Z</time>
      </trkpt>
      <trkpt lat="42.496891" lon="1.568174">
        <ele>2085.000000</ele>
        <time>2020-08-22T11:06:16Z</time>
      </trkpt>
      <trkpt lat="42.496880" lon="1.568191">
        <ele>2085.000000</ele>
        <time>2020-08-22T11:06:23Z</time>
      </trkpt>
      <trkpt lat="42.496880" lon="1.568191">
        <ele>2085.000000</ele>
        <time>2020-08-22T11:06:23Z</time>
      </trkpt>
      <trkpt lat="42.496868" lon="1.568209">
        <ele>2085.000000</ele>
        <time>2020-08-22T11:06:23Z</time>
      </trkpt>
      <trkpt lat="42.496868" lon="1.568209">
        <ele>2085.000000</ele>
        <time>2020-08-22T11:06:23Z</time>
      </trkpt>
      <trkpt lat="42.496860" lon="1.568227">
        <ele>2085.000000</ele>
        <time>2020-08-22T11:06:23Z</time>
      </trkpt>
      <trkpt lat="42.496860" lon="1.568227">
        <ele>2085.000000</ele>
        <time>2020-08-22T11:06:23Z</time>
      </trkpt>
      <trkpt lat="42.496845" lon="1.568246">
        <ele>2085.000000</ele>
        <time>2020-08-22T11:06:23Z</time>
      </trkpt>
      <trkpt lat="42.496845" lon="1.568246">
        <ele>2085.000000</ele>
        <time>2020-08-22T11:06:23Z</time>
      </trkpt>
      <trkpt lat="42.496834" lon="1.568265">
        <ele>2085.000000</ele>
        <time>2020-08-22T11:06:23Z</time>
      </trkpt>
      <trkpt lat="42.496834" lon="1.568265">
        <ele>2085.000000</ele>
        <time>2020-08-22T11:06:23Z</time>
      </trkpt>
      <trkpt lat="42.496822" lon="1.568285">
        <ele>2085.000000</ele>
        <time>2020-08-22T11:06:23Z</time>
      </trkpt>
      <trkpt lat="42.496822" lon="1.568285">
        <ele>2086.000000</ele>
        <time>2020-08-22T11:06:23Z</time>
      </trkpt>
      <trkpt lat="42.496799" lon="1.568260">
        <ele>2086.000000</ele>
        <time>2020-08-22T11:06:23Z</time>
      </trkpt>
      <trkpt lat="42.496799" lon="1.568260">
        <ele>2086.000000</ele>
        <time>2020-08-22T11:06:23Z</time>
      </trkpt>
      <trkpt lat="42.496777" lon="1.568237">
        <ele>2086.000000</ele>
        <time>2020-08-22T11:06:23Z</time>
      </trkpt>
      <trkpt lat="42.496777" lon="1.568237">
        <ele>2086.000000</ele>
        <time>2020-08-22T11:06:23Z</time>
      </trkpt>
      <trkpt lat="42.496754" lon="1.568214">
        <ele>2086.000000</ele>
        <time>2020-08-22T11:06:30Z</time>
      </trkpt>
      <trkpt lat="42.496754" lon="1.568214">
        <ele>2086.000000</ele>
        <time>2020-08-22T11:06:30Z</time>
      </trkpt>
      <trkpt lat="42.496735" lon="1.568191">
        <ele>2086.000000</ele>
        <time>2020-08-22T11:06:30Z</time>
      </trkpt>
      <trkpt lat="42.496735" lon="1.568191">
        <ele>2086.000000</ele>
        <time>2020-08-22T11:06:30Z</time>
      </trkpt>
      <trkpt lat="42.496716" lon="1.568170">
        <ele>2086.000000</ele>
        <time>2020-08-22T11:06:30Z</time>
      </trkpt>
      <trkpt lat="42.496716" lon="1.568170">
        <ele>2086.000000</ele>
        <time>2020-08-22T11:06:30Z</time>
      </trkpt>
      <trkpt lat="42.496704" lon="1.568149">
        <ele>2086.000000</ele>
        <time>2020-08-22T11:06:30Z</time>
      </trkpt>
      <trkpt lat="42.496704" lon="1.568149">
        <ele>2086.000000</ele>
        <time>2020-08-22T11:06:30Z</time>
      </trkpt>
      <trkpt lat="42.496689" lon="1.568129">
        <ele>2086.000000</ele>
        <time>2020-08-22T11:06:30Z</time>
      </trkpt>
      <trkpt lat="42.496689" lon="1.568129">
        <ele>2086.000000</ele>
        <time>2020-08-22T11:06:30Z</time>
      </trkpt>
      <trkpt lat="42.496677" lon="1.568110">
        <ele>2086.000000</ele>
        <time>2020-08-22T11:06:30Z</time>
      </trkpt>
      <trkpt lat="42.496677" lon="1.568110">
        <ele>2086.000000</ele>
        <time>2020-08-22T11:06:30Z</time>
      </trkpt>
      <trkpt lat="42.496670" lon="1.568090">
        <ele>2086.000000</ele>
        <time>2020-08-22T11:06:30Z</time>
      </trkpt>
      <trkpt lat="42.496670" lon="1.568090">
        <ele>2086.000000</ele>
        <time>2020-08-22T11:06:30Z</time>
      </trkpt>
      <trkpt lat="42.496662" lon="1.568072">
        <ele>2086.000000</ele>
        <time>2020-08-22T11:06:41Z</time>
      </trkpt>
      <trkpt lat="42.496662" lon="1.568072">
        <ele>2086.000000</ele>
        <time>2020-08-22T11:06:41Z</time>
      </trkpt>
      <trkpt lat="42.496681" lon="1.568077">
        <ele>2086.000000</ele>
        <time>2020-08-22T11:06:41Z</time>
      </trkpt>
      <trkpt lat="42.496681" lon="1.568077">
        <ele>2086.000000</ele>
        <time>2020-08-22T11:06:41Z</time>
      </trkpt>
      <trkpt lat="42.496696" lon="1.568082">
        <ele>2086.000000</ele>
        <time>2020-08-22T11:06:48Z</time>
      </trkpt>
      <trkpt lat="42.496696" lon="1.568082">
        <ele>2087.000000</ele>
        <time>2020-08-22T11:06:48Z</time>
      </trkpt>
      <trkpt lat="42.496708" lon="1.568086">
        <ele>2087.000000</ele>
        <time>2020-08-22T11:06:48Z</time>
      </trkpt>
      <trkpt lat="42.496708" lon="1.568086">
        <ele>2087.000000</ele>
        <time>2020-08-22T11:06:48Z</time>
      </trkpt>
      <trkpt lat="42.496712" lon="1.568089">
        <ele>2087.000000</ele>
        <time>2020-08-22T11:06:48Z</time>
      </trkpt>
      <trkpt lat="42.496712" lon="1.568089">
        <ele>2087.000000</ele>
        <time>2020-08-22T11:06:48Z</time>
      </trkpt>
      <trkpt lat="42.496716" lon="1.568092">
        <ele>2087.000000</ele>
        <time>2020-08-22T11:06:48Z</time>
      </trkpt>
      <trkpt lat="42.496716" lon="1.568092">
        <ele>2087.000000</ele>
        <time>2020-08-22T11:06:48Z</time>
      </trkpt>
      <trkpt lat="42.496712" lon="1.568093">
        <ele>2087.000000</ele>
        <time>2020-08-22T11:06:48Z</time>
      </trkpt>
      <trkpt lat="42.496712" lon="1.568093">
        <ele>2087.000000</ele>
        <time>2020-08-22T11:06:48Z</time>
      </trkpt>
      <trkpt lat="42.496704" lon="1.568094">
        <ele>2087.000000</ele>
        <time>2020-08-22T11:06:48Z</time>
      </trkpt>
      <trkpt lat="42.496704" lon="1.568094">
        <ele>2087.000000</ele>
        <time>2020-08-22T11:06:48Z</time>
      </trkpt>
      <trkpt lat="42.496689" lon="1.568094">
        <ele>2087.000000</ele>
        <time>2020-08-22T11:06:48Z</time>
      </trkpt>
      <trkpt lat="42.496689" lon="1.568094">
        <ele>2087.000000</ele>
        <time>2020-08-22T11:06:48Z</time>
      </trkpt>
      <trkpt lat="42.496674" lon="1.568094">
        <ele>2087.000000</ele>
        <time>2020-08-22T11:06:55Z</time>
      </trkpt>
      <trkpt lat="42.496674" lon="1.568094">
        <ele>2087.000000</ele>
        <time>2020-08-22T11:06:55Z</time>
      </trkpt>
      <trkpt lat="42.496651" lon="1.568093">
        <ele>2088.000000</ele>
        <time>2020-08-22T11:06:55Z</time>
      </trkpt>
      <trkpt lat="42.496651" lon="1.568093">
        <ele>2088.000000</ele>
        <time>2020-08-22T11:06:55Z</time>
      </trkpt>
      <trkpt lat="42.496616" lon="1.568082">
        <ele>2088.000000</ele>
        <time>2020-08-22T11:07:05Z</time>
      </trkpt>
      <trkpt lat="42.496616" lon="1.568082">
        <ele>2088.000000</ele>
        <time>2020-08-22T11:07:05Z</time>
      </trkpt>
      <trkpt lat="42.496582" lon="1.568073">
        <ele>2088.000000</ele>
        <time>2020-08-22T11:07:05Z</time>
      </trkpt>
      <trkpt lat="42.496582" lon="1.568073">
        <ele>2088.000000</ele>
        <time>2020-08-22T11:07:05Z</time>
      </trkpt>
      <trkpt lat="42.496552" lon="1.568067">
        <ele>2088.000000</ele>
        <time>2020-08-22T11:07:05Z</time>
      </trkpt>
      <trkpt lat="42.496552" lon="1.568067">
        <ele>2088.000000</ele>
        <time>2020-08-22T11:07:05Z</time>
      </trkpt>
      <trkpt lat="42.496525" lon="1.568069">
        <ele>2088.000000</ele>
        <time>2020-08-22T11:07:05Z</time>
      </trkpt>
      <trkpt lat="42.496525" lon="1.568069">
        <ele>2088.000000</ele>
        <time>2020-08-22T11:07:05Z</time>
      </trkpt>
      <trkpt lat="42.496506" lon="1.568073">
        <ele>2088.000000</ele>
        <time>2020-08-22T11:07:05Z</time>
      </trkpt>
      <trkpt lat="42.496506" lon="1.568073">
        <ele>2088.000000</ele>
        <time>2020-08-22T11:07:05Z</time>
      </trkpt>
      <trkpt lat="42.496487" lon="1.568078">
        <ele>2088.000000</ele>
        <time>2020-08-22T11:07:05Z</time>
      </trkpt>
      <trkpt lat="42.496487" lon="1.568078">
        <ele>2088.000000</ele>
        <time>2020-08-22T11:07:05Z</time>
      </trkpt>
      <trkpt lat="42.496475" lon="1.568085">
        <ele>2089.000000</ele>
        <time>2020-08-22T11:07:05Z</time>
      </trkpt>
      <trkpt lat="42.496475" lon="1.568085">
        <ele>2089.000000</ele>
        <time>2020-08-22T11:07:05Z</time>
      </trkpt>
      <trkpt lat="42.496468" lon="1.568093">
        <ele>2089.000000</ele>
        <time>2020-08-22T11:07:05Z</time>
      </trkpt>
      <trkpt lat="42.496468" lon="1.568093">
        <ele>2089.000000</ele>
        <time>2020-08-22T11:07:05Z</time>
      </trkpt>
      <trkpt lat="42.496464" lon="1.568102">
        <ele>2089.000000</ele>
        <time>2020-08-22T11:07:05Z</time>
      </trkpt>
      <trkpt lat="42.496464" lon="1.568102">
        <ele>2089.000000</ele>
        <time>2020-08-22T11:07:05Z</time>
      </trkpt>
      <trkpt lat="42.496460" lon="1.568112">
        <ele>2089.000000</ele>
        <time>2020-08-22T11:07:05Z</time>
      </trkpt>
      <trkpt lat="42.496460" lon="1.568112">
        <ele>2089.000000</ele>
        <time>2020-08-22T11:07:05Z</time>
      </trkpt>
      <trkpt lat="42.496468" lon="1.568130">
        <ele>2089.000000</ele>
        <time>2020-08-22T11:07:05Z</time>
      </trkpt>
      <trkpt lat="42.496468" lon="1.568130">
        <ele>2089.000000</ele>
        <time>2020-08-22T11:07:05Z</time>
      </trkpt>
      <trkpt lat="42.496471" lon="1.568146">
        <ele>2089.000000</ele>
        <time>2020-08-22T11:07:05Z</time>
      </trkpt>
      <trkpt lat="42.496471" lon="1.568146">
        <ele>2089.000000</ele>
        <time>2020-08-22T11:07:05Z</time>
      </trkpt>
      <trkpt lat="42.496479" lon="1.568159">
        <ele>2089.000000</ele>
        <time>2020-08-22T11:07:05Z</time>
      </trkpt>
      <trkpt lat="42.496479" lon="1.568159">
        <ele>2089.000000</ele>
        <time>2020-08-22T11:07:05Z</time>
      </trkpt>
      <trkpt lat="42.496479" lon="1.568164">
        <ele>2089.000000</ele>
        <time>2020-08-22T11:07:05Z</time>
      </trkpt>
      <trkpt lat="42.496479" lon="1.568164">
        <ele>2089.000000</ele>
        <time>2020-08-22T11:07:05Z</time>
      </trkpt>
      <trkpt lat="42.496479" lon="1.568167">
        <ele>2089.000000</ele>
        <time>2020-08-22T11:07:05Z</time>
      </trkpt>
      <trkpt lat="42.496479" lon="1.568167">
        <ele>2089.000000</ele>
        <time>2020-08-22T11:07:05Z</time>
      </trkpt>
      <trkpt lat="42.496479" lon="1.568170">
        <ele>2089.000000</ele>
        <time>2020-08-22T11:07:12Z</time>
      </trkpt>
      <trkpt lat="42.496479" lon="1.568170">
        <ele>2089.000000</ele>
        <time>2020-08-22T11:07:12Z</time>
      </trkpt>
      <trkpt lat="42.496475" lon="1.568172">
        <ele>2089.000000</ele>
        <time>2020-08-22T11:07:12Z</time>
      </trkpt>
      <trkpt lat="42.496475" lon="1.568172">
        <ele>2089.000000</ele>
        <time>2020-08-22T11:07:12Z</time>
      </trkpt>
      <trkpt lat="42.496471" lon="1.568173">
        <ele>2089.000000</ele>
        <time>2020-08-22T11:07:12Z</time>
      </trkpt>
      <trkpt lat="42.496471" lon="1.568173">
        <ele>2089.000000</ele>
        <time>2020-08-22T11:07:12Z</time>
      </trkpt>
      <trkpt lat="42.496468" lon="1.568174">
        <ele>2089.000000</ele>
        <time>2020-08-22T11:07:12Z</time>
      </trkpt>
      <trkpt lat="42.496468" lon="1.568174">
        <ele>2089.000000</ele>
        <time>2020-08-22T11:07:12Z</time>
      </trkpt>
      <trkpt lat="42.496460" lon="1.568174">
        <ele>2089.000000</ele>
        <time>2020-08-22T11:07:12Z</time>
      </trkpt>
      <trkpt lat="42.496460" lon="1.568174">
        <ele>2089.000000</ele>
        <time>2020-08-22T11:07:12Z</time>
      </trkpt>
      <trkpt lat="42.496452" lon="1.568171">
        <ele>2089.000000</ele>
        <time>2020-08-22T11:07:12Z</time>
      </trkpt>
      <trkpt lat="42.496452" lon="1.568171">
        <ele>2089.000000</ele>
        <time>2020-08-22T11:07:12Z</time>
      </trkpt>
      <trkpt lat="42.496445" lon="1.568167">
        <ele>2089.000000</ele>
        <time>2020-08-22T11:07:12Z</time>
      </trkpt>
      <trkpt lat="42.496445" lon="1.568167">
        <ele>2089.000000</ele>
        <time>2020-08-22T11:07:12Z</time>
      </trkpt>
      <trkpt lat="42.496437" lon="1.568163">
        <ele>2089.000000</ele>
        <time>2020-08-22T11:07:19Z</time>
      </trkpt>
      <trkpt lat="42.496437" lon="1.568163">
        <ele>2089.000000</ele>
        <time>2020-08-22T11:07:19Z</time>
      </trkpt>
      <trkpt lat="42.496429" lon="1.568160">
        <ele>2089.000000</ele>
        <time>2020-08-22T11:07:19Z</time>
      </trkpt>
      <trkpt lat="42.496429" lon="1.568160">
        <ele>2089.000000</ele>
        <time>2020-08-22T11:07:19Z</time>
      </trkpt>
      <trkpt lat="42.496422" lon="1.568156">
        <ele>2089.000000</ele>
        <time>2020-08-22T11:07:19Z</time>
      </trkpt>
      <trkpt lat="42.496422" lon="1.568156">
        <ele>2089.000000</ele>
        <time>2020-08-22T11:07:19Z</time>
      </trkpt>
      <trkpt lat="42.496414" lon="1.568153">
        <ele>2089.000000</ele>
        <time>2020-08-22T11:07:19Z</time>
      </trkpt>
      <trkpt lat="42.496414" lon="1.568153">
        <ele>2089.000000</ele>
        <time>2020-08-22T11:07:19Z</time>
      </trkpt>
      <trkpt lat="42.496407" lon="1.568149">
        <ele>2089.000000</ele>
        <time>2020-08-22T11:07:19Z</time>
      </trkpt>
      <trkpt lat="42.496407" lon="1.568149">
        <ele>2089.000000</ele>
        <time>2020-08-22T11:07:19Z</time>
      </trkpt>
      <trkpt lat="42.496399" lon="1.568146">
        <ele>2089.000000</ele>
        <time>2020-08-22T11:07:19Z</time>
      </trkpt>
      <trkpt lat="42.496399" lon="1.568146">
        <ele>2089.000000</ele>
        <time>2020-08-22T11:07:19Z</time>
      </trkpt>
      <trkpt lat="42.496391" lon="1.568143">
        <ele>2090.000000</ele>
        <time>2020-08-22T11:07:19Z</time>
      </trkpt>
      <trkpt lat="42.496391" lon="1.568143">
        <ele>2090.000000</ele>
        <time>2020-08-22T11:07:19Z</time>
      </trkpt>
      <trkpt lat="42.496387" lon="1.568141">
        <ele>2090.000000</ele>
        <time>2020-08-22T11:07:27Z</time>
      </trkpt>
      <trkpt lat="42.496387" lon="1.568141">
        <ele>2090.000000</ele>
        <time>2020-08-22T11:07:27Z</time>
      </trkpt>
      <trkpt lat="42.496384" lon="1.568149">
        <ele>2090.000000</ele>
        <time>2020-08-22T11:07:34Z</time>
      </trkpt>
      <trkpt lat="42.496384" lon="1.568149">
        <ele>2090.000000</ele>
        <time>2020-08-22T11:07:34Z</time>
      </trkpt>
      <trkpt lat="42.496380" lon="1.568158">
        <ele>2090.000000</ele>
        <time>2020-08-22T11:07:34Z</time>
      </trkpt>
      <trkpt lat="42.496380" lon="1.568158">
        <ele>2090.000000</ele>
        <time>2020-08-22T11:07:34Z</time>
      </trkpt>
      <trkpt lat="42.496380" lon="1.568170">
        <ele>2090.000000</ele>
        <time>2020-08-22T11:07:34Z</time>
      </trkpt>
      <trkpt lat="42.496380" lon="1.568170">
        <ele>2090.000000</ele>
        <time>2020-08-22T11:07:34Z</time>
      </trkpt>
      <trkpt lat="42.496380" lon="1.568183">
        <ele>2090.000000</ele>
        <time>2020-08-22T11:07:34Z</time>
      </trkpt>
      <trkpt lat="42.496380" lon="1.568183">
        <ele>2090.000000</ele>
        <time>2020-08-22T11:07:34Z</time>
      </trkpt>
      <trkpt lat="42.496380" lon="1.568198">
        <ele>2090.000000</ele>
        <time>2020-08-22T11:07:34Z</time>
      </trkpt>
      <trkpt lat="42.496380" lon="1.568198">
        <ele>2090.000000</ele>
        <time>2020-08-22T11:07:34Z</time>
      </trkpt>
      <trkpt lat="42.496380" lon="1.568215">
        <ele>2090.000000</ele>
        <time>2020-08-22T11:07:34Z</time>
      </trkpt>
      <trkpt lat="42.496380" lon="1.568215">
        <ele>2090.000000</ele>
        <time>2020-08-22T11:07:34Z</time>
      </trkpt>
      <trkpt lat="42.496380" lon="1.568233">
        <ele>2090.000000</ele>
        <time>2020-08-22T11:07:34Z</time>
      </trkpt>
      <trkpt lat="42.496380" lon="1.568233">
        <ele>2090.000000</ele>
        <time>2020-08-22T11:07:34Z</time>
      </trkpt>
      <trkpt lat="42.496384" lon="1.568253">
        <ele>2090.000000</ele>
        <time>2020-08-22T11:07:41Z</time>
      </trkpt>
      <trkpt lat="42.496384" lon="1.568253">
        <ele>2090.000000</ele>
        <time>2020-08-22T11:07:41Z</time>
      </trkpt>
      <trkpt lat="42.496387" lon="1.568275">
        <ele>2090.000000</ele>
        <time>2020-08-22T11:07:41Z</time>
      </trkpt>
      <trkpt lat="42.496387" lon="1.568275">
        <ele>2090.000000</ele>
        <time>2020-08-22T11:07:41Z</time>
      </trkpt>
      <trkpt lat="42.496395" lon="1.568298">
        <ele>2090.000000</ele>
        <time>2020-08-22T11:07:41Z</time>
      </trkpt>
      <trkpt lat="42.496395" lon="1.568298">
        <ele>2090.000000</ele>
        <time>2020-08-22T11:07:41Z</time>
      </trkpt>
      <trkpt lat="42.496395" lon="1.568315">
        <ele>2090.000000</ele>
        <time>2020-08-22T11:07:41Z</time>
      </trkpt>
      <trkpt lat="42.496395" lon="1.568315">
        <ele>2090.000000</ele>
        <time>2020-08-22T11:07:41Z</time>
      </trkpt>
      <trkpt lat="42.496395" lon="1.568329">
        <ele>2090.000000</ele>
        <time>2020-08-22T11:07:41Z</time>
      </trkpt>
      <trkpt lat="42.496395" lon="1.568329">
        <ele>2090.000000</ele>
        <time>2020-08-22T11:07:41Z</time>
      </trkpt>
      <trkpt lat="42.496391" lon="1.568342">
        <ele>2090.000000</ele>
        <time>2020-08-22T11:07:49Z</time>
      </trkpt>
      <trkpt lat="42.496391" lon="1.568342">
        <ele>2090.000000</ele>
        <time>2020-08-22T11:07:49Z</time>
      </trkpt>
      <trkpt lat="42.496387" lon="1.568352">
        <ele>2090.000000</ele>
        <time>2020-08-22T11:07:49Z</time>
      </trkpt>
      <trkpt lat="42.496387" lon="1.568352">
        <ele>2090.000000</ele>
        <time>2020-08-22T11:07:49Z</time>
      </trkpt>
      <trkpt lat="42.496387" lon="1.568361">
        <ele>2090.000000</ele>
        <time>2020-08-22T11:07:49Z</time>
      </trkpt>
      <trkpt lat="42.496387" lon="1.568361">
        <ele>2090.000000</ele>
        <time>2020-08-22T11:07:49Z</time>
      </trkpt>
      <trkpt lat="42.496380" lon="1.568367">
        <ele>2090.000000</ele>
        <time>2020-08-22T11:07:49Z</time>
      </trkpt>
      <trkpt lat="42.496380" lon="1.568367">
        <ele>2090.000000</ele>
        <time>2020-08-22T11:07:49Z</time>
      </trkpt>
      <trkpt lat="42.496376" lon="1.568372">
        <ele>2090.000000</ele>
        <time>2020-08-22T11:07:49Z</time>
      </trkpt>
      <trkpt lat="42.496376" lon="1.568372">
        <ele>2090.000000</ele>
        <time>2020-08-22T11:07:49Z</time>
      </trkpt>
      <trkpt lat="42.496368" lon="1.568376">
        <ele>2090.000000</ele>
        <time>2020-08-22T11:07:49Z</time>
      </trkpt>
      <trkpt lat="42.496368" lon="1.568376">
        <ele>2090.000000</ele>
        <time>2020-08-22T11:07:49Z</time>
      </trkpt>
      <trkpt lat="42.496361" lon="1.568379">
        <ele>2090.000000</ele>
        <time>2020-08-22T11:07:56Z</time>
      </trkpt>
      <trkpt lat="42.496361" lon="1.568379">
        <ele>2090.000000</ele>
        <time>2020-08-22T11:07:56Z</time>
      </trkpt>
      <trkpt lat="42.496353" lon="1.568381">
        <ele>2090.000000</ele>
        <time>2020-08-22T11:07:56Z</time>
      </trkpt>
      <trkpt lat="42.496353" lon="1.568381">
        <ele>2090.000000</ele>
        <time>2020-08-22T11:07:56Z</time>
      </trkpt>
      <trkpt lat="42.496342" lon="1.568377">
        <ele>2090.000000</ele>
        <time>2020-08-22T11:07:56Z</time>
      </trkpt>
      <trkpt lat="42.496342" lon="1.568377">
        <ele>2090.000000</ele>
        <time>2020-08-22T11:07:56Z</time>
      </trkpt>
      <trkpt lat="42.496326" lon="1.568372">
        <ele>2090.000000</ele>
        <time>2020-08-22T11:07:56Z</time>
      </trkpt>
      <trkpt lat="42.496326" lon="1.568372">
        <ele>2087.000000</ele>
        <time>2020-08-22T11:07:56Z</time>
      </trkpt>
      <trkpt lat="42.496315" lon="1.568367">
        <ele>2087.000000</ele>
        <time>2020-08-22T11:08:04Z</time>
      </trkpt>
      <trkpt lat="42.496315" lon="1.568367">
        <ele>2087.000000</ele>
        <time>2020-08-22T11:08:04Z</time>
      </trkpt>
      <trkpt lat="42.496304" lon="1.568362">
        <ele>2087.000000</ele>
        <time>2020-08-22T11:08:04Z</time>
      </trkpt>
      <trkpt lat="42.496304" lon="1.568362">
        <ele>2087.000000</ele>
        <time>2020-08-22T11:08:04Z</time>
      </trkpt>
      <trkpt lat="42.496292" lon="1.568358">
        <ele>2087.000000</ele>
        <time>2020-08-22T11:08:04Z</time>
      </trkpt>
      <trkpt lat="42.496292" lon="1.568358">
        <ele>2087.000000</ele>
        <time>2020-08-22T11:08:04Z</time>
      </trkpt>
      <trkpt lat="42.496277" lon="1.568354">
        <ele>2087.000000</ele>
        <time>2020-08-22T11:08:04Z</time>
      </trkpt>
      <trkpt lat="42.496277" lon="1.568354">
        <ele>2087.000000</ele>
        <time>2020-08-22T11:08:04Z</time>
      </trkpt>
      <trkpt lat="42.496265" lon="1.568348">
        <ele>2087.000000</ele>
        <time>2020-08-22T11:08:04Z</time>
      </trkpt>
      <trkpt lat="42.496265" lon="1.568348">
        <ele>2086.000000</ele>
        <time>2020-08-22T11:08:04Z</time>
      </trkpt>
      <trkpt lat="42.496254" lon="1.568340">
        <ele>2086.000000</ele>
        <time>2020-08-22T11:08:04Z</time>
      </trkpt>
      <trkpt lat="42.496254" lon="1.568340">
        <ele>2086.000000</ele>
        <time>2020-08-22T11:08:04Z</time>
      </trkpt>
      <trkpt lat="42.496239" lon="1.568330">
        <ele>2086.000000</ele>
        <time>2020-08-22T11:08:11Z</time>
      </trkpt>
      <trkpt lat="42.496239" lon="1.568330">
        <ele>2086.000000</ele>
        <time>2020-08-22T11:08:11Z</time>
      </trkpt>
      <trkpt lat="42.496227" lon="1.568318">
        <ele>2086.000000</ele>
        <time>2020-08-22T11:08:11Z</time>
      </trkpt>
      <trkpt lat="42.496227" lon="1.568318">
        <ele>2086.000000</ele>
        <time>2020-08-22T11:08:11Z</time>
      </trkpt>
      <trkpt lat="42.496220" lon="1.568297">
        <ele>2086.000000</ele>
        <time>2020-08-22T11:08:11Z</time>
      </trkpt>
      <trkpt lat="42.496220" lon="1.568297">
        <ele>2086.000000</ele>
        <time>2020-08-22T11:08:11Z</time>
      </trkpt>
      <trkpt lat="42.496212" lon="1.568276">
        <ele>2086.000000</ele>
        <time>2020-08-22T11:08:11Z</time>
      </trkpt>
      <trkpt lat="42.496212" lon="1.568276">
        <ele>2086.000000</ele>
        <time>2020-08-22T11:08:11Z</time>
      </trkpt>
      <trkpt lat="42.496204" lon="1.568254">
        <ele>2086.000000</ele>
        <time>2020-08-22T11:08:11Z</time>
      </trkpt>
      <trkpt lat="42.496204" lon="1.568254">
        <ele>2086.000000</ele>
        <time>2020-08-22T11:08:11Z</time>
      </trkpt>
      <trkpt lat="42.496197" lon="1.568231">
        <ele>2086.000000</ele>
        <time>2020-08-22T11:08:11Z</time>
      </trkpt>
      <trkpt lat="42.496197" lon="1.568231">
        <ele>2086.000000</ele>
        <time>2020-08-22T11:08:11Z</time>
      </trkpt>
      <trkpt lat="42.496193" lon="1.568206">
        <ele>2086.000000</ele>
        <time>2020-08-22T11:08:11Z</time>
      </trkpt>
      <trkpt lat="42.496193" lon="1.568206">
        <ele>2086.000000</ele>
        <time>2020-08-22T11:08:11Z</time>
      </trkpt>
      <trkpt lat="42.496185" lon="1.568180">
        <ele>2086.000000</ele>
        <time>2020-08-22T11:08:11Z</time>
      </trkpt>
      <trkpt lat="42.496185" lon="1.568180">
        <ele>2086.000000</ele>
        <time>2020-08-22T11:08:11Z</time>
      </trkpt>
      <trkpt lat="42.496178" lon="1.568154">
        <ele>2086.000000</ele>
        <time>2020-08-22T11:08:18Z</time>
      </trkpt>
      <trkpt lat="42.496178" lon="1.568154">
        <ele>2086.000000</ele>
        <time>2020-08-22T11:08:18Z</time>
      </trkpt>
      <trkpt lat="42.496174" lon="1.568127">
        <ele>2086.000000</ele>
        <time>2020-08-22T11:08:18Z</time>
      </trkpt>
      <trkpt lat="42.496174" lon="1.568127">
        <ele>2086.000000</ele>
        <time>2020-08-22T11:08:18Z</time>
      </trkpt>
      <trkpt lat="42.496166" lon="1.568100">
        <ele>2086.000000</ele>
        <time>2020-08-22T11:08:18Z</time>
      </trkpt>
      <trkpt lat="42.496166" lon="1.568100">
        <ele>2086.000000</ele>
        <time>2020-08-22T11:08:18Z</time>
      </trkpt>
      <trkpt lat="42.496159" lon="1.568073">
        <ele>2086.000000</ele>
        <time>2020-08-22T11:08:18Z</time>
      </trkpt>
      <trkpt lat="42.496159" lon="1.568073">
        <ele>2086.000000</ele>
        <time>2020-08-22T11:08:18Z</time>
      </trkpt>
      <trkpt lat="42.496155" lon="1.568060">
        <ele>2086.000000</ele>
        <time>2020-08-22T11:08:18Z</time>
      </trkpt>
      <trkpt lat="42.496155" lon="1.568060">
        <ele>2086.000000</ele>
        <time>2020-08-22T11:08:18Z</time>
      </trkpt>
      <trkpt lat="42.496151" lon="1.568046">
        <ele>2086.000000</ele>
        <time>2020-08-22T11:08:18Z</time>
      </trkpt>
      <trkpt lat="42.496151" lon="1.568046">
        <ele>2086.000000</ele>
        <time>2020-08-22T11:08:18Z</time>
      </trkpt>
      <trkpt lat="42.496147" lon="1.568034">
        <ele>2086.000000</ele>
        <time>2020-08-22T11:08:18Z</time>
      </trkpt>
      <trkpt lat="42.496147" lon="1.568034">
        <ele>2086.000000</ele>
        <time>2020-08-22T11:08:18Z</time>
      </trkpt>
      <trkpt lat="42.496143" lon="1.568022">
        <ele>2086.000000</ele>
        <time>2020-08-22T11:08:25Z</time>
      </trkpt>
      <trkpt lat="42.496143" lon="1.568022">
        <ele>2086.000000</ele>
        <time>2020-08-22T11:08:25Z</time>
      </trkpt>
      <trkpt lat="42.496140" lon="1.568010">
        <ele>2086.000000</ele>
        <time>2020-08-22T11:08:25Z</time>
      </trkpt>
      <trkpt lat="42.496140" lon="1.568010">
        <ele>2086.000000</ele>
        <time>2020-08-22T11:08:25Z</time>
      </trkpt>
      <trkpt lat="42.496140" lon="1.567999">
        <ele>2086.000000</ele>
        <time>2020-08-22T11:08:25Z</time>
      </trkpt>
      <trkpt lat="42.496140" lon="1.567999">
        <ele>2086.000000</ele>
        <time>2020-08-22T11:08:25Z</time>
      </trkpt>
      <trkpt lat="42.496136" lon="1.567988">
        <ele>2086.000000</ele>
        <time>2020-08-22T11:08:25Z</time>
      </trkpt>
      <trkpt lat="42.496136" lon="1.567988">
        <ele>2086.000000</ele>
        <time>2020-08-22T11:08:25Z</time>
      </trkpt>
      <trkpt lat="42.496136" lon="1.567978">
        <ele>2086.000000</ele>
        <time>2020-08-22T11:08:25Z</time>
      </trkpt>
      <trkpt lat="42.496136" lon="1.567978">
        <ele>2086.000000</ele>
        <time>2020-08-22T11:08:25Z</time>
      </trkpt>
      <trkpt lat="42.496132" lon="1.567968">
        <ele>2086.000000</ele>
        <time>2020-08-22T11:08:25Z</time>
      </trkpt>
      <trkpt lat="42.496132" lon="1.567968">
        <ele>2086.000000</ele>
        <time>2020-08-22T11:08:25Z</time>
      </trkpt>
      <trkpt lat="42.496132" lon="1.567959">
        <ele>2086.000000</ele>
        <time>2020-08-22T11:08:25Z</time>
      </trkpt>
      <trkpt lat="42.496132" lon="1.567959">
        <ele>2086.000000</ele>
        <time>2020-08-22T11:08:25Z</time>
      </trkpt>
      <trkpt lat="42.496124" lon="1.567931">
        <ele>2086.000000</ele>
        <time>2020-08-22T11:08:32Z</time>
      </trkpt>
      <trkpt lat="42.496124" lon="1.567931">
        <ele>2086.000000</ele>
        <time>2020-08-22T11:08:32Z</time>
      </trkpt>
      <trkpt lat="42.496113" lon="1.567903">
        <ele>2086.000000</ele>
        <time>2020-08-22T11:08:32Z</time>
      </trkpt>
      <trkpt lat="42.496113" lon="1.567903">
        <ele>2086.000000</ele>
        <time>2020-08-22T11:08:32Z</time>
      </trkpt>
      <trkpt lat="42.496101" lon="1.567875">
        <ele>2086.000000</ele>
        <time>2020-08-22T11:08:32Z</time>
      </trkpt>
      <trkpt lat="42.496101" lon="1.567875">
        <ele>2086.000000</ele>
        <time>2020-08-22T11:08:32Z</time>
      </trkpt>
      <trkpt lat="42.496090" lon="1.567847">
        <ele>2082.000000</ele>
        <time>2020-08-22T11:08:32Z</time>
      </trkpt>
      <trkpt lat="42.496090" lon="1.567847">
        <ele>2082.000000</ele>
        <time>2020-08-22T11:08:32Z</time>
      </trkpt>
      <trkpt lat="42.496078" lon="1.567818">
        <ele>2082.000000</ele>
        <time>2020-08-22T11:08:32Z</time>
      </trkpt>
      <trkpt lat="42.496078" lon="1.567818">
        <ele>2082.000000</ele>
        <time>2020-08-22T11:08:32Z</time>
      </trkpt>
      <trkpt lat="42.496063" lon="1.567789">
        <ele>2082.000000</ele>
        <time>2020-08-22T11:08:32Z</time>
      </trkpt>
      <trkpt lat="42.496063" lon="1.567789">
        <ele>2082.000000</ele>
        <time>2020-08-22T11:08:32Z</time>
      </trkpt>
      <trkpt lat="42.496048" lon="1.567758">
        <ele>2082.000000</ele>
        <time>2020-08-22T11:08:32Z</time>
      </trkpt>
      <trkpt lat="42.496048" lon="1.567758">
        <ele>2082.000000</ele>
        <time>2020-08-22T11:08:32Z</time>
      </trkpt>
      <trkpt lat="42.496037" lon="1.567727">
        <ele>2082.000000</ele>
        <time>2020-08-22T11:08:39Z</time>
      </trkpt>
      <trkpt lat="42.496037" lon="1.567727">
        <ele>2082.000000</ele>
        <time>2020-08-22T11:08:39Z</time>
      </trkpt>
      <trkpt lat="42.496021" lon="1.567696">
        <ele>2082.000000</ele>
        <time>2020-08-22T11:08:39Z</time>
      </trkpt>
      <trkpt lat="42.496021" lon="1.567696">
        <ele>2082.000000</ele>
        <time>2020-08-22T11:08:39Z</time>
      </trkpt>
      <trkpt lat="42.496006" lon="1.567664">
        <ele>2082.000000</ele>
        <time>2020-08-22T11:08:39Z</time>
      </trkpt>
      <trkpt lat="42.496006" lon="1.567664">
        <ele>2082.000000</ele>
        <time>2020-08-22T11:08:39Z</time>
      </trkpt>
      <trkpt lat="42.495998" lon="1.567648">
        <ele>2082.000000</ele>
        <time>2020-08-22T11:08:46Z</time>
      </trkpt>
      <trkpt lat="42.495998" lon="1.567648">
        <ele>2082.000000</ele>
        <time>2020-08-22T11:08:46Z</time>
      </trkpt>
      <trkpt lat="42.495995" lon="1.567633">
        <ele>2082.000000</ele>
        <time>2020-08-22T11:08:46Z</time>
      </trkpt>
      <trkpt lat="42.495995" lon="1.567633">
        <ele>2082.000000</ele>
        <time>2020-08-22T11:08:46Z</time>
      </trkpt>
      <trkpt lat="42.495991" lon="1.567620">
        <ele>2082.000000</ele>
        <time>2020-08-22T11:08:46Z</time>
      </trkpt>
      <trkpt lat="42.495991" lon="1.567620">
        <ele>2082.000000</ele>
        <time>2020-08-22T11:08:46Z</time>
      </trkpt>
      <trkpt lat="42.495987" lon="1.567607">
        <ele>2082.000000</ele>
        <time>2020-08-22T11:08:46Z</time>
      </trkpt>
      <trkpt lat="42.495987" lon="1.567607">
        <ele>2082.000000</ele>
        <time>2020-08-22T11:08:46Z</time>
      </trkpt>
      <trkpt lat="42.495983" lon="1.567597">
        <ele>2082.000000</ele>
        <time>2020-08-22T11:08:46Z</time>
      </trkpt>
      <trkpt lat="42.495983" lon="1.567597">
        <ele>2082.000000</ele>
        <time>2020-08-22T11:08:46Z</time>
      </trkpt>
      <trkpt lat="42.495987" lon="1.567590">
        <ele>2082.000000</ele>
        <time>2020-08-22T11:08:46Z</time>
      </trkpt>
      <trkpt lat="42.495987" lon="1.567590">
        <ele>2082.000000</ele>
        <time>2020-08-22T11:08:46Z</time>
      </trkpt>
      <trkpt lat="42.495991" lon="1.567587">
        <ele>2082.000000</ele>
        <time>2020-08-22T11:08:46Z</time>
      </trkpt>
      <trkpt lat="42.495991" lon="1.567587">
        <ele>2082.000000</ele>
        <time>2020-08-22T11:08:46Z</time>
      </trkpt>
      <trkpt lat="42.495998" lon="1.567586">
        <ele>2082.000000</ele>
        <time>2020-08-22T11:08:54Z</time>
      </trkpt>
      <trkpt lat="42.495998" lon="1.567586">
        <ele>2082.000000</ele>
        <time>2020-08-22T11:08:54Z</time>
      </trkpt>
      <trkpt lat="42.496006" lon="1.567587">
        <ele>2082.000000</ele>
        <time>2020-08-22T11:08:54Z</time>
      </trkpt>
      <trkpt lat="42.496006" lon="1.567587">
        <ele>2082.000000</ele>
        <time>2020-08-22T11:08:54Z</time>
      </trkpt>
      <trkpt lat="42.496014" lon="1.567590">
        <ele>2083.000000</ele>
        <time>2020-08-22T11:08:54Z</time>
      </trkpt>
      <trkpt lat="42.496014" lon="1.567590">
        <ele>2083.000000</ele>
        <time>2020-08-22T11:08:54Z</time>
      </trkpt>
      <trkpt lat="42.496029" lon="1.567587">
        <ele>2083.000000</ele>
        <time>2020-08-22T11:08:54Z</time>
      </trkpt>
      <trkpt lat="42.496029" lon="1.567587">
        <ele>2083.000000</ele>
        <time>2020-08-22T11:08:54Z</time>
      </trkpt>
      <trkpt lat="42.496044" lon="1.567582">
        <ele>2083.000000</ele>
        <time>2020-08-22T11:08:54Z</time>
      </trkpt>
      <trkpt lat="42.496044" lon="1.567582">
        <ele>2083.000000</ele>
        <time>2020-08-22T11:08:54Z</time>
      </trkpt>
      <trkpt lat="42.496059" lon="1.567574">
        <ele>2083.000000</ele>
        <time>2020-08-22T11:08:54Z</time>
      </trkpt>
      <trkpt lat="42.496059" lon="1.567574">
        <ele>2083.000000</ele>
        <time>2020-08-22T11:08:54Z</time>
      </trkpt>
      <trkpt lat="42.496075" lon="1.567563">
        <ele>2083.000000</ele>
        <time>2020-08-22T11:08:54Z</time>
      </trkpt>
      <trkpt lat="42.496075" lon="1.567563">
        <ele>2083.000000</ele>
        <time>2020-08-22T11:08:54Z</time>
      </trkpt>
      <trkpt lat="42.496086" lon="1.567550">
        <ele>2083.000000</ele>
        <time>2020-08-22T11:08:54Z</time>
      </trkpt>
      <trkpt lat="42.496086" lon="1.567550">
        <ele>2083.000000</ele>
        <time>2020-08-22T11:08:54Z</time>
      </trkpt>
      <trkpt lat="42.496105" lon="1.567533">
        <ele>2083.000000</ele>
        <time>2020-08-22T11:09:02Z</time>
      </trkpt>
      <trkpt lat="42.496105" lon="1.567533">
        <ele>2083.000000</ele>
        <time>2020-08-22T11:09:02Z</time>
      </trkpt>
      <trkpt lat="42.496117" lon="1.567514">
        <ele>2083.000000</ele>
        <time>2020-08-22T11:09:02Z</time>
      </trkpt>
      <trkpt lat="42.496117" lon="1.567514">
        <ele>2083.000000</ele>
        <time>2020-08-22T11:09:02Z</time>
      </trkpt>
      <trkpt lat="42.496128" lon="1.567493">
        <ele>2083.000000</ele>
        <time>2020-08-22T11:09:02Z</time>
      </trkpt>
      <trkpt lat="42.496128" lon="1.567493">
        <ele>2083.000000</ele>
        <time>2020-08-22T11:09:02Z</time>
      </trkpt>
      <trkpt lat="42.496140" lon="1.567471">
        <ele>2083.000000</ele>
        <time>2020-08-22T11:09:02Z</time>
      </trkpt>
      <trkpt lat="42.496140" lon="1.567471">
        <ele>2083.000000</ele>
        <time>2020-08-22T11:09:02Z</time>
      </trkpt>
      <trkpt lat="42.496147" lon="1.567448">
        <ele>2083.000000</ele>
        <time>2020-08-22T11:09:02Z</time>
      </trkpt>
      <trkpt lat="42.496147" lon="1.567448">
        <ele>2083.000000</ele>
        <time>2020-08-22T11:09:02Z</time>
      </trkpt>
      <trkpt lat="42.496166" lon="1.567433">
        <ele>2083.000000</ele>
        <time>2020-08-22T11:09:02Z</time>
      </trkpt>
      <trkpt lat="42.496166" lon="1.567433">
        <ele>2083.000000</ele>
        <time>2020-08-22T11:09:02Z</time>
      </trkpt>
      <trkpt lat="42.496181" lon="1.567417">
        <ele>2083.000000</ele>
        <time>2020-08-22T11:09:09Z</time>
      </trkpt>
      <trkpt lat="42.496181" lon="1.567417">
        <ele>2083.000000</ele>
        <time>2020-08-22T11:09:09Z</time>
      </trkpt>
      <trkpt lat="42.496197" lon="1.567400">
        <ele>2083.000000</ele>
        <time>2020-08-22T11:09:09Z</time>
      </trkpt>
      <trkpt lat="42.496197" lon="1.567400">
        <ele>2083.000000</ele>
        <time>2020-08-22T11:09:09Z</time>
      </trkpt>
      <trkpt lat="42.496212" lon="1.567384">
        <ele>2083.000000</ele>
        <time>2020-08-22T11:09:09Z</time>
      </trkpt>
      <trkpt lat="42.496212" lon="1.567384">
        <ele>2083.000000</ele>
        <time>2020-08-22T11:09:09Z</time>
      </trkpt>
      <trkpt lat="42.496223" lon="1.567368">
        <ele>2083.000000</ele>
        <time>2020-08-22T11:09:09Z</time>
      </trkpt>
      <trkpt lat="42.496223" lon="1.567368">
        <ele>2083.000000</ele>
        <time>2020-08-22T11:09:09Z</time>
      </trkpt>
      <trkpt lat="42.496235" lon="1.567352">
        <ele>2083.000000</ele>
        <time>2020-08-22T11:09:09Z</time>
      </trkpt>
      <trkpt lat="42.496235" lon="1.567352">
        <ele>2083.000000</ele>
        <time>2020-08-22T11:09:09Z</time>
      </trkpt>
      <trkpt lat="42.496246" lon="1.567335">
        <ele>2084.000000</ele>
        <time>2020-08-22T11:09:09Z</time>
      </trkpt>
      <trkpt lat="42.496246" lon="1.567335">
        <ele>2084.000000</ele>
        <time>2020-08-22T11:09:09Z</time>
      </trkpt>
      <trkpt lat="42.496254" lon="1.567316">
        <ele>2084.000000</ele>
        <time>2020-08-22T11:09:09Z</time>
      </trkpt>
      <trkpt lat="42.496254" lon="1.567316">
        <ele>2084.000000</ele>
        <time>2020-08-22T11:09:09Z</time>
      </trkpt>
      <trkpt lat="42.496262" lon="1.567294">
        <ele>2084.000000</ele>
        <time>2020-08-22T11:09:16Z</time>
      </trkpt>
      <trkpt lat="42.496262" lon="1.567294">
        <ele>2084.000000</ele>
        <time>2020-08-22T11:09:16Z</time>
      </trkpt>
      <trkpt lat="42.496265" lon="1.567271">
        <ele>2084.000000</ele>
        <time>2020-08-22T11:09:16Z</time>
      </trkpt>
      <trkpt lat="42.496265" lon="1.567271">
        <ele>2084.000000</ele>
        <time>2020-08-22T11:09:16Z</time>
      </trkpt>
      <trkpt lat="42.496246" lon="1.567223">
        <ele>2084.000000</ele>
        <time>2020-08-22T11:09:23Z</time>
      </trkpt>
      <trkpt lat="42.496246" lon="1.567223">
        <ele>2084.000000</ele>
        <time>2020-08-22T11:09:23Z</time>
      </trkpt>
      <trkpt lat="42.496231" lon="1.567176">
        <ele>2084.000000</ele>
        <time>2020-08-22T11:09:23Z</time>
      </trkpt>
      <trkpt lat="42.496231" lon="1.567176">
        <ele>2084.000000</ele>
        <time>2020-08-22T11:09:23Z</time>
      </trkpt>
      <trkpt lat="42.496212" lon="1.567130">
        <ele>2085.000000</ele>
        <time>2020-08-22T11:09:23Z</time>
      </trkpt>
      <trkpt lat="42.496212" lon="1.567130">
        <ele>2085.000000</ele>
        <time>2020-08-22T11:09:23Z</time>
      </trkpt>
      <trkpt lat="42.496197" lon="1.567083">
        <ele>2085.000000</ele>
        <time>2020-08-22T11:09:23Z</time>
      </trkpt>
      <trkpt lat="42.496197" lon="1.567083">
        <ele>2085.000000</ele>
        <time>2020-08-22T11:09:23Z</time>
      </trkpt>
      <trkpt lat="42.496181" lon="1.567036">
        <ele>2085.000000</ele>
        <time>2020-08-22T11:09:23Z</time>
      </trkpt>
      <trkpt lat="42.496181" lon="1.567036">
        <ele>2086.000000</ele>
        <time>2020-08-22T11:09:23Z</time>
      </trkpt>
      <trkpt lat="42.496162" lon="1.566989">
        <ele>2086.000000</ele>
        <time>2020-08-22T11:09:23Z</time>
      </trkpt>
      <trkpt lat="42.496162" lon="1.566989">
        <ele>2086.000000</ele>
        <time>2020-08-22T11:09:23Z</time>
      </trkpt>
      <trkpt lat="42.496147" lon="1.566943">
        <ele>2086.000000</ele>
        <time>2020-08-22T11:09:23Z</time>
      </trkpt>
      <trkpt lat="42.496147" lon="1.566943">
        <ele>2086.000000</ele>
        <time>2020-08-22T11:09:23Z</time>
      </trkpt>
      <trkpt lat="42.496132" lon="1.566897">
        <ele>2086.000000</ele>
        <time>2020-08-22T11:09:30Z</time>
      </trkpt>
      <trkpt lat="42.496132" lon="1.566897">
        <ele>2087.000000</ele>
        <time>2020-08-22T11:09:30Z</time>
      </trkpt>
      <trkpt lat="42.496113" lon="1.566853">
        <ele>2087.000000</ele>
        <time>2020-08-22T11:09:30Z</time>
      </trkpt>
      <trkpt lat="42.496113" lon="1.566853">
        <ele>2087.000000</ele>
        <time>2020-08-22T11:09:30Z</time>
      </trkpt>
      <trkpt lat="42.496101" lon="1.566809">
        <ele>2087.000000</ele>
        <time>2020-08-22T11:09:30Z</time>
      </trkpt>
      <trkpt lat="42.496101" lon="1.566809">
        <ele>2087.000000</ele>
        <time>2020-08-22T11:09:30Z</time>
      </trkpt>
      <trkpt lat="42.496098" lon="1.566789">
        <ele>2087.000000</ele>
        <time>2020-08-22T11:09:30Z</time>
      </trkpt>
      <trkpt lat="42.496098" lon="1.566789">
        <ele>2087.000000</ele>
        <time>2020-08-22T11:09:30Z</time>
      </trkpt>
      <trkpt lat="42.496098" lon="1.566770">
        <ele>2087.000000</ele>
        <time>2020-08-22T11:09:30Z</time>
      </trkpt>
      <trkpt lat="42.496098" lon="1.566770">
        <ele>2087.000000</ele>
        <time>2020-08-22T11:09:30Z</time>
      </trkpt>
      <trkpt lat="42.496094" lon="1.566752">
        <ele>2087.000000</ele>
        <time>2020-08-22T11:09:30Z</time>
      </trkpt>
      <trkpt lat="42.496094" lon="1.566752">
        <ele>2087.000000</ele>
        <time>2020-08-22T11:09:30Z</time>
      </trkpt>
      <trkpt lat="42.496086" lon="1.566735">
        <ele>2088.000000</ele>
        <time>2020-08-22T11:09:30Z</time>
      </trkpt>
      <trkpt lat="42.496086" lon="1.566735">
        <ele>2088.000000</ele>
        <time>2020-08-22T11:09:30Z</time>
      </trkpt>
      <trkpt lat="42.496086" lon="1.566719">
        <ele>2088.000000</ele>
        <time>2020-08-22T11:09:37Z</time>
      </trkpt>
      <trkpt lat="42.496086" lon="1.566719">
        <ele>2088.000000</ele>
        <time>2020-08-22T11:09:37Z</time>
      </trkpt>
      <trkpt lat="42.496078" lon="1.566704">
        <ele>2088.000000</ele>
        <time>2020-08-22T11:09:37Z</time>
      </trkpt>
      <trkpt lat="42.496078" lon="1.566704">
        <ele>2088.000000</ele>
        <time>2020-08-22T11:09:37Z</time>
      </trkpt>
      <trkpt lat="42.496071" lon="1.566691">
        <ele>2088.000000</ele>
        <time>2020-08-22T11:09:37Z</time>
      </trkpt>
      <trkpt lat="42.496071" lon="1.566691">
        <ele>2088.000000</ele>
        <time>2020-08-22T11:09:37Z</time>
      </trkpt>
      <trkpt lat="42.496067" lon="1.566678">
        <ele>2088.000000</ele>
        <time>2020-08-22T11:09:37Z</time>
      </trkpt>
      <trkpt lat="42.496067" lon="1.566678">
        <ele>2088.000000</ele>
        <time>2020-08-22T11:09:37Z</time>
      </trkpt>
      <trkpt lat="42.496063" lon="1.566666">
        <ele>2088.000000</ele>
        <time>2020-08-22T11:09:37Z</time>
      </trkpt>
      <trkpt lat="42.496063" lon="1.566666">
        <ele>2088.000000</ele>
        <time>2020-08-22T11:09:37Z</time>
      </trkpt>
      <trkpt lat="42.496056" lon="1.566654">
        <ele>2088.000000</ele>
        <time>2020-08-22T11:09:37Z</time>
      </trkpt>
      <trkpt lat="42.496056" lon="1.566654">
        <ele>2088.000000</ele>
        <time>2020-08-22T11:09:37Z</time>
      </trkpt>
      <trkpt lat="42.496052" lon="1.566622">
        <ele>2088.000000</ele>
        <time>2020-08-22T11:09:37Z</time>
      </trkpt>
      <trkpt lat="42.496052" lon="1.566622">
        <ele>2088.000000</ele>
        <time>2020-08-22T11:09:37Z</time>
      </trkpt>
      <trkpt lat="42.496052" lon="1.566588">
        <ele>2088.000000</ele>
        <time>2020-08-22T11:09:37Z</time>
      </trkpt>
      <trkpt lat="42.496052" lon="1.566588">
        <ele>2088.000000</ele>
        <time>2020-08-22T11:09:37Z</time>
      </trkpt>
      <trkpt lat="42.496048" lon="1.566553">
        <ele>2088.000000</ele>
        <time>2020-08-22T11:09:37Z</time>
      </trkpt>
      <trkpt lat="42.496048" lon="1.566553">
        <ele>2088.000000</ele>
        <time>2020-08-22T11:09:37Z</time>
      </trkpt>
      <trkpt lat="42.496048" lon="1.566518">
        <ele>2088.000000</ele>
        <time>2020-08-22T11:09:37Z</time>
      </trkpt>
      <trkpt lat="42.496048" lon="1.566518">
        <ele>2088.000000</ele>
        <time>2020-08-22T11:09:37Z</time>
      </trkpt>
      <trkpt lat="42.496048" lon="1.566484">
        <ele>2088.000000</ele>
        <time>2020-08-22T11:09:37Z</time>
      </trkpt>
      <trkpt lat="42.496048" lon="1.566484">
        <ele>2088.000000</ele>
        <time>2020-08-22T11:09:37Z</time>
      </trkpt>
      <trkpt lat="42.496052" lon="1.566450">
        <ele>2088.000000</ele>
        <time>2020-08-22T11:09:44Z</time>
      </trkpt>
      <trkpt lat="42.496052" lon="1.566450">
        <ele>2088.000000</ele>
        <time>2020-08-22T11:09:44Z</time>
      </trkpt>
      <trkpt lat="42.496059" lon="1.566416">
        <ele>2088.000000</ele>
        <time>2020-08-22T11:09:44Z</time>
      </trkpt>
      <trkpt lat="42.496059" lon="1.566416">
        <ele>2088.000000</ele>
        <time>2020-08-22T11:09:44Z</time>
      </trkpt>
      <trkpt lat="42.496067" lon="1.566384">
        <ele>2088.000000</ele>
        <time>2020-08-22T11:09:44Z</time>
      </trkpt>
      <trkpt lat="42.496067" lon="1.566384">
        <ele>2088.000000</ele>
        <time>2020-08-22T11:09:44Z</time>
      </trkpt>
      <trkpt lat="42.496075" lon="1.566354">
        <ele>2088.000000</ele>
        <time>2020-08-22T11:09:44Z</time>
      </trkpt>
      <trkpt lat="42.496075" lon="1.566354">
        <ele>2088.000000</ele>
        <time>2020-08-22T11:09:44Z</time>
      </trkpt>
      <trkpt lat="42.496086" lon="1.566325">
        <ele>2088.000000</ele>
        <time>2020-08-22T11:09:44Z</time>
      </trkpt>
      <trkpt lat="42.496086" lon="1.566325">
        <ele>2088.000000</ele>
        <time>2020-08-22T11:09:44Z</time>
      </trkpt>
      <trkpt lat="42.496094" lon="1.566334">
        <ele>2088.000000</ele>
        <time>2020-08-22T11:09:44Z</time>
      </trkpt>
      <trkpt lat="42.496094" lon="1.566334">
        <ele>2088.000000</ele>
        <time>2020-08-22T11:09:44Z</time>
      </trkpt>
      <trkpt lat="42.496098" lon="1.566345">
        <ele>2088.000000</ele>
        <time>2020-08-22T11:09:51Z</time>
      </trkpt>
      <trkpt lat="42.496098" lon="1.566345">
        <ele>2088.000000</ele>
        <time>2020-08-22T11:09:51Z</time>
      </trkpt>
      <trkpt lat="42.496101" lon="1.566358">
        <ele>2088.000000</ele>
        <time>2020-08-22T11:09:51Z</time>
      </trkpt>
      <trkpt lat="42.496101" lon="1.566358">
        <ele>2088.000000</ele>
        <time>2020-08-22T11:09:51Z</time>
      </trkpt>
      <trkpt lat="42.496105" lon="1.566372">
        <ele>2088.000000</ele>
        <time>2020-08-22T11:09:51Z</time>
      </trkpt>
      <trkpt lat="42.496105" lon="1.566372">
        <ele>2088.000000</ele>
        <time>2020-08-22T11:09:51Z</time>
      </trkpt>
      <trkpt lat="42.496105" lon="1.566386">
        <ele>2088.000000</ele>
        <time>2020-08-22T11:09:51Z</time>
      </trkpt>
      <trkpt lat="42.496105" lon="1.566386">
        <ele>2086.000000</ele>
        <time>2020-08-22T11:09:51Z</time>
      </trkpt>
      <trkpt lat="42.496105" lon="1.566401">
        <ele>2086.000000</ele>
        <time>2020-08-22T11:09:51Z</time>
      </trkpt>
      <trkpt lat="42.496105" lon="1.566401">
        <ele>2086.000000</ele>
        <time>2020-08-22T11:09:51Z</time>
      </trkpt>
      <trkpt lat="42.496105" lon="1.566417">
        <ele>2086.000000</ele>
        <time>2020-08-22T11:09:51Z</time>
      </trkpt>
      <trkpt lat="42.496105" lon="1.566417">
        <ele>2086.000000</ele>
        <time>2020-08-22T11:09:51Z</time>
      </trkpt>
      <trkpt lat="42.496105" lon="1.566432">
        <ele>2086.000000</ele>
        <time>2020-08-22T11:09:58Z</time>
      </trkpt>
      <trkpt lat="42.496105" lon="1.566432">
        <ele>2086.000000</ele>
        <time>2020-08-22T11:09:58Z</time>
      </trkpt>
      <trkpt lat="42.496105" lon="1.566448">
        <ele>2086.000000</ele>
        <time>2020-08-22T11:09:58Z</time>
      </trkpt>
      <trkpt lat="42.496105" lon="1.566448">
        <ele>2086.000000</ele>
        <time>2020-08-22T11:09:58Z</time>
      </trkpt>
      <trkpt lat="42.496105" lon="1.566464">
        <ele>2086.000000</ele>
        <time>2020-08-22T11:09:58Z</time>
      </trkpt>
      <trkpt lat="42.496105" lon="1.566464">
        <ele>2086.000000</ele>
        <time>2020-08-22T11:09:58Z</time>
      </trkpt>
      <trkpt lat="42.496105" lon="1.566466">
        <ele>2086.000000</ele>
        <time>2020-08-22T11:09:58Z</time>
      </trkpt>
      <trkpt lat="42.496105" lon="1.566466">
        <ele>2086.000000</ele>
        <time>2020-08-22T11:09:58Z</time>
      </trkpt>
      <trkpt lat="42.496109" lon="1.566470">
        <ele>2086.000000</ele>
        <time>2020-08-22T11:09:58Z</time>
      </trkpt>
      <trkpt lat="42.496109" lon="1.566470">
        <ele>2086.000000</ele>
        <time>2020-08-22T11:09:58Z</time>
      </trkpt>
      <trkpt lat="42.496113" lon="1.566474">
        <ele>2086.000000</ele>
        <time>2020-08-22T11:09:58Z</time>
      </trkpt>
      <trkpt lat="42.496113" lon="1.566474">
        <ele>2086.000000</ele>
        <time>2020-08-22T11:09:58Z</time>
      </trkpt>
      <trkpt lat="42.496113" lon="1.566479">
        <ele>2086.000000</ele>
        <time>2020-08-22T11:10:05Z</time>
      </trkpt>
      <trkpt lat="42.496113" lon="1.566479">
        <ele>2086.000000</ele>
        <time>2020-08-22T11:10:05Z</time>
      </trkpt>
      <trkpt lat="42.496117" lon="1.566484">
        <ele>2086.000000</ele>
        <time>2020-08-22T11:10:05Z</time>
      </trkpt>
      <trkpt lat="42.496117" lon="1.566484">
        <ele>2086.000000</ele>
        <time>2020-08-22T11:10:05Z</time>
      </trkpt>
      <trkpt lat="42.496113" lon="1.566490">
        <ele>2086.000000</ele>
        <time>2020-08-22T11:10:05Z</time>
      </trkpt>
      <trkpt lat="42.496113" lon="1.566490">
        <ele>2086.000000</ele>
        <time>2020-08-22T11:10:05Z</time>
      </trkpt>
      <trkpt lat="42.496113" lon="1.566496">
        <ele>2086.000000</ele>
        <time>2020-08-22T11:10:05Z</time>
      </trkpt>
      <trkpt lat="42.496113" lon="1.566496">
        <ele>2086.000000</ele>
        <time>2020-08-22T11:10:05Z</time>
      </trkpt>
      <trkpt lat="42.496109" lon="1.566502">
        <ele>2086.000000</ele>
        <time>2020-08-22T11:10:05Z</time>
      </trkpt>
      <trkpt lat="42.496109" lon="1.566502">
        <ele>2086.000000</ele>
        <time>2020-08-22T11:10:05Z</time>
      </trkpt>
      <trkpt lat="42.496105" lon="1.566509">
        <ele>2086.000000</ele>
        <time>2020-08-22T11:10:05Z</time>
      </trkpt>
      <trkpt lat="42.496105" lon="1.566509">
        <ele>2086.000000</ele>
        <time>2020-08-22T11:10:05Z</time>
      </trkpt>
      <trkpt lat="42.496098" lon="1.566516">
        <ele>2086.000000</ele>
        <time>2020-08-22T11:10:05Z</time>
      </trkpt>
      <trkpt lat="42.496098" lon="1.566516">
        <ele>2086.000000</ele>
        <time>2020-08-22T11:10:05Z</time>
      </trkpt>
      <trkpt lat="42.496086" lon="1.566527">
        <ele>2086.000000</ele>
        <time>2020-08-22T11:10:05Z</time>
      </trkpt>
      <trkpt lat="42.496086" lon="1.566527">
        <ele>2086.000000</ele>
        <time>2020-08-22T11:10:05Z</time>
      </trkpt>
      <trkpt lat="42.496078" lon="1.566539">
        <ele>2086.000000</ele>
        <time>2020-08-22T11:10:05Z</time>
      </trkpt>
      <trkpt lat="42.496078" lon="1.566539">
        <ele>2086.000000</ele>
        <time>2020-08-22T11:10:05Z</time>
      </trkpt>
      <trkpt lat="42.496071" lon="1.566551">
        <ele>2086.000000</ele>
        <time>2020-08-22T11:10:05Z</time>
      </trkpt>
      <trkpt lat="42.496071" lon="1.566551">
        <ele>2086.000000</ele>
        <time>2020-08-22T11:10:05Z</time>
      </trkpt>
      <trkpt lat="42.496059" lon="1.566564">
        <ele>2086.000000</ele>
        <time>2020-08-22T11:10:12Z</time>
      </trkpt>
      <trkpt lat="42.496059" lon="1.566564">
        <ele>2086.000000</ele>
        <time>2020-08-22T11:10:12Z</time>
      </trkpt>
      <trkpt lat="42.496048" lon="1.566577">
        <ele>2086.000000</ele>
        <time>2020-08-22T11:10:12Z</time>
      </trkpt>
      <trkpt lat="42.496048" lon="1.566577">
        <ele>2086.000000</ele>
        <time>2020-08-22T11:10:12Z</time>
      </trkpt>
      <trkpt lat="42.496040" lon="1.566591">
        <ele>2086.000000</ele>
        <time>2020-08-22T11:10:12Z</time>
      </trkpt>
      <trkpt lat="42.496040" lon="1.566591">
        <ele>2086.000000</ele>
        <time>2020-08-22T11:10:12Z</time>
      </trkpt>
      <trkpt lat="42.496029" lon="1.566604">
        <ele>2086.000000</ele>
        <time>2020-08-22T11:10:12Z</time>
      </trkpt>
      <trkpt lat="42.496029" lon="1.566604">
        <ele>2086.000000</ele>
        <time>2020-08-22T11:10:12Z</time>
      </trkpt>
      <trkpt lat="42.496017" lon="1.566618">
        <ele>2086.000000</ele>
        <time>2020-08-22T11:10:12Z</time>
      </trkpt>
      <trkpt lat="42.496017" lon="1.566618">
        <ele>2086.000000</ele>
        <time>2020-08-22T11:10:12Z</time>
      </trkpt>
      <trkpt lat="42.496010" lon="1.566632">
        <ele>2086.000000</ele>
        <time>2020-08-22T11:10:12Z</time>
      </trkpt>
      <trkpt lat="42.496010" lon="1.566632">
        <ele>2086.000000</ele>
        <time>2020-08-22T11:10:12Z</time>
      </trkpt>
      <trkpt lat="42.495998" lon="1.566648">
        <ele>2086.000000</ele>
        <time>2020-08-22T11:10:12Z</time>
      </trkpt>
      <trkpt lat="42.495998" lon="1.566648">
        <ele>2086.000000</ele>
        <time>2020-08-22T11:10:12Z</time>
      </trkpt>
      <trkpt lat="42.495991" lon="1.566659">
        <ele>2086.000000</ele>
        <time>2020-08-22T11:10:19Z</time>
      </trkpt>
      <trkpt lat="42.495991" lon="1.566659">
        <ele>2086.000000</ele>
        <time>2020-08-22T11:10:19Z</time>
      </trkpt>
      <trkpt lat="42.495983" lon="1.566671">
        <ele>2086.000000</ele>
        <time>2020-08-22T11:10:19Z</time>
      </trkpt>
      <trkpt lat="42.495983" lon="1.566671">
        <ele>2086.000000</ele>
        <time>2020-08-22T11:10:19Z</time>
      </trkpt>
      <trkpt lat="42.495972" lon="1.566683">
        <ele>2086.000000</ele>
        <time>2020-08-22T11:10:19Z</time>
      </trkpt>
      <trkpt lat="42.495972" lon="1.566683">
        <ele>2086.000000</ele>
        <time>2020-08-22T11:10:19Z</time>
      </trkpt>
      <trkpt lat="42.495964" lon="1.566696">
        <ele>2086.000000</ele>
        <time>2020-08-22T11:10:19Z</time>
      </trkpt>
      <trkpt lat="42.495964" lon="1.566696">
        <ele>2086.000000</ele>
        <time>2020-08-22T11:10:19Z</time>
      </trkpt>
      <trkpt lat="42.495956" lon="1.566709">
        <ele>2086.000000</ele>
        <time>2020-08-22T11:10:19Z</time>
      </trkpt>
      <trkpt lat="42.495956" lon="1.566709">
        <ele>2086.000000</ele>
        <time>2020-08-22T11:10:19Z</time>
      </trkpt>
      <trkpt lat="42.495945" lon="1.566723">
        <ele>2086.000000</ele>
        <time>2020-08-22T11:10:19Z</time>
      </trkpt>
      <trkpt lat="42.495945" lon="1.566723">
        <ele>2086.000000</ele>
        <time>2020-08-22T11:10:19Z</time>
      </trkpt>
      <trkpt lat="42.495941" lon="1.566739">
        <ele>2086.000000</ele>
        <time>2020-08-22T11:10:19Z</time>
      </trkpt>
      <trkpt lat="42.495941" lon="1.566739">
        <ele>2086.000000</ele>
        <time>2020-08-22T11:10:19Z</time>
      </trkpt>
      <trkpt lat="42.495934" lon="1.566755">
        <ele>2086.000000</ele>
        <time>2020-08-22T11:10:26Z</time>
      </trkpt>
      <trkpt lat="42.495934" lon="1.566755">
        <ele>2086.000000</ele>
        <time>2020-08-22T11:10:26Z</time>
      </trkpt>
      <trkpt lat="42.495926" lon="1.566773">
        <ele>2086.000000</ele>
        <time>2020-08-22T11:10:26Z</time>
      </trkpt>
      <trkpt lat="42.495926" lon="1.566773">
        <ele>2086.000000</ele>
        <time>2020-08-22T11:10:26Z</time>
      </trkpt>
      <trkpt lat="42.495918" lon="1.566790">
        <ele>2086.000000</ele>
        <time>2020-08-22T11:10:26Z</time>
      </trkpt>
      <trkpt lat="42.495918" lon="1.566790">
        <ele>2086.000000</ele>
        <time>2020-08-22T11:10:26Z</time>
      </trkpt>
      <trkpt lat="42.495907" lon="1.566821">
        <ele>2086.000000</ele>
        <time>2020-08-22T11:10:26Z</time>
      </trkpt>
      <trkpt lat="42.495907" lon="1.566821">
        <ele>2086.000000</ele>
        <time>2020-08-22T11:10:26Z</time>
      </trkpt>
      <trkpt lat="42.495895" lon="1.566852">
        <ele>2086.000000</ele>
        <time>2020-08-22T11:10:26Z</time>
      </trkpt>
      <trkpt lat="42.495895" lon="1.566852">
        <ele>2086.000000</ele>
        <time>2020-08-22T11:10:26Z</time>
      </trkpt>
      <trkpt lat="42.495884" lon="1.566883">
        <ele>2086.000000</ele>
        <time>2020-08-22T11:10:26Z</time>
      </trkpt>
      <trkpt lat="42.495884" lon="1.566883">
        <ele>2086.000000</ele>
        <time>2020-08-22T11:10:26Z</time>
      </trkpt>
      <trkpt lat="42.495876" lon="1.566916">
        <ele>2086.000000</ele>
        <time>2020-08-22T11:10:26Z</time>
      </trkpt>
      <trkpt lat="42.495876" lon="1.566916">
        <ele>2086.000000</ele>
        <time>2020-08-22T11:10:26Z</time>
      </trkpt>
      <trkpt lat="42.495872" lon="1.566949">
        <ele>2086.000000</ele>
        <time>2020-08-22T11:10:26Z</time>
      </trkpt>
      <trkpt lat="42.495872" lon="1.566949">
        <ele>2086.000000</ele>
        <time>2020-08-22T11:10:26Z</time>
      </trkpt>
      <trkpt lat="42.495865" lon="1.566983">
        <ele>2086.000000</ele>
        <time>2020-08-22T11:10:34Z</time>
      </trkpt>
      <trkpt lat="42.495865" lon="1.566983">
        <ele>2086.000000</ele>
        <time>2020-08-22T11:10:34Z</time>
      </trkpt>
      <trkpt lat="42.495861" lon="1.567016">
        <ele>2086.000000</ele>
        <time>2020-08-22T11:10:34Z</time>
      </trkpt>
      <trkpt lat="42.495861" lon="1.567016">
        <ele>2086.000000</ele>
        <time>2020-08-22T11:10:34Z</time>
      </trkpt>
      <trkpt lat="42.495857" lon="1.567048">
        <ele>2086.000000</ele>
        <time>2020-08-22T11:10:34Z</time>
      </trkpt>
      <trkpt lat="42.495857" lon="1.567048">
        <ele>2086.000000</ele>
        <time>2020-08-22T11:10:34Z</time>
      </trkpt>
      <trkpt lat="42.495853" lon="1.567079">
        <ele>2086.000000</ele>
        <time>2020-08-22T11:10:34Z</time>
      </trkpt>
      <trkpt lat="42.495853" lon="1.567079">
        <ele>2086.000000</ele>
        <time>2020-08-22T11:10:34Z</time>
      </trkpt>
      <trkpt lat="42.495850" lon="1.567110">
        <ele>2086.000000</ele>
        <time>2020-08-22T11:10:34Z</time>
      </trkpt>
      <trkpt lat="42.495850" lon="1.567110">
        <ele>2086.000000</ele>
        <time>2020-08-22T11:10:34Z</time>
      </trkpt>
      <trkpt lat="42.495850" lon="1.567127">
        <ele>2086.000000</ele>
        <time>2020-08-22T11:10:34Z</time>
      </trkpt>
      <trkpt lat="42.495850" lon="1.567127">
        <ele>2086.000000</ele>
        <time>2020-08-22T11:10:34Z</time>
      </trkpt>
      <trkpt lat="42.495850" lon="1.567144">
        <ele>2087.000000</ele>
        <time>2020-08-22T11:10:34Z</time>
      </trkpt>
      <trkpt lat="42.495850" lon="1.567144">
        <ele>2087.000000</ele>
        <time>2020-08-22T11:10:34Z</time>
      </trkpt>
      <trkpt lat="42.495842" lon="1.567159">
        <ele>2087.000000</ele>
        <time>2020-08-22T11:10:34Z</time>
      </trkpt>
      <trkpt lat="42.495842" lon="1.567159">
        <ele>2087.000000</ele>
        <time>2020-08-22T11:10:34Z</time>
      </trkpt>
      <trkpt lat="42.495838" lon="1.567175">
        <ele>2087.000000</ele>
        <time>2020-08-22T11:10:34Z</time>
      </trkpt>
      <trkpt lat="42.495838" lon="1.567175">
        <ele>2087.000000</ele>
        <time>2020-08-22T11:10:34Z</time>
      </trkpt>
      <trkpt lat="42.495831" lon="1.567190">
        <ele>2087.000000</ele>
        <time>2020-08-22T11:10:41Z</time>
      </trkpt>
      <trkpt lat="42.495831" lon="1.567190">
        <ele>2087.000000</ele>
        <time>2020-08-22T11:10:41Z</time>
      </trkpt>
      <trkpt lat="42.495823" lon="1.567206">
        <ele>2087.000000</ele>
        <time>2020-08-22T11:10:41Z</time>
      </trkpt>
      <trkpt lat="42.495823" lon="1.567206">
        <ele>2087.000000</ele>
        <time>2020-08-22T11:10:41Z</time>
      </trkpt>
      <trkpt lat="42.495819" lon="1.567223">
        <ele>2087.000000</ele>
        <time>2020-08-22T11:10:41Z</time>
      </trkpt>
      <trkpt lat="42.495819" lon="1.567223">
        <ele>2087.000000</ele>
        <time>2020-08-22T11:10:41Z</time>
      </trkpt>
      <trkpt lat="42.495811" lon="1.567240">
        <ele>2085.000000</ele>
        <time>2020-08-22T11:10:41Z</time>
      </trkpt>
      <trkpt lat="42.495811" lon="1.567240">
        <ele>2085.000000</ele>
        <time>2020-08-22T11:10:41Z</time>
      </trkpt>
      <trkpt lat="42.495804" lon="1.567257">
        <ele>2085.000000</ele>
        <time>2020-08-22T11:10:41Z</time>
      </trkpt>
      <trkpt lat="42.495804" lon="1.567257">
        <ele>2085.000000</ele>
        <time>2020-08-22T11:10:41Z</time>
      </trkpt>
      <trkpt lat="42.495796" lon="1.567275">
        <ele>2085.000000</ele>
        <time>2020-08-22T11:10:41Z</time>
      </trkpt>
      <trkpt lat="42.495796" lon="1.567275">
        <ele>2085.000000</ele>
        <time>2020-08-22T11:10:41Z</time>
      </trkpt>
      <trkpt lat="42.495796" lon="1.567292">
        <ele>2085.000000</ele>
        <time>2020-08-22T11:10:41Z</time>
      </trkpt>
      <trkpt lat="42.495796" lon="1.567292">
        <ele>2085.000000</ele>
        <time>2020-08-22T11:10:41Z</time>
      </trkpt>
      <trkpt lat="42.495792" lon="1.567308">
        <ele>2085.000000</ele>
        <time>2020-08-22T11:10:49Z</time>
      </trkpt>
      <trkpt lat="42.495792" lon="1.567308">
        <ele>2085.000000</ele>
        <time>2020-08-22T11:10:49Z</time>
      </trkpt>
      <trkpt lat="42.495789" lon="1.567325">
        <ele>2085.000000</ele>
        <time>2020-08-22T11:10:49Z</time>
      </trkpt>
      <trkpt lat="42.495789" lon="1.567325">
        <ele>2085.000000</ele>
        <time>2020-08-22T11:10:49Z</time>
      </trkpt>
      <trkpt lat="42.495789" lon="1.567340">
        <ele>2085.000000</ele>
        <time>2020-08-22T11:10:49Z</time>
      </trkpt>
      <trkpt lat="42.495789" lon="1.567340">
        <ele>2085.000000</ele>
        <time>2020-08-22T11:10:49Z</time>
      </trkpt>
      <trkpt lat="42.495785" lon="1.567354">
        <ele>2085.000000</ele>
        <time>2020-08-22T11:10:49Z</time>
      </trkpt>
      <trkpt lat="42.495785" lon="1.567354">
        <ele>2085.000000</ele>
        <time>2020-08-22T11:10:49Z</time>
      </trkpt>
      <trkpt lat="42.495785" lon="1.567367">
        <ele>2085.000000</ele>
        <time>2020-08-22T11:10:49Z</time>
      </trkpt>
      <trkpt lat="42.495785" lon="1.567367">
        <ele>2085.000000</ele>
        <time>2020-08-22T11:10:49Z</time>
      </trkpt>
      <trkpt lat="42.495777" lon="1.567379">
        <ele>2085.000000</ele>
        <time>2020-08-22T11:10:49Z</time>
      </trkpt>
      <trkpt lat="42.495777" lon="1.567379">
        <ele>2085.000000</ele>
        <time>2020-08-22T11:10:49Z</time>
      </trkpt>
      <trkpt lat="42.495777" lon="1.567389">
        <ele>2085.000000</ele>
        <time>2020-08-22T11:10:56Z</time>
      </trkpt>
      <trkpt lat="42.495777" lon="1.567389">
        <ele>2085.000000</ele>
        <time>2020-08-22T11:10:56Z</time>
      </trkpt>
      <trkpt lat="42.495769" lon="1.567399">
        <ele>2085.000000</ele>
        <time>2020-08-22T11:10:56Z</time>
      </trkpt>
      <trkpt lat="42.495769" lon="1.567399">
        <ele>2085.000000</ele>
        <time>2020-08-22T11:10:56Z</time>
      </trkpt>
      <trkpt lat="42.495766" lon="1.567410">
        <ele>2085.000000</ele>
        <time>2020-08-22T11:10:56Z</time>
      </trkpt>
      <trkpt lat="42.495766" lon="1.567410">
        <ele>2085.000000</ele>
        <time>2020-08-22T11:10:56Z</time>
      </trkpt>
      <trkpt lat="42.495758" lon="1.567420">
        <ele>2085.000000</ele>
        <time>2020-08-22T11:10:56Z</time>
      </trkpt>
      <trkpt lat="42.495758" lon="1.567420">
        <ele>2085.000000</ele>
        <time>2020-08-22T11:10:56Z</time>
      </trkpt>
      <trkpt lat="42.495750" lon="1.567429">
        <ele>2085.000000</ele>
        <time>2020-08-22T11:10:56Z</time>
      </trkpt>
      <trkpt lat="42.495750" lon="1.567429">
        <ele>2085.000000</ele>
        <time>2020-08-22T11:10:56Z</time>
      </trkpt>
      <trkpt lat="42.495739" lon="1.567438">
        <ele>2085.000000</ele>
        <time>2020-08-22T11:10:56Z</time>
      </trkpt>
      <trkpt lat="42.495739" lon="1.567438">
        <ele>2085.000000</ele>
        <time>2020-08-22T11:10:56Z</time>
      </trkpt>
      <trkpt lat="42.495728" lon="1.567446">
        <ele>2085.000000</ele>
        <time>2020-08-22T11:11:03Z</time>
      </trkpt>
      <trkpt lat="42.495728" lon="1.567446">
        <ele>2085.000000</ele>
        <time>2020-08-22T11:11:03Z</time>
      </trkpt>
      <trkpt lat="42.495716" lon="1.567453">
        <ele>2085.000000</ele>
        <time>2020-08-22T11:11:03Z</time>
      </trkpt>
      <trkpt lat="42.495716" lon="1.567453">
        <ele>2085.000000</ele>
        <time>2020-08-22T11:11:03Z</time>
      </trkpt>
      <trkpt lat="42.495708" lon="1.567460">
        <ele>2085.000000</ele>
        <time>2020-08-22T11:11:03Z</time>
      </trkpt>
      <trkpt lat="42.495708" lon="1.567460">
        <ele>2085.000000</ele>
        <time>2020-08-22T11:11:03Z</time>
      </trkpt>
      <trkpt lat="42.495697" lon="1.567467">
        <ele>2085.000000</ele>
        <time>2020-08-22T11:11:03Z</time>
      </trkpt>
      <trkpt lat="42.495697" lon="1.567467">
        <ele>2085.000000</ele>
        <time>2020-08-22T11:11:03Z</time>
      </trkpt>
      <trkpt lat="42.495686" lon="1.567474">
        <ele>2085.000000</ele>
        <time>2020-08-22T11:11:03Z</time>
      </trkpt>
      <trkpt lat="42.495686" lon="1.567474">
        <ele>2085.000000</ele>
        <time>2020-08-22T11:11:03Z</time>
      </trkpt>
      <trkpt lat="42.495678" lon="1.567480">
        <ele>2085.000000</ele>
        <time>2020-08-22T11:11:03Z</time>
      </trkpt>
      <trkpt lat="42.495678" lon="1.567480">
        <ele>2085.000000</ele>
        <time>2020-08-22T11:11:03Z</time>
      </trkpt>
      <trkpt lat="42.495670" lon="1.567485">
        <ele>2085.000000</ele>
        <time>2020-08-22T11:11:03Z</time>
      </trkpt>
      <trkpt lat="42.495670" lon="1.567485">
        <ele>2082.000000</ele>
        <time>2020-08-22T11:11:03Z</time>
      </trkpt>
      <trkpt lat="42.495659" lon="1.567499">
        <ele>2082.000000</ele>
        <time>2020-08-22T11:11:10Z</time>
      </trkpt>
      <trkpt lat="42.495659" lon="1.567499">
        <ele>2082.000000</ele>
        <time>2020-08-22T11:11:10Z</time>
      </trkpt>
      <trkpt lat="42.495651" lon="1.567515">
        <ele>2082.000000</ele>
        <time>2020-08-22T11:11:10Z</time>
      </trkpt>
      <trkpt lat="42.495651" lon="1.567515">
        <ele>2082.000000</ele>
        <time>2020-08-22T11:11:10Z</time>
      </trkpt>
      <trkpt lat="42.495644" lon="1.567532">
        <ele>2080.000000</ele>
        <time>2020-08-22T11:11:10Z</time>
      </trkpt>
      <trkpt lat="42.495644" lon="1.567532">
        <ele>2080.000000</ele>
        <time>2020-08-22T11:11:10Z</time>
      </trkpt>
      <trkpt lat="42.495636" lon="1.567548">
        <ele>2080.000000</ele>
        <time>2020-08-22T11:11:10Z</time>
      </trkpt>
      <trkpt lat="42.495636" lon="1.567548">
        <ele>2080.000000</ele>
        <time>2020-08-22T11:11:10Z</time>
      </trkpt>
      <trkpt lat="42.495625" lon="1.567565">
        <ele>2080.000000</ele>
        <time>2020-08-22T11:11:10Z</time>
      </trkpt>
      <trkpt lat="42.495625" lon="1.567565">
        <ele>2080.000000</ele>
        <time>2020-08-22T11:11:10Z</time>
      </trkpt>
      <trkpt lat="42.495609" lon="1.567581">
        <ele>2080.000000</ele>
        <time>2020-08-22T11:11:10Z</time>
      </trkpt>
      <trkpt lat="42.495609" lon="1.567581">
        <ele>2080.000000</ele>
        <time>2020-08-22T11:11:10Z</time>
      </trkpt>
      <trkpt lat="42.495598" lon="1.567595">
        <ele>2080.000000</ele>
        <time>2020-08-22T11:11:10Z</time>
      </trkpt>
      <trkpt lat="42.495598" lon="1.567595">
        <ele>2080.000000</ele>
        <time>2020-08-22T11:11:10Z</time>
      </trkpt>
      <trkpt lat="42.495583" lon="1.567609">
        <ele>2080.000000</ele>
        <time>2020-08-22T11:11:17Z</time>
      </trkpt>
      <trkpt lat="42.495583" lon="1.567609">
        <ele>2080.000000</ele>
        <time>2020-08-22T11:11:17Z</time>
      </trkpt>
      <trkpt lat="42.495567" lon="1.567622">
        <ele>2080.000000</ele>
        <time>2020-08-22T11:11:17Z</time>
      </trkpt>
      <trkpt lat="42.495567" lon="1.567622">
        <ele>2080.000000</ele>
        <time>2020-08-22T11:11:17Z</time>
      </trkpt>
      <trkpt lat="42.495552" lon="1.567634">
        <ele>2080.000000</ele>
        <time>2020-08-22T11:11:17Z</time>
      </trkpt>
      <trkpt lat="42.495552" lon="1.567634">
        <ele>2080.000000</ele>
        <time>2020-08-22T11:11:17Z</time>
      </trkpt>
      <trkpt lat="42.495533" lon="1.567638">
        <ele>2080.000000</ele>
        <time>2020-08-22T11:11:17Z</time>
      </trkpt>
      <trkpt lat="42.495533" lon="1.567638">
        <ele>2080.000000</ele>
        <time>2020-08-22T11:11:17Z</time>
      </trkpt>
      <trkpt lat="42.495518" lon="1.567642">
        <ele>2080.000000</ele>
        <time>2020-08-22T11:11:17Z</time>
      </trkpt>
      <trkpt lat="42.495518" lon="1.567642">
        <ele>2080.000000</ele>
        <time>2020-08-22T11:11:17Z</time>
      </trkpt>
      <trkpt lat="42.495499" lon="1.567644">
        <ele>2080.000000</ele>
        <time>2020-08-22T11:11:17Z</time>
      </trkpt>
      <trkpt lat="42.495499" lon="1.567644">
        <ele>2080.000000</ele>
        <time>2020-08-22T11:11:17Z</time>
      </trkpt>
      <trkpt lat="42.495483" lon="1.567645">
        <ele>2080.000000</ele>
        <time>2020-08-22T11:11:17Z</time>
      </trkpt>
      <trkpt lat="42.495483" lon="1.567645">
        <ele>2080.000000</ele>
        <time>2020-08-22T11:11:17Z</time>
      </trkpt>
      <trkpt lat="42.495464" lon="1.567646">
        <ele>2080.000000</ele>
        <time>2020-08-22T11:11:17Z</time>
      </trkpt>
      <trkpt lat="42.495464" lon="1.567646">
        <ele>2080.000000</ele>
        <time>2020-08-22T11:11:17Z</time>
      </trkpt>
      <trkpt lat="42.495449" lon="1.567647">
        <ele>2080.000000</ele>
        <time>2020-08-22T11:11:24Z</time>
      </trkpt>
      <trkpt lat="42.495449" lon="1.567647">
        <ele>2080.000000</ele>
        <time>2020-08-22T11:11:24Z</time>
      </trkpt>
      <trkpt lat="42.495434" lon="1.567647">
        <ele>2080.000000</ele>
        <time>2020-08-22T11:11:24Z</time>
      </trkpt>
      <trkpt lat="42.495434" lon="1.567647">
        <ele>2080.000000</ele>
        <time>2020-08-22T11:11:24Z</time>
      </trkpt>
      <trkpt lat="42.495419" lon="1.567647">
        <ele>2080.000000</ele>
        <time>2020-08-22T11:11:24Z</time>
      </trkpt>
      <trkpt lat="42.495419" lon="1.567647">
        <ele>2080.000000</ele>
        <time>2020-08-22T11:11:24Z</time>
      </trkpt>
      <trkpt lat="42.495403" lon="1.567646">
        <ele>2080.000000</ele>
        <time>2020-08-22T11:11:24Z</time>
      </trkpt>
      <trkpt lat="42.495403" lon="1.567646">
        <ele>2080.000000</ele>
        <time>2020-08-22T11:11:24Z</time>
      </trkpt>
      <trkpt lat="42.495388" lon="1.567645">
        <ele>2080.000000</ele>
        <time>2020-08-22T11:11:24Z</time>
      </trkpt>
      <trkpt lat="42.495388" lon="1.567645">
        <ele>2080.000000</ele>
        <time>2020-08-22T11:11:24Z</time>
      </trkpt>
      <trkpt lat="42.495392" lon="1.567655">
        <ele>2080.000000</ele>
        <time>2020-08-22T11:11:24Z</time>
      </trkpt>
      <trkpt lat="42.495392" lon="1.567655">
        <ele>2080.000000</ele>
        <time>2020-08-22T11:11:24Z</time>
      </trkpt>
      <trkpt lat="42.495396" lon="1.567663">
        <ele>2080.000000</ele>
        <time>2020-08-22T11:11:24Z</time>
      </trkpt>
      <trkpt lat="42.495396" lon="1.567663">
        <ele>2080.000000</ele>
        <time>2020-08-22T11:11:24Z</time>
      </trkpt>
      <trkpt lat="42.495399" lon="1.567670">
        <ele>2080.000000</ele>
        <time>2020-08-22T11:11:24Z</time>
      </trkpt>
      <trkpt lat="42.495399" lon="1.567670">
        <ele>2080.000000</ele>
        <time>2020-08-22T11:11:24Z</time>
      </trkpt>
      <trkpt lat="42.495403" lon="1.567674">
        <ele>2080.000000</ele>
        <time>2020-08-22T11:11:24Z</time>
      </trkpt>
      <trkpt lat="42.495403" lon="1.567674">
        <ele>2080.000000</ele>
        <time>2020-08-22T11:11:24Z</time>
      </trkpt>
      <trkpt lat="42.495403" lon="1.567677">
        <ele>2080.000000</ele>
        <time>2020-08-22T11:11:31Z</time>
      </trkpt>
      <trkpt lat="42.495403" lon="1.567677">
        <ele>2080.000000</ele>
        <time>2020-08-22T11:11:31Z</time>
      </trkpt>
      <trkpt lat="42.495407" lon="1.567678">
        <ele>2080.000000</ele>
        <time>2020-08-22T11:11:31Z</time>
      </trkpt>
      <trkpt lat="42.495407" lon="1.567678">
        <ele>2080.000000</ele>
        <time>2020-08-22T11:11:31Z</time>
      </trkpt>
      <trkpt lat="42.495411" lon="1.567679">
        <ele>2080.000000</ele>
        <time>2020-08-22T11:11:31Z</time>
      </trkpt>
      <trkpt lat="42.495411" lon="1.567679">
        <ele>2080.000000</ele>
        <time>2020-08-22T11:11:31Z</time>
      </trkpt>
      <trkpt lat="42.495415" lon="1.567677">
        <ele>2077.000000</ele>
        <time>2020-08-22T11:11:31Z</time>
      </trkpt>
      <trkpt lat="42.495415" lon="1.567677">
        <ele>2077.000000</ele>
        <time>2020-08-22T11:11:31Z</time>
      </trkpt>
      <trkpt lat="42.495419" lon="1.567674">
        <ele>2077.000000</ele>
        <time>2020-08-22T11:11:31Z</time>
      </trkpt>
      <trkpt lat="42.495419" lon="1.567674">
        <ele>2077.000000</ele>
        <time>2020-08-22T11:11:31Z</time>
      </trkpt>
      <trkpt lat="42.495419" lon="1.567669">
        <ele>2077.000000</ele>
        <time>2020-08-22T11:11:31Z</time>
      </trkpt>
      <trkpt lat="42.495419" lon="1.567669">
        <ele>2077.000000</ele>
        <time>2020-08-22T11:11:31Z</time>
      </trkpt>
      <trkpt lat="42.495403" lon="1.567640">
        <ele>2077.000000</ele>
        <time>2020-08-22T11:11:31Z</time>
      </trkpt>
      <trkpt lat="42.495403" lon="1.567640">
        <ele>2077.000000</ele>
        <time>2020-08-22T11:11:31Z</time>
      </trkpt>
      <trkpt lat="42.495388" lon="1.567612">
        <ele>2077.000000</ele>
        <time>2020-08-22T11:11:31Z</time>
      </trkpt>
      <trkpt lat="42.495388" lon="1.567612">
        <ele>2077.000000</ele>
        <time>2020-08-22T11:11:31Z</time>
      </trkpt>
      <trkpt lat="42.495373" lon="1.567587">
        <ele>2077.000000</ele>
        <time>2020-08-22T11:11:31Z</time>
      </trkpt>
      <trkpt lat="42.495373" lon="1.567587">
        <ele>2076.000000</ele>
        <time>2020-08-22T11:11:31Z</time>
      </trkpt>
      <trkpt lat="42.495361" lon="1.567565">
        <ele>2075.000000</ele>
        <time>2020-08-22T11:11:31Z</time>
      </trkpt>
      <trkpt lat="42.495361" lon="1.567565">
        <ele>2075.000000</ele>
        <time>2020-08-22T11:11:31Z</time>
      </trkpt>
      <trkpt lat="42.495354" lon="1.567545">
        <ele>2075.000000</ele>
        <time>2020-08-22T11:11:38Z</time>
      </trkpt>
      <trkpt lat="42.495354" lon="1.567545">
        <ele>2075.000000</ele>
        <time>2020-08-22T11:11:38Z</time>
      </trkpt>
      <trkpt lat="42.495342" lon="1.567529">
        <ele>2074.000000</ele>
        <time>2020-08-22T11:11:38Z</time>
      </trkpt>
      <trkpt lat="42.495342" lon="1.567529">
        <ele>2074.000000</ele>
        <time>2020-08-22T11:11:38Z</time>
      </trkpt>
      <trkpt lat="42.495335" lon="1.567515">
        <ele>2074.000000</ele>
        <time>2020-08-22T11:11:38Z</time>
      </trkpt>
      <trkpt lat="42.495335" lon="1.567515">
        <ele>2074.000000</ele>
        <time>2020-08-22T11:11:38Z</time>
      </trkpt>
      <trkpt lat="42.495327" lon="1.567506">
        <ele>2074.000000</ele>
        <time>2020-08-22T11:11:38Z</time>
      </trkpt>
      <trkpt lat="42.495327" lon="1.567506">
        <ele>2073.000000</ele>
        <time>2020-08-22T11:11:38Z</time>
      </trkpt>
      <trkpt lat="42.495327" lon="1.567501">
        <ele>2073.000000</ele>
        <time>2020-08-22T11:11:38Z</time>
      </trkpt>
      <trkpt lat="42.495327" lon="1.567501">
        <ele>2073.000000</ele>
        <time>2020-08-22T11:11:38Z</time>
      </trkpt>
      <trkpt lat="42.495323" lon="1.567499">
        <ele>2073.000000</ele>
        <time>2020-08-22T11:11:38Z</time>
      </trkpt>
      <trkpt lat="42.495323" lon="1.567499">
        <ele>2073.000000</ele>
        <time>2020-08-22T11:11:38Z</time>
      </trkpt>
      <trkpt lat="42.495323" lon="1.567507">
        <ele>2073.000000</ele>
        <time>2020-08-22T11:11:38Z</time>
      </trkpt>
      <trkpt lat="42.495323" lon="1.567507">
        <ele>2073.000000</ele>
        <time>2020-08-22T11:11:38Z</time>
      </trkpt>
      <trkpt lat="42.495323" lon="1.567513">
        <ele>2073.000000</ele>
        <time>2020-08-22T11:11:38Z</time>
      </trkpt>
      <trkpt lat="42.495323" lon="1.567513">
        <ele>2073.000000</ele>
        <time>2020-08-22T11:11:38Z</time>
      </trkpt>
      <trkpt lat="42.495323" lon="1.567517">
        <ele>2073.000000</ele>
        <time>2020-08-22T11:11:38Z</time>
      </trkpt>
      <trkpt lat="42.495323" lon="1.567517">
        <ele>2073.000000</ele>
        <time>2020-08-22T11:11:38Z</time>
      </trkpt>
      <trkpt lat="42.495319" lon="1.567520">
        <ele>2073.000000</ele>
        <time>2020-08-22T11:11:45Z</time>
      </trkpt>
      <trkpt lat="42.495319" lon="1.567520">
        <ele>2073.000000</ele>
        <time>2020-08-22T11:11:45Z</time>
      </trkpt>
      <trkpt lat="42.495316" lon="1.567521">
        <ele>2073.000000</ele>
        <time>2020-08-22T11:11:45Z</time>
      </trkpt>
      <trkpt lat="42.495316" lon="1.567521">
        <ele>2073.000000</ele>
        <time>2020-08-22T11:11:45Z</time>
      </trkpt>
      <trkpt lat="42.495316" lon="1.567519">
        <ele>2073.000000</ele>
        <time>2020-08-22T11:11:45Z</time>
      </trkpt>
      <trkpt lat="42.495316" lon="1.567519">
        <ele>2073.000000</ele>
        <time>2020-08-22T11:11:45Z</time>
      </trkpt>
      <trkpt lat="42.495308" lon="1.567513">
        <ele>2073.000000</ele>
        <time>2020-08-22T11:11:45Z</time>
      </trkpt>
      <trkpt lat="42.495308" lon="1.567513">
        <ele>2073.000000</ele>
        <time>2020-08-22T11:11:45Z</time>
      </trkpt>
      <trkpt lat="42.495304" lon="1.567503">
        <ele>2073.000000</ele>
        <time>2020-08-22T11:11:45Z</time>
      </trkpt>
      <trkpt lat="42.495304" lon="1.567503">
        <ele>2073.000000</ele>
        <time>2020-08-22T11:11:45Z</time>
      </trkpt>
      <trkpt lat="42.495300" lon="1.567489">
        <ele>2073.000000</ele>
        <time>2020-08-22T11:11:45Z</time>
      </trkpt>
      <trkpt lat="42.495300" lon="1.567489">
        <ele>2073.000000</ele>
        <time>2020-08-22T11:11:45Z</time>
      </trkpt>
      <trkpt lat="42.495289" lon="1.567472">
        <ele>2073.000000</ele>
        <time>2020-08-22T11:11:45Z</time>
      </trkpt>
      <trkpt lat="42.495289" lon="1.567472">
        <ele>2073.000000</ele>
        <time>2020-08-22T11:11:45Z</time>
      </trkpt>
      <trkpt lat="42.495270" lon="1.567437">
        <ele>2073.000000</ele>
        <time>2020-08-22T11:11:45Z</time>
      </trkpt>
      <trkpt lat="42.495270" lon="1.567437">
        <ele>2073.000000</ele>
        <time>2020-08-22T11:11:45Z</time>
      </trkpt>
      <trkpt lat="42.495247" lon="1.567401">
        <ele>2073.000000</ele>
        <time>2020-08-22T11:11:52Z</time>
      </trkpt>
      <trkpt lat="42.495247" lon="1.567401">
        <ele>2073.000000</ele>
        <time>2020-08-22T11:11:52Z</time>
      </trkpt>
      <trkpt lat="42.495228" lon="1.567364">
        <ele>2073.000000</ele>
        <time>2020-08-22T11:11:52Z</time>
      </trkpt>
      <trkpt lat="42.495228" lon="1.567364">
        <ele>2073.000000</ele>
        <time>2020-08-22T11:11:52Z</time>
      </trkpt>
      <trkpt lat="42.495209" lon="1.567326">
        <ele>2073.000000</ele>
        <time>2020-08-22T11:11:52Z</time>
      </trkpt>
      <trkpt lat="42.495209" lon="1.567326">
        <ele>2073.000000</ele>
        <time>2020-08-22T11:11:52Z</time>
      </trkpt>
      <trkpt lat="42.495190" lon="1.567289">
        <ele>2073.000000</ele>
        <time>2020-08-22T11:11:52Z</time>
      </trkpt>
      <trkpt lat="42.495190" lon="1.567289">
        <ele>2073.000000</ele>
        <time>2020-08-22T11:11:52Z</time>
      </trkpt>
      <trkpt lat="42.495174" lon="1.567253">
        <ele>2073.000000</ele>
        <time>2020-08-22T11:11:52Z</time>
      </trkpt>
      <trkpt lat="42.495174" lon="1.567253">
        <ele>2073.000000</ele>
        <time>2020-08-22T11:11:52Z</time>
      </trkpt>
      <trkpt lat="42.495159" lon="1.567219">
        <ele>2073.000000</ele>
        <time>2020-08-22T11:11:52Z</time>
      </trkpt>
      <trkpt lat="42.495159" lon="1.567219">
        <ele>2073.000000</ele>
        <time>2020-08-22T11:11:52Z</time>
      </trkpt>
      <trkpt lat="42.495144" lon="1.567186">
        <ele>2073.000000</ele>
        <time>2020-08-22T11:11:52Z</time>
      </trkpt>
      <trkpt lat="42.495144" lon="1.567186">
        <ele>2073.000000</ele>
        <time>2020-08-22T11:11:52Z</time>
      </trkpt>
      <trkpt lat="42.495132" lon="1.567154">
        <ele>2073.000000</ele>
        <time>2020-08-22T11:11:59Z</time>
      </trkpt>
      <trkpt lat="42.495132" lon="1.567154">
        <ele>2073.000000</ele>
        <time>2020-08-22T11:11:59Z</time>
      </trkpt>
      <trkpt lat="42.495121" lon="1.567122">
        <ele>2073.000000</ele>
        <time>2020-08-22T11:11:59Z</time>
      </trkpt>
      <trkpt lat="42.495121" lon="1.567122">
        <ele>2073.000000</ele>
        <time>2020-08-22T11:11:59Z</time>
      </trkpt>
      <trkpt lat="42.495132" lon="1.567103">
        <ele>2073.000000</ele>
        <time>2020-08-22T11:11:59Z</time>
      </trkpt>
      <trkpt lat="42.495132" lon="1.567103">
        <ele>2073.000000</ele>
        <time>2020-08-22T11:11:59Z</time>
      </trkpt>
      <trkpt lat="42.495140" lon="1.567084">
        <ele>2074.000000</ele>
        <time>2020-08-22T11:12:06Z</time>
      </trkpt>
      <trkpt lat="42.495140" lon="1.567084">
        <ele>2074.000000</ele>
        <time>2020-08-22T11:12:06Z</time>
      </trkpt>
      <trkpt lat="42.495148" lon="1.567064">
        <ele>2074.000000</ele>
        <time>2020-08-22T11:12:06Z</time>
      </trkpt>
      <trkpt lat="42.495148" lon="1.567064">
        <ele>2074.000000</ele>
        <time>2020-08-22T11:12:06Z</time>
      </trkpt>
      <trkpt lat="42.495155" lon="1.567045">
        <ele>2074.000000</ele>
        <time>2020-08-22T11:12:06Z</time>
      </trkpt>
      <trkpt lat="42.495155" lon="1.567045">
        <ele>2074.000000</ele>
        <time>2020-08-22T11:12:06Z</time>
      </trkpt>
      <trkpt lat="42.495163" lon="1.567025">
        <ele>2074.000000</ele>
        <time>2020-08-22T11:12:06Z</time>
      </trkpt>
      <trkpt lat="42.495163" lon="1.567025">
        <ele>2074.000000</ele>
        <time>2020-08-22T11:12:06Z</time>
      </trkpt>
      <trkpt lat="42.495167" lon="1.567004">
        <ele>2074.000000</ele>
        <time>2020-08-22T11:12:06Z</time>
      </trkpt>
      <trkpt lat="42.495167" lon="1.567004">
        <ele>2074.000000</ele>
        <time>2020-08-22T11:12:06Z</time>
      </trkpt>
      <trkpt lat="42.495171" lon="1.566984">
        <ele>2074.000000</ele>
        <time>2020-08-22T11:12:06Z</time>
      </trkpt>
      <trkpt lat="42.495171" lon="1.566984">
        <ele>2074.000000</ele>
        <time>2020-08-22T11:12:06Z</time>
      </trkpt>
      <trkpt lat="42.495174" lon="1.566963">
        <ele>2074.000000</ele>
        <time>2020-08-22T11:12:06Z</time>
      </trkpt>
      <trkpt lat="42.495174" lon="1.566963">
        <ele>2074.000000</ele>
        <time>2020-08-22T11:12:06Z</time>
      </trkpt>
      <trkpt lat="42.495174" lon="1.566941">
        <ele>2074.000000</ele>
        <time>2020-08-22T11:12:13Z</time>
      </trkpt>
      <trkpt lat="42.495174" lon="1.566941">
        <ele>2074.000000</ele>
        <time>2020-08-22T11:12:13Z</time>
      </trkpt>
      <trkpt lat="42.495174" lon="1.566919">
        <ele>2074.000000</ele>
        <time>2020-08-22T11:12:13Z</time>
      </trkpt>
      <trkpt lat="42.495174" lon="1.566919">
        <ele>2074.000000</ele>
        <time>2020-08-22T11:12:13Z</time>
      </trkpt>
      <trkpt lat="42.495167" lon="1.566891">
        <ele>2074.000000</ele>
        <time>2020-08-22T11:12:20Z</time>
      </trkpt>
      <trkpt lat="42.495167" lon="1.566891">
        <ele>2074.000000</ele>
        <time>2020-08-22T11:12:20Z</time>
      </trkpt>
      <trkpt lat="42.495163" lon="1.566865">
        <ele>2074.000000</ele>
        <time>2020-08-22T11:12:20Z</time>
      </trkpt>
      <trkpt lat="42.495163" lon="1.566865">
        <ele>2074.000000</ele>
        <time>2020-08-22T11:12:20Z</time>
      </trkpt>
      <trkpt lat="42.495159" lon="1.566840">
        <ele>2074.000000</ele>
        <time>2020-08-22T11:12:20Z</time>
      </trkpt>
      <trkpt lat="42.495159" lon="1.566840">
        <ele>2074.000000</ele>
        <time>2020-08-22T11:12:20Z</time>
      </trkpt>
      <trkpt lat="42.495152" lon="1.566816">
        <ele>2074.000000</ele>
        <time>2020-08-22T11:12:20Z</time>
      </trkpt>
      <trkpt lat="42.495152" lon="1.566816">
        <ele>2074.000000</ele>
        <time>2020-08-22T11:12:20Z</time>
      </trkpt>
      <trkpt lat="42.495148" lon="1.566794">
        <ele>2074.000000</ele>
        <time>2020-08-22T11:12:20Z</time>
      </trkpt>
      <trkpt lat="42.495148" lon="1.566794">
        <ele>2074.000000</ele>
        <time>2020-08-22T11:12:20Z</time>
      </trkpt>
      <trkpt lat="42.495148" lon="1.566774">
        <ele>2074.000000</ele>
        <time>2020-08-22T11:12:20Z</time>
      </trkpt>
      <trkpt lat="42.495148" lon="1.566774">
        <ele>2074.000000</ele>
        <time>2020-08-22T11:12:20Z</time>
      </trkpt>
      <trkpt lat="42.495148" lon="1.566755">
        <ele>2074.000000</ele>
        <time>2020-08-22T11:12:20Z</time>
      </trkpt>
      <trkpt lat="42.495148" lon="1.566755">
        <ele>2074.000000</ele>
        <time>2020-08-22T11:12:20Z</time>
      </trkpt>
      <trkpt lat="42.495148" lon="1.566739">
        <ele>2074.000000</ele>
        <time>2020-08-22T11:12:27Z</time>
      </trkpt>
      <trkpt lat="42.495148" lon="1.566739">
        <ele>2073.000000</ele>
        <time>2020-08-22T11:12:27Z</time>
      </trkpt>
      <trkpt lat="42.495152" lon="1.566725">
        <ele>2073.000000</ele>
        <time>2020-08-22T11:12:27Z</time>
      </trkpt>
      <trkpt lat="42.495152" lon="1.566725">
        <ele>2073.000000</ele>
        <time>2020-08-22T11:12:27Z</time>
      </trkpt>
      <trkpt lat="42.495159" lon="1.566714">
        <ele>2073.000000</ele>
        <time>2020-08-22T11:12:27Z</time>
      </trkpt>
      <trkpt lat="42.495159" lon="1.566714">
        <ele>2073.000000</ele>
        <time>2020-08-22T11:12:27Z</time>
      </trkpt>
      <trkpt lat="42.495163" lon="1.566714">
        <ele>2073.000000</ele>
        <time>2020-08-22T11:12:27Z</time>
      </trkpt>
      <trkpt lat="42.495163" lon="1.566714">
        <ele>2073.000000</ele>
        <time>2020-08-22T11:12:27Z</time>
      </trkpt>
      <trkpt lat="42.495167" lon="1.566715">
        <ele>2073.000000</ele>
        <time>2020-08-22T11:12:27Z</time>
      </trkpt>
      <trkpt lat="42.495167" lon="1.566715">
        <ele>2073.000000</ele>
        <time>2020-08-22T11:12:27Z</time>
      </trkpt>
      <trkpt lat="42.495171" lon="1.566717">
        <ele>2073.000000</ele>
        <time>2020-08-22T11:12:27Z</time>
      </trkpt>
      <trkpt lat="42.495171" lon="1.566717">
        <ele>2073.000000</ele>
        <time>2020-08-22T11:12:27Z</time>
      </trkpt>
      <trkpt lat="42.495174" lon="1.566720">
        <ele>2073.000000</ele>
        <time>2020-08-22T11:12:27Z</time>
      </trkpt>
      <trkpt lat="42.495174" lon="1.566720">
        <ele>2073.000000</ele>
        <time>2020-08-22T11:12:27Z</time>
      </trkpt>
      <trkpt lat="42.495174" lon="1.566724">
        <ele>2073.000000</ele>
        <time>2020-08-22T11:12:34Z</time>
      </trkpt>
      <trkpt lat="42.495174" lon="1.566724">
        <ele>2073.000000</ele>
        <time>2020-08-22T11:12:34Z</time>
      </trkpt>
      <trkpt lat="42.495178" lon="1.566729">
        <ele>2073.000000</ele>
        <time>2020-08-22T11:12:34Z</time>
      </trkpt>
      <trkpt lat="42.495178" lon="1.566729">
        <ele>2073.000000</ele>
        <time>2020-08-22T11:12:34Z</time>
      </trkpt>
      <trkpt lat="42.495178" lon="1.566735">
        <ele>2073.000000</ele>
        <time>2020-08-22T11:12:34Z</time>
      </trkpt>
      <trkpt lat="42.495178" lon="1.566735">
        <ele>2073.000000</ele>
        <time>2020-08-22T11:12:34Z</time>
      </trkpt>
      <trkpt lat="42.495182" lon="1.566743">
        <ele>2073.000000</ele>
        <time>2020-08-22T11:12:34Z</time>
      </trkpt>
      <trkpt lat="42.495182" lon="1.566743">
        <ele>2073.000000</ele>
        <time>2020-08-22T11:12:34Z</time>
      </trkpt>
      <trkpt lat="42.495186" lon="1.566751">
        <ele>2072.000000</ele>
        <time>2020-08-22T11:12:34Z</time>
      </trkpt>
      <trkpt lat="42.495186" lon="1.566751">
        <ele>2072.000000</ele>
        <time>2020-08-22T11:12:34Z</time>
      </trkpt>
      <trkpt lat="42.495186" lon="1.566759">
        <ele>2072.000000</ele>
        <time>2020-08-22T11:12:34Z</time>
      </trkpt>
      <trkpt lat="42.495186" lon="1.566759">
        <ele>2072.000000</ele>
        <time>2020-08-22T11:12:34Z</time>
      </trkpt>
      <trkpt lat="42.495186" lon="1.566795">
        <ele>2072.000000</ele>
        <time>2020-08-22T11:12:34Z</time>
      </trkpt>
      <trkpt lat="42.495186" lon="1.566795">
        <ele>2072.000000</ele>
        <time>2020-08-22T11:12:34Z</time>
      </trkpt>
      <trkpt lat="42.495186" lon="1.566831">
        <ele>2072.000000</ele>
        <time>2020-08-22T11:12:34Z</time>
      </trkpt>
      <trkpt lat="42.495186" lon="1.566831">
        <ele>2072.000000</ele>
        <time>2020-08-22T11:12:34Z</time>
      </trkpt>
      <trkpt lat="42.495178" lon="1.566865">
        <ele>2072.000000</ele>
        <time>2020-08-22T11:12:34Z</time>
      </trkpt>
      <trkpt lat="42.495178" lon="1.566865">
        <ele>2072.000000</ele>
        <time>2020-08-22T11:12:34Z</time>
      </trkpt>
      <trkpt lat="42.495174" lon="1.566898">
        <ele>2072.000000</ele>
        <time>2020-08-22T11:12:34Z</time>
      </trkpt>
      <trkpt lat="42.495174" lon="1.566898">
        <ele>2072.000000</ele>
        <time>2020-08-22T11:12:34Z</time>
      </trkpt>
      <trkpt lat="42.495167" lon="1.566929">
        <ele>2072.000000</ele>
        <time>2020-08-22T11:12:34Z</time>
      </trkpt>
      <trkpt lat="42.495167" lon="1.566929">
        <ele>2072.000000</ele>
        <time>2020-08-22T11:12:34Z</time>
      </trkpt>
      <trkpt lat="42.495159" lon="1.566958">
        <ele>2072.000000</ele>
        <time>2020-08-22T11:12:34Z</time>
      </trkpt>
      <trkpt lat="42.495159" lon="1.566958">
        <ele>2072.000000</ele>
        <time>2020-08-22T11:12:34Z</time>
      </trkpt>
      <trkpt lat="42.495148" lon="1.566985">
        <ele>2072.000000</ele>
        <time>2020-08-22T11:12:41Z</time>
      </trkpt>
      <trkpt lat="42.495148" lon="1.566985">
        <ele>2072.000000</ele>
        <time>2020-08-22T11:12:41Z</time>
      </trkpt>
      <trkpt lat="42.495136" lon="1.567009">
        <ele>2072.000000</ele>
        <time>2020-08-22T11:12:41Z</time>
      </trkpt>
      <trkpt lat="42.495136" lon="1.567009">
        <ele>2072.000000</ele>
        <time>2020-08-22T11:12:41Z</time>
      </trkpt>
      <trkpt lat="42.495121" lon="1.567031">
        <ele>2072.000000</ele>
        <time>2020-08-22T11:12:41Z</time>
      </trkpt>
      <trkpt lat="42.495121" lon="1.567031">
        <ele>2072.000000</ele>
        <time>2020-08-22T11:12:41Z</time>
      </trkpt>
      <trkpt lat="42.495106" lon="1.567051">
        <ele>2072.000000</ele>
        <time>2020-08-22T11:12:41Z</time>
      </trkpt>
      <trkpt lat="42.495106" lon="1.567051">
        <ele>2072.000000</ele>
        <time>2020-08-22T11:12:41Z</time>
      </trkpt>
      <trkpt lat="42.495087" lon="1.567060">
        <ele>2072.000000</ele>
        <time>2020-08-22T11:12:41Z</time>
      </trkpt>
      <trkpt lat="42.495087" lon="1.567060">
        <ele>2072.000000</ele>
        <time>2020-08-22T11:12:41Z</time>
      </trkpt>
      <trkpt lat="42.495068" lon="1.567072">
        <ele>2072.000000</ele>
        <time>2020-08-22T11:12:41Z</time>
      </trkpt>
      <trkpt lat="42.495068" lon="1.567072">
        <ele>2072.000000</ele>
        <time>2020-08-22T11:12:41Z</time>
      </trkpt>
      <trkpt lat="42.495056" lon="1.567087">
        <ele>2072.000000</ele>
        <time>2020-08-22T11:12:41Z</time>
      </trkpt>
      <trkpt lat="42.495056" lon="1.567087">
        <ele>2072.000000</ele>
        <time>2020-08-22T11:12:41Z</time>
      </trkpt>
      <trkpt lat="42.495041" lon="1.567105">
        <ele>2072.000000</ele>
        <time>2020-08-22T11:12:41Z</time>
      </trkpt>
      <trkpt lat="42.495041" lon="1.567105">
        <ele>2072.000000</ele>
        <time>2020-08-22T11:12:41Z</time>
      </trkpt>
      <trkpt lat="42.495033" lon="1.567127">
        <ele>2072.000000</ele>
        <time>2020-08-22T11:12:41Z</time>
      </trkpt>
      <trkpt lat="42.495033" lon="1.567127">
        <ele>2072.000000</ele>
        <time>2020-08-22T11:12:41Z</time>
      </trkpt>
      <trkpt lat="42.495026" lon="1.567151">
        <ele>2072.000000</ele>
        <time>2020-08-22T11:12:50Z</time>
      </trkpt>
      <trkpt lat="42.495026" lon="1.567151">
        <ele>2072.000000</ele>
        <time>2020-08-22T11:12:50Z</time>
      </trkpt>
      <trkpt lat="42.495022" lon="1.567181">
        <ele>2072.000000</ele>
        <time>2020-08-22T11:12:50Z</time>
      </trkpt>
      <trkpt lat="42.495022" lon="1.567181">
        <ele>2072.000000</ele>
        <time>2020-08-22T11:12:50Z</time>
      </trkpt>
      <trkpt lat="42.495014" lon="1.567214">
        <ele>2072.000000</ele>
        <time>2020-08-22T11:12:50Z</time>
      </trkpt>
      <trkpt lat="42.495014" lon="1.567214">
        <ele>2072.000000</ele>
        <time>2020-08-22T11:12:50Z</time>
      </trkpt>
      <trkpt lat="42.495014" lon="1.567249">
        <ele>2072.000000</ele>
        <time>2020-08-22T11:12:50Z</time>
      </trkpt>
      <trkpt lat="42.495014" lon="1.567249">
        <ele>2072.000000</ele>
        <time>2020-08-22T11:12:50Z</time>
      </trkpt>
      <trkpt lat="42.495014" lon="1.567287">
        <ele>2072.000000</ele>
        <time>2020-08-22T11:12:50Z</time>
      </trkpt>
      <trkpt lat="42.495014" lon="1.567287">
        <ele>2072.000000</ele>
        <time>2020-08-22T11:12:50Z</time>
      </trkpt>
      <trkpt lat="42.495018" lon="1.567303">
        <ele>2072.000000</ele>
        <time>2020-08-22T11:12:58Z</time>
      </trkpt>
      <trkpt lat="42.495018" lon="1.567303">
        <ele>2072.000000</ele>
        <time>2020-08-22T11:12:58Z</time>
      </trkpt>
      <trkpt lat="42.495018" lon="1.567316">
        <ele>2072.000000</ele>
        <time>2020-08-22T11:12:58Z</time>
      </trkpt>
      <trkpt lat="42.495018" lon="1.567316">
        <ele>2072.000000</ele>
        <time>2020-08-22T11:12:58Z</time>
      </trkpt>
      <trkpt lat="42.495022" lon="1.567326">
        <ele>2072.000000</ele>
        <time>2020-08-22T11:12:58Z</time>
      </trkpt>
      <trkpt lat="42.495022" lon="1.567326">
        <ele>2072.000000</ele>
        <time>2020-08-22T11:12:58Z</time>
      </trkpt>
      <trkpt lat="42.495018" lon="1.567334">
        <ele>2072.000000</ele>
        <time>2020-08-22T11:12:58Z</time>
      </trkpt>
      <trkpt lat="42.495018" lon="1.567334">
        <ele>2072.000000</ele>
        <time>2020-08-22T11:12:58Z</time>
      </trkpt>
      <trkpt lat="42.495018" lon="1.567339">
        <ele>2072.000000</ele>
        <time>2020-08-22T11:13:09Z</time>
      </trkpt>
      <trkpt lat="42.495018" lon="1.567339">
        <ele>2072.000000</ele>
        <time>2020-08-22T11:13:09Z</time>
      </trkpt>
      <trkpt lat="42.495014" lon="1.567342">
        <ele>2072.000000</ele>
        <time>2020-08-22T11:13:09Z</time>
      </trkpt>
      <trkpt lat="42.495014" lon="1.567342">
        <ele>2072.000000</ele>
        <time>2020-08-22T11:13:09Z</time>
      </trkpt>
      <trkpt lat="42.495010" lon="1.567340">
        <ele>2072.000000</ele>
        <time>2020-08-22T11:13:09Z</time>
      </trkpt>
      <trkpt lat="42.495010" lon="1.567340">
        <ele>2072.000000</ele>
        <time>2020-08-22T11:13:09Z</time>
      </trkpt>
      <trkpt lat="42.495007" lon="1.567336">
        <ele>2072.000000</ele>
        <time>2020-08-22T11:13:09Z</time>
      </trkpt>
      <trkpt lat="42.495007" lon="1.567336">
        <ele>2072.000000</ele>
        <time>2020-08-22T11:13:09Z</time>
      </trkpt>
      <trkpt lat="42.495003" lon="1.567330">
        <ele>2072.000000</ele>
        <time>2020-08-22T11:13:09Z</time>
      </trkpt>
      <trkpt lat="42.495003" lon="1.567330">
        <ele>2072.000000</ele>
        <time>2020-08-22T11:13:09Z</time>
      </trkpt>
      <trkpt lat="42.494999" lon="1.567322">
        <ele>2072.000000</ele>
        <time>2020-08-22T11:13:09Z</time>
      </trkpt>
      <trkpt lat="42.494999" lon="1.567322">
        <ele>2072.000000</ele>
        <time>2020-08-22T11:13:09Z</time>
      </trkpt>
      <trkpt lat="42.495003" lon="1.567323">
        <ele>2072.000000</ele>
        <time>2020-08-22T11:13:09Z</time>
      </trkpt>
      <trkpt lat="42.495003" lon="1.567323">
        <ele>2073.000000</ele>
        <time>2020-08-22T11:13:09Z</time>
      </trkpt>
      <trkpt lat="42.495010" lon="1.567327">
        <ele>2073.000000</ele>
        <time>2020-08-22T11:13:09Z</time>
      </trkpt>
      <trkpt lat="42.495010" lon="1.567327">
        <ele>2073.000000</ele>
        <time>2020-08-22T11:13:09Z</time>
      </trkpt>
      <trkpt lat="42.495018" lon="1.567332">
        <ele>2073.000000</ele>
        <time>2020-08-22T11:13:09Z</time>
      </trkpt>
      <trkpt lat="42.495018" lon="1.567332">
        <ele>2073.000000</ele>
        <time>2020-08-22T11:13:09Z</time>
      </trkpt>
      <trkpt lat="42.495026" lon="1.567339">
        <ele>2073.000000</ele>
        <time>2020-08-22T11:13:09Z</time>
      </trkpt>
      <trkpt lat="42.495026" lon="1.567339">
        <ele>2074.000000</ele>
        <time>2020-08-22T11:13:09Z</time>
      </trkpt>
      <trkpt lat="42.495033" lon="1.567346">
        <ele>2074.000000</ele>
        <time>2020-08-22T11:13:09Z</time>
      </trkpt>
      <trkpt lat="42.495033" lon="1.567346">
        <ele>2074.000000</ele>
        <time>2020-08-22T11:13:09Z</time>
      </trkpt>
      <trkpt lat="42.495041" lon="1.567354">
        <ele>2074.000000</ele>
        <time>2020-08-22T11:13:17Z</time>
      </trkpt>
      <trkpt lat="42.495041" lon="1.567354">
        <ele>2074.000000</ele>
        <time>2020-08-22T11:13:17Z</time>
      </trkpt>
      <trkpt lat="42.495052" lon="1.567361">
        <ele>2074.000000</ele>
        <time>2020-08-22T11:13:17Z</time>
      </trkpt>
      <trkpt lat="42.495052" lon="1.567361">
        <ele>2074.000000</ele>
        <time>2020-08-22T11:13:17Z</time>
      </trkpt>
      <trkpt lat="42.495056" lon="1.567366">
        <ele>2074.000000</ele>
        <time>2020-08-22T11:13:17Z</time>
      </trkpt>
      <trkpt lat="42.495056" lon="1.567366">
        <ele>2074.000000</ele>
        <time>2020-08-22T11:13:17Z</time>
      </trkpt>
      <trkpt lat="42.495060" lon="1.567370">
        <ele>2074.000000</ele>
        <time>2020-08-22T11:13:17Z</time>
      </trkpt>
      <trkpt lat="42.495060" lon="1.567370">
        <ele>2074.000000</ele>
        <time>2020-08-22T11:13:17Z</time>
      </trkpt>
      <trkpt lat="42.495064" lon="1.567373">
        <ele>2074.000000</ele>
        <time>2020-08-22T11:13:17Z</time>
      </trkpt>
      <trkpt lat="42.495064" lon="1.567373">
        <ele>2075.000000</ele>
        <time>2020-08-22T11:13:17Z</time>
      </trkpt>
      <trkpt lat="42.495071" lon="1.567368">
        <ele>2075.000000</ele>
        <time>2020-08-22T11:13:17Z</time>
      </trkpt>
      <trkpt lat="42.495071" lon="1.567368">
        <ele>2075.000000</ele>
        <time>2020-08-22T11:13:17Z</time>
      </trkpt>
      <trkpt lat="42.495075" lon="1.567360">
        <ele>2075.000000</ele>
        <time>2020-08-22T11:13:30Z</time>
      </trkpt>
      <trkpt lat="42.495075" lon="1.567360">
        <ele>2075.000000</ele>
        <time>2020-08-22T11:13:30Z</time>
      </trkpt>
      <trkpt lat="42.495079" lon="1.567349">
        <ele>2075.000000</ele>
        <time>2020-08-22T11:13:30Z</time>
      </trkpt>
      <trkpt lat="42.495079" lon="1.567349">
        <ele>2076.000000</ele>
        <time>2020-08-22T11:13:30Z</time>
      </trkpt>
      <trkpt lat="42.495079" lon="1.567337">
        <ele>2076.000000</ele>
        <time>2020-08-22T11:13:30Z</time>
      </trkpt>
      <trkpt lat="42.495079" lon="1.567337">
        <ele>2076.000000</ele>
        <time>2020-08-22T11:13:30Z</time>
      </trkpt>
      <trkpt lat="42.495075" lon="1.567323">
        <ele>2077.000000</ele>
        <time>2020-08-22T11:13:30Z</time>
      </trkpt>
      <trkpt lat="42.495075" lon="1.567323">
        <ele>2077.000000</ele>
        <time>2020-08-22T11:13:30Z</time>
      </trkpt>
      <trkpt lat="42.495068" lon="1.567310">
        <ele>2077.000000</ele>
        <time>2020-08-22T11:13:30Z</time>
      </trkpt>
      <trkpt lat="42.495068" lon="1.567310">
        <ele>2077.000000</ele>
        <time>2020-08-22T11:13:30Z</time>
      </trkpt>
      <trkpt lat="42.495064" lon="1.567297">
        <ele>2077.000000</ele>
        <time>2020-08-22T11:13:39Z</time>
      </trkpt>
      <trkpt lat="42.495064" lon="1.567297">
        <ele>2078.000000</ele>
        <time>2020-08-22T11:13:39Z</time>
      </trkpt>
      <trkpt lat="42.495060" lon="1.567285">
        <ele>2078.000000</ele>
        <time>2020-08-22T11:13:39Z</time>
      </trkpt>
      <trkpt lat="42.495060" lon="1.567285">
        <ele>2078.000000</ele>
        <time>2020-08-22T11:13:39Z</time>
      </trkpt>
      <trkpt lat="42.495052" lon="1.567276">
        <ele>2078.000000</ele>
        <time>2020-08-22T11:13:39Z</time>
      </trkpt>
      <trkpt lat="42.495052" lon="1.567276">
        <ele>2078.000000</ele>
        <time>2020-08-22T11:13:39Z</time>
      </trkpt>
      <trkpt lat="42.495041" lon="1.567267">
        <ele>2079.000000</ele>
        <time>2020-08-22T11:13:39Z</time>
      </trkpt>
      <trkpt lat="42.495041" lon="1.567267">
        <ele>2079.000000</ele>
        <time>2020-08-22T11:13:39Z</time>
      </trkpt>
      <trkpt lat="42.495045" lon="1.567283">
        <ele>2079.000000</ele>
        <time>2020-08-22T11:13:39Z</time>
      </trkpt>
      <trkpt lat="42.495045" lon="1.567283">
        <ele>2080.000000</ele>
        <time>2020-08-22T11:13:39Z</time>
      </trkpt>
      <trkpt lat="42.495049" lon="1.567301">
        <ele>2080.000000</ele>
        <time>2020-08-22T11:13:39Z</time>
      </trkpt>
      <trkpt lat="42.495049" lon="1.567301">
        <ele>2080.000000</ele>
        <time>2020-08-22T11:13:39Z</time>
      </trkpt>
      <trkpt lat="42.495052" lon="1.567320">
        <ele>2080.000000</ele>
        <time>2020-08-22T11:13:39Z</time>
      </trkpt>
      <trkpt lat="42.495052" lon="1.567320">
        <ele>2081.000000</ele>
        <time>2020-08-22T11:13:39Z</time>
      </trkpt>
      <trkpt lat="42.495056" lon="1.567338">
        <ele>2081.000000</ele>
        <time>2020-08-22T11:13:46Z</time>
      </trkpt>
      <trkpt lat="42.495056" lon="1.567338">
        <ele>2081.000000</ele>
        <time>2020-08-22T11:13:46Z</time>
      </trkpt>
      <trkpt lat="42.495060" lon="1.567357">
        <ele>2081.000000</ele>
        <time>2020-08-22T11:13:46Z</time>
      </trkpt>
      <trkpt lat="42.495060" lon="1.567357">
        <ele>2081.000000</ele>
        <time>2020-08-22T11:13:46Z</time>
      </trkpt>
      <trkpt lat="42.495068" lon="1.567374">
        <ele>2081.000000</ele>
        <time>2020-08-22T11:13:46Z</time>
      </trkpt>
      <trkpt lat="42.495068" lon="1.567374">
        <ele>2081.000000</ele>
        <time>2020-08-22T11:13:46Z</time>
      </trkpt>
      <trkpt lat="42.495075" lon="1.567391">
        <ele>2081.000000</ele>
        <time>2020-08-22T11:13:46Z</time>
      </trkpt>
      <trkpt lat="42.495075" lon="1.567391">
        <ele>2081.000000</ele>
        <time>2020-08-22T11:13:46Z</time>
      </trkpt>
      <trkpt lat="42.495083" lon="1.567406">
        <ele>2081.000000</ele>
        <time>2020-08-22T11:13:46Z</time>
      </trkpt>
      <trkpt lat="42.495083" lon="1.567406">
        <ele>2081.000000</ele>
        <time>2020-08-22T11:13:46Z</time>
      </trkpt>
      <trkpt lat="42.495090" lon="1.567420">
        <ele>2081.000000</ele>
        <time>2020-08-22T11:13:46Z</time>
      </trkpt>
      <trkpt lat="42.495090" lon="1.567420">
        <ele>2081.000000</ele>
        <time>2020-08-22T11:13:46Z</time>
      </trkpt>
      <trkpt lat="42.495106" lon="1.567434">
        <ele>2081.000000</ele>
        <time>2020-08-22T11:13:46Z</time>
      </trkpt>
      <trkpt lat="42.495106" lon="1.567434">
        <ele>2081.000000</ele>
        <time>2020-08-22T11:13:46Z</time>
      </trkpt>
      <trkpt lat="42.495087" lon="1.567424">
        <ele>2081.000000</ele>
        <time>2020-08-22T11:13:46Z</time>
      </trkpt>
      <trkpt lat="42.495087" lon="1.567424">
        <ele>2081.000000</ele>
        <time>2020-08-22T11:13:46Z</time>
      </trkpt>
      <trkpt lat="42.495075" lon="1.567416">
        <ele>2081.000000</ele>
        <time>2020-08-22T11:13:46Z</time>
      </trkpt>
      <trkpt lat="42.495075" lon="1.567416">
        <ele>2081.000000</ele>
        <time>2020-08-22T11:13:46Z</time>
      </trkpt>
      <trkpt lat="42.495064" lon="1.567408">
        <ele>2081.000000</ele>
        <time>2020-08-22T11:13:46Z</time>
      </trkpt>
      <trkpt lat="42.495064" lon="1.567408">
        <ele>2081.000000</ele>
        <time>2020-08-22T11:13:46Z</time>
      </trkpt>
      <trkpt lat="42.495052" lon="1.567402">
        <ele>2084.000000</ele>
        <time>2020-08-22T11:13:46Z</time>
      </trkpt>
      <trkpt lat="42.495052" lon="1.567402">
        <ele>2084.000000</ele>
        <time>2020-08-22T11:13:46Z</time>
      </trkpt>
      <trkpt lat="42.495049" lon="1.567397">
        <ele>2084.000000</ele>
        <time>2020-08-22T11:13:53Z</time>
      </trkpt>
      <trkpt lat="42.495049" lon="1.567397">
        <ele>2084.000000</ele>
        <time>2020-08-22T11:13:53Z</time>
      </trkpt>
      <trkpt lat="42.495041" lon="1.567393">
        <ele>2084.000000</ele>
        <time>2020-08-22T11:13:53Z</time>
      </trkpt>
      <trkpt lat="42.495041" lon="1.567393">
        <ele>2084.000000</ele>
        <time>2020-08-22T11:13:53Z</time>
      </trkpt>
      <trkpt lat="42.495041" lon="1.567392">
        <ele>2084.000000</ele>
        <time>2020-08-22T11:13:53Z</time>
      </trkpt>
      <trkpt lat="42.495041" lon="1.567392">
        <ele>2085.000000</ele>
        <time>2020-08-22T11:13:53Z</time>
      </trkpt>
      <trkpt lat="42.495041" lon="1.567392">
        <ele>2085.000000</ele>
        <time>2020-08-22T11:13:53Z</time>
      </trkpt>
      <trkpt lat="42.495041" lon="1.567392">
        <ele>2085.000000</ele>
        <time>2020-08-22T11:13:53Z</time>
      </trkpt>
      <trkpt lat="42.495041" lon="1.567395">
        <ele>2085.000000</ele>
        <time>2020-08-22T11:13:53Z</time>
      </trkpt>
      <trkpt lat="42.495041" lon="1.567395">
        <ele>2085.000000</ele>
        <time>2020-08-22T11:13:53Z</time>
      </trkpt>
      <trkpt lat="42.495045" lon="1.567401">
        <ele>2085.000000</ele>
        <time>2020-08-22T11:13:53Z</time>
      </trkpt>
      <trkpt lat="42.495045" lon="1.567401">
        <ele>2085.000000</ele>
        <time>2020-08-22T11:13:53Z</time>
      </trkpt>
      <trkpt lat="42.495041" lon="1.567388">
        <ele>2085.000000</ele>
        <time>2020-08-22T11:13:53Z</time>
      </trkpt>
      <trkpt lat="42.495041" lon="1.567388">
        <ele>2085.000000</ele>
        <time>2020-08-22T11:13:53Z</time>
      </trkpt>
      <trkpt lat="42.495033" lon="1.567377">
        <ele>2085.000000</ele>
        <time>2020-08-22T11:14:00Z</time>
      </trkpt>
      <trkpt lat="42.495033" lon="1.567377">
        <ele>2085.000000</ele>
        <time>2020-08-22T11:14:00Z</time>
      </trkpt>
      <trkpt lat="42.495026" lon="1.567367">
        <ele>2085.000000</ele>
        <time>2020-08-22T11:14:00Z</time>
      </trkpt>
      <trkpt lat="42.495026" lon="1.567367">
        <ele>2085.000000</ele>
        <time>2020-08-22T11:14:00Z</time>
      </trkpt>
      <trkpt lat="42.495014" lon="1.567357">
        <ele>2085.000000</ele>
        <time>2020-08-22T11:14:00Z</time>
      </trkpt>
      <trkpt lat="42.495014" lon="1.567357">
        <ele>2085.000000</ele>
        <time>2020-08-22T11:14:00Z</time>
      </trkpt>
      <trkpt lat="42.495003" lon="1.567349">
        <ele>2085.000000</ele>
        <time>2020-08-22T11:14:00Z</time>
      </trkpt>
      <trkpt lat="42.495003" lon="1.567349">
        <ele>2085.000000</ele>
        <time>2020-08-22T11:14:00Z</time>
      </trkpt>
      <trkpt lat="42.494991" lon="1.567340">
        <ele>2085.000000</ele>
        <time>2020-08-22T11:14:00Z</time>
      </trkpt>
      <trkpt lat="42.494991" lon="1.567340">
        <ele>2085.000000</ele>
        <time>2020-08-22T11:14:00Z</time>
      </trkpt>
      <trkpt lat="42.494980" lon="1.567332">
        <ele>2085.000000</ele>
        <time>2020-08-22T11:14:00Z</time>
      </trkpt>
      <trkpt lat="42.494980" lon="1.567332">
        <ele>2085.000000</ele>
        <time>2020-08-22T11:14:00Z</time>
      </trkpt>
      <trkpt lat="42.494965" lon="1.567322">
        <ele>2085.000000</ele>
        <time>2020-08-22T11:14:00Z</time>
      </trkpt>
      <trkpt lat="42.494965" lon="1.567322">
        <ele>2085.000000</ele>
        <time>2020-08-22T11:14:00Z</time>
      </trkpt>
      <trkpt lat="42.494953" lon="1.567311">
        <ele>2085.000000</ele>
        <time>2020-08-22T11:14:07Z</time>
      </trkpt>
      <trkpt lat="42.494953" lon="1.567311">
        <ele>2085.000000</ele>
        <time>2020-08-22T11:14:07Z</time>
      </trkpt>
      <trkpt lat="42.494938" lon="1.567299">
        <ele>2085.000000</ele>
        <time>2020-08-22T11:14:07Z</time>
      </trkpt>
      <trkpt lat="42.494938" lon="1.567299">
        <ele>2086.000000</ele>
        <time>2020-08-22T11:14:07Z</time>
      </trkpt>
      <trkpt lat="42.494946" lon="1.567299">
        <ele>2086.000000</ele>
        <time>2020-08-22T11:14:07Z</time>
      </trkpt>
      <trkpt lat="42.494946" lon="1.567299">
        <ele>2086.000000</ele>
        <time>2020-08-22T11:14:07Z</time>
      </trkpt>
      <trkpt lat="42.494938" lon="1.567279">
        <ele>2086.000000</ele>
        <time>2020-08-22T11:14:07Z</time>
      </trkpt>
      <trkpt lat="42.494938" lon="1.567279">
        <ele>2086.000000</ele>
        <time>2020-08-22T11:14:07Z</time>
      </trkpt>
      <trkpt lat="42.494942" lon="1.567267">
        <ele>2086.000000</ele>
        <time>2020-08-22T11:14:16Z</time>
      </trkpt>
      <trkpt lat="42.494942" lon="1.567267">
        <ele>2086.000000</ele>
        <time>2020-08-22T11:14:16Z</time>
      </trkpt>
      <trkpt lat="42.494946" lon="1.567255">
        <ele>2086.000000</ele>
        <time>2020-08-22T11:14:16Z</time>
      </trkpt>
      <trkpt lat="42.494946" lon="1.567255">
        <ele>2086.000000</ele>
        <time>2020-08-22T11:14:16Z</time>
      </trkpt>
      <trkpt lat="42.494953" lon="1.567241">
        <ele>2086.000000</ele>
        <time>2020-08-22T11:14:16Z</time>
      </trkpt>
      <trkpt lat="42.494953" lon="1.567241">
        <ele>2086.000000</ele>
        <time>2020-08-22T11:14:16Z</time>
      </trkpt>
      <trkpt lat="42.494961" lon="1.567229">
        <ele>2086.000000</ele>
        <time>2020-08-22T11:14:16Z</time>
      </trkpt>
      <trkpt lat="42.494961" lon="1.567229">
        <ele>2086.000000</ele>
        <time>2020-08-22T11:14:16Z</time>
      </trkpt>
      <trkpt lat="42.494972" lon="1.567218">
        <ele>2086.000000</ele>
        <time>2020-08-22T11:14:16Z</time>
      </trkpt>
      <trkpt lat="42.494972" lon="1.567218">
        <ele>2086.000000</ele>
        <time>2020-08-22T11:14:16Z</time>
      </trkpt>
      <trkpt lat="42.494987" lon="1.567209">
        <ele>2086.000000</ele>
        <time>2020-08-22T11:14:16Z</time>
      </trkpt>
      <trkpt lat="42.494987" lon="1.567209">
        <ele>2086.000000</ele>
        <time>2020-08-22T11:14:16Z</time>
      </trkpt>
      <trkpt lat="42.495003" lon="1.567206">
        <ele>2086.000000</ele>
        <time>2020-08-22T11:14:16Z</time>
      </trkpt>
      <trkpt lat="42.495003" lon="1.567206">
        <ele>2086.000000</ele>
        <time>2020-08-22T11:14:16Z</time>
      </trkpt>
      <trkpt lat="42.494873" lon="1.567313">
        <ele>2086.000000</ele>
        <time>2020-08-22T11:14:16Z</time>
      </trkpt>
      <trkpt lat="42.494873" lon="1.567313">
        <ele>2086.000000</ele>
        <time>2020-08-22T11:14:16Z</time>
      </trkpt>
      <trkpt lat="42.494873" lon="1.567314">
        <ele>2086.000000</ele>
        <time>2020-08-22T11:14:16Z</time>
      </trkpt>
      <trkpt lat="42.494873" lon="1.567314">
        <ele>2086.000000</ele>
        <time>2020-08-22T11:14:16Z</time>
      </trkpt>
      <trkpt lat="42.494877" lon="1.567314">
        <ele>2086.000000</ele>
        <time>2020-08-22T11:14:34Z</time>
      </trkpt>
      <trkpt lat="42.494877" lon="1.567314">
        <ele>2086.000000</ele>
        <time>2020-08-22T11:14:34Z</time>
      </trkpt>
      <trkpt lat="42.494884" lon="1.567313">
        <ele>2086.000000</ele>
        <time>2020-08-22T11:14:34Z</time>
      </trkpt>
      <trkpt lat="42.494884" lon="1.567313">
        <ele>2086.000000</ele>
        <time>2020-08-22T11:14:34Z</time>
      </trkpt>
      <trkpt lat="42.494877" lon="1.567317">
        <ele>2086.000000</ele>
        <time>2020-08-22T11:14:34Z</time>
      </trkpt>
      <trkpt lat="42.494877" lon="1.567317">
        <ele>2086.000000</ele>
        <time>2020-08-22T11:14:34Z</time>
      </trkpt>
      <trkpt lat="42.494873" lon="1.567320">
        <ele>2086.000000</ele>
        <time>2020-08-22T11:14:34Z</time>
      </trkpt>
      <trkpt lat="42.494873" lon="1.567320">
        <ele>2086.000000</ele>
        <time>2020-08-22T11:14:34Z</time>
      </trkpt>
      <trkpt lat="42.494865" lon="1.567323">
        <ele>2086.000000</ele>
        <time>2020-08-22T11:14:34Z</time>
      </trkpt>
      <trkpt lat="42.494865" lon="1.567323">
        <ele>2086.000000</ele>
        <time>2020-08-22T11:14:34Z</time>
      </trkpt>
      <trkpt lat="42.494858" lon="1.567325">
        <ele>2086.000000</ele>
        <time>2020-08-22T11:14:34Z</time>
      </trkpt>
      <trkpt lat="42.494858" lon="1.567325">
        <ele>2086.000000</ele>
        <time>2020-08-22T11:14:34Z</time>
      </trkpt>
      <trkpt lat="42.494850" lon="1.567327">
        <ele>2086.000000</ele>
        <time>2020-08-22T11:14:34Z</time>
      </trkpt>
      <trkpt lat="42.494850" lon="1.567327">
        <ele>2086.000000</ele>
        <time>2020-08-22T11:14:34Z</time>
      </trkpt>
      <trkpt lat="42.494843" lon="1.567329">
        <ele>2086.000000</ele>
        <time>2020-08-22T11:14:57Z</time>
      </trkpt>
      <trkpt lat="42.494843" lon="1.567329">
        <ele>2086.000000</ele>
        <time>2020-08-22T11:14:57Z</time>
      </trkpt>
      <trkpt lat="42.494865" lon="1.567347">
        <ele>2086.000000</ele>
        <time>2020-08-22T11:14:57Z</time>
      </trkpt>
      <trkpt lat="42.494865" lon="1.567347">
        <ele>2086.000000</ele>
        <time>2020-08-22T11:14:57Z</time>
      </trkpt>
      <trkpt lat="42.494884" lon="1.567366">
        <ele>2086.000000</ele>
        <time>2020-08-22T11:14:57Z</time>
      </trkpt>
      <trkpt lat="42.494884" lon="1.567366">
        <ele>2086.000000</ele>
        <time>2020-08-22T11:14:57Z</time>
      </trkpt>
      <trkpt lat="42.494900" lon="1.567385">
        <ele>2086.000000</ele>
        <time>2020-08-22T11:14:57Z</time>
      </trkpt>
      <trkpt lat="42.494900" lon="1.567385">
        <ele>2086.000000</ele>
        <time>2020-08-22T11:14:57Z</time>
      </trkpt>
      <trkpt lat="42.494919" lon="1.567404">
        <ele>2086.000000</ele>
        <time>2020-08-22T11:14:57Z</time>
      </trkpt>
      <trkpt lat="42.494919" lon="1.567404">
        <ele>2086.000000</ele>
        <time>2020-08-22T11:14:57Z</time>
      </trkpt>
      <trkpt lat="42.494942" lon="1.567420">
        <ele>2086.000000</ele>
        <time>2020-08-22T11:14:57Z</time>
      </trkpt>
      <trkpt lat="42.494942" lon="1.567420">
        <ele>2086.000000</ele>
        <time>2020-08-22T11:14:57Z</time>
      </trkpt>
      <trkpt lat="42.494965" lon="1.567437">
        <ele>2086.000000</ele>
        <time>2020-08-22T11:15:04Z</time>
      </trkpt>
      <trkpt lat="42.494965" lon="1.567437">
        <ele>2086.000000</ele>
        <time>2020-08-22T11:15:04Z</time>
      </trkpt>
      <trkpt lat="42.494987" lon="1.567453">
        <ele>2086.000000</ele>
        <time>2020-08-22T11:15:04Z</time>
      </trkpt>
      <trkpt lat="42.494987" lon="1.567453">
        <ele>2086.000000</ele>
        <time>2020-08-22T11:15:04Z</time>
      </trkpt>
      <trkpt lat="42.495014" lon="1.567467">
        <ele>2086.000000</ele>
        <time>2020-08-22T11:15:04Z</time>
      </trkpt>
      <trkpt lat="42.495014" lon="1.567467">
        <ele>2086.000000</ele>
        <time>2020-08-22T11:15:04Z</time>
      </trkpt>
      <trkpt lat="42.495041" lon="1.567478">
        <ele>2086.000000</ele>
        <time>2020-08-22T11:15:04Z</time>
      </trkpt>
      <trkpt lat="42.495041" lon="1.567478">
        <ele>2086.000000</ele>
        <time>2020-08-22T11:15:04Z</time>
      </trkpt>
      <trkpt lat="42.495060" lon="1.567487">
        <ele>2086.000000</ele>
        <time>2020-08-22T11:15:04Z</time>
      </trkpt>
      <trkpt lat="42.495060" lon="1.567487">
        <ele>2086.000000</ele>
        <time>2020-08-22T11:15:04Z</time>
      </trkpt>
      <trkpt lat="42.495033" lon="1.567469">
        <ele>2086.000000</ele>
        <time>2020-08-22T11:15:04Z</time>
      </trkpt>
      <trkpt lat="42.495033" lon="1.567469">
        <ele>2086.000000</ele>
        <time>2020-08-22T11:15:04Z</time>
      </trkpt>
      <trkpt lat="42.495007" lon="1.567451">
        <ele>2086.000000</ele>
        <time>2020-08-22T11:15:04Z</time>
      </trkpt>
      <trkpt lat="42.495007" lon="1.567451">
        <ele>2086.000000</ele>
        <time>2020-08-22T11:15:04Z</time>
      </trkpt>
      <trkpt lat="42.494980" lon="1.567432">
        <ele>2086.000000</ele>
        <time>2020-08-22T11:15:04Z</time>
      </trkpt>
      <trkpt lat="42.494980" lon="1.567432">
        <ele>2086.000000</ele>
        <time>2020-08-22T11:15:04Z</time>
      </trkpt>
      <trkpt lat="42.494946" lon="1.567414">
        <ele>2086.000000</ele>
        <time>2020-08-22T11:15:04Z</time>
      </trkpt>
      <trkpt lat="42.494946" lon="1.567414">
        <ele>2086.000000</ele>
        <time>2020-08-22T11:15:04Z</time>
      </trkpt>
      <trkpt lat="42.494919" lon="1.567394">
        <ele>2086.000000</ele>
        <time>2020-08-22T11:15:04Z</time>
      </trkpt>
      <trkpt lat="42.494919" lon="1.567394">
        <ele>2086.000000</ele>
        <time>2020-08-22T11:15:04Z</time>
      </trkpt>
      <trkpt lat="42.494884" lon="1.567374">
        <ele>2086.000000</ele>
        <time>2020-08-22T11:15:11Z</time>
      </trkpt>
      <trkpt lat="42.494884" lon="1.567374">
        <ele>2086.000000</ele>
        <time>2020-08-22T11:15:11Z</time>
      </trkpt>
      <trkpt lat="42.494850" lon="1.567354">
        <ele>2086.000000</ele>
        <time>2020-08-22T11:15:11Z</time>
      </trkpt>
      <trkpt lat="42.494850" lon="1.567354">
        <ele>2086.000000</ele>
        <time>2020-08-22T11:15:11Z</time>
      </trkpt>
      <trkpt lat="42.494820" lon="1.567334">
        <ele>2086.000000</ele>
        <time>2020-08-22T11:15:11Z</time>
      </trkpt>
      <trkpt lat="42.494820" lon="1.567334">
        <ele>2086.000000</ele>
        <time>2020-08-22T11:15:11Z</time>
      </trkpt>
      <trkpt lat="42.494789" lon="1.567316">
        <ele>2086.000000</ele>
        <time>2020-08-22T11:15:11Z</time>
      </trkpt>
      <trkpt lat="42.494789" lon="1.567316">
        <ele>2086.000000</ele>
        <time>2020-08-22T11:15:11Z</time>
      </trkpt>
      <trkpt lat="42.494759" lon="1.567299">
        <ele>2086.000000</ele>
        <time>2020-08-22T11:15:11Z</time>
      </trkpt>
      <trkpt lat="42.494759" lon="1.567299">
        <ele>2086.000000</ele>
        <time>2020-08-22T11:15:11Z</time>
      </trkpt>
      <trkpt lat="42.494751" lon="1.567294">
        <ele>2087.000000</ele>
        <time>2020-08-22T11:15:11Z</time>
      </trkpt>
      <trkpt lat="42.494751" lon="1.567294">
        <ele>2087.000000</ele>
        <time>2020-08-22T11:15:11Z</time>
      </trkpt>
      <trkpt lat="42.494740" lon="1.567290">
        <ele>2087.000000</ele>
        <time>2020-08-22T11:15:19Z</time>
      </trkpt>
      <trkpt lat="42.494740" lon="1.567290">
        <ele>2087.000000</ele>
        <time>2020-08-22T11:15:19Z</time>
      </trkpt>
      <trkpt lat="42.494732" lon="1.567285">
        <ele>2087.000000</ele>
        <time>2020-08-22T11:15:19Z</time>
      </trkpt>
      <trkpt lat="42.494732" lon="1.567285">
        <ele>2088.000000</ele>
        <time>2020-08-22T11:15:19Z</time>
      </trkpt>
      <trkpt lat="42.494724" lon="1.567281">
        <ele>2088.000000</ele>
        <time>2020-08-22T11:15:19Z</time>
      </trkpt>
      <trkpt lat="42.494724" lon="1.567281">
        <ele>2088.000000</ele>
        <time>2020-08-22T11:15:19Z</time>
      </trkpt>
      <trkpt lat="42.494720" lon="1.567277">
        <ele>2089.000000</ele>
        <time>2020-08-22T11:15:19Z</time>
      </trkpt>
      <trkpt lat="42.494720" lon="1.567277">
        <ele>2089.000000</ele>
        <time>2020-08-22T11:15:19Z</time>
      </trkpt>
      <trkpt lat="42.494717" lon="1.567274">
        <ele>2089.000000</ele>
        <time>2020-08-22T11:15:19Z</time>
      </trkpt>
      <trkpt lat="42.494717" lon="1.567274">
        <ele>2089.000000</ele>
        <time>2020-08-22T11:15:19Z</time>
      </trkpt>
      <trkpt lat="42.494717" lon="1.567272">
        <ele>2090.000000</ele>
        <time>2020-08-22T11:15:19Z</time>
      </trkpt>
      <trkpt lat="42.494717" lon="1.567272">
        <ele>2090.000000</ele>
        <time>2020-08-22T11:15:19Z</time>
      </trkpt>
      <trkpt lat="42.494720" lon="1.567271">
        <ele>2090.000000</ele>
        <time>2020-08-22T11:15:19Z</time>
      </trkpt>
      <trkpt lat="42.494720" lon="1.567271">
        <ele>2090.000000</ele>
        <time>2020-08-22T11:15:19Z</time>
      </trkpt>
      <trkpt lat="42.494724" lon="1.567270">
        <ele>2090.000000</ele>
        <time>2020-08-22T11:15:26Z</time>
      </trkpt>
      <trkpt lat="42.494724" lon="1.567270">
        <ele>2091.000000</ele>
        <time>2020-08-22T11:15:26Z</time>
      </trkpt>
      <trkpt lat="42.494728" lon="1.567271">
        <ele>2091.000000</ele>
        <time>2020-08-22T11:15:26Z</time>
      </trkpt>
      <trkpt lat="42.494728" lon="1.567271">
        <ele>2091.000000</ele>
        <time>2020-08-22T11:15:26Z</time>
      </trkpt>
      <trkpt lat="42.494740" lon="1.567272">
        <ele>2091.000000</ele>
        <time>2020-08-22T11:15:26Z</time>
      </trkpt>
      <trkpt lat="42.494740" lon="1.567272">
        <ele>2091.000000</ele>
        <time>2020-08-22T11:15:26Z</time>
      </trkpt>
      <trkpt lat="42.494755" lon="1.567273">
        <ele>2091.000000</ele>
        <time>2020-08-22T11:15:26Z</time>
      </trkpt>
      <trkpt lat="42.494755" lon="1.567273">
        <ele>2091.000000</ele>
        <time>2020-08-22T11:15:26Z</time>
      </trkpt>
      <trkpt lat="42.494766" lon="1.567274">
        <ele>2091.000000</ele>
        <time>2020-08-22T11:15:26Z</time>
      </trkpt>
      <trkpt lat="42.494766" lon="1.567274">
        <ele>2091.000000</ele>
        <time>2020-08-22T11:15:26Z</time>
      </trkpt>
      <trkpt lat="42.494778" lon="1.567276">
        <ele>2091.000000</ele>
        <time>2020-08-22T11:15:33Z</time>
      </trkpt>
      <trkpt lat="42.494778" lon="1.567276">
        <ele>2091.000000</ele>
        <time>2020-08-22T11:15:33Z</time>
      </trkpt>
      <trkpt lat="42.494793" lon="1.567277">
        <ele>2092.000000</ele>
        <time>2020-08-22T11:15:33Z</time>
      </trkpt>
      <trkpt lat="42.494793" lon="1.567277">
        <ele>2092.000000</ele>
        <time>2020-08-22T11:15:33Z</time>
      </trkpt>
      <trkpt lat="42.494808" lon="1.567281">
        <ele>2092.000000</ele>
        <time>2020-08-22T11:15:33Z</time>
      </trkpt>
      <trkpt lat="42.494808" lon="1.567281">
        <ele>2092.000000</ele>
        <time>2020-08-22T11:15:33Z</time>
      </trkpt>
      <trkpt lat="42.494820" lon="1.567286">
        <ele>2092.000000</ele>
        <time>2020-08-22T11:15:33Z</time>
      </trkpt>
      <trkpt lat="42.494820" lon="1.567286">
        <ele>2092.000000</ele>
        <time>2020-08-22T11:15:33Z</time>
      </trkpt>
      <trkpt lat="42.494835" lon="1.567293">
        <ele>2092.000000</ele>
        <time>2020-08-22T11:15:33Z</time>
      </trkpt>
      <trkpt lat="42.494835" lon="1.567293">
        <ele>2092.000000</ele>
        <time>2020-08-22T11:15:33Z</time>
      </trkpt>
      <trkpt lat="42.494846" lon="1.567301">
        <ele>2094.000000</ele>
        <time>2020-08-22T11:15:33Z</time>
      </trkpt>
      <trkpt lat="42.494846" lon="1.567301">
        <ele>2094.000000</ele>
        <time>2020-08-22T11:15:33Z</time>
      </trkpt>
      <trkpt lat="42.494862" lon="1.567310">
        <ele>2094.000000</ele>
        <time>2020-08-22T11:15:33Z</time>
      </trkpt>
      <trkpt lat="42.494862" lon="1.567310">
        <ele>2094.000000</ele>
        <time>2020-08-22T11:15:33Z</time>
      </trkpt>
      <trkpt lat="42.494873" lon="1.567327">
        <ele>2094.000000</ele>
        <time>2020-08-22T11:15:33Z</time>
      </trkpt>
      <trkpt lat="42.494873" lon="1.567327">
        <ele>2094.000000</ele>
        <time>2020-08-22T11:15:33Z</time>
      </trkpt>
      <trkpt lat="42.494884" lon="1.567344">
        <ele>2094.000000</ele>
        <time>2020-08-22T11:15:40Z</time>
      </trkpt>
      <trkpt lat="42.494884" lon="1.567344">
        <ele>2094.000000</ele>
        <time>2020-08-22T11:15:40Z</time>
      </trkpt>
      <trkpt lat="42.494896" lon="1.567360">
        <ele>2094.000000</ele>
        <time>2020-08-22T11:15:40Z</time>
      </trkpt>
      <trkpt lat="42.494896" lon="1.567360">
        <ele>2094.000000</ele>
        <time>2020-08-22T11:15:40Z</time>
      </trkpt>
      <trkpt lat="42.494900" lon="1.567375">
        <ele>2094.000000</ele>
        <time>2020-08-22T11:15:40Z</time>
      </trkpt>
      <trkpt lat="42.494900" lon="1.567375">
        <ele>2094.000000</ele>
        <time>2020-08-22T11:15:40Z</time>
      </trkpt>
      <trkpt lat="42.494907" lon="1.567388">
        <ele>2097.000000</ele>
        <time>2020-08-22T11:15:40Z</time>
      </trkpt>
      <trkpt lat="42.494907" lon="1.567388">
        <ele>2097.000000</ele>
        <time>2020-08-22T11:15:40Z</time>
      </trkpt>
      <trkpt lat="42.494911" lon="1.567399">
        <ele>2097.000000</ele>
        <time>2020-08-22T11:15:40Z</time>
      </trkpt>
      <trkpt lat="42.494911" lon="1.567399">
        <ele>2098.000000</ele>
        <time>2020-08-22T11:15:40Z</time>
      </trkpt>
      <trkpt lat="42.494911" lon="1.567407">
        <ele>2098.000000</ele>
        <time>2020-08-22T11:15:40Z</time>
      </trkpt>
      <trkpt lat="42.494911" lon="1.567407">
        <ele>2098.000000</ele>
        <time>2020-08-22T11:15:40Z</time>
      </trkpt>
      <trkpt lat="42.494911" lon="1.567413">
        <ele>2099.000000</ele>
        <time>2020-08-22T11:15:40Z</time>
      </trkpt>
      <trkpt lat="42.494911" lon="1.567413">
        <ele>2099.000000</ele>
        <time>2020-08-22T11:15:40Z</time>
      </trkpt>
      <trkpt lat="42.494911" lon="1.567417">
        <ele>2099.000000</ele>
        <time>2020-08-22T11:15:47Z</time>
      </trkpt>
      <trkpt lat="42.494911" lon="1.567417">
        <ele>2099.000000</ele>
        <time>2020-08-22T11:15:47Z</time>
      </trkpt>
      <trkpt lat="42.494907" lon="1.567419">
        <ele>2101.000000</ele>
        <time>2020-08-22T11:15:47Z</time>
      </trkpt>
      <trkpt lat="42.494907" lon="1.567419">
        <ele>2101.000000</ele>
        <time>2020-08-22T11:15:47Z</time>
      </trkpt>
      <trkpt lat="42.494884" lon="1.567393">
        <ele>2101.000000</ele>
        <time>2020-08-22T11:15:47Z</time>
      </trkpt>
      <trkpt lat="42.494884" lon="1.567393">
        <ele>2101.000000</ele>
        <time>2020-08-22T11:15:47Z</time>
      </trkpt>
      <trkpt lat="42.494865" lon="1.567368">
        <ele>2101.000000</ele>
        <time>2020-08-22T11:15:47Z</time>
      </trkpt>
      <trkpt lat="42.494865" lon="1.567368">
        <ele>2101.000000</ele>
        <time>2020-08-22T11:15:47Z</time>
      </trkpt>
      <trkpt lat="42.494846" lon="1.567343">
        <ele>2102.000000</ele>
        <time>2020-08-22T11:15:54Z</time>
      </trkpt>
      <trkpt lat="42.494846" lon="1.567343">
        <ele>2102.000000</ele>
        <time>2020-08-22T11:15:54Z</time>
      </trkpt>
      <trkpt lat="42.494827" lon="1.567319">
        <ele>2102.000000</ele>
        <time>2020-08-22T11:15:54Z</time>
      </trkpt>
      <trkpt lat="42.494827" lon="1.567319">
        <ele>2103.000000</ele>
        <time>2020-08-22T11:15:54Z</time>
      </trkpt>
      <trkpt lat="42.494804" lon="1.567295">
        <ele>2104.000000</ele>
        <time>2020-08-22T11:15:54Z</time>
      </trkpt>
      <trkpt lat="42.494804" lon="1.567295">
        <ele>2105.000000</ele>
        <time>2020-08-22T11:15:54Z</time>
      </trkpt>
      <trkpt lat="42.494785" lon="1.567272">
        <ele>2105.000000</ele>
        <time>2020-08-22T11:15:54Z</time>
      </trkpt>
      <trkpt lat="42.494785" lon="1.567272">
        <ele>2105.000000</ele>
        <time>2020-08-22T11:15:54Z</time>
      </trkpt>
      <trkpt lat="42.494766" lon="1.567250">
        <ele>2105.000000</ele>
        <time>2020-08-22T11:15:54Z</time>
      </trkpt>
      <trkpt lat="42.494766" lon="1.567250">
        <ele>2105.000000</ele>
        <time>2020-08-22T11:15:54Z</time>
      </trkpt>
      <trkpt lat="42.494743" lon="1.567230">
        <ele>2106.000000</ele>
        <time>2020-08-22T11:15:54Z</time>
      </trkpt>
      <trkpt lat="42.494743" lon="1.567230">
        <ele>2106.000000</ele>
        <time>2020-08-22T11:15:54Z</time>
      </trkpt>
      <trkpt lat="42.494720" lon="1.567211">
        <ele>2106.000000</ele>
        <time>2020-08-22T11:15:54Z</time>
      </trkpt>
      <trkpt lat="42.494720" lon="1.567211">
        <ele>2106.000000</ele>
        <time>2020-08-22T11:15:54Z</time>
      </trkpt>
      <trkpt lat="42.494698" lon="1.567194">
        <ele>2108.000000</ele>
        <time>2020-08-22T11:16:01Z</time>
      </trkpt>
      <trkpt lat="42.494698" lon="1.567194">
        <ele>2108.000000</ele>
        <time>2020-08-22T11:16:01Z</time>
      </trkpt>
      <trkpt lat="42.494686" lon="1.567196">
        <ele>2108.000000</ele>
        <time>2020-08-22T11:16:01Z</time>
      </trkpt>
      <trkpt lat="42.494686" lon="1.567196">
        <ele>2108.000000</ele>
        <time>2020-08-22T11:16:01Z</time>
      </trkpt>
      <trkpt lat="42.494678" lon="1.567198">
        <ele>2108.000000</ele>
        <time>2020-08-22T11:16:01Z</time>
      </trkpt>
      <trkpt lat="42.494678" lon="1.567198">
        <ele>2108.000000</ele>
        <time>2020-08-22T11:16:01Z</time>
      </trkpt>
      <trkpt lat="42.494667" lon="1.567201">
        <ele>2108.000000</ele>
        <time>2020-08-22T11:16:01Z</time>
      </trkpt>
      <trkpt lat="42.494667" lon="1.567201">
        <ele>2108.000000</ele>
        <time>2020-08-22T11:16:01Z</time>
      </trkpt>
      <trkpt lat="42.494656" lon="1.567205">
        <ele>2108.000000</ele>
        <time>2020-08-22T11:16:01Z</time>
      </trkpt>
      <trkpt lat="42.494656" lon="1.567205">
        <ele>2109.000000</ele>
        <time>2020-08-22T11:16:01Z</time>
      </trkpt>
      <trkpt lat="42.494648" lon="1.567208">
        <ele>2109.000000</ele>
        <time>2020-08-22T11:16:01Z</time>
      </trkpt>
      <trkpt lat="42.494648" lon="1.567208">
        <ele>2109.000000</ele>
        <time>2020-08-22T11:16:01Z</time>
      </trkpt>
      <trkpt lat="42.494640" lon="1.567210">
        <ele>2109.000000</ele>
        <time>2020-08-22T11:16:01Z</time>
      </trkpt>
      <trkpt lat="42.494640" lon="1.567210">
        <ele>2109.000000</ele>
        <time>2020-08-22T11:16:01Z</time>
      </trkpt>
      <trkpt lat="42.494633" lon="1.567211">
        <ele>2110.000000</ele>
        <time>2020-08-22T11:16:08Z</time>
      </trkpt>
      <trkpt lat="42.494633" lon="1.567211">
        <ele>2110.000000</ele>
        <time>2020-08-22T11:16:08Z</time>
      </trkpt>
      <trkpt lat="42.494625" lon="1.567209">
        <ele>2110.000000</ele>
        <time>2020-08-22T11:16:08Z</time>
      </trkpt>
      <trkpt lat="42.494625" lon="1.567209">
        <ele>2111.000000</ele>
        <time>2020-08-22T11:16:08Z</time>
      </trkpt>
      <trkpt lat="42.494617" lon="1.567204">
        <ele>2111.000000</ele>
        <time>2020-08-22T11:16:08Z</time>
      </trkpt>
      <trkpt lat="42.494617" lon="1.567204">
        <ele>2111.000000</ele>
        <time>2020-08-22T11:16:08Z</time>
      </trkpt>
      <trkpt lat="42.494610" lon="1.567194">
        <ele>2113.000000</ele>
        <time>2020-08-22T11:16:08Z</time>
      </trkpt>
      <trkpt lat="42.494610" lon="1.567194">
        <ele>2113.000000</ele>
        <time>2020-08-22T11:16:08Z</time>
      </trkpt>
      <trkpt lat="42.494617" lon="1.567170">
        <ele>2113.000000</ele>
        <time>2020-08-22T11:16:08Z</time>
      </trkpt>
      <trkpt lat="42.494617" lon="1.567170">
        <ele>2114.000000</ele>
        <time>2020-08-22T11:16:08Z</time>
      </trkpt>
      <trkpt lat="42.494625" lon="1.567147">
        <ele>2114.000000</ele>
        <time>2020-08-22T11:16:15Z</time>
      </trkpt>
      <trkpt lat="42.494625" lon="1.567147">
        <ele>2114.000000</ele>
        <time>2020-08-22T11:16:15Z</time>
      </trkpt>
      <trkpt lat="42.494640" lon="1.567124">
        <ele>2114.000000</ele>
        <time>2020-08-22T11:16:15Z</time>
      </trkpt>
      <trkpt lat="42.494640" lon="1.567124">
        <ele>2114.000000</ele>
        <time>2020-08-22T11:16:15Z</time>
      </trkpt>
      <trkpt lat="42.494652" lon="1.567102">
        <ele>2115.000000</ele>
        <time>2020-08-22T11:16:15Z</time>
      </trkpt>
      <trkpt lat="42.494652" lon="1.567102">
        <ele>2115.000000</ele>
        <time>2020-08-22T11:16:15Z</time>
      </trkpt>
      <trkpt lat="42.494671" lon="1.567082">
        <ele>2115.000000</ele>
        <time>2020-08-22T11:16:15Z</time>
      </trkpt>
      <trkpt lat="42.494671" lon="1.567082">
        <ele>2115.000000</ele>
        <time>2020-08-22T11:16:15Z</time>
      </trkpt>
      <trkpt lat="42.494686" lon="1.567063">
        <ele>2115.000000</ele>
        <time>2020-08-22T11:16:15Z</time>
      </trkpt>
      <trkpt lat="42.494686" lon="1.567063">
        <ele>2116.000000</ele>
        <time>2020-08-22T11:16:15Z</time>
      </trkpt>
      <trkpt lat="42.494705" lon="1.567045">
        <ele>2116.000000</ele>
        <time>2020-08-22T11:16:15Z</time>
      </trkpt>
      <trkpt lat="42.494705" lon="1.567045">
        <ele>2116.000000</ele>
        <time>2020-08-22T11:16:15Z</time>
      </trkpt>
      <trkpt lat="42.494724" lon="1.567029">
        <ele>2116.000000</ele>
        <time>2020-08-22T11:16:15Z</time>
      </trkpt>
      <trkpt lat="42.494724" lon="1.567029">
        <ele>2116.000000</ele>
        <time>2020-08-22T11:16:15Z</time>
      </trkpt>
      <trkpt lat="42.494751" lon="1.567015">
        <ele>2116.000000</ele>
        <time>2020-08-22T11:16:22Z</time>
      </trkpt>
      <trkpt lat="42.494751" lon="1.567015">
        <ele>2116.000000</ele>
        <time>2020-08-22T11:16:22Z</time>
      </trkpt>
      <trkpt lat="42.494770" lon="1.567004">
        <ele>2116.000000</ele>
        <time>2020-08-22T11:16:22Z</time>
      </trkpt>
      <trkpt lat="42.494770" lon="1.567004">
        <ele>2116.000000</ele>
        <time>2020-08-22T11:16:22Z</time>
      </trkpt>
      <trkpt lat="42.494785" lon="1.567007">
        <ele>2116.000000</ele>
        <time>2020-08-22T11:16:22Z</time>
      </trkpt>
      <trkpt lat="42.494785" lon="1.567007">
        <ele>2116.000000</ele>
        <time>2020-08-22T11:16:22Z</time>
      </trkpt>
      <trkpt lat="42.494793" lon="1.567008">
        <ele>2116.000000</ele>
        <time>2020-08-22T11:16:22Z</time>
      </trkpt>
      <trkpt lat="42.494793" lon="1.567008">
        <ele>2116.000000</ele>
        <time>2020-08-22T11:16:22Z</time>
      </trkpt>
      <trkpt lat="42.494804" lon="1.567007">
        <ele>2116.000000</ele>
        <time>2020-08-22T11:16:22Z</time>
      </trkpt>
      <trkpt lat="42.494804" lon="1.567007">
        <ele>2116.000000</ele>
        <time>2020-08-22T11:16:22Z</time>
      </trkpt>
      <trkpt lat="42.494812" lon="1.567004">
        <ele>2116.000000</ele>
        <time>2020-08-22T11:16:22Z</time>
      </trkpt>
      <trkpt lat="42.494812" lon="1.567004">
        <ele>2116.000000</ele>
        <time>2020-08-22T11:16:22Z</time>
      </trkpt>
      <trkpt lat="42.494820" lon="1.566997">
        <ele>2116.000000</ele>
        <time>2020-08-22T11:16:22Z</time>
      </trkpt>
      <trkpt lat="42.494820" lon="1.566997">
        <ele>2116.000000</ele>
        <time>2020-08-22T11:16:22Z</time>
      </trkpt>
      <trkpt lat="42.494823" lon="1.566988">
        <ele>2116.000000</ele>
        <time>2020-08-22T11:16:29Z</time>
      </trkpt>
      <trkpt lat="42.494823" lon="1.566988">
        <ele>2116.000000</ele>
        <time>2020-08-22T11:16:29Z</time>
      </trkpt>
      <trkpt lat="42.494831" lon="1.566976">
        <ele>2116.000000</ele>
        <time>2020-08-22T11:16:29Z</time>
      </trkpt>
      <trkpt lat="42.494831" lon="1.566976">
        <ele>2116.000000</ele>
        <time>2020-08-22T11:16:29Z</time>
      </trkpt>
      <trkpt lat="42.494831" lon="1.566964">
        <ele>2116.000000</ele>
        <time>2020-08-22T11:16:29Z</time>
      </trkpt>
      <trkpt lat="42.494831" lon="1.566964">
        <ele>2116.000000</ele>
        <time>2020-08-22T11:16:29Z</time>
      </trkpt>
      <trkpt lat="42.494835" lon="1.566951">
        <ele>2116.000000</ele>
        <time>2020-08-22T11:16:29Z</time>
      </trkpt>
      <trkpt lat="42.494835" lon="1.566951">
        <ele>2116.000000</ele>
        <time>2020-08-22T11:16:29Z</time>
      </trkpt>
      <trkpt lat="42.494839" lon="1.566937">
        <ele>2116.000000</ele>
        <time>2020-08-22T11:16:29Z</time>
      </trkpt>
      <trkpt lat="42.494839" lon="1.566937">
        <ele>2116.000000</ele>
        <time>2020-08-22T11:16:29Z</time>
      </trkpt>
      <trkpt lat="42.494846" lon="1.566921">
        <ele>2116.000000</ele>
        <time>2020-08-22T11:16:29Z</time>
      </trkpt>
      <trkpt lat="42.494846" lon="1.566921">
        <ele>2116.000000</ele>
        <time>2020-08-22T11:16:29Z</time>
      </trkpt>
      <trkpt lat="42.494854" lon="1.566905">
        <ele>2116.000000</ele>
        <time>2020-08-22T11:16:36Z</time>
      </trkpt>
      <trkpt lat="42.494854" lon="1.566905">
        <ele>2116.000000</ele>
        <time>2020-08-22T11:16:36Z</time>
      </trkpt>
      <trkpt lat="42.494858" lon="1.566890">
        <ele>2116.000000</ele>
        <time>2020-08-22T11:16:36Z</time>
      </trkpt>
      <trkpt lat="42.494858" lon="1.566890">
        <ele>2116.000000</ele>
        <time>2020-08-22T11:16:36Z</time>
      </trkpt>
      <trkpt lat="42.494862" lon="1.566876">
        <ele>2116.000000</ele>
        <time>2020-08-22T11:16:36Z</time>
      </trkpt>
      <trkpt lat="42.494862" lon="1.566876">
        <ele>2116.000000</ele>
        <time>2020-08-22T11:16:36Z</time>
      </trkpt>
      <trkpt lat="42.494865" lon="1.566864">
        <ele>2116.000000</ele>
        <time>2020-08-22T11:16:36Z</time>
      </trkpt>
      <trkpt lat="42.494865" lon="1.566864">
        <ele>2116.000000</ele>
        <time>2020-08-22T11:16:36Z</time>
      </trkpt>
      <trkpt lat="42.494865" lon="1.566854">
        <ele>2116.000000</ele>
        <time>2020-08-22T11:16:36Z</time>
      </trkpt>
      <trkpt lat="42.494865" lon="1.566854">
        <ele>2116.000000</ele>
        <time>2020-08-22T11:16:36Z</time>
      </trkpt>
      <trkpt lat="42.494869" lon="1.566843">
        <ele>2116.000000</ele>
        <time>2020-08-22T11:16:36Z</time>
      </trkpt>
      <trkpt lat="42.494869" lon="1.566843">
        <ele>2116.000000</ele>
        <time>2020-08-22T11:16:36Z</time>
      </trkpt>
      <trkpt lat="42.494865" lon="1.566833">
        <ele>2116.000000</ele>
        <time>2020-08-22T11:16:36Z</time>
      </trkpt>
      <trkpt lat="42.494865" lon="1.566833">
        <ele>2116.000000</ele>
        <time>2020-08-22T11:16:36Z</time>
      </trkpt>
      <trkpt lat="42.494865" lon="1.566823">
        <ele>2116.000000</ele>
        <time>2020-08-22T11:16:43Z</time>
      </trkpt>
      <trkpt lat="42.494865" lon="1.566823">
        <ele>2116.000000</ele>
        <time>2020-08-22T11:16:43Z</time>
      </trkpt>
      <trkpt lat="42.494862" lon="1.566813">
        <ele>2116.000000</ele>
        <time>2020-08-22T11:16:43Z</time>
      </trkpt>
      <trkpt lat="42.494862" lon="1.566813">
        <ele>2116.000000</ele>
        <time>2020-08-22T11:16:43Z</time>
      </trkpt>
      <trkpt lat="42.494846" lon="1.566806">
        <ele>2116.000000</ele>
        <time>2020-08-22T11:16:43Z</time>
      </trkpt>
      <trkpt lat="42.494846" lon="1.566806">
        <ele>2116.000000</ele>
        <time>2020-08-22T11:16:43Z</time>
      </trkpt>
      <trkpt lat="42.494831" lon="1.566799">
        <ele>2116.000000</ele>
        <time>2020-08-22T11:16:43Z</time>
      </trkpt>
      <trkpt lat="42.494831" lon="1.566799">
        <ele>2116.000000</ele>
        <time>2020-08-22T11:16:43Z</time>
      </trkpt>
      <trkpt lat="42.494820" lon="1.566792">
        <ele>2116.000000</ele>
        <time>2020-08-22T11:16:43Z</time>
      </trkpt>
      <trkpt lat="42.494820" lon="1.566792">
        <ele>2116.000000</ele>
        <time>2020-08-22T11:16:43Z</time>
      </trkpt>
      <trkpt lat="42.494804" lon="1.566787">
        <ele>2116.000000</ele>
        <time>2020-08-22T11:16:43Z</time>
      </trkpt>
      <trkpt lat="42.494804" lon="1.566787">
        <ele>2116.000000</ele>
        <time>2020-08-22T11:16:43Z</time>
      </trkpt>
      <trkpt lat="42.494793" lon="1.566784">
        <ele>2116.000000</ele>
        <time>2020-08-22T11:16:43Z</time>
      </trkpt>
      <trkpt lat="42.494793" lon="1.566784">
        <ele>2116.000000</ele>
        <time>2020-08-22T11:16:43Z</time>
      </trkpt>
      <trkpt lat="42.494778" lon="1.566781">
        <ele>2116.000000</ele>
        <time>2020-08-22T11:16:50Z</time>
      </trkpt>
      <trkpt lat="42.494778" lon="1.566781">
        <ele>2116.000000</ele>
        <time>2020-08-22T11:16:50Z</time>
      </trkpt>
      <trkpt lat="42.494762" lon="1.566781">
        <ele>2116.000000</ele>
        <time>2020-08-22T11:16:50Z</time>
      </trkpt>
      <trkpt lat="42.494762" lon="1.566781">
        <ele>2116.000000</ele>
        <time>2020-08-22T11:16:50Z</time>
      </trkpt>
      <trkpt lat="42.494751" lon="1.566781">
        <ele>2116.000000</ele>
        <time>2020-08-22T11:16:50Z</time>
      </trkpt>
      <trkpt lat="42.494751" lon="1.566781">
        <ele>2116.000000</ele>
        <time>2020-08-22T11:16:50Z</time>
      </trkpt>
      <trkpt lat="42.494736" lon="1.566782">
        <ele>2116.000000</ele>
        <time>2020-08-22T11:16:50Z</time>
      </trkpt>
      <trkpt lat="42.494736" lon="1.566782">
        <ele>2116.000000</ele>
        <time>2020-08-22T11:16:50Z</time>
      </trkpt>
      <trkpt lat="42.494720" lon="1.566784">
        <ele>2116.000000</ele>
        <time>2020-08-22T11:16:50Z</time>
      </trkpt>
      <trkpt lat="42.494720" lon="1.566784">
        <ele>2116.000000</ele>
        <time>2020-08-22T11:16:50Z</time>
      </trkpt>
      <trkpt lat="42.494705" lon="1.566786">
        <ele>2116.000000</ele>
        <time>2020-08-22T11:16:50Z</time>
      </trkpt>
      <trkpt lat="42.494705" lon="1.566786">
        <ele>2116.000000</ele>
        <time>2020-08-22T11:16:50Z</time>
      </trkpt>
      <trkpt lat="42.494690" lon="1.566789">
        <ele>2116.000000</ele>
        <time>2020-08-22T11:16:50Z</time>
      </trkpt>
      <trkpt lat="42.494690" lon="1.566789">
        <ele>2116.000000</ele>
        <time>2020-08-22T11:16:50Z</time>
      </trkpt>
      <trkpt lat="42.494675" lon="1.566791">
        <ele>2116.000000</ele>
        <time>2020-08-22T11:16:57Z</time>
      </trkpt>
      <trkpt lat="42.494675" lon="1.566791">
        <ele>2116.000000</ele>
        <time>2020-08-22T11:16:57Z</time>
      </trkpt>
      <trkpt lat="42.494659" lon="1.566792">
        <ele>2116.000000</ele>
        <time>2020-08-22T11:16:57Z</time>
      </trkpt>
      <trkpt lat="42.494659" lon="1.566792">
        <ele>2116.000000</ele>
        <time>2020-08-22T11:16:57Z</time>
      </trkpt>
      <trkpt lat="42.494644" lon="1.566793">
        <ele>2116.000000</ele>
        <time>2020-08-22T11:16:57Z</time>
      </trkpt>
      <trkpt lat="42.494644" lon="1.566793">
        <ele>2116.000000</ele>
        <time>2020-08-22T11:16:57Z</time>
      </trkpt>
      <trkpt lat="42.494625" lon="1.566795">
        <ele>2116.000000</ele>
        <time>2020-08-22T11:16:57Z</time>
      </trkpt>
      <trkpt lat="42.494625" lon="1.566795">
        <ele>2116.000000</ele>
        <time>2020-08-22T11:16:57Z</time>
      </trkpt>
      <trkpt lat="42.494614" lon="1.566797">
        <ele>2116.000000</ele>
        <time>2020-08-22T11:16:57Z</time>
      </trkpt>
      <trkpt lat="42.494614" lon="1.566797">
        <ele>2116.000000</ele>
        <time>2020-08-22T11:16:57Z</time>
      </trkpt>
      <trkpt lat="42.494598" lon="1.566799">
        <ele>2116.000000</ele>
        <time>2020-08-22T11:16:57Z</time>
      </trkpt>
      <trkpt lat="42.494598" lon="1.566799">
        <ele>2116.000000</ele>
        <time>2020-08-22T11:16:57Z</time>
      </trkpt>
      <trkpt lat="42.494587" lon="1.566802">
        <ele>2116.000000</ele>
        <time>2020-08-22T11:16:57Z</time>
      </trkpt>
      <trkpt lat="42.494587" lon="1.566802">
        <ele>2116.000000</ele>
        <time>2020-08-22T11:16:57Z</time>
      </trkpt>
      <trkpt lat="42.494575" lon="1.566806">
        <ele>2116.000000</ele>
        <time>2020-08-22T11:17:04Z</time>
      </trkpt>
      <trkpt lat="42.494575" lon="1.566806">
        <ele>2116.000000</ele>
        <time>2020-08-22T11:17:04Z</time>
      </trkpt>
      <trkpt lat="42.494560" lon="1.566814">
        <ele>2116.000000</ele>
        <time>2020-08-22T11:17:04Z</time>
      </trkpt>
      <trkpt lat="42.494560" lon="1.566814">
        <ele>2116.000000</ele>
        <time>2020-08-22T11:17:04Z</time>
      </trkpt>
      <trkpt lat="42.494545" lon="1.566824">
        <ele>2116.000000</ele>
        <time>2020-08-22T11:17:04Z</time>
      </trkpt>
      <trkpt lat="42.494545" lon="1.566824">
        <ele>2116.000000</ele>
        <time>2020-08-22T11:17:04Z</time>
      </trkpt>
      <trkpt lat="42.494537" lon="1.566837">
        <ele>2116.000000</ele>
        <time>2020-08-22T11:17:04Z</time>
      </trkpt>
      <trkpt lat="42.494537" lon="1.566837">
        <ele>2116.000000</ele>
        <time>2020-08-22T11:17:04Z</time>
      </trkpt>
      <trkpt lat="42.494526" lon="1.566852">
        <ele>2116.000000</ele>
        <time>2020-08-22T11:17:11Z</time>
      </trkpt>
      <trkpt lat="42.494526" lon="1.566852">
        <ele>2116.000000</ele>
        <time>2020-08-22T11:17:11Z</time>
      </trkpt>
      <trkpt lat="42.494518" lon="1.566869">
        <ele>2116.000000</ele>
        <time>2020-08-22T11:17:11Z</time>
      </trkpt>
      <trkpt lat="42.494518" lon="1.566869">
        <ele>2116.000000</ele>
        <time>2020-08-22T11:17:11Z</time>
      </trkpt>
      <trkpt lat="42.494507" lon="1.566887">
        <ele>2116.000000</ele>
        <time>2020-08-22T11:17:11Z</time>
      </trkpt>
      <trkpt lat="42.494507" lon="1.566887">
        <ele>2116.000000</ele>
        <time>2020-08-22T11:17:11Z</time>
      </trkpt>
      <trkpt lat="42.494503" lon="1.566907">
        <ele>2116.000000</ele>
        <time>2020-08-22T11:17:11Z</time>
      </trkpt>
      <trkpt lat="42.494503" lon="1.566907">
        <ele>2116.000000</ele>
        <time>2020-08-22T11:17:11Z</time>
      </trkpt>
      <trkpt lat="42.494495" lon="1.566928">
        <ele>2116.000000</ele>
        <time>2020-08-22T11:17:11Z</time>
      </trkpt>
      <trkpt lat="42.494495" lon="1.566928">
        <ele>2116.000000</ele>
        <time>2020-08-22T11:17:11Z</time>
      </trkpt>
      <trkpt lat="42.494492" lon="1.566949">
        <ele>2116.000000</ele>
        <time>2020-08-22T11:17:11Z</time>
      </trkpt>
      <trkpt lat="42.494492" lon="1.566949">
        <ele>2116.000000</ele>
        <time>2020-08-22T11:17:11Z</time>
      </trkpt>
      <trkpt lat="42.494492" lon="1.566970">
        <ele>2116.000000</ele>
        <time>2020-08-22T11:17:11Z</time>
      </trkpt>
      <trkpt lat="42.494492" lon="1.566970">
        <ele>2116.000000</ele>
        <time>2020-08-22T11:17:11Z</time>
      </trkpt>
      <trkpt lat="42.494484" lon="1.566990">
        <ele>2116.000000</ele>
        <time>2020-08-22T11:17:11Z</time>
      </trkpt>
      <trkpt lat="42.494484" lon="1.566990">
        <ele>2116.000000</ele>
        <time>2020-08-22T11:17:11Z</time>
      </trkpt>
      <trkpt lat="42.494484" lon="1.567008">
        <ele>2116.000000</ele>
        <time>2020-08-22T11:17:11Z</time>
      </trkpt>
      <trkpt lat="42.494484" lon="1.567008">
        <ele>2116.000000</ele>
        <time>2020-08-22T11:17:11Z</time>
      </trkpt>
      <trkpt lat="42.494480" lon="1.567025">
        <ele>2116.000000</ele>
        <time>2020-08-22T11:17:11Z</time>
      </trkpt>
      <trkpt lat="42.494480" lon="1.567025">
        <ele>2116.000000</ele>
        <time>2020-08-22T11:17:11Z</time>
      </trkpt>
      <trkpt lat="42.494480" lon="1.567041">
        <ele>2116.000000</ele>
        <time>2020-08-22T11:17:11Z</time>
      </trkpt>
      <trkpt lat="42.494480" lon="1.567041">
        <ele>2116.000000</ele>
        <time>2020-08-22T11:17:11Z</time>
      </trkpt>
      <trkpt lat="42.494476" lon="1.567056">
        <ele>2116.000000</ele>
        <time>2020-08-22T11:17:11Z</time>
      </trkpt>
      <trkpt lat="42.494476" lon="1.567056">
        <ele>2116.000000</ele>
        <time>2020-08-22T11:17:11Z</time>
      </trkpt>
      <trkpt lat="42.494476" lon="1.567070">
        <ele>2116.000000</ele>
        <time>2020-08-22T11:17:11Z</time>
      </trkpt>
      <trkpt lat="42.494476" lon="1.567070">
        <ele>2116.000000</ele>
        <time>2020-08-22T11:17:11Z</time>
      </trkpt>
      <trkpt lat="42.494472" lon="1.567082">
        <ele>2116.000000</ele>
        <time>2020-08-22T11:17:18Z</time>
      </trkpt>
      <trkpt lat="42.494472" lon="1.567082">
        <ele>2116.000000</ele>
        <time>2020-08-22T11:17:18Z</time>
      </trkpt>
      <trkpt lat="42.494469" lon="1.567095">
        <ele>2116.000000</ele>
        <time>2020-08-22T11:17:18Z</time>
      </trkpt>
      <trkpt lat="42.494469" lon="1.567095">
        <ele>2116.000000</ele>
        <time>2020-08-22T11:17:18Z</time>
      </trkpt>
      <trkpt lat="42.494469" lon="1.567106">
        <ele>2116.000000</ele>
        <time>2020-08-22T11:17:18Z</time>
      </trkpt>
      <trkpt lat="42.494469" lon="1.567106">
        <ele>2116.000000</ele>
        <time>2020-08-22T11:17:18Z</time>
      </trkpt>
      <trkpt lat="42.494465" lon="1.567119">
        <ele>2116.000000</ele>
        <time>2020-08-22T11:17:18Z</time>
      </trkpt>
      <trkpt lat="42.494465" lon="1.567119">
        <ele>2116.000000</ele>
        <time>2020-08-22T11:17:18Z</time>
      </trkpt>
      <trkpt lat="42.494469" lon="1.567129">
        <ele>2116.000000</ele>
        <time>2020-08-22T11:17:18Z</time>
      </trkpt>
      <trkpt lat="42.494469" lon="1.567129">
        <ele>2116.000000</ele>
        <time>2020-08-22T11:17:18Z</time>
      </trkpt>
      <trkpt lat="42.494476" lon="1.567140">
        <ele>2116.000000</ele>
        <time>2020-08-22T11:17:18Z</time>
      </trkpt>
      <trkpt lat="42.494476" lon="1.567140">
        <ele>2116.000000</ele>
        <time>2020-08-22T11:17:18Z</time>
      </trkpt>
      <trkpt lat="42.494476" lon="1.567151">
        <ele>2116.000000</ele>
        <time>2020-08-22T11:17:18Z</time>
      </trkpt>
      <trkpt lat="42.494476" lon="1.567151">
        <ele>2116.000000</ele>
        <time>2020-08-22T11:17:18Z</time>
      </trkpt>
      <trkpt lat="42.494484" lon="1.567162">
        <ele>2116.000000</ele>
        <time>2020-08-22T11:17:25Z</time>
      </trkpt>
      <trkpt lat="42.494484" lon="1.567162">
        <ele>2116.000000</ele>
        <time>2020-08-22T11:17:25Z</time>
      </trkpt>
      <trkpt lat="42.494488" lon="1.567173">
        <ele>2116.000000</ele>
        <time>2020-08-22T11:17:25Z</time>
      </trkpt>
      <trkpt lat="42.494488" lon="1.567173">
        <ele>2116.000000</ele>
        <time>2020-08-22T11:17:25Z</time>
      </trkpt>
      <trkpt lat="42.494495" lon="1.567184">
        <ele>2116.000000</ele>
        <time>2020-08-22T11:17:25Z</time>
      </trkpt>
      <trkpt lat="42.494495" lon="1.567184">
        <ele>2116.000000</ele>
        <time>2020-08-22T11:17:25Z</time>
      </trkpt>
      <trkpt lat="42.494503" lon="1.567196">
        <ele>2116.000000</ele>
        <time>2020-08-22T11:17:25Z</time>
      </trkpt>
      <trkpt lat="42.494503" lon="1.567196">
        <ele>2116.000000</ele>
        <time>2020-08-22T11:17:25Z</time>
      </trkpt>
      <trkpt lat="42.494511" lon="1.567208">
        <ele>2116.000000</ele>
        <time>2020-08-22T11:17:25Z</time>
      </trkpt>
      <trkpt lat="42.494511" lon="1.567208">
        <ele>2116.000000</ele>
        <time>2020-08-22T11:17:25Z</time>
      </trkpt>
      <trkpt lat="42.494522" lon="1.567220">
        <ele>2116.000000</ele>
        <time>2020-08-22T11:17:25Z</time>
      </trkpt>
      <trkpt lat="42.494522" lon="1.567220">
        <ele>2116.000000</ele>
        <time>2020-08-22T11:17:25Z</time>
      </trkpt>
      <trkpt lat="42.494530" lon="1.567230">
        <ele>2116.000000</ele>
        <time>2020-08-22T11:17:25Z</time>
      </trkpt>
      <trkpt lat="42.494530" lon="1.567230">
        <ele>2116.000000</ele>
        <time>2020-08-22T11:17:25Z</time>
      </trkpt>
      <trkpt lat="42.494545" lon="1.567231">
        <ele>2116.000000</ele>
        <time>2020-08-22T11:17:25Z</time>
      </trkpt>
      <trkpt lat="42.494545" lon="1.567231">
        <ele>2116.000000</ele>
        <time>2020-08-22T11:17:25Z</time>
      </trkpt>
      <trkpt lat="42.494564" lon="1.567229">
        <ele>2116.000000</ele>
        <time>2020-08-22T11:17:25Z</time>
      </trkpt>
      <trkpt lat="42.494564" lon="1.567229">
        <ele>2116.000000</ele>
        <time>2020-08-22T11:17:25Z</time>
      </trkpt>
      <trkpt lat="42.494572" lon="1.567225">
        <ele>2116.000000</ele>
        <time>2020-08-22T11:17:25Z</time>
      </trkpt>
      <trkpt lat="42.494572" lon="1.567225">
        <ele>2116.000000</ele>
        <time>2020-08-22T11:17:25Z</time>
      </trkpt>
      <trkpt lat="42.494583" lon="1.567218">
        <ele>2116.000000</ele>
        <time>2020-08-22T11:17:25Z</time>
      </trkpt>
      <trkpt lat="42.494583" lon="1.567218">
        <ele>2116.000000</ele>
        <time>2020-08-22T11:17:25Z</time>
      </trkpt>
      <trkpt lat="42.494587" lon="1.567210">
        <ele>2116.000000</ele>
        <time>2020-08-22T11:17:25Z</time>
      </trkpt>
      <trkpt lat="42.494587" lon="1.567210">
        <ele>2116.000000</ele>
        <time>2020-08-22T11:17:25Z</time>
      </trkpt>
      <trkpt lat="42.494591" lon="1.567200">
        <ele>2116.000000</ele>
        <time>2020-08-22T11:17:32Z</time>
      </trkpt>
      <trkpt lat="42.494591" lon="1.567200">
        <ele>2116.000000</ele>
        <time>2020-08-22T11:17:32Z</time>
      </trkpt>
      <trkpt lat="42.494591" lon="1.567190">
        <ele>2116.000000</ele>
        <time>2020-08-22T11:17:32Z</time>
      </trkpt>
      <trkpt lat="42.494591" lon="1.567190">
        <ele>2116.000000</ele>
        <time>2020-08-22T11:17:32Z</time>
      </trkpt>
      <trkpt lat="42.494591" lon="1.567180">
        <ele>2116.000000</ele>
        <time>2020-08-22T11:17:32Z</time>
      </trkpt>
      <trkpt lat="42.494591" lon="1.567180">
        <ele>2116.000000</ele>
        <time>2020-08-22T11:17:32Z</time>
      </trkpt>
      <trkpt lat="42.494587" lon="1.567169">
        <ele>2116.000000</ele>
        <time>2020-08-22T11:17:32Z</time>
      </trkpt>
      <trkpt lat="42.494587" lon="1.567169">
        <ele>2116.000000</ele>
        <time>2020-08-22T11:17:32Z</time>
      </trkpt>
      <trkpt lat="42.494583" lon="1.567158">
        <ele>2116.000000</ele>
        <time>2020-08-22T11:17:32Z</time>
      </trkpt>
      <trkpt lat="42.494583" lon="1.567158">
        <ele>2116.000000</ele>
        <time>2020-08-22T11:17:32Z</time>
      </trkpt>
      <trkpt lat="42.494564" lon="1.567155">
        <ele>2116.000000</ele>
        <time>2020-08-22T11:17:32Z</time>
      </trkpt>
      <trkpt lat="42.494564" lon="1.567155">
        <ele>2116.000000</ele>
        <time>2020-08-22T11:17:32Z</time>
      </trkpt>
      <trkpt lat="42.494556" lon="1.567153">
        <ele>2116.000000</ele>
        <time>2020-08-22T11:17:32Z</time>
      </trkpt>
      <trkpt lat="42.494556" lon="1.567153">
        <ele>2116.000000</ele>
        <time>2020-08-22T11:17:32Z</time>
      </trkpt>
      <trkpt lat="42.494541" lon="1.567152">
        <ele>2116.000000</ele>
        <time>2020-08-22T11:17:32Z</time>
      </trkpt>
      <trkpt lat="42.494541" lon="1.567152">
        <ele>2116.000000</ele>
        <time>2020-08-22T11:17:32Z</time>
      </trkpt>
      <trkpt lat="42.494530" lon="1.567151">
        <ele>2116.000000</ele>
        <time>2020-08-22T11:17:32Z</time>
      </trkpt>
      <trkpt lat="42.494530" lon="1.567151">
        <ele>2116.000000</ele>
        <time>2020-08-22T11:17:32Z</time>
      </trkpt>
      <trkpt lat="42.494518" lon="1.567149">
        <ele>2116.000000</ele>
        <time>2020-08-22T11:17:32Z</time>
      </trkpt>
      <trkpt lat="42.494518" lon="1.567149">
        <ele>2116.000000</ele>
        <time>2020-08-22T11:17:32Z</time>
      </trkpt>
      <trkpt lat="42.494511" lon="1.567144">
        <ele>2116.000000</ele>
        <time>2020-08-22T11:17:32Z</time>
      </trkpt>
      <trkpt lat="42.494511" lon="1.567144">
        <ele>2116.000000</ele>
        <time>2020-08-22T11:17:32Z</time>
      </trkpt>
      <trkpt lat="42.494503" lon="1.567136">
        <ele>2116.000000</ele>
        <time>2020-08-22T11:17:32Z</time>
      </trkpt>
      <trkpt lat="42.494503" lon="1.567136">
        <ele>2116.000000</ele>
        <time>2020-08-22T11:17:32Z</time>
      </trkpt>
      <trkpt lat="42.494492" lon="1.567126">
        <ele>2116.000000</ele>
        <time>2020-08-22T11:17:39Z</time>
      </trkpt>
      <trkpt lat="42.494492" lon="1.567126">
        <ele>2116.000000</ele>
        <time>2020-08-22T11:17:39Z</time>
      </trkpt>
      <trkpt lat="42.494484" lon="1.567112">
        <ele>2116.000000</ele>
        <time>2020-08-22T11:17:39Z</time>
      </trkpt>
      <trkpt lat="42.494484" lon="1.567112">
        <ele>2116.000000</ele>
        <time>2020-08-22T11:17:39Z</time>
      </trkpt>
      <trkpt lat="42.494476" lon="1.567094">
        <ele>2116.000000</ele>
        <time>2020-08-22T11:17:39Z</time>
      </trkpt>
      <trkpt lat="42.494476" lon="1.567094">
        <ele>2116.000000</ele>
        <time>2020-08-22T11:17:39Z</time>
      </trkpt>
      <trkpt lat="42.494450" lon="1.567083">
        <ele>2116.000000</ele>
        <time>2020-08-22T11:17:39Z</time>
      </trkpt>
      <trkpt lat="42.494450" lon="1.567083">
        <ele>2116.000000</ele>
        <time>2020-08-22T11:17:39Z</time>
      </trkpt>
      <trkpt lat="42.494423" lon="1.567071">
        <ele>2116.000000</ele>
        <time>2020-08-22T11:17:46Z</time>
      </trkpt>
      <trkpt lat="42.494423" lon="1.567071">
        <ele>2116.000000</ele>
        <time>2020-08-22T11:17:46Z</time>
      </trkpt>
      <trkpt lat="42.494396" lon="1.567062">
        <ele>2116.000000</ele>
        <time>2020-08-22T11:17:46Z</time>
      </trkpt>
      <trkpt lat="42.494396" lon="1.567062">
        <ele>2116.000000</ele>
        <time>2020-08-22T11:17:46Z</time>
      </trkpt>
      <trkpt lat="42.494369" lon="1.567054">
        <ele>2116.000000</ele>
        <time>2020-08-22T11:17:46Z</time>
      </trkpt>
      <trkpt lat="42.494369" lon="1.567054">
        <ele>2116.000000</ele>
        <time>2020-08-22T11:17:46Z</time>
      </trkpt>
      <trkpt lat="42.494343" lon="1.567050">
        <ele>2116.000000</ele>
        <time>2020-08-22T11:17:46Z</time>
      </trkpt>
      <trkpt lat="42.494343" lon="1.567050">
        <ele>2116.000000</ele>
        <time>2020-08-22T11:17:46Z</time>
      </trkpt>
      <trkpt lat="42.494316" lon="1.567051">
        <ele>2116.000000</ele>
        <time>2020-08-22T11:17:46Z</time>
      </trkpt>
      <trkpt lat="42.494316" lon="1.567051">
        <ele>2116.000000</ele>
        <time>2020-08-22T11:17:46Z</time>
      </trkpt>
      <trkpt lat="42.494286" lon="1.567057">
        <ele>2116.000000</ele>
        <time>2020-08-22T11:17:46Z</time>
      </trkpt>
      <trkpt lat="42.494286" lon="1.567057">
        <ele>2116.000000</ele>
        <time>2020-08-22T11:17:46Z</time>
      </trkpt>
      <trkpt lat="42.494255" lon="1.567068">
        <ele>2116.000000</ele>
        <time>2020-08-22T11:17:46Z</time>
      </trkpt>
      <trkpt lat="42.494255" lon="1.567068">
        <ele>2116.000000</ele>
        <time>2020-08-22T11:17:46Z</time>
      </trkpt>
      <trkpt lat="42.494228" lon="1.567085">
        <ele>2116.000000</ele>
        <time>2020-08-22T11:17:53Z</time>
      </trkpt>
      <trkpt lat="42.494228" lon="1.567085">
        <ele>2116.000000</ele>
        <time>2020-08-22T11:17:53Z</time>
      </trkpt>
      <trkpt lat="42.494202" lon="1.567106">
        <ele>2116.000000</ele>
        <time>2020-08-22T11:17:53Z</time>
      </trkpt>
      <trkpt lat="42.494202" lon="1.567106">
        <ele>2116.000000</ele>
        <time>2020-08-22T11:17:53Z</time>
      </trkpt>
      <trkpt lat="42.494190" lon="1.567125">
        <ele>2116.000000</ele>
        <time>2020-08-22T11:17:53Z</time>
      </trkpt>
      <trkpt lat="42.494190" lon="1.567125">
        <ele>2116.000000</ele>
        <time>2020-08-22T11:17:53Z</time>
      </trkpt>
      <trkpt lat="42.494183" lon="1.567145">
        <ele>2116.000000</ele>
        <time>2020-08-22T11:17:53Z</time>
      </trkpt>
      <trkpt lat="42.494183" lon="1.567145">
        <ele>2116.000000</ele>
        <time>2020-08-22T11:17:53Z</time>
      </trkpt>
      <trkpt lat="42.494171" lon="1.567164">
        <ele>2116.000000</ele>
        <time>2020-08-22T11:17:53Z</time>
      </trkpt>
      <trkpt lat="42.494171" lon="1.567164">
        <ele>2116.000000</ele>
        <time>2020-08-22T11:17:53Z</time>
      </trkpt>
      <trkpt lat="42.494160" lon="1.567182">
        <ele>2116.000000</ele>
        <time>2020-08-22T11:17:53Z</time>
      </trkpt>
      <trkpt lat="42.494160" lon="1.567182">
        <ele>2116.000000</ele>
        <time>2020-08-22T11:17:53Z</time>
      </trkpt>
      <trkpt lat="42.494148" lon="1.567198">
        <ele>2116.000000</ele>
        <time>2020-08-22T11:17:53Z</time>
      </trkpt>
      <trkpt lat="42.494148" lon="1.567198">
        <ele>2116.000000</ele>
        <time>2020-08-22T11:17:53Z</time>
      </trkpt>
      <trkpt lat="42.494137" lon="1.567212">
        <ele>2116.000000</ele>
        <time>2020-08-22T11:18:00Z</time>
      </trkpt>
      <trkpt lat="42.494137" lon="1.567212">
        <ele>2116.000000</ele>
        <time>2020-08-22T11:18:00Z</time>
      </trkpt>
      <trkpt lat="42.494129" lon="1.567223">
        <ele>2116.000000</ele>
        <time>2020-08-22T11:18:00Z</time>
      </trkpt>
      <trkpt lat="42.494129" lon="1.567223">
        <ele>2116.000000</ele>
        <time>2020-08-22T11:18:00Z</time>
      </trkpt>
      <trkpt lat="42.494122" lon="1.567230">
        <ele>2116.000000</ele>
        <time>2020-08-22T11:18:00Z</time>
      </trkpt>
      <trkpt lat="42.494122" lon="1.567230">
        <ele>2116.000000</ele>
        <time>2020-08-22T11:18:00Z</time>
      </trkpt>
      <trkpt lat="42.494110" lon="1.567236">
        <ele>2116.000000</ele>
        <time>2020-08-22T11:18:00Z</time>
      </trkpt>
      <trkpt lat="42.494110" lon="1.567236">
        <ele>2116.000000</ele>
        <time>2020-08-22T11:18:00Z</time>
      </trkpt>
      <trkpt lat="42.494099" lon="1.567239">
        <ele>2116.000000</ele>
        <time>2020-08-22T11:18:00Z</time>
      </trkpt>
      <trkpt lat="42.494099" lon="1.567239">
        <ele>2116.000000</ele>
        <time>2020-08-22T11:18:00Z</time>
      </trkpt>
      <trkpt lat="42.494076" lon="1.567253">
        <ele>2116.000000</ele>
        <time>2020-08-22T11:18:07Z</time>
      </trkpt>
      <trkpt lat="42.494076" lon="1.567253">
        <ele>2116.000000</ele>
        <time>2020-08-22T11:18:07Z</time>
      </trkpt>
      <trkpt lat="42.494057" lon="1.567266">
        <ele>2116.000000</ele>
        <time>2020-08-22T11:18:07Z</time>
      </trkpt>
      <trkpt lat="42.494057" lon="1.567266">
        <ele>2116.000000</ele>
        <time>2020-08-22T11:18:07Z</time>
      </trkpt>
      <trkpt lat="42.494038" lon="1.567279">
        <ele>2116.000000</ele>
        <time>2020-08-22T11:18:07Z</time>
      </trkpt>
      <trkpt lat="42.494038" lon="1.567279">
        <ele>2116.000000</ele>
        <time>2020-08-22T11:18:07Z</time>
      </trkpt>
      <trkpt lat="42.494022" lon="1.567292">
        <ele>2116.000000</ele>
        <time>2020-08-22T11:18:07Z</time>
      </trkpt>
      <trkpt lat="42.494022" lon="1.567292">
        <ele>2116.000000</ele>
        <time>2020-08-22T11:18:07Z</time>
      </trkpt>
      <trkpt lat="42.494003" lon="1.567305">
        <ele>2116.000000</ele>
        <time>2020-08-22T11:18:07Z</time>
      </trkpt>
      <trkpt lat="42.494003" lon="1.567305">
        <ele>2116.000000</ele>
        <time>2020-08-22T11:18:07Z</time>
      </trkpt>
      <trkpt lat="42.493988" lon="1.567320">
        <ele>2116.000000</ele>
        <time>2020-08-22T11:18:07Z</time>
      </trkpt>
      <trkpt lat="42.493988" lon="1.567320">
        <ele>2116.000000</ele>
        <time>2020-08-22T11:18:07Z</time>
      </trkpt>
      <trkpt lat="42.493973" lon="1.567337">
        <ele>2116.000000</ele>
        <time>2020-08-22T11:18:07Z</time>
      </trkpt>
      <trkpt lat="42.493973" lon="1.567337">
        <ele>2116.000000</ele>
        <time>2020-08-22T11:18:07Z</time>
      </trkpt>
      <trkpt lat="42.493961" lon="1.567356">
        <ele>2116.000000</ele>
        <time>2020-08-22T11:18:14Z</time>
      </trkpt>
      <trkpt lat="42.493961" lon="1.567356">
        <ele>2116.000000</ele>
        <time>2020-08-22T11:18:14Z</time>
      </trkpt>
      <trkpt lat="42.493950" lon="1.567378">
        <ele>2116.000000</ele>
        <time>2020-08-22T11:18:14Z</time>
      </trkpt>
      <trkpt lat="42.493950" lon="1.567378">
        <ele>2116.000000</ele>
        <time>2020-08-22T11:18:14Z</time>
      </trkpt>
      <trkpt lat="42.493935" lon="1.567403">
        <ele>2116.000000</ele>
        <time>2020-08-22T11:18:14Z</time>
      </trkpt>
      <trkpt lat="42.493935" lon="1.567403">
        <ele>2116.000000</ele>
        <time>2020-08-22T11:18:14Z</time>
      </trkpt>
      <trkpt lat="42.493927" lon="1.567422">
        <ele>2116.000000</ele>
        <time>2020-08-22T11:18:14Z</time>
      </trkpt>
      <trkpt lat="42.493927" lon="1.567422">
        <ele>2116.000000</ele>
        <time>2020-08-22T11:18:14Z</time>
      </trkpt>
      <trkpt lat="42.493916" lon="1.567441">
        <ele>2116.000000</ele>
        <time>2020-08-22T11:18:14Z</time>
      </trkpt>
      <trkpt lat="42.493916" lon="1.567441">
        <ele>2116.000000</ele>
        <time>2020-08-22T11:18:14Z</time>
      </trkpt>
      <trkpt lat="42.493900" lon="1.567460">
        <ele>2116.000000</ele>
        <time>2020-08-22T11:18:14Z</time>
      </trkpt>
      <trkpt lat="42.493900" lon="1.567460">
        <ele>2116.000000</ele>
        <time>2020-08-22T11:18:14Z</time>
      </trkpt>
      <trkpt lat="42.493889" lon="1.567479">
        <ele>2116.000000</ele>
        <time>2020-08-22T11:18:14Z</time>
      </trkpt>
      <trkpt lat="42.493889" lon="1.567479">
        <ele>2116.000000</ele>
        <time>2020-08-22T11:18:14Z</time>
      </trkpt>
      <trkpt lat="42.493874" lon="1.567497">
        <ele>2116.000000</ele>
        <time>2020-08-22T11:18:21Z</time>
      </trkpt>
      <trkpt lat="42.493874" lon="1.567497">
        <ele>2116.000000</ele>
        <time>2020-08-22T11:18:21Z</time>
      </trkpt>
      <trkpt lat="42.493858" lon="1.567513">
        <ele>2116.000000</ele>
        <time>2020-08-22T11:18:21Z</time>
      </trkpt>
      <trkpt lat="42.493858" lon="1.567513">
        <ele>2116.000000</ele>
        <time>2020-08-22T11:18:21Z</time>
      </trkpt>
      <trkpt lat="42.493843" lon="1.567528">
        <ele>2116.000000</ele>
        <time>2020-08-22T11:18:21Z</time>
      </trkpt>
      <trkpt lat="42.493843" lon="1.567528">
        <ele>2116.000000</ele>
        <time>2020-08-22T11:18:21Z</time>
      </trkpt>
      <trkpt lat="42.493824" lon="1.567542">
        <ele>2116.000000</ele>
        <time>2020-08-22T11:18:21Z</time>
      </trkpt>
      <trkpt lat="42.493824" lon="1.567542">
        <ele>2116.000000</ele>
        <time>2020-08-22T11:18:21Z</time>
      </trkpt>
      <trkpt lat="42.493809" lon="1.567552">
        <ele>2116.000000</ele>
        <time>2020-08-22T11:18:21Z</time>
      </trkpt>
      <trkpt lat="42.493809" lon="1.567552">
        <ele>2116.000000</ele>
        <time>2020-08-22T11:18:21Z</time>
      </trkpt>
      <trkpt lat="42.493790" lon="1.567561">
        <ele>2116.000000</ele>
        <time>2020-08-22T11:18:21Z</time>
      </trkpt>
      <trkpt lat="42.493790" lon="1.567561">
        <ele>2116.000000</ele>
        <time>2020-08-22T11:18:21Z</time>
      </trkpt>
      <trkpt lat="42.493771" lon="1.567569">
        <ele>2116.000000</ele>
        <time>2020-08-22T11:18:29Z</time>
      </trkpt>
      <trkpt lat="42.493771" lon="1.567569">
        <ele>2116.000000</ele>
        <time>2020-08-22T11:18:29Z</time>
      </trkpt>
      <trkpt lat="42.493752" lon="1.567576">
        <ele>2116.000000</ele>
        <time>2020-08-22T11:18:29Z</time>
      </trkpt>
      <trkpt lat="42.493752" lon="1.567576">
        <ele>2116.000000</ele>
        <time>2020-08-22T11:18:29Z</time>
      </trkpt>
      <trkpt lat="42.493732" lon="1.567582">
        <ele>2116.000000</ele>
        <time>2020-08-22T11:18:29Z</time>
      </trkpt>
      <trkpt lat="42.493732" lon="1.567582">
        <ele>2116.000000</ele>
        <time>2020-08-22T11:18:29Z</time>
      </trkpt>
      <trkpt lat="42.493713" lon="1.567588">
        <ele>2116.000000</ele>
        <time>2020-08-22T11:18:29Z</time>
      </trkpt>
      <trkpt lat="42.493713" lon="1.567588">
        <ele>2116.000000</ele>
        <time>2020-08-22T11:18:29Z</time>
      </trkpt>
      <trkpt lat="42.493690" lon="1.567591">
        <ele>2116.000000</ele>
        <time>2020-08-22T11:18:29Z</time>
      </trkpt>
      <trkpt lat="42.493690" lon="1.567591">
        <ele>2116.000000</ele>
        <time>2020-08-22T11:18:29Z</time>
      </trkpt>
      <trkpt lat="42.493668" lon="1.567594">
        <ele>2116.000000</ele>
        <time>2020-08-22T11:18:29Z</time>
      </trkpt>
      <trkpt lat="42.493668" lon="1.567594">
        <ele>2116.000000</ele>
        <time>2020-08-22T11:18:29Z</time>
      </trkpt>
      <trkpt lat="42.493652" lon="1.567595">
        <ele>2116.000000</ele>
        <time>2020-08-22T11:18:29Z</time>
      </trkpt>
      <trkpt lat="42.493652" lon="1.567595">
        <ele>2116.000000</ele>
        <time>2020-08-22T11:18:29Z</time>
      </trkpt>
      <trkpt lat="42.493633" lon="1.567595">
        <ele>2116.000000</ele>
        <time>2020-08-22T11:18:36Z</time>
      </trkpt>
      <trkpt lat="42.493633" lon="1.567595">
        <ele>2116.000000</ele>
        <time>2020-08-22T11:18:36Z</time>
      </trkpt>
      <trkpt lat="42.493610" lon="1.567593">
        <ele>2116.000000</ele>
        <time>2020-08-22T11:18:36Z</time>
      </trkpt>
      <trkpt lat="42.493610" lon="1.567593">
        <ele>2116.000000</ele>
        <time>2020-08-22T11:18:36Z</time>
      </trkpt>
      <trkpt lat="42.493591" lon="1.567589">
        <ele>2116.000000</ele>
        <time>2020-08-22T11:18:36Z</time>
      </trkpt>
      <trkpt lat="42.493591" lon="1.567589">
        <ele>2116.000000</ele>
        <time>2020-08-22T11:18:36Z</time>
      </trkpt>
      <trkpt lat="42.493561" lon="1.567591">
        <ele>2116.000000</ele>
        <time>2020-08-22T11:18:36Z</time>
      </trkpt>
      <trkpt lat="42.493561" lon="1.567591">
        <ele>2116.000000</ele>
        <time>2020-08-22T11:18:36Z</time>
      </trkpt>
      <trkpt lat="42.493534" lon="1.567594">
        <ele>2116.000000</ele>
        <time>2020-08-22T11:18:36Z</time>
      </trkpt>
      <trkpt lat="42.493534" lon="1.567594">
        <ele>2116.000000</ele>
        <time>2020-08-22T11:18:36Z</time>
      </trkpt>
      <trkpt lat="42.493504" lon="1.567596">
        <ele>2116.000000</ele>
        <time>2020-08-22T11:18:36Z</time>
      </trkpt>
      <trkpt lat="42.493504" lon="1.567596">
        <ele>2116.000000</ele>
        <time>2020-08-22T11:18:36Z</time>
      </trkpt>
      <trkpt lat="42.493477" lon="1.567598">
        <ele>2116.000000</ele>
        <time>2020-08-22T11:18:36Z</time>
      </trkpt>
      <trkpt lat="42.493477" lon="1.567598">
        <ele>2116.000000</ele>
        <time>2020-08-22T11:18:36Z</time>
      </trkpt>
      <trkpt lat="42.493446" lon="1.567602">
        <ele>2116.000000</ele>
        <time>2020-08-22T11:18:36Z</time>
      </trkpt>
      <trkpt lat="42.493446" lon="1.567602">
        <ele>2116.000000</ele>
        <time>2020-08-22T11:18:36Z</time>
      </trkpt>
      <trkpt lat="42.493420" lon="1.567605">
        <ele>2116.000000</ele>
        <time>2020-08-22T11:18:36Z</time>
      </trkpt>
      <trkpt lat="42.493420" lon="1.567605">
        <ele>2116.000000</ele>
        <time>2020-08-22T11:18:36Z</time>
      </trkpt>
      <trkpt lat="42.493393" lon="1.567609">
        <ele>2116.000000</ele>
        <time>2020-08-22T11:18:43Z</time>
      </trkpt>
      <trkpt lat="42.493393" lon="1.567609">
        <ele>2116.000000</ele>
        <time>2020-08-22T11:18:43Z</time>
      </trkpt>
      <trkpt lat="42.493366" lon="1.567611">
        <ele>2116.000000</ele>
        <time>2020-08-22T11:18:43Z</time>
      </trkpt>
      <trkpt lat="42.493366" lon="1.567611">
        <ele>2116.000000</ele>
        <time>2020-08-22T11:18:43Z</time>
      </trkpt>
      <trkpt lat="42.493336" lon="1.567613">
        <ele>2116.000000</ele>
        <time>2020-08-22T11:18:43Z</time>
      </trkpt>
      <trkpt lat="42.493336" lon="1.567613">
        <ele>2116.000000</ele>
        <time>2020-08-22T11:18:43Z</time>
      </trkpt>
      <trkpt lat="42.493305" lon="1.567612">
        <ele>2116.000000</ele>
        <time>2020-08-22T11:18:43Z</time>
      </trkpt>
      <trkpt lat="42.493305" lon="1.567612">
        <ele>2116.000000</ele>
        <time>2020-08-22T11:18:43Z</time>
      </trkpt>
      <trkpt lat="42.493278" lon="1.567588">
        <ele>2116.000000</ele>
        <time>2020-08-22T11:18:43Z</time>
      </trkpt>
      <trkpt lat="42.493278" lon="1.567588">
        <ele>2116.000000</ele>
        <time>2020-08-22T11:18:43Z</time>
      </trkpt>
      <trkpt lat="42.493259" lon="1.567564">
        <ele>2116.000000</ele>
        <time>2020-08-22T11:18:43Z</time>
      </trkpt>
      <trkpt lat="42.493259" lon="1.567564">
        <ele>2116.000000</ele>
        <time>2020-08-22T11:18:43Z</time>
      </trkpt>
      <trkpt lat="42.493244" lon="1.567540">
        <ele>2116.000000</ele>
        <time>2020-08-22T11:18:43Z</time>
      </trkpt>
      <trkpt lat="42.493244" lon="1.567540">
        <ele>2116.000000</ele>
        <time>2020-08-22T11:18:43Z</time>
      </trkpt>
      <trkpt lat="42.493225" lon="1.567518">
        <ele>2116.000000</ele>
        <time>2020-08-22T11:18:43Z</time>
      </trkpt>
      <trkpt lat="42.493225" lon="1.567518">
        <ele>2116.000000</ele>
        <time>2020-08-22T11:18:43Z</time>
      </trkpt>
      <trkpt lat="42.493210" lon="1.567498">
        <ele>2116.000000</ele>
        <time>2020-08-22T11:18:50Z</time>
      </trkpt>
      <trkpt lat="42.493210" lon="1.567498">
        <ele>2116.000000</ele>
        <time>2020-08-22T11:18:50Z</time>
      </trkpt>
      <trkpt lat="42.493198" lon="1.567479">
        <ele>2116.000000</ele>
        <time>2020-08-22T11:18:50Z</time>
      </trkpt>
      <trkpt lat="42.493198" lon="1.567479">
        <ele>2116.000000</ele>
        <time>2020-08-22T11:18:50Z</time>
      </trkpt>
      <trkpt lat="42.493187" lon="1.567462">
        <ele>2116.000000</ele>
        <time>2020-08-22T11:18:50Z</time>
      </trkpt>
      <trkpt lat="42.493187" lon="1.567462">
        <ele>2116.000000</ele>
        <time>2020-08-22T11:18:50Z</time>
      </trkpt>
      <trkpt lat="42.493179" lon="1.567449">
        <ele>2116.000000</ele>
        <time>2020-08-22T11:18:50Z</time>
      </trkpt>
      <trkpt lat="42.493179" lon="1.567449">
        <ele>2116.000000</ele>
        <time>2020-08-22T11:18:50Z</time>
      </trkpt>
      <trkpt lat="42.493172" lon="1.567438">
        <ele>2116.000000</ele>
        <time>2020-08-22T11:18:50Z</time>
      </trkpt>
      <trkpt lat="42.493172" lon="1.567438">
        <ele>2116.000000</ele>
        <time>2020-08-22T11:18:50Z</time>
      </trkpt>
      <trkpt lat="42.493172" lon="1.567431">
        <ele>2116.000000</ele>
        <time>2020-08-22T11:18:50Z</time>
      </trkpt>
      <trkpt lat="42.493172" lon="1.567431">
        <ele>2116.000000</ele>
        <time>2020-08-22T11:18:50Z</time>
      </trkpt>
      <trkpt lat="42.493183" lon="1.567435">
        <ele>2116.000000</ele>
        <time>2020-08-22T11:18:50Z</time>
      </trkpt>
      <trkpt lat="42.493183" lon="1.567435">
        <ele>2116.000000</ele>
        <time>2020-08-22T11:18:50Z</time>
      </trkpt>
      <trkpt lat="42.493195" lon="1.567439">
        <ele>2116.000000</ele>
        <time>2020-08-22T11:18:50Z</time>
      </trkpt>
      <trkpt lat="42.493195" lon="1.567439">
        <ele>2116.000000</ele>
        <time>2020-08-22T11:18:50Z</time>
      </trkpt>
      <trkpt lat="42.493198" lon="1.567441">
        <ele>2116.000000</ele>
        <time>2020-08-22T11:18:57Z</time>
      </trkpt>
      <trkpt lat="42.493198" lon="1.567441">
        <ele>2116.000000</ele>
        <time>2020-08-22T11:18:57Z</time>
      </trkpt>
      <trkpt lat="42.493202" lon="1.567441">
        <ele>2116.000000</ele>
        <time>2020-08-22T11:18:57Z</time>
      </trkpt>
      <trkpt lat="42.493202" lon="1.567441">
        <ele>2116.000000</ele>
        <time>2020-08-22T11:18:57Z</time>
      </trkpt>
      <trkpt lat="42.493206" lon="1.567441">
        <ele>2116.000000</ele>
        <time>2020-08-22T11:18:57Z</time>
      </trkpt>
      <trkpt lat="42.493206" lon="1.567441">
        <ele>2116.000000</ele>
        <time>2020-08-22T11:18:57Z</time>
      </trkpt>
      <trkpt lat="42.493206" lon="1.567438">
        <ele>2116.000000</ele>
        <time>2020-08-22T11:18:57Z</time>
      </trkpt>
      <trkpt lat="42.493206" lon="1.567438">
        <ele>2116.000000</ele>
        <time>2020-08-22T11:18:57Z</time>
      </trkpt>
      <trkpt lat="42.493202" lon="1.567434">
        <ele>2116.000000</ele>
        <time>2020-08-22T11:18:57Z</time>
      </trkpt>
      <trkpt lat="42.493202" lon="1.567434">
        <ele>2116.000000</ele>
        <time>2020-08-22T11:18:57Z</time>
      </trkpt>
      <trkpt lat="42.493198" lon="1.567427">
        <ele>2116.000000</ele>
        <time>2020-08-22T11:19:04Z</time>
      </trkpt>
      <trkpt lat="42.493198" lon="1.567427">
        <ele>2116.000000</ele>
        <time>2020-08-22T11:19:04Z</time>
      </trkpt>
      <trkpt lat="42.493195" lon="1.567419">
        <ele>2116.000000</ele>
        <time>2020-08-22T11:19:04Z</time>
      </trkpt>
      <trkpt lat="42.493195" lon="1.567419">
        <ele>2116.000000</ele>
        <time>2020-08-22T11:19:04Z</time>
      </trkpt>
      <trkpt lat="42.493191" lon="1.567410">
        <ele>2116.000000</ele>
        <time>2020-08-22T11:19:04Z</time>
      </trkpt>
      <trkpt lat="42.493191" lon="1.567410">
        <ele>2116.000000</ele>
        <time>2020-08-22T11:19:04Z</time>
      </trkpt>
      <trkpt lat="42.493183" lon="1.567402">
        <ele>2116.000000</ele>
        <time>2020-08-22T11:19:04Z</time>
      </trkpt>
      <trkpt lat="42.493183" lon="1.567402">
        <ele>2116.000000</ele>
        <time>2020-08-22T11:19:04Z</time>
      </trkpt>
      <trkpt lat="42.493175" lon="1.567392">
        <ele>2116.000000</ele>
        <time>2020-08-22T11:19:04Z</time>
      </trkpt>
      <trkpt lat="42.493175" lon="1.567392">
        <ele>2116.000000</ele>
        <time>2020-08-22T11:19:04Z</time>
      </trkpt>
      <trkpt lat="42.493168" lon="1.567383">
        <ele>2116.000000</ele>
        <time>2020-08-22T11:19:04Z</time>
      </trkpt>
      <trkpt lat="42.493168" lon="1.567383">
        <ele>2116.000000</ele>
        <time>2020-08-22T11:19:04Z</time>
      </trkpt>
      <trkpt lat="42.493164" lon="1.567373">
        <ele>2116.000000</ele>
        <time>2020-08-22T11:19:04Z</time>
      </trkpt>
      <trkpt lat="42.493164" lon="1.567373">
        <ele>2116.000000</ele>
        <time>2020-08-22T11:19:04Z</time>
      </trkpt>
      <trkpt lat="42.493153" lon="1.567362">
        <ele>2116.000000</ele>
        <time>2020-08-22T11:19:11Z</time>
      </trkpt>
      <trkpt lat="42.493153" lon="1.567362">
        <ele>2116.000000</ele>
        <time>2020-08-22T11:19:11Z</time>
      </trkpt>
      <trkpt lat="42.493145" lon="1.567351">
        <ele>2116.000000</ele>
        <time>2020-08-22T11:19:11Z</time>
      </trkpt>
      <trkpt lat="42.493145" lon="1.567351">
        <ele>2116.000000</ele>
        <time>2020-08-22T11:19:11Z</time>
      </trkpt>
      <trkpt lat="42.493134" lon="1.567338">
        <ele>2116.000000</ele>
        <time>2020-08-22T11:19:11Z</time>
      </trkpt>
      <trkpt lat="42.493134" lon="1.567338">
        <ele>2116.000000</ele>
        <time>2020-08-22T11:19:11Z</time>
      </trkpt>
      <trkpt lat="42.493122" lon="1.567326">
        <ele>2116.000000</ele>
        <time>2020-08-22T11:19:11Z</time>
      </trkpt>
      <trkpt lat="42.493122" lon="1.567326">
        <ele>2116.000000</ele>
        <time>2020-08-22T11:19:11Z</time>
      </trkpt>
      <trkpt lat="42.493111" lon="1.567314">
        <ele>2116.000000</ele>
        <time>2020-08-22T11:19:11Z</time>
      </trkpt>
      <trkpt lat="42.493111" lon="1.567314">
        <ele>2116.000000</ele>
        <time>2020-08-22T11:19:11Z</time>
      </trkpt>
      <trkpt lat="42.493099" lon="1.567304">
        <ele>2116.000000</ele>
        <time>2020-08-22T11:19:11Z</time>
      </trkpt>
      <trkpt lat="42.493099" lon="1.567304">
        <ele>2116.000000</ele>
        <time>2020-08-22T11:19:11Z</time>
      </trkpt>
      <trkpt lat="42.493088" lon="1.567316">
        <ele>2116.000000</ele>
        <time>2020-08-22T11:19:11Z</time>
      </trkpt>
      <trkpt lat="42.493088" lon="1.567316">
        <ele>2116.000000</ele>
        <time>2020-08-22T11:19:11Z</time>
      </trkpt>
      <trkpt lat="42.493080" lon="1.567328">
        <ele>2116.000000</ele>
        <time>2020-08-22T11:19:11Z</time>
      </trkpt>
      <trkpt lat="42.493080" lon="1.567328">
        <ele>2116.000000</ele>
        <time>2020-08-22T11:19:11Z</time>
      </trkpt>
      <trkpt lat="42.493076" lon="1.567340">
        <ele>2116.000000</ele>
        <time>2020-08-22T11:19:11Z</time>
      </trkpt>
      <trkpt lat="42.493076" lon="1.567340">
        <ele>2116.000000</ele>
        <time>2020-08-22T11:19:11Z</time>
      </trkpt>
      <trkpt lat="42.493069" lon="1.567352">
        <ele>2116.000000</ele>
        <time>2020-08-22T11:19:11Z</time>
      </trkpt>
      <trkpt lat="42.493069" lon="1.567352">
        <ele>2116.000000</ele>
        <time>2020-08-22T11:19:11Z</time>
      </trkpt>
      <trkpt lat="42.493069" lon="1.567365">
        <ele>2116.000000</ele>
        <time>2020-08-22T11:19:11Z</time>
      </trkpt>
      <trkpt lat="42.493069" lon="1.567365">
        <ele>2116.000000</ele>
        <time>2020-08-22T11:19:11Z</time>
      </trkpt>
      <trkpt lat="42.493069" lon="1.567380">
        <ele>2116.000000</ele>
        <time>2020-08-22T11:19:18Z</time>
      </trkpt>
      <trkpt lat="42.493069" lon="1.567380">
        <ele>2116.000000</ele>
        <time>2020-08-22T11:19:18Z</time>
      </trkpt>
      <trkpt lat="42.493072" lon="1.567399">
        <ele>2116.000000</ele>
        <time>2020-08-22T11:19:18Z</time>
      </trkpt>
      <trkpt lat="42.493072" lon="1.567399">
        <ele>2116.000000</ele>
        <time>2020-08-22T11:19:18Z</time>
      </trkpt>
      <trkpt lat="42.493076" lon="1.567421">
        <ele>2116.000000</ele>
        <time>2020-08-22T11:19:18Z</time>
      </trkpt>
      <trkpt lat="42.493076" lon="1.567421">
        <ele>2116.000000</ele>
        <time>2020-08-22T11:19:18Z</time>
      </trkpt>
      <trkpt lat="42.493084" lon="1.567445">
        <ele>2116.000000</ele>
        <time>2020-08-22T11:19:18Z</time>
      </trkpt>
      <trkpt lat="42.493084" lon="1.567445">
        <ele>2116.000000</ele>
        <time>2020-08-22T11:19:18Z</time>
      </trkpt>
      <trkpt lat="42.493095" lon="1.567471">
        <ele>2116.000000</ele>
        <time>2020-08-22T11:19:18Z</time>
      </trkpt>
      <trkpt lat="42.493095" lon="1.567471">
        <ele>2116.000000</ele>
        <time>2020-08-22T11:19:18Z</time>
      </trkpt>
      <trkpt lat="42.493084" lon="1.567444">
        <ele>2116.000000</ele>
        <time>2020-08-22T11:19:18Z</time>
      </trkpt>
      <trkpt lat="42.493084" lon="1.567444">
        <ele>2116.000000</ele>
        <time>2020-08-22T11:19:18Z</time>
      </trkpt>
      <trkpt lat="42.493076" lon="1.567418">
        <ele>2116.000000</ele>
        <time>2020-08-22T11:19:18Z</time>
      </trkpt>
      <trkpt lat="42.493076" lon="1.567418">
        <ele>2116.000000</ele>
        <time>2020-08-22T11:19:18Z</time>
      </trkpt>
      <trkpt lat="42.493061" lon="1.567395">
        <ele>2116.000000</ele>
        <time>2020-08-22T11:19:25Z</time>
      </trkpt>
      <trkpt lat="42.493061" lon="1.567395">
        <ele>2116.000000</ele>
        <time>2020-08-22T11:19:25Z</time>
      </trkpt>
      <trkpt lat="42.493046" lon="1.567374">
        <ele>2116.000000</ele>
        <time>2020-08-22T11:19:25Z</time>
      </trkpt>
      <trkpt lat="42.493046" lon="1.567374">
        <ele>2116.000000</ele>
        <time>2020-08-22T11:19:25Z</time>
      </trkpt>
      <trkpt lat="42.493031" lon="1.567355">
        <ele>2116.000000</ele>
        <time>2020-08-22T11:19:25Z</time>
      </trkpt>
      <trkpt lat="42.493031" lon="1.567355">
        <ele>2116.000000</ele>
        <time>2020-08-22T11:19:25Z</time>
      </trkpt>
      <trkpt lat="42.493011" lon="1.567336">
        <ele>2116.000000</ele>
        <time>2020-08-22T11:19:25Z</time>
      </trkpt>
      <trkpt lat="42.493011" lon="1.567336">
        <ele>2116.000000</ele>
        <time>2020-08-22T11:19:25Z</time>
      </trkpt>
      <trkpt lat="42.492996" lon="1.567316">
        <ele>2116.000000</ele>
        <time>2020-08-22T11:19:25Z</time>
      </trkpt>
      <trkpt lat="42.492996" lon="1.567316">
        <ele>2116.000000</ele>
        <time>2020-08-22T11:19:25Z</time>
      </trkpt>
      <trkpt lat="42.492973" lon="1.567294">
        <ele>2120.000000</ele>
        <time>2020-08-22T11:19:25Z</time>
      </trkpt>
      <trkpt lat="42.492973" lon="1.567294">
        <ele>2120.000000</ele>
        <time>2020-08-22T11:19:25Z</time>
      </trkpt>
      <trkpt lat="42.492950" lon="1.567271">
        <ele>2120.000000</ele>
        <time>2020-08-22T11:19:25Z</time>
      </trkpt>
      <trkpt lat="42.492950" lon="1.567271">
        <ele>2120.000000</ele>
        <time>2020-08-22T11:19:25Z</time>
      </trkpt>
      <trkpt lat="42.492928" lon="1.567246">
        <ele>2120.000000</ele>
        <time>2020-08-22T11:19:32Z</time>
      </trkpt>
      <trkpt lat="42.492928" lon="1.567246">
        <ele>2120.000000</ele>
        <time>2020-08-22T11:19:32Z</time>
      </trkpt>
      <trkpt lat="42.492920" lon="1.567273">
        <ele>2120.000000</ele>
        <time>2020-08-22T11:19:32Z</time>
      </trkpt>
      <trkpt lat="42.492920" lon="1.567273">
        <ele>2120.000000</ele>
        <time>2020-08-22T11:19:32Z</time>
      </trkpt>
      <trkpt lat="42.492912" lon="1.567298">
        <ele>2120.000000</ele>
        <time>2020-08-22T11:19:32Z</time>
      </trkpt>
      <trkpt lat="42.492912" lon="1.567298">
        <ele>2120.000000</ele>
        <time>2020-08-22T11:19:32Z</time>
      </trkpt>
      <trkpt lat="42.492905" lon="1.567322">
        <ele>2120.000000</ele>
        <time>2020-08-22T11:19:32Z</time>
      </trkpt>
      <trkpt lat="42.492905" lon="1.567322">
        <ele>2120.000000</ele>
        <time>2020-08-22T11:19:32Z</time>
      </trkpt>
      <trkpt lat="42.492893" lon="1.567346">
        <ele>2120.000000</ele>
        <time>2020-08-22T11:19:32Z</time>
      </trkpt>
      <trkpt lat="42.492893" lon="1.567346">
        <ele>2120.000000</ele>
        <time>2020-08-22T11:19:32Z</time>
      </trkpt>
      <trkpt lat="42.492886" lon="1.567369">
        <ele>2120.000000</ele>
        <time>2020-08-22T11:19:32Z</time>
      </trkpt>
      <trkpt lat="42.492886" lon="1.567369">
        <ele>2120.000000</ele>
        <time>2020-08-22T11:19:32Z</time>
      </trkpt>
      <trkpt lat="42.492874" lon="1.567393">
        <ele>2120.000000</ele>
        <time>2020-08-22T11:19:39Z</time>
      </trkpt>
      <trkpt lat="42.492874" lon="1.567393">
        <ele>2120.000000</ele>
        <time>2020-08-22T11:19:39Z</time>
      </trkpt>
      <trkpt lat="42.492867" lon="1.567416">
        <ele>2120.000000</ele>
        <time>2020-08-22T11:19:39Z</time>
      </trkpt>
      <trkpt lat="42.492867" lon="1.567416">
        <ele>2120.000000</ele>
        <time>2020-08-22T11:19:39Z</time>
      </trkpt>
      <trkpt lat="42.492855" lon="1.567439">
        <ele>2120.000000</ele>
        <time>2020-08-22T11:19:39Z</time>
      </trkpt>
      <trkpt lat="42.492855" lon="1.567439">
        <ele>2120.000000</ele>
        <time>2020-08-22T11:19:39Z</time>
      </trkpt>
      <trkpt lat="42.492844" lon="1.567462">
        <ele>2120.000000</ele>
        <time>2020-08-22T11:19:39Z</time>
      </trkpt>
      <trkpt lat="42.492844" lon="1.567462">
        <ele>2120.000000</ele>
        <time>2020-08-22T11:19:39Z</time>
      </trkpt>
      <trkpt lat="42.492836" lon="1.567484">
        <ele>2120.000000</ele>
        <time>2020-08-22T11:19:39Z</time>
      </trkpt>
      <trkpt lat="42.492836" lon="1.567484">
        <ele>2120.000000</ele>
        <time>2020-08-22T11:19:39Z</time>
      </trkpt>
      <trkpt lat="42.492828" lon="1.567488">
        <ele>2120.000000</ele>
        <time>2020-08-22T11:19:39Z</time>
      </trkpt>
      <trkpt lat="42.492828" lon="1.567488">
        <ele>2120.000000</ele>
        <time>2020-08-22T11:19:39Z</time>
      </trkpt>
      <trkpt lat="42.492821" lon="1.567494">
        <ele>2120.000000</ele>
        <time>2020-08-22T11:19:39Z</time>
      </trkpt>
      <trkpt lat="42.492821" lon="1.567494">
        <ele>2120.000000</ele>
        <time>2020-08-22T11:19:39Z</time>
      </trkpt>
      <trkpt lat="42.492817" lon="1.567500">
        <ele>2120.000000</ele>
        <time>2020-08-22T11:19:46Z</time>
      </trkpt>
      <trkpt lat="42.492817" lon="1.567500">
        <ele>2120.000000</ele>
        <time>2020-08-22T11:19:46Z</time>
      </trkpt>
      <trkpt lat="42.492809" lon="1.567506">
        <ele>2120.000000</ele>
        <time>2020-08-22T11:19:46Z</time>
      </trkpt>
      <trkpt lat="42.492809" lon="1.567506">
        <ele>2120.000000</ele>
        <time>2020-08-22T11:19:46Z</time>
      </trkpt>
      <trkpt lat="42.492802" lon="1.567512">
        <ele>2120.000000</ele>
        <time>2020-08-22T11:19:46Z</time>
      </trkpt>
      <trkpt lat="42.492802" lon="1.567512">
        <ele>2120.000000</ele>
        <time>2020-08-22T11:19:46Z</time>
      </trkpt>
      <trkpt lat="42.492798" lon="1.567519">
        <ele>2120.000000</ele>
        <time>2020-08-22T11:19:46Z</time>
      </trkpt>
      <trkpt lat="42.492798" lon="1.567519">
        <ele>2120.000000</ele>
        <time>2020-08-22T11:19:46Z</time>
      </trkpt>
      <trkpt lat="42.492790" lon="1.567526">
        <ele>2120.000000</ele>
        <time>2020-08-22T11:19:46Z</time>
      </trkpt>
      <trkpt lat="42.492790" lon="1.567526">
        <ele>2120.000000</ele>
        <time>2020-08-22T11:19:46Z</time>
      </trkpt>
      <trkpt lat="42.492786" lon="1.567533">
        <ele>2120.000000</ele>
        <time>2020-08-22T11:19:46Z</time>
      </trkpt>
      <trkpt lat="42.492786" lon="1.567533">
        <ele>2120.000000</ele>
        <time>2020-08-22T11:19:46Z</time>
      </trkpt>
      <trkpt lat="42.492783" lon="1.567540">
        <ele>2120.000000</ele>
        <time>2020-08-22T11:19:46Z</time>
      </trkpt>
      <trkpt lat="42.492783" lon="1.567540">
        <ele>2120.000000</ele>
        <time>2020-08-22T11:19:46Z</time>
      </trkpt>
      <trkpt lat="42.492775" lon="1.567547">
        <ele>2120.000000</ele>
        <time>2020-08-22T11:19:46Z</time>
      </trkpt>
      <trkpt lat="42.492775" lon="1.567547">
        <ele>2120.000000</ele>
        <time>2020-08-22T11:19:46Z</time>
      </trkpt>
      <trkpt lat="42.492767" lon="1.567562">
        <ele>2120.000000</ele>
        <time>2020-08-22T11:19:46Z</time>
      </trkpt>
      <trkpt lat="42.492767" lon="1.567562">
        <ele>2120.000000</ele>
        <time>2020-08-22T11:19:46Z</time>
      </trkpt>
      <trkpt lat="42.492764" lon="1.567576">
        <ele>2120.000000</ele>
        <time>2020-08-22T11:19:46Z</time>
      </trkpt>
      <trkpt lat="42.492764" lon="1.567576">
        <ele>2120.000000</ele>
        <time>2020-08-22T11:19:46Z</time>
      </trkpt>
      <trkpt lat="42.492752" lon="1.567590">
        <ele>2120.000000</ele>
        <time>2020-08-22T11:19:46Z</time>
      </trkpt>
      <trkpt lat="42.492752" lon="1.567590">
        <ele>2120.000000</ele>
        <time>2020-08-22T11:19:46Z</time>
      </trkpt>
      <trkpt lat="42.492744" lon="1.567602">
        <ele>2120.000000</ele>
        <time>2020-08-22T11:19:46Z</time>
      </trkpt>
      <trkpt lat="42.492744" lon="1.567602">
        <ele>2120.000000</ele>
        <time>2020-08-22T11:19:46Z</time>
      </trkpt>
      <trkpt lat="42.492733" lon="1.567614">
        <ele>2120.000000</ele>
        <time>2020-08-22T11:19:46Z</time>
      </trkpt>
      <trkpt lat="42.492733" lon="1.567614">
        <ele>2120.000000</ele>
        <time>2020-08-22T11:19:46Z</time>
      </trkpt>
      <trkpt lat="42.492722" lon="1.567624">
        <ele>2120.000000</ele>
        <time>2020-08-22T11:19:46Z</time>
      </trkpt>
      <trkpt lat="42.492722" lon="1.567624">
        <ele>2120.000000</ele>
        <time>2020-08-22T11:19:46Z</time>
      </trkpt>
      <trkpt lat="42.492710" lon="1.567633">
        <ele>2120.000000</ele>
        <time>2020-08-22T11:19:54Z</time>
      </trkpt>
      <trkpt lat="42.492710" lon="1.567633">
        <ele>2120.000000</ele>
        <time>2020-08-22T11:19:54Z</time>
      </trkpt>
      <trkpt lat="42.492695" lon="1.567641">
        <ele>2120.000000</ele>
        <time>2020-08-22T11:19:54Z</time>
      </trkpt>
      <trkpt lat="42.492695" lon="1.567641">
        <ele>2120.000000</ele>
        <time>2020-08-22T11:19:54Z</time>
      </trkpt>
      <trkpt lat="42.492683" lon="1.567650">
        <ele>2120.000000</ele>
        <time>2020-08-22T11:19:54Z</time>
      </trkpt>
      <trkpt lat="42.492683" lon="1.567650">
        <ele>2120.000000</ele>
        <time>2020-08-22T11:19:54Z</time>
      </trkpt>
      <trkpt lat="42.492668" lon="1.567657">
        <ele>2120.000000</ele>
        <time>2020-08-22T11:19:54Z</time>
      </trkpt>
      <trkpt lat="42.492668" lon="1.567657">
        <ele>2120.000000</ele>
        <time>2020-08-22T11:19:54Z</time>
      </trkpt>
      <trkpt lat="42.492645" lon="1.567651">
        <ele>2120.000000</ele>
        <time>2020-08-22T11:19:54Z</time>
      </trkpt>
      <trkpt lat="42.492645" lon="1.567651">
        <ele>2120.000000</ele>
        <time>2020-08-22T11:19:54Z</time>
      </trkpt>
      <trkpt lat="42.492622" lon="1.567644">
        <ele>2120.000000</ele>
        <time>2020-08-22T11:19:54Z</time>
      </trkpt>
      <trkpt lat="42.492622" lon="1.567644">
        <ele>2120.000000</ele>
        <time>2020-08-22T11:19:54Z</time>
      </trkpt>
      <trkpt lat="42.492607" lon="1.567639">
        <ele>2120.000000</ele>
        <time>2020-08-22T11:19:54Z</time>
      </trkpt>
      <trkpt lat="42.492607" lon="1.567639">
        <ele>2120.000000</ele>
        <time>2020-08-22T11:19:54Z</time>
      </trkpt>
      <trkpt lat="42.492592" lon="1.567634">
        <ele>2120.000000</ele>
        <time>2020-08-22T11:19:54Z</time>
      </trkpt>
      <trkpt lat="42.492592" lon="1.567634">
        <ele>2120.000000</ele>
        <time>2020-08-22T11:19:54Z</time>
      </trkpt>
      <trkpt lat="42.492580" lon="1.567629">
        <ele>2120.000000</ele>
        <time>2020-08-22T11:19:54Z</time>
      </trkpt>
      <trkpt lat="42.492580" lon="1.567629">
        <ele>2120.000000</ele>
        <time>2020-08-22T11:19:54Z</time>
      </trkpt>
      <trkpt lat="42.492569" lon="1.567625">
        <ele>2120.000000</ele>
        <time>2020-08-22T11:20:01Z</time>
      </trkpt>
      <trkpt lat="42.492569" lon="1.567625">
        <ele>2121.000000</ele>
        <time>2020-08-22T11:20:01Z</time>
      </trkpt>
      <trkpt lat="42.492558" lon="1.567622">
        <ele>2121.000000</ele>
        <time>2020-08-22T11:20:01Z</time>
      </trkpt>
      <trkpt lat="42.492558" lon="1.567622">
        <ele>2121.000000</ele>
        <time>2020-08-22T11:20:01Z</time>
      </trkpt>
      <trkpt lat="42.492554" lon="1.567618">
        <ele>2121.000000</ele>
        <time>2020-08-22T11:20:01Z</time>
      </trkpt>
      <trkpt lat="42.492554" lon="1.567618">
        <ele>2121.000000</ele>
        <time>2020-08-22T11:20:01Z</time>
      </trkpt>
      <trkpt lat="42.492542" lon="1.567615">
        <ele>2121.000000</ele>
        <time>2020-08-22T11:20:01Z</time>
      </trkpt>
      <trkpt lat="42.492542" lon="1.567615">
        <ele>2121.000000</ele>
        <time>2020-08-22T11:20:01Z</time>
      </trkpt>
      <trkpt lat="42.492542" lon="1.567611">
        <ele>2122.000000</ele>
        <time>2020-08-22T11:20:01Z</time>
      </trkpt>
      <trkpt lat="42.492542" lon="1.567611">
        <ele>2122.000000</ele>
        <time>2020-08-22T11:20:01Z</time>
      </trkpt>
      <trkpt lat="42.492527" lon="1.567625">
        <ele>2122.000000</ele>
        <time>2020-08-22T11:20:01Z</time>
      </trkpt>
      <trkpt lat="42.492527" lon="1.567625">
        <ele>2122.000000</ele>
        <time>2020-08-22T11:20:01Z</time>
      </trkpt>
      <trkpt lat="42.492512" lon="1.567638">
        <ele>2122.000000</ele>
        <time>2020-08-22T11:20:01Z</time>
      </trkpt>
      <trkpt lat="42.492512" lon="1.567638">
        <ele>2123.000000</ele>
        <time>2020-08-22T11:20:01Z</time>
      </trkpt>
      <trkpt lat="42.492496" lon="1.567650">
        <ele>2123.000000</ele>
        <time>2020-08-22T11:20:01Z</time>
      </trkpt>
      <trkpt lat="42.492496" lon="1.567650">
        <ele>2123.000000</ele>
        <time>2020-08-22T11:20:01Z</time>
      </trkpt>
      <trkpt lat="42.492481" lon="1.567661">
        <ele>2123.000000</ele>
        <time>2020-08-22T11:20:01Z</time>
      </trkpt>
      <trkpt lat="42.492481" lon="1.567661">
        <ele>2123.000000</ele>
        <time>2020-08-22T11:20:01Z</time>
      </trkpt>
      <trkpt lat="42.492462" lon="1.567671">
        <ele>2124.000000</ele>
        <time>2020-08-22T11:20:08Z</time>
      </trkpt>
      <trkpt lat="42.492462" lon="1.567671">
        <ele>2124.000000</ele>
        <time>2020-08-22T11:20:08Z</time>
      </trkpt>
      <trkpt lat="42.492443" lon="1.567681">
        <ele>2124.000000</ele>
        <time>2020-08-22T11:20:08Z</time>
      </trkpt>
      <trkpt lat="42.492443" lon="1.567681">
        <ele>2124.000000</ele>
        <time>2020-08-22T11:20:08Z</time>
      </trkpt>
      <trkpt lat="42.492420" lon="1.567689">
        <ele>2124.000000</ele>
        <time>2020-08-22T11:20:08Z</time>
      </trkpt>
      <trkpt lat="42.492420" lon="1.567689">
        <ele>2124.000000</ele>
        <time>2020-08-22T11:20:08Z</time>
      </trkpt>
      <trkpt lat="42.492401" lon="1.567697">
        <ele>2124.000000</ele>
        <time>2020-08-22T11:20:08Z</time>
      </trkpt>
      <trkpt lat="42.492401" lon="1.567697">
        <ele>2124.000000</ele>
        <time>2020-08-22T11:20:08Z</time>
      </trkpt>
      <trkpt lat="42.492374" lon="1.567705">
        <ele>2125.000000</ele>
        <time>2020-08-22T11:20:08Z</time>
      </trkpt>
      <trkpt lat="42.492374" lon="1.567705">
        <ele>2125.000000</ele>
        <time>2020-08-22T11:20:08Z</time>
      </trkpt>
      <trkpt lat="42.492352" lon="1.567713">
        <ele>2125.000000</ele>
        <time>2020-08-22T11:20:08Z</time>
      </trkpt>
      <trkpt lat="42.492352" lon="1.567713">
        <ele>2126.000000</ele>
        <time>2020-08-22T11:20:08Z</time>
      </trkpt>
      <trkpt lat="42.492352" lon="1.567712">
        <ele>2126.000000</ele>
        <time>2020-08-22T11:20:15Z</time>
      </trkpt>
      <trkpt lat="42.492352" lon="1.567712">
        <ele>2126.000000</ele>
        <time>2020-08-22T11:20:15Z</time>
      </trkpt>
      <trkpt lat="42.492352" lon="1.567711">
        <ele>2126.000000</ele>
        <time>2020-08-22T11:20:15Z</time>
      </trkpt>
      <trkpt lat="42.492352" lon="1.567711">
        <ele>2126.000000</ele>
        <time>2020-08-22T11:20:15Z</time>
      </trkpt>
      <trkpt lat="42.492352" lon="1.567710">
        <ele>2126.000000</ele>
        <time>2020-08-22T11:20:15Z</time>
      </trkpt>
      <trkpt lat="42.492352" lon="1.567710">
        <ele>2126.000000</ele>
        <time>2020-08-22T11:20:15Z</time>
      </trkpt>
      <trkpt lat="42.492348" lon="1.567708">
        <ele>2126.000000</ele>
        <time>2020-08-22T11:20:15Z</time>
      </trkpt>
      <trkpt lat="42.492348" lon="1.567708">
        <ele>2126.000000</ele>
        <time>2020-08-22T11:20:15Z</time>
      </trkpt>
      <trkpt lat="42.492348" lon="1.567707">
        <ele>2126.000000</ele>
        <time>2020-08-22T11:20:15Z</time>
      </trkpt>
      <trkpt lat="42.492348" lon="1.567707">
        <ele>2127.000000</ele>
        <time>2020-08-22T11:20:15Z</time>
      </trkpt>
      <trkpt lat="42.492348" lon="1.567706">
        <ele>2127.000000</ele>
        <time>2020-08-22T11:20:15Z</time>
      </trkpt>
      <trkpt lat="42.492348" lon="1.567706">
        <ele>2127.000000</ele>
        <time>2020-08-22T11:20:15Z</time>
      </trkpt>
      <trkpt lat="42.492348" lon="1.567706">
        <ele>2127.000000</ele>
        <time>2020-08-22T11:20:15Z</time>
      </trkpt>
      <trkpt lat="42.492348" lon="1.567706">
        <ele>2127.000000</ele>
        <time>2020-08-22T11:20:15Z</time>
      </trkpt>
      <trkpt lat="42.492352" lon="1.567708">
        <ele>2128.000000</ele>
        <time>2020-08-22T11:20:23Z</time>
      </trkpt>
      <trkpt lat="42.492352" lon="1.567708">
        <ele>2128.000000</ele>
        <time>2020-08-22T11:20:23Z</time>
      </trkpt>
      <trkpt lat="42.492359" lon="1.567710">
        <ele>2128.000000</ele>
        <time>2020-08-22T11:20:23Z</time>
      </trkpt>
      <trkpt lat="42.492359" lon="1.567710">
        <ele>2128.000000</ele>
        <time>2020-08-22T11:20:23Z</time>
      </trkpt>
      <trkpt lat="42.492363" lon="1.567712">
        <ele>2128.000000</ele>
        <time>2020-08-22T11:20:23Z</time>
      </trkpt>
      <trkpt lat="42.492363" lon="1.567712">
        <ele>2128.000000</ele>
        <time>2020-08-22T11:20:23Z</time>
      </trkpt>
      <trkpt lat="42.492371" lon="1.567738">
        <ele>2128.000000</ele>
        <time>2020-08-22T11:20:23Z</time>
      </trkpt>
      <trkpt lat="42.492371" lon="1.567738">
        <ele>2128.000000</ele>
        <time>2020-08-22T11:20:23Z</time>
      </trkpt>
      <trkpt lat="42.492378" lon="1.567765">
        <ele>2128.000000</ele>
        <time>2020-08-22T11:20:23Z</time>
      </trkpt>
      <trkpt lat="42.492378" lon="1.567765">
        <ele>2128.000000</ele>
        <time>2020-08-22T11:20:23Z</time>
      </trkpt>
      <trkpt lat="42.492390" lon="1.567796">
        <ele>2128.000000</ele>
        <time>2020-08-22T11:20:31Z</time>
      </trkpt>
      <trkpt lat="42.492390" lon="1.567796">
        <ele>2128.000000</ele>
        <time>2020-08-22T11:20:31Z</time>
      </trkpt>
      <trkpt lat="42.492405" lon="1.567828">
        <ele>2128.000000</ele>
        <time>2020-08-22T11:20:31Z</time>
      </trkpt>
      <trkpt lat="42.492405" lon="1.567828">
        <ele>2128.000000</ele>
        <time>2020-08-22T11:20:31Z</time>
      </trkpt>
      <trkpt lat="42.492420" lon="1.567860">
        <ele>2128.000000</ele>
        <time>2020-08-22T11:20:31Z</time>
      </trkpt>
      <trkpt lat="42.492420" lon="1.567860">
        <ele>2128.000000</ele>
        <time>2020-08-22T11:20:31Z</time>
      </trkpt>
      <trkpt lat="42.492432" lon="1.567890">
        <ele>2128.000000</ele>
        <time>2020-08-22T11:20:31Z</time>
      </trkpt>
      <trkpt lat="42.492432" lon="1.567890">
        <ele>2128.000000</ele>
        <time>2020-08-22T11:20:31Z</time>
      </trkpt>
      <trkpt lat="42.492443" lon="1.567920">
        <ele>2128.000000</ele>
        <time>2020-08-22T11:20:31Z</time>
      </trkpt>
      <trkpt lat="42.492443" lon="1.567920">
        <ele>2128.000000</ele>
        <time>2020-08-22T11:20:31Z</time>
      </trkpt>
      <trkpt lat="42.492447" lon="1.567948">
        <ele>2128.000000</ele>
        <time>2020-08-22T11:20:31Z</time>
      </trkpt>
      <trkpt lat="42.492447" lon="1.567948">
        <ele>2128.000000</ele>
        <time>2020-08-22T11:20:31Z</time>
      </trkpt>
      <trkpt lat="42.492455" lon="1.567976">
        <ele>2128.000000</ele>
        <time>2020-08-22T11:20:38Z</time>
      </trkpt>
      <trkpt lat="42.492455" lon="1.567976">
        <ele>2128.000000</ele>
        <time>2020-08-22T11:20:38Z</time>
      </trkpt>
      <trkpt lat="42.492455" lon="1.568002">
        <ele>2128.000000</ele>
        <time>2020-08-22T11:20:38Z</time>
      </trkpt>
      <trkpt lat="42.492455" lon="1.568002">
        <ele>2128.000000</ele>
        <time>2020-08-22T11:20:38Z</time>
      </trkpt>
      <trkpt lat="42.492435" lon="1.567987">
        <ele>2128.000000</ele>
        <time>2020-08-22T11:20:38Z</time>
      </trkpt>
      <trkpt lat="42.492435" lon="1.567987">
        <ele>2128.000000</ele>
        <time>2020-08-22T11:20:38Z</time>
      </trkpt>
      <trkpt lat="42.492424" lon="1.567973">
        <ele>2128.000000</ele>
        <time>2020-08-22T11:20:45Z</time>
      </trkpt>
      <trkpt lat="42.492424" lon="1.567973">
        <ele>2128.000000</ele>
        <time>2020-08-22T11:20:45Z</time>
      </trkpt>
      <trkpt lat="42.492413" lon="1.567957">
        <ele>2128.000000</ele>
        <time>2020-08-22T11:20:45Z</time>
      </trkpt>
      <trkpt lat="42.492413" lon="1.567957">
        <ele>2128.000000</ele>
        <time>2020-08-22T11:20:45Z</time>
      </trkpt>
      <trkpt lat="42.492397" lon="1.567942">
        <ele>2128.000000</ele>
        <time>2020-08-22T11:20:45Z</time>
      </trkpt>
      <trkpt lat="42.492397" lon="1.567942">
        <ele>2128.000000</ele>
        <time>2020-08-22T11:20:45Z</time>
      </trkpt>
      <trkpt lat="42.492386" lon="1.567927">
        <ele>2128.000000</ele>
        <time>2020-08-22T11:20:45Z</time>
      </trkpt>
      <trkpt lat="42.492386" lon="1.567927">
        <ele>2128.000000</ele>
        <time>2020-08-22T11:20:45Z</time>
      </trkpt>
      <trkpt lat="42.492374" lon="1.567913">
        <ele>2128.000000</ele>
        <time>2020-08-22T11:20:45Z</time>
      </trkpt>
      <trkpt lat="42.492374" lon="1.567913">
        <ele>2128.000000</ele>
        <time>2020-08-22T11:20:45Z</time>
      </trkpt>
      <trkpt lat="42.492363" lon="1.567900">
        <ele>2128.000000</ele>
        <time>2020-08-22T11:20:45Z</time>
      </trkpt>
      <trkpt lat="42.492363" lon="1.567900">
        <ele>2128.000000</ele>
        <time>2020-08-22T11:20:45Z</time>
      </trkpt>
      <trkpt lat="42.492355" lon="1.567887">
        <ele>2128.000000</ele>
        <time>2020-08-22T11:20:45Z</time>
      </trkpt>
      <trkpt lat="42.492355" lon="1.567887">
        <ele>2128.000000</ele>
        <time>2020-08-22T11:20:45Z</time>
      </trkpt>
      <trkpt lat="42.492348" lon="1.567874">
        <ele>2128.000000</ele>
        <time>2020-08-22T11:20:52Z</time>
      </trkpt>
      <trkpt lat="42.492348" lon="1.567874">
        <ele>2126.000000</ele>
        <time>2020-08-22T11:20:52Z</time>
      </trkpt>
      <trkpt lat="42.492336" lon="1.567860">
        <ele>2126.000000</ele>
        <time>2020-08-22T11:20:52Z</time>
      </trkpt>
      <trkpt lat="42.492336" lon="1.567860">
        <ele>2126.000000</ele>
        <time>2020-08-22T11:20:52Z</time>
      </trkpt>
      <trkpt lat="42.492329" lon="1.567887">
        <ele>2123.000000</ele>
        <time>2020-08-22T11:20:52Z</time>
      </trkpt>
      <trkpt lat="42.492329" lon="1.567887">
        <ele>2123.000000</ele>
        <time>2020-08-22T11:20:52Z</time>
      </trkpt>
      <trkpt lat="42.492317" lon="1.567915">
        <ele>2123.000000</ele>
        <time>2020-08-22T11:20:52Z</time>
      </trkpt>
      <trkpt lat="42.492317" lon="1.567915">
        <ele>2123.000000</ele>
        <time>2020-08-22T11:20:52Z</time>
      </trkpt>
      <trkpt lat="42.492306" lon="1.567943">
        <ele>2123.000000</ele>
        <time>2020-08-22T11:20:52Z</time>
      </trkpt>
      <trkpt lat="42.492306" lon="1.567943">
        <ele>2123.000000</ele>
        <time>2020-08-22T11:20:52Z</time>
      </trkpt>
      <trkpt lat="42.492294" lon="1.567971">
        <ele>2123.000000</ele>
        <time>2020-08-22T11:20:52Z</time>
      </trkpt>
      <trkpt lat="42.492294" lon="1.567971">
        <ele>2123.000000</ele>
        <time>2020-08-22T11:20:52Z</time>
      </trkpt>
      <trkpt lat="42.492283" lon="1.568001">
        <ele>2123.000000</ele>
        <time>2020-08-22T11:20:59Z</time>
      </trkpt>
      <trkpt lat="42.492283" lon="1.568001">
        <ele>2123.000000</ele>
        <time>2020-08-22T11:20:59Z</time>
      </trkpt>
      <trkpt lat="42.492268" lon="1.568031">
        <ele>2123.000000</ele>
        <time>2020-08-22T11:20:59Z</time>
      </trkpt>
      <trkpt lat="42.492268" lon="1.568031">
        <ele>2123.000000</ele>
        <time>2020-08-22T11:20:59Z</time>
      </trkpt>
      <trkpt lat="42.492256" lon="1.568063">
        <ele>2123.000000</ele>
        <time>2020-08-22T11:20:59Z</time>
      </trkpt>
      <trkpt lat="42.492256" lon="1.568063">
        <ele>2123.000000</ele>
        <time>2020-08-22T11:20:59Z</time>
      </trkpt>
      <trkpt lat="42.492245" lon="1.568094">
        <ele>2123.000000</ele>
        <time>2020-08-22T11:20:59Z</time>
      </trkpt>
      <trkpt lat="42.492245" lon="1.568094">
        <ele>2123.000000</ele>
        <time>2020-08-22T11:20:59Z</time>
      </trkpt>
      <trkpt lat="42.492237" lon="1.568126">
        <ele>2123.000000</ele>
        <time>2020-08-22T11:20:59Z</time>
      </trkpt>
      <trkpt lat="42.492237" lon="1.568126">
        <ele>2123.000000</ele>
        <time>2020-08-22T11:20:59Z</time>
      </trkpt>
      <trkpt lat="42.492229" lon="1.568159">
        <ele>2123.000000</ele>
        <time>2020-08-22T11:20:59Z</time>
      </trkpt>
      <trkpt lat="42.492229" lon="1.568159">
        <ele>2123.000000</ele>
        <time>2020-08-22T11:20:59Z</time>
      </trkpt>
      <trkpt lat="42.492222" lon="1.568150">
        <ele>2123.000000</ele>
        <time>2020-08-22T11:21:06Z</time>
      </trkpt>
      <trkpt lat="42.492222" lon="1.568150">
        <ele>2123.000000</ele>
        <time>2020-08-22T11:21:06Z</time>
      </trkpt>
      <trkpt lat="42.492210" lon="1.568139">
        <ele>2123.000000</ele>
        <time>2020-08-22T11:21:06Z</time>
      </trkpt>
      <trkpt lat="42.492210" lon="1.568139">
        <ele>2123.000000</ele>
        <time>2020-08-22T11:21:06Z</time>
      </trkpt>
      <trkpt lat="42.492203" lon="1.568127">
        <ele>2123.000000</ele>
        <time>2020-08-22T11:21:06Z</time>
      </trkpt>
      <trkpt lat="42.492203" lon="1.568127">
        <ele>2123.000000</ele>
        <time>2020-08-22T11:21:06Z</time>
      </trkpt>
      <trkpt lat="42.492199" lon="1.568117">
        <ele>2123.000000</ele>
        <time>2020-08-22T11:21:06Z</time>
      </trkpt>
      <trkpt lat="42.492199" lon="1.568117">
        <ele>2123.000000</ele>
        <time>2020-08-22T11:21:06Z</time>
      </trkpt>
      <trkpt lat="42.492195" lon="1.568108">
        <ele>2123.000000</ele>
        <time>2020-08-22T11:21:06Z</time>
      </trkpt>
      <trkpt lat="42.492195" lon="1.568108">
        <ele>2123.000000</ele>
        <time>2020-08-22T11:21:06Z</time>
      </trkpt>
      <trkpt lat="42.492191" lon="1.568102">
        <ele>2123.000000</ele>
        <time>2020-08-22T11:21:06Z</time>
      </trkpt>
      <trkpt lat="42.492191" lon="1.568102">
        <ele>2123.000000</ele>
        <time>2020-08-22T11:21:06Z</time>
      </trkpt>
      <trkpt lat="42.492195" lon="1.568097">
        <ele>2123.000000</ele>
        <time>2020-08-22T11:21:13Z</time>
      </trkpt>
      <trkpt lat="42.492195" lon="1.568097">
        <ele>2123.000000</ele>
        <time>2020-08-22T11:21:13Z</time>
      </trkpt>
      <trkpt lat="42.492199" lon="1.568095">
        <ele>2123.000000</ele>
        <time>2020-08-22T11:21:13Z</time>
      </trkpt>
      <trkpt lat="42.492199" lon="1.568095">
        <ele>2123.000000</ele>
        <time>2020-08-22T11:21:13Z</time>
      </trkpt>
      <trkpt lat="42.492203" lon="1.568095">
        <ele>2123.000000</ele>
        <time>2020-08-22T11:21:13Z</time>
      </trkpt>
      <trkpt lat="42.492203" lon="1.568095">
        <ele>2123.000000</ele>
        <time>2020-08-22T11:21:13Z</time>
      </trkpt>
      <trkpt lat="42.492207" lon="1.568096">
        <ele>2123.000000</ele>
        <time>2020-08-22T11:21:13Z</time>
      </trkpt>
      <trkpt lat="42.492207" lon="1.568096">
        <ele>2123.000000</ele>
        <time>2020-08-22T11:21:13Z</time>
      </trkpt>
      <trkpt lat="42.492207" lon="1.568100">
        <ele>2123.000000</ele>
        <time>2020-08-22T11:21:13Z</time>
      </trkpt>
      <trkpt lat="42.492207" lon="1.568100">
        <ele>2123.000000</ele>
        <time>2020-08-22T11:21:13Z</time>
      </trkpt>
      <trkpt lat="42.492199" lon="1.568103">
        <ele>2123.000000</ele>
        <time>2020-08-22T11:21:13Z</time>
      </trkpt>
      <trkpt lat="42.492199" lon="1.568103">
        <ele>2123.000000</ele>
        <time>2020-08-22T11:21:13Z</time>
      </trkpt>
      <trkpt lat="42.492187" lon="1.568104">
        <ele>2123.000000</ele>
        <time>2020-08-22T11:21:13Z</time>
      </trkpt>
      <trkpt lat="42.492187" lon="1.568104">
        <ele>2123.000000</ele>
        <time>2020-08-22T11:21:13Z</time>
      </trkpt>
      <trkpt lat="42.492172" lon="1.568101">
        <ele>2123.000000</ele>
        <time>2020-08-22T11:21:13Z</time>
      </trkpt>
      <trkpt lat="42.492172" lon="1.568101">
        <ele>2123.000000</ele>
        <time>2020-08-22T11:21:13Z</time>
      </trkpt>
      <trkpt lat="42.492153" lon="1.568095">
        <ele>2123.000000</ele>
        <time>2020-08-22T11:21:13Z</time>
      </trkpt>
      <trkpt lat="42.492153" lon="1.568095">
        <ele>2123.000000</ele>
        <time>2020-08-22T11:21:13Z</time>
      </trkpt>
      <trkpt lat="42.492126" lon="1.568085">
        <ele>2123.000000</ele>
        <time>2020-08-22T11:21:13Z</time>
      </trkpt>
      <trkpt lat="42.492126" lon="1.568085">
        <ele>2123.000000</ele>
        <time>2020-08-22T11:21:13Z</time>
      </trkpt>
      <trkpt lat="42.492096" lon="1.568073">
        <ele>2123.000000</ele>
        <time>2020-08-22T11:21:23Z</time>
      </trkpt>
      <trkpt lat="42.492096" lon="1.568073">
        <ele>2123.000000</ele>
        <time>2020-08-22T11:21:23Z</time>
      </trkpt>
      <trkpt lat="42.492062" lon="1.568060">
        <ele>2123.000000</ele>
        <time>2020-08-22T11:21:23Z</time>
      </trkpt>
      <trkpt lat="42.492062" lon="1.568060">
        <ele>2123.000000</ele>
        <time>2020-08-22T11:21:23Z</time>
      </trkpt>
      <trkpt lat="42.492027" lon="1.568044">
        <ele>2123.000000</ele>
        <time>2020-08-22T11:21:23Z</time>
      </trkpt>
      <trkpt lat="42.492027" lon="1.568044">
        <ele>2123.000000</ele>
        <time>2020-08-22T11:21:23Z</time>
      </trkpt>
      <trkpt lat="42.491985" lon="1.568028">
        <ele>2123.000000</ele>
        <time>2020-08-22T11:21:23Z</time>
      </trkpt>
      <trkpt lat="42.491985" lon="1.568028">
        <ele>2123.000000</ele>
        <time>2020-08-22T11:21:23Z</time>
      </trkpt>
      <trkpt lat="42.491962" lon="1.568023">
        <ele>2123.000000</ele>
        <time>2020-08-22T11:21:23Z</time>
      </trkpt>
      <trkpt lat="42.491962" lon="1.568023">
        <ele>2123.000000</ele>
        <time>2020-08-22T11:21:23Z</time>
      </trkpt>
      <trkpt lat="42.491943" lon="1.568020">
        <ele>2123.000000</ele>
        <time>2020-08-22T11:21:23Z</time>
      </trkpt>
      <trkpt lat="42.491943" lon="1.568020">
        <ele>2123.000000</ele>
        <time>2020-08-22T11:21:23Z</time>
      </trkpt>
      <trkpt lat="42.491932" lon="1.568019">
        <ele>2123.000000</ele>
        <time>2020-08-22T11:21:23Z</time>
      </trkpt>
      <trkpt lat="42.491932" lon="1.568019">
        <ele>2123.000000</ele>
        <time>2020-08-22T11:21:23Z</time>
      </trkpt>
      <trkpt lat="42.491917" lon="1.568018">
        <ele>2123.000000</ele>
        <time>2020-08-22T11:21:23Z</time>
      </trkpt>
      <trkpt lat="42.491917" lon="1.568018">
        <ele>2123.000000</ele>
        <time>2020-08-22T11:21:23Z</time>
      </trkpt>
      <trkpt lat="42.491909" lon="1.568019">
        <ele>2123.000000</ele>
        <time>2020-08-22T11:21:23Z</time>
      </trkpt>
      <trkpt lat="42.491909" lon="1.568019">
        <ele>2123.000000</ele>
        <time>2020-08-22T11:21:23Z</time>
      </trkpt>
      <trkpt lat="42.491905" lon="1.568019">
        <ele>2123.000000</ele>
        <time>2020-08-22T11:21:23Z</time>
      </trkpt>
      <trkpt lat="42.491905" lon="1.568019">
        <ele>2123.000000</ele>
        <time>2020-08-22T11:21:23Z</time>
      </trkpt>
      <trkpt lat="42.491905" lon="1.568021">
        <ele>2123.000000</ele>
        <time>2020-08-22T11:21:23Z</time>
      </trkpt>
      <trkpt lat="42.491905" lon="1.568021">
        <ele>2123.000000</ele>
        <time>2020-08-22T11:21:23Z</time>
      </trkpt>
      <trkpt lat="42.491901" lon="1.568024">
        <ele>2123.000000</ele>
        <time>2020-08-22T11:21:23Z</time>
      </trkpt>
      <trkpt lat="42.491901" lon="1.568024">
        <ele>2123.000000</ele>
        <time>2020-08-22T11:21:23Z</time>
      </trkpt>
      <trkpt lat="42.491905" lon="1.568030">
        <ele>2123.000000</ele>
        <time>2020-08-22T11:21:23Z</time>
      </trkpt>
      <trkpt lat="42.491905" lon="1.568030">
        <ele>2123.000000</ele>
        <time>2020-08-22T11:21:23Z</time>
      </trkpt>
      <trkpt lat="42.491905" lon="1.568036">
        <ele>2123.000000</ele>
        <time>2020-08-22T11:21:23Z</time>
      </trkpt>
      <trkpt lat="42.491905" lon="1.568036">
        <ele>2123.000000</ele>
        <time>2020-08-22T11:21:23Z</time>
      </trkpt>
      <trkpt lat="42.491901" lon="1.568036">
        <ele>2123.000000</ele>
        <time>2020-08-22T11:21:30Z</time>
      </trkpt>
      <trkpt lat="42.491901" lon="1.568036">
        <ele>2123.000000</ele>
        <time>2020-08-22T11:21:30Z</time>
      </trkpt>
      <trkpt lat="42.491890" lon="1.568038">
        <ele>2123.000000</ele>
        <time>2020-08-22T11:21:30Z</time>
      </trkpt>
      <trkpt lat="42.491890" lon="1.568038">
        <ele>2119.000000</ele>
        <time>2020-08-22T11:21:30Z</time>
      </trkpt>
      <trkpt lat="42.491878" lon="1.568041">
        <ele>2119.000000</ele>
        <time>2020-08-22T11:21:30Z</time>
      </trkpt>
      <trkpt lat="42.491878" lon="1.568041">
        <ele>2119.000000</ele>
        <time>2020-08-22T11:21:30Z</time>
      </trkpt>
      <trkpt lat="42.491867" lon="1.568044">
        <ele>2119.000000</ele>
        <time>2020-08-22T11:21:30Z</time>
      </trkpt>
      <trkpt lat="42.491867" lon="1.568044">
        <ele>2119.000000</ele>
        <time>2020-08-22T11:21:30Z</time>
      </trkpt>
      <trkpt lat="42.491852" lon="1.568047">
        <ele>2119.000000</ele>
        <time>2020-08-22T11:21:30Z</time>
      </trkpt>
      <trkpt lat="42.491852" lon="1.568047">
        <ele>2119.000000</ele>
        <time>2020-08-22T11:21:30Z</time>
      </trkpt>
      <trkpt lat="42.491837" lon="1.568050">
        <ele>2119.000000</ele>
        <time>2020-08-22T11:21:30Z</time>
      </trkpt>
      <trkpt lat="42.491837" lon="1.568050">
        <ele>2119.000000</ele>
        <time>2020-08-22T11:21:30Z</time>
      </trkpt>
      <trkpt lat="42.491817" lon="1.568050">
        <ele>2119.000000</ele>
        <time>2020-08-22T11:21:30Z</time>
      </trkpt>
      <trkpt lat="42.491817" lon="1.568050">
        <ele>2118.000000</ele>
        <time>2020-08-22T11:21:30Z</time>
      </trkpt>
      <trkpt lat="42.491791" lon="1.568047">
        <ele>2118.000000</ele>
        <time>2020-08-22T11:21:37Z</time>
      </trkpt>
      <trkpt lat="42.491791" lon="1.568047">
        <ele>2118.000000</ele>
        <time>2020-08-22T11:21:37Z</time>
      </trkpt>
      <trkpt lat="42.491768" lon="1.568041">
        <ele>2118.000000</ele>
        <time>2020-08-22T11:21:37Z</time>
      </trkpt>
      <trkpt lat="42.491768" lon="1.568041">
        <ele>2118.000000</ele>
        <time>2020-08-22T11:21:37Z</time>
      </trkpt>
      <trkpt lat="42.491741" lon="1.568032">
        <ele>2118.000000</ele>
        <time>2020-08-22T11:21:37Z</time>
      </trkpt>
      <trkpt lat="42.491741" lon="1.568032">
        <ele>2118.000000</ele>
        <time>2020-08-22T11:21:37Z</time>
      </trkpt>
      <trkpt lat="42.491714" lon="1.568026">
        <ele>2118.000000</ele>
        <time>2020-08-22T11:21:37Z</time>
      </trkpt>
      <trkpt lat="42.491714" lon="1.568026">
        <ele>2117.000000</ele>
        <time>2020-08-22T11:21:37Z</time>
      </trkpt>
      <trkpt lat="42.491692" lon="1.568020">
        <ele>2117.000000</ele>
        <time>2020-08-22T11:21:37Z</time>
      </trkpt>
      <trkpt lat="42.491692" lon="1.568020">
        <ele>2117.000000</ele>
        <time>2020-08-22T11:21:37Z</time>
      </trkpt>
      <trkpt lat="42.491669" lon="1.568014">
        <ele>2117.000000</ele>
        <time>2020-08-22T11:21:37Z</time>
      </trkpt>
      <trkpt lat="42.491669" lon="1.568014">
        <ele>2117.000000</ele>
        <time>2020-08-22T11:21:37Z</time>
      </trkpt>
      <trkpt lat="42.491650" lon="1.568008">
        <ele>2117.000000</ele>
        <time>2020-08-22T11:21:44Z</time>
      </trkpt>
      <trkpt lat="42.491650" lon="1.568008">
        <ele>2117.000000</ele>
        <time>2020-08-22T11:21:44Z</time>
      </trkpt>
      <trkpt lat="42.491634" lon="1.568001">
        <ele>2117.000000</ele>
        <time>2020-08-22T11:21:44Z</time>
      </trkpt>
      <trkpt lat="42.491634" lon="1.568001">
        <ele>2117.000000</ele>
        <time>2020-08-22T11:21:44Z</time>
      </trkpt>
      <trkpt lat="42.491623" lon="1.567996">
        <ele>2117.000000</ele>
        <time>2020-08-22T11:21:44Z</time>
      </trkpt>
      <trkpt lat="42.491623" lon="1.567996">
        <ele>2117.000000</ele>
        <time>2020-08-22T11:21:44Z</time>
      </trkpt>
      <trkpt lat="42.491611" lon="1.567991">
        <ele>2117.000000</ele>
        <time>2020-08-22T11:21:44Z</time>
      </trkpt>
      <trkpt lat="42.491611" lon="1.567991">
        <ele>2117.000000</ele>
        <time>2020-08-22T11:21:44Z</time>
      </trkpt>
      <trkpt lat="42.491604" lon="1.567988">
        <ele>2117.000000</ele>
        <time>2020-08-22T11:21:44Z</time>
      </trkpt>
      <trkpt lat="42.491604" lon="1.567988">
        <ele>2117.000000</ele>
        <time>2020-08-22T11:21:44Z</time>
      </trkpt>
      <trkpt lat="42.491600" lon="1.567987">
        <ele>2117.000000</ele>
        <time>2020-08-22T11:21:44Z</time>
      </trkpt>
      <trkpt lat="42.491600" lon="1.567987">
        <ele>2117.000000</ele>
        <time>2020-08-22T11:21:44Z</time>
      </trkpt>
      <trkpt lat="42.491600" lon="1.567988">
        <ele>2117.000000</ele>
        <time>2020-08-22T11:21:44Z</time>
      </trkpt>
      <trkpt lat="42.491600" lon="1.567988">
        <ele>2117.000000</ele>
        <time>2020-08-22T11:21:44Z</time>
      </trkpt>
      <trkpt lat="42.491623" lon="1.567993">
        <ele>2117.000000</ele>
        <time>2020-08-22T11:21:44Z</time>
      </trkpt>
      <trkpt lat="42.491623" lon="1.567993">
        <ele>2117.000000</ele>
        <time>2020-08-22T11:21:44Z</time>
      </trkpt>
      <trkpt lat="42.491646" lon="1.567995">
        <ele>2117.000000</ele>
        <time>2020-08-22T11:21:44Z</time>
      </trkpt>
      <trkpt lat="42.491646" lon="1.567995">
        <ele>2117.000000</ele>
        <time>2020-08-22T11:21:44Z</time>
      </trkpt>
      <trkpt lat="42.491665" lon="1.567997">
        <ele>2117.000000</ele>
        <time>2020-08-22T11:21:44Z</time>
      </trkpt>
      <trkpt lat="42.491665" lon="1.567997">
        <ele>2117.000000</ele>
        <time>2020-08-22T11:21:44Z</time>
      </trkpt>
      <trkpt lat="42.491684" lon="1.567998">
        <ele>2117.000000</ele>
        <time>2020-08-22T11:21:44Z</time>
      </trkpt>
      <trkpt lat="42.491684" lon="1.567998">
        <ele>2117.000000</ele>
        <time>2020-08-22T11:21:44Z</time>
      </trkpt>
      <trkpt lat="42.491703" lon="1.568001">
        <ele>2117.000000</ele>
        <time>2020-08-22T11:21:51Z</time>
      </trkpt>
      <trkpt lat="42.491703" lon="1.568001">
        <ele>2117.000000</ele>
        <time>2020-08-22T11:21:51Z</time>
      </trkpt>
      <trkpt lat="42.491726" lon="1.568006">
        <ele>2117.000000</ele>
        <time>2020-08-22T11:21:51Z</time>
      </trkpt>
      <trkpt lat="42.491726" lon="1.568006">
        <ele>2117.000000</ele>
        <time>2020-08-22T11:21:51Z</time>
      </trkpt>
      <trkpt lat="42.491745" lon="1.568012">
        <ele>2117.000000</ele>
        <time>2020-08-22T11:21:51Z</time>
      </trkpt>
      <trkpt lat="42.491745" lon="1.568012">
        <ele>2117.000000</ele>
        <time>2020-08-22T11:21:51Z</time>
      </trkpt>
      <trkpt lat="42.491764" lon="1.568020">
        <ele>2117.000000</ele>
        <time>2020-08-22T11:21:51Z</time>
      </trkpt>
      <trkpt lat="42.491764" lon="1.568020">
        <ele>2117.000000</ele>
        <time>2020-08-22T11:21:51Z</time>
      </trkpt>
      <trkpt lat="42.491787" lon="1.568029">
        <ele>2117.000000</ele>
        <time>2020-08-22T11:21:51Z</time>
      </trkpt>
      <trkpt lat="42.491787" lon="1.568029">
        <ele>2117.000000</ele>
        <time>2020-08-22T11:21:51Z</time>
      </trkpt>
      <trkpt lat="42.491810" lon="1.568040">
        <ele>2117.000000</ele>
        <time>2020-08-22T11:21:51Z</time>
      </trkpt>
      <trkpt lat="42.491810" lon="1.568040">
        <ele>2117.000000</ele>
        <time>2020-08-22T11:21:51Z</time>
      </trkpt>
      <trkpt lat="42.491817" lon="1.568056">
        <ele>2117.000000</ele>
        <time>2020-08-22T11:21:51Z</time>
      </trkpt>
      <trkpt lat="42.491817" lon="1.568056">
        <ele>2117.000000</ele>
        <time>2020-08-22T11:21:51Z</time>
      </trkpt>
      <trkpt lat="42.491829" lon="1.568073">
        <ele>2117.000000</ele>
        <time>2020-08-22T11:21:58Z</time>
      </trkpt>
      <trkpt lat="42.491829" lon="1.568073">
        <ele>2117.000000</ele>
        <time>2020-08-22T11:21:58Z</time>
      </trkpt>
      <trkpt lat="42.491840" lon="1.568091">
        <ele>2117.000000</ele>
        <time>2020-08-22T11:21:58Z</time>
      </trkpt>
      <trkpt lat="42.491840" lon="1.568091">
        <ele>2117.000000</ele>
        <time>2020-08-22T11:21:58Z</time>
      </trkpt>
      <trkpt lat="42.491852" lon="1.568108">
        <ele>2117.000000</ele>
        <time>2020-08-22T11:21:58Z</time>
      </trkpt>
      <trkpt lat="42.491852" lon="1.568108">
        <ele>2117.000000</ele>
        <time>2020-08-22T11:21:58Z</time>
      </trkpt>
      <trkpt lat="42.491859" lon="1.568125">
        <ele>2117.000000</ele>
        <time>2020-08-22T11:21:58Z</time>
      </trkpt>
      <trkpt lat="42.491859" lon="1.568125">
        <ele>2117.000000</ele>
        <time>2020-08-22T11:21:58Z</time>
      </trkpt>
      <trkpt lat="42.491871" lon="1.568141">
        <ele>2117.000000</ele>
        <time>2020-08-22T11:21:58Z</time>
      </trkpt>
      <trkpt lat="42.491871" lon="1.568141">
        <ele>2117.000000</ele>
        <time>2020-08-22T11:21:58Z</time>
      </trkpt>
      <trkpt lat="42.491882" lon="1.568156">
        <ele>2117.000000</ele>
        <time>2020-08-22T11:21:58Z</time>
      </trkpt>
      <trkpt lat="42.491882" lon="1.568156">
        <ele>2117.000000</ele>
        <time>2020-08-22T11:21:58Z</time>
      </trkpt>
      <trkpt lat="42.491890" lon="1.568170">
        <ele>2117.000000</ele>
        <time>2020-08-22T11:21:58Z</time>
      </trkpt>
      <trkpt lat="42.491890" lon="1.568170">
        <ele>2117.000000</ele>
        <time>2020-08-22T11:21:58Z</time>
      </trkpt>
      <trkpt lat="42.491898" lon="1.568183">
        <ele>2118.000000</ele>
        <time>2020-08-22T11:22:06Z</time>
      </trkpt>
      <trkpt lat="42.491898" lon="1.568183">
        <ele>2118.000000</ele>
        <time>2020-08-22T11:22:06Z</time>
      </trkpt>
      <trkpt lat="42.491905" lon="1.568195">
        <ele>2118.000000</ele>
        <time>2020-08-22T11:22:06Z</time>
      </trkpt>
      <trkpt lat="42.491905" lon="1.568195">
        <ele>2118.000000</ele>
        <time>2020-08-22T11:22:06Z</time>
      </trkpt>
      <trkpt lat="42.491909" lon="1.568207">
        <ele>2118.000000</ele>
        <time>2020-08-22T11:22:13Z</time>
      </trkpt>
      <trkpt lat="42.491909" lon="1.568207">
        <ele>2118.000000</ele>
        <time>2020-08-22T11:22:13Z</time>
      </trkpt>
      <trkpt lat="42.491913" lon="1.568219">
        <ele>2118.000000</ele>
        <time>2020-08-22T11:22:13Z</time>
      </trkpt>
      <trkpt lat="42.491913" lon="1.568219">
        <ele>2118.000000</ele>
        <time>2020-08-22T11:22:13Z</time>
      </trkpt>
      <trkpt lat="42.491917" lon="1.568231">
        <ele>2118.000000</ele>
        <time>2020-08-22T11:22:13Z</time>
      </trkpt>
      <trkpt lat="42.491917" lon="1.568231">
        <ele>2118.000000</ele>
        <time>2020-08-22T11:22:13Z</time>
      </trkpt>
      <trkpt lat="42.491920" lon="1.568242">
        <ele>2118.000000</ele>
        <time>2020-08-22T11:22:13Z</time>
      </trkpt>
      <trkpt lat="42.491920" lon="1.568242">
        <ele>2118.000000</ele>
        <time>2020-08-22T11:22:13Z</time>
      </trkpt>
      <trkpt lat="42.491920" lon="1.568252">
        <ele>2118.000000</ele>
        <time>2020-08-22T11:22:13Z</time>
      </trkpt>
      <trkpt lat="42.491920" lon="1.568252">
        <ele>2118.000000</ele>
        <time>2020-08-22T11:22:13Z</time>
      </trkpt>
      <trkpt lat="42.491917" lon="1.568261">
        <ele>2118.000000</ele>
        <time>2020-08-22T11:22:13Z</time>
      </trkpt>
      <trkpt lat="42.491917" lon="1.568261">
        <ele>2118.000000</ele>
        <time>2020-08-22T11:22:13Z</time>
      </trkpt>
      <trkpt lat="42.491913" lon="1.568270">
        <ele>2118.000000</ele>
        <time>2020-08-22T11:22:13Z</time>
      </trkpt>
      <trkpt lat="42.491913" lon="1.568270">
        <ele>2118.000000</ele>
        <time>2020-08-22T11:22:13Z</time>
      </trkpt>
      <trkpt lat="42.491909" lon="1.568277">
        <ele>2118.000000</ele>
        <time>2020-08-22T11:22:20Z</time>
      </trkpt>
      <trkpt lat="42.491909" lon="1.568277">
        <ele>2118.000000</ele>
        <time>2020-08-22T11:22:20Z</time>
      </trkpt>
      <trkpt lat="42.491901" lon="1.568284">
        <ele>2118.000000</ele>
        <time>2020-08-22T11:22:20Z</time>
      </trkpt>
      <trkpt lat="42.491901" lon="1.568284">
        <ele>2118.000000</ele>
        <time>2020-08-22T11:22:20Z</time>
      </trkpt>
      <trkpt lat="42.491894" lon="1.568290">
        <ele>2118.000000</ele>
        <time>2020-08-22T11:22:20Z</time>
      </trkpt>
      <trkpt lat="42.491894" lon="1.568290">
        <ele>2118.000000</ele>
        <time>2020-08-22T11:22:20Z</time>
      </trkpt>
      <trkpt lat="42.491886" lon="1.568290">
        <ele>2118.000000</ele>
        <time>2020-08-22T11:22:20Z</time>
      </trkpt>
      <trkpt lat="42.491886" lon="1.568290">
        <ele>2118.000000</ele>
        <time>2020-08-22T11:22:20Z</time>
      </trkpt>
      <trkpt lat="42.491878" lon="1.568289">
        <ele>2118.000000</ele>
        <time>2020-08-22T11:22:20Z</time>
      </trkpt>
      <trkpt lat="42.491878" lon="1.568289">
        <ele>2118.000000</ele>
        <time>2020-08-22T11:22:20Z</time>
      </trkpt>
      <trkpt lat="42.491867" lon="1.568287">
        <ele>2118.000000</ele>
        <time>2020-08-22T11:22:20Z</time>
      </trkpt>
      <trkpt lat="42.491867" lon="1.568287">
        <ele>2118.000000</ele>
        <time>2020-08-22T11:22:20Z</time>
      </trkpt>
      <trkpt lat="42.491856" lon="1.568285">
        <ele>2118.000000</ele>
        <time>2020-08-22T11:22:20Z</time>
      </trkpt>
      <trkpt lat="42.491856" lon="1.568285">
        <ele>2118.000000</ele>
        <time>2020-08-22T11:22:20Z</time>
      </trkpt>
      <trkpt lat="42.491848" lon="1.568282">
        <ele>2118.000000</ele>
        <time>2020-08-22T11:22:27Z</time>
      </trkpt>
      <trkpt lat="42.491848" lon="1.568282">
        <ele>2118.000000</ele>
        <time>2020-08-22T11:22:27Z</time>
      </trkpt>
      <trkpt lat="42.491837" lon="1.568279">
        <ele>2118.000000</ele>
        <time>2020-08-22T11:22:27Z</time>
      </trkpt>
      <trkpt lat="42.491837" lon="1.568279">
        <ele>2118.000000</ele>
        <time>2020-08-22T11:22:27Z</time>
      </trkpt>
      <trkpt lat="42.491825" lon="1.568275">
        <ele>2118.000000</ele>
        <time>2020-08-22T11:22:27Z</time>
      </trkpt>
      <trkpt lat="42.491825" lon="1.568275">
        <ele>2118.000000</ele>
        <time>2020-08-22T11:22:27Z</time>
      </trkpt>
      <trkpt lat="42.491817" lon="1.568273">
        <ele>2118.000000</ele>
        <time>2020-08-22T11:22:27Z</time>
      </trkpt>
      <trkpt lat="42.491817" lon="1.568273">
        <ele>2118.000000</ele>
        <time>2020-08-22T11:22:27Z</time>
      </trkpt>
      <trkpt lat="42.491810" lon="1.568269">
        <ele>2118.000000</ele>
        <time>2020-08-22T11:22:27Z</time>
      </trkpt>
      <trkpt lat="42.491810" lon="1.568269">
        <ele>2118.000000</ele>
        <time>2020-08-22T11:22:27Z</time>
      </trkpt>
      <trkpt lat="42.491798" lon="1.568266">
        <ele>2118.000000</ele>
        <time>2020-08-22T11:22:27Z</time>
      </trkpt>
      <trkpt lat="42.491798" lon="1.568266">
        <ele>2118.000000</ele>
        <time>2020-08-22T11:22:27Z</time>
      </trkpt>
      <trkpt lat="42.491791" lon="1.568280">
        <ele>2118.000000</ele>
        <time>2020-08-22T11:22:27Z</time>
      </trkpt>
      <trkpt lat="42.491791" lon="1.568280">
        <ele>2117.000000</ele>
        <time>2020-08-22T11:22:27Z</time>
      </trkpt>
      <trkpt lat="42.491787" lon="1.568293">
        <ele>2117.000000</ele>
        <time>2020-08-22T11:22:27Z</time>
      </trkpt>
      <trkpt lat="42.491787" lon="1.568293">
        <ele>2117.000000</ele>
        <time>2020-08-22T11:22:27Z</time>
      </trkpt>
      <trkpt lat="42.491783" lon="1.568307">
        <ele>2117.000000</ele>
        <time>2020-08-22T11:22:27Z</time>
      </trkpt>
      <trkpt lat="42.491783" lon="1.568307">
        <ele>2117.000000</ele>
        <time>2020-08-22T11:22:27Z</time>
      </trkpt>
      <trkpt lat="42.491779" lon="1.568321">
        <ele>2117.000000</ele>
        <time>2020-08-22T11:22:27Z</time>
      </trkpt>
      <trkpt lat="42.491779" lon="1.568321">
        <ele>2117.000000</ele>
        <time>2020-08-22T11:22:27Z</time>
      </trkpt>
      <trkpt lat="42.491779" lon="1.568337">
        <ele>2117.000000</ele>
        <time>2020-08-22T11:22:27Z</time>
      </trkpt>
      <trkpt lat="42.491779" lon="1.568337">
        <ele>2117.000000</ele>
        <time>2020-08-22T11:22:27Z</time>
      </trkpt>
      <trkpt lat="42.491783" lon="1.568353">
        <ele>2117.000000</ele>
        <time>2020-08-22T11:22:27Z</time>
      </trkpt>
      <trkpt lat="42.491783" lon="1.568353">
        <ele>2117.000000</ele>
        <time>2020-08-22T11:22:27Z</time>
      </trkpt>
      <trkpt lat="42.491783" lon="1.568369">
        <ele>2117.000000</ele>
        <time>2020-08-22T11:22:34Z</time>
      </trkpt>
      <trkpt lat="42.491783" lon="1.568369">
        <ele>2117.000000</ele>
        <time>2020-08-22T11:22:34Z</time>
      </trkpt>
      <trkpt lat="42.491787" lon="1.568387">
        <ele>2117.000000</ele>
        <time>2020-08-22T11:22:34Z</time>
      </trkpt>
      <trkpt lat="42.491787" lon="1.568387">
        <ele>2117.000000</ele>
        <time>2020-08-22T11:22:34Z</time>
      </trkpt>
      <trkpt lat="42.491791" lon="1.568405">
        <ele>2117.000000</ele>
        <time>2020-08-22T11:22:34Z</time>
      </trkpt>
      <trkpt lat="42.491791" lon="1.568405">
        <ele>2117.000000</ele>
        <time>2020-08-22T11:22:34Z</time>
      </trkpt>
      <trkpt lat="42.491798" lon="1.568425">
        <ele>2117.000000</ele>
        <time>2020-08-22T11:22:34Z</time>
      </trkpt>
      <trkpt lat="42.491798" lon="1.568425">
        <ele>2117.000000</ele>
        <time>2020-08-22T11:22:34Z</time>
      </trkpt>
      <trkpt lat="42.491802" lon="1.568423">
        <ele>2117.000000</ele>
        <time>2020-08-22T11:22:34Z</time>
      </trkpt>
      <trkpt lat="42.491802" lon="1.568423">
        <ele>2117.000000</ele>
        <time>2020-08-22T11:22:34Z</time>
      </trkpt>
      <trkpt lat="42.491802" lon="1.568419">
        <ele>2117.000000</ele>
        <time>2020-08-22T11:22:34Z</time>
      </trkpt>
      <trkpt lat="42.491802" lon="1.568419">
        <ele>2117.000000</ele>
        <time>2020-08-22T11:22:34Z</time>
      </trkpt>
      <trkpt lat="42.491798" lon="1.568413">
        <ele>2117.000000</ele>
        <time>2020-08-22T11:22:34Z</time>
      </trkpt>
      <trkpt lat="42.491798" lon="1.568413">
        <ele>2117.000000</ele>
        <time>2020-08-22T11:22:34Z</time>
      </trkpt>
      <trkpt lat="42.491787" lon="1.568406">
        <ele>2117.000000</ele>
        <time>2020-08-22T11:22:41Z</time>
      </trkpt>
      <trkpt lat="42.491787" lon="1.568406">
        <ele>2117.000000</ele>
        <time>2020-08-22T11:22:41Z</time>
      </trkpt>
      <trkpt lat="42.491776" lon="1.568398">
        <ele>2117.000000</ele>
        <time>2020-08-22T11:22:41Z</time>
      </trkpt>
      <trkpt lat="42.491776" lon="1.568398">
        <ele>2117.000000</ele>
        <time>2020-08-22T11:22:41Z</time>
      </trkpt>
      <trkpt lat="42.491756" lon="1.568387">
        <ele>2117.000000</ele>
        <time>2020-08-22T11:22:41Z</time>
      </trkpt>
      <trkpt lat="42.491756" lon="1.568387">
        <ele>2117.000000</ele>
        <time>2020-08-22T11:22:41Z</time>
      </trkpt>
      <trkpt lat="42.491737" lon="1.568373">
        <ele>2119.000000</ele>
        <time>2020-08-22T11:22:41Z</time>
      </trkpt>
      <trkpt lat="42.491737" lon="1.568373">
        <ele>2119.000000</ele>
        <time>2020-08-22T11:22:41Z</time>
      </trkpt>
      <trkpt lat="42.491714" lon="1.568354">
        <ele>2119.000000</ele>
        <time>2020-08-22T11:22:41Z</time>
      </trkpt>
      <trkpt lat="42.491714" lon="1.568354">
        <ele>2119.000000</ele>
        <time>2020-08-22T11:22:41Z</time>
      </trkpt>
      <trkpt lat="42.491688" lon="1.568333">
        <ele>2119.000000</ele>
        <time>2020-08-22T11:22:41Z</time>
      </trkpt>
      <trkpt lat="42.491688" lon="1.568333">
        <ele>2119.000000</ele>
        <time>2020-08-22T11:22:41Z</time>
      </trkpt>
      <trkpt lat="42.491657" lon="1.568310">
        <ele>2119.000000</ele>
        <time>2020-08-22T11:22:41Z</time>
      </trkpt>
      <trkpt lat="42.491657" lon="1.568310">
        <ele>2119.000000</ele>
        <time>2020-08-22T11:22:41Z</time>
      </trkpt>
      <trkpt lat="42.491627" lon="1.568295">
        <ele>2119.000000</ele>
        <time>2020-08-22T11:22:41Z</time>
      </trkpt>
      <trkpt lat="42.491627" lon="1.568295">
        <ele>2119.000000</ele>
        <time>2020-08-22T11:22:41Z</time>
      </trkpt>
      <trkpt lat="42.491600" lon="1.568283">
        <ele>2120.000000</ele>
        <time>2020-08-22T11:22:48Z</time>
      </trkpt>
      <trkpt lat="42.491600" lon="1.568283">
        <ele>2120.000000</ele>
        <time>2020-08-22T11:22:48Z</time>
      </trkpt>
      <trkpt lat="42.491573" lon="1.568275">
        <ele>2120.000000</ele>
        <time>2020-08-22T11:22:48Z</time>
      </trkpt>
      <trkpt lat="42.491573" lon="1.568275">
        <ele>2120.000000</ele>
        <time>2020-08-22T11:22:48Z</time>
      </trkpt>
      <trkpt lat="42.491550" lon="1.568268">
        <ele>2120.000000</ele>
        <time>2020-08-22T11:22:48Z</time>
      </trkpt>
      <trkpt lat="42.491550" lon="1.568268">
        <ele>2120.000000</ele>
        <time>2020-08-22T11:22:48Z</time>
      </trkpt>
      <trkpt lat="42.491528" lon="1.568263">
        <ele>2120.000000</ele>
        <time>2020-08-22T11:22:48Z</time>
      </trkpt>
      <trkpt lat="42.491528" lon="1.568263">
        <ele>2120.000000</ele>
        <time>2020-08-22T11:22:48Z</time>
      </trkpt>
      <trkpt lat="42.491508" lon="1.568259">
        <ele>2120.000000</ele>
        <time>2020-08-22T11:22:48Z</time>
      </trkpt>
      <trkpt lat="42.491508" lon="1.568259">
        <ele>2120.000000</ele>
        <time>2020-08-22T11:22:48Z</time>
      </trkpt>
      <trkpt lat="42.491489" lon="1.568258">
        <ele>2120.000000</ele>
        <time>2020-08-22T11:22:48Z</time>
      </trkpt>
      <trkpt lat="42.491489" lon="1.568258">
        <ele>2120.000000</ele>
        <time>2020-08-22T11:22:48Z</time>
      </trkpt>
      <trkpt lat="42.491470" lon="1.568261">
        <ele>2120.000000</ele>
        <time>2020-08-22T11:22:48Z</time>
      </trkpt>
      <trkpt lat="42.491470" lon="1.568261">
        <ele>2121.000000</ele>
        <time>2020-08-22T11:22:48Z</time>
      </trkpt>
      <trkpt lat="42.491459" lon="1.568265">
        <ele>2121.000000</ele>
        <time>2020-08-22T11:22:48Z</time>
      </trkpt>
      <trkpt lat="42.491459" lon="1.568265">
        <ele>2121.000000</ele>
        <time>2020-08-22T11:22:48Z</time>
      </trkpt>
      <trkpt lat="42.491444" lon="1.568269">
        <ele>2121.000000</ele>
        <time>2020-08-22T11:22:48Z</time>
      </trkpt>
      <trkpt lat="42.491444" lon="1.568269">
        <ele>2121.000000</ele>
        <time>2020-08-22T11:22:48Z</time>
      </trkpt>
      <trkpt lat="42.491440" lon="1.568272">
        <ele>2121.000000</ele>
        <time>2020-08-22T11:22:48Z</time>
      </trkpt>
      <trkpt lat="42.491440" lon="1.568272">
        <ele>2121.000000</ele>
        <time>2020-08-22T11:22:48Z</time>
      </trkpt>
      <trkpt lat="42.491440" lon="1.568276">
        <ele>2121.000000</ele>
        <time>2020-08-22T11:22:48Z</time>
      </trkpt>
      <trkpt lat="42.491440" lon="1.568276">
        <ele>2121.000000</ele>
        <time>2020-08-22T11:22:48Z</time>
      </trkpt>
      <trkpt lat="42.491440" lon="1.568281">
        <ele>2121.000000</ele>
        <time>2020-08-22T11:22:48Z</time>
      </trkpt>
      <trkpt lat="42.491440" lon="1.568281">
        <ele>2121.000000</ele>
        <time>2020-08-22T11:22:48Z</time>
      </trkpt>
      <trkpt lat="42.491444" lon="1.568289">
        <ele>2121.000000</ele>
        <time>2020-08-22T11:22:48Z</time>
      </trkpt>
      <trkpt lat="42.491444" lon="1.568289">
        <ele>2121.000000</ele>
        <time>2020-08-22T11:22:48Z</time>
      </trkpt>
      <trkpt lat="42.491451" lon="1.568299">
        <ele>2121.000000</ele>
        <time>2020-08-22T11:22:56Z</time>
      </trkpt>
      <trkpt lat="42.491451" lon="1.568299">
        <ele>2121.000000</ele>
        <time>2020-08-22T11:22:56Z</time>
      </trkpt>
      <trkpt lat="42.491459" lon="1.568311">
        <ele>2121.000000</ele>
        <time>2020-08-22T11:22:56Z</time>
      </trkpt>
      <trkpt lat="42.491459" lon="1.568311">
        <ele>2121.000000</ele>
        <time>2020-08-22T11:22:56Z</time>
      </trkpt>
      <trkpt lat="42.491470" lon="1.568325">
        <ele>2121.000000</ele>
        <time>2020-08-22T11:22:56Z</time>
      </trkpt>
      <trkpt lat="42.491470" lon="1.568325">
        <ele>2121.000000</ele>
        <time>2020-08-22T11:22:56Z</time>
      </trkpt>
      <trkpt lat="42.491482" lon="1.568340">
        <ele>2121.000000</ele>
        <time>2020-08-22T11:22:56Z</time>
      </trkpt>
      <trkpt lat="42.491482" lon="1.568340">
        <ele>2121.000000</ele>
        <time>2020-08-22T11:22:56Z</time>
      </trkpt>
      <trkpt lat="42.491497" lon="1.568357">
        <ele>2121.000000</ele>
        <time>2020-08-22T11:22:56Z</time>
      </trkpt>
      <trkpt lat="42.491497" lon="1.568357">
        <ele>2121.000000</ele>
        <time>2020-08-22T11:22:56Z</time>
      </trkpt>
      <trkpt lat="42.491508" lon="1.568374">
        <ele>2121.000000</ele>
        <time>2020-08-22T11:22:56Z</time>
      </trkpt>
      <trkpt lat="42.491508" lon="1.568374">
        <ele>2121.000000</ele>
        <time>2020-08-22T11:22:56Z</time>
      </trkpt>
      <trkpt lat="42.491516" lon="1.568396">
        <ele>2121.000000</ele>
        <time>2020-08-22T11:22:56Z</time>
      </trkpt>
      <trkpt lat="42.491516" lon="1.568396">
        <ele>2121.000000</ele>
        <time>2020-08-22T11:22:56Z</time>
      </trkpt>
      <trkpt lat="42.491524" lon="1.568416">
        <ele>2120.000000</ele>
        <time>2020-08-22T11:23:03Z</time>
      </trkpt>
      <trkpt lat="42.491524" lon="1.568416">
        <ele>2120.000000</ele>
        <time>2020-08-22T11:23:03Z</time>
      </trkpt>
      <trkpt lat="42.491524" lon="1.568434">
        <ele>2120.000000</ele>
        <time>2020-08-22T11:23:03Z</time>
      </trkpt>
      <trkpt lat="42.491524" lon="1.568434">
        <ele>2120.000000</ele>
        <time>2020-08-22T11:23:03Z</time>
      </trkpt>
      <trkpt lat="42.491524" lon="1.568451">
        <ele>2120.000000</ele>
        <time>2020-08-22T11:23:03Z</time>
      </trkpt>
      <trkpt lat="42.491524" lon="1.568451">
        <ele>2119.000000</ele>
        <time>2020-08-22T11:23:03Z</time>
      </trkpt>
      <trkpt lat="42.491524" lon="1.568468">
        <ele>2119.000000</ele>
        <time>2020-08-22T11:23:03Z</time>
      </trkpt>
      <trkpt lat="42.491524" lon="1.568468">
        <ele>2119.000000</ele>
        <time>2020-08-22T11:23:03Z</time>
      </trkpt>
      <trkpt lat="42.491520" lon="1.568484">
        <ele>2119.000000</ele>
        <time>2020-08-22T11:23:03Z</time>
      </trkpt>
      <trkpt lat="42.491520" lon="1.568484">
        <ele>2119.000000</ele>
        <time>2020-08-22T11:23:03Z</time>
      </trkpt>
      <trkpt lat="42.491516" lon="1.568500">
        <ele>2119.000000</ele>
        <time>2020-08-22T11:23:03Z</time>
      </trkpt>
      <trkpt lat="42.491516" lon="1.568500">
        <ele>2119.000000</ele>
        <time>2020-08-22T11:23:03Z</time>
      </trkpt>
      <trkpt lat="42.491512" lon="1.568518">
        <ele>2119.000000</ele>
        <time>2020-08-22T11:23:03Z</time>
      </trkpt>
      <trkpt lat="42.491512" lon="1.568518">
        <ele>2119.000000</ele>
        <time>2020-08-22T11:23:03Z</time>
      </trkpt>
      <trkpt lat="42.491512" lon="1.568536">
        <ele>2119.000000</ele>
        <time>2020-08-22T11:23:11Z</time>
      </trkpt>
      <trkpt lat="42.491512" lon="1.568536">
        <ele>2119.000000</ele>
        <time>2020-08-22T11:23:11Z</time>
      </trkpt>
      <trkpt lat="42.491512" lon="1.568554">
        <ele>2119.000000</ele>
        <time>2020-08-22T11:23:11Z</time>
      </trkpt>
      <trkpt lat="42.491512" lon="1.568554">
        <ele>2119.000000</ele>
        <time>2020-08-22T11:23:11Z</time>
      </trkpt>
      <trkpt lat="42.491524" lon="1.568585">
        <ele>2119.000000</ele>
        <time>2020-08-22T11:23:18Z</time>
      </trkpt>
      <trkpt lat="42.491524" lon="1.568585">
        <ele>2119.000000</ele>
        <time>2020-08-22T11:23:18Z</time>
      </trkpt>
      <trkpt lat="42.491535" lon="1.568613">
        <ele>2119.000000</ele>
        <time>2020-08-22T11:23:18Z</time>
      </trkpt>
      <trkpt lat="42.491535" lon="1.568613">
        <ele>2119.000000</ele>
        <time>2020-08-22T11:23:18Z</time>
      </trkpt>
      <trkpt lat="42.491550" lon="1.568641">
        <ele>2118.000000</ele>
        <time>2020-08-22T11:23:18Z</time>
      </trkpt>
      <trkpt lat="42.491550" lon="1.568641">
        <ele>2118.000000</ele>
        <time>2020-08-22T11:23:18Z</time>
      </trkpt>
      <trkpt lat="42.491562" lon="1.568666">
        <ele>2118.000000</ele>
        <time>2020-08-22T11:23:18Z</time>
      </trkpt>
      <trkpt lat="42.491562" lon="1.568666">
        <ele>2118.000000</ele>
        <time>2020-08-22T11:23:18Z</time>
      </trkpt>
      <trkpt lat="42.491577" lon="1.568690">
        <ele>2118.000000</ele>
        <time>2020-08-22T11:23:18Z</time>
      </trkpt>
      <trkpt lat="42.491577" lon="1.568690">
        <ele>2117.000000</ele>
        <time>2020-08-22T11:23:18Z</time>
      </trkpt>
      <trkpt lat="42.491585" lon="1.568711">
        <ele>2117.000000</ele>
        <time>2020-08-22T11:23:18Z</time>
      </trkpt>
      <trkpt lat="42.491585" lon="1.568711">
        <ele>2117.000000</ele>
        <time>2020-08-22T11:23:18Z</time>
      </trkpt>
      <trkpt lat="42.491596" lon="1.568728">
        <ele>2117.000000</ele>
        <time>2020-08-22T11:23:18Z</time>
      </trkpt>
      <trkpt lat="42.491596" lon="1.568728">
        <ele>2117.000000</ele>
        <time>2020-08-22T11:23:18Z</time>
      </trkpt>
      <trkpt lat="42.491604" lon="1.568743">
        <ele>2117.000000</ele>
        <time>2020-08-22T11:23:25Z</time>
      </trkpt>
      <trkpt lat="42.491604" lon="1.568743">
        <ele>2117.000000</ele>
        <time>2020-08-22T11:23:25Z</time>
      </trkpt>
      <trkpt lat="42.491608" lon="1.568755">
        <ele>2117.000000</ele>
        <time>2020-08-22T11:23:25Z</time>
      </trkpt>
      <trkpt lat="42.491608" lon="1.568755">
        <ele>2116.000000</ele>
        <time>2020-08-22T11:23:25Z</time>
      </trkpt>
      <trkpt lat="42.491608" lon="1.568766">
        <ele>2116.000000</ele>
        <time>2020-08-22T11:23:25Z</time>
      </trkpt>
      <trkpt lat="42.491608" lon="1.568766">
        <ele>2116.000000</ele>
        <time>2020-08-22T11:23:25Z</time>
      </trkpt>
      <trkpt lat="42.491600" lon="1.568758">
        <ele>2116.000000</ele>
        <time>2020-08-22T11:23:25Z</time>
      </trkpt>
      <trkpt lat="42.491600" lon="1.568758">
        <ele>2116.000000</ele>
        <time>2020-08-22T11:23:25Z</time>
      </trkpt>
      <trkpt lat="42.491589" lon="1.568750">
        <ele>2116.000000</ele>
        <time>2020-08-22T11:23:25Z</time>
      </trkpt>
      <trkpt lat="42.491589" lon="1.568750">
        <ele>2116.000000</ele>
        <time>2020-08-22T11:23:25Z</time>
      </trkpt>
      <trkpt lat="42.491581" lon="1.568742">
        <ele>2116.000000</ele>
        <time>2020-08-22T11:23:25Z</time>
      </trkpt>
      <trkpt lat="42.491581" lon="1.568742">
        <ele>2115.000000</ele>
        <time>2020-08-22T11:23:25Z</time>
      </trkpt>
      <trkpt lat="42.491573" lon="1.568735">
        <ele>2115.000000</ele>
        <time>2020-08-22T11:23:25Z</time>
      </trkpt>
      <trkpt lat="42.491573" lon="1.568735">
        <ele>2115.000000</ele>
        <time>2020-08-22T11:23:25Z</time>
      </trkpt>
      <trkpt lat="42.491566" lon="1.568727">
        <ele>2115.000000</ele>
        <time>2020-08-22T11:23:32Z</time>
      </trkpt>
      <trkpt lat="42.491566" lon="1.568727">
        <ele>2115.000000</ele>
        <time>2020-08-22T11:23:32Z</time>
      </trkpt>
      <trkpt lat="42.491558" lon="1.568720">
        <ele>2115.000000</ele>
        <time>2020-08-22T11:23:32Z</time>
      </trkpt>
      <trkpt lat="42.491558" lon="1.568720">
        <ele>2115.000000</ele>
        <time>2020-08-22T11:23:32Z</time>
      </trkpt>
      <trkpt lat="42.491547" lon="1.568713">
        <ele>2115.000000</ele>
        <time>2020-08-22T11:23:32Z</time>
      </trkpt>
      <trkpt lat="42.491547" lon="1.568713">
        <ele>2114.000000</ele>
        <time>2020-08-22T11:23:32Z</time>
      </trkpt>
      <trkpt lat="42.491539" lon="1.568706">
        <ele>2114.000000</ele>
        <time>2020-08-22T11:23:32Z</time>
      </trkpt>
      <trkpt lat="42.491539" lon="1.568706">
        <ele>2114.000000</ele>
        <time>2020-08-22T11:23:32Z</time>
      </trkpt>
      <trkpt lat="42.491531" lon="1.568699">
        <ele>2114.000000</ele>
        <time>2020-08-22T11:23:32Z</time>
      </trkpt>
      <trkpt lat="42.491531" lon="1.568699">
        <ele>2114.000000</ele>
        <time>2020-08-22T11:23:32Z</time>
      </trkpt>
      <trkpt lat="42.491524" lon="1.568691">
        <ele>2114.000000</ele>
        <time>2020-08-22T11:23:32Z</time>
      </trkpt>
      <trkpt lat="42.491524" lon="1.568691">
        <ele>2114.000000</ele>
        <time>2020-08-22T11:23:32Z</time>
      </trkpt>
      <trkpt lat="42.491505" lon="1.568674">
        <ele>2114.000000</ele>
        <time>2020-08-22T11:23:32Z</time>
      </trkpt>
      <trkpt lat="42.491505" lon="1.568674">
        <ele>2114.000000</ele>
        <time>2020-08-22T11:23:32Z</time>
      </trkpt>
      <trkpt lat="42.491482" lon="1.568658">
        <ele>2114.000000</ele>
        <time>2020-08-22T11:23:32Z</time>
      </trkpt>
      <trkpt lat="42.491482" lon="1.568658">
        <ele>2114.000000</ele>
        <time>2020-08-22T11:23:32Z</time>
      </trkpt>
      <trkpt lat="42.491467" lon="1.568643">
        <ele>2114.000000</ele>
        <time>2020-08-22T11:23:32Z</time>
      </trkpt>
      <trkpt lat="42.491467" lon="1.568643">
        <ele>2114.000000</ele>
        <time>2020-08-22T11:23:32Z</time>
      </trkpt>
      <trkpt lat="42.491451" lon="1.568628">
        <ele>2114.000000</ele>
        <time>2020-08-22T11:23:32Z</time>
      </trkpt>
      <trkpt lat="42.491451" lon="1.568628">
        <ele>2114.000000</ele>
        <time>2020-08-22T11:23:32Z</time>
      </trkpt>
      <trkpt lat="42.491436" lon="1.568615">
        <ele>2114.000000</ele>
        <time>2020-08-22T11:23:32Z</time>
      </trkpt>
      <trkpt lat="42.491436" lon="1.568615">
        <ele>2114.000000</ele>
        <time>2020-08-22T11:23:32Z</time>
      </trkpt>
      <trkpt lat="42.491425" lon="1.568603">
        <ele>2114.000000</ele>
        <time>2020-08-22T11:23:41Z</time>
      </trkpt>
      <trkpt lat="42.491425" lon="1.568603">
        <ele>2114.000000</ele>
        <time>2020-08-22T11:23:41Z</time>
      </trkpt>
      <trkpt lat="42.491413" lon="1.568592">
        <ele>2114.000000</ele>
        <time>2020-08-22T11:23:41Z</time>
      </trkpt>
      <trkpt lat="42.491413" lon="1.568592">
        <ele>2114.000000</ele>
        <time>2020-08-22T11:23:41Z</time>
      </trkpt>
      <trkpt lat="42.491409" lon="1.568584">
        <ele>2114.000000</ele>
        <time>2020-08-22T11:23:41Z</time>
      </trkpt>
      <trkpt lat="42.491409" lon="1.568584">
        <ele>2114.000000</ele>
        <time>2020-08-22T11:23:41Z</time>
      </trkpt>
      <trkpt lat="42.491409" lon="1.568577">
        <ele>2114.000000</ele>
        <time>2020-08-22T11:23:41Z</time>
      </trkpt>
      <trkpt lat="42.491409" lon="1.568577">
        <ele>2114.000000</ele>
        <time>2020-08-22T11:23:41Z</time>
      </trkpt>
      <trkpt lat="42.491409" lon="1.568571">
        <ele>2114.000000</ele>
        <time>2020-08-22T11:23:41Z</time>
      </trkpt>
      <trkpt lat="42.491409" lon="1.568571">
        <ele>2114.000000</ele>
        <time>2020-08-22T11:23:41Z</time>
      </trkpt>
      <trkpt lat="42.491425" lon="1.568574">
        <ele>2114.000000</ele>
        <time>2020-08-22T11:23:41Z</time>
      </trkpt>
      <trkpt lat="42.491425" lon="1.568574">
        <ele>2114.000000</ele>
        <time>2020-08-22T11:23:41Z</time>
      </trkpt>
      <trkpt lat="42.491444" lon="1.568577">
        <ele>2114.000000</ele>
        <time>2020-08-22T11:23:41Z</time>
      </trkpt>
      <trkpt lat="42.491444" lon="1.568577">
        <ele>2113.000000</ele>
        <time>2020-08-22T11:23:41Z</time>
      </trkpt>
      <trkpt lat="42.491463" lon="1.568578">
        <ele>2113.000000</ele>
        <time>2020-08-22T11:23:48Z</time>
      </trkpt>
      <trkpt lat="42.491463" lon="1.568578">
        <ele>2113.000000</ele>
        <time>2020-08-22T11:23:48Z</time>
      </trkpt>
      <trkpt lat="42.491482" lon="1.568578">
        <ele>2113.000000</ele>
        <time>2020-08-22T11:23:48Z</time>
      </trkpt>
      <trkpt lat="42.491482" lon="1.568578">
        <ele>2113.000000</ele>
        <time>2020-08-22T11:23:48Z</time>
      </trkpt>
      <trkpt lat="42.491501" lon="1.568578">
        <ele>2113.000000</ele>
        <time>2020-08-22T11:23:48Z</time>
      </trkpt>
      <trkpt lat="42.491501" lon="1.568578">
        <ele>2113.000000</ele>
        <time>2020-08-22T11:23:48Z</time>
      </trkpt>
      <trkpt lat="42.491524" lon="1.568577">
        <ele>2113.000000</ele>
        <time>2020-08-22T11:23:48Z</time>
      </trkpt>
      <trkpt lat="42.491524" lon="1.568577">
        <ele>2113.000000</ele>
        <time>2020-08-22T11:23:48Z</time>
      </trkpt>
      <trkpt lat="42.491543" lon="1.568574">
        <ele>2113.000000</ele>
        <time>2020-08-22T11:23:48Z</time>
      </trkpt>
      <trkpt lat="42.491543" lon="1.568574">
        <ele>2113.000000</ele>
        <time>2020-08-22T11:23:48Z</time>
      </trkpt>
      <trkpt lat="42.491562" lon="1.568569">
        <ele>2113.000000</ele>
        <time>2020-08-22T11:23:48Z</time>
      </trkpt>
      <trkpt lat="42.491562" lon="1.568569">
        <ele>2113.000000</ele>
        <time>2020-08-22T11:23:48Z</time>
      </trkpt>
      <trkpt lat="42.491577" lon="1.568565">
        <ele>2113.000000</ele>
        <time>2020-08-22T11:23:48Z</time>
      </trkpt>
      <trkpt lat="42.491577" lon="1.568565">
        <ele>2109.000000</ele>
        <time>2020-08-22T11:23:48Z</time>
      </trkpt>
      <trkpt lat="42.491592" lon="1.568561">
        <ele>2109.000000</ele>
        <time>2020-08-22T11:23:56Z</time>
      </trkpt>
      <trkpt lat="42.491592" lon="1.568561">
        <ele>2108.000000</ele>
        <time>2020-08-22T11:23:56Z</time>
      </trkpt>
      <trkpt lat="42.491585" lon="1.568559">
        <ele>2108.000000</ele>
        <time>2020-08-22T11:23:56Z</time>
      </trkpt>
      <trkpt lat="42.491585" lon="1.568559">
        <ele>2107.000000</ele>
        <time>2020-08-22T11:23:56Z</time>
      </trkpt>
      <trkpt lat="42.491577" lon="1.568558">
        <ele>2107.000000</ele>
        <time>2020-08-22T11:24:06Z</time>
      </trkpt>
      <trkpt lat="42.491577" lon="1.568558">
        <ele>2106.000000</ele>
        <time>2020-08-22T11:24:06Z</time>
      </trkpt>
      <trkpt lat="42.491570" lon="1.568559">
        <ele>2106.000000</ele>
        <time>2020-08-22T11:24:06Z</time>
      </trkpt>
      <trkpt lat="42.491570" lon="1.568559">
        <ele>2106.000000</ele>
        <time>2020-08-22T11:24:06Z</time>
      </trkpt>
      <trkpt lat="42.491562" lon="1.568562">
        <ele>2105.000000</ele>
        <time>2020-08-22T11:24:06Z</time>
      </trkpt>
      <trkpt lat="42.491562" lon="1.568562">
        <ele>2105.000000</ele>
        <time>2020-08-22T11:24:06Z</time>
      </trkpt>
      <trkpt lat="42.491550" lon="1.568569">
        <ele>2105.000000</ele>
        <time>2020-08-22T11:24:06Z</time>
      </trkpt>
      <trkpt lat="42.491550" lon="1.568569">
        <ele>2104.000000</ele>
        <time>2020-08-22T11:24:06Z</time>
      </trkpt>
      <trkpt lat="42.491543" lon="1.568578">
        <ele>2104.000000</ele>
        <time>2020-08-22T11:24:06Z</time>
      </trkpt>
      <trkpt lat="42.491543" lon="1.568578">
        <ele>2104.000000</ele>
        <time>2020-08-22T11:24:06Z</time>
      </trkpt>
      <trkpt lat="42.491535" lon="1.568590">
        <ele>2104.000000</ele>
        <time>2020-08-22T11:24:06Z</time>
      </trkpt>
      <trkpt lat="42.491535" lon="1.568590">
        <ele>2103.000000</ele>
        <time>2020-08-22T11:24:06Z</time>
      </trkpt>
      <trkpt lat="42.491535" lon="1.568603">
        <ele>2103.000000</ele>
        <time>2020-08-22T11:24:15Z</time>
      </trkpt>
      <trkpt lat="42.491535" lon="1.568603">
        <ele>2103.000000</ele>
        <time>2020-08-22T11:24:15Z</time>
      </trkpt>
      <trkpt lat="42.491524" lon="1.568616">
        <ele>2103.000000</ele>
        <time>2020-08-22T11:24:15Z</time>
      </trkpt>
      <trkpt lat="42.491524" lon="1.568616">
        <ele>2103.000000</ele>
        <time>2020-08-22T11:24:15Z</time>
      </trkpt>
      <trkpt lat="42.491520" lon="1.568631">
        <ele>2103.000000</ele>
        <time>2020-08-22T11:24:15Z</time>
      </trkpt>
      <trkpt lat="42.491520" lon="1.568631">
        <ele>2102.000000</ele>
        <time>2020-08-22T11:24:15Z</time>
      </trkpt>
      <trkpt lat="42.491539" lon="1.568648">
        <ele>2102.000000</ele>
        <time>2020-08-22T11:24:15Z</time>
      </trkpt>
      <trkpt lat="42.491539" lon="1.568648">
        <ele>2102.000000</ele>
        <time>2020-08-22T11:24:15Z</time>
      </trkpt>
      <trkpt lat="42.491550" lon="1.568663">
        <ele>2102.000000</ele>
        <time>2020-08-22T11:24:15Z</time>
      </trkpt>
      <trkpt lat="42.491550" lon="1.568663">
        <ele>2102.000000</ele>
        <time>2020-08-22T11:24:15Z</time>
      </trkpt>
      <trkpt lat="42.491554" lon="1.568674">
        <ele>2102.000000</ele>
        <time>2020-08-22T11:24:15Z</time>
      </trkpt>
      <trkpt lat="42.491554" lon="1.568674">
        <ele>2102.000000</ele>
        <time>2020-08-22T11:24:15Z</time>
      </trkpt>
      <trkpt lat="42.491562" lon="1.568684">
        <ele>2102.000000</ele>
        <time>2020-08-22T11:24:29Z</time>
      </trkpt>
      <trkpt lat="42.491562" lon="1.568684">
        <ele>2101.000000</ele>
        <time>2020-08-22T11:24:29Z</time>
      </trkpt>
      <trkpt lat="42.491566" lon="1.568690">
        <ele>2101.000000</ele>
        <time>2020-08-22T11:24:29Z</time>
      </trkpt>
      <trkpt lat="42.491566" lon="1.568690">
        <ele>2101.000000</ele>
        <time>2020-08-22T11:24:29Z</time>
      </trkpt>
      <trkpt lat="42.491570" lon="1.568694">
        <ele>2101.000000</ele>
        <time>2020-08-22T11:24:29Z</time>
      </trkpt>
      <trkpt lat="42.491570" lon="1.568694">
        <ele>2101.000000</ele>
        <time>2020-08-22T11:24:29Z</time>
      </trkpt>
      <trkpt lat="42.491562" lon="1.568694">
        <ele>2101.000000</ele>
        <time>2020-08-22T11:24:29Z</time>
      </trkpt>
      <trkpt lat="42.491562" lon="1.568694">
        <ele>2101.000000</ele>
        <time>2020-08-22T11:24:29Z</time>
      </trkpt>
      <trkpt lat="42.491543" lon="1.568691">
        <ele>2101.000000</ele>
        <time>2020-08-22T11:24:29Z</time>
      </trkpt>
      <trkpt lat="42.491543" lon="1.568691">
        <ele>2101.000000</ele>
        <time>2020-08-22T11:24:29Z</time>
      </trkpt>
      <trkpt lat="42.491520" lon="1.568681">
        <ele>2100.000000</ele>
        <time>2020-08-22T11:24:29Z</time>
      </trkpt>
      <trkpt lat="42.491520" lon="1.568681">
        <ele>2100.000000</ele>
        <time>2020-08-22T11:24:29Z</time>
      </trkpt>
      <trkpt lat="42.491493" lon="1.568670">
        <ele>2100.000000</ele>
        <time>2020-08-22T11:24:29Z</time>
      </trkpt>
      <trkpt lat="42.491493" lon="1.568670">
        <ele>2098.000000</ele>
        <time>2020-08-22T11:24:29Z</time>
      </trkpt>
      <trkpt lat="42.491436" lon="1.568628">
        <ele>2098.000000</ele>
        <time>2020-08-22T11:24:29Z</time>
      </trkpt>
      <trkpt lat="42.491436" lon="1.568628">
        <ele>2098.000000</ele>
        <time>2020-08-22T11:24:29Z</time>
      </trkpt>
      <trkpt lat="42.491375" lon="1.568587">
        <ele>2096.000000</ele>
        <time>2020-08-22T11:24:29Z</time>
      </trkpt>
      <trkpt lat="42.491375" lon="1.568587">
        <ele>2096.000000</ele>
        <time>2020-08-22T11:24:29Z</time>
      </trkpt>
      <trkpt lat="42.491322" lon="1.568547">
        <ele>2096.000000</ele>
        <time>2020-08-22T11:24:29Z</time>
      </trkpt>
      <trkpt lat="42.491322" lon="1.568547">
        <ele>2096.000000</ele>
        <time>2020-08-22T11:24:29Z</time>
      </trkpt>
      <trkpt lat="42.491261" lon="1.568506">
        <ele>2096.000000</ele>
        <time>2020-08-22T11:24:37Z</time>
      </trkpt>
      <trkpt lat="42.491261" lon="1.568506">
        <ele>2096.000000</ele>
        <time>2020-08-22T11:24:37Z</time>
      </trkpt>
      <trkpt lat="42.491196" lon="1.568464">
        <ele>2096.000000</ele>
        <time>2020-08-22T11:24:37Z</time>
      </trkpt>
      <trkpt lat="42.491196" lon="1.568464">
        <ele>2096.000000</ele>
        <time>2020-08-22T11:24:37Z</time>
      </trkpt>
      <trkpt lat="42.491135" lon="1.568423">
        <ele>2096.000000</ele>
        <time>2020-08-22T11:24:37Z</time>
      </trkpt>
      <trkpt lat="42.491135" lon="1.568423">
        <ele>2096.000000</ele>
        <time>2020-08-22T11:24:37Z</time>
      </trkpt>
      <trkpt lat="42.491055" lon="1.568376">
        <ele>2096.000000</ele>
        <time>2020-08-22T11:24:37Z</time>
      </trkpt>
      <trkpt lat="42.491055" lon="1.568376">
        <ele>2096.000000</ele>
        <time>2020-08-22T11:24:37Z</time>
      </trkpt>
      <trkpt lat="42.490986" lon="1.568331">
        <ele>2095.000000</ele>
        <time>2020-08-22T11:24:37Z</time>
      </trkpt>
      <trkpt lat="42.490986" lon="1.568331">
        <ele>2095.000000</ele>
        <time>2020-08-22T11:24:37Z</time>
      </trkpt>
      <trkpt lat="42.490921" lon="1.568291">
        <ele>2095.000000</ele>
        <time>2020-08-22T11:24:37Z</time>
      </trkpt>
      <trkpt lat="42.490921" lon="1.568291">
        <ele>2095.000000</ele>
        <time>2020-08-22T11:24:37Z</time>
      </trkpt>
      <trkpt lat="42.490856" lon="1.568251">
        <ele>2095.000000</ele>
        <time>2020-08-22T11:24:37Z</time>
      </trkpt>
      <trkpt lat="42.490856" lon="1.568251">
        <ele>2095.000000</ele>
        <time>2020-08-22T11:24:37Z</time>
      </trkpt>
      <trkpt lat="42.490826" lon="1.568234">
        <ele>2095.000000</ele>
        <time>2020-08-22T11:24:37Z</time>
      </trkpt>
      <trkpt lat="42.490826" lon="1.568234">
        <ele>2095.000000</ele>
        <time>2020-08-22T11:24:37Z</time>
      </trkpt>
      <trkpt lat="42.490791" lon="1.568219">
        <ele>2095.000000</ele>
        <time>2020-08-22T11:24:37Z</time>
      </trkpt>
      <trkpt lat="42.490791" lon="1.568219">
        <ele>2095.000000</ele>
        <time>2020-08-22T11:24:37Z</time>
      </trkpt>
      <trkpt lat="42.490761" lon="1.568205">
        <ele>2095.000000</ele>
        <time>2020-08-22T11:24:37Z</time>
      </trkpt>
      <trkpt lat="42.490761" lon="1.568205">
        <ele>2095.000000</ele>
        <time>2020-08-22T11:24:37Z</time>
      </trkpt>
      <trkpt lat="42.490730" lon="1.568192">
        <ele>2094.000000</ele>
        <time>2020-08-22T11:24:37Z</time>
      </trkpt>
      <trkpt lat="42.490730" lon="1.568192">
        <ele>2094.000000</ele>
        <time>2020-08-22T11:24:37Z</time>
      </trkpt>
      <trkpt lat="42.490700" lon="1.568181">
        <ele>2094.000000</ele>
        <time>2020-08-22T11:24:44Z</time>
      </trkpt>
      <trkpt lat="42.490700" lon="1.568181">
        <ele>2094.000000</ele>
        <time>2020-08-22T11:24:44Z</time>
      </trkpt>
      <trkpt lat="42.490669" lon="1.568172">
        <ele>2094.000000</ele>
        <time>2020-08-22T11:24:44Z</time>
      </trkpt>
      <trkpt lat="42.490669" lon="1.568172">
        <ele>2094.000000</ele>
        <time>2020-08-22T11:24:44Z</time>
      </trkpt>
      <trkpt lat="42.490654" lon="1.568170">
        <ele>2094.000000</ele>
        <time>2020-08-22T11:24:44Z</time>
      </trkpt>
      <trkpt lat="42.490654" lon="1.568170">
        <ele>2094.000000</ele>
        <time>2020-08-22T11:24:44Z</time>
      </trkpt>
      <trkpt lat="42.490635" lon="1.568169">
        <ele>2094.000000</ele>
        <time>2020-08-22T11:24:44Z</time>
      </trkpt>
      <trkpt lat="42.490635" lon="1.568169">
        <ele>2094.000000</ele>
        <time>2020-08-22T11:24:44Z</time>
      </trkpt>
      <trkpt lat="42.490616" lon="1.568169">
        <ele>2094.000000</ele>
        <time>2020-08-22T11:24:44Z</time>
      </trkpt>
      <trkpt lat="42.490616" lon="1.568169">
        <ele>2094.000000</ele>
        <time>2020-08-22T11:24:44Z</time>
      </trkpt>
      <trkpt lat="42.490593" lon="1.568170">
        <ele>2094.000000</ele>
        <time>2020-08-22T11:24:44Z</time>
      </trkpt>
      <trkpt lat="42.490593" lon="1.568170">
        <ele>2094.000000</ele>
        <time>2020-08-22T11:24:44Z</time>
      </trkpt>
      <trkpt lat="42.490566" lon="1.568180">
        <ele>2094.000000</ele>
        <time>2020-08-22T11:24:44Z</time>
      </trkpt>
      <trkpt lat="42.490566" lon="1.568180">
        <ele>2094.000000</ele>
        <time>2020-08-22T11:24:44Z</time>
      </trkpt>
      <trkpt lat="42.490540" lon="1.568189">
        <ele>2094.000000</ele>
        <time>2020-08-22T11:24:44Z</time>
      </trkpt>
      <trkpt lat="42.490540" lon="1.568189">
        <ele>2094.000000</ele>
        <time>2020-08-22T11:24:44Z</time>
      </trkpt>
      <trkpt lat="42.490520" lon="1.568198">
        <ele>2094.000000</ele>
        <time>2020-08-22T11:24:44Z</time>
      </trkpt>
      <trkpt lat="42.490520" lon="1.568198">
        <ele>2094.000000</ele>
        <time>2020-08-22T11:24:44Z</time>
      </trkpt>
      <trkpt lat="42.490505" lon="1.568206">
        <ele>2093.000000</ele>
        <time>2020-08-22T11:24:44Z</time>
      </trkpt>
      <trkpt lat="42.490505" lon="1.568206">
        <ele>2093.000000</ele>
        <time>2020-08-22T11:24:44Z</time>
      </trkpt>
      <trkpt lat="42.490501" lon="1.568214">
        <ele>2093.000000</ele>
        <time>2020-08-22T11:24:44Z</time>
      </trkpt>
      <trkpt lat="42.490501" lon="1.568214">
        <ele>2093.000000</ele>
        <time>2020-08-22T11:24:44Z</time>
      </trkpt>
      <trkpt lat="42.490501" lon="1.568222">
        <ele>2093.000000</ele>
        <time>2020-08-22T11:24:51Z</time>
      </trkpt>
      <trkpt lat="42.490501" lon="1.568222">
        <ele>2093.000000</ele>
        <time>2020-08-22T11:24:51Z</time>
      </trkpt>
      <trkpt lat="42.490509" lon="1.568232">
        <ele>2093.000000</ele>
        <time>2020-08-22T11:24:51Z</time>
      </trkpt>
      <trkpt lat="42.490509" lon="1.568232">
        <ele>2093.000000</ele>
        <time>2020-08-22T11:24:51Z</time>
      </trkpt>
      <trkpt lat="42.490524" lon="1.568241">
        <ele>2093.000000</ele>
        <time>2020-08-22T11:24:51Z</time>
      </trkpt>
      <trkpt lat="42.490524" lon="1.568241">
        <ele>2093.000000</ele>
        <time>2020-08-22T11:24:51Z</time>
      </trkpt>
      <trkpt lat="42.490543" lon="1.568252">
        <ele>2093.000000</ele>
        <time>2020-08-22T11:24:51Z</time>
      </trkpt>
      <trkpt lat="42.490543" lon="1.568252">
        <ele>2093.000000</ele>
        <time>2020-08-22T11:24:51Z</time>
      </trkpt>
      <trkpt lat="42.490566" lon="1.568262">
        <ele>2093.000000</ele>
        <time>2020-08-22T11:24:51Z</time>
      </trkpt>
      <trkpt lat="42.490566" lon="1.568262">
        <ele>2093.000000</ele>
        <time>2020-08-22T11:24:51Z</time>
      </trkpt>
      <trkpt lat="42.490604" lon="1.568267">
        <ele>2093.000000</ele>
        <time>2020-08-22T11:24:51Z</time>
      </trkpt>
      <trkpt lat="42.490604" lon="1.568267">
        <ele>2093.000000</ele>
        <time>2020-08-22T11:24:51Z</time>
      </trkpt>
      <trkpt lat="42.490639" lon="1.568272">
        <ele>2093.000000</ele>
        <time>2020-08-22T11:24:51Z</time>
      </trkpt>
      <trkpt lat="42.490639" lon="1.568272">
        <ele>2093.000000</ele>
        <time>2020-08-22T11:24:51Z</time>
      </trkpt>
      <trkpt lat="42.490681" lon="1.568277">
        <ele>2093.000000</ele>
        <time>2020-08-22T11:24:58Z</time>
      </trkpt>
      <trkpt lat="42.490681" lon="1.568277">
        <ele>2093.000000</ele>
        <time>2020-08-22T11:24:58Z</time>
      </trkpt>
      <trkpt lat="42.490719" lon="1.568283">
        <ele>2093.000000</ele>
        <time>2020-08-22T11:24:58Z</time>
      </trkpt>
      <trkpt lat="42.490719" lon="1.568283">
        <ele>2092.000000</ele>
        <time>2020-08-22T11:24:58Z</time>
      </trkpt>
      <trkpt lat="42.490761" lon="1.568288">
        <ele>2092.000000</ele>
        <time>2020-08-22T11:24:58Z</time>
      </trkpt>
      <trkpt lat="42.490761" lon="1.568288">
        <ele>2092.000000</ele>
        <time>2020-08-22T11:24:58Z</time>
      </trkpt>
      <trkpt lat="42.490803" lon="1.568292">
        <ele>2092.000000</ele>
        <time>2020-08-22T11:24:58Z</time>
      </trkpt>
      <trkpt lat="42.490803" lon="1.568292">
        <ele>2092.000000</ele>
        <time>2020-08-22T11:24:58Z</time>
      </trkpt>
      <trkpt lat="42.490849" lon="1.568295">
        <ele>2092.000000</ele>
        <time>2020-08-22T11:24:58Z</time>
      </trkpt>
      <trkpt lat="42.490849" lon="1.568295">
        <ele>2092.000000</ele>
        <time>2020-08-22T11:24:58Z</time>
      </trkpt>
      <trkpt lat="42.490890" lon="1.568296">
        <ele>2091.000000</ele>
        <time>2020-08-22T11:24:58Z</time>
      </trkpt>
      <trkpt lat="42.490890" lon="1.568296">
        <ele>2091.000000</ele>
        <time>2020-08-22T11:24:58Z</time>
      </trkpt>
      <trkpt lat="42.490936" lon="1.568297">
        <ele>2091.000000</ele>
        <time>2020-08-22T11:24:58Z</time>
      </trkpt>
      <trkpt lat="42.490936" lon="1.568297">
        <ele>2091.000000</ele>
        <time>2020-08-22T11:24:58Z</time>
      </trkpt>
      <trkpt lat="42.490978" lon="1.568299">
        <ele>2091.000000</ele>
        <time>2020-08-22T11:25:08Z</time>
      </trkpt>
      <trkpt lat="42.490978" lon="1.568299">
        <ele>2091.000000</ele>
        <time>2020-08-22T11:25:08Z</time>
      </trkpt>
      <trkpt lat="42.491028" lon="1.568307">
        <ele>2091.000000</ele>
        <time>2020-08-22T11:25:08Z</time>
      </trkpt>
      <trkpt lat="42.491028" lon="1.568307">
        <ele>2091.000000</ele>
        <time>2020-08-22T11:25:08Z</time>
      </trkpt>
      <trkpt lat="42.491070" lon="1.568316">
        <ele>2091.000000</ele>
        <time>2020-08-22T11:25:08Z</time>
      </trkpt>
      <trkpt lat="42.491070" lon="1.568316">
        <ele>2091.000000</ele>
        <time>2020-08-22T11:25:08Z</time>
      </trkpt>
      <trkpt lat="42.491108" lon="1.568327">
        <ele>2091.000000</ele>
        <time>2020-08-22T11:25:08Z</time>
      </trkpt>
      <trkpt lat="42.491108" lon="1.568327">
        <ele>2090.000000</ele>
        <time>2020-08-22T11:25:08Z</time>
      </trkpt>
      <trkpt lat="42.491142" lon="1.568340">
        <ele>2090.000000</ele>
        <time>2020-08-22T11:25:15Z</time>
      </trkpt>
      <trkpt lat="42.491142" lon="1.568340">
        <ele>2090.000000</ele>
        <time>2020-08-22T11:25:15Z</time>
      </trkpt>
      <trkpt lat="42.491173" lon="1.568355">
        <ele>2090.000000</ele>
        <time>2020-08-22T11:25:15Z</time>
      </trkpt>
      <trkpt lat="42.491173" lon="1.568355">
        <ele>2090.000000</ele>
        <time>2020-08-22T11:25:15Z</time>
      </trkpt>
      <trkpt lat="42.491192" lon="1.568372">
        <ele>2089.000000</ele>
        <time>2020-08-22T11:25:15Z</time>
      </trkpt>
      <trkpt lat="42.491192" lon="1.568372">
        <ele>2089.000000</ele>
        <time>2020-08-22T11:25:15Z</time>
      </trkpt>
      <trkpt lat="42.491207" lon="1.568388">
        <ele>2089.000000</ele>
        <time>2020-08-22T11:25:15Z</time>
      </trkpt>
      <trkpt lat="42.491207" lon="1.568388">
        <ele>2089.000000</ele>
        <time>2020-08-22T11:25:15Z</time>
      </trkpt>
      <trkpt lat="42.491215" lon="1.568404">
        <ele>2089.000000</ele>
        <time>2020-08-22T11:25:15Z</time>
      </trkpt>
      <trkpt lat="42.491215" lon="1.568404">
        <ele>2088.000000</ele>
        <time>2020-08-22T11:25:15Z</time>
      </trkpt>
      <trkpt lat="42.491215" lon="1.568419">
        <ele>2088.000000</ele>
        <time>2020-08-22T11:25:15Z</time>
      </trkpt>
      <trkpt lat="42.491215" lon="1.568419">
        <ele>2087.000000</ele>
        <time>2020-08-22T11:25:15Z</time>
      </trkpt>
      <trkpt lat="42.491211" lon="1.568433">
        <ele>2087.000000</ele>
        <time>2020-08-22T11:25:15Z</time>
      </trkpt>
      <trkpt lat="42.491211" lon="1.568433">
        <ele>2087.000000</ele>
        <time>2020-08-22T11:25:15Z</time>
      </trkpt>
      <trkpt lat="42.491203" lon="1.568442">
        <ele>2087.000000</ele>
        <time>2020-08-22T11:25:15Z</time>
      </trkpt>
      <trkpt lat="42.491203" lon="1.568442">
        <ele>2087.000000</ele>
        <time>2020-08-22T11:25:15Z</time>
      </trkpt>
      <trkpt lat="42.491196" lon="1.568450">
        <ele>2087.000000</ele>
        <time>2020-08-22T11:25:15Z</time>
      </trkpt>
      <trkpt lat="42.491196" lon="1.568450">
        <ele>2087.000000</ele>
        <time>2020-08-22T11:25:15Z</time>
      </trkpt>
      <trkpt lat="42.491188" lon="1.568457">
        <ele>2087.000000</ele>
        <time>2020-08-22T11:25:15Z</time>
      </trkpt>
      <trkpt lat="42.491188" lon="1.568457">
        <ele>2087.000000</ele>
        <time>2020-08-22T11:25:15Z</time>
      </trkpt>
      <trkpt lat="42.491188" lon="1.568464">
        <ele>2087.000000</ele>
        <time>2020-08-22T11:25:15Z</time>
      </trkpt>
      <trkpt lat="42.491188" lon="1.568464">
        <ele>2087.000000</ele>
        <time>2020-08-22T11:25:15Z</time>
      </trkpt>
      <trkpt lat="42.491184" lon="1.568472">
        <ele>2087.000000</ele>
        <time>2020-08-22T11:25:22Z</time>
      </trkpt>
      <trkpt lat="42.491184" lon="1.568472">
        <ele>2087.000000</ele>
        <time>2020-08-22T11:25:22Z</time>
      </trkpt>
      <trkpt lat="42.491188" lon="1.568480">
        <ele>2087.000000</ele>
        <time>2020-08-22T11:25:22Z</time>
      </trkpt>
      <trkpt lat="42.491188" lon="1.568480">
        <ele>2087.000000</ele>
        <time>2020-08-22T11:25:22Z</time>
      </trkpt>
      <trkpt lat="42.491192" lon="1.568492">
        <ele>2087.000000</ele>
        <time>2020-08-22T11:25:22Z</time>
      </trkpt>
      <trkpt lat="42.491192" lon="1.568492">
        <ele>2087.000000</ele>
        <time>2020-08-22T11:25:22Z</time>
      </trkpt>
      <trkpt lat="42.491199" lon="1.568508">
        <ele>2087.000000</ele>
        <time>2020-08-22T11:25:22Z</time>
      </trkpt>
      <trkpt lat="42.491199" lon="1.568508">
        <ele>2087.000000</ele>
        <time>2020-08-22T11:25:22Z</time>
      </trkpt>
      <trkpt lat="42.491211" lon="1.568529">
        <ele>2087.000000</ele>
        <time>2020-08-22T11:25:22Z</time>
      </trkpt>
      <trkpt lat="42.491211" lon="1.568529">
        <ele>2087.000000</ele>
        <time>2020-08-22T11:25:22Z</time>
      </trkpt>
      <trkpt lat="42.491226" lon="1.568553">
        <ele>2087.000000</ele>
        <time>2020-08-22T11:25:22Z</time>
      </trkpt>
      <trkpt lat="42.491226" lon="1.568553">
        <ele>2087.000000</ele>
        <time>2020-08-22T11:25:22Z</time>
      </trkpt>
      <trkpt lat="42.491241" lon="1.568572">
        <ele>2087.000000</ele>
        <time>2020-08-22T11:25:22Z</time>
      </trkpt>
      <trkpt lat="42.491241" lon="1.568572">
        <ele>2087.000000</ele>
        <time>2020-08-22T11:25:22Z</time>
      </trkpt>
      <trkpt lat="42.491257" lon="1.568590">
        <ele>2087.000000</ele>
        <time>2020-08-22T11:25:22Z</time>
      </trkpt>
      <trkpt lat="42.491257" lon="1.568590">
        <ele>2087.000000</ele>
        <time>2020-08-22T11:25:22Z</time>
      </trkpt>
      <trkpt lat="42.491268" lon="1.568607">
        <ele>2087.000000</ele>
        <time>2020-08-22T11:25:29Z</time>
      </trkpt>
      <trkpt lat="42.491268" lon="1.568607">
        <ele>2087.000000</ele>
        <time>2020-08-22T11:25:29Z</time>
      </trkpt>
      <trkpt lat="42.491276" lon="1.568621">
        <ele>2087.000000</ele>
        <time>2020-08-22T11:25:29Z</time>
      </trkpt>
      <trkpt lat="42.491276" lon="1.568621">
        <ele>2087.000000</ele>
        <time>2020-08-22T11:25:29Z</time>
      </trkpt>
      <trkpt lat="42.491280" lon="1.568632">
        <ele>2087.000000</ele>
        <time>2020-08-22T11:25:29Z</time>
      </trkpt>
      <trkpt lat="42.491280" lon="1.568632">
        <ele>2087.000000</ele>
        <time>2020-08-22T11:25:29Z</time>
      </trkpt>
      <trkpt lat="42.491283" lon="1.568640">
        <ele>2087.000000</ele>
        <time>2020-08-22T11:25:29Z</time>
      </trkpt>
      <trkpt lat="42.491283" lon="1.568640">
        <ele>2087.000000</ele>
        <time>2020-08-22T11:25:29Z</time>
      </trkpt>
      <trkpt lat="42.491283" lon="1.568642">
        <ele>2087.000000</ele>
        <time>2020-08-22T11:25:29Z</time>
      </trkpt>
      <trkpt lat="42.491283" lon="1.568642">
        <ele>2087.000000</ele>
        <time>2020-08-22T11:25:29Z</time>
      </trkpt>
      <trkpt lat="42.491283" lon="1.568641">
        <ele>2087.000000</ele>
        <time>2020-08-22T11:25:29Z</time>
      </trkpt>
      <trkpt lat="42.491283" lon="1.568641">
        <ele>2087.000000</ele>
        <time>2020-08-22T11:25:29Z</time>
      </trkpt>
      <trkpt lat="42.491280" lon="1.568634">
        <ele>2088.000000</ele>
        <time>2020-08-22T11:25:29Z</time>
      </trkpt>
      <trkpt lat="42.491280" lon="1.568634">
        <ele>2088.000000</ele>
        <time>2020-08-22T11:25:29Z</time>
      </trkpt>
      <trkpt lat="42.491276" lon="1.568622">
        <ele>2088.000000</ele>
        <time>2020-08-22T11:25:38Z</time>
      </trkpt>
      <trkpt lat="42.491276" lon="1.568622">
        <ele>2088.000000</ele>
        <time>2020-08-22T11:25:38Z</time>
      </trkpt>
      <trkpt lat="42.491261" lon="1.568612">
        <ele>2088.000000</ele>
        <time>2020-08-22T11:25:38Z</time>
      </trkpt>
      <trkpt lat="42.491261" lon="1.568612">
        <ele>2088.000000</ele>
        <time>2020-08-22T11:25:38Z</time>
      </trkpt>
      <trkpt lat="42.491245" lon="1.568602">
        <ele>2088.000000</ele>
        <time>2020-08-22T11:25:38Z</time>
      </trkpt>
      <trkpt lat="42.491245" lon="1.568602">
        <ele>2088.000000</ele>
        <time>2020-08-22T11:25:38Z</time>
      </trkpt>
      <trkpt lat="42.491234" lon="1.568592">
        <ele>2088.000000</ele>
        <time>2020-08-22T11:25:38Z</time>
      </trkpt>
      <trkpt lat="42.491234" lon="1.568592">
        <ele>2088.000000</ele>
        <time>2020-08-22T11:25:38Z</time>
      </trkpt>
      <trkpt lat="42.491219" lon="1.568582">
        <ele>2088.000000</ele>
        <time>2020-08-22T11:25:38Z</time>
      </trkpt>
      <trkpt lat="42.491219" lon="1.568582">
        <ele>2088.000000</ele>
        <time>2020-08-22T11:25:38Z</time>
      </trkpt>
      <trkpt lat="42.491207" lon="1.568572">
        <ele>2088.000000</ele>
        <time>2020-08-22T11:25:45Z</time>
      </trkpt>
      <trkpt lat="42.491207" lon="1.568572">
        <ele>2088.000000</ele>
        <time>2020-08-22T11:25:45Z</time>
      </trkpt>
      <trkpt lat="42.491196" lon="1.568563">
        <ele>2088.000000</ele>
        <time>2020-08-22T11:25:45Z</time>
      </trkpt>
      <trkpt lat="42.491196" lon="1.568563">
        <ele>2088.000000</ele>
        <time>2020-08-22T11:25:45Z</time>
      </trkpt>
      <trkpt lat="42.491180" lon="1.568554">
        <ele>2088.000000</ele>
        <time>2020-08-22T11:25:45Z</time>
      </trkpt>
      <trkpt lat="42.491180" lon="1.568554">
        <ele>2088.000000</ele>
        <time>2020-08-22T11:25:45Z</time>
      </trkpt>
      <trkpt lat="42.491165" lon="1.568543">
        <ele>2088.000000</ele>
        <time>2020-08-22T11:25:45Z</time>
      </trkpt>
      <trkpt lat="42.491165" lon="1.568543">
        <ele>2088.000000</ele>
        <time>2020-08-22T11:25:45Z</time>
      </trkpt>
      <trkpt lat="42.491154" lon="1.568533">
        <ele>2089.000000</ele>
        <time>2020-08-22T11:25:45Z</time>
      </trkpt>
      <trkpt lat="42.491154" lon="1.568533">
        <ele>2089.000000</ele>
        <time>2020-08-22T11:25:45Z</time>
      </trkpt>
      <trkpt lat="42.491135" lon="1.568520">
        <ele>2089.000000</ele>
        <time>2020-08-22T11:25:45Z</time>
      </trkpt>
      <trkpt lat="42.491135" lon="1.568520">
        <ele>2089.000000</ele>
        <time>2020-08-22T11:25:45Z</time>
      </trkpt>
      <trkpt lat="42.491127" lon="1.568509">
        <ele>2089.000000</ele>
        <time>2020-08-22T11:25:45Z</time>
      </trkpt>
      <trkpt lat="42.491127" lon="1.568509">
        <ele>2089.000000</ele>
        <time>2020-08-22T11:25:45Z</time>
      </trkpt>
      <trkpt lat="42.491116" lon="1.568497">
        <ele>2089.000000</ele>
        <time>2020-08-22T11:25:52Z</time>
      </trkpt>
      <trkpt lat="42.491116" lon="1.568497">
        <ele>2089.000000</ele>
        <time>2020-08-22T11:25:52Z</time>
      </trkpt>
      <trkpt lat="42.491100" lon="1.568486">
        <ele>2089.000000</ele>
        <time>2020-08-22T11:25:52Z</time>
      </trkpt>
      <trkpt lat="42.491100" lon="1.568486">
        <ele>2089.000000</ele>
        <time>2020-08-22T11:25:52Z</time>
      </trkpt>
      <trkpt lat="42.491089" lon="1.568474">
        <ele>2089.000000</ele>
        <time>2020-08-22T11:25:52Z</time>
      </trkpt>
      <trkpt lat="42.491089" lon="1.568474">
        <ele>2089.000000</ele>
        <time>2020-08-22T11:25:52Z</time>
      </trkpt>
      <trkpt lat="42.491074" lon="1.568463">
        <ele>2089.000000</ele>
        <time>2020-08-22T11:25:52Z</time>
      </trkpt>
      <trkpt lat="42.491074" lon="1.568463">
        <ele>2089.000000</ele>
        <time>2020-08-22T11:25:52Z</time>
      </trkpt>
      <trkpt lat="42.491062" lon="1.568454">
        <ele>2089.000000</ele>
        <time>2020-08-22T11:25:52Z</time>
      </trkpt>
      <trkpt lat="42.491062" lon="1.568454">
        <ele>2089.000000</ele>
        <time>2020-08-22T11:25:52Z</time>
      </trkpt>
      <trkpt lat="42.491047" lon="1.568446">
        <ele>2089.000000</ele>
        <time>2020-08-22T11:25:52Z</time>
      </trkpt>
      <trkpt lat="42.491047" lon="1.568446">
        <ele>2089.000000</ele>
        <time>2020-08-22T11:25:52Z</time>
      </trkpt>
      <trkpt lat="42.491035" lon="1.568439">
        <ele>2089.000000</ele>
        <time>2020-08-22T11:25:52Z</time>
      </trkpt>
      <trkpt lat="42.491035" lon="1.568439">
        <ele>2089.000000</ele>
        <time>2020-08-22T11:25:52Z</time>
      </trkpt>
      <trkpt lat="42.491028" lon="1.568435">
        <ele>2089.000000</ele>
        <time>2020-08-22T11:25:59Z</time>
      </trkpt>
      <trkpt lat="42.491028" lon="1.568435">
        <ele>2089.000000</ele>
        <time>2020-08-22T11:25:59Z</time>
      </trkpt>
      <trkpt lat="42.491020" lon="1.568431">
        <ele>2089.000000</ele>
        <time>2020-08-22T11:25:59Z</time>
      </trkpt>
      <trkpt lat="42.491020" lon="1.568431">
        <ele>2089.000000</ele>
        <time>2020-08-22T11:25:59Z</time>
      </trkpt>
      <trkpt lat="42.491001" lon="1.568444">
        <ele>2089.000000</ele>
        <time>2020-08-22T11:25:59Z</time>
      </trkpt>
      <trkpt lat="42.491001" lon="1.568444">
        <ele>2089.000000</ele>
        <time>2020-08-22T11:25:59Z</time>
      </trkpt>
      <trkpt lat="42.490986" lon="1.568458">
        <ele>2089.000000</ele>
        <time>2020-08-22T11:26:06Z</time>
      </trkpt>
      <trkpt lat="42.490986" lon="1.568458">
        <ele>2089.000000</ele>
        <time>2020-08-22T11:26:06Z</time>
      </trkpt>
      <trkpt lat="42.490971" lon="1.568470">
        <ele>2089.000000</ele>
        <time>2020-08-22T11:26:06Z</time>
      </trkpt>
      <trkpt lat="42.490971" lon="1.568470">
        <ele>2089.000000</ele>
        <time>2020-08-22T11:26:06Z</time>
      </trkpt>
      <trkpt lat="42.490955" lon="1.568481">
        <ele>2089.000000</ele>
        <time>2020-08-22T11:26:06Z</time>
      </trkpt>
      <trkpt lat="42.490955" lon="1.568481">
        <ele>2089.000000</ele>
        <time>2020-08-22T11:26:06Z</time>
      </trkpt>
      <trkpt lat="42.490940" lon="1.568490">
        <ele>2089.000000</ele>
        <time>2020-08-22T11:26:06Z</time>
      </trkpt>
      <trkpt lat="42.490940" lon="1.568490">
        <ele>2089.000000</ele>
        <time>2020-08-22T11:26:06Z</time>
      </trkpt>
      <trkpt lat="42.490921" lon="1.568496">
        <ele>2089.000000</ele>
        <time>2020-08-22T11:26:06Z</time>
      </trkpt>
      <trkpt lat="42.490921" lon="1.568496">
        <ele>2089.000000</ele>
        <time>2020-08-22T11:26:06Z</time>
      </trkpt>
      <trkpt lat="42.490906" lon="1.568497">
        <ele>2089.000000</ele>
        <time>2020-08-22T11:26:06Z</time>
      </trkpt>
      <trkpt lat="42.490906" lon="1.568497">
        <ele>2089.000000</ele>
        <time>2020-08-22T11:26:06Z</time>
      </trkpt>
      <trkpt lat="42.490883" lon="1.568496">
        <ele>2089.000000</ele>
        <time>2020-08-22T11:26:06Z</time>
      </trkpt>
      <trkpt lat="42.490883" lon="1.568496">
        <ele>2089.000000</ele>
        <time>2020-08-22T11:26:06Z</time>
      </trkpt>
      <trkpt lat="42.490860" lon="1.568492">
        <ele>2089.000000</ele>
        <time>2020-08-22T11:26:14Z</time>
      </trkpt>
      <trkpt lat="42.490860" lon="1.568492">
        <ele>2089.000000</ele>
        <time>2020-08-22T11:26:14Z</time>
      </trkpt>
      <trkpt lat="42.490841" lon="1.568487">
        <ele>2089.000000</ele>
        <time>2020-08-22T11:26:14Z</time>
      </trkpt>
      <trkpt lat="42.490841" lon="1.568487">
        <ele>2089.000000</ele>
        <time>2020-08-22T11:26:14Z</time>
      </trkpt>
      <trkpt lat="42.490833" lon="1.568474">
        <ele>2089.000000</ele>
        <time>2020-08-22T11:26:14Z</time>
      </trkpt>
      <trkpt lat="42.490833" lon="1.568474">
        <ele>2089.000000</ele>
        <time>2020-08-22T11:26:14Z</time>
      </trkpt>
      <trkpt lat="42.490826" lon="1.568461">
        <ele>2089.000000</ele>
        <time>2020-08-22T11:26:14Z</time>
      </trkpt>
      <trkpt lat="42.490826" lon="1.568461">
        <ele>2089.000000</ele>
        <time>2020-08-22T11:26:14Z</time>
      </trkpt>
      <trkpt lat="42.490814" lon="1.568448">
        <ele>2089.000000</ele>
        <time>2020-08-22T11:26:21Z</time>
      </trkpt>
      <trkpt lat="42.490814" lon="1.568448">
        <ele>2089.000000</ele>
        <time>2020-08-22T11:26:21Z</time>
      </trkpt>
      <trkpt lat="42.490810" lon="1.568435">
        <ele>2089.000000</ele>
        <time>2020-08-22T11:26:21Z</time>
      </trkpt>
      <trkpt lat="42.490810" lon="1.568435">
        <ele>2089.000000</ele>
        <time>2020-08-22T11:26:21Z</time>
      </trkpt>
      <trkpt lat="42.490807" lon="1.568423">
        <ele>2089.000000</ele>
        <time>2020-08-22T11:26:21Z</time>
      </trkpt>
      <trkpt lat="42.490807" lon="1.568423">
        <ele>2089.000000</ele>
        <time>2020-08-22T11:26:21Z</time>
      </trkpt>
      <trkpt lat="42.490803" lon="1.568413">
        <ele>2089.000000</ele>
        <time>2020-08-22T11:26:21Z</time>
      </trkpt>
      <trkpt lat="42.490803" lon="1.568413">
        <ele>2089.000000</ele>
        <time>2020-08-22T11:26:21Z</time>
      </trkpt>
      <trkpt lat="42.490803" lon="1.568406">
        <ele>2089.000000</ele>
        <time>2020-08-22T11:26:21Z</time>
      </trkpt>
      <trkpt lat="42.490803" lon="1.568406">
        <ele>2089.000000</ele>
        <time>2020-08-22T11:26:21Z</time>
      </trkpt>
      <trkpt lat="42.490803" lon="1.568400">
        <ele>2089.000000</ele>
        <time>2020-08-22T11:26:21Z</time>
      </trkpt>
      <trkpt lat="42.490803" lon="1.568400">
        <ele>2089.000000</ele>
        <time>2020-08-22T11:26:21Z</time>
      </trkpt>
      <trkpt lat="42.490803" lon="1.568396">
        <ele>2089.000000</ele>
        <time>2020-08-22T11:26:21Z</time>
      </trkpt>
      <trkpt lat="42.490803" lon="1.568396">
        <ele>2089.000000</ele>
        <time>2020-08-22T11:26:21Z</time>
      </trkpt>
      <trkpt lat="42.490807" lon="1.568392">
        <ele>2090.000000</ele>
        <time>2020-08-22T11:26:28Z</time>
      </trkpt>
      <trkpt lat="42.490807" lon="1.568392">
        <ele>2090.000000</ele>
        <time>2020-08-22T11:26:28Z</time>
      </trkpt>
      <trkpt lat="42.490780" lon="1.568407">
        <ele>2090.000000</ele>
        <time>2020-08-22T11:26:28Z</time>
      </trkpt>
      <trkpt lat="42.490780" lon="1.568407">
        <ele>2090.000000</ele>
        <time>2020-08-22T11:26:28Z</time>
      </trkpt>
      <trkpt lat="42.490757" lon="1.568424">
        <ele>2090.000000</ele>
        <time>2020-08-22T11:26:28Z</time>
      </trkpt>
      <trkpt lat="42.490757" lon="1.568424">
        <ele>2090.000000</ele>
        <time>2020-08-22T11:26:28Z</time>
      </trkpt>
      <trkpt lat="42.490738" lon="1.568443">
        <ele>2090.000000</ele>
        <time>2020-08-22T11:26:28Z</time>
      </trkpt>
      <trkpt lat="42.490738" lon="1.568443">
        <ele>2090.000000</ele>
        <time>2020-08-22T11:26:28Z</time>
      </trkpt>
      <trkpt lat="42.490719" lon="1.568465">
        <ele>2090.000000</ele>
        <time>2020-08-22T11:26:28Z</time>
      </trkpt>
      <trkpt lat="42.490719" lon="1.568465">
        <ele>2090.000000</ele>
        <time>2020-08-22T11:26:28Z</time>
      </trkpt>
      <trkpt lat="42.490700" lon="1.568488">
        <ele>2090.000000</ele>
        <time>2020-08-22T11:26:28Z</time>
      </trkpt>
      <trkpt lat="42.490700" lon="1.568488">
        <ele>2090.000000</ele>
        <time>2020-08-22T11:26:28Z</time>
      </trkpt>
      <trkpt lat="42.490684" lon="1.568513">
        <ele>2090.000000</ele>
        <time>2020-08-22T11:26:35Z</time>
      </trkpt>
      <trkpt lat="42.490684" lon="1.568513">
        <ele>2090.000000</ele>
        <time>2020-08-22T11:26:35Z</time>
      </trkpt>
      <trkpt lat="42.490665" lon="1.568538">
        <ele>2090.000000</ele>
        <time>2020-08-22T11:26:35Z</time>
      </trkpt>
      <trkpt lat="42.490665" lon="1.568538">
        <ele>2090.000000</ele>
        <time>2020-08-22T11:26:35Z</time>
      </trkpt>
      <trkpt lat="42.490650" lon="1.568564">
        <ele>2090.000000</ele>
        <time>2020-08-22T11:26:35Z</time>
      </trkpt>
      <trkpt lat="42.490650" lon="1.568564">
        <ele>2090.000000</ele>
        <time>2020-08-22T11:26:35Z</time>
      </trkpt>
      <trkpt lat="42.490635" lon="1.568592">
        <ele>2090.000000</ele>
        <time>2020-08-22T11:26:35Z</time>
      </trkpt>
      <trkpt lat="42.490635" lon="1.568592">
        <ele>2090.000000</ele>
        <time>2020-08-22T11:26:35Z</time>
      </trkpt>
      <trkpt lat="42.490623" lon="1.568620">
        <ele>2090.000000</ele>
        <time>2020-08-22T11:26:35Z</time>
      </trkpt>
      <trkpt lat="42.490623" lon="1.568620">
        <ele>2090.000000</ele>
        <time>2020-08-22T11:26:35Z</time>
      </trkpt>
      <trkpt lat="42.490627" lon="1.568620">
        <ele>2090.000000</ele>
        <time>2020-08-22T11:26:35Z</time>
      </trkpt>
      <trkpt lat="42.490627" lon="1.568620">
        <ele>2090.000000</ele>
        <time>2020-08-22T11:26:35Z</time>
      </trkpt>
      <trkpt lat="42.490631" lon="1.568619">
        <ele>2090.000000</ele>
        <time>2020-08-22T11:26:35Z</time>
      </trkpt>
      <trkpt lat="42.490631" lon="1.568619">
        <ele>2090.000000</ele>
        <time>2020-08-22T11:26:35Z</time>
      </trkpt>
      <trkpt lat="42.490631" lon="1.568617">
        <ele>2090.000000</ele>
        <time>2020-08-22T11:26:35Z</time>
      </trkpt>
      <trkpt lat="42.490631" lon="1.568617">
        <ele>2090.000000</ele>
        <time>2020-08-22T11:26:35Z</time>
      </trkpt>
      <trkpt lat="42.490627" lon="1.568615">
        <ele>2090.000000</ele>
        <time>2020-08-22T11:26:35Z</time>
      </trkpt>
      <trkpt lat="42.490627" lon="1.568615">
        <ele>2090.000000</ele>
        <time>2020-08-22T11:26:35Z</time>
      </trkpt>
      <trkpt lat="42.490620" lon="1.568613">
        <ele>2090.000000</ele>
        <time>2020-08-22T11:26:42Z</time>
      </trkpt>
      <trkpt lat="42.490620" lon="1.568613">
        <ele>2090.000000</ele>
        <time>2020-08-22T11:26:42Z</time>
      </trkpt>
      <trkpt lat="42.490612" lon="1.568611">
        <ele>2090.000000</ele>
        <time>2020-08-22T11:26:42Z</time>
      </trkpt>
      <trkpt lat="42.490612" lon="1.568611">
        <ele>2090.000000</ele>
        <time>2020-08-22T11:26:42Z</time>
      </trkpt>
      <trkpt lat="42.490604" lon="1.568610">
        <ele>2090.000000</ele>
        <time>2020-08-22T11:26:42Z</time>
      </trkpt>
      <trkpt lat="42.490604" lon="1.568610">
        <ele>2090.000000</ele>
        <time>2020-08-22T11:26:42Z</time>
      </trkpt>
      <trkpt lat="42.490589" lon="1.568609">
        <ele>2090.000000</ele>
        <time>2020-08-22T11:26:42Z</time>
      </trkpt>
      <trkpt lat="42.490589" lon="1.568609">
        <ele>2090.000000</ele>
        <time>2020-08-22T11:26:42Z</time>
      </trkpt>
      <trkpt lat="42.490578" lon="1.568610">
        <ele>2090.000000</ele>
        <time>2020-08-22T11:26:42Z</time>
      </trkpt>
      <trkpt lat="42.490578" lon="1.568610">
        <ele>2090.000000</ele>
        <time>2020-08-22T11:26:42Z</time>
      </trkpt>
      <trkpt lat="42.490562" lon="1.568610">
        <ele>2090.000000</ele>
        <time>2020-08-22T11:26:42Z</time>
      </trkpt>
      <trkpt lat="42.490562" lon="1.568610">
        <ele>2090.000000</ele>
        <time>2020-08-22T11:26:42Z</time>
      </trkpt>
      <trkpt lat="42.490547" lon="1.568615">
        <ele>2090.000000</ele>
        <time>2020-08-22T11:26:42Z</time>
      </trkpt>
      <trkpt lat="42.490547" lon="1.568615">
        <ele>2090.000000</ele>
        <time>2020-08-22T11:26:42Z</time>
      </trkpt>
      <trkpt lat="42.490532" lon="1.568618">
        <ele>2090.000000</ele>
        <time>2020-08-22T11:26:42Z</time>
      </trkpt>
      <trkpt lat="42.490532" lon="1.568618">
        <ele>2090.000000</ele>
        <time>2020-08-22T11:26:42Z</time>
      </trkpt>
      <trkpt lat="42.490517" lon="1.568620">
        <ele>2090.000000</ele>
        <time>2020-08-22T11:26:42Z</time>
      </trkpt>
      <trkpt lat="42.490517" lon="1.568620">
        <ele>2090.000000</ele>
        <time>2020-08-22T11:26:42Z</time>
      </trkpt>
      <trkpt lat="42.490505" lon="1.568622">
        <ele>2090.000000</ele>
        <time>2020-08-22T11:26:42Z</time>
      </trkpt>
      <trkpt lat="42.490505" lon="1.568622">
        <ele>2090.000000</ele>
        <time>2020-08-22T11:26:42Z</time>
      </trkpt>
      <trkpt lat="42.490490" lon="1.568622">
        <ele>2090.000000</ele>
        <time>2020-08-22T11:26:49Z</time>
      </trkpt>
      <trkpt lat="42.490490" lon="1.568622">
        <ele>2090.000000</ele>
        <time>2020-08-22T11:26:49Z</time>
      </trkpt>
      <trkpt lat="42.490479" lon="1.568621">
        <ele>2090.000000</ele>
        <time>2020-08-22T11:26:49Z</time>
      </trkpt>
      <trkpt lat="42.490479" lon="1.568621">
        <ele>2090.000000</ele>
        <time>2020-08-22T11:26:49Z</time>
      </trkpt>
      <trkpt lat="42.490471" lon="1.568620">
        <ele>2090.000000</ele>
        <time>2020-08-22T11:26:49Z</time>
      </trkpt>
      <trkpt lat="42.490471" lon="1.568620">
        <ele>2090.000000</ele>
        <time>2020-08-22T11:26:49Z</time>
      </trkpt>
      <trkpt lat="42.490459" lon="1.568619">
        <ele>2090.000000</ele>
        <time>2020-08-22T11:26:49Z</time>
      </trkpt>
      <trkpt lat="42.490459" lon="1.568619">
        <ele>2090.000000</ele>
        <time>2020-08-22T11:26:49Z</time>
      </trkpt>
      <trkpt lat="42.490452" lon="1.568617">
        <ele>2090.000000</ele>
        <time>2020-08-22T11:26:49Z</time>
      </trkpt>
      <trkpt lat="42.490452" lon="1.568617">
        <ele>2090.000000</ele>
        <time>2020-08-22T11:26:49Z</time>
      </trkpt>
      <trkpt lat="42.490444" lon="1.568616">
        <ele>2090.000000</ele>
        <time>2020-08-22T11:26:49Z</time>
      </trkpt>
      <trkpt lat="42.490444" lon="1.568616">
        <ele>2090.000000</ele>
        <time>2020-08-22T11:26:49Z</time>
      </trkpt>
      <trkpt lat="42.490429" lon="1.568643">
        <ele>2090.000000</ele>
        <time>2020-08-22T11:26:49Z</time>
      </trkpt>
      <trkpt lat="42.490429" lon="1.568643">
        <ele>2090.000000</ele>
        <time>2020-08-22T11:26:49Z</time>
      </trkpt>
      <trkpt lat="42.490417" lon="1.568672">
        <ele>2090.000000</ele>
        <time>2020-08-22T11:26:49Z</time>
      </trkpt>
      <trkpt lat="42.490417" lon="1.568672">
        <ele>2090.000000</ele>
        <time>2020-08-22T11:26:49Z</time>
      </trkpt>
      <trkpt lat="42.490406" lon="1.568701">
        <ele>2090.000000</ele>
        <time>2020-08-22T11:26:57Z</time>
      </trkpt>
      <trkpt lat="42.490406" lon="1.568701">
        <ele>2090.000000</ele>
        <time>2020-08-22T11:26:57Z</time>
      </trkpt>
      <trkpt lat="42.490391" lon="1.568731">
        <ele>2090.000000</ele>
        <time>2020-08-22T11:26:57Z</time>
      </trkpt>
      <trkpt lat="42.490391" lon="1.568731">
        <ele>2090.000000</ele>
        <time>2020-08-22T11:26:57Z</time>
      </trkpt>
      <trkpt lat="42.490379" lon="1.568762">
        <ele>2091.000000</ele>
        <time>2020-08-22T11:26:57Z</time>
      </trkpt>
      <trkpt lat="42.490379" lon="1.568762">
        <ele>2091.000000</ele>
        <time>2020-08-22T11:26:57Z</time>
      </trkpt>
      <trkpt lat="42.490364" lon="1.568792">
        <ele>2091.000000</ele>
        <time>2020-08-22T11:26:57Z</time>
      </trkpt>
      <trkpt lat="42.490364" lon="1.568792">
        <ele>2091.000000</ele>
        <time>2020-08-22T11:26:57Z</time>
      </trkpt>
      <trkpt lat="42.490349" lon="1.568820">
        <ele>2091.000000</ele>
        <time>2020-08-22T11:26:57Z</time>
      </trkpt>
      <trkpt lat="42.490349" lon="1.568820">
        <ele>2091.000000</ele>
        <time>2020-08-22T11:26:57Z</time>
      </trkpt>
      <trkpt lat="42.490334" lon="1.568848">
        <ele>2091.000000</ele>
        <time>2020-08-22T11:26:57Z</time>
      </trkpt>
      <trkpt lat="42.490334" lon="1.568848">
        <ele>2092.000000</ele>
        <time>2020-08-22T11:26:57Z</time>
      </trkpt>
      <trkpt lat="42.490318" lon="1.568875">
        <ele>2092.000000</ele>
        <time>2020-08-22T11:26:57Z</time>
      </trkpt>
      <trkpt lat="42.490318" lon="1.568875">
        <ele>2092.000000</ele>
        <time>2020-08-22T11:26:57Z</time>
      </trkpt>
      <trkpt lat="42.490303" lon="1.568901">
        <ele>2092.000000</ele>
        <time>2020-08-22T11:26:57Z</time>
      </trkpt>
      <trkpt lat="42.490303" lon="1.568901">
        <ele>2092.000000</ele>
        <time>2020-08-22T11:26:57Z</time>
      </trkpt>
      <trkpt lat="42.490292" lon="1.568897">
        <ele>2092.000000</ele>
        <time>2020-08-22T11:26:57Z</time>
      </trkpt>
      <trkpt lat="42.490292" lon="1.568897">
        <ele>2093.000000</ele>
        <time>2020-08-22T11:26:57Z</time>
      </trkpt>
      <trkpt lat="42.490284" lon="1.568893">
        <ele>2093.000000</ele>
        <time>2020-08-22T11:26:57Z</time>
      </trkpt>
      <trkpt lat="42.490284" lon="1.568893">
        <ele>2093.000000</ele>
        <time>2020-08-22T11:26:57Z</time>
      </trkpt>
      <trkpt lat="42.490273" lon="1.568887">
        <ele>2093.000000</ele>
        <time>2020-08-22T11:26:57Z</time>
      </trkpt>
      <trkpt lat="42.490273" lon="1.568887">
        <ele>2093.000000</ele>
        <time>2020-08-22T11:26:57Z</time>
      </trkpt>
      <trkpt lat="42.490261" lon="1.568881">
        <ele>2093.000000</ele>
        <time>2020-08-22T11:26:57Z</time>
      </trkpt>
      <trkpt lat="42.490261" lon="1.568881">
        <ele>2094.000000</ele>
        <time>2020-08-22T11:26:57Z</time>
      </trkpt>
      <trkpt lat="42.490250" lon="1.568875">
        <ele>2094.000000</ele>
        <time>2020-08-22T11:26:57Z</time>
      </trkpt>
      <trkpt lat="42.490250" lon="1.568875">
        <ele>2094.000000</ele>
        <time>2020-08-22T11:26:57Z</time>
      </trkpt>
      <trkpt lat="42.490238" lon="1.568870">
        <ele>2095.000000</ele>
        <time>2020-08-22T11:27:04Z</time>
      </trkpt>
      <trkpt lat="42.490238" lon="1.568870">
        <ele>2095.000000</ele>
        <time>2020-08-22T11:27:04Z</time>
      </trkpt>
      <trkpt lat="42.490231" lon="1.568866">
        <ele>2095.000000</ele>
        <time>2020-08-22T11:27:04Z</time>
      </trkpt>
      <trkpt lat="42.490231" lon="1.568866">
        <ele>2096.000000</ele>
        <time>2020-08-22T11:27:04Z</time>
      </trkpt>
      <trkpt lat="42.490223" lon="1.568863">
        <ele>2096.000000</ele>
        <time>2020-08-22T11:27:04Z</time>
      </trkpt>
      <trkpt lat="42.490223" lon="1.568863">
        <ele>2096.000000</ele>
        <time>2020-08-22T11:27:04Z</time>
      </trkpt>
      <trkpt lat="42.490211" lon="1.568861">
        <ele>2096.000000</ele>
        <time>2020-08-22T11:27:04Z</time>
      </trkpt>
      <trkpt lat="42.490211" lon="1.568861">
        <ele>2096.000000</ele>
        <time>2020-08-22T11:27:04Z</time>
      </trkpt>
      <trkpt lat="42.490204" lon="1.568860">
        <ele>2096.000000</ele>
        <time>2020-08-22T11:27:04Z</time>
      </trkpt>
      <trkpt lat="42.490204" lon="1.568860">
        <ele>2096.000000</ele>
        <time>2020-08-22T11:27:04Z</time>
      </trkpt>
      <trkpt lat="42.490177" lon="1.568857">
        <ele>2096.000000</ele>
        <time>2020-08-22T11:27:04Z</time>
      </trkpt>
      <trkpt lat="42.490177" lon="1.568857">
        <ele>2096.000000</ele>
        <time>2020-08-22T11:27:04Z</time>
      </trkpt>
      <trkpt lat="42.490150" lon="1.568854">
        <ele>2096.000000</ele>
        <time>2020-08-22T11:27:04Z</time>
      </trkpt>
      <trkpt lat="42.490150" lon="1.568854">
        <ele>2096.000000</ele>
        <time>2020-08-22T11:27:04Z</time>
      </trkpt>
      <trkpt lat="42.490128" lon="1.568853">
        <ele>2096.000000</ele>
        <time>2020-08-22T11:27:04Z</time>
      </trkpt>
      <trkpt lat="42.490128" lon="1.568853">
        <ele>2097.000000</ele>
        <time>2020-08-22T11:27:04Z</time>
      </trkpt>
      <trkpt lat="42.490108" lon="1.568852">
        <ele>2097.000000</ele>
        <time>2020-08-22T11:27:04Z</time>
      </trkpt>
      <trkpt lat="42.490108" lon="1.568852">
        <ele>2097.000000</ele>
        <time>2020-08-22T11:27:04Z</time>
      </trkpt>
      <trkpt lat="42.490089" lon="1.568852">
        <ele>2097.000000</ele>
        <time>2020-08-22T11:27:12Z</time>
      </trkpt>
      <trkpt lat="42.490089" lon="1.568852">
        <ele>2097.000000</ele>
        <time>2020-08-22T11:27:12Z</time>
      </trkpt>
      <trkpt lat="42.490070" lon="1.568852">
        <ele>2097.000000</ele>
        <time>2020-08-22T11:27:12Z</time>
      </trkpt>
      <trkpt lat="42.490070" lon="1.568852">
        <ele>2098.000000</ele>
        <time>2020-08-22T11:27:12Z</time>
      </trkpt>
      <trkpt lat="42.490055" lon="1.568853">
        <ele>2098.000000</ele>
        <time>2020-08-22T11:27:12Z</time>
      </trkpt>
      <trkpt lat="42.490055" lon="1.568853">
        <ele>2098.000000</ele>
        <time>2020-08-22T11:27:12Z</time>
      </trkpt>
      <trkpt lat="42.490044" lon="1.568854">
        <ele>2098.000000</ele>
        <time>2020-08-22T11:27:12Z</time>
      </trkpt>
      <trkpt lat="42.490044" lon="1.568854">
        <ele>2099.000000</ele>
        <time>2020-08-22T11:27:12Z</time>
      </trkpt>
      <trkpt lat="42.490032" lon="1.568854">
        <ele>2100.000000</ele>
        <time>2020-08-22T11:27:12Z</time>
      </trkpt>
      <trkpt lat="42.490032" lon="1.568854">
        <ele>2100.000000</ele>
        <time>2020-08-22T11:27:12Z</time>
      </trkpt>
      <trkpt lat="42.490021" lon="1.568854">
        <ele>2100.000000</ele>
        <time>2020-08-22T11:27:12Z</time>
      </trkpt>
      <trkpt lat="42.490021" lon="1.568854">
        <ele>2100.000000</ele>
        <time>2020-08-22T11:27:12Z</time>
      </trkpt>
      <trkpt lat="42.490032" lon="1.568859">
        <ele>2101.000000</ele>
        <time>2020-08-22T11:27:12Z</time>
      </trkpt>
      <trkpt lat="42.490032" lon="1.568859">
        <ele>2101.000000</ele>
        <time>2020-08-22T11:27:12Z</time>
      </trkpt>
      <trkpt lat="42.490044" lon="1.568864">
        <ele>2101.000000</ele>
        <time>2020-08-22T11:27:12Z</time>
      </trkpt>
      <trkpt lat="42.490044" lon="1.568864">
        <ele>2101.000000</ele>
        <time>2020-08-22T11:27:12Z</time>
      </trkpt>
      <trkpt lat="42.490051" lon="1.568868">
        <ele>2101.000000</ele>
        <time>2020-08-22T11:27:12Z</time>
      </trkpt>
      <trkpt lat="42.490051" lon="1.568868">
        <ele>2101.000000</ele>
        <time>2020-08-22T11:27:12Z</time>
      </trkpt>
      <trkpt lat="42.490055" lon="1.568870">
        <ele>2101.000000</ele>
        <time>2020-08-22T11:27:12Z</time>
      </trkpt>
      <trkpt lat="42.490055" lon="1.568870">
        <ele>2102.000000</ele>
        <time>2020-08-22T11:27:12Z</time>
      </trkpt>
      <trkpt lat="42.490055" lon="1.568870">
        <ele>2102.000000</ele>
        <time>2020-08-22T11:27:12Z</time>
      </trkpt>
      <trkpt lat="42.490055" lon="1.568870">
        <ele>2102.000000</ele>
        <time>2020-08-22T11:27:12Z</time>
      </trkpt>
      <trkpt lat="42.490055" lon="1.568868">
        <ele>2102.000000</ele>
        <time>2020-08-22T11:27:19Z</time>
      </trkpt>
      <trkpt lat="42.490055" lon="1.568868">
        <ele>2103.000000</ele>
        <time>2020-08-22T11:27:19Z</time>
      </trkpt>
      <trkpt lat="42.490044" lon="1.568865">
        <ele>2103.000000</ele>
        <time>2020-08-22T11:27:19Z</time>
      </trkpt>
      <trkpt lat="42.490044" lon="1.568865">
        <ele>2103.000000</ele>
        <time>2020-08-22T11:27:19Z</time>
      </trkpt>
      <trkpt lat="42.490036" lon="1.568861">
        <ele>2103.000000</ele>
        <time>2020-08-22T11:27:19Z</time>
      </trkpt>
      <trkpt lat="42.490036" lon="1.568861">
        <ele>2103.000000</ele>
        <time>2020-08-22T11:27:19Z</time>
      </trkpt>
      <trkpt lat="42.490021" lon="1.568856">
        <ele>2104.000000</ele>
        <time>2020-08-22T11:27:19Z</time>
      </trkpt>
      <trkpt lat="42.490021" lon="1.568856">
        <ele>2104.000000</ele>
        <time>2020-08-22T11:27:19Z</time>
      </trkpt>
      <trkpt lat="42.490009" lon="1.568851">
        <ele>2104.000000</ele>
        <time>2020-08-22T11:27:19Z</time>
      </trkpt>
      <trkpt lat="42.490009" lon="1.568851">
        <ele>2104.000000</ele>
        <time>2020-08-22T11:27:19Z</time>
      </trkpt>
      <trkpt lat="42.489990" lon="1.568841">
        <ele>2105.000000</ele>
        <time>2020-08-22T11:27:19Z</time>
      </trkpt>
      <trkpt lat="42.489990" lon="1.568841">
        <ele>2105.000000</ele>
        <time>2020-08-22T11:27:19Z</time>
      </trkpt>
      <trkpt lat="42.489979" lon="1.568832">
        <ele>2105.000000</ele>
        <time>2020-08-22T11:27:19Z</time>
      </trkpt>
      <trkpt lat="42.489979" lon="1.568832">
        <ele>2105.000000</ele>
        <time>2020-08-22T11:27:19Z</time>
      </trkpt>
      <trkpt lat="42.489971" lon="1.568823">
        <ele>2105.000000</ele>
        <time>2020-08-22T11:27:19Z</time>
      </trkpt>
      <trkpt lat="42.489971" lon="1.568823">
        <ele>2107.000000</ele>
        <time>2020-08-22T11:27:19Z</time>
      </trkpt>
      <trkpt lat="42.489967" lon="1.568816">
        <ele>2107.000000</ele>
        <time>2020-08-22T11:27:19Z</time>
      </trkpt>
      <trkpt lat="42.489967" lon="1.568816">
        <ele>2107.000000</ele>
        <time>2020-08-22T11:27:19Z</time>
      </trkpt>
      <trkpt lat="42.489967" lon="1.568812">
        <ele>2107.000000</ele>
        <time>2020-08-22T11:27:19Z</time>
      </trkpt>
      <trkpt lat="42.489967" lon="1.568812">
        <ele>2108.000000</ele>
        <time>2020-08-22T11:27:19Z</time>
      </trkpt>
      <trkpt lat="42.489975" lon="1.568810">
        <ele>2108.000000</ele>
        <time>2020-08-22T11:27:19Z</time>
      </trkpt>
      <trkpt lat="42.489975" lon="1.568810">
        <ele>2108.000000</ele>
        <time>2020-08-22T11:27:19Z</time>
      </trkpt>
      <trkpt lat="42.489983" lon="1.568810">
        <ele>2108.000000</ele>
        <time>2020-08-22T11:27:26Z</time>
      </trkpt>
      <trkpt lat="42.489983" lon="1.568810">
        <ele>2108.000000</ele>
        <time>2020-08-22T11:27:26Z</time>
      </trkpt>
      <trkpt lat="42.489998" lon="1.568810">
        <ele>2108.000000</ele>
        <time>2020-08-22T11:27:26Z</time>
      </trkpt>
      <trkpt lat="42.489998" lon="1.568810">
        <ele>2108.000000</ele>
        <time>2020-08-22T11:27:26Z</time>
      </trkpt>
      <trkpt lat="42.490009" lon="1.568812">
        <ele>2108.000000</ele>
        <time>2020-08-22T11:27:26Z</time>
      </trkpt>
      <trkpt lat="42.490009" lon="1.568812">
        <ele>2108.000000</ele>
        <time>2020-08-22T11:27:26Z</time>
      </trkpt>
      <trkpt lat="42.490025" lon="1.568816">
        <ele>2108.000000</ele>
        <time>2020-08-22T11:27:26Z</time>
      </trkpt>
      <trkpt lat="42.490025" lon="1.568816">
        <ele>2108.000000</ele>
        <time>2020-08-22T11:27:26Z</time>
      </trkpt>
      <trkpt lat="42.490036" lon="1.568822">
        <ele>2108.000000</ele>
        <time>2020-08-22T11:27:26Z</time>
      </trkpt>
      <trkpt lat="42.490036" lon="1.568822">
        <ele>2108.000000</ele>
        <time>2020-08-22T11:27:26Z</time>
      </trkpt>
      <trkpt lat="42.490044" lon="1.568827">
        <ele>2108.000000</ele>
        <time>2020-08-22T11:27:33Z</time>
      </trkpt>
      <trkpt lat="42.490044" lon="1.568827">
        <ele>2108.000000</ele>
        <time>2020-08-22T11:27:33Z</time>
      </trkpt>
      <trkpt lat="42.490047" lon="1.568831">
        <ele>2108.000000</ele>
        <time>2020-08-22T11:27:33Z</time>
      </trkpt>
      <trkpt lat="42.490047" lon="1.568831">
        <ele>2108.000000</ele>
        <time>2020-08-22T11:27:33Z</time>
      </trkpt>
      <trkpt lat="42.490047" lon="1.568833">
        <ele>2108.000000</ele>
        <time>2020-08-22T11:27:33Z</time>
      </trkpt>
      <trkpt lat="42.490047" lon="1.568833">
        <ele>2108.000000</ele>
        <time>2020-08-22T11:27:33Z</time>
      </trkpt>
      <trkpt lat="42.490040" lon="1.568833">
        <ele>2108.000000</ele>
        <time>2020-08-22T11:27:33Z</time>
      </trkpt>
      <trkpt lat="42.490040" lon="1.568833">
        <ele>2108.000000</ele>
        <time>2020-08-22T11:27:33Z</time>
      </trkpt>
      <trkpt lat="42.490036" lon="1.568833">
        <ele>2108.000000</ele>
        <time>2020-08-22T11:27:33Z</time>
      </trkpt>
      <trkpt lat="42.490036" lon="1.568833">
        <ele>2108.000000</ele>
        <time>2020-08-22T11:27:33Z</time>
      </trkpt>
      <trkpt lat="42.490025" lon="1.568833">
        <ele>2108.000000</ele>
        <time>2020-08-22T11:27:33Z</time>
      </trkpt>
      <trkpt lat="42.490025" lon="1.568833">
        <ele>2108.000000</ele>
        <time>2020-08-22T11:27:33Z</time>
      </trkpt>
      <trkpt lat="42.490017" lon="1.568831">
        <ele>2108.000000</ele>
        <time>2020-08-22T11:27:33Z</time>
      </trkpt>
      <trkpt lat="42.490017" lon="1.568831">
        <ele>2108.000000</ele>
        <time>2020-08-22T11:27:33Z</time>
      </trkpt>
      <trkpt lat="42.490005" lon="1.568829">
        <ele>2108.000000</ele>
        <time>2020-08-22T11:27:40Z</time>
      </trkpt>
      <trkpt lat="42.490005" lon="1.568829">
        <ele>2108.000000</ele>
        <time>2020-08-22T11:27:40Z</time>
      </trkpt>
      <trkpt lat="42.489990" lon="1.568825">
        <ele>2108.000000</ele>
        <time>2020-08-22T11:27:40Z</time>
      </trkpt>
      <trkpt lat="42.489990" lon="1.568825">
        <ele>2108.000000</ele>
        <time>2020-08-22T11:27:40Z</time>
      </trkpt>
      <trkpt lat="42.489983" lon="1.568810">
        <ele>2108.000000</ele>
        <time>2020-08-22T11:27:47Z</time>
      </trkpt>
      <trkpt lat="42.489983" lon="1.568810">
        <ele>2108.000000</ele>
        <time>2020-08-22T11:27:47Z</time>
      </trkpt>
      <trkpt lat="42.489975" lon="1.568798">
        <ele>2108.000000</ele>
        <time>2020-08-22T11:27:47Z</time>
      </trkpt>
      <trkpt lat="42.489975" lon="1.568798">
        <ele>2108.000000</ele>
        <time>2020-08-22T11:27:47Z</time>
      </trkpt>
      <trkpt lat="42.489967" lon="1.568787">
        <ele>2108.000000</ele>
        <time>2020-08-22T11:27:47Z</time>
      </trkpt>
      <trkpt lat="42.489967" lon="1.568787">
        <ele>2108.000000</ele>
        <time>2020-08-22T11:27:47Z</time>
      </trkpt>
      <trkpt lat="42.489964" lon="1.568776">
        <ele>2108.000000</ele>
        <time>2020-08-22T11:27:47Z</time>
      </trkpt>
      <trkpt lat="42.489964" lon="1.568776">
        <ele>2108.000000</ele>
        <time>2020-08-22T11:27:47Z</time>
      </trkpt>
      <trkpt lat="42.489964" lon="1.568766">
        <ele>2108.000000</ele>
        <time>2020-08-22T11:27:47Z</time>
      </trkpt>
      <trkpt lat="42.489964" lon="1.568766">
        <ele>2108.000000</ele>
        <time>2020-08-22T11:27:47Z</time>
      </trkpt>
      <trkpt lat="42.489964" lon="1.568757">
        <ele>2109.000000</ele>
        <time>2020-08-22T11:27:47Z</time>
      </trkpt>
      <trkpt lat="42.489964" lon="1.568757">
        <ele>2109.000000</ele>
        <time>2020-08-22T11:27:47Z</time>
      </trkpt>
      <trkpt lat="42.489971" lon="1.568748">
        <ele>2109.000000</ele>
        <time>2020-08-22T11:27:55Z</time>
      </trkpt>
      <trkpt lat="42.489971" lon="1.568748">
        <ele>2109.000000</ele>
        <time>2020-08-22T11:27:55Z</time>
      </trkpt>
      <trkpt lat="42.489979" lon="1.568742">
        <ele>2109.000000</ele>
        <time>2020-08-22T11:27:55Z</time>
      </trkpt>
      <trkpt lat="42.489979" lon="1.568742">
        <ele>2109.000000</ele>
        <time>2020-08-22T11:27:55Z</time>
      </trkpt>
      <trkpt lat="42.489986" lon="1.568736">
        <ele>2111.000000</ele>
        <time>2020-08-22T11:27:55Z</time>
      </trkpt>
      <trkpt lat="42.489986" lon="1.568736">
        <ele>2111.000000</ele>
        <time>2020-08-22T11:27:55Z</time>
      </trkpt>
      <trkpt lat="42.489998" lon="1.568732">
        <ele>2111.000000</ele>
        <time>2020-08-22T11:27:55Z</time>
      </trkpt>
      <trkpt lat="42.489998" lon="1.568732">
        <ele>2111.000000</ele>
        <time>2020-08-22T11:27:55Z</time>
      </trkpt>
      <trkpt lat="42.490002" lon="1.568757">
        <ele>2112.000000</ele>
        <time>2020-08-22T11:27:55Z</time>
      </trkpt>
      <trkpt lat="42.490002" lon="1.568757">
        <ele>2112.000000</ele>
        <time>2020-08-22T11:27:55Z</time>
      </trkpt>
      <trkpt lat="42.490005" lon="1.568782">
        <ele>2112.000000</ele>
        <time>2020-08-22T11:27:55Z</time>
      </trkpt>
      <trkpt lat="42.490005" lon="1.568782">
        <ele>2113.000000</ele>
        <time>2020-08-22T11:27:55Z</time>
      </trkpt>
      <trkpt lat="42.490009" lon="1.568809">
        <ele>2113.000000</ele>
        <time>2020-08-22T11:27:55Z</time>
      </trkpt>
      <trkpt lat="42.490009" lon="1.568809">
        <ele>2113.000000</ele>
        <time>2020-08-22T11:27:55Z</time>
      </trkpt>
      <trkpt lat="42.490013" lon="1.568837">
        <ele>2113.000000</ele>
        <time>2020-08-22T11:27:55Z</time>
      </trkpt>
      <trkpt lat="42.490013" lon="1.568837">
        <ele>2113.000000</ele>
        <time>2020-08-22T11:27:55Z</time>
      </trkpt>
      <trkpt lat="42.490017" lon="1.568866">
        <ele>2113.000000</ele>
        <time>2020-08-22T11:28:02Z</time>
      </trkpt>
      <trkpt lat="42.490017" lon="1.568866">
        <ele>2113.000000</ele>
        <time>2020-08-22T11:28:02Z</time>
      </trkpt>
      <trkpt lat="42.490021" lon="1.568897">
        <ele>2113.000000</ele>
        <time>2020-08-22T11:28:02Z</time>
      </trkpt>
      <trkpt lat="42.490021" lon="1.568897">
        <ele>2113.000000</ele>
        <time>2020-08-22T11:28:02Z</time>
      </trkpt>
      <trkpt lat="42.490021" lon="1.568927">
        <ele>2114.000000</ele>
        <time>2020-08-22T11:28:02Z</time>
      </trkpt>
      <trkpt lat="42.490021" lon="1.568927">
        <ele>2114.000000</ele>
        <time>2020-08-22T11:28:02Z</time>
      </trkpt>
      <trkpt lat="42.490017" lon="1.568957">
        <ele>2114.000000</ele>
        <time>2020-08-22T11:28:02Z</time>
      </trkpt>
      <trkpt lat="42.490017" lon="1.568957">
        <ele>2114.000000</ele>
        <time>2020-08-22T11:28:02Z</time>
      </trkpt>
      <trkpt lat="42.490017" lon="1.568987">
        <ele>2114.000000</ele>
        <time>2020-08-22T11:28:02Z</time>
      </trkpt>
      <trkpt lat="42.490017" lon="1.568987">
        <ele>2114.000000</ele>
        <time>2020-08-22T11:28:02Z</time>
      </trkpt>
      <trkpt lat="42.490013" lon="1.569017">
        <ele>2114.000000</ele>
        <time>2020-08-22T11:28:02Z</time>
      </trkpt>
      <trkpt lat="42.490013" lon="1.569017">
        <ele>2114.000000</ele>
        <time>2020-08-22T11:28:02Z</time>
      </trkpt>
      <trkpt lat="42.490017" lon="1.569029">
        <ele>2114.000000</ele>
        <time>2020-08-22T11:28:02Z</time>
      </trkpt>
      <trkpt lat="42.490017" lon="1.569029">
        <ele>2114.000000</ele>
        <time>2020-08-22T11:28:02Z</time>
      </trkpt>
      <trkpt lat="42.490025" lon="1.569041">
        <ele>2114.000000</ele>
        <time>2020-08-22T11:28:09Z</time>
      </trkpt>
      <trkpt lat="42.490025" lon="1.569041">
        <ele>2114.000000</ele>
        <time>2020-08-22T11:28:09Z</time>
      </trkpt>
      <trkpt lat="42.490028" lon="1.569054">
        <ele>2114.000000</ele>
        <time>2020-08-22T11:28:09Z</time>
      </trkpt>
      <trkpt lat="42.490028" lon="1.569054">
        <ele>2114.000000</ele>
        <time>2020-08-22T11:28:09Z</time>
      </trkpt>
      <trkpt lat="42.490036" lon="1.569066">
        <ele>2114.000000</ele>
        <time>2020-08-22T11:28:09Z</time>
      </trkpt>
      <trkpt lat="42.490036" lon="1.569066">
        <ele>2114.000000</ele>
        <time>2020-08-22T11:28:09Z</time>
      </trkpt>
      <trkpt lat="42.490044" lon="1.569078">
        <ele>2114.000000</ele>
        <time>2020-08-22T11:28:09Z</time>
      </trkpt>
      <trkpt lat="42.490044" lon="1.569078">
        <ele>2113.000000</ele>
        <time>2020-08-22T11:28:09Z</time>
      </trkpt>
      <trkpt lat="42.490051" lon="1.569090">
        <ele>2113.000000</ele>
        <time>2020-08-22T11:28:09Z</time>
      </trkpt>
      <trkpt lat="42.490051" lon="1.569090">
        <ele>2113.000000</ele>
        <time>2020-08-22T11:28:09Z</time>
      </trkpt>
      <trkpt lat="42.490059" lon="1.569101">
        <ele>2113.000000</ele>
        <time>2020-08-22T11:28:09Z</time>
      </trkpt>
      <trkpt lat="42.490059" lon="1.569101">
        <ele>2113.000000</ele>
        <time>2020-08-22T11:28:09Z</time>
      </trkpt>
      <trkpt lat="42.490067" lon="1.569113">
        <ele>2112.000000</ele>
        <time>2020-08-22T11:28:09Z</time>
      </trkpt>
      <trkpt lat="42.490067" lon="1.569113">
        <ele>2112.000000</ele>
        <time>2020-08-22T11:28:09Z</time>
      </trkpt>
      <trkpt lat="42.490074" lon="1.569125">
        <ele>2112.000000</ele>
        <time>2020-08-22T11:28:16Z</time>
      </trkpt>
      <trkpt lat="42.490074" lon="1.569125">
        <ele>2112.000000</ele>
        <time>2020-08-22T11:28:16Z</time>
      </trkpt>
      <trkpt lat="42.490082" lon="1.569136">
        <ele>2111.000000</ele>
        <time>2020-08-22T11:28:16Z</time>
      </trkpt>
      <trkpt lat="42.490082" lon="1.569136">
        <ele>2111.000000</ele>
        <time>2020-08-22T11:28:16Z</time>
      </trkpt>
      <trkpt lat="42.490089" lon="1.569149">
        <ele>2111.000000</ele>
        <time>2020-08-22T11:28:16Z</time>
      </trkpt>
      <trkpt lat="42.490089" lon="1.569149">
        <ele>2111.000000</ele>
        <time>2020-08-22T11:28:16Z</time>
      </trkpt>
      <trkpt lat="42.490093" lon="1.569161">
        <ele>2111.000000</ele>
        <time>2020-08-22T11:28:16Z</time>
      </trkpt>
      <trkpt lat="42.490093" lon="1.569161">
        <ele>2111.000000</ele>
        <time>2020-08-22T11:28:16Z</time>
      </trkpt>
      <trkpt lat="42.490097" lon="1.569173">
        <ele>2111.000000</ele>
        <time>2020-08-22T11:28:16Z</time>
      </trkpt>
      <trkpt lat="42.490097" lon="1.569173">
        <ele>2110.000000</ele>
        <time>2020-08-22T11:28:16Z</time>
      </trkpt>
      <trkpt lat="42.490105" lon="1.569184">
        <ele>2110.000000</ele>
        <time>2020-08-22T11:28:16Z</time>
      </trkpt>
      <trkpt lat="42.490105" lon="1.569184">
        <ele>2110.000000</ele>
        <time>2020-08-22T11:28:16Z</time>
      </trkpt>
      <trkpt lat="42.490108" lon="1.569196">
        <ele>2110.000000</ele>
        <time>2020-08-22T11:28:23Z</time>
      </trkpt>
      <trkpt lat="42.490108" lon="1.569196">
        <ele>2110.000000</ele>
        <time>2020-08-22T11:28:23Z</time>
      </trkpt>
      <trkpt lat="42.490116" lon="1.569207">
        <ele>2110.000000</ele>
        <time>2020-08-22T11:28:23Z</time>
      </trkpt>
      <trkpt lat="42.490116" lon="1.569207">
        <ele>2110.000000</ele>
        <time>2020-08-22T11:28:23Z</time>
      </trkpt>
      <trkpt lat="42.490116" lon="1.569218">
        <ele>2110.000000</ele>
        <time>2020-08-22T11:28:23Z</time>
      </trkpt>
      <trkpt lat="42.490116" lon="1.569218">
        <ele>2110.000000</ele>
        <time>2020-08-22T11:28:23Z</time>
      </trkpt>
      <trkpt lat="42.490120" lon="1.569229">
        <ele>2110.000000</ele>
        <time>2020-08-22T11:28:23Z</time>
      </trkpt>
      <trkpt lat="42.490120" lon="1.569229">
        <ele>2110.000000</ele>
        <time>2020-08-22T11:28:23Z</time>
      </trkpt>
      <trkpt lat="42.490120" lon="1.569240">
        <ele>2108.000000</ele>
        <time>2020-08-22T11:28:23Z</time>
      </trkpt>
      <trkpt lat="42.490120" lon="1.569240">
        <ele>2108.000000</ele>
        <time>2020-08-22T11:28:23Z</time>
      </trkpt>
      <trkpt lat="42.490116" lon="1.569250">
        <ele>2108.000000</ele>
        <time>2020-08-22T11:28:23Z</time>
      </trkpt>
      <trkpt lat="42.490116" lon="1.569250">
        <ele>2108.000000</ele>
        <time>2020-08-22T11:28:23Z</time>
      </trkpt>
      <trkpt lat="42.490112" lon="1.569258">
        <ele>2108.000000</ele>
        <time>2020-08-22T11:28:23Z</time>
      </trkpt>
      <trkpt lat="42.490112" lon="1.569258">
        <ele>2108.000000</ele>
        <time>2020-08-22T11:28:23Z</time>
      </trkpt>
      <trkpt lat="42.490108" lon="1.569264">
        <ele>2108.000000</ele>
        <time>2020-08-22T11:28:30Z</time>
      </trkpt>
      <trkpt lat="42.490108" lon="1.569264">
        <ele>2108.000000</ele>
        <time>2020-08-22T11:28:30Z</time>
      </trkpt>
      <trkpt lat="42.490097" lon="1.569270">
        <ele>2107.000000</ele>
        <time>2020-08-22T11:28:30Z</time>
      </trkpt>
      <trkpt lat="42.490097" lon="1.569270">
        <ele>2107.000000</ele>
        <time>2020-08-22T11:28:30Z</time>
      </trkpt>
      <trkpt lat="42.490086" lon="1.569275">
        <ele>2107.000000</ele>
        <time>2020-08-22T11:28:30Z</time>
      </trkpt>
      <trkpt lat="42.490086" lon="1.569275">
        <ele>2107.000000</ele>
        <time>2020-08-22T11:28:30Z</time>
      </trkpt>
      <trkpt lat="42.490070" lon="1.569279">
        <ele>2107.000000</ele>
        <time>2020-08-22T11:28:30Z</time>
      </trkpt>
      <trkpt lat="42.490070" lon="1.569279">
        <ele>2106.000000</ele>
        <time>2020-08-22T11:28:30Z</time>
      </trkpt>
      <trkpt lat="42.490059" lon="1.569282">
        <ele>2106.000000</ele>
        <time>2020-08-22T11:28:30Z</time>
      </trkpt>
      <trkpt lat="42.490059" lon="1.569282">
        <ele>2106.000000</ele>
        <time>2020-08-22T11:28:30Z</time>
      </trkpt>
      <trkpt lat="42.490047" lon="1.569284">
        <ele>2106.000000</ele>
        <time>2020-08-22T11:28:30Z</time>
      </trkpt>
      <trkpt lat="42.490047" lon="1.569284">
        <ele>2105.000000</ele>
        <time>2020-08-22T11:28:30Z</time>
      </trkpt>
      <trkpt lat="42.490036" lon="1.569286">
        <ele>2105.000000</ele>
        <time>2020-08-22T11:28:30Z</time>
      </trkpt>
      <trkpt lat="42.490036" lon="1.569286">
        <ele>2105.000000</ele>
        <time>2020-08-22T11:28:30Z</time>
      </trkpt>
      <trkpt lat="42.490025" lon="1.569287">
        <ele>2105.000000</ele>
        <time>2020-08-22T11:28:30Z</time>
      </trkpt>
      <trkpt lat="42.490025" lon="1.569287">
        <ele>2105.000000</ele>
        <time>2020-08-22T11:28:30Z</time>
      </trkpt>
      <trkpt lat="42.490013" lon="1.569287">
        <ele>2105.000000</ele>
        <time>2020-08-22T11:28:30Z</time>
      </trkpt>
      <trkpt lat="42.490013" lon="1.569287">
        <ele>2104.000000</ele>
        <time>2020-08-22T11:28:30Z</time>
      </trkpt>
      <trkpt lat="42.490009" lon="1.569272">
        <ele>2104.000000</ele>
        <time>2020-08-22T11:28:30Z</time>
      </trkpt>
      <trkpt lat="42.490009" lon="1.569272">
        <ele>2104.000000</ele>
        <time>2020-08-22T11:28:30Z</time>
      </trkpt>
      <trkpt lat="42.490005" lon="1.569256">
        <ele>2104.000000</ele>
        <time>2020-08-22T11:28:30Z</time>
      </trkpt>
      <trkpt lat="42.490005" lon="1.569256">
        <ele>2104.000000</ele>
        <time>2020-08-22T11:28:30Z</time>
      </trkpt>
      <trkpt lat="42.490002" lon="1.569238">
        <ele>2104.000000</ele>
        <time>2020-08-22T11:28:30Z</time>
      </trkpt>
      <trkpt lat="42.490002" lon="1.569238">
        <ele>2103.000000</ele>
        <time>2020-08-22T11:28:30Z</time>
      </trkpt>
      <trkpt lat="42.489998" lon="1.569221">
        <ele>2103.000000</ele>
        <time>2020-08-22T11:28:30Z</time>
      </trkpt>
      <trkpt lat="42.489998" lon="1.569221">
        <ele>2103.000000</ele>
        <time>2020-08-22T11:28:30Z</time>
      </trkpt>
      <trkpt lat="42.489994" lon="1.569203">
        <ele>2103.000000</ele>
        <time>2020-08-22T11:28:30Z</time>
      </trkpt>
      <trkpt lat="42.489994" lon="1.569203">
        <ele>2103.000000</ele>
        <time>2020-08-22T11:28:30Z</time>
      </trkpt>
      <trkpt lat="42.489990" lon="1.569185">
        <ele>2103.000000</ele>
        <time>2020-08-22T11:28:30Z</time>
      </trkpt>
      <trkpt lat="42.489990" lon="1.569185">
        <ele>2103.000000</ele>
        <time>2020-08-22T11:28:30Z</time>
      </trkpt>
      <trkpt lat="42.489983" lon="1.569167">
        <ele>2103.000000</ele>
        <time>2020-08-22T11:28:38Z</time>
      </trkpt>
      <trkpt lat="42.489983" lon="1.569167">
        <ele>2103.000000</ele>
        <time>2020-08-22T11:28:38Z</time>
      </trkpt>
      <trkpt lat="42.489975" lon="1.569149">
        <ele>2103.000000</ele>
        <time>2020-08-22T11:28:38Z</time>
      </trkpt>
      <trkpt lat="42.489975" lon="1.569149">
        <ele>2103.000000</ele>
        <time>2020-08-22T11:28:38Z</time>
      </trkpt>
      <trkpt lat="42.489967" lon="1.569131">
        <ele>2103.000000</ele>
        <time>2020-08-22T11:28:38Z</time>
      </trkpt>
      <trkpt lat="42.489967" lon="1.569131">
        <ele>2103.000000</ele>
        <time>2020-08-22T11:28:38Z</time>
      </trkpt>
      <trkpt lat="42.489956" lon="1.569113">
        <ele>2103.000000</ele>
        <time>2020-08-22T11:28:38Z</time>
      </trkpt>
      <trkpt lat="42.489956" lon="1.569113">
        <ele>2103.000000</ele>
        <time>2020-08-22T11:28:38Z</time>
      </trkpt>
      <trkpt lat="42.489941" lon="1.569112">
        <ele>2103.000000</ele>
        <time>2020-08-22T11:28:38Z</time>
      </trkpt>
      <trkpt lat="42.489941" lon="1.569112">
        <ele>2103.000000</ele>
        <time>2020-08-22T11:28:38Z</time>
      </trkpt>
      <trkpt lat="42.489925" lon="1.569111">
        <ele>2103.000000</ele>
        <time>2020-08-22T11:28:38Z</time>
      </trkpt>
      <trkpt lat="42.489925" lon="1.569111">
        <ele>2103.000000</ele>
        <time>2020-08-22T11:28:38Z</time>
      </trkpt>
      <trkpt lat="42.489910" lon="1.569112">
        <ele>2103.000000</ele>
        <time>2020-08-22T11:28:38Z</time>
      </trkpt>
      <trkpt lat="42.489910" lon="1.569112">
        <ele>2103.000000</ele>
        <time>2020-08-22T11:28:38Z</time>
      </trkpt>
      <trkpt lat="42.489895" lon="1.569114">
        <ele>2103.000000</ele>
        <time>2020-08-22T11:28:38Z</time>
      </trkpt>
      <trkpt lat="42.489895" lon="1.569114">
        <ele>2103.000000</ele>
        <time>2020-08-22T11:28:38Z</time>
      </trkpt>
      <trkpt lat="42.489876" lon="1.569116">
        <ele>2103.000000</ele>
        <time>2020-08-22T11:28:38Z</time>
      </trkpt>
      <trkpt lat="42.489876" lon="1.569116">
        <ele>2103.000000</ele>
        <time>2020-08-22T11:28:38Z</time>
      </trkpt>
      <trkpt lat="42.489861" lon="1.569118">
        <ele>2103.000000</ele>
        <time>2020-08-22T11:28:38Z</time>
      </trkpt>
      <trkpt lat="42.489861" lon="1.569118">
        <ele>2103.000000</ele>
        <time>2020-08-22T11:28:38Z</time>
      </trkpt>
      <trkpt lat="42.489845" lon="1.569119">
        <ele>2103.000000</ele>
        <time>2020-08-22T11:28:38Z</time>
      </trkpt>
      <trkpt lat="42.489845" lon="1.569119">
        <ele>2103.000000</ele>
        <time>2020-08-22T11:28:38Z</time>
      </trkpt>
      <trkpt lat="42.489834" lon="1.569120">
        <ele>2103.000000</ele>
        <time>2020-08-22T11:28:38Z</time>
      </trkpt>
      <trkpt lat="42.489834" lon="1.569120">
        <ele>2103.000000</ele>
        <time>2020-08-22T11:28:38Z</time>
      </trkpt>
      <trkpt lat="42.489819" lon="1.569121">
        <ele>2103.000000</ele>
        <time>2020-08-22T11:28:38Z</time>
      </trkpt>
      <trkpt lat="42.489819" lon="1.569121">
        <ele>2103.000000</ele>
        <time>2020-08-22T11:28:38Z</time>
      </trkpt>
      <trkpt lat="42.489807" lon="1.569122">
        <ele>2103.000000</ele>
        <time>2020-08-22T11:28:45Z</time>
      </trkpt>
      <trkpt lat="42.489807" lon="1.569122">
        <ele>2103.000000</ele>
        <time>2020-08-22T11:28:45Z</time>
      </trkpt>
      <trkpt lat="42.489784" lon="1.569129">
        <ele>2102.000000</ele>
        <time>2020-08-22T11:28:52Z</time>
      </trkpt>
      <trkpt lat="42.489784" lon="1.569129">
        <ele>2102.000000</ele>
        <time>2020-08-22T11:28:52Z</time>
      </trkpt>
      <trkpt lat="42.489761" lon="1.569137">
        <ele>2102.000000</ele>
        <time>2020-08-22T11:28:52Z</time>
      </trkpt>
      <trkpt lat="42.489761" lon="1.569137">
        <ele>2102.000000</ele>
        <time>2020-08-22T11:28:52Z</time>
      </trkpt>
      <trkpt lat="42.489738" lon="1.569144">
        <ele>2102.000000</ele>
        <time>2020-08-22T11:28:52Z</time>
      </trkpt>
      <trkpt lat="42.489738" lon="1.569144">
        <ele>2102.000000</ele>
        <time>2020-08-22T11:28:52Z</time>
      </trkpt>
      <trkpt lat="42.489716" lon="1.569150">
        <ele>2102.000000</ele>
        <time>2020-08-22T11:28:52Z</time>
      </trkpt>
      <trkpt lat="42.489716" lon="1.569150">
        <ele>2102.000000</ele>
        <time>2020-08-22T11:28:52Z</time>
      </trkpt>
      <trkpt lat="42.489696" lon="1.569156">
        <ele>2102.000000</ele>
        <time>2020-08-22T11:28:52Z</time>
      </trkpt>
      <trkpt lat="42.489696" lon="1.569156">
        <ele>2102.000000</ele>
        <time>2020-08-22T11:28:52Z</time>
      </trkpt>
      <trkpt lat="42.489674" lon="1.569162">
        <ele>2102.000000</ele>
        <time>2020-08-22T11:28:52Z</time>
      </trkpt>
      <trkpt lat="42.489674" lon="1.569162">
        <ele>2102.000000</ele>
        <time>2020-08-22T11:28:52Z</time>
      </trkpt>
      <trkpt lat="42.489655" lon="1.569168">
        <ele>2102.000000</ele>
        <time>2020-08-22T11:28:52Z</time>
      </trkpt>
      <trkpt lat="42.489655" lon="1.569168">
        <ele>2102.000000</ele>
        <time>2020-08-22T11:28:52Z</time>
      </trkpt>
      <trkpt lat="42.489635" lon="1.569174">
        <ele>2102.000000</ele>
        <time>2020-08-22T11:28:59Z</time>
      </trkpt>
      <trkpt lat="42.489635" lon="1.569174">
        <ele>2102.000000</ele>
        <time>2020-08-22T11:28:59Z</time>
      </trkpt>
      <trkpt lat="42.489616" lon="1.569179">
        <ele>2102.000000</ele>
        <time>2020-08-22T11:28:59Z</time>
      </trkpt>
      <trkpt lat="42.489616" lon="1.569179">
        <ele>2102.000000</ele>
        <time>2020-08-22T11:28:59Z</time>
      </trkpt>
      <trkpt lat="42.489597" lon="1.569183">
        <ele>2102.000000</ele>
        <time>2020-08-22T11:28:59Z</time>
      </trkpt>
      <trkpt lat="42.489597" lon="1.569183">
        <ele>2102.000000</ele>
        <time>2020-08-22T11:28:59Z</time>
      </trkpt>
      <trkpt lat="42.489586" lon="1.569183">
        <ele>2102.000000</ele>
        <time>2020-08-22T11:29:06Z</time>
      </trkpt>
      <trkpt lat="42.489586" lon="1.569183">
        <ele>2102.000000</ele>
        <time>2020-08-22T11:29:06Z</time>
      </trkpt>
      <trkpt lat="42.489574" lon="1.569183">
        <ele>2102.000000</ele>
        <time>2020-08-22T11:29:06Z</time>
      </trkpt>
      <trkpt lat="42.489574" lon="1.569183">
        <ele>2102.000000</ele>
        <time>2020-08-22T11:29:06Z</time>
      </trkpt>
      <trkpt lat="42.489567" lon="1.569182">
        <ele>2102.000000</ele>
        <time>2020-08-22T11:29:06Z</time>
      </trkpt>
      <trkpt lat="42.489567" lon="1.569182">
        <ele>2102.000000</ele>
        <time>2020-08-22T11:29:06Z</time>
      </trkpt>
      <trkpt lat="42.489559" lon="1.569179">
        <ele>2102.000000</ele>
        <time>2020-08-22T11:29:06Z</time>
      </trkpt>
      <trkpt lat="42.489559" lon="1.569179">
        <ele>2102.000000</ele>
        <time>2020-08-22T11:29:06Z</time>
      </trkpt>
      <trkpt lat="42.489548" lon="1.569175">
        <ele>2102.000000</ele>
        <time>2020-08-22T11:29:06Z</time>
      </trkpt>
      <trkpt lat="42.489548" lon="1.569175">
        <ele>2102.000000</ele>
        <time>2020-08-22T11:29:06Z</time>
      </trkpt>
      <trkpt lat="42.489540" lon="1.569170">
        <ele>2102.000000</ele>
        <time>2020-08-22T11:29:13Z</time>
      </trkpt>
      <trkpt lat="42.489540" lon="1.569170">
        <ele>2102.000000</ele>
        <time>2020-08-22T11:29:13Z</time>
      </trkpt>
      <trkpt lat="42.489532" lon="1.569165">
        <ele>2102.000000</ele>
        <time>2020-08-22T11:29:13Z</time>
      </trkpt>
      <trkpt lat="42.489532" lon="1.569165">
        <ele>2102.000000</ele>
        <time>2020-08-22T11:29:13Z</time>
      </trkpt>
      <trkpt lat="42.489529" lon="1.569160">
        <ele>2102.000000</ele>
        <time>2020-08-22T11:29:13Z</time>
      </trkpt>
      <trkpt lat="42.489529" lon="1.569160">
        <ele>2102.000000</ele>
        <time>2020-08-22T11:29:13Z</time>
      </trkpt>
      <trkpt lat="42.489521" lon="1.569155">
        <ele>2102.000000</ele>
        <time>2020-08-22T11:29:13Z</time>
      </trkpt>
      <trkpt lat="42.489521" lon="1.569155">
        <ele>2102.000000</ele>
        <time>2020-08-22T11:29:13Z</time>
      </trkpt>
      <trkpt lat="42.489513" lon="1.569150">
        <ele>2102.000000</ele>
        <time>2020-08-22T11:29:13Z</time>
      </trkpt>
      <trkpt lat="42.489513" lon="1.569150">
        <ele>2102.000000</ele>
        <time>2020-08-22T11:29:13Z</time>
      </trkpt>
      <trkpt lat="42.489510" lon="1.569141">
        <ele>2102.000000</ele>
        <time>2020-08-22T11:29:13Z</time>
      </trkpt>
      <trkpt lat="42.489510" lon="1.569141">
        <ele>2102.000000</ele>
        <time>2020-08-22T11:29:13Z</time>
      </trkpt>
      <trkpt lat="42.489506" lon="1.569133">
        <ele>2102.000000</ele>
        <time>2020-08-22T11:29:20Z</time>
      </trkpt>
      <trkpt lat="42.489506" lon="1.569133">
        <ele>2099.000000</ele>
        <time>2020-08-22T11:29:20Z</time>
      </trkpt>
      <trkpt lat="42.489498" lon="1.569127">
        <ele>2099.000000</ele>
        <time>2020-08-22T11:29:20Z</time>
      </trkpt>
      <trkpt lat="42.489498" lon="1.569127">
        <ele>2099.000000</ele>
        <time>2020-08-22T11:29:20Z</time>
      </trkpt>
      <trkpt lat="42.489494" lon="1.569124">
        <ele>2099.000000</ele>
        <time>2020-08-22T11:29:20Z</time>
      </trkpt>
      <trkpt lat="42.489494" lon="1.569124">
        <ele>2099.000000</ele>
        <time>2020-08-22T11:29:20Z</time>
      </trkpt>
      <trkpt lat="42.489487" lon="1.569122">
        <ele>2099.000000</ele>
        <time>2020-08-22T11:29:20Z</time>
      </trkpt>
      <trkpt lat="42.489487" lon="1.569122">
        <ele>2099.000000</ele>
        <time>2020-08-22T11:29:20Z</time>
      </trkpt>
      <trkpt lat="42.489479" lon="1.569122">
        <ele>2098.000000</ele>
        <time>2020-08-22T11:29:20Z</time>
      </trkpt>
      <trkpt lat="42.489479" lon="1.569122">
        <ele>2098.000000</ele>
        <time>2020-08-22T11:29:20Z</time>
      </trkpt>
      <trkpt lat="42.489468" lon="1.569122">
        <ele>2098.000000</ele>
        <time>2020-08-22T11:29:20Z</time>
      </trkpt>
      <trkpt lat="42.489468" lon="1.569122">
        <ele>2098.000000</ele>
        <time>2020-08-22T11:29:20Z</time>
      </trkpt>
      <trkpt lat="42.489460" lon="1.569123">
        <ele>2097.000000</ele>
        <time>2020-08-22T11:29:20Z</time>
      </trkpt>
      <trkpt lat="42.489460" lon="1.569123">
        <ele>2097.000000</ele>
        <time>2020-08-22T11:29:20Z</time>
      </trkpt>
      <trkpt lat="42.489452" lon="1.569125">
        <ele>2097.000000</ele>
        <time>2020-08-22T11:29:27Z</time>
      </trkpt>
      <trkpt lat="42.489452" lon="1.569125">
        <ele>2097.000000</ele>
        <time>2020-08-22T11:29:27Z</time>
      </trkpt>
      <trkpt lat="42.489441" lon="1.569126">
        <ele>2097.000000</ele>
        <time>2020-08-22T11:29:27Z</time>
      </trkpt>
      <trkpt lat="42.489441" lon="1.569126">
        <ele>2097.000000</ele>
        <time>2020-08-22T11:29:27Z</time>
      </trkpt>
      <trkpt lat="42.489433" lon="1.569126">
        <ele>2097.000000</ele>
        <time>2020-08-22T11:29:27Z</time>
      </trkpt>
      <trkpt lat="42.489433" lon="1.569126">
        <ele>2097.000000</ele>
        <time>2020-08-22T11:29:27Z</time>
      </trkpt>
      <trkpt lat="42.489426" lon="1.569124">
        <ele>2097.000000</ele>
        <time>2020-08-22T11:29:27Z</time>
      </trkpt>
      <trkpt lat="42.489426" lon="1.569124">
        <ele>2097.000000</ele>
        <time>2020-08-22T11:29:27Z</time>
      </trkpt>
      <trkpt lat="42.489414" lon="1.569120">
        <ele>2097.000000</ele>
        <time>2020-08-22T11:29:27Z</time>
      </trkpt>
      <trkpt lat="42.489414" lon="1.569120">
        <ele>2097.000000</ele>
        <time>2020-08-22T11:29:27Z</time>
      </trkpt>
      <trkpt lat="42.489407" lon="1.569115">
        <ele>2097.000000</ele>
        <time>2020-08-22T11:29:27Z</time>
      </trkpt>
      <trkpt lat="42.489407" lon="1.569115">
        <ele>2097.000000</ele>
        <time>2020-08-22T11:29:27Z</time>
      </trkpt>
      <trkpt lat="42.489395" lon="1.569109">
        <ele>2097.000000</ele>
        <time>2020-08-22T11:29:27Z</time>
      </trkpt>
      <trkpt lat="42.489395" lon="1.569109">
        <ele>2097.000000</ele>
        <time>2020-08-22T11:29:27Z</time>
      </trkpt>
      <trkpt lat="42.489388" lon="1.569101">
        <ele>2097.000000</ele>
        <time>2020-08-22T11:29:34Z</time>
      </trkpt>
      <trkpt lat="42.489388" lon="1.569101">
        <ele>2097.000000</ele>
        <time>2020-08-22T11:29:34Z</time>
      </trkpt>
      <trkpt lat="42.489380" lon="1.569092">
        <ele>2097.000000</ele>
        <time>2020-08-22T11:29:34Z</time>
      </trkpt>
      <trkpt lat="42.489380" lon="1.569092">
        <ele>2097.000000</ele>
        <time>2020-08-22T11:29:34Z</time>
      </trkpt>
      <trkpt lat="42.489372" lon="1.569084">
        <ele>2097.000000</ele>
        <time>2020-08-22T11:29:34Z</time>
      </trkpt>
      <trkpt lat="42.489372" lon="1.569084">
        <ele>2097.000000</ele>
        <time>2020-08-22T11:29:34Z</time>
      </trkpt>
      <trkpt lat="42.489368" lon="1.569075">
        <ele>2097.000000</ele>
        <time>2020-08-22T11:29:34Z</time>
      </trkpt>
      <trkpt lat="42.489368" lon="1.569075">
        <ele>2097.000000</ele>
        <time>2020-08-22T11:29:34Z</time>
      </trkpt>
      <trkpt lat="42.489365" lon="1.569067">
        <ele>2097.000000</ele>
        <time>2020-08-22T11:29:34Z</time>
      </trkpt>
      <trkpt lat="42.489365" lon="1.569067">
        <ele>2097.000000</ele>
        <time>2020-08-22T11:29:34Z</time>
      </trkpt>
      <trkpt lat="42.489361" lon="1.569056">
        <ele>2097.000000</ele>
        <time>2020-08-22T11:29:34Z</time>
      </trkpt>
      <trkpt lat="42.489361" lon="1.569056">
        <ele>2097.000000</ele>
        <time>2020-08-22T11:29:34Z</time>
      </trkpt>
      <trkpt lat="42.489353" lon="1.569046">
        <ele>2097.000000</ele>
        <time>2020-08-22T11:29:34Z</time>
      </trkpt>
      <trkpt lat="42.489353" lon="1.569046">
        <ele>2097.000000</ele>
        <time>2020-08-22T11:29:34Z</time>
      </trkpt>
      <trkpt lat="42.489346" lon="1.569035">
        <ele>2097.000000</ele>
        <time>2020-08-22T11:29:34Z</time>
      </trkpt>
      <trkpt lat="42.489346" lon="1.569035">
        <ele>2097.000000</ele>
        <time>2020-08-22T11:29:34Z</time>
      </trkpt>
      <trkpt lat="42.489338" lon="1.569026">
        <ele>2097.000000</ele>
        <time>2020-08-22T11:29:34Z</time>
      </trkpt>
      <trkpt lat="42.489338" lon="1.569026">
        <ele>2097.000000</ele>
        <time>2020-08-22T11:29:34Z</time>
      </trkpt>
      <trkpt lat="42.489330" lon="1.569017">
        <ele>2097.000000</ele>
        <time>2020-08-22T11:29:41Z</time>
      </trkpt>
      <trkpt lat="42.489330" lon="1.569017">
        <ele>2097.000000</ele>
        <time>2020-08-22T11:29:41Z</time>
      </trkpt>
      <trkpt lat="42.489323" lon="1.569008">
        <ele>2097.000000</ele>
        <time>2020-08-22T11:29:41Z</time>
      </trkpt>
      <trkpt lat="42.489323" lon="1.569008">
        <ele>2097.000000</ele>
        <time>2020-08-22T11:29:41Z</time>
      </trkpt>
      <trkpt lat="42.489315" lon="1.569000">
        <ele>2097.000000</ele>
        <time>2020-08-22T11:29:41Z</time>
      </trkpt>
      <trkpt lat="42.489315" lon="1.569000">
        <ele>2089.000000</ele>
        <time>2020-08-22T11:29:41Z</time>
      </trkpt>
      <trkpt lat="42.489304" lon="1.568992">
        <ele>2089.000000</ele>
        <time>2020-08-22T11:29:41Z</time>
      </trkpt>
      <trkpt lat="42.489304" lon="1.568992">
        <ele>2089.000000</ele>
        <time>2020-08-22T11:29:41Z</time>
      </trkpt>
      <trkpt lat="42.489292" lon="1.568985">
        <ele>2088.000000</ele>
        <time>2020-08-22T11:29:41Z</time>
      </trkpt>
      <trkpt lat="42.489292" lon="1.568985">
        <ele>2088.000000</ele>
        <time>2020-08-22T11:29:41Z</time>
      </trkpt>
      <trkpt lat="42.489281" lon="1.568980">
        <ele>2088.000000</ele>
        <time>2020-08-22T11:29:41Z</time>
      </trkpt>
      <trkpt lat="42.489281" lon="1.568980">
        <ele>2087.000000</ele>
        <time>2020-08-22T11:29:41Z</time>
      </trkpt>
      <trkpt lat="42.489285" lon="1.568975">
        <ele>2087.000000</ele>
        <time>2020-08-22T11:29:41Z</time>
      </trkpt>
      <trkpt lat="42.489285" lon="1.568975">
        <ele>2087.000000</ele>
        <time>2020-08-22T11:29:41Z</time>
      </trkpt>
      <trkpt lat="42.489285" lon="1.568969">
        <ele>2087.000000</ele>
        <time>2020-08-22T11:29:41Z</time>
      </trkpt>
      <trkpt lat="42.489285" lon="1.568969">
        <ele>2086.000000</ele>
        <time>2020-08-22T11:29:41Z</time>
      </trkpt>
      <trkpt lat="42.489285" lon="1.568961">
        <ele>2086.000000</ele>
        <time>2020-08-22T11:29:48Z</time>
      </trkpt>
      <trkpt lat="42.489285" lon="1.568961">
        <ele>2086.000000</ele>
        <time>2020-08-22T11:29:48Z</time>
      </trkpt>
      <trkpt lat="42.489292" lon="1.568951">
        <ele>2086.000000</ele>
        <time>2020-08-22T11:29:48Z</time>
      </trkpt>
      <trkpt lat="42.489292" lon="1.568951">
        <ele>2086.000000</ele>
        <time>2020-08-22T11:29:48Z</time>
      </trkpt>
      <trkpt lat="42.489296" lon="1.568941">
        <ele>2086.000000</ele>
        <time>2020-08-22T11:29:48Z</time>
      </trkpt>
      <trkpt lat="42.489296" lon="1.568941">
        <ele>2086.000000</ele>
        <time>2020-08-22T11:29:48Z</time>
      </trkpt>
      <trkpt lat="42.489300" lon="1.568929">
        <ele>2086.000000</ele>
        <time>2020-08-22T11:29:48Z</time>
      </trkpt>
      <trkpt lat="42.489300" lon="1.568929">
        <ele>2086.000000</ele>
        <time>2020-08-22T11:29:48Z</time>
      </trkpt>
      <trkpt lat="42.489307" lon="1.568917">
        <ele>2086.000000</ele>
        <time>2020-08-22T11:29:48Z</time>
      </trkpt>
      <trkpt lat="42.489307" lon="1.568917">
        <ele>2086.000000</ele>
        <time>2020-08-22T11:29:48Z</time>
      </trkpt>
      <trkpt lat="42.489311" lon="1.568902">
        <ele>2086.000000</ele>
        <time>2020-08-22T11:29:48Z</time>
      </trkpt>
      <trkpt lat="42.489311" lon="1.568902">
        <ele>2086.000000</ele>
        <time>2020-08-22T11:29:48Z</time>
      </trkpt>
      <trkpt lat="42.489319" lon="1.568884">
        <ele>2086.000000</ele>
        <time>2020-08-22T11:29:48Z</time>
      </trkpt>
      <trkpt lat="42.489319" lon="1.568884">
        <ele>2085.000000</ele>
        <time>2020-08-22T11:29:48Z</time>
      </trkpt>
      <trkpt lat="42.489323" lon="1.568865">
        <ele>2085.000000</ele>
        <time>2020-08-22T11:29:56Z</time>
      </trkpt>
      <trkpt lat="42.489323" lon="1.568865">
        <ele>2085.000000</ele>
        <time>2020-08-22T11:29:56Z</time>
      </trkpt>
      <trkpt lat="42.489319" lon="1.568842">
        <ele>2085.000000</ele>
        <time>2020-08-22T11:29:56Z</time>
      </trkpt>
      <trkpt lat="42.489319" lon="1.568842">
        <ele>2085.000000</ele>
        <time>2020-08-22T11:29:56Z</time>
      </trkpt>
      <trkpt lat="42.489311" lon="1.568822">
        <ele>2085.000000</ele>
        <time>2020-08-22T11:29:56Z</time>
      </trkpt>
      <trkpt lat="42.489311" lon="1.568822">
        <ele>2085.000000</ele>
        <time>2020-08-22T11:29:56Z</time>
      </trkpt>
      <trkpt lat="42.489300" lon="1.568804">
        <ele>2084.000000</ele>
        <time>2020-08-22T11:29:56Z</time>
      </trkpt>
      <trkpt lat="42.489300" lon="1.568804">
        <ele>2084.000000</ele>
        <time>2020-08-22T11:29:56Z</time>
      </trkpt>
      <trkpt lat="42.489292" lon="1.568786">
        <ele>2084.000000</ele>
        <time>2020-08-22T11:29:56Z</time>
      </trkpt>
      <trkpt lat="42.489292" lon="1.568786">
        <ele>2084.000000</ele>
        <time>2020-08-22T11:29:56Z</time>
      </trkpt>
      <trkpt lat="42.489285" lon="1.568769">
        <ele>2084.000000</ele>
        <time>2020-08-22T11:29:56Z</time>
      </trkpt>
      <trkpt lat="42.489285" lon="1.568769">
        <ele>2084.000000</ele>
        <time>2020-08-22T11:29:56Z</time>
      </trkpt>
      <trkpt lat="42.489273" lon="1.568752">
        <ele>2084.000000</ele>
        <time>2020-08-22T11:29:56Z</time>
      </trkpt>
      <trkpt lat="42.489273" lon="1.568752">
        <ele>2084.000000</ele>
        <time>2020-08-22T11:29:56Z</time>
      </trkpt>
      <trkpt lat="42.489265" lon="1.568736">
        <ele>2084.000000</ele>
        <time>2020-08-22T11:30:03Z</time>
      </trkpt>
      <trkpt lat="42.489265" lon="1.568736">
        <ele>2084.000000</ele>
        <time>2020-08-22T11:30:03Z</time>
      </trkpt>
      <trkpt lat="42.489254" lon="1.568721">
        <ele>2084.000000</ele>
        <time>2020-08-22T11:30:03Z</time>
      </trkpt>
      <trkpt lat="42.489254" lon="1.568721">
        <ele>2084.000000</ele>
        <time>2020-08-22T11:30:03Z</time>
      </trkpt>
      <trkpt lat="42.489246" lon="1.568706">
        <ele>2084.000000</ele>
        <time>2020-08-22T11:30:03Z</time>
      </trkpt>
      <trkpt lat="42.489246" lon="1.568706">
        <ele>2084.000000</ele>
        <time>2020-08-22T11:30:03Z</time>
      </trkpt>
      <trkpt lat="42.489235" lon="1.568692">
        <ele>2084.000000</ele>
        <time>2020-08-22T11:30:03Z</time>
      </trkpt>
      <trkpt lat="42.489235" lon="1.568692">
        <ele>2084.000000</ele>
        <time>2020-08-22T11:30:03Z</time>
      </trkpt>
      <trkpt lat="42.489227" lon="1.568683">
        <ele>2083.000000</ele>
        <time>2020-08-22T11:30:03Z</time>
      </trkpt>
      <trkpt lat="42.489227" lon="1.568683">
        <ele>2083.000000</ele>
        <time>2020-08-22T11:30:03Z</time>
      </trkpt>
      <trkpt lat="42.489220" lon="1.568673">
        <ele>2083.000000</ele>
        <time>2020-08-22T11:30:10Z</time>
      </trkpt>
      <trkpt lat="42.489220" lon="1.568673">
        <ele>2083.000000</ele>
        <time>2020-08-22T11:30:10Z</time>
      </trkpt>
      <trkpt lat="42.489212" lon="1.568663">
        <ele>2083.000000</ele>
        <time>2020-08-22T11:30:10Z</time>
      </trkpt>
      <trkpt lat="42.489212" lon="1.568663">
        <ele>2083.000000</ele>
        <time>2020-08-22T11:30:10Z</time>
      </trkpt>
      <trkpt lat="42.489204" lon="1.568653">
        <ele>2083.000000</ele>
        <time>2020-08-22T11:30:10Z</time>
      </trkpt>
      <trkpt lat="42.489204" lon="1.568653">
        <ele>2083.000000</ele>
        <time>2020-08-22T11:30:10Z</time>
      </trkpt>
      <trkpt lat="42.489193" lon="1.568644">
        <ele>2083.000000</ele>
        <time>2020-08-22T11:30:10Z</time>
      </trkpt>
      <trkpt lat="42.489193" lon="1.568644">
        <ele>2083.000000</ele>
        <time>2020-08-22T11:30:10Z</time>
      </trkpt>
      <trkpt lat="42.489185" lon="1.568636">
        <ele>2083.000000</ele>
        <time>2020-08-22T11:30:10Z</time>
      </trkpt>
      <trkpt lat="42.489185" lon="1.568636">
        <ele>2083.000000</ele>
        <time>2020-08-22T11:30:10Z</time>
      </trkpt>
      <trkpt lat="42.489178" lon="1.568629">
        <ele>2083.000000</ele>
        <time>2020-08-22T11:30:10Z</time>
      </trkpt>
      <trkpt lat="42.489178" lon="1.568629">
        <ele>2083.000000</ele>
        <time>2020-08-22T11:30:10Z</time>
      </trkpt>
      <trkpt lat="42.489166" lon="1.568622">
        <ele>2083.000000</ele>
        <time>2020-08-22T11:30:10Z</time>
      </trkpt>
      <trkpt lat="42.489166" lon="1.568622">
        <ele>2083.000000</ele>
        <time>2020-08-22T11:30:10Z</time>
      </trkpt>
      <trkpt lat="42.489159" lon="1.568616">
        <ele>2083.000000</ele>
        <time>2020-08-22T11:30:17Z</time>
      </trkpt>
      <trkpt lat="42.489159" lon="1.568616">
        <ele>2083.000000</ele>
        <time>2020-08-22T11:30:17Z</time>
      </trkpt>
      <trkpt lat="42.489151" lon="1.568610">
        <ele>2083.000000</ele>
        <time>2020-08-22T11:30:17Z</time>
      </trkpt>
      <trkpt lat="42.489151" lon="1.568610">
        <ele>2083.000000</ele>
        <time>2020-08-22T11:30:17Z</time>
      </trkpt>
      <trkpt lat="42.489147" lon="1.568603">
        <ele>2083.000000</ele>
        <time>2020-08-22T11:30:17Z</time>
      </trkpt>
      <trkpt lat="42.489147" lon="1.568603">
        <ele>2083.000000</ele>
        <time>2020-08-22T11:30:17Z</time>
      </trkpt>
      <trkpt lat="42.489140" lon="1.568595">
        <ele>2083.000000</ele>
        <time>2020-08-22T11:30:17Z</time>
      </trkpt>
      <trkpt lat="42.489140" lon="1.568595">
        <ele>2083.000000</ele>
        <time>2020-08-22T11:30:17Z</time>
      </trkpt>
      <trkpt lat="42.489132" lon="1.568586">
        <ele>2083.000000</ele>
        <time>2020-08-22T11:30:17Z</time>
      </trkpt>
      <trkpt lat="42.489132" lon="1.568586">
        <ele>2083.000000</ele>
        <time>2020-08-22T11:30:17Z</time>
      </trkpt>
      <trkpt lat="42.489120" lon="1.568576">
        <ele>2083.000000</ele>
        <time>2020-08-22T11:30:17Z</time>
      </trkpt>
      <trkpt lat="42.489120" lon="1.568576">
        <ele>2083.000000</ele>
        <time>2020-08-22T11:30:17Z</time>
      </trkpt>
      <trkpt lat="42.489109" lon="1.568565">
        <ele>2083.000000</ele>
        <time>2020-08-22T11:30:17Z</time>
      </trkpt>
      <trkpt lat="42.489109" lon="1.568565">
        <ele>2083.000000</ele>
        <time>2020-08-22T11:30:17Z</time>
      </trkpt>
      <trkpt lat="42.489098" lon="1.568553">
        <ele>2083.000000</ele>
        <time>2020-08-22T11:30:24Z</time>
      </trkpt>
      <trkpt lat="42.489098" lon="1.568553">
        <ele>2083.000000</ele>
        <time>2020-08-22T11:30:24Z</time>
      </trkpt>
      <trkpt lat="42.489086" lon="1.568540">
        <ele>2083.000000</ele>
        <time>2020-08-22T11:30:24Z</time>
      </trkpt>
      <trkpt lat="42.489086" lon="1.568540">
        <ele>2083.000000</ele>
        <time>2020-08-22T11:30:24Z</time>
      </trkpt>
      <trkpt lat="42.489075" lon="1.568526">
        <ele>2083.000000</ele>
        <time>2020-08-22T11:30:24Z</time>
      </trkpt>
      <trkpt lat="42.489075" lon="1.568526">
        <ele>2083.000000</ele>
        <time>2020-08-22T11:30:24Z</time>
      </trkpt>
      <trkpt lat="42.489059" lon="1.568513">
        <ele>2083.000000</ele>
        <time>2020-08-22T11:30:24Z</time>
      </trkpt>
      <trkpt lat="42.489059" lon="1.568513">
        <ele>2083.000000</ele>
        <time>2020-08-22T11:30:24Z</time>
      </trkpt>
      <trkpt lat="42.489048" lon="1.568502">
        <ele>2083.000000</ele>
        <time>2020-08-22T11:30:24Z</time>
      </trkpt>
      <trkpt lat="42.489048" lon="1.568502">
        <ele>2083.000000</ele>
        <time>2020-08-22T11:30:24Z</time>
      </trkpt>
      <trkpt lat="42.489037" lon="1.568461">
        <ele>2083.000000</ele>
        <time>2020-08-22T11:30:24Z</time>
      </trkpt>
      <trkpt lat="42.489037" lon="1.568461">
        <ele>2083.000000</ele>
        <time>2020-08-22T11:30:24Z</time>
      </trkpt>
      <trkpt lat="42.489029" lon="1.568423">
        <ele>2083.000000</ele>
        <time>2020-08-22T11:30:24Z</time>
      </trkpt>
      <trkpt lat="42.489029" lon="1.568423">
        <ele>2083.000000</ele>
        <time>2020-08-22T11:30:24Z</time>
      </trkpt>
      <trkpt lat="42.489025" lon="1.568387">
        <ele>2083.000000</ele>
        <time>2020-08-22T11:30:31Z</time>
      </trkpt>
      <trkpt lat="42.489025" lon="1.568387">
        <ele>2083.000000</ele>
        <time>2020-08-22T11:30:31Z</time>
      </trkpt>
      <trkpt lat="42.489025" lon="1.568352">
        <ele>2083.000000</ele>
        <time>2020-08-22T11:30:31Z</time>
      </trkpt>
      <trkpt lat="42.489025" lon="1.568352">
        <ele>2083.000000</ele>
        <time>2020-08-22T11:30:31Z</time>
      </trkpt>
      <trkpt lat="42.489025" lon="1.568319">
        <ele>2083.000000</ele>
        <time>2020-08-22T11:30:31Z</time>
      </trkpt>
      <trkpt lat="42.489025" lon="1.568319">
        <ele>2083.000000</ele>
        <time>2020-08-22T11:30:31Z</time>
      </trkpt>
      <trkpt lat="42.489029" lon="1.568288">
        <ele>2083.000000</ele>
        <time>2020-08-22T11:30:31Z</time>
      </trkpt>
      <trkpt lat="42.489029" lon="1.568288">
        <ele>2083.000000</ele>
        <time>2020-08-22T11:30:31Z</time>
      </trkpt>
      <trkpt lat="42.489037" lon="1.568259">
        <ele>2083.000000</ele>
        <time>2020-08-22T11:30:31Z</time>
      </trkpt>
      <trkpt lat="42.489037" lon="1.568259">
        <ele>2083.000000</ele>
        <time>2020-08-22T11:30:31Z</time>
      </trkpt>
      <trkpt lat="42.489044" lon="1.568233">
        <ele>2083.000000</ele>
        <time>2020-08-22T11:30:31Z</time>
      </trkpt>
      <trkpt lat="42.489044" lon="1.568233">
        <ele>2083.000000</ele>
        <time>2020-08-22T11:30:31Z</time>
      </trkpt>
      <trkpt lat="42.489052" lon="1.568206">
        <ele>2083.000000</ele>
        <time>2020-08-22T11:30:31Z</time>
      </trkpt>
      <trkpt lat="42.489052" lon="1.568206">
        <ele>2083.000000</ele>
        <time>2020-08-22T11:30:31Z</time>
      </trkpt>
      <trkpt lat="42.489067" lon="1.568180">
        <ele>2083.000000</ele>
        <time>2020-08-22T11:30:38Z</time>
      </trkpt>
      <trkpt lat="42.489067" lon="1.568180">
        <ele>2083.000000</ele>
        <time>2020-08-22T11:30:38Z</time>
      </trkpt>
      <trkpt lat="42.489079" lon="1.568181">
        <ele>2083.000000</ele>
        <time>2020-08-22T11:30:38Z</time>
      </trkpt>
      <trkpt lat="42.489079" lon="1.568181">
        <ele>2083.000000</ele>
        <time>2020-08-22T11:30:38Z</time>
      </trkpt>
      <trkpt lat="42.489086" lon="1.568181">
        <ele>2083.000000</ele>
        <time>2020-08-22T11:30:38Z</time>
      </trkpt>
      <trkpt lat="42.489086" lon="1.568181">
        <ele>2083.000000</ele>
        <time>2020-08-22T11:30:38Z</time>
      </trkpt>
      <trkpt lat="42.489098" lon="1.568179">
        <ele>2083.000000</ele>
        <time>2020-08-22T11:30:45Z</time>
      </trkpt>
      <trkpt lat="42.489098" lon="1.568179">
        <ele>2083.000000</ele>
        <time>2020-08-22T11:30:45Z</time>
      </trkpt>
      <trkpt lat="42.489101" lon="1.568175">
        <ele>2084.000000</ele>
        <time>2020-08-22T11:30:45Z</time>
      </trkpt>
      <trkpt lat="42.489101" lon="1.568175">
        <ele>2084.000000</ele>
        <time>2020-08-22T11:30:45Z</time>
      </trkpt>
      <trkpt lat="42.489105" lon="1.568169">
        <ele>2084.000000</ele>
        <time>2020-08-22T11:30:45Z</time>
      </trkpt>
      <trkpt lat="42.489105" lon="1.568169">
        <ele>2084.000000</ele>
        <time>2020-08-22T11:30:45Z</time>
      </trkpt>
      <trkpt lat="42.489105" lon="1.568161">
        <ele>2084.000000</ele>
        <time>2020-08-22T11:30:45Z</time>
      </trkpt>
      <trkpt lat="42.489105" lon="1.568161">
        <ele>2084.000000</ele>
        <time>2020-08-22T11:30:45Z</time>
      </trkpt>
      <trkpt lat="42.489105" lon="1.568152">
        <ele>2084.000000</ele>
        <time>2020-08-22T11:30:45Z</time>
      </trkpt>
      <trkpt lat="42.489105" lon="1.568152">
        <ele>2084.000000</ele>
        <time>2020-08-22T11:30:45Z</time>
      </trkpt>
      <trkpt lat="42.489098" lon="1.568139">
        <ele>2084.000000</ele>
        <time>2020-08-22T11:30:45Z</time>
      </trkpt>
      <trkpt lat="42.489098" lon="1.568139">
        <ele>2084.000000</ele>
        <time>2020-08-22T11:30:45Z</time>
      </trkpt>
      <trkpt lat="42.489086" lon="1.568125">
        <ele>2084.000000</ele>
        <time>2020-08-22T11:30:45Z</time>
      </trkpt>
      <trkpt lat="42.489086" lon="1.568125">
        <ele>2084.000000</ele>
        <time>2020-08-22T11:30:45Z</time>
      </trkpt>
      <trkpt lat="42.489079" lon="1.568110">
        <ele>2084.000000</ele>
        <time>2020-08-22T11:30:52Z</time>
      </trkpt>
      <trkpt lat="42.489079" lon="1.568110">
        <ele>2084.000000</ele>
        <time>2020-08-22T11:30:52Z</time>
      </trkpt>
      <trkpt lat="42.489059" lon="1.568083">
        <ele>2084.000000</ele>
        <time>2020-08-22T11:30:52Z</time>
      </trkpt>
      <trkpt lat="42.489059" lon="1.568083">
        <ele>2084.000000</ele>
        <time>2020-08-22T11:30:52Z</time>
      </trkpt>
      <trkpt lat="42.489044" lon="1.568056">
        <ele>2084.000000</ele>
        <time>2020-08-22T11:30:59Z</time>
      </trkpt>
      <trkpt lat="42.489044" lon="1.568056">
        <ele>2084.000000</ele>
        <time>2020-08-22T11:30:59Z</time>
      </trkpt>
      <trkpt lat="42.489025" lon="1.568030">
        <ele>2084.000000</ele>
        <time>2020-08-22T11:30:59Z</time>
      </trkpt>
      <trkpt lat="42.489025" lon="1.568030">
        <ele>2084.000000</ele>
        <time>2020-08-22T11:30:59Z</time>
      </trkpt>
      <trkpt lat="42.489010" lon="1.568003">
        <ele>2084.000000</ele>
        <time>2020-08-22T11:30:59Z</time>
      </trkpt>
      <trkpt lat="42.489010" lon="1.568003">
        <ele>2084.000000</ele>
        <time>2020-08-22T11:30:59Z</time>
      </trkpt>
      <trkpt lat="42.488991" lon="1.567977">
        <ele>2084.000000</ele>
        <time>2020-08-22T11:30:59Z</time>
      </trkpt>
      <trkpt lat="42.488991" lon="1.567977">
        <ele>2084.000000</ele>
        <time>2020-08-22T11:30:59Z</time>
      </trkpt>
      <trkpt lat="42.488976" lon="1.567951">
        <ele>2084.000000</ele>
        <time>2020-08-22T11:30:59Z</time>
      </trkpt>
      <trkpt lat="42.488976" lon="1.567951">
        <ele>2084.000000</ele>
        <time>2020-08-22T11:30:59Z</time>
      </trkpt>
      <trkpt lat="42.488964" lon="1.567925">
        <ele>2084.000000</ele>
        <time>2020-08-22T11:30:59Z</time>
      </trkpt>
      <trkpt lat="42.488964" lon="1.567925">
        <ele>2084.000000</ele>
        <time>2020-08-22T11:30:59Z</time>
      </trkpt>
      <trkpt lat="42.488953" lon="1.567898">
        <ele>2084.000000</ele>
        <time>2020-08-22T11:31:06Z</time>
      </trkpt>
      <trkpt lat="42.488953" lon="1.567898">
        <ele>2084.000000</ele>
        <time>2020-08-22T11:31:06Z</time>
      </trkpt>
      <trkpt lat="42.488941" lon="1.567871">
        <ele>2084.000000</ele>
        <time>2020-08-22T11:31:06Z</time>
      </trkpt>
      <trkpt lat="42.488941" lon="1.567871">
        <ele>2084.000000</ele>
        <time>2020-08-22T11:31:06Z</time>
      </trkpt>
      <trkpt lat="42.488934" lon="1.567844">
        <ele>2084.000000</ele>
        <time>2020-08-22T11:31:06Z</time>
      </trkpt>
      <trkpt lat="42.488934" lon="1.567844">
        <ele>2084.000000</ele>
        <time>2020-08-22T11:31:06Z</time>
      </trkpt>
      <trkpt lat="42.488941" lon="1.567833">
        <ele>2084.000000</ele>
        <time>2020-08-22T11:31:06Z</time>
      </trkpt>
      <trkpt lat="42.488941" lon="1.567833">
        <ele>2084.000000</ele>
        <time>2020-08-22T11:31:06Z</time>
      </trkpt>
      <trkpt lat="42.488949" lon="1.567823">
        <ele>2084.000000</ele>
        <time>2020-08-22T11:31:06Z</time>
      </trkpt>
      <trkpt lat="42.488949" lon="1.567823">
        <ele>2084.000000</ele>
        <time>2020-08-22T11:31:06Z</time>
      </trkpt>
      <trkpt lat="42.488956" lon="1.567813">
        <ele>2084.000000</ele>
        <time>2020-08-22T11:31:06Z</time>
      </trkpt>
      <trkpt lat="42.488956" lon="1.567813">
        <ele>2084.000000</ele>
        <time>2020-08-22T11:31:06Z</time>
      </trkpt>
      <trkpt lat="42.488968" lon="1.567805">
        <ele>2084.000000</ele>
        <time>2020-08-22T11:31:06Z</time>
      </trkpt>
      <trkpt lat="42.488968" lon="1.567805">
        <ele>2084.000000</ele>
        <time>2020-08-22T11:31:06Z</time>
      </trkpt>
      <trkpt lat="42.488976" lon="1.567797">
        <ele>2084.000000</ele>
        <time>2020-08-22T11:31:13Z</time>
      </trkpt>
      <trkpt lat="42.488976" lon="1.567797">
        <ele>2084.000000</ele>
        <time>2020-08-22T11:31:13Z</time>
      </trkpt>
      <trkpt lat="42.488987" lon="1.567789">
        <ele>2084.000000</ele>
        <time>2020-08-22T11:31:13Z</time>
      </trkpt>
      <trkpt lat="42.488987" lon="1.567789">
        <ele>2084.000000</ele>
        <time>2020-08-22T11:31:13Z</time>
      </trkpt>
      <trkpt lat="42.488995" lon="1.567782">
        <ele>2084.000000</ele>
        <time>2020-08-22T11:31:13Z</time>
      </trkpt>
      <trkpt lat="42.488995" lon="1.567782">
        <ele>2084.000000</ele>
        <time>2020-08-22T11:31:13Z</time>
      </trkpt>
      <trkpt lat="42.489002" lon="1.567776">
        <ele>2084.000000</ele>
        <time>2020-08-22T11:31:13Z</time>
      </trkpt>
      <trkpt lat="42.489002" lon="1.567776">
        <ele>2084.000000</ele>
        <time>2020-08-22T11:31:13Z</time>
      </trkpt>
      <trkpt lat="42.489010" lon="1.567770">
        <ele>2084.000000</ele>
        <time>2020-08-22T11:31:13Z</time>
      </trkpt>
      <trkpt lat="42.489010" lon="1.567770">
        <ele>2084.000000</ele>
        <time>2020-08-22T11:31:13Z</time>
      </trkpt>
      <trkpt lat="42.489017" lon="1.567764">
        <ele>2084.000000</ele>
        <time>2020-08-22T11:31:13Z</time>
      </trkpt>
      <trkpt lat="42.489017" lon="1.567764">
        <ele>2084.000000</ele>
        <time>2020-08-22T11:31:13Z</time>
      </trkpt>
      <trkpt lat="42.489017" lon="1.567755">
        <ele>2084.000000</ele>
        <time>2020-08-22T11:31:13Z</time>
      </trkpt>
      <trkpt lat="42.489017" lon="1.567755">
        <ele>2084.000000</ele>
        <time>2020-08-22T11:31:13Z</time>
      </trkpt>
      <trkpt lat="42.489014" lon="1.567745">
        <ele>2084.000000</ele>
        <time>2020-08-22T11:31:21Z</time>
      </trkpt>
      <trkpt lat="42.489014" lon="1.567745">
        <ele>2084.000000</ele>
        <time>2020-08-22T11:31:21Z</time>
      </trkpt>
      <trkpt lat="42.489010" lon="1.567736">
        <ele>2084.000000</ele>
        <time>2020-08-22T11:31:21Z</time>
      </trkpt>
      <trkpt lat="42.489010" lon="1.567736">
        <ele>2084.000000</ele>
        <time>2020-08-22T11:31:21Z</time>
      </trkpt>
      <trkpt lat="42.489002" lon="1.567726">
        <ele>2084.000000</ele>
        <time>2020-08-22T11:31:21Z</time>
      </trkpt>
      <trkpt lat="42.489002" lon="1.567726">
        <ele>2084.000000</ele>
        <time>2020-08-22T11:31:21Z</time>
      </trkpt>
      <trkpt lat="42.488998" lon="1.567716">
        <ele>2084.000000</ele>
        <time>2020-08-22T11:31:21Z</time>
      </trkpt>
      <trkpt lat="42.488998" lon="1.567716">
        <ele>2084.000000</ele>
        <time>2020-08-22T11:31:21Z</time>
      </trkpt>
      <trkpt lat="42.488991" lon="1.567705">
        <ele>2084.000000</ele>
        <time>2020-08-22T11:31:21Z</time>
      </trkpt>
      <trkpt lat="42.488991" lon="1.567705">
        <ele>2084.000000</ele>
        <time>2020-08-22T11:31:21Z</time>
      </trkpt>
      <trkpt lat="42.488987" lon="1.567696">
        <ele>2084.000000</ele>
        <time>2020-08-22T11:31:21Z</time>
      </trkpt>
      <trkpt lat="42.488987" lon="1.567696">
        <ele>2084.000000</ele>
        <time>2020-08-22T11:31:21Z</time>
      </trkpt>
      <trkpt lat="42.488979" lon="1.567686">
        <ele>2084.000000</ele>
        <time>2020-08-22T11:31:21Z</time>
      </trkpt>
      <trkpt lat="42.488979" lon="1.567686">
        <ele>2084.000000</ele>
        <time>2020-08-22T11:31:21Z</time>
      </trkpt>
      <trkpt lat="42.488972" lon="1.567677">
        <ele>2084.000000</ele>
        <time>2020-08-22T11:31:21Z</time>
      </trkpt>
      <trkpt lat="42.488972" lon="1.567677">
        <ele>2084.000000</ele>
        <time>2020-08-22T11:31:21Z</time>
      </trkpt>
      <trkpt lat="42.488964" lon="1.567668">
        <ele>2084.000000</ele>
        <time>2020-08-22T11:31:21Z</time>
      </trkpt>
      <trkpt lat="42.488964" lon="1.567668">
        <ele>2084.000000</ele>
        <time>2020-08-22T11:31:21Z</time>
      </trkpt>
      <trkpt lat="42.488964" lon="1.567668">
        <ele>2084.000000</ele>
        <time>2020-08-22T11:31:28Z</time>
      </trkpt>
      <trkpt lat="42.488964" lon="1.567668">
        <ele>2084.000000</ele>
        <time>2020-08-22T11:31:28Z</time>
      </trkpt>
      <trkpt lat="42.488964" lon="1.567670">
        <ele>2084.000000</ele>
        <time>2020-08-22T11:31:28Z</time>
      </trkpt>
      <trkpt lat="42.488964" lon="1.567670">
        <ele>2084.000000</ele>
        <time>2020-08-22T11:31:28Z</time>
      </trkpt>
      <trkpt lat="42.488964" lon="1.567673">
        <ele>2084.000000</ele>
        <time>2020-08-22T11:31:28Z</time>
      </trkpt>
      <trkpt lat="42.488964" lon="1.567673">
        <ele>2084.000000</ele>
        <time>2020-08-22T11:31:28Z</time>
      </trkpt>
      <trkpt lat="42.488960" lon="1.567677">
        <ele>2084.000000</ele>
        <time>2020-08-22T11:31:28Z</time>
      </trkpt>
      <trkpt lat="42.488960" lon="1.567677">
        <ele>2084.000000</ele>
        <time>2020-08-22T11:31:28Z</time>
      </trkpt>
      <trkpt lat="42.488960" lon="1.567683">
        <ele>2084.000000</ele>
        <time>2020-08-22T11:31:28Z</time>
      </trkpt>
      <trkpt lat="42.488960" lon="1.567683">
        <ele>2084.000000</ele>
        <time>2020-08-22T11:31:28Z</time>
      </trkpt>
      <trkpt lat="42.488956" lon="1.567689">
        <ele>2084.000000</ele>
        <time>2020-08-22T11:31:28Z</time>
      </trkpt>
      <trkpt lat="42.488956" lon="1.567689">
        <ele>2084.000000</ele>
        <time>2020-08-22T11:31:28Z</time>
      </trkpt>
      <trkpt lat="42.488956" lon="1.567696">
        <ele>2084.000000</ele>
        <time>2020-08-22T11:31:28Z</time>
      </trkpt>
      <trkpt lat="42.488956" lon="1.567696">
        <ele>2084.000000</ele>
        <time>2020-08-22T11:31:28Z</time>
      </trkpt>
      <trkpt lat="42.488953" lon="1.567704">
        <ele>2084.000000</ele>
        <time>2020-08-22T11:31:35Z</time>
      </trkpt>
      <trkpt lat="42.488953" lon="1.567704">
        <ele>2084.000000</ele>
        <time>2020-08-22T11:31:35Z</time>
      </trkpt>
      <trkpt lat="42.488945" lon="1.567714">
        <ele>2084.000000</ele>
        <time>2020-08-22T11:31:35Z</time>
      </trkpt>
      <trkpt lat="42.488945" lon="1.567714">
        <ele>2081.000000</ele>
        <time>2020-08-22T11:31:35Z</time>
      </trkpt>
      <trkpt lat="42.488945" lon="1.567725">
        <ele>2081.000000</ele>
        <time>2020-08-22T11:31:35Z</time>
      </trkpt>
      <trkpt lat="42.488945" lon="1.567725">
        <ele>2081.000000</ele>
        <time>2020-08-22T11:31:35Z</time>
      </trkpt>
      <trkpt lat="42.488911" lon="1.567736">
        <ele>2081.000000</ele>
        <time>2020-08-22T11:31:35Z</time>
      </trkpt>
      <trkpt lat="42.488911" lon="1.567736">
        <ele>2081.000000</ele>
        <time>2020-08-22T11:31:35Z</time>
      </trkpt>
      <trkpt lat="42.488876" lon="1.567747">
        <ele>2081.000000</ele>
        <time>2020-08-22T11:31:35Z</time>
      </trkpt>
      <trkpt lat="42.488876" lon="1.567747">
        <ele>2081.000000</ele>
        <time>2020-08-22T11:31:35Z</time>
      </trkpt>
      <trkpt lat="42.488846" lon="1.567757">
        <ele>2081.000000</ele>
        <time>2020-08-22T11:31:42Z</time>
      </trkpt>
      <trkpt lat="42.488846" lon="1.567757">
        <ele>2081.000000</ele>
        <time>2020-08-22T11:31:42Z</time>
      </trkpt>
      <trkpt lat="42.488811" lon="1.567766">
        <ele>2081.000000</ele>
        <time>2020-08-22T11:31:42Z</time>
      </trkpt>
      <trkpt lat="42.488811" lon="1.567766">
        <ele>2080.000000</ele>
        <time>2020-08-22T11:31:42Z</time>
      </trkpt>
      <trkpt lat="42.488781" lon="1.567774">
        <ele>2080.000000</ele>
        <time>2020-08-22T11:31:42Z</time>
      </trkpt>
      <trkpt lat="42.488781" lon="1.567774">
        <ele>2080.000000</ele>
        <time>2020-08-22T11:31:42Z</time>
      </trkpt>
      <trkpt lat="42.488750" lon="1.567782">
        <ele>2080.000000</ele>
        <time>2020-08-22T11:31:42Z</time>
      </trkpt>
      <trkpt lat="42.488750" lon="1.567782">
        <ele>2079.000000</ele>
        <time>2020-08-22T11:31:42Z</time>
      </trkpt>
      <trkpt lat="42.488720" lon="1.567790">
        <ele>2079.000000</ele>
        <time>2020-08-22T11:31:42Z</time>
      </trkpt>
      <trkpt lat="42.488720" lon="1.567790">
        <ele>2079.000000</ele>
        <time>2020-08-22T11:31:42Z</time>
      </trkpt>
      <trkpt lat="42.488689" lon="1.567798">
        <ele>2079.000000</ele>
        <time>2020-08-22T11:31:42Z</time>
      </trkpt>
      <trkpt lat="42.488689" lon="1.567798">
        <ele>2079.000000</ele>
        <time>2020-08-22T11:31:42Z</time>
      </trkpt>
      <trkpt lat="42.488659" lon="1.567805">
        <ele>2078.000000</ele>
        <time>2020-08-22T11:31:49Z</time>
      </trkpt>
      <trkpt lat="42.488659" lon="1.567805">
        <ele>2078.000000</ele>
        <time>2020-08-22T11:31:49Z</time>
      </trkpt>
      <trkpt lat="42.488628" lon="1.567812">
        <ele>2078.000000</ele>
        <time>2020-08-22T11:31:49Z</time>
      </trkpt>
      <trkpt lat="42.488628" lon="1.567812">
        <ele>2078.000000</ele>
        <time>2020-08-22T11:31:49Z</time>
      </trkpt>
      <trkpt lat="42.488617" lon="1.567812">
        <ele>2077.000000</ele>
        <time>2020-08-22T11:31:49Z</time>
      </trkpt>
      <trkpt lat="42.488617" lon="1.567812">
        <ele>2077.000000</ele>
        <time>2020-08-22T11:31:49Z</time>
      </trkpt>
      <trkpt lat="42.488609" lon="1.567812">
        <ele>2077.000000</ele>
        <time>2020-08-22T11:31:49Z</time>
      </trkpt>
      <trkpt lat="42.488609" lon="1.567812">
        <ele>2077.000000</ele>
        <time>2020-08-22T11:31:49Z</time>
      </trkpt>
      <trkpt lat="42.488602" lon="1.567813">
        <ele>2076.000000</ele>
        <time>2020-08-22T11:31:49Z</time>
      </trkpt>
      <trkpt lat="42.488602" lon="1.567813">
        <ele>2076.000000</ele>
        <time>2020-08-22T11:31:49Z</time>
      </trkpt>
      <trkpt lat="42.488598" lon="1.567816">
        <ele>2076.000000</ele>
        <time>2020-08-22T11:31:49Z</time>
      </trkpt>
      <trkpt lat="42.488598" lon="1.567816">
        <ele>2076.000000</ele>
        <time>2020-08-22T11:31:49Z</time>
      </trkpt>
      <trkpt lat="42.488590" lon="1.567819">
        <ele>2075.000000</ele>
        <time>2020-08-22T11:31:56Z</time>
      </trkpt>
      <trkpt lat="42.488590" lon="1.567819">
        <ele>2075.000000</ele>
        <time>2020-08-22T11:31:56Z</time>
      </trkpt>
      <trkpt lat="42.488586" lon="1.567824">
        <ele>2075.000000</ele>
        <time>2020-08-22T11:31:56Z</time>
      </trkpt>
      <trkpt lat="42.488586" lon="1.567824">
        <ele>2074.000000</ele>
        <time>2020-08-22T11:31:56Z</time>
      </trkpt>
      <trkpt lat="42.488579" lon="1.567829">
        <ele>2074.000000</ele>
        <time>2020-08-22T11:32:03Z</time>
      </trkpt>
      <trkpt lat="42.488579" lon="1.567829">
        <ele>2074.000000</ele>
        <time>2020-08-22T11:32:03Z</time>
      </trkpt>
      <trkpt lat="42.488575" lon="1.567835">
        <ele>2074.000000</ele>
        <time>2020-08-22T11:32:03Z</time>
      </trkpt>
      <trkpt lat="42.488575" lon="1.567835">
        <ele>2073.000000</ele>
        <time>2020-08-22T11:32:03Z</time>
      </trkpt>
      <trkpt lat="42.488571" lon="1.567842">
        <ele>2073.000000</ele>
        <time>2020-08-22T11:32:03Z</time>
      </trkpt>
      <trkpt lat="42.488571" lon="1.567842">
        <ele>2073.000000</ele>
        <time>2020-08-22T11:32:03Z</time>
      </trkpt>
      <trkpt lat="42.488564" lon="1.567848">
        <ele>2073.000000</ele>
        <time>2020-08-22T11:32:03Z</time>
      </trkpt>
      <trkpt lat="42.488564" lon="1.567848">
        <ele>2072.000000</ele>
        <time>2020-08-22T11:32:03Z</time>
      </trkpt>
      <trkpt lat="42.488552" lon="1.567854">
        <ele>2072.000000</ele>
        <time>2020-08-22T11:32:03Z</time>
      </trkpt>
      <trkpt lat="42.488552" lon="1.567854">
        <ele>2072.000000</ele>
        <time>2020-08-22T11:32:03Z</time>
      </trkpt>
      <trkpt lat="42.488537" lon="1.567859">
        <ele>2072.000000</ele>
        <time>2020-08-22T11:32:03Z</time>
      </trkpt>
      <trkpt lat="42.488537" lon="1.567859">
        <ele>2071.000000</ele>
        <time>2020-08-22T11:32:03Z</time>
      </trkpt>
      <trkpt lat="42.488522" lon="1.567862">
        <ele>2071.000000</ele>
        <time>2020-08-22T11:32:03Z</time>
      </trkpt>
      <trkpt lat="42.488522" lon="1.567862">
        <ele>2071.000000</ele>
        <time>2020-08-22T11:32:03Z</time>
      </trkpt>
      <trkpt lat="42.488510" lon="1.567865">
        <ele>2071.000000</ele>
        <time>2020-08-22T11:32:03Z</time>
      </trkpt>
      <trkpt lat="42.488510" lon="1.567865">
        <ele>2071.000000</ele>
        <time>2020-08-22T11:32:03Z</time>
      </trkpt>
      <trkpt lat="42.488495" lon="1.567867">
        <ele>2071.000000</ele>
        <time>2020-08-22T11:32:03Z</time>
      </trkpt>
      <trkpt lat="42.488495" lon="1.567867">
        <ele>2071.000000</ele>
        <time>2020-08-22T11:32:03Z</time>
      </trkpt>
      <trkpt lat="42.488476" lon="1.567869">
        <ele>2070.000000</ele>
        <time>2020-08-22T11:32:03Z</time>
      </trkpt>
      <trkpt lat="42.488476" lon="1.567869">
        <ele>2070.000000</ele>
        <time>2020-08-22T11:32:03Z</time>
      </trkpt>
      <trkpt lat="42.488461" lon="1.567872">
        <ele>2070.000000</ele>
        <time>2020-08-22T11:32:03Z</time>
      </trkpt>
      <trkpt lat="42.488461" lon="1.567872">
        <ele>2069.000000</ele>
        <time>2020-08-22T11:32:03Z</time>
      </trkpt>
      <trkpt lat="42.488445" lon="1.567875">
        <ele>2069.000000</ele>
        <time>2020-08-22T11:32:10Z</time>
      </trkpt>
      <trkpt lat="42.488445" lon="1.567875">
        <ele>2069.000000</ele>
        <time>2020-08-22T11:32:10Z</time>
      </trkpt>
      <trkpt lat="42.488426" lon="1.567877">
        <ele>2069.000000</ele>
        <time>2020-08-22T11:32:10Z</time>
      </trkpt>
      <trkpt lat="42.488426" lon="1.567877">
        <ele>2068.000000</ele>
        <time>2020-08-22T11:32:10Z</time>
      </trkpt>
      <trkpt lat="42.488411" lon="1.567880">
        <ele>2068.000000</ele>
        <time>2020-08-22T11:32:10Z</time>
      </trkpt>
      <trkpt lat="42.488411" lon="1.567880">
        <ele>2068.000000</ele>
        <time>2020-08-22T11:32:10Z</time>
      </trkpt>
      <trkpt lat="42.488399" lon="1.567892">
        <ele>2068.000000</ele>
        <time>2020-08-22T11:32:10Z</time>
      </trkpt>
      <trkpt lat="42.488399" lon="1.567892">
        <ele>2068.000000</ele>
        <time>2020-08-22T11:32:10Z</time>
      </trkpt>
      <trkpt lat="42.488388" lon="1.567905">
        <ele>2068.000000</ele>
        <time>2020-08-22T11:32:10Z</time>
      </trkpt>
      <trkpt lat="42.488388" lon="1.567905">
        <ele>2068.000000</ele>
        <time>2020-08-22T11:32:10Z</time>
      </trkpt>
      <trkpt lat="42.488380" lon="1.567920">
        <ele>2068.000000</ele>
        <time>2020-08-22T11:32:17Z</time>
      </trkpt>
      <trkpt lat="42.488380" lon="1.567920">
        <ele>2068.000000</ele>
        <time>2020-08-22T11:32:17Z</time>
      </trkpt>
      <trkpt lat="42.488369" lon="1.567935">
        <ele>2068.000000</ele>
        <time>2020-08-22T11:32:17Z</time>
      </trkpt>
      <trkpt lat="42.488369" lon="1.567935">
        <ele>2068.000000</ele>
        <time>2020-08-22T11:32:17Z</time>
      </trkpt>
      <trkpt lat="42.488354" lon="1.567952">
        <ele>2068.000000</ele>
        <time>2020-08-22T11:32:17Z</time>
      </trkpt>
      <trkpt lat="42.488354" lon="1.567952">
        <ele>2068.000000</ele>
        <time>2020-08-22T11:32:17Z</time>
      </trkpt>
      <trkpt lat="42.488342" lon="1.567969">
        <ele>2068.000000</ele>
        <time>2020-08-22T11:32:17Z</time>
      </trkpt>
      <trkpt lat="42.488342" lon="1.567969">
        <ele>2068.000000</ele>
        <time>2020-08-22T11:32:17Z</time>
      </trkpt>
      <trkpt lat="42.488327" lon="1.567984">
        <ele>2068.000000</ele>
        <time>2020-08-22T11:32:17Z</time>
      </trkpt>
      <trkpt lat="42.488327" lon="1.567984">
        <ele>2068.000000</ele>
        <time>2020-08-22T11:32:17Z</time>
      </trkpt>
      <trkpt lat="42.488316" lon="1.568001">
        <ele>2068.000000</ele>
        <time>2020-08-22T11:32:17Z</time>
      </trkpt>
      <trkpt lat="42.488316" lon="1.568001">
        <ele>2068.000000</ele>
        <time>2020-08-22T11:32:17Z</time>
      </trkpt>
      <trkpt lat="42.488300" lon="1.568017">
        <ele>2068.000000</ele>
        <time>2020-08-22T11:32:17Z</time>
      </trkpt>
      <trkpt lat="42.488300" lon="1.568017">
        <ele>2068.000000</ele>
        <time>2020-08-22T11:32:17Z</time>
      </trkpt>
      <trkpt lat="42.488285" lon="1.568034">
        <ele>2068.000000</ele>
        <time>2020-08-22T11:32:25Z</time>
      </trkpt>
      <trkpt lat="42.488285" lon="1.568034">
        <ele>2068.000000</ele>
        <time>2020-08-22T11:32:25Z</time>
      </trkpt>
      <trkpt lat="42.488274" lon="1.568046">
        <ele>2071.000000</ele>
        <time>2020-08-22T11:32:32Z</time>
      </trkpt>
      <trkpt lat="42.488274" lon="1.568046">
        <ele>2071.000000</ele>
        <time>2020-08-22T11:32:32Z</time>
      </trkpt>
      <trkpt lat="42.488258" lon="1.568056">
        <ele>2071.000000</ele>
        <time>2020-08-22T11:32:32Z</time>
      </trkpt>
      <trkpt lat="42.488258" lon="1.568056">
        <ele>2072.000000</ele>
        <time>2020-08-22T11:32:32Z</time>
      </trkpt>
      <trkpt lat="42.488247" lon="1.568064">
        <ele>2072.000000</ele>
        <time>2020-08-22T11:32:32Z</time>
      </trkpt>
      <trkpt lat="42.488247" lon="1.568064">
        <ele>2072.000000</ele>
        <time>2020-08-22T11:32:32Z</time>
      </trkpt>
      <trkpt lat="42.488228" lon="1.568070">
        <ele>2073.000000</ele>
        <time>2020-08-22T11:32:32Z</time>
      </trkpt>
      <trkpt lat="42.488228" lon="1.568070">
        <ele>2073.000000</ele>
        <time>2020-08-22T11:32:32Z</time>
      </trkpt>
      <trkpt lat="42.488220" lon="1.568075">
        <ele>2073.000000</ele>
        <time>2020-08-22T11:32:32Z</time>
      </trkpt>
      <trkpt lat="42.488220" lon="1.568075">
        <ele>2073.000000</ele>
        <time>2020-08-22T11:32:32Z</time>
      </trkpt>
      <trkpt lat="42.488205" lon="1.568079">
        <ele>2073.000000</ele>
        <time>2020-08-22T11:32:32Z</time>
      </trkpt>
      <trkpt lat="42.488205" lon="1.568079">
        <ele>2073.000000</ele>
        <time>2020-08-22T11:32:32Z</time>
      </trkpt>
      <trkpt lat="42.488194" lon="1.568081">
        <ele>2073.000000</ele>
        <time>2020-08-22T11:32:32Z</time>
      </trkpt>
      <trkpt lat="42.488194" lon="1.568081">
        <ele>2073.000000</ele>
        <time>2020-08-22T11:32:32Z</time>
      </trkpt>
      <trkpt lat="42.488182" lon="1.568083">
        <ele>2073.000000</ele>
        <time>2020-08-22T11:32:39Z</time>
      </trkpt>
      <trkpt lat="42.488182" lon="1.568083">
        <ele>2073.000000</ele>
        <time>2020-08-22T11:32:39Z</time>
      </trkpt>
      <trkpt lat="42.488167" lon="1.568084">
        <ele>2073.000000</ele>
        <time>2020-08-22T11:32:39Z</time>
      </trkpt>
      <trkpt lat="42.488167" lon="1.568084">
        <ele>2073.000000</ele>
        <time>2020-08-22T11:32:39Z</time>
      </trkpt>
      <trkpt lat="42.488155" lon="1.568084">
        <ele>2073.000000</ele>
        <time>2020-08-22T11:32:39Z</time>
      </trkpt>
      <trkpt lat="42.488155" lon="1.568084">
        <ele>2073.000000</ele>
        <time>2020-08-22T11:32:39Z</time>
      </trkpt>
      <trkpt lat="42.488140" lon="1.568081">
        <ele>2073.000000</ele>
        <time>2020-08-22T11:32:39Z</time>
      </trkpt>
      <trkpt lat="42.488140" lon="1.568081">
        <ele>2073.000000</ele>
        <time>2020-08-22T11:32:39Z</time>
      </trkpt>
      <trkpt lat="42.488132" lon="1.568079">
        <ele>2073.000000</ele>
        <time>2020-08-22T11:32:39Z</time>
      </trkpt>
      <trkpt lat="42.488132" lon="1.568079">
        <ele>2073.000000</ele>
        <time>2020-08-22T11:32:39Z</time>
      </trkpt>
      <trkpt lat="42.488121" lon="1.568077">
        <ele>2073.000000</ele>
        <time>2020-08-22T11:32:39Z</time>
      </trkpt>
      <trkpt lat="42.488121" lon="1.568077">
        <ele>2073.000000</ele>
        <time>2020-08-22T11:32:39Z</time>
      </trkpt>
      <trkpt lat="42.488110" lon="1.568077">
        <ele>2073.000000</ele>
        <time>2020-08-22T11:32:39Z</time>
      </trkpt>
      <trkpt lat="42.488110" lon="1.568077">
        <ele>2073.000000</ele>
        <time>2020-08-22T11:32:39Z</time>
      </trkpt>
      <trkpt lat="42.488098" lon="1.568077">
        <ele>2073.000000</ele>
        <time>2020-08-22T11:32:46Z</time>
      </trkpt>
      <trkpt lat="42.488098" lon="1.568077">
        <ele>2073.000000</ele>
        <time>2020-08-22T11:32:46Z</time>
      </trkpt>
      <trkpt lat="42.488091" lon="1.568078">
        <ele>2073.000000</ele>
        <time>2020-08-22T11:32:46Z</time>
      </trkpt>
      <trkpt lat="42.488091" lon="1.568078">
        <ele>2073.000000</ele>
        <time>2020-08-22T11:32:46Z</time>
      </trkpt>
      <trkpt lat="42.488079" lon="1.568079">
        <ele>2073.000000</ele>
        <time>2020-08-22T11:32:46Z</time>
      </trkpt>
      <trkpt lat="42.488079" lon="1.568079">
        <ele>2073.000000</ele>
        <time>2020-08-22T11:32:46Z</time>
      </trkpt>
      <trkpt lat="42.488071" lon="1.568082">
        <ele>2073.000000</ele>
        <time>2020-08-22T11:32:46Z</time>
      </trkpt>
      <trkpt lat="42.488071" lon="1.568082">
        <ele>2073.000000</ele>
        <time>2020-08-22T11:32:46Z</time>
      </trkpt>
      <trkpt lat="42.488064" lon="1.568085">
        <ele>2073.000000</ele>
        <time>2020-08-22T11:32:46Z</time>
      </trkpt>
      <trkpt lat="42.488064" lon="1.568085">
        <ele>2073.000000</ele>
        <time>2020-08-22T11:32:46Z</time>
      </trkpt>
      <trkpt lat="42.488060" lon="1.568088">
        <ele>2073.000000</ele>
        <time>2020-08-22T11:32:46Z</time>
      </trkpt>
      <trkpt lat="42.488060" lon="1.568088">
        <ele>2073.000000</ele>
        <time>2020-08-22T11:32:46Z</time>
      </trkpt>
      <trkpt lat="42.488052" lon="1.568088">
        <ele>2073.000000</ele>
        <time>2020-08-22T11:32:46Z</time>
      </trkpt>
      <trkpt lat="42.488052" lon="1.568088">
        <ele>2073.000000</ele>
        <time>2020-08-22T11:32:46Z</time>
      </trkpt>
      <trkpt lat="42.488049" lon="1.568086">
        <ele>2073.000000</ele>
        <time>2020-08-22T11:32:46Z</time>
      </trkpt>
      <trkpt lat="42.488049" lon="1.568086">
        <ele>2073.000000</ele>
        <time>2020-08-22T11:32:46Z</time>
      </trkpt>
      <trkpt lat="42.488045" lon="1.568084">
        <ele>2073.000000</ele>
        <time>2020-08-22T11:32:46Z</time>
      </trkpt>
      <trkpt lat="42.488045" lon="1.568084">
        <ele>2073.000000</ele>
        <time>2020-08-22T11:32:46Z</time>
      </trkpt>
      <trkpt lat="42.488041" lon="1.568081">
        <ele>2073.000000</ele>
        <time>2020-08-22T11:32:46Z</time>
      </trkpt>
      <trkpt lat="42.488041" lon="1.568081">
        <ele>2073.000000</ele>
        <time>2020-08-22T11:32:46Z</time>
      </trkpt>
      <trkpt lat="42.488041" lon="1.568078">
        <ele>2073.000000</ele>
        <time>2020-08-22T11:32:46Z</time>
      </trkpt>
      <trkpt lat="42.488041" lon="1.568078">
        <ele>2073.000000</ele>
        <time>2020-08-22T11:32:46Z</time>
      </trkpt>
      <trkpt lat="42.488041" lon="1.568075">
        <ele>2073.000000</ele>
        <time>2020-08-22T11:32:53Z</time>
      </trkpt>
      <trkpt lat="42.488041" lon="1.568075">
        <ele>2073.000000</ele>
        <time>2020-08-22T11:32:53Z</time>
      </trkpt>
      <trkpt lat="42.488041" lon="1.568072">
        <ele>2073.000000</ele>
        <time>2020-08-22T11:32:53Z</time>
      </trkpt>
      <trkpt lat="42.488041" lon="1.568072">
        <ele>2073.000000</ele>
        <time>2020-08-22T11:32:53Z</time>
      </trkpt>
      <trkpt lat="42.488041" lon="1.568068">
        <ele>2073.000000</ele>
        <time>2020-08-22T11:32:53Z</time>
      </trkpt>
      <trkpt lat="42.488041" lon="1.568068">
        <ele>2073.000000</ele>
        <time>2020-08-22T11:32:53Z</time>
      </trkpt>
      <trkpt lat="42.488049" lon="1.568066">
        <ele>2073.000000</ele>
        <time>2020-08-22T11:32:53Z</time>
      </trkpt>
      <trkpt lat="42.488049" lon="1.568066">
        <ele>2073.000000</ele>
        <time>2020-08-22T11:32:53Z</time>
      </trkpt>
      <trkpt lat="42.488052" lon="1.568064">
        <ele>2073.000000</ele>
        <time>2020-08-22T11:32:53Z</time>
      </trkpt>
      <trkpt lat="42.488052" lon="1.568064">
        <ele>2068.000000</ele>
        <time>2020-08-22T11:32:53Z</time>
      </trkpt>
      <trkpt lat="42.488052" lon="1.568075">
        <ele>2068.000000</ele>
        <time>2020-08-22T11:33:00Z</time>
      </trkpt>
      <trkpt lat="42.488052" lon="1.568075">
        <ele>2068.000000</ele>
        <time>2020-08-22T11:33:00Z</time>
      </trkpt>
      <trkpt lat="42.488049" lon="1.568087">
        <ele>2068.000000</ele>
        <time>2020-08-22T11:33:00Z</time>
      </trkpt>
      <trkpt lat="42.488049" lon="1.568087">
        <ele>2068.000000</ele>
        <time>2020-08-22T11:33:00Z</time>
      </trkpt>
      <trkpt lat="42.488041" lon="1.568100">
        <ele>2068.000000</ele>
        <time>2020-08-22T11:33:00Z</time>
      </trkpt>
      <trkpt lat="42.488041" lon="1.568100">
        <ele>2068.000000</ele>
        <time>2020-08-22T11:33:00Z</time>
      </trkpt>
      <trkpt lat="42.488033" lon="1.568113">
        <ele>2068.000000</ele>
        <time>2020-08-22T11:33:00Z</time>
      </trkpt>
      <trkpt lat="42.488033" lon="1.568113">
        <ele>2068.000000</ele>
        <time>2020-08-22T11:33:00Z</time>
      </trkpt>
      <trkpt lat="42.488026" lon="1.568125">
        <ele>2068.000000</ele>
        <time>2020-08-22T11:33:00Z</time>
      </trkpt>
      <trkpt lat="42.488026" lon="1.568125">
        <ele>2068.000000</ele>
        <time>2020-08-22T11:33:00Z</time>
      </trkpt>
      <trkpt lat="42.488014" lon="1.568137">
        <ele>2068.000000</ele>
        <time>2020-08-22T11:33:00Z</time>
      </trkpt>
      <trkpt lat="42.488014" lon="1.568137">
        <ele>2067.000000</ele>
        <time>2020-08-22T11:33:00Z</time>
      </trkpt>
      <trkpt lat="42.488007" lon="1.568148">
        <ele>2067.000000</ele>
        <time>2020-08-22T11:33:00Z</time>
      </trkpt>
      <trkpt lat="42.488007" lon="1.568148">
        <ele>2067.000000</ele>
        <time>2020-08-22T11:33:00Z</time>
      </trkpt>
      <trkpt lat="42.487988" lon="1.568098">
        <ele>2067.000000</ele>
        <time>2020-08-22T11:33:00Z</time>
      </trkpt>
      <trkpt lat="42.487988" lon="1.568098">
        <ele>2067.000000</ele>
        <time>2020-08-22T11:33:00Z</time>
      </trkpt>
      <trkpt lat="42.487988" lon="1.568101">
        <ele>2067.000000</ele>
        <time>2020-08-22T11:33:07Z</time>
      </trkpt>
      <trkpt lat="42.487988" lon="1.568101">
        <ele>2067.000000</ele>
        <time>2020-08-22T11:33:07Z</time>
      </trkpt>
      <trkpt lat="42.487984" lon="1.568107">
        <ele>2067.000000</ele>
        <time>2020-08-22T11:33:07Z</time>
      </trkpt>
      <trkpt lat="42.487984" lon="1.568107">
        <ele>2067.000000</ele>
        <time>2020-08-22T11:33:07Z</time>
      </trkpt>
      <trkpt lat="42.487984" lon="1.568113">
        <ele>2067.000000</ele>
        <time>2020-08-22T11:33:07Z</time>
      </trkpt>
      <trkpt lat="42.487984" lon="1.568113">
        <ele>2067.000000</ele>
        <time>2020-08-22T11:33:07Z</time>
      </trkpt>
      <trkpt lat="42.487984" lon="1.568121">
        <ele>2067.000000</ele>
        <time>2020-08-22T11:33:07Z</time>
      </trkpt>
      <trkpt lat="42.487984" lon="1.568121">
        <ele>2067.000000</ele>
        <time>2020-08-22T11:33:07Z</time>
      </trkpt>
      <trkpt lat="42.487984" lon="1.568128">
        <ele>2067.000000</ele>
        <time>2020-08-22T11:33:07Z</time>
      </trkpt>
      <trkpt lat="42.487984" lon="1.568128">
        <ele>2067.000000</ele>
        <time>2020-08-22T11:33:07Z</time>
      </trkpt>
      <trkpt lat="42.487984" lon="1.568134">
        <ele>2067.000000</ele>
        <time>2020-08-22T11:33:07Z</time>
      </trkpt>
      <trkpt lat="42.487984" lon="1.568134">
        <ele>2067.000000</ele>
        <time>2020-08-22T11:33:07Z</time>
      </trkpt>
      <trkpt lat="42.487984" lon="1.568140">
        <ele>2067.000000</ele>
        <time>2020-08-22T11:33:07Z</time>
      </trkpt>
      <trkpt lat="42.487984" lon="1.568140">
        <ele>2067.000000</ele>
        <time>2020-08-22T11:33:07Z</time>
      </trkpt>
      <trkpt lat="42.487988" lon="1.568146">
        <ele>2067.000000</ele>
        <time>2020-08-22T11:33:14Z</time>
      </trkpt>
      <trkpt lat="42.487988" lon="1.568146">
        <ele>2067.000000</ele>
        <time>2020-08-22T11:33:14Z</time>
      </trkpt>
      <trkpt lat="42.487988" lon="1.568153">
        <ele>2067.000000</ele>
        <time>2020-08-22T11:33:14Z</time>
      </trkpt>
      <trkpt lat="42.487988" lon="1.568153">
        <ele>2067.000000</ele>
        <time>2020-08-22T11:33:14Z</time>
      </trkpt>
      <trkpt lat="42.487995" lon="1.568166">
        <ele>2067.000000</ele>
        <time>2020-08-22T11:33:14Z</time>
      </trkpt>
      <trkpt lat="42.487995" lon="1.568166">
        <ele>2067.000000</ele>
        <time>2020-08-22T11:33:14Z</time>
      </trkpt>
      <trkpt lat="42.487999" lon="1.568180">
        <ele>2067.000000</ele>
        <time>2020-08-22T11:33:14Z</time>
      </trkpt>
      <trkpt lat="42.487999" lon="1.568180">
        <ele>2067.000000</ele>
        <time>2020-08-22T11:33:14Z</time>
      </trkpt>
      <trkpt lat="42.488007" lon="1.568195">
        <ele>2067.000000</ele>
        <time>2020-08-22T11:33:14Z</time>
      </trkpt>
      <trkpt lat="42.488007" lon="1.568195">
        <ele>2067.000000</ele>
        <time>2020-08-22T11:33:14Z</time>
      </trkpt>
      <trkpt lat="42.488010" lon="1.568209">
        <ele>2067.000000</ele>
        <time>2020-08-22T11:33:14Z</time>
      </trkpt>
      <trkpt lat="42.488010" lon="1.568209">
        <ele>2067.000000</ele>
        <time>2020-08-22T11:33:14Z</time>
      </trkpt>
      <trkpt lat="42.488014" lon="1.568222">
        <ele>2067.000000</ele>
        <time>2020-08-22T11:33:14Z</time>
      </trkpt>
      <trkpt lat="42.488014" lon="1.568222">
        <ele>2067.000000</ele>
        <time>2020-08-22T11:33:14Z</time>
      </trkpt>
      <trkpt lat="42.488022" lon="1.568236">
        <ele>2067.000000</ele>
        <time>2020-08-22T11:33:21Z</time>
      </trkpt>
      <trkpt lat="42.488022" lon="1.568236">
        <ele>2067.000000</ele>
        <time>2020-08-22T11:33:21Z</time>
      </trkpt>
      <trkpt lat="42.488026" lon="1.568250">
        <ele>2067.000000</ele>
        <time>2020-08-22T11:33:21Z</time>
      </trkpt>
      <trkpt lat="42.488026" lon="1.568250">
        <ele>2067.000000</ele>
        <time>2020-08-22T11:33:21Z</time>
      </trkpt>
      <trkpt lat="42.488026" lon="1.568263">
        <ele>2067.000000</ele>
        <time>2020-08-22T11:33:21Z</time>
      </trkpt>
      <trkpt lat="42.488026" lon="1.568263">
        <ele>2067.000000</ele>
        <time>2020-08-22T11:33:21Z</time>
      </trkpt>
      <trkpt lat="42.488026" lon="1.568276">
        <ele>2067.000000</ele>
        <time>2020-08-22T11:33:21Z</time>
      </trkpt>
      <trkpt lat="42.488026" lon="1.568276">
        <ele>2067.000000</ele>
        <time>2020-08-22T11:33:21Z</time>
      </trkpt>
      <trkpt lat="42.488026" lon="1.568287">
        <ele>2067.000000</ele>
        <time>2020-08-22T11:33:21Z</time>
      </trkpt>
      <trkpt lat="42.488026" lon="1.568287">
        <ele>2067.000000</ele>
        <time>2020-08-22T11:33:21Z</time>
      </trkpt>
      <trkpt lat="42.488007" lon="1.568306">
        <ele>2067.000000</ele>
        <time>2020-08-22T11:33:21Z</time>
      </trkpt>
      <trkpt lat="42.488007" lon="1.568306">
        <ele>2067.000000</ele>
        <time>2020-08-22T11:33:21Z</time>
      </trkpt>
      <trkpt lat="42.487984" lon="1.568323">
        <ele>2067.000000</ele>
        <time>2020-08-22T11:33:21Z</time>
      </trkpt>
      <trkpt lat="42.487984" lon="1.568323">
        <ele>2067.000000</ele>
        <time>2020-08-22T11:33:21Z</time>
      </trkpt>
      <trkpt lat="42.487961" lon="1.568340">
        <ele>2067.000000</ele>
        <time>2020-08-22T11:33:21Z</time>
      </trkpt>
      <trkpt lat="42.487961" lon="1.568340">
        <ele>2067.000000</ele>
        <time>2020-08-22T11:33:21Z</time>
      </trkpt>
      <trkpt lat="42.487938" lon="1.568355">
        <ele>2067.000000</ele>
        <time>2020-08-22T11:33:21Z</time>
      </trkpt>
      <trkpt lat="42.487938" lon="1.568355">
        <ele>2067.000000</ele>
        <time>2020-08-22T11:33:21Z</time>
      </trkpt>
      <trkpt lat="42.487915" lon="1.568369">
        <ele>2067.000000</ele>
        <time>2020-08-22T11:33:29Z</time>
      </trkpt>
      <trkpt lat="42.487915" lon="1.568369">
        <ele>2067.000000</ele>
        <time>2020-08-22T11:33:29Z</time>
      </trkpt>
      <trkpt lat="42.487892" lon="1.568382">
        <ele>2067.000000</ele>
        <time>2020-08-22T11:33:29Z</time>
      </trkpt>
      <trkpt lat="42.487892" lon="1.568382">
        <ele>2067.000000</ele>
        <time>2020-08-22T11:33:29Z</time>
      </trkpt>
      <trkpt lat="42.487865" lon="1.568393">
        <ele>2067.000000</ele>
        <time>2020-08-22T11:33:29Z</time>
      </trkpt>
      <trkpt lat="42.487865" lon="1.568393">
        <ele>2067.000000</ele>
        <time>2020-08-22T11:33:29Z</time>
      </trkpt>
      <trkpt lat="42.487839" lon="1.568403">
        <ele>2067.000000</ele>
        <time>2020-08-22T11:33:29Z</time>
      </trkpt>
      <trkpt lat="42.487839" lon="1.568403">
        <ele>2067.000000</ele>
        <time>2020-08-22T11:33:29Z</time>
      </trkpt>
      <trkpt lat="42.487812" lon="1.568411">
        <ele>2067.000000</ele>
        <time>2020-08-22T11:33:29Z</time>
      </trkpt>
      <trkpt lat="42.487812" lon="1.568411">
        <ele>2067.000000</ele>
        <time>2020-08-22T11:33:29Z</time>
      </trkpt>
      <trkpt lat="42.487785" lon="1.568419">
        <ele>2067.000000</ele>
        <time>2020-08-22T11:33:29Z</time>
      </trkpt>
      <trkpt lat="42.487785" lon="1.568419">
        <ele>2067.000000</ele>
        <time>2020-08-22T11:33:29Z</time>
      </trkpt>
      <trkpt lat="42.487778" lon="1.568412">
        <ele>2067.000000</ele>
        <time>2020-08-22T11:33:29Z</time>
      </trkpt>
      <trkpt lat="42.487778" lon="1.568412">
        <ele>2067.000000</ele>
        <time>2020-08-22T11:33:29Z</time>
      </trkpt>
      <trkpt lat="42.487766" lon="1.568404">
        <ele>2067.000000</ele>
        <time>2020-08-22T11:33:29Z</time>
      </trkpt>
      <trkpt lat="42.487766" lon="1.568404">
        <ele>2067.000000</ele>
        <time>2020-08-22T11:33:29Z</time>
      </trkpt>
      <trkpt lat="42.487755" lon="1.568396">
        <ele>2067.000000</ele>
        <time>2020-08-22T11:33:29Z</time>
      </trkpt>
      <trkpt lat="42.487755" lon="1.568396">
        <ele>2067.000000</ele>
        <time>2020-08-22T11:33:29Z</time>
      </trkpt>
      <trkpt lat="42.487747" lon="1.568387">
        <ele>2067.000000</ele>
        <time>2020-08-22T11:33:36Z</time>
      </trkpt>
      <trkpt lat="42.487747" lon="1.568387">
        <ele>2067.000000</ele>
        <time>2020-08-22T11:33:36Z</time>
      </trkpt>
      <trkpt lat="42.487740" lon="1.568379">
        <ele>2067.000000</ele>
        <time>2020-08-22T11:33:36Z</time>
      </trkpt>
      <trkpt lat="42.487740" lon="1.568379">
        <ele>2067.000000</ele>
        <time>2020-08-22T11:33:36Z</time>
      </trkpt>
      <trkpt lat="42.487740" lon="1.568373">
        <ele>2067.000000</ele>
        <time>2020-08-22T11:33:36Z</time>
      </trkpt>
      <trkpt lat="42.487740" lon="1.568373">
        <ele>2067.000000</ele>
        <time>2020-08-22T11:33:36Z</time>
      </trkpt>
      <trkpt lat="42.487740" lon="1.568369">
        <ele>2067.000000</ele>
        <time>2020-08-22T11:33:36Z</time>
      </trkpt>
      <trkpt lat="42.487740" lon="1.568369">
        <ele>2061.000000</ele>
        <time>2020-08-22T11:33:36Z</time>
      </trkpt>
      <trkpt lat="42.487740" lon="1.568366">
        <ele>2061.000000</ele>
        <time>2020-08-22T11:33:36Z</time>
      </trkpt>
      <trkpt lat="42.487740" lon="1.568366">
        <ele>2061.000000</ele>
        <time>2020-08-22T11:33:36Z</time>
      </trkpt>
      <trkpt lat="42.487743" lon="1.568365">
        <ele>2061.000000</ele>
        <time>2020-08-22T11:33:36Z</time>
      </trkpt>
      <trkpt lat="42.487743" lon="1.568365">
        <ele>2060.000000</ele>
        <time>2020-08-22T11:33:36Z</time>
      </trkpt>
      <trkpt lat="42.487751" lon="1.568367">
        <ele>2060.000000</ele>
        <time>2020-08-22T11:33:36Z</time>
      </trkpt>
      <trkpt lat="42.487751" lon="1.568367">
        <ele>2059.000000</ele>
        <time>2020-08-22T11:33:36Z</time>
      </trkpt>
      <trkpt lat="42.487759" lon="1.568377">
        <ele>2059.000000</ele>
        <time>2020-08-22T11:33:36Z</time>
      </trkpt>
      <trkpt lat="42.487759" lon="1.568377">
        <ele>2058.000000</ele>
        <time>2020-08-22T11:33:36Z</time>
      </trkpt>
      <trkpt lat="42.487766" lon="1.568387">
        <ele>2058.000000</ele>
        <time>2020-08-22T11:33:36Z</time>
      </trkpt>
      <trkpt lat="42.487766" lon="1.568387">
        <ele>2058.000000</ele>
        <time>2020-08-22T11:33:36Z</time>
      </trkpt>
      <trkpt lat="42.487774" lon="1.568400">
        <ele>2058.000000</ele>
        <time>2020-08-22T11:33:36Z</time>
      </trkpt>
      <trkpt lat="42.487774" lon="1.568400">
        <ele>2058.000000</ele>
        <time>2020-08-22T11:33:36Z</time>
      </trkpt>
      <trkpt lat="42.487778" lon="1.568413">
        <ele>2057.000000</ele>
        <time>2020-08-22T11:33:43Z</time>
      </trkpt>
      <trkpt lat="42.487778" lon="1.568413">
        <ele>2057.000000</ele>
        <time>2020-08-22T11:33:43Z</time>
      </trkpt>
      <trkpt lat="42.487785" lon="1.568428">
        <ele>2057.000000</ele>
        <time>2020-08-22T11:33:43Z</time>
      </trkpt>
      <trkpt lat="42.487785" lon="1.568428">
        <ele>2056.000000</ele>
        <time>2020-08-22T11:33:43Z</time>
      </trkpt>
      <trkpt lat="42.487789" lon="1.568443">
        <ele>2056.000000</ele>
        <time>2020-08-22T11:33:43Z</time>
      </trkpt>
      <trkpt lat="42.487789" lon="1.568443">
        <ele>2056.000000</ele>
        <time>2020-08-22T11:33:43Z</time>
      </trkpt>
      <trkpt lat="42.487793" lon="1.568457">
        <ele>2056.000000</ele>
        <time>2020-08-22T11:33:43Z</time>
      </trkpt>
      <trkpt lat="42.487793" lon="1.568457">
        <ele>2056.000000</ele>
        <time>2020-08-22T11:33:43Z</time>
      </trkpt>
      <trkpt lat="42.487793" lon="1.568472">
        <ele>2056.000000</ele>
        <time>2020-08-22T11:33:43Z</time>
      </trkpt>
      <trkpt lat="42.487793" lon="1.568472">
        <ele>2056.000000</ele>
        <time>2020-08-22T11:33:43Z</time>
      </trkpt>
      <trkpt lat="42.487797" lon="1.568485">
        <ele>2056.000000</ele>
        <time>2020-08-22T11:33:43Z</time>
      </trkpt>
      <trkpt lat="42.487797" lon="1.568485">
        <ele>2055.000000</ele>
        <time>2020-08-22T11:33:43Z</time>
      </trkpt>
      <trkpt lat="42.487797" lon="1.568497">
        <ele>2055.000000</ele>
        <time>2020-08-22T11:33:43Z</time>
      </trkpt>
      <trkpt lat="42.487797" lon="1.568497">
        <ele>2055.000000</ele>
        <time>2020-08-22T11:33:43Z</time>
      </trkpt>
      <trkpt lat="42.487793" lon="1.568509">
        <ele>2055.000000</ele>
        <time>2020-08-22T11:33:50Z</time>
      </trkpt>
      <trkpt lat="42.487793" lon="1.568509">
        <ele>2054.000000</ele>
        <time>2020-08-22T11:33:50Z</time>
      </trkpt>
      <trkpt lat="42.487793" lon="1.568519">
        <ele>2054.000000</ele>
        <time>2020-08-22T11:33:50Z</time>
      </trkpt>
      <trkpt lat="42.487793" lon="1.568519">
        <ele>2054.000000</ele>
        <time>2020-08-22T11:33:50Z</time>
      </trkpt>
      <trkpt lat="42.487785" lon="1.568530">
        <ele>2054.000000</ele>
        <time>2020-08-22T11:33:50Z</time>
      </trkpt>
      <trkpt lat="42.487785" lon="1.568530">
        <ele>2053.000000</ele>
        <time>2020-08-22T11:33:50Z</time>
      </trkpt>
      <trkpt lat="42.487785" lon="1.568539">
        <ele>2053.000000</ele>
        <time>2020-08-22T11:33:50Z</time>
      </trkpt>
      <trkpt lat="42.487785" lon="1.568539">
        <ele>2053.000000</ele>
        <time>2020-08-22T11:33:50Z</time>
      </trkpt>
      <trkpt lat="42.487778" lon="1.568547">
        <ele>2052.000000</ele>
        <time>2020-08-22T11:33:50Z</time>
      </trkpt>
      <trkpt lat="42.487778" lon="1.568547">
        <ele>2052.000000</ele>
        <time>2020-08-22T11:33:50Z</time>
      </trkpt>
      <trkpt lat="42.487774" lon="1.568553">
        <ele>2052.000000</ele>
        <time>2020-08-22T11:33:50Z</time>
      </trkpt>
      <trkpt lat="42.487774" lon="1.568553">
        <ele>2052.000000</ele>
        <time>2020-08-22T11:33:50Z</time>
      </trkpt>
      <trkpt lat="42.487766" lon="1.568559">
        <ele>2051.000000</ele>
        <time>2020-08-22T11:33:50Z</time>
      </trkpt>
      <trkpt lat="42.487766" lon="1.568559">
        <ele>2051.000000</ele>
        <time>2020-08-22T11:33:50Z</time>
      </trkpt>
      <trkpt lat="42.487759" lon="1.568565">
        <ele>2051.000000</ele>
        <time>2020-08-22T11:33:57Z</time>
      </trkpt>
      <trkpt lat="42.487759" lon="1.568565">
        <ele>2051.000000</ele>
        <time>2020-08-22T11:33:57Z</time>
      </trkpt>
      <trkpt lat="42.487755" lon="1.568571">
        <ele>2051.000000</ele>
        <time>2020-08-22T11:33:57Z</time>
      </trkpt>
      <trkpt lat="42.487755" lon="1.568571">
        <ele>2050.000000</ele>
        <time>2020-08-22T11:33:57Z</time>
      </trkpt>
      <trkpt lat="42.487751" lon="1.568576">
        <ele>2050.000000</ele>
        <time>2020-08-22T11:33:57Z</time>
      </trkpt>
      <trkpt lat="42.487751" lon="1.568576">
        <ele>2050.000000</ele>
        <time>2020-08-22T11:33:57Z</time>
      </trkpt>
      <trkpt lat="42.487740" lon="1.568593">
        <ele>2050.000000</ele>
        <time>2020-08-22T11:34:04Z</time>
      </trkpt>
      <trkpt lat="42.487740" lon="1.568593">
        <ele>2050.000000</ele>
        <time>2020-08-22T11:34:04Z</time>
      </trkpt>
      <trkpt lat="42.487724" lon="1.568608">
        <ele>2049.000000</ele>
        <time>2020-08-22T11:34:04Z</time>
      </trkpt>
      <trkpt lat="42.487724" lon="1.568608">
        <ele>2049.000000</ele>
        <time>2020-08-22T11:34:04Z</time>
      </trkpt>
      <trkpt lat="42.487713" lon="1.568623">
        <ele>2048.000000</ele>
        <time>2020-08-22T11:34:04Z</time>
      </trkpt>
      <trkpt lat="42.487713" lon="1.568623">
        <ele>2048.000000</ele>
        <time>2020-08-22T11:34:04Z</time>
      </trkpt>
      <trkpt lat="42.487701" lon="1.568637">
        <ele>2048.000000</ele>
        <time>2020-08-22T11:34:04Z</time>
      </trkpt>
      <trkpt lat="42.487701" lon="1.568637">
        <ele>2047.000000</ele>
        <time>2020-08-22T11:34:04Z</time>
      </trkpt>
      <trkpt lat="42.487690" lon="1.568650">
        <ele>2047.000000</ele>
        <time>2020-08-22T11:34:04Z</time>
      </trkpt>
      <trkpt lat="42.487690" lon="1.568650">
        <ele>2047.000000</ele>
        <time>2020-08-22T11:34:04Z</time>
      </trkpt>
      <trkpt lat="42.487679" lon="1.568662">
        <ele>2046.000000</ele>
        <time>2020-08-22T11:34:04Z</time>
      </trkpt>
      <trkpt lat="42.487679" lon="1.568662">
        <ele>2046.000000</ele>
        <time>2020-08-22T11:34:04Z</time>
      </trkpt>
      <trkpt lat="42.487667" lon="1.568673">
        <ele>2046.000000</ele>
        <time>2020-08-22T11:34:04Z</time>
      </trkpt>
      <trkpt lat="42.487667" lon="1.568673">
        <ele>2046.000000</ele>
        <time>2020-08-22T11:34:04Z</time>
      </trkpt>
      <trkpt lat="42.487652" lon="1.568683">
        <ele>2046.000000</ele>
        <time>2020-08-22T11:34:11Z</time>
      </trkpt>
      <trkpt lat="42.487652" lon="1.568683">
        <ele>2046.000000</ele>
        <time>2020-08-22T11:34:11Z</time>
      </trkpt>
      <trkpt lat="42.487644" lon="1.568692">
        <ele>2046.000000</ele>
        <time>2020-08-22T11:34:11Z</time>
      </trkpt>
      <trkpt lat="42.487644" lon="1.568692">
        <ele>2046.000000</ele>
        <time>2020-08-22T11:34:11Z</time>
      </trkpt>
      <trkpt lat="42.487633" lon="1.568701">
        <ele>2046.000000</ele>
        <time>2020-08-22T11:34:11Z</time>
      </trkpt>
      <trkpt lat="42.487633" lon="1.568701">
        <ele>2043.000000</ele>
        <time>2020-08-22T11:34:11Z</time>
      </trkpt>
      <trkpt lat="42.487621" lon="1.568696">
        <ele>2043.000000</ele>
        <time>2020-08-22T11:34:11Z</time>
      </trkpt>
      <trkpt lat="42.487621" lon="1.568696">
        <ele>2042.000000</ele>
        <time>2020-08-22T11:34:11Z</time>
      </trkpt>
      <trkpt lat="42.487610" lon="1.568691">
        <ele>2042.000000</ele>
        <time>2020-08-22T11:34:11Z</time>
      </trkpt>
      <trkpt lat="42.487610" lon="1.568691">
        <ele>2042.000000</ele>
        <time>2020-08-22T11:34:11Z</time>
      </trkpt>
      <trkpt lat="42.487602" lon="1.568687">
        <ele>2042.000000</ele>
        <time>2020-08-22T11:34:11Z</time>
      </trkpt>
      <trkpt lat="42.487602" lon="1.568687">
        <ele>2042.000000</ele>
        <time>2020-08-22T11:34:11Z</time>
      </trkpt>
      <trkpt lat="42.487591" lon="1.568683">
        <ele>2041.000000</ele>
        <time>2020-08-22T11:34:11Z</time>
      </trkpt>
      <trkpt lat="42.487591" lon="1.568683">
        <ele>2041.000000</ele>
        <time>2020-08-22T11:34:11Z</time>
      </trkpt>
      <trkpt lat="42.487583" lon="1.568679">
        <ele>2041.000000</ele>
        <time>2020-08-22T11:34:18Z</time>
      </trkpt>
      <trkpt lat="42.487583" lon="1.568679">
        <ele>2037.000000</ele>
        <time>2020-08-22T11:34:18Z</time>
      </trkpt>
      <trkpt lat="42.487572" lon="1.568676">
        <ele>2037.000000</ele>
        <time>2020-08-22T11:34:18Z</time>
      </trkpt>
      <trkpt lat="42.487572" lon="1.568676">
        <ele>2037.000000</ele>
        <time>2020-08-22T11:34:18Z</time>
      </trkpt>
      <trkpt lat="42.487560" lon="1.568673">
        <ele>2037.000000</ele>
        <time>2020-08-22T11:34:18Z</time>
      </trkpt>
      <trkpt lat="42.487560" lon="1.568673">
        <ele>2037.000000</ele>
        <time>2020-08-22T11:34:18Z</time>
      </trkpt>
      <trkpt lat="42.487549" lon="1.568671">
        <ele>2037.000000</ele>
        <time>2020-08-22T11:34:18Z</time>
      </trkpt>
      <trkpt lat="42.487549" lon="1.568671">
        <ele>2037.000000</ele>
        <time>2020-08-22T11:34:18Z</time>
      </trkpt>
      <trkpt lat="42.487537" lon="1.568668">
        <ele>2037.000000</ele>
        <time>2020-08-22T11:34:18Z</time>
      </trkpt>
      <trkpt lat="42.487537" lon="1.568668">
        <ele>2037.000000</ele>
        <time>2020-08-22T11:34:18Z</time>
      </trkpt>
      <trkpt lat="42.487530" lon="1.568666">
        <ele>2037.000000</ele>
        <time>2020-08-22T11:34:18Z</time>
      </trkpt>
      <trkpt lat="42.487530" lon="1.568666">
        <ele>2035.000000</ele>
        <time>2020-08-22T11:34:18Z</time>
      </trkpt>
      <trkpt lat="42.487518" lon="1.568665">
        <ele>2035.000000</ele>
        <time>2020-08-22T11:34:18Z</time>
      </trkpt>
      <trkpt lat="42.487518" lon="1.568665">
        <ele>2035.000000</ele>
        <time>2020-08-22T11:34:18Z</time>
      </trkpt>
      <trkpt lat="42.487511" lon="1.568664">
        <ele>2035.000000</ele>
        <time>2020-08-22T11:34:25Z</time>
      </trkpt>
      <trkpt lat="42.487511" lon="1.568664">
        <ele>2035.000000</ele>
        <time>2020-08-22T11:34:25Z</time>
      </trkpt>
      <trkpt lat="42.487503" lon="1.568663">
        <ele>2034.000000</ele>
        <time>2020-08-22T11:34:25Z</time>
      </trkpt>
      <trkpt lat="42.487503" lon="1.568663">
        <ele>2034.000000</ele>
        <time>2020-08-22T11:34:25Z</time>
      </trkpt>
      <trkpt lat="42.487495" lon="1.568661">
        <ele>2034.000000</ele>
        <time>2020-08-22T11:34:25Z</time>
      </trkpt>
      <trkpt lat="42.487495" lon="1.568661">
        <ele>2034.000000</ele>
        <time>2020-08-22T11:34:25Z</time>
      </trkpt>
      <trkpt lat="42.487488" lon="1.568660">
        <ele>2034.000000</ele>
        <time>2020-08-22T11:34:25Z</time>
      </trkpt>
      <trkpt lat="42.487488" lon="1.568660">
        <ele>2034.000000</ele>
        <time>2020-08-22T11:34:25Z</time>
      </trkpt>
      <trkpt lat="42.487484" lon="1.568659">
        <ele>2034.000000</ele>
        <time>2020-08-22T11:34:25Z</time>
      </trkpt>
      <trkpt lat="42.487484" lon="1.568659">
        <ele>2034.000000</ele>
        <time>2020-08-22T11:34:25Z</time>
      </trkpt>
      <trkpt lat="42.487473" lon="1.568658">
        <ele>2034.000000</ele>
        <time>2020-08-22T11:34:25Z</time>
      </trkpt>
      <trkpt lat="42.487473" lon="1.568658">
        <ele>2034.000000</ele>
        <time>2020-08-22T11:34:25Z</time>
      </trkpt>
      <trkpt lat="42.487465" lon="1.568658">
        <ele>2034.000000</ele>
        <time>2020-08-22T11:34:25Z</time>
      </trkpt>
      <trkpt lat="42.487465" lon="1.568658">
        <ele>2034.000000</ele>
        <time>2020-08-22T11:34:25Z</time>
      </trkpt>
      <trkpt lat="42.487453" lon="1.568657">
        <ele>2034.000000</ele>
        <time>2020-08-22T11:34:32Z</time>
      </trkpt>
      <trkpt lat="42.487453" lon="1.568657">
        <ele>2034.000000</ele>
        <time>2020-08-22T11:34:32Z</time>
      </trkpt>
      <trkpt lat="42.487446" lon="1.568659">
        <ele>2033.000000</ele>
        <time>2020-08-22T11:34:32Z</time>
      </trkpt>
      <trkpt lat="42.487446" lon="1.568659">
        <ele>2032.000000</ele>
        <time>2020-08-22T11:34:32Z</time>
      </trkpt>
      <trkpt lat="42.487431" lon="1.568665">
        <ele>2032.000000</ele>
        <time>2020-08-22T11:34:32Z</time>
      </trkpt>
      <trkpt lat="42.487431" lon="1.568665">
        <ele>2032.000000</ele>
        <time>2020-08-22T11:34:32Z</time>
      </trkpt>
      <trkpt lat="42.487423" lon="1.568673">
        <ele>2032.000000</ele>
        <time>2020-08-22T11:34:32Z</time>
      </trkpt>
      <trkpt lat="42.487423" lon="1.568673">
        <ele>2032.000000</ele>
        <time>2020-08-22T11:34:32Z</time>
      </trkpt>
      <trkpt lat="42.487411" lon="1.568682">
        <ele>2032.000000</ele>
        <time>2020-08-22T11:34:39Z</time>
      </trkpt>
      <trkpt lat="42.487411" lon="1.568682">
        <ele>2032.000000</ele>
        <time>2020-08-22T11:34:39Z</time>
      </trkpt>
      <trkpt lat="42.487400" lon="1.568692">
        <ele>2032.000000</ele>
        <time>2020-08-22T11:34:39Z</time>
      </trkpt>
      <trkpt lat="42.487400" lon="1.568692">
        <ele>2032.000000</ele>
        <time>2020-08-22T11:34:39Z</time>
      </trkpt>
      <trkpt lat="42.487392" lon="1.568702">
        <ele>2032.000000</ele>
        <time>2020-08-22T11:34:39Z</time>
      </trkpt>
      <trkpt lat="42.487392" lon="1.568702">
        <ele>2032.000000</ele>
        <time>2020-08-22T11:34:39Z</time>
      </trkpt>
      <trkpt lat="42.487385" lon="1.568713">
        <ele>2032.000000</ele>
        <time>2020-08-22T11:34:39Z</time>
      </trkpt>
      <trkpt lat="42.487385" lon="1.568713">
        <ele>2032.000000</ele>
        <time>2020-08-22T11:34:39Z</time>
      </trkpt>
      <trkpt lat="42.487377" lon="1.568726">
        <ele>2032.000000</ele>
        <time>2020-08-22T11:34:39Z</time>
      </trkpt>
      <trkpt lat="42.487377" lon="1.568726">
        <ele>2032.000000</ele>
        <time>2020-08-22T11:34:39Z</time>
      </trkpt>
      <trkpt lat="42.487373" lon="1.568740">
        <ele>2032.000000</ele>
        <time>2020-08-22T11:34:46Z</time>
      </trkpt>
      <trkpt lat="42.487373" lon="1.568740">
        <ele>2032.000000</ele>
        <time>2020-08-22T11:34:46Z</time>
      </trkpt>
      <trkpt lat="42.487370" lon="1.568753">
        <ele>2032.000000</ele>
        <time>2020-08-22T11:34:46Z</time>
      </trkpt>
      <trkpt lat="42.487370" lon="1.568753">
        <ele>2032.000000</ele>
        <time>2020-08-22T11:34:46Z</time>
      </trkpt>
      <trkpt lat="42.487358" lon="1.568766">
        <ele>2032.000000</ele>
        <time>2020-08-22T11:34:46Z</time>
      </trkpt>
      <trkpt lat="42.487358" lon="1.568766">
        <ele>2032.000000</ele>
        <time>2020-08-22T11:34:46Z</time>
      </trkpt>
      <trkpt lat="42.487358" lon="1.568778">
        <ele>2032.000000</ele>
        <time>2020-08-22T11:34:46Z</time>
      </trkpt>
      <trkpt lat="42.487358" lon="1.568778">
        <ele>2032.000000</ele>
        <time>2020-08-22T11:34:46Z</time>
      </trkpt>
      <trkpt lat="42.487354" lon="1.568790">
        <ele>2032.000000</ele>
        <time>2020-08-22T11:34:53Z</time>
      </trkpt>
      <trkpt lat="42.487354" lon="1.568790">
        <ele>2032.000000</ele>
        <time>2020-08-22T11:34:53Z</time>
      </trkpt>
      <trkpt lat="42.487350" lon="1.568801">
        <ele>2032.000000</ele>
        <time>2020-08-22T11:34:53Z</time>
      </trkpt>
      <trkpt lat="42.487350" lon="1.568801">
        <ele>2032.000000</ele>
        <time>2020-08-22T11:34:53Z</time>
      </trkpt>
      <trkpt lat="42.487347" lon="1.568812">
        <ele>2032.000000</ele>
        <time>2020-08-22T11:34:53Z</time>
      </trkpt>
      <trkpt lat="42.487347" lon="1.568812">
        <ele>2032.000000</ele>
        <time>2020-08-22T11:34:53Z</time>
      </trkpt>
      <trkpt lat="42.487343" lon="1.568824">
        <ele>2032.000000</ele>
        <time>2020-08-22T11:34:53Z</time>
      </trkpt>
      <trkpt lat="42.487343" lon="1.568824">
        <ele>2032.000000</ele>
        <time>2020-08-22T11:34:53Z</time>
      </trkpt>
      <trkpt lat="42.487335" lon="1.568834">
        <ele>2032.000000</ele>
        <time>2020-08-22T11:34:53Z</time>
      </trkpt>
      <trkpt lat="42.487335" lon="1.568834">
        <ele>2032.000000</ele>
        <time>2020-08-22T11:34:53Z</time>
      </trkpt>
      <trkpt lat="42.487328" lon="1.568842">
        <ele>2032.000000</ele>
        <time>2020-08-22T11:34:53Z</time>
      </trkpt>
      <trkpt lat="42.487328" lon="1.568842">
        <ele>2032.000000</ele>
        <time>2020-08-22T11:34:53Z</time>
      </trkpt>
      <trkpt lat="42.487320" lon="1.568849">
        <ele>2032.000000</ele>
        <time>2020-08-22T11:34:53Z</time>
      </trkpt>
      <trkpt lat="42.487320" lon="1.568849">
        <ele>2032.000000</ele>
        <time>2020-08-22T11:34:53Z</time>
      </trkpt>
      <trkpt lat="42.487312" lon="1.568856">
        <ele>2032.000000</ele>
        <time>2020-08-22T11:35:00Z</time>
      </trkpt>
      <trkpt lat="42.487312" lon="1.568856">
        <ele>2032.000000</ele>
        <time>2020-08-22T11:35:00Z</time>
      </trkpt>
      <trkpt lat="42.487301" lon="1.568862">
        <ele>2032.000000</ele>
        <time>2020-08-22T11:35:00Z</time>
      </trkpt>
      <trkpt lat="42.487301" lon="1.568862">
        <ele>2032.000000</ele>
        <time>2020-08-22T11:35:00Z</time>
      </trkpt>
      <trkpt lat="42.487297" lon="1.568865">
        <ele>2032.000000</ele>
        <time>2020-08-22T11:35:00Z</time>
      </trkpt>
      <trkpt lat="42.487297" lon="1.568865">
        <ele>2032.000000</ele>
        <time>2020-08-22T11:35:00Z</time>
      </trkpt>
      <trkpt lat="42.487289" lon="1.568869">
        <ele>2032.000000</ele>
        <time>2020-08-22T11:35:00Z</time>
      </trkpt>
      <trkpt lat="42.487289" lon="1.568869">
        <ele>2032.000000</ele>
        <time>2020-08-22T11:35:00Z</time>
      </trkpt>
      <trkpt lat="42.487286" lon="1.568874">
        <ele>2032.000000</ele>
        <time>2020-08-22T11:35:07Z</time>
      </trkpt>
      <trkpt lat="42.487286" lon="1.568874">
        <ele>2030.000000</ele>
        <time>2020-08-22T11:35:07Z</time>
      </trkpt>
      <trkpt lat="42.487282" lon="1.568878">
        <ele>2030.000000</ele>
        <time>2020-08-22T11:35:07Z</time>
      </trkpt>
      <trkpt lat="42.487282" lon="1.568878">
        <ele>2030.000000</ele>
        <time>2020-08-22T11:35:07Z</time>
      </trkpt>
      <trkpt lat="42.487282" lon="1.568882">
        <ele>2030.000000</ele>
        <time>2020-08-22T11:35:07Z</time>
      </trkpt>
      <trkpt lat="42.487282" lon="1.568882">
        <ele>2030.000000</ele>
        <time>2020-08-22T11:35:07Z</time>
      </trkpt>
      <trkpt lat="42.487282" lon="1.568887">
        <ele>2030.000000</ele>
        <time>2020-08-22T11:35:07Z</time>
      </trkpt>
      <trkpt lat="42.487282" lon="1.568887">
        <ele>2030.000000</ele>
        <time>2020-08-22T11:35:07Z</time>
      </trkpt>
      <trkpt lat="42.487282" lon="1.568894">
        <ele>2030.000000</ele>
        <time>2020-08-22T11:35:07Z</time>
      </trkpt>
      <trkpt lat="42.487282" lon="1.568894">
        <ele>2030.000000</ele>
        <time>2020-08-22T11:35:07Z</time>
      </trkpt>
      <trkpt lat="42.487286" lon="1.568901">
        <ele>2030.000000</ele>
        <time>2020-08-22T11:35:07Z</time>
      </trkpt>
      <trkpt lat="42.487286" lon="1.568901">
        <ele>2030.000000</ele>
        <time>2020-08-22T11:35:07Z</time>
      </trkpt>
      <trkpt lat="42.487289" lon="1.568909">
        <ele>2030.000000</ele>
        <time>2020-08-22T11:35:07Z</time>
      </trkpt>
      <trkpt lat="42.487289" lon="1.568909">
        <ele>2030.000000</ele>
        <time>2020-08-22T11:35:07Z</time>
      </trkpt>
      <trkpt lat="42.487297" lon="1.568918">
        <ele>2030.000000</ele>
        <time>2020-08-22T11:35:17Z</time>
      </trkpt>
      <trkpt lat="42.487297" lon="1.568918">
        <ele>2030.000000</ele>
        <time>2020-08-22T11:35:17Z</time>
      </trkpt>
      <trkpt lat="42.487297" lon="1.568929">
        <ele>2030.000000</ele>
        <time>2020-08-22T11:35:17Z</time>
      </trkpt>
      <trkpt lat="42.487297" lon="1.568929">
        <ele>2030.000000</ele>
        <time>2020-08-22T11:35:17Z</time>
      </trkpt>
      <trkpt lat="42.487301" lon="1.568940">
        <ele>2030.000000</ele>
        <time>2020-08-22T11:35:17Z</time>
      </trkpt>
      <trkpt lat="42.487301" lon="1.568940">
        <ele>2030.000000</ele>
        <time>2020-08-22T11:35:17Z</time>
      </trkpt>
      <trkpt lat="42.487305" lon="1.568949">
        <ele>2030.000000</ele>
        <time>2020-08-22T11:35:17Z</time>
      </trkpt>
      <trkpt lat="42.487305" lon="1.568949">
        <ele>2030.000000</ele>
        <time>2020-08-22T11:35:17Z</time>
      </trkpt>
      <trkpt lat="42.487305" lon="1.568957">
        <ele>2030.000000</ele>
        <time>2020-08-22T11:35:17Z</time>
      </trkpt>
      <trkpt lat="42.487305" lon="1.568957">
        <ele>2030.000000</ele>
        <time>2020-08-22T11:35:17Z</time>
      </trkpt>
      <trkpt lat="42.487301" lon="1.568964">
        <ele>2030.000000</ele>
        <time>2020-08-22T11:35:17Z</time>
      </trkpt>
      <trkpt lat="42.487301" lon="1.568964">
        <ele>2030.000000</ele>
        <time>2020-08-22T11:35:17Z</time>
      </trkpt>
      <trkpt lat="42.487297" lon="1.568970">
        <ele>2030.000000</ele>
        <time>2020-08-22T11:35:17Z</time>
      </trkpt>
      <trkpt lat="42.487297" lon="1.568970">
        <ele>2030.000000</ele>
        <time>2020-08-22T11:35:17Z</time>
      </trkpt>
      <trkpt lat="42.487297" lon="1.568975">
        <ele>2030.000000</ele>
        <time>2020-08-22T11:35:24Z</time>
      </trkpt>
      <trkpt lat="42.487297" lon="1.568975">
        <ele>2030.000000</ele>
        <time>2020-08-22T11:35:24Z</time>
      </trkpt>
      <trkpt lat="42.487289" lon="1.568979">
        <ele>2030.000000</ele>
        <time>2020-08-22T11:35:24Z</time>
      </trkpt>
      <trkpt lat="42.487289" lon="1.568979">
        <ele>2030.000000</ele>
        <time>2020-08-22T11:35:24Z</time>
      </trkpt>
      <trkpt lat="42.487282" lon="1.568981">
        <ele>2030.000000</ele>
        <time>2020-08-22T11:35:24Z</time>
      </trkpt>
      <trkpt lat="42.487282" lon="1.568981">
        <ele>2030.000000</ele>
        <time>2020-08-22T11:35:24Z</time>
      </trkpt>
      <trkpt lat="42.487274" lon="1.568982">
        <ele>2030.000000</ele>
        <time>2020-08-22T11:35:24Z</time>
      </trkpt>
      <trkpt lat="42.487274" lon="1.568982">
        <ele>2030.000000</ele>
        <time>2020-08-22T11:35:24Z</time>
      </trkpt>
      <trkpt lat="42.487270" lon="1.568978">
        <ele>2030.000000</ele>
        <time>2020-08-22T11:35:24Z</time>
      </trkpt>
      <trkpt lat="42.487270" lon="1.568978">
        <ele>2030.000000</ele>
        <time>2020-08-22T11:35:24Z</time>
      </trkpt>
      <trkpt lat="42.487259" lon="1.568973">
        <ele>2030.000000</ele>
        <time>2020-08-22T11:35:24Z</time>
      </trkpt>
      <trkpt lat="42.487259" lon="1.568973">
        <ele>2030.000000</ele>
        <time>2020-08-22T11:35:24Z</time>
      </trkpt>
      <trkpt lat="42.487251" lon="1.568968">
        <ele>2030.000000</ele>
        <time>2020-08-22T11:35:24Z</time>
      </trkpt>
      <trkpt lat="42.487251" lon="1.568968">
        <ele>2030.000000</ele>
        <time>2020-08-22T11:35:24Z</time>
      </trkpt>
      <trkpt lat="42.487240" lon="1.568963">
        <ele>2030.000000</ele>
        <time>2020-08-22T11:35:31Z</time>
      </trkpt>
      <trkpt lat="42.487240" lon="1.568963">
        <ele>2030.000000</ele>
        <time>2020-08-22T11:35:31Z</time>
      </trkpt>
      <trkpt lat="42.487232" lon="1.568956">
        <ele>2030.000000</ele>
        <time>2020-08-22T11:35:31Z</time>
      </trkpt>
      <trkpt lat="42.487232" lon="1.568956">
        <ele>2030.000000</ele>
        <time>2020-08-22T11:35:31Z</time>
      </trkpt>
      <trkpt lat="42.487221" lon="1.568949">
        <ele>2030.000000</ele>
        <time>2020-08-22T11:35:31Z</time>
      </trkpt>
      <trkpt lat="42.487221" lon="1.568949">
        <ele>2026.000000</ele>
        <time>2020-08-22T11:35:31Z</time>
      </trkpt>
      <trkpt lat="42.487209" lon="1.568942">
        <ele>2026.000000</ele>
        <time>2020-08-22T11:35:31Z</time>
      </trkpt>
      <trkpt lat="42.487209" lon="1.568942">
        <ele>2026.000000</ele>
        <time>2020-08-22T11:35:31Z</time>
      </trkpt>
      <trkpt lat="42.487202" lon="1.568935">
        <ele>2026.000000</ele>
        <time>2020-08-22T11:35:31Z</time>
      </trkpt>
      <trkpt lat="42.487202" lon="1.568935">
        <ele>2026.000000</ele>
        <time>2020-08-22T11:35:31Z</time>
      </trkpt>
      <trkpt lat="42.487190" lon="1.568929">
        <ele>2026.000000</ele>
        <time>2020-08-22T11:35:31Z</time>
      </trkpt>
      <trkpt lat="42.487190" lon="1.568929">
        <ele>2026.000000</ele>
        <time>2020-08-22T11:35:31Z</time>
      </trkpt>
      <trkpt lat="42.487183" lon="1.568922">
        <ele>2026.000000</ele>
        <time>2020-08-22T11:35:31Z</time>
      </trkpt>
      <trkpt lat="42.487183" lon="1.568922">
        <ele>2026.000000</ele>
        <time>2020-08-22T11:35:31Z</time>
      </trkpt>
      <trkpt lat="42.487164" lon="1.568925">
        <ele>2026.000000</ele>
        <time>2020-08-22T11:35:31Z</time>
      </trkpt>
      <trkpt lat="42.487164" lon="1.568925">
        <ele>2026.000000</ele>
        <time>2020-08-22T11:35:31Z</time>
      </trkpt>
      <trkpt lat="42.487148" lon="1.568929">
        <ele>2026.000000</ele>
        <time>2020-08-22T11:35:31Z</time>
      </trkpt>
      <trkpt lat="42.487148" lon="1.568929">
        <ele>2026.000000</ele>
        <time>2020-08-22T11:35:31Z</time>
      </trkpt>
      <trkpt lat="42.487129" lon="1.568935">
        <ele>2026.000000</ele>
        <time>2020-08-22T11:35:38Z</time>
      </trkpt>
      <trkpt lat="42.487129" lon="1.568935">
        <ele>2026.000000</ele>
        <time>2020-08-22T11:35:38Z</time>
      </trkpt>
      <trkpt lat="42.487114" lon="1.568942">
        <ele>2026.000000</ele>
        <time>2020-08-22T11:35:38Z</time>
      </trkpt>
      <trkpt lat="42.487114" lon="1.568942">
        <ele>2025.000000</ele>
        <time>2020-08-22T11:35:38Z</time>
      </trkpt>
      <trkpt lat="42.487099" lon="1.568950">
        <ele>2025.000000</ele>
        <time>2020-08-22T11:35:38Z</time>
      </trkpt>
      <trkpt lat="42.487099" lon="1.568950">
        <ele>2025.000000</ele>
        <time>2020-08-22T11:35:38Z</time>
      </trkpt>
      <trkpt lat="42.487083" lon="1.568960">
        <ele>2025.000000</ele>
        <time>2020-08-22T11:35:38Z</time>
      </trkpt>
      <trkpt lat="42.487083" lon="1.568960">
        <ele>2025.000000</ele>
        <time>2020-08-22T11:35:38Z</time>
      </trkpt>
      <trkpt lat="42.487068" lon="1.568972">
        <ele>2025.000000</ele>
        <time>2020-08-22T11:35:38Z</time>
      </trkpt>
      <trkpt lat="42.487068" lon="1.568972">
        <ele>2025.000000</ele>
        <time>2020-08-22T11:35:38Z</time>
      </trkpt>
      <trkpt lat="42.487049" lon="1.568984">
        <ele>2025.000000</ele>
        <time>2020-08-22T11:35:38Z</time>
      </trkpt>
      <trkpt lat="42.487049" lon="1.568984">
        <ele>2025.000000</ele>
        <time>2020-08-22T11:35:38Z</time>
      </trkpt>
      <trkpt lat="42.487034" lon="1.568999">
        <ele>2025.000000</ele>
        <time>2020-08-22T11:35:38Z</time>
      </trkpt>
      <trkpt lat="42.487034" lon="1.568999">
        <ele>2025.000000</ele>
        <time>2020-08-22T11:35:38Z</time>
      </trkpt>
      <trkpt lat="42.487015" lon="1.569016">
        <ele>2025.000000</ele>
        <time>2020-08-22T11:35:45Z</time>
      </trkpt>
      <trkpt lat="42.487015" lon="1.569016">
        <ele>2025.000000</ele>
        <time>2020-08-22T11:35:45Z</time>
      </trkpt>
      <trkpt lat="42.487000" lon="1.569036">
        <ele>2025.000000</ele>
        <time>2020-08-22T11:35:45Z</time>
      </trkpt>
      <trkpt lat="42.487000" lon="1.569036">
        <ele>2025.000000</ele>
        <time>2020-08-22T11:35:45Z</time>
      </trkpt>
      <trkpt lat="42.486980" lon="1.569056">
        <ele>2025.000000</ele>
        <time>2020-08-22T11:35:45Z</time>
      </trkpt>
      <trkpt lat="42.486980" lon="1.569056">
        <ele>2025.000000</ele>
        <time>2020-08-22T11:35:45Z</time>
      </trkpt>
      <trkpt lat="42.486965" lon="1.569076">
        <ele>2025.000000</ele>
        <time>2020-08-22T11:35:45Z</time>
      </trkpt>
      <trkpt lat="42.486965" lon="1.569076">
        <ele>2025.000000</ele>
        <time>2020-08-22T11:35:45Z</time>
      </trkpt>
      <trkpt lat="42.486946" lon="1.569096">
        <ele>2025.000000</ele>
        <time>2020-08-22T11:35:45Z</time>
      </trkpt>
      <trkpt lat="42.486946" lon="1.569096">
        <ele>2025.000000</ele>
        <time>2020-08-22T11:35:45Z</time>
      </trkpt>
      <trkpt lat="42.486927" lon="1.569115">
        <ele>2025.000000</ele>
        <time>2020-08-22T11:35:52Z</time>
      </trkpt>
      <trkpt lat="42.486927" lon="1.569115">
        <ele>2025.000000</ele>
        <time>2020-08-22T11:35:52Z</time>
      </trkpt>
      <trkpt lat="42.486908" lon="1.569135">
        <ele>2025.000000</ele>
        <time>2020-08-22T11:35:52Z</time>
      </trkpt>
      <trkpt lat="42.486908" lon="1.569135">
        <ele>2025.000000</ele>
        <time>2020-08-22T11:35:52Z</time>
      </trkpt>
      <trkpt lat="42.486889" lon="1.569155">
        <ele>2025.000000</ele>
        <time>2020-08-22T11:35:52Z</time>
      </trkpt>
      <trkpt lat="42.486889" lon="1.569155">
        <ele>2025.000000</ele>
        <time>2020-08-22T11:35:52Z</time>
      </trkpt>
      <trkpt lat="42.486866" lon="1.569175">
        <ele>2025.000000</ele>
        <time>2020-08-22T11:35:52Z</time>
      </trkpt>
      <trkpt lat="42.486866" lon="1.569175">
        <ele>2025.000000</ele>
        <time>2020-08-22T11:35:52Z</time>
      </trkpt>
      <trkpt lat="42.486847" lon="1.569194">
        <ele>2025.000000</ele>
        <time>2020-08-22T11:35:52Z</time>
      </trkpt>
      <trkpt lat="42.486847" lon="1.569194">
        <ele>2025.000000</ele>
        <time>2020-08-22T11:35:52Z</time>
      </trkpt>
      <trkpt lat="42.486828" lon="1.569211">
        <ele>2025.000000</ele>
        <time>2020-08-22T11:35:52Z</time>
      </trkpt>
      <trkpt lat="42.486828" lon="1.569211">
        <ele>2025.000000</ele>
        <time>2020-08-22T11:35:52Z</time>
      </trkpt>
      <trkpt lat="42.486820" lon="1.569217">
        <ele>2025.000000</ele>
        <time>2020-08-22T11:35:52Z</time>
      </trkpt>
      <trkpt lat="42.486820" lon="1.569217">
        <ele>2025.000000</ele>
        <time>2020-08-22T11:35:52Z</time>
      </trkpt>
      <trkpt lat="42.486809" lon="1.569221">
        <ele>2025.000000</ele>
        <time>2020-08-22T11:35:59Z</time>
      </trkpt>
      <trkpt lat="42.486809" lon="1.569221">
        <ele>2025.000000</ele>
        <time>2020-08-22T11:35:59Z</time>
      </trkpt>
      <trkpt lat="42.486801" lon="1.569226">
        <ele>2025.000000</ele>
        <time>2020-08-22T11:35:59Z</time>
      </trkpt>
      <trkpt lat="42.486801" lon="1.569226">
        <ele>2025.000000</ele>
        <time>2020-08-22T11:35:59Z</time>
      </trkpt>
      <trkpt lat="42.486794" lon="1.569230">
        <ele>2025.000000</ele>
        <time>2020-08-22T11:35:59Z</time>
      </trkpt>
      <trkpt lat="42.486794" lon="1.569230">
        <ele>2025.000000</ele>
        <time>2020-08-22T11:35:59Z</time>
      </trkpt>
      <trkpt lat="42.486786" lon="1.569234">
        <ele>2025.000000</ele>
        <time>2020-08-22T11:35:59Z</time>
      </trkpt>
      <trkpt lat="42.486786" lon="1.569234">
        <ele>2025.000000</ele>
        <time>2020-08-22T11:35:59Z</time>
      </trkpt>
      <trkpt lat="42.486774" lon="1.569236">
        <ele>2025.000000</ele>
        <time>2020-08-22T11:35:59Z</time>
      </trkpt>
      <trkpt lat="42.486774" lon="1.569236">
        <ele>2025.000000</ele>
        <time>2020-08-22T11:35:59Z</time>
      </trkpt>
      <trkpt lat="42.486771" lon="1.569238">
        <ele>2024.000000</ele>
        <time>2020-08-22T11:35:59Z</time>
      </trkpt>
      <trkpt lat="42.486771" lon="1.569238">
        <ele>2024.000000</ele>
        <time>2020-08-22T11:35:59Z</time>
      </trkpt>
      <trkpt lat="42.486767" lon="1.569239">
        <ele>2024.000000</ele>
        <time>2020-08-22T11:35:59Z</time>
      </trkpt>
      <trkpt lat="42.486767" lon="1.569239">
        <ele>2024.000000</ele>
        <time>2020-08-22T11:35:59Z</time>
      </trkpt>
      <trkpt lat="42.486759" lon="1.569239">
        <ele>2024.000000</ele>
        <time>2020-08-22T11:36:06Z</time>
      </trkpt>
      <trkpt lat="42.486759" lon="1.569239">
        <ele>2024.000000</ele>
        <time>2020-08-22T11:36:06Z</time>
      </trkpt>
      <trkpt lat="42.486755" lon="1.569239">
        <ele>2024.000000</ele>
        <time>2020-08-22T11:36:06Z</time>
      </trkpt>
      <trkpt lat="42.486755" lon="1.569239">
        <ele>2024.000000</ele>
        <time>2020-08-22T11:36:06Z</time>
      </trkpt>
      <trkpt lat="42.486748" lon="1.569243">
        <ele>2024.000000</ele>
        <time>2020-08-22T11:36:06Z</time>
      </trkpt>
      <trkpt lat="42.486748" lon="1.569243">
        <ele>2025.000000</ele>
        <time>2020-08-22T11:36:06Z</time>
      </trkpt>
      <trkpt lat="42.486740" lon="1.569248">
        <ele>2025.000000</ele>
        <time>2020-08-22T11:36:06Z</time>
      </trkpt>
      <trkpt lat="42.486740" lon="1.569248">
        <ele>2025.000000</ele>
        <time>2020-08-22T11:36:06Z</time>
      </trkpt>
      <trkpt lat="42.486732" lon="1.569253">
        <ele>2025.000000</ele>
        <time>2020-08-22T11:36:13Z</time>
      </trkpt>
      <trkpt lat="42.486732" lon="1.569253">
        <ele>2025.000000</ele>
        <time>2020-08-22T11:36:13Z</time>
      </trkpt>
      <trkpt lat="42.486721" lon="1.569259">
        <ele>2025.000000</ele>
        <time>2020-08-22T11:36:13Z</time>
      </trkpt>
      <trkpt lat="42.486721" lon="1.569259">
        <ele>2025.000000</ele>
        <time>2020-08-22T11:36:13Z</time>
      </trkpt>
      <trkpt lat="42.486713" lon="1.569265">
        <ele>2025.000000</ele>
        <time>2020-08-22T11:36:13Z</time>
      </trkpt>
      <trkpt lat="42.486713" lon="1.569265">
        <ele>2025.000000</ele>
        <time>2020-08-22T11:36:13Z</time>
      </trkpt>
      <trkpt lat="42.486706" lon="1.569271">
        <ele>2025.000000</ele>
        <time>2020-08-22T11:36:13Z</time>
      </trkpt>
      <trkpt lat="42.486706" lon="1.569271">
        <ele>2025.000000</ele>
        <time>2020-08-22T11:36:13Z</time>
      </trkpt>
      <trkpt lat="42.486694" lon="1.569278">
        <ele>2025.000000</ele>
        <time>2020-08-22T11:36:13Z</time>
      </trkpt>
      <trkpt lat="42.486694" lon="1.569278">
        <ele>2025.000000</ele>
        <time>2020-08-22T11:36:13Z</time>
      </trkpt>
      <trkpt lat="42.486687" lon="1.569284">
        <ele>2025.000000</ele>
        <time>2020-08-22T11:36:13Z</time>
      </trkpt>
      <trkpt lat="42.486687" lon="1.569284">
        <ele>2025.000000</ele>
        <time>2020-08-22T11:36:13Z</time>
      </trkpt>
      <trkpt lat="42.486679" lon="1.569290">
        <ele>2025.000000</ele>
        <time>2020-08-22T11:36:13Z</time>
      </trkpt>
      <trkpt lat="42.486679" lon="1.569290">
        <ele>2025.000000</ele>
        <time>2020-08-22T11:36:13Z</time>
      </trkpt>
      <trkpt lat="42.486668" lon="1.569295">
        <ele>2025.000000</ele>
        <time>2020-08-22T11:36:20Z</time>
      </trkpt>
      <trkpt lat="42.486668" lon="1.569295">
        <ele>2025.000000</ele>
        <time>2020-08-22T11:36:20Z</time>
      </trkpt>
      <trkpt lat="42.486660" lon="1.569298">
        <ele>2025.000000</ele>
        <time>2020-08-22T11:36:20Z</time>
      </trkpt>
      <trkpt lat="42.486660" lon="1.569298">
        <ele>2025.000000</ele>
        <time>2020-08-22T11:36:20Z</time>
      </trkpt>
      <trkpt lat="42.486652" lon="1.569302">
        <ele>2025.000000</ele>
        <time>2020-08-22T11:36:27Z</time>
      </trkpt>
      <trkpt lat="42.486652" lon="1.569302">
        <ele>2025.000000</ele>
        <time>2020-08-22T11:36:27Z</time>
      </trkpt>
      <trkpt lat="42.486645" lon="1.569307">
        <ele>2025.000000</ele>
        <time>2020-08-22T11:36:27Z</time>
      </trkpt>
      <trkpt lat="42.486645" lon="1.569307">
        <ele>2025.000000</ele>
        <time>2020-08-22T11:36:27Z</time>
      </trkpt>
      <trkpt lat="42.486641" lon="1.569311">
        <ele>2025.000000</ele>
        <time>2020-08-22T11:36:27Z</time>
      </trkpt>
      <trkpt lat="42.486641" lon="1.569311">
        <ele>2025.000000</ele>
        <time>2020-08-22T11:36:27Z</time>
      </trkpt>
      <trkpt lat="42.486633" lon="1.569316">
        <ele>2025.000000</ele>
        <time>2020-08-22T11:36:27Z</time>
      </trkpt>
      <trkpt lat="42.486633" lon="1.569316">
        <ele>2025.000000</ele>
        <time>2020-08-22T11:36:27Z</time>
      </trkpt>
      <trkpt lat="42.486622" lon="1.569321">
        <ele>2025.000000</ele>
        <time>2020-08-22T11:36:27Z</time>
      </trkpt>
      <trkpt lat="42.486622" lon="1.569321">
        <ele>2025.000000</ele>
        <time>2020-08-22T11:36:27Z</time>
      </trkpt>
      <trkpt lat="42.486614" lon="1.569326">
        <ele>2024.000000</ele>
        <time>2020-08-22T11:36:27Z</time>
      </trkpt>
      <trkpt lat="42.486614" lon="1.569326">
        <ele>2024.000000</ele>
        <time>2020-08-22T11:36:27Z</time>
      </trkpt>
      <trkpt lat="42.486603" lon="1.569330">
        <ele>2024.000000</ele>
        <time>2020-08-22T11:36:27Z</time>
      </trkpt>
      <trkpt lat="42.486603" lon="1.569330">
        <ele>2024.000000</ele>
        <time>2020-08-22T11:36:27Z</time>
      </trkpt>
      <trkpt lat="42.486591" lon="1.569335">
        <ele>2024.000000</ele>
        <time>2020-08-22T11:36:39Z</time>
      </trkpt>
      <trkpt lat="42.486591" lon="1.569335">
        <ele>2024.000000</ele>
        <time>2020-08-22T11:36:39Z</time>
      </trkpt>
      <trkpt lat="42.486580" lon="1.569341">
        <ele>2024.000000</ele>
        <time>2020-08-22T11:36:39Z</time>
      </trkpt>
      <trkpt lat="42.486580" lon="1.569341">
        <ele>2024.000000</ele>
        <time>2020-08-22T11:36:39Z</time>
      </trkpt>
      <trkpt lat="42.486568" lon="1.569345">
        <ele>2024.000000</ele>
        <time>2020-08-22T11:36:39Z</time>
      </trkpt>
      <trkpt lat="42.486568" lon="1.569345">
        <ele>2024.000000</ele>
        <time>2020-08-22T11:36:39Z</time>
      </trkpt>
      <trkpt lat="42.486553" lon="1.569348">
        <ele>2024.000000</ele>
        <time>2020-08-22T11:36:46Z</time>
      </trkpt>
      <trkpt lat="42.486553" lon="1.569348">
        <ele>2024.000000</ele>
        <time>2020-08-22T11:36:46Z</time>
      </trkpt>
      <trkpt lat="42.486538" lon="1.569349">
        <ele>2024.000000</ele>
        <time>2020-08-22T11:36:46Z</time>
      </trkpt>
      <trkpt lat="42.486538" lon="1.569349">
        <ele>2024.000000</ele>
        <time>2020-08-22T11:36:46Z</time>
      </trkpt>
      <trkpt lat="42.486523" lon="1.569350">
        <ele>2024.000000</ele>
        <time>2020-08-22T11:36:46Z</time>
      </trkpt>
      <trkpt lat="42.486523" lon="1.569350">
        <ele>2024.000000</ele>
        <time>2020-08-22T11:36:46Z</time>
      </trkpt>
      <trkpt lat="42.486511" lon="1.569350">
        <ele>2024.000000</ele>
        <time>2020-08-22T11:36:46Z</time>
      </trkpt>
      <trkpt lat="42.486511" lon="1.569350">
        <ele>2024.000000</ele>
        <time>2020-08-22T11:36:46Z</time>
      </trkpt>
      <trkpt lat="42.486496" lon="1.569351">
        <ele>2024.000000</ele>
        <time>2020-08-22T11:36:46Z</time>
      </trkpt>
      <trkpt lat="42.486496" lon="1.569351">
        <ele>2024.000000</ele>
        <time>2020-08-22T11:36:46Z</time>
      </trkpt>
      <trkpt lat="42.486481" lon="1.569352">
        <ele>2024.000000</ele>
        <time>2020-08-22T11:36:46Z</time>
      </trkpt>
      <trkpt lat="42.486481" lon="1.569352">
        <ele>2025.000000</ele>
        <time>2020-08-22T11:36:46Z</time>
      </trkpt>
      <trkpt lat="42.486465" lon="1.569355">
        <ele>2025.000000</ele>
        <time>2020-08-22T11:36:46Z</time>
      </trkpt>
      <trkpt lat="42.486465" lon="1.569355">
        <ele>2025.000000</ele>
        <time>2020-08-22T11:36:46Z</time>
      </trkpt>
      <trkpt lat="42.486454" lon="1.569360">
        <ele>2025.000000</ele>
        <time>2020-08-22T11:36:53Z</time>
      </trkpt>
      <trkpt lat="42.486454" lon="1.569360">
        <ele>2025.000000</ele>
        <time>2020-08-22T11:36:53Z</time>
      </trkpt>
      <trkpt lat="42.486439" lon="1.569367">
        <ele>2025.000000</ele>
        <time>2020-08-22T11:36:53Z</time>
      </trkpt>
      <trkpt lat="42.486439" lon="1.569367">
        <ele>2025.000000</ele>
        <time>2020-08-22T11:36:53Z</time>
      </trkpt>
      <trkpt lat="42.486423" lon="1.569379">
        <ele>2025.000000</ele>
        <time>2020-08-22T11:36:53Z</time>
      </trkpt>
      <trkpt lat="42.486423" lon="1.569379">
        <ele>2025.000000</ele>
        <time>2020-08-22T11:36:53Z</time>
      </trkpt>
      <trkpt lat="42.486412" lon="1.569391">
        <ele>2025.000000</ele>
        <time>2020-08-22T11:36:53Z</time>
      </trkpt>
      <trkpt lat="42.486412" lon="1.569391">
        <ele>2025.000000</ele>
        <time>2020-08-22T11:36:53Z</time>
      </trkpt>
      <trkpt lat="42.486393" lon="1.569404">
        <ele>2025.000000</ele>
        <time>2020-08-22T11:36:53Z</time>
      </trkpt>
      <trkpt lat="42.486393" lon="1.569404">
        <ele>2025.000000</ele>
        <time>2020-08-22T11:36:53Z</time>
      </trkpt>
      <trkpt lat="42.486382" lon="1.569416">
        <ele>2025.000000</ele>
        <time>2020-08-22T11:36:53Z</time>
      </trkpt>
      <trkpt lat="42.486382" lon="1.569416">
        <ele>2025.000000</ele>
        <time>2020-08-22T11:36:53Z</time>
      </trkpt>
      <trkpt lat="42.486366" lon="1.569429">
        <ele>2025.000000</ele>
        <time>2020-08-22T11:36:53Z</time>
      </trkpt>
      <trkpt lat="42.486366" lon="1.569429">
        <ele>2025.000000</ele>
        <time>2020-08-22T11:36:53Z</time>
      </trkpt>
      <trkpt lat="42.486351" lon="1.569441">
        <ele>2025.000000</ele>
        <time>2020-08-22T11:37:04Z</time>
      </trkpt>
      <trkpt lat="42.486351" lon="1.569441">
        <ele>2025.000000</ele>
        <time>2020-08-22T11:37:04Z</time>
      </trkpt>
      <trkpt lat="42.486336" lon="1.569454">
        <ele>2025.000000</ele>
        <time>2020-08-22T11:37:04Z</time>
      </trkpt>
      <trkpt lat="42.486336" lon="1.569454">
        <ele>2025.000000</ele>
        <time>2020-08-22T11:37:04Z</time>
      </trkpt>
      <trkpt lat="42.486324" lon="1.569465">
        <ele>2025.000000</ele>
        <time>2020-08-22T11:37:04Z</time>
      </trkpt>
      <trkpt lat="42.486324" lon="1.569465">
        <ele>2025.000000</ele>
        <time>2020-08-22T11:37:04Z</time>
      </trkpt>
      <trkpt lat="42.486309" lon="1.569474">
        <ele>2025.000000</ele>
        <time>2020-08-22T11:37:04Z</time>
      </trkpt>
      <trkpt lat="42.486309" lon="1.569474">
        <ele>2025.000000</ele>
        <time>2020-08-22T11:37:04Z</time>
      </trkpt>
      <trkpt lat="42.486298" lon="1.569482">
        <ele>2025.000000</ele>
        <time>2020-08-22T11:37:04Z</time>
      </trkpt>
      <trkpt lat="42.486298" lon="1.569482">
        <ele>2025.000000</ele>
        <time>2020-08-22T11:37:04Z</time>
      </trkpt>
      <trkpt lat="42.486286" lon="1.569486">
        <ele>2025.000000</ele>
        <time>2020-08-22T11:37:04Z</time>
      </trkpt>
      <trkpt lat="42.486286" lon="1.569486">
        <ele>2025.000000</ele>
        <time>2020-08-22T11:37:04Z</time>
      </trkpt>
      <trkpt lat="42.486275" lon="1.569491">
        <ele>2024.000000</ele>
        <time>2020-08-22T11:37:04Z</time>
      </trkpt>
      <trkpt lat="42.486275" lon="1.569491">
        <ele>2024.000000</ele>
        <time>2020-08-22T11:37:04Z</time>
      </trkpt>
      <trkpt lat="42.486263" lon="1.569496">
        <ele>2024.000000</ele>
        <time>2020-08-22T11:37:04Z</time>
      </trkpt>
      <trkpt lat="42.486263" lon="1.569496">
        <ele>2024.000000</ele>
        <time>2020-08-22T11:37:04Z</time>
      </trkpt>
      <trkpt lat="42.486252" lon="1.569503">
        <ele>2023.000000</ele>
        <time>2020-08-22T11:37:04Z</time>
      </trkpt>
      <trkpt lat="42.486252" lon="1.569503">
        <ele>2023.000000</ele>
        <time>2020-08-22T11:37:04Z</time>
      </trkpt>
      <trkpt lat="42.486244" lon="1.569511">
        <ele>2023.000000</ele>
        <time>2020-08-22T11:37:04Z</time>
      </trkpt>
      <trkpt lat="42.486244" lon="1.569511">
        <ele>2018.000000</ele>
        <time>2020-08-22T11:37:04Z</time>
      </trkpt>
      <trkpt lat="42.486237" lon="1.569519">
        <ele>2017.000000</ele>
        <time>2020-08-22T11:37:04Z</time>
      </trkpt>
      <trkpt lat="42.486237" lon="1.569519">
        <ele>2017.000000</ele>
        <time>2020-08-22T11:37:04Z</time>
      </trkpt>
      <trkpt lat="42.486225" lon="1.569527">
        <ele>2017.000000</ele>
        <time>2020-08-22T11:37:11Z</time>
      </trkpt>
      <trkpt lat="42.486225" lon="1.569527">
        <ele>2017.000000</ele>
        <time>2020-08-22T11:37:11Z</time>
      </trkpt>
      <trkpt lat="42.486214" lon="1.569537">
        <ele>2017.000000</ele>
        <time>2020-08-22T11:37:11Z</time>
      </trkpt>
      <trkpt lat="42.486214" lon="1.569537">
        <ele>2017.000000</ele>
        <time>2020-08-22T11:37:11Z</time>
      </trkpt>
      <trkpt lat="42.486206" lon="1.569546">
        <ele>2017.000000</ele>
        <time>2020-08-22T11:37:11Z</time>
      </trkpt>
      <trkpt lat="42.486206" lon="1.569546">
        <ele>2017.000000</ele>
        <time>2020-08-22T11:37:11Z</time>
      </trkpt>
      <trkpt lat="42.486195" lon="1.569556">
        <ele>2016.000000</ele>
        <time>2020-08-22T11:37:11Z</time>
      </trkpt>
      <trkpt lat="42.486195" lon="1.569556">
        <ele>2016.000000</ele>
        <time>2020-08-22T11:37:11Z</time>
      </trkpt>
      <trkpt lat="42.486187" lon="1.569565">
        <ele>2016.000000</ele>
        <time>2020-08-22T11:37:11Z</time>
      </trkpt>
      <trkpt lat="42.486187" lon="1.569565">
        <ele>2015.000000</ele>
        <time>2020-08-22T11:37:11Z</time>
      </trkpt>
      <trkpt lat="42.486183" lon="1.569573">
        <ele>2015.000000</ele>
        <time>2020-08-22T11:37:11Z</time>
      </trkpt>
      <trkpt lat="42.486183" lon="1.569573">
        <ele>2015.000000</ele>
        <time>2020-08-22T11:37:11Z</time>
      </trkpt>
      <trkpt lat="42.486172" lon="1.569581">
        <ele>2015.000000</ele>
        <time>2020-08-22T11:37:11Z</time>
      </trkpt>
      <trkpt lat="42.486172" lon="1.569581">
        <ele>2014.000000</ele>
        <time>2020-08-22T11:37:11Z</time>
      </trkpt>
      <trkpt lat="42.486164" lon="1.569588">
        <ele>2014.000000</ele>
        <time>2020-08-22T11:37:18Z</time>
      </trkpt>
      <trkpt lat="42.486164" lon="1.569588">
        <ele>2014.000000</ele>
        <time>2020-08-22T11:37:18Z</time>
      </trkpt>
      <trkpt lat="42.486156" lon="1.569594">
        <ele>2014.000000</ele>
        <time>2020-08-22T11:37:18Z</time>
      </trkpt>
      <trkpt lat="42.486156" lon="1.569594">
        <ele>2013.000000</ele>
        <time>2020-08-22T11:37:18Z</time>
      </trkpt>
      <trkpt lat="42.486153" lon="1.569601">
        <ele>2013.000000</ele>
        <time>2020-08-22T11:37:18Z</time>
      </trkpt>
      <trkpt lat="42.486153" lon="1.569601">
        <ele>2013.000000</ele>
        <time>2020-08-22T11:37:18Z</time>
      </trkpt>
      <trkpt lat="42.486145" lon="1.569608">
        <ele>2013.000000</ele>
        <time>2020-08-22T11:37:18Z</time>
      </trkpt>
      <trkpt lat="42.486145" lon="1.569608">
        <ele>2013.000000</ele>
        <time>2020-08-22T11:37:18Z</time>
      </trkpt>
      <trkpt lat="42.486141" lon="1.569616">
        <ele>2013.000000</ele>
        <time>2020-08-22T11:37:18Z</time>
      </trkpt>
      <trkpt lat="42.486141" lon="1.569616">
        <ele>2013.000000</ele>
        <time>2020-08-22T11:37:18Z</time>
      </trkpt>
      <trkpt lat="42.486137" lon="1.569624">
        <ele>2013.000000</ele>
        <time>2020-08-22T11:37:18Z</time>
      </trkpt>
      <trkpt lat="42.486137" lon="1.569624">
        <ele>2013.000000</ele>
        <time>2020-08-22T11:37:18Z</time>
      </trkpt>
      <trkpt lat="42.486134" lon="1.569632">
        <ele>2013.000000</ele>
        <time>2020-08-22T11:37:18Z</time>
      </trkpt>
      <trkpt lat="42.486134" lon="1.569632">
        <ele>2013.000000</ele>
        <time>2020-08-22T11:37:18Z</time>
      </trkpt>
      <trkpt lat="42.486126" lon="1.569644">
        <ele>2013.000000</ele>
        <time>2020-08-22T11:37:18Z</time>
      </trkpt>
      <trkpt lat="42.486126" lon="1.569644">
        <ele>2013.000000</ele>
        <time>2020-08-22T11:37:18Z</time>
      </trkpt>
      <trkpt lat="42.486118" lon="1.569655">
        <ele>2013.000000</ele>
        <time>2020-08-22T11:37:18Z</time>
      </trkpt>
      <trkpt lat="42.486118" lon="1.569655">
        <ele>2013.000000</ele>
        <time>2020-08-22T11:37:18Z</time>
      </trkpt>
      <trkpt lat="42.486111" lon="1.569667">
        <ele>2013.000000</ele>
        <time>2020-08-22T11:37:18Z</time>
      </trkpt>
      <trkpt lat="42.486111" lon="1.569667">
        <ele>2013.000000</ele>
        <time>2020-08-22T11:37:18Z</time>
      </trkpt>
      <trkpt lat="42.486103" lon="1.569678">
        <ele>2013.000000</ele>
        <time>2020-08-22T11:37:18Z</time>
      </trkpt>
      <trkpt lat="42.486103" lon="1.569678">
        <ele>2013.000000</ele>
        <time>2020-08-22T11:37:18Z</time>
      </trkpt>
      <trkpt lat="42.486095" lon="1.569690">
        <ele>2013.000000</ele>
        <time>2020-08-22T11:37:25Z</time>
      </trkpt>
      <trkpt lat="42.486095" lon="1.569690">
        <ele>2011.000000</ele>
        <time>2020-08-22T11:37:25Z</time>
      </trkpt>
      <trkpt lat="42.486084" lon="1.569702">
        <ele>2011.000000</ele>
        <time>2020-08-22T11:37:25Z</time>
      </trkpt>
      <trkpt lat="42.486084" lon="1.569702">
        <ele>2011.000000</ele>
        <time>2020-08-22T11:37:25Z</time>
      </trkpt>
      <trkpt lat="42.486076" lon="1.569714">
        <ele>2011.000000</ele>
        <time>2020-08-22T11:37:25Z</time>
      </trkpt>
      <trkpt lat="42.486076" lon="1.569714">
        <ele>2011.000000</ele>
        <time>2020-08-22T11:37:25Z</time>
      </trkpt>
      <trkpt lat="42.486065" lon="1.569725">
        <ele>2010.000000</ele>
        <time>2020-08-22T11:37:25Z</time>
      </trkpt>
      <trkpt lat="42.486065" lon="1.569725">
        <ele>2010.000000</ele>
        <time>2020-08-22T11:37:25Z</time>
      </trkpt>
      <trkpt lat="42.486057" lon="1.569736">
        <ele>2010.000000</ele>
        <time>2020-08-22T11:37:25Z</time>
      </trkpt>
      <trkpt lat="42.486057" lon="1.569736">
        <ele>2010.000000</ele>
        <time>2020-08-22T11:37:25Z</time>
      </trkpt>
      <trkpt lat="42.486046" lon="1.569746">
        <ele>2010.000000</ele>
        <time>2020-08-22T11:37:25Z</time>
      </trkpt>
      <trkpt lat="42.486046" lon="1.569746">
        <ele>2009.000000</ele>
        <time>2020-08-22T11:37:25Z</time>
      </trkpt>
      <trkpt lat="42.486038" lon="1.569752">
        <ele>2009.000000</ele>
        <time>2020-08-22T11:37:25Z</time>
      </trkpt>
      <trkpt lat="42.486038" lon="1.569752">
        <ele>2009.000000</ele>
        <time>2020-08-22T11:37:25Z</time>
      </trkpt>
      <trkpt lat="42.486027" lon="1.569758">
        <ele>2008.000000</ele>
        <time>2020-08-22T11:37:32Z</time>
      </trkpt>
      <trkpt lat="42.486027" lon="1.569758">
        <ele>2008.000000</ele>
        <time>2020-08-22T11:37:32Z</time>
      </trkpt>
      <trkpt lat="42.486011" lon="1.569764">
        <ele>2008.000000</ele>
        <time>2020-08-22T11:37:32Z</time>
      </trkpt>
      <trkpt lat="42.486011" lon="1.569764">
        <ele>2007.000000</ele>
        <time>2020-08-22T11:37:32Z</time>
      </trkpt>
      <trkpt lat="42.486000" lon="1.569769">
        <ele>2007.000000</ele>
        <time>2020-08-22T11:37:32Z</time>
      </trkpt>
      <trkpt lat="42.486000" lon="1.569769">
        <ele>2007.000000</ele>
        <time>2020-08-22T11:37:32Z</time>
      </trkpt>
      <trkpt lat="42.485985" lon="1.569773">
        <ele>2006.000000</ele>
        <time>2020-08-22T11:37:32Z</time>
      </trkpt>
      <trkpt lat="42.485985" lon="1.569773">
        <ele>2006.000000</ele>
        <time>2020-08-22T11:37:32Z</time>
      </trkpt>
      <trkpt lat="42.485973" lon="1.569777">
        <ele>2006.000000</ele>
        <time>2020-08-22T11:37:32Z</time>
      </trkpt>
      <trkpt lat="42.485973" lon="1.569777">
        <ele>2006.000000</ele>
        <time>2020-08-22T11:37:32Z</time>
      </trkpt>
      <trkpt lat="42.485958" lon="1.569780">
        <ele>2006.000000</ele>
        <time>2020-08-22T11:37:32Z</time>
      </trkpt>
      <trkpt lat="42.485958" lon="1.569780">
        <ele>2005.000000</ele>
        <time>2020-08-22T11:37:32Z</time>
      </trkpt>
      <trkpt lat="42.485943" lon="1.569784">
        <ele>2005.000000</ele>
        <time>2020-08-22T11:37:32Z</time>
      </trkpt>
      <trkpt lat="42.485943" lon="1.569784">
        <ele>2005.000000</ele>
        <time>2020-08-22T11:37:32Z</time>
      </trkpt>
      <trkpt lat="42.485931" lon="1.569788">
        <ele>2005.000000</ele>
        <time>2020-08-22T11:37:39Z</time>
      </trkpt>
      <trkpt lat="42.485931" lon="1.569788">
        <ele>2005.000000</ele>
        <time>2020-08-22T11:37:39Z</time>
      </trkpt>
      <trkpt lat="42.485920" lon="1.569794">
        <ele>2005.000000</ele>
        <time>2020-08-22T11:37:39Z</time>
      </trkpt>
      <trkpt lat="42.485920" lon="1.569794">
        <ele>2005.000000</ele>
        <time>2020-08-22T11:37:39Z</time>
      </trkpt>
      <trkpt lat="42.485908" lon="1.569800">
        <ele>2005.000000</ele>
        <time>2020-08-22T11:37:39Z</time>
      </trkpt>
      <trkpt lat="42.485908" lon="1.569800">
        <ele>2005.000000</ele>
        <time>2020-08-22T11:37:39Z</time>
      </trkpt>
      <trkpt lat="42.485901" lon="1.569807">
        <ele>2005.000000</ele>
        <time>2020-08-22T11:37:39Z</time>
      </trkpt>
      <trkpt lat="42.485901" lon="1.569807">
        <ele>2005.000000</ele>
        <time>2020-08-22T11:37:39Z</time>
      </trkpt>
      <trkpt lat="42.485897" lon="1.569815">
        <ele>2005.000000</ele>
        <time>2020-08-22T11:37:39Z</time>
      </trkpt>
      <trkpt lat="42.485897" lon="1.569815">
        <ele>2004.000000</ele>
        <time>2020-08-22T11:37:39Z</time>
      </trkpt>
      <trkpt lat="42.485889" lon="1.569824">
        <ele>2004.000000</ele>
        <time>2020-08-22T11:37:39Z</time>
      </trkpt>
      <trkpt lat="42.485889" lon="1.569824">
        <ele>2004.000000</ele>
        <time>2020-08-22T11:37:39Z</time>
      </trkpt>
      <trkpt lat="42.485889" lon="1.569833">
        <ele>2004.000000</ele>
        <time>2020-08-22T11:37:39Z</time>
      </trkpt>
      <trkpt lat="42.485889" lon="1.569833">
        <ele>2004.000000</ele>
        <time>2020-08-22T11:37:39Z</time>
      </trkpt>
      <trkpt lat="42.485882" lon="1.569843">
        <ele>2004.000000</ele>
        <time>2020-08-22T11:37:46Z</time>
      </trkpt>
      <trkpt lat="42.485882" lon="1.569843">
        <ele>2003.000000</ele>
        <time>2020-08-22T11:37:46Z</time>
      </trkpt>
      <trkpt lat="42.485882" lon="1.569854">
        <ele>2003.000000</ele>
        <time>2020-08-22T11:37:46Z</time>
      </trkpt>
      <trkpt lat="42.485882" lon="1.569854">
        <ele>2003.000000</ele>
        <time>2020-08-22T11:37:46Z</time>
      </trkpt>
      <trkpt lat="42.485878" lon="1.569864">
        <ele>2003.000000</ele>
        <time>2020-08-22T11:37:46Z</time>
      </trkpt>
      <trkpt lat="42.485878" lon="1.569864">
        <ele>2003.000000</ele>
        <time>2020-08-22T11:37:46Z</time>
      </trkpt>
      <trkpt lat="42.485870" lon="1.569875">
        <ele>2003.000000</ele>
        <time>2020-08-22T11:37:46Z</time>
      </trkpt>
      <trkpt lat="42.485870" lon="1.569875">
        <ele>2003.000000</ele>
        <time>2020-08-22T11:37:46Z</time>
      </trkpt>
      <trkpt lat="42.485870" lon="1.569885">
        <ele>2002.000000</ele>
        <time>2020-08-22T11:37:46Z</time>
      </trkpt>
      <trkpt lat="42.485870" lon="1.569885">
        <ele>2002.000000</ele>
        <time>2020-08-22T11:37:46Z</time>
      </trkpt>
      <trkpt lat="42.485863" lon="1.569897">
        <ele>2002.000000</ele>
        <time>2020-08-22T11:37:46Z</time>
      </trkpt>
      <trkpt lat="42.485863" lon="1.569897">
        <ele>2002.000000</ele>
        <time>2020-08-22T11:37:46Z</time>
      </trkpt>
      <trkpt lat="42.485859" lon="1.569909">
        <ele>2002.000000</ele>
        <time>2020-08-22T11:37:46Z</time>
      </trkpt>
      <trkpt lat="42.485859" lon="1.569909">
        <ele>2002.000000</ele>
        <time>2020-08-22T11:37:46Z</time>
      </trkpt>
      <trkpt lat="42.485855" lon="1.569921">
        <ele>2002.000000</ele>
        <time>2020-08-22T11:37:53Z</time>
      </trkpt>
      <trkpt lat="42.485855" lon="1.569921">
        <ele>2002.000000</ele>
        <time>2020-08-22T11:37:53Z</time>
      </trkpt>
      <trkpt lat="42.485847" lon="1.569932">
        <ele>2001.000000</ele>
        <time>2020-08-22T11:37:53Z</time>
      </trkpt>
      <trkpt lat="42.485847" lon="1.569932">
        <ele>2001.000000</ele>
        <time>2020-08-22T11:37:53Z</time>
      </trkpt>
      <trkpt lat="42.485844" lon="1.569944">
        <ele>2001.000000</ele>
        <time>2020-08-22T11:37:53Z</time>
      </trkpt>
      <trkpt lat="42.485844" lon="1.569944">
        <ele>2001.000000</ele>
        <time>2020-08-22T11:37:53Z</time>
      </trkpt>
      <trkpt lat="42.485836" lon="1.569955">
        <ele>2001.000000</ele>
        <time>2020-08-22T11:37:53Z</time>
      </trkpt>
      <trkpt lat="42.485836" lon="1.569955">
        <ele>2001.000000</ele>
        <time>2020-08-22T11:37:53Z</time>
      </trkpt>
      <trkpt lat="42.485832" lon="1.569966">
        <ele>2001.000000</ele>
        <time>2020-08-22T11:37:53Z</time>
      </trkpt>
      <trkpt lat="42.485832" lon="1.569966">
        <ele>2001.000000</ele>
        <time>2020-08-22T11:37:53Z</time>
      </trkpt>
      <trkpt lat="42.485828" lon="1.569976">
        <ele>2001.000000</ele>
        <time>2020-08-22T11:37:53Z</time>
      </trkpt>
      <trkpt lat="42.485828" lon="1.569976">
        <ele>2000.000000</ele>
        <time>2020-08-22T11:37:53Z</time>
      </trkpt>
      <trkpt lat="42.485825" lon="1.569985">
        <ele>2000.000000</ele>
        <time>2020-08-22T11:37:53Z</time>
      </trkpt>
      <trkpt lat="42.485825" lon="1.569985">
        <ele>2000.000000</ele>
        <time>2020-08-22T11:37:53Z</time>
      </trkpt>
      <trkpt lat="42.485821" lon="1.569994">
        <ele>2000.000000</ele>
        <time>2020-08-22T11:38:01Z</time>
      </trkpt>
      <trkpt lat="42.485821" lon="1.569994">
        <ele>2000.000000</ele>
        <time>2020-08-22T11:38:01Z</time>
      </trkpt>
      <trkpt lat="42.485817" lon="1.570002">
        <ele>2000.000000</ele>
        <time>2020-08-22T11:38:01Z</time>
      </trkpt>
      <trkpt lat="42.485817" lon="1.570002">
        <ele>2000.000000</ele>
        <time>2020-08-22T11:38:01Z</time>
      </trkpt>
      <trkpt lat="42.485817" lon="1.570010">
        <ele>2000.000000</ele>
        <time>2020-08-22T11:38:01Z</time>
      </trkpt>
      <trkpt lat="42.485817" lon="1.570010">
        <ele>2000.000000</ele>
        <time>2020-08-22T11:38:01Z</time>
      </trkpt>
      <trkpt lat="42.485813" lon="1.570018">
        <ele>2000.000000</ele>
        <time>2020-08-22T11:38:01Z</time>
      </trkpt>
      <trkpt lat="42.485813" lon="1.570018">
        <ele>2000.000000</ele>
        <time>2020-08-22T11:38:01Z</time>
      </trkpt>
      <trkpt lat="42.485809" lon="1.570026">
        <ele>2000.000000</ele>
        <time>2020-08-22T11:38:01Z</time>
      </trkpt>
      <trkpt lat="42.485809" lon="1.570026">
        <ele>2000.000000</ele>
        <time>2020-08-22T11:38:01Z</time>
      </trkpt>
      <trkpt lat="42.485806" lon="1.570035">
        <ele>2000.000000</ele>
        <time>2020-08-22T11:38:08Z</time>
      </trkpt>
      <trkpt lat="42.485806" lon="1.570035">
        <ele>2000.000000</ele>
        <time>2020-08-22T11:38:08Z</time>
      </trkpt>
      <trkpt lat="42.485802" lon="1.570044">
        <ele>2000.000000</ele>
        <time>2020-08-22T11:38:08Z</time>
      </trkpt>
      <trkpt lat="42.485802" lon="1.570044">
        <ele>2000.000000</ele>
        <time>2020-08-22T11:38:08Z</time>
      </trkpt>
      <trkpt lat="42.485798" lon="1.570054">
        <ele>2000.000000</ele>
        <time>2020-08-22T11:38:08Z</time>
      </trkpt>
      <trkpt lat="42.485798" lon="1.570054">
        <ele>2000.000000</ele>
        <time>2020-08-22T11:38:08Z</time>
      </trkpt>
      <trkpt lat="42.485790" lon="1.570064">
        <ele>2000.000000</ele>
        <time>2020-08-22T11:38:08Z</time>
      </trkpt>
      <trkpt lat="42.485790" lon="1.570064">
        <ele>2000.000000</ele>
        <time>2020-08-22T11:38:08Z</time>
      </trkpt>
      <trkpt lat="42.485783" lon="1.570076">
        <ele>2000.000000</ele>
        <time>2020-08-22T11:38:08Z</time>
      </trkpt>
      <trkpt lat="42.485783" lon="1.570076">
        <ele>2000.000000</ele>
        <time>2020-08-22T11:38:08Z</time>
      </trkpt>
      <trkpt lat="42.485775" lon="1.570087">
        <ele>2000.000000</ele>
        <time>2020-08-22T11:38:08Z</time>
      </trkpt>
      <trkpt lat="42.485775" lon="1.570087">
        <ele>2000.000000</ele>
        <time>2020-08-22T11:38:08Z</time>
      </trkpt>
      <trkpt lat="42.485756" lon="1.570101">
        <ele>2000.000000</ele>
        <time>2020-08-22T11:38:08Z</time>
      </trkpt>
      <trkpt lat="42.485756" lon="1.570101">
        <ele>2000.000000</ele>
        <time>2020-08-22T11:38:08Z</time>
      </trkpt>
      <trkpt lat="42.485737" lon="1.570115">
        <ele>2000.000000</ele>
        <time>2020-08-22T11:38:08Z</time>
      </trkpt>
      <trkpt lat="42.485737" lon="1.570115">
        <ele>2000.000000</ele>
        <time>2020-08-22T11:38:08Z</time>
      </trkpt>
      <trkpt lat="42.485722" lon="1.570129">
        <ele>2000.000000</ele>
        <time>2020-08-22T11:38:08Z</time>
      </trkpt>
      <trkpt lat="42.485722" lon="1.570129">
        <ele>2000.000000</ele>
        <time>2020-08-22T11:38:08Z</time>
      </trkpt>
      <trkpt lat="42.485703" lon="1.570143">
        <ele>2000.000000</ele>
        <time>2020-08-22T11:38:08Z</time>
      </trkpt>
      <trkpt lat="42.485703" lon="1.570143">
        <ele>2000.000000</ele>
        <time>2020-08-22T11:38:08Z</time>
      </trkpt>
      <trkpt lat="42.485683" lon="1.570155">
        <ele>2000.000000</ele>
        <time>2020-08-22T11:38:08Z</time>
      </trkpt>
      <trkpt lat="42.485683" lon="1.570155">
        <ele>2000.000000</ele>
        <time>2020-08-22T11:38:08Z</time>
      </trkpt>
      <trkpt lat="42.485664" lon="1.570167">
        <ele>2000.000000</ele>
        <time>2020-08-22T11:38:08Z</time>
      </trkpt>
      <trkpt lat="42.485664" lon="1.570167">
        <ele>2000.000000</ele>
        <time>2020-08-22T11:38:08Z</time>
      </trkpt>
      <trkpt lat="42.485649" lon="1.570178">
        <ele>2000.000000</ele>
        <time>2020-08-22T11:38:08Z</time>
      </trkpt>
      <trkpt lat="42.485649" lon="1.570178">
        <ele>2000.000000</ele>
        <time>2020-08-22T11:38:08Z</time>
      </trkpt>
      <trkpt lat="42.485630" lon="1.570187">
        <ele>2000.000000</ele>
        <time>2020-08-22T11:38:08Z</time>
      </trkpt>
      <trkpt lat="42.485630" lon="1.570187">
        <ele>2000.000000</ele>
        <time>2020-08-22T11:38:08Z</time>
      </trkpt>
      <trkpt lat="42.485615" lon="1.570194">
        <ele>2000.000000</ele>
        <time>2020-08-22T11:38:08Z</time>
      </trkpt>
      <trkpt lat="42.485615" lon="1.570194">
        <ele>2000.000000</ele>
        <time>2020-08-22T11:38:08Z</time>
      </trkpt>
      <trkpt lat="42.485596" lon="1.570202">
        <ele>2000.000000</ele>
        <time>2020-08-22T11:38:08Z</time>
      </trkpt>
      <trkpt lat="42.485596" lon="1.570202">
        <ele>2000.000000</ele>
        <time>2020-08-22T11:38:08Z</time>
      </trkpt>
      <trkpt lat="42.485584" lon="1.570210">
        <ele>2000.000000</ele>
        <time>2020-08-22T11:38:08Z</time>
      </trkpt>
      <trkpt lat="42.485584" lon="1.570210">
        <ele>2000.000000</ele>
        <time>2020-08-22T11:38:08Z</time>
      </trkpt>
      <trkpt lat="42.485569" lon="1.570219">
        <ele>2000.000000</ele>
        <time>2020-08-22T11:38:08Z</time>
      </trkpt>
      <trkpt lat="42.485569" lon="1.570219">
        <ele>2000.000000</ele>
        <time>2020-08-22T11:38:08Z</time>
      </trkpt>
      <trkpt lat="42.485558" lon="1.570227">
        <ele>2000.000000</ele>
        <time>2020-08-22T11:38:08Z</time>
      </trkpt>
      <trkpt lat="42.485558" lon="1.570227">
        <ele>2000.000000</ele>
        <time>2020-08-22T11:38:08Z</time>
      </trkpt>
      <trkpt lat="42.485542" lon="1.570234">
        <ele>2000.000000</ele>
        <time>2020-08-22T11:38:08Z</time>
      </trkpt>
      <trkpt lat="42.485542" lon="1.570234">
        <ele>2000.000000</ele>
        <time>2020-08-22T11:38:08Z</time>
      </trkpt>
      <trkpt lat="42.485531" lon="1.570242">
        <ele>2000.000000</ele>
        <time>2020-08-22T11:38:08Z</time>
      </trkpt>
      <trkpt lat="42.485531" lon="1.570242">
        <ele>2000.000000</ele>
        <time>2020-08-22T11:38:08Z</time>
      </trkpt>
      <trkpt lat="42.485516" lon="1.570250">
        <ele>2000.000000</ele>
        <time>2020-08-22T11:38:08Z</time>
      </trkpt>
      <trkpt lat="42.485516" lon="1.570250">
        <ele>2000.000000</ele>
        <time>2020-08-22T11:38:08Z</time>
      </trkpt>
      <trkpt lat="42.485504" lon="1.570257">
        <ele>2000.000000</ele>
        <time>2020-08-22T11:38:15Z</time>
      </trkpt>
      <trkpt lat="42.485504" lon="1.570257">
        <ele>2000.000000</ele>
        <time>2020-08-22T11:38:15Z</time>
      </trkpt>
      <trkpt lat="42.485489" lon="1.570265">
        <ele>2000.000000</ele>
        <time>2020-08-22T11:38:15Z</time>
      </trkpt>
      <trkpt lat="42.485489" lon="1.570265">
        <ele>2000.000000</ele>
        <time>2020-08-22T11:38:15Z</time>
      </trkpt>
      <trkpt lat="42.485477" lon="1.570274">
        <ele>2000.000000</ele>
        <time>2020-08-22T11:38:15Z</time>
      </trkpt>
      <trkpt lat="42.485477" lon="1.570274">
        <ele>2000.000000</ele>
        <time>2020-08-22T11:38:15Z</time>
      </trkpt>
      <trkpt lat="42.485462" lon="1.570282">
        <ele>2000.000000</ele>
        <time>2020-08-22T11:38:15Z</time>
      </trkpt>
      <trkpt lat="42.485462" lon="1.570282">
        <ele>2000.000000</ele>
        <time>2020-08-22T11:38:15Z</time>
      </trkpt>
      <trkpt lat="42.485455" lon="1.570286">
        <ele>2000.000000</ele>
        <time>2020-08-22T11:38:15Z</time>
      </trkpt>
      <trkpt lat="42.485455" lon="1.570286">
        <ele>2000.000000</ele>
        <time>2020-08-22T11:38:15Z</time>
      </trkpt>
      <trkpt lat="42.485447" lon="1.570290">
        <ele>2000.000000</ele>
        <time>2020-08-22T11:38:15Z</time>
      </trkpt>
      <trkpt lat="42.485447" lon="1.570290">
        <ele>2000.000000</ele>
        <time>2020-08-22T11:38:15Z</time>
      </trkpt>
      <trkpt lat="42.485435" lon="1.570295">
        <ele>2000.000000</ele>
        <time>2020-08-22T11:38:15Z</time>
      </trkpt>
      <trkpt lat="42.485435" lon="1.570295">
        <ele>2000.000000</ele>
        <time>2020-08-22T11:38:15Z</time>
      </trkpt>
      <trkpt lat="42.485424" lon="1.570300">
        <ele>2000.000000</ele>
        <time>2020-08-22T11:38:23Z</time>
      </trkpt>
      <trkpt lat="42.485424" lon="1.570300">
        <ele>2000.000000</ele>
        <time>2020-08-22T11:38:23Z</time>
      </trkpt>
      <trkpt lat="42.485413" lon="1.570305">
        <ele>2000.000000</ele>
        <time>2020-08-22T11:38:23Z</time>
      </trkpt>
      <trkpt lat="42.485413" lon="1.570305">
        <ele>2000.000000</ele>
        <time>2020-08-22T11:38:23Z</time>
      </trkpt>
      <trkpt lat="42.485405" lon="1.570311">
        <ele>2000.000000</ele>
        <time>2020-08-22T11:38:23Z</time>
      </trkpt>
      <trkpt lat="42.485405" lon="1.570311">
        <ele>2000.000000</ele>
        <time>2020-08-22T11:38:23Z</time>
      </trkpt>
      <trkpt lat="42.485394" lon="1.570319">
        <ele>2000.000000</ele>
        <time>2020-08-22T11:38:23Z</time>
      </trkpt>
      <trkpt lat="42.485394" lon="1.570319">
        <ele>2000.000000</ele>
        <time>2020-08-22T11:38:23Z</time>
      </trkpt>
      <trkpt lat="42.485386" lon="1.570327">
        <ele>2000.000000</ele>
        <time>2020-08-22T11:38:23Z</time>
      </trkpt>
      <trkpt lat="42.485386" lon="1.570327">
        <ele>2000.000000</ele>
        <time>2020-08-22T11:38:23Z</time>
      </trkpt>
      <trkpt lat="42.485374" lon="1.570335">
        <ele>2000.000000</ele>
        <time>2020-08-22T11:38:23Z</time>
      </trkpt>
      <trkpt lat="42.485374" lon="1.570335">
        <ele>2000.000000</ele>
        <time>2020-08-22T11:38:23Z</time>
      </trkpt>
      <trkpt lat="42.485367" lon="1.570343">
        <ele>2000.000000</ele>
        <time>2020-08-22T11:38:31Z</time>
      </trkpt>
      <trkpt lat="42.485367" lon="1.570343">
        <ele>1997.000000</ele>
        <time>2020-08-22T11:38:31Z</time>
      </trkpt>
      <trkpt lat="42.485355" lon="1.570348">
        <ele>1997.000000</ele>
        <time>2020-08-22T11:38:31Z</time>
      </trkpt>
      <trkpt lat="42.485355" lon="1.570348">
        <ele>1997.000000</ele>
        <time>2020-08-22T11:38:31Z</time>
      </trkpt>
      <trkpt lat="42.485348" lon="1.570350">
        <ele>1997.000000</ele>
        <time>2020-08-22T11:38:38Z</time>
      </trkpt>
      <trkpt lat="42.485348" lon="1.570350">
        <ele>1997.000000</ele>
        <time>2020-08-22T11:38:38Z</time>
      </trkpt>
      <trkpt lat="42.485340" lon="1.570351">
        <ele>1997.000000</ele>
        <time>2020-08-22T11:38:38Z</time>
      </trkpt>
      <trkpt lat="42.485340" lon="1.570351">
        <ele>1997.000000</ele>
        <time>2020-08-22T11:38:38Z</time>
      </trkpt>
      <trkpt lat="42.485332" lon="1.570350">
        <ele>1998.000000</ele>
        <time>2020-08-22T11:38:38Z</time>
      </trkpt>
      <trkpt lat="42.485332" lon="1.570350">
        <ele>1998.000000</ele>
        <time>2020-08-22T11:38:38Z</time>
      </trkpt>
      <trkpt lat="42.485325" lon="1.570348">
        <ele>1998.000000</ele>
        <time>2020-08-22T11:38:38Z</time>
      </trkpt>
      <trkpt lat="42.485325" lon="1.570348">
        <ele>1998.000000</ele>
        <time>2020-08-22T11:38:38Z</time>
      </trkpt>
      <trkpt lat="42.485321" lon="1.570344">
        <ele>1998.000000</ele>
        <time>2020-08-22T11:38:38Z</time>
      </trkpt>
      <trkpt lat="42.485321" lon="1.570344">
        <ele>1998.000000</ele>
        <time>2020-08-22T11:38:38Z</time>
      </trkpt>
      <trkpt lat="42.485313" lon="1.570337">
        <ele>1998.000000</ele>
        <time>2020-08-22T11:38:38Z</time>
      </trkpt>
      <trkpt lat="42.485313" lon="1.570337">
        <ele>1998.000000</ele>
        <time>2020-08-22T11:38:38Z</time>
      </trkpt>
      <trkpt lat="42.485306" lon="1.570330">
        <ele>1998.000000</ele>
        <time>2020-08-22T11:38:38Z</time>
      </trkpt>
      <trkpt lat="42.485306" lon="1.570330">
        <ele>1998.000000</ele>
        <time>2020-08-22T11:38:38Z</time>
      </trkpt>
      <trkpt lat="42.485302" lon="1.570322">
        <ele>1998.000000</ele>
        <time>2020-08-22T11:38:47Z</time>
      </trkpt>
      <trkpt lat="42.485302" lon="1.570322">
        <ele>1998.000000</ele>
        <time>2020-08-22T11:38:47Z</time>
      </trkpt>
      <trkpt lat="42.485294" lon="1.570314">
        <ele>1998.000000</ele>
        <time>2020-08-22T11:38:47Z</time>
      </trkpt>
      <trkpt lat="42.485294" lon="1.570314">
        <ele>1998.000000</ele>
        <time>2020-08-22T11:38:47Z</time>
      </trkpt>
      <trkpt lat="42.485291" lon="1.570314">
        <ele>1997.000000</ele>
        <time>2020-08-22T11:38:54Z</time>
      </trkpt>
      <trkpt lat="42.485291" lon="1.570314">
        <ele>1997.000000</ele>
        <time>2020-08-22T11:38:54Z</time>
      </trkpt>
      <trkpt lat="42.485283" lon="1.570316">
        <ele>1997.000000</ele>
        <time>2020-08-22T11:38:54Z</time>
      </trkpt>
      <trkpt lat="42.485283" lon="1.570316">
        <ele>1997.000000</ele>
        <time>2020-08-22T11:38:54Z</time>
      </trkpt>
      <trkpt lat="42.485275" lon="1.570320">
        <ele>1996.000000</ele>
        <time>2020-08-22T11:38:54Z</time>
      </trkpt>
      <trkpt lat="42.485275" lon="1.570320">
        <ele>1996.000000</ele>
        <time>2020-08-22T11:38:54Z</time>
      </trkpt>
      <trkpt lat="42.485268" lon="1.570325">
        <ele>1996.000000</ele>
        <time>2020-08-22T11:38:54Z</time>
      </trkpt>
      <trkpt lat="42.485268" lon="1.570325">
        <ele>1996.000000</ele>
        <time>2020-08-22T11:38:54Z</time>
      </trkpt>
      <trkpt lat="42.485260" lon="1.570333">
        <ele>1996.000000</ele>
        <time>2020-08-22T11:38:54Z</time>
      </trkpt>
      <trkpt lat="42.485260" lon="1.570333">
        <ele>1996.000000</ele>
        <time>2020-08-22T11:38:54Z</time>
      </trkpt>
      <trkpt lat="42.485252" lon="1.570343">
        <ele>1995.000000</ele>
        <time>2020-08-22T11:38:54Z</time>
      </trkpt>
      <trkpt lat="42.485252" lon="1.570343">
        <ele>1995.000000</ele>
        <time>2020-08-22T11:38:54Z</time>
      </trkpt>
      <trkpt lat="42.485241" lon="1.570354">
        <ele>1995.000000</ele>
        <time>2020-08-22T11:38:54Z</time>
      </trkpt>
      <trkpt lat="42.485241" lon="1.570354">
        <ele>1995.000000</ele>
        <time>2020-08-22T11:38:54Z</time>
      </trkpt>
      <trkpt lat="42.485233" lon="1.570367">
        <ele>1995.000000</ele>
        <time>2020-08-22T11:39:01Z</time>
      </trkpt>
      <trkpt lat="42.485233" lon="1.570367">
        <ele>1994.000000</ele>
        <time>2020-08-22T11:39:01Z</time>
      </trkpt>
      <trkpt lat="42.485226" lon="1.570381">
        <ele>1994.000000</ele>
        <time>2020-08-22T11:39:01Z</time>
      </trkpt>
      <trkpt lat="42.485226" lon="1.570381">
        <ele>1994.000000</ele>
        <time>2020-08-22T11:39:01Z</time>
      </trkpt>
      <trkpt lat="42.485214" lon="1.570397">
        <ele>1994.000000</ele>
        <time>2020-08-22T11:39:01Z</time>
      </trkpt>
      <trkpt lat="42.485214" lon="1.570397">
        <ele>1994.000000</ele>
        <time>2020-08-22T11:39:01Z</time>
      </trkpt>
      <trkpt lat="42.485207" lon="1.570407">
        <ele>1994.000000</ele>
        <time>2020-08-22T11:39:01Z</time>
      </trkpt>
      <trkpt lat="42.485207" lon="1.570407">
        <ele>1994.000000</ele>
        <time>2020-08-22T11:39:01Z</time>
      </trkpt>
      <trkpt lat="42.485199" lon="1.570418">
        <ele>1994.000000</ele>
        <time>2020-08-22T11:39:01Z</time>
      </trkpt>
      <trkpt lat="42.485199" lon="1.570418">
        <ele>1994.000000</ele>
        <time>2020-08-22T11:39:01Z</time>
      </trkpt>
      <trkpt lat="42.485191" lon="1.570429">
        <ele>1994.000000</ele>
        <time>2020-08-22T11:39:01Z</time>
      </trkpt>
      <trkpt lat="42.485191" lon="1.570429">
        <ele>1993.000000</ele>
        <time>2020-08-22T11:39:01Z</time>
      </trkpt>
      <trkpt lat="42.485184" lon="1.570440">
        <ele>1993.000000</ele>
        <time>2020-08-22T11:39:01Z</time>
      </trkpt>
      <trkpt lat="42.485184" lon="1.570440">
        <ele>1993.000000</ele>
        <time>2020-08-22T11:39:01Z</time>
      </trkpt>
      <trkpt lat="42.485172" lon="1.570452">
        <ele>1993.000000</ele>
        <time>2020-08-22T11:39:08Z</time>
      </trkpt>
      <trkpt lat="42.485172" lon="1.570452">
        <ele>1993.000000</ele>
        <time>2020-08-22T11:39:08Z</time>
      </trkpt>
      <trkpt lat="42.485168" lon="1.570463">
        <ele>1992.000000</ele>
        <time>2020-08-22T11:39:08Z</time>
      </trkpt>
      <trkpt lat="42.485168" lon="1.570463">
        <ele>1992.000000</ele>
        <time>2020-08-22T11:39:08Z</time>
      </trkpt>
      <trkpt lat="42.485161" lon="1.570474">
        <ele>1992.000000</ele>
        <time>2020-08-22T11:39:08Z</time>
      </trkpt>
      <trkpt lat="42.485161" lon="1.570474">
        <ele>1992.000000</ele>
        <time>2020-08-22T11:39:08Z</time>
      </trkpt>
      <trkpt lat="42.485153" lon="1.570484">
        <ele>1992.000000</ele>
        <time>2020-08-22T11:39:08Z</time>
      </trkpt>
      <trkpt lat="42.485153" lon="1.570484">
        <ele>1992.000000</ele>
        <time>2020-08-22T11:39:08Z</time>
      </trkpt>
      <trkpt lat="42.485146" lon="1.570494">
        <ele>1991.000000</ele>
        <time>2020-08-22T11:39:08Z</time>
      </trkpt>
      <trkpt lat="42.485146" lon="1.570494">
        <ele>1991.000000</ele>
        <time>2020-08-22T11:39:08Z</time>
      </trkpt>
      <trkpt lat="42.485134" lon="1.570504">
        <ele>1991.000000</ele>
        <time>2020-08-22T11:39:08Z</time>
      </trkpt>
      <trkpt lat="42.485134" lon="1.570504">
        <ele>1991.000000</ele>
        <time>2020-08-22T11:39:08Z</time>
      </trkpt>
      <trkpt lat="42.485126" lon="1.570519">
        <ele>1991.000000</ele>
        <time>2020-08-22T11:39:08Z</time>
      </trkpt>
      <trkpt lat="42.485126" lon="1.570519">
        <ele>1991.000000</ele>
        <time>2020-08-22T11:39:08Z</time>
      </trkpt>
      <trkpt lat="42.485119" lon="1.570533">
        <ele>1991.000000</ele>
        <time>2020-08-22T11:39:08Z</time>
      </trkpt>
      <trkpt lat="42.485119" lon="1.570533">
        <ele>1990.000000</ele>
        <time>2020-08-22T11:39:08Z</time>
      </trkpt>
      <trkpt lat="42.485111" lon="1.570546">
        <ele>1990.000000</ele>
        <time>2020-08-22T11:39:08Z</time>
      </trkpt>
      <trkpt lat="42.485111" lon="1.570546">
        <ele>1990.000000</ele>
        <time>2020-08-22T11:39:08Z</time>
      </trkpt>
      <trkpt lat="42.485104" lon="1.570559">
        <ele>1990.000000</ele>
        <time>2020-08-22T11:39:08Z</time>
      </trkpt>
      <trkpt lat="42.485104" lon="1.570559">
        <ele>1990.000000</ele>
        <time>2020-08-22T11:39:08Z</time>
      </trkpt>
      <trkpt lat="42.485092" lon="1.570571">
        <ele>1990.000000</ele>
        <time>2020-08-22T11:39:08Z</time>
      </trkpt>
      <trkpt lat="42.485092" lon="1.570571">
        <ele>1990.000000</ele>
        <time>2020-08-22T11:39:08Z</time>
      </trkpt>
      <trkpt lat="42.485085" lon="1.570583">
        <ele>1989.000000</ele>
        <time>2020-08-22T11:39:08Z</time>
      </trkpt>
      <trkpt lat="42.485085" lon="1.570583">
        <ele>1989.000000</ele>
        <time>2020-08-22T11:39:08Z</time>
      </trkpt>
      <trkpt lat="42.485073" lon="1.570594">
        <ele>1989.000000</ele>
        <time>2020-08-22T11:39:15Z</time>
      </trkpt>
      <trkpt lat="42.485073" lon="1.570594">
        <ele>1989.000000</ele>
        <time>2020-08-22T11:39:15Z</time>
      </trkpt>
      <trkpt lat="42.485065" lon="1.570606">
        <ele>1989.000000</ele>
        <time>2020-08-22T11:39:15Z</time>
      </trkpt>
      <trkpt lat="42.485065" lon="1.570606">
        <ele>1989.000000</ele>
        <time>2020-08-22T11:39:15Z</time>
      </trkpt>
      <trkpt lat="42.485058" lon="1.570619">
        <ele>1989.000000</ele>
        <time>2020-08-22T11:39:15Z</time>
      </trkpt>
      <trkpt lat="42.485058" lon="1.570619">
        <ele>1989.000000</ele>
        <time>2020-08-22T11:39:15Z</time>
      </trkpt>
      <trkpt lat="42.485046" lon="1.570633">
        <ele>1988.000000</ele>
        <time>2020-08-22T11:39:15Z</time>
      </trkpt>
      <trkpt lat="42.485046" lon="1.570633">
        <ele>1988.000000</ele>
        <time>2020-08-22T11:39:15Z</time>
      </trkpt>
      <trkpt lat="42.485035" lon="1.570648">
        <ele>1988.000000</ele>
        <time>2020-08-22T11:39:15Z</time>
      </trkpt>
      <trkpt lat="42.485035" lon="1.570648">
        <ele>1988.000000</ele>
        <time>2020-08-22T11:39:15Z</time>
      </trkpt>
      <trkpt lat="42.485023" lon="1.570662">
        <ele>1988.000000</ele>
        <time>2020-08-22T11:39:15Z</time>
      </trkpt>
      <trkpt lat="42.485023" lon="1.570662">
        <ele>1988.000000</ele>
        <time>2020-08-22T11:39:15Z</time>
      </trkpt>
      <trkpt lat="42.485012" lon="1.570675">
        <ele>1988.000000</ele>
        <time>2020-08-22T11:39:15Z</time>
      </trkpt>
      <trkpt lat="42.485012" lon="1.570675">
        <ele>1988.000000</ele>
        <time>2020-08-22T11:39:15Z</time>
      </trkpt>
      <trkpt lat="42.485001" lon="1.570688">
        <ele>1988.000000</ele>
        <time>2020-08-22T11:39:22Z</time>
      </trkpt>
      <trkpt lat="42.485001" lon="1.570688">
        <ele>1988.000000</ele>
        <time>2020-08-22T11:39:22Z</time>
      </trkpt>
      <trkpt lat="42.484985" lon="1.570700">
        <ele>1988.000000</ele>
        <time>2020-08-22T11:39:22Z</time>
      </trkpt>
      <trkpt lat="42.484985" lon="1.570700">
        <ele>1988.000000</ele>
        <time>2020-08-22T11:39:22Z</time>
      </trkpt>
      <trkpt lat="42.484974" lon="1.570711">
        <ele>1988.000000</ele>
        <time>2020-08-22T11:39:22Z</time>
      </trkpt>
      <trkpt lat="42.484974" lon="1.570711">
        <ele>1988.000000</ele>
        <time>2020-08-22T11:39:22Z</time>
      </trkpt>
      <trkpt lat="42.484959" lon="1.570722">
        <ele>1988.000000</ele>
        <time>2020-08-22T11:39:22Z</time>
      </trkpt>
      <trkpt lat="42.484959" lon="1.570722">
        <ele>1988.000000</ele>
        <time>2020-08-22T11:39:22Z</time>
      </trkpt>
      <trkpt lat="42.484951" lon="1.570733">
        <ele>1988.000000</ele>
        <time>2020-08-22T11:39:22Z</time>
      </trkpt>
      <trkpt lat="42.484951" lon="1.570733">
        <ele>1988.000000</ele>
        <time>2020-08-22T11:39:22Z</time>
      </trkpt>
      <trkpt lat="42.484936" lon="1.570742">
        <ele>1988.000000</ele>
        <time>2020-08-22T11:39:22Z</time>
      </trkpt>
      <trkpt lat="42.484936" lon="1.570742">
        <ele>1988.000000</ele>
        <time>2020-08-22T11:39:22Z</time>
      </trkpt>
      <trkpt lat="42.484924" lon="1.570750">
        <ele>1988.000000</ele>
        <time>2020-08-22T11:39:22Z</time>
      </trkpt>
      <trkpt lat="42.484924" lon="1.570750">
        <ele>1986.000000</ele>
        <time>2020-08-22T11:39:22Z</time>
      </trkpt>
      <trkpt lat="42.484913" lon="1.570752">
        <ele>1986.000000</ele>
        <time>2020-08-22T11:39:29Z</time>
      </trkpt>
      <trkpt lat="42.484913" lon="1.570752">
        <ele>1986.000000</ele>
        <time>2020-08-22T11:39:29Z</time>
      </trkpt>
      <trkpt lat="42.484901" lon="1.570755">
        <ele>1986.000000</ele>
        <time>2020-08-22T11:39:29Z</time>
      </trkpt>
      <trkpt lat="42.484901" lon="1.570755">
        <ele>1986.000000</ele>
        <time>2020-08-22T11:39:29Z</time>
      </trkpt>
      <trkpt lat="42.484894" lon="1.570758">
        <ele>1986.000000</ele>
        <time>2020-08-22T11:39:29Z</time>
      </trkpt>
      <trkpt lat="42.484894" lon="1.570758">
        <ele>1986.000000</ele>
        <time>2020-08-22T11:39:29Z</time>
      </trkpt>
      <trkpt lat="42.484882" lon="1.570763">
        <ele>1986.000000</ele>
        <time>2020-08-22T11:39:29Z</time>
      </trkpt>
      <trkpt lat="42.484882" lon="1.570763">
        <ele>1986.000000</ele>
        <time>2020-08-22T11:39:29Z</time>
      </trkpt>
      <trkpt lat="42.484875" lon="1.570768">
        <ele>1986.000000</ele>
        <time>2020-08-22T11:39:29Z</time>
      </trkpt>
      <trkpt lat="42.484875" lon="1.570768">
        <ele>1986.000000</ele>
        <time>2020-08-22T11:39:29Z</time>
      </trkpt>
      <trkpt lat="42.484867" lon="1.570774">
        <ele>1986.000000</ele>
        <time>2020-08-22T11:39:29Z</time>
      </trkpt>
      <trkpt lat="42.484867" lon="1.570774">
        <ele>1986.000000</ele>
        <time>2020-08-22T11:39:29Z</time>
      </trkpt>
      <trkpt lat="42.484859" lon="1.570779">
        <ele>1986.000000</ele>
        <time>2020-08-22T11:39:29Z</time>
      </trkpt>
      <trkpt lat="42.484859" lon="1.570779">
        <ele>1986.000000</ele>
        <time>2020-08-22T11:39:29Z</time>
      </trkpt>
      <trkpt lat="42.484852" lon="1.570784">
        <ele>1986.000000</ele>
        <time>2020-08-22T11:39:36Z</time>
      </trkpt>
      <trkpt lat="42.484852" lon="1.570784">
        <ele>1986.000000</ele>
        <time>2020-08-22T11:39:36Z</time>
      </trkpt>
      <trkpt lat="42.484848" lon="1.570788">
        <ele>1986.000000</ele>
        <time>2020-08-22T11:39:36Z</time>
      </trkpt>
      <trkpt lat="42.484848" lon="1.570788">
        <ele>1986.000000</ele>
        <time>2020-08-22T11:39:36Z</time>
      </trkpt>
      <trkpt lat="42.484844" lon="1.570792">
        <ele>1986.000000</ele>
        <time>2020-08-22T11:39:36Z</time>
      </trkpt>
      <trkpt lat="42.484844" lon="1.570792">
        <ele>1986.000000</ele>
        <time>2020-08-22T11:39:36Z</time>
      </trkpt>
      <trkpt lat="42.484833" lon="1.570795">
        <ele>1986.000000</ele>
        <time>2020-08-22T11:39:36Z</time>
      </trkpt>
      <trkpt lat="42.484833" lon="1.570795">
        <ele>1986.000000</ele>
        <time>2020-08-22T11:39:36Z</time>
      </trkpt>
      <trkpt lat="42.484829" lon="1.570797">
        <ele>1986.000000</ele>
        <time>2020-08-22T11:39:36Z</time>
      </trkpt>
      <trkpt lat="42.484829" lon="1.570797">
        <ele>1986.000000</ele>
        <time>2020-08-22T11:39:36Z</time>
      </trkpt>
      <trkpt lat="42.484821" lon="1.570797">
        <ele>1986.000000</ele>
        <time>2020-08-22T11:39:36Z</time>
      </trkpt>
      <trkpt lat="42.484821" lon="1.570797">
        <ele>1986.000000</ele>
        <time>2020-08-22T11:39:36Z</time>
      </trkpt>
      <trkpt lat="42.484817" lon="1.570797">
        <ele>1986.000000</ele>
        <time>2020-08-22T11:39:36Z</time>
      </trkpt>
      <trkpt lat="42.484817" lon="1.570797">
        <ele>1986.000000</ele>
        <time>2020-08-22T11:39:36Z</time>
      </trkpt>
      <trkpt lat="42.484810" lon="1.570794">
        <ele>1986.000000</ele>
        <time>2020-08-22T11:39:36Z</time>
      </trkpt>
      <trkpt lat="42.484810" lon="1.570794">
        <ele>1986.000000</ele>
        <time>2020-08-22T11:39:36Z</time>
      </trkpt>
      <trkpt lat="42.484802" lon="1.570792">
        <ele>1986.000000</ele>
        <time>2020-08-22T11:39:36Z</time>
      </trkpt>
      <trkpt lat="42.484802" lon="1.570792">
        <ele>1986.000000</ele>
        <time>2020-08-22T11:39:36Z</time>
      </trkpt>
      <trkpt lat="42.484798" lon="1.570788">
        <ele>1986.000000</ele>
        <time>2020-08-22T11:39:36Z</time>
      </trkpt>
      <trkpt lat="42.484798" lon="1.570788">
        <ele>1986.000000</ele>
        <time>2020-08-22T11:39:36Z</time>
      </trkpt>
      <trkpt lat="42.484791" lon="1.570785">
        <ele>1986.000000</ele>
        <time>2020-08-22T11:39:36Z</time>
      </trkpt>
      <trkpt lat="42.484791" lon="1.570785">
        <ele>1986.000000</ele>
        <time>2020-08-22T11:39:36Z</time>
      </trkpt>
      <trkpt lat="42.484783" lon="1.570782">
        <ele>1986.000000</ele>
        <time>2020-08-22T11:39:36Z</time>
      </trkpt>
      <trkpt lat="42.484783" lon="1.570782">
        <ele>1986.000000</ele>
        <time>2020-08-22T11:39:36Z</time>
      </trkpt>
      <trkpt lat="42.484772" lon="1.570779">
        <ele>1986.000000</ele>
        <time>2020-08-22T11:39:36Z</time>
      </trkpt>
      <trkpt lat="42.484772" lon="1.570779">
        <ele>1986.000000</ele>
        <time>2020-08-22T11:39:36Z</time>
      </trkpt>
      <trkpt lat="42.484764" lon="1.570777">
        <ele>1986.000000</ele>
        <time>2020-08-22T11:39:43Z</time>
      </trkpt>
      <trkpt lat="42.484764" lon="1.570777">
        <ele>1986.000000</ele>
        <time>2020-08-22T11:39:43Z</time>
      </trkpt>
      <trkpt lat="42.484756" lon="1.570775">
        <ele>1986.000000</ele>
        <time>2020-08-22T11:39:43Z</time>
      </trkpt>
      <trkpt lat="42.484756" lon="1.570775">
        <ele>1986.000000</ele>
        <time>2020-08-22T11:39:43Z</time>
      </trkpt>
      <trkpt lat="42.484745" lon="1.570775">
        <ele>1986.000000</ele>
        <time>2020-08-22T11:39:43Z</time>
      </trkpt>
      <trkpt lat="42.484745" lon="1.570775">
        <ele>1982.000000</ele>
        <time>2020-08-22T11:39:43Z</time>
      </trkpt>
      <trkpt lat="42.484734" lon="1.570774">
        <ele>1982.000000</ele>
        <time>2020-08-22T11:39:43Z</time>
      </trkpt>
      <trkpt lat="42.484734" lon="1.570774">
        <ele>1982.000000</ele>
        <time>2020-08-22T11:39:43Z</time>
      </trkpt>
      <trkpt lat="42.484722" lon="1.570775">
        <ele>1982.000000</ele>
        <time>2020-08-22T11:39:43Z</time>
      </trkpt>
      <trkpt lat="42.484722" lon="1.570775">
        <ele>1982.000000</ele>
        <time>2020-08-22T11:39:43Z</time>
      </trkpt>
      <trkpt lat="42.484711" lon="1.570778">
        <ele>1982.000000</ele>
        <time>2020-08-22T11:39:43Z</time>
      </trkpt>
      <trkpt lat="42.484711" lon="1.570778">
        <ele>1982.000000</ele>
        <time>2020-08-22T11:39:43Z</time>
      </trkpt>
      <trkpt lat="42.484695" lon="1.570781">
        <ele>1982.000000</ele>
        <time>2020-08-22T11:39:43Z</time>
      </trkpt>
      <trkpt lat="42.484695" lon="1.570781">
        <ele>1982.000000</ele>
        <time>2020-08-22T11:39:43Z</time>
      </trkpt>
      <trkpt lat="42.484684" lon="1.570785">
        <ele>1982.000000</ele>
        <time>2020-08-22T11:39:50Z</time>
      </trkpt>
      <trkpt lat="42.484684" lon="1.570785">
        <ele>1982.000000</ele>
        <time>2020-08-22T11:39:50Z</time>
      </trkpt>
      <trkpt lat="42.484669" lon="1.570789">
        <ele>1982.000000</ele>
        <time>2020-08-22T11:39:50Z</time>
      </trkpt>
      <trkpt lat="42.484669" lon="1.570789">
        <ele>1982.000000</ele>
        <time>2020-08-22T11:39:50Z</time>
      </trkpt>
      <trkpt lat="42.484657" lon="1.570792">
        <ele>1982.000000</ele>
        <time>2020-08-22T11:39:50Z</time>
      </trkpt>
      <trkpt lat="42.484657" lon="1.570792">
        <ele>1982.000000</ele>
        <time>2020-08-22T11:39:50Z</time>
      </trkpt>
      <trkpt lat="42.484646" lon="1.570795">
        <ele>1982.000000</ele>
        <time>2020-08-22T11:39:50Z</time>
      </trkpt>
      <trkpt lat="42.484646" lon="1.570795">
        <ele>1982.000000</ele>
        <time>2020-08-22T11:39:50Z</time>
      </trkpt>
      <trkpt lat="42.484634" lon="1.570798">
        <ele>1982.000000</ele>
        <time>2020-08-22T11:39:50Z</time>
      </trkpt>
      <trkpt lat="42.484634" lon="1.570798">
        <ele>1982.000000</ele>
        <time>2020-08-22T11:39:50Z</time>
      </trkpt>
      <trkpt lat="42.484623" lon="1.570802">
        <ele>1982.000000</ele>
        <time>2020-08-22T11:39:50Z</time>
      </trkpt>
      <trkpt lat="42.484623" lon="1.570802">
        <ele>1982.000000</ele>
        <time>2020-08-22T11:39:50Z</time>
      </trkpt>
      <trkpt lat="42.484612" lon="1.570806">
        <ele>1982.000000</ele>
        <time>2020-08-22T11:39:50Z</time>
      </trkpt>
      <trkpt lat="42.484612" lon="1.570806">
        <ele>1982.000000</ele>
        <time>2020-08-22T11:39:50Z</time>
      </trkpt>
      <trkpt lat="42.484604" lon="1.570809">
        <ele>1982.000000</ele>
        <time>2020-08-22T11:39:57Z</time>
      </trkpt>
      <trkpt lat="42.484604" lon="1.570809">
        <ele>1982.000000</ele>
        <time>2020-08-22T11:39:57Z</time>
      </trkpt>
      <trkpt lat="42.484596" lon="1.570812">
        <ele>1982.000000</ele>
        <time>2020-08-22T11:39:57Z</time>
      </trkpt>
      <trkpt lat="42.484596" lon="1.570812">
        <ele>1982.000000</ele>
        <time>2020-08-22T11:39:57Z</time>
      </trkpt>
      <trkpt lat="42.484589" lon="1.570815">
        <ele>1982.000000</ele>
        <time>2020-08-22T11:39:57Z</time>
      </trkpt>
      <trkpt lat="42.484589" lon="1.570815">
        <ele>1982.000000</ele>
        <time>2020-08-22T11:39:57Z</time>
      </trkpt>
      <trkpt lat="42.484581" lon="1.570816">
        <ele>1982.000000</ele>
        <time>2020-08-22T11:39:57Z</time>
      </trkpt>
      <trkpt lat="42.484581" lon="1.570816">
        <ele>1982.000000</ele>
        <time>2020-08-22T11:39:57Z</time>
      </trkpt>
      <trkpt lat="42.484573" lon="1.570818">
        <ele>1982.000000</ele>
        <time>2020-08-22T11:39:57Z</time>
      </trkpt>
      <trkpt lat="42.484573" lon="1.570818">
        <ele>1982.000000</ele>
        <time>2020-08-22T11:39:57Z</time>
      </trkpt>
      <trkpt lat="42.484570" lon="1.570820">
        <ele>1982.000000</ele>
        <time>2020-08-22T11:39:57Z</time>
      </trkpt>
      <trkpt lat="42.484570" lon="1.570820">
        <ele>1982.000000</ele>
        <time>2020-08-22T11:39:57Z</time>
      </trkpt>
      <trkpt lat="42.484558" lon="1.570823">
        <ele>1982.000000</ele>
        <time>2020-08-22T11:40:04Z</time>
      </trkpt>
      <trkpt lat="42.484558" lon="1.570823">
        <ele>1982.000000</ele>
        <time>2020-08-22T11:40:04Z</time>
      </trkpt>
      <trkpt lat="42.484550" lon="1.570826">
        <ele>1982.000000</ele>
        <time>2020-08-22T11:40:04Z</time>
      </trkpt>
      <trkpt lat="42.484550" lon="1.570826">
        <ele>1982.000000</ele>
        <time>2020-08-22T11:40:04Z</time>
      </trkpt>
      <trkpt lat="42.484547" lon="1.570830">
        <ele>1982.000000</ele>
        <time>2020-08-22T11:40:04Z</time>
      </trkpt>
      <trkpt lat="42.484547" lon="1.570830">
        <ele>1982.000000</ele>
        <time>2020-08-22T11:40:04Z</time>
      </trkpt>
      <trkpt lat="42.484539" lon="1.570835">
        <ele>1982.000000</ele>
        <time>2020-08-22T11:40:04Z</time>
      </trkpt>
      <trkpt lat="42.484539" lon="1.570835">
        <ele>1982.000000</ele>
        <time>2020-08-22T11:40:04Z</time>
      </trkpt>
      <trkpt lat="42.484535" lon="1.570839">
        <ele>1982.000000</ele>
        <time>2020-08-22T11:40:04Z</time>
      </trkpt>
      <trkpt lat="42.484535" lon="1.570839">
        <ele>1982.000000</ele>
        <time>2020-08-22T11:40:04Z</time>
      </trkpt>
      <trkpt lat="42.484524" lon="1.570844">
        <ele>1982.000000</ele>
        <time>2020-08-22T11:40:04Z</time>
      </trkpt>
      <trkpt lat="42.484524" lon="1.570844">
        <ele>1982.000000</ele>
        <time>2020-08-22T11:40:04Z</time>
      </trkpt>
      <trkpt lat="42.484516" lon="1.570849">
        <ele>1981.000000</ele>
        <time>2020-08-22T11:40:04Z</time>
      </trkpt>
      <trkpt lat="42.484516" lon="1.570849">
        <ele>1981.000000</ele>
        <time>2020-08-22T11:40:04Z</time>
      </trkpt>
      <trkpt lat="42.484509" lon="1.570855">
        <ele>1981.000000</ele>
        <time>2020-08-22T11:40:12Z</time>
      </trkpt>
      <trkpt lat="42.484509" lon="1.570855">
        <ele>1981.000000</ele>
        <time>2020-08-22T11:40:12Z</time>
      </trkpt>
      <trkpt lat="42.484501" lon="1.570861">
        <ele>1981.000000</ele>
        <time>2020-08-22T11:40:12Z</time>
      </trkpt>
      <trkpt lat="42.484501" lon="1.570861">
        <ele>1981.000000</ele>
        <time>2020-08-22T11:40:12Z</time>
      </trkpt>
      <trkpt lat="42.484493" lon="1.570868">
        <ele>1981.000000</ele>
        <time>2020-08-22T11:40:12Z</time>
      </trkpt>
      <trkpt lat="42.484493" lon="1.570868">
        <ele>1981.000000</ele>
        <time>2020-08-22T11:40:12Z</time>
      </trkpt>
      <trkpt lat="42.484486" lon="1.570874">
        <ele>1981.000000</ele>
        <time>2020-08-22T11:40:12Z</time>
      </trkpt>
      <trkpt lat="42.484486" lon="1.570874">
        <ele>1981.000000</ele>
        <time>2020-08-22T11:40:12Z</time>
      </trkpt>
      <trkpt lat="42.484474" lon="1.570880">
        <ele>1981.000000</ele>
        <time>2020-08-22T11:40:12Z</time>
      </trkpt>
      <trkpt lat="42.484474" lon="1.570880">
        <ele>1981.000000</ele>
        <time>2020-08-22T11:40:12Z</time>
      </trkpt>
      <trkpt lat="42.484463" lon="1.570885">
        <ele>1981.000000</ele>
        <time>2020-08-22T11:40:12Z</time>
      </trkpt>
      <trkpt lat="42.484463" lon="1.570885">
        <ele>1981.000000</ele>
        <time>2020-08-22T11:40:12Z</time>
      </trkpt>
      <trkpt lat="42.484455" lon="1.570889">
        <ele>1981.000000</ele>
        <time>2020-08-22T11:40:20Z</time>
      </trkpt>
      <trkpt lat="42.484455" lon="1.570889">
        <ele>1981.000000</ele>
        <time>2020-08-22T11:40:20Z</time>
      </trkpt>
      <trkpt lat="42.484444" lon="1.570893">
        <ele>1981.000000</ele>
        <time>2020-08-22T11:40:20Z</time>
      </trkpt>
      <trkpt lat="42.484444" lon="1.570893">
        <ele>1981.000000</ele>
        <time>2020-08-22T11:40:20Z</time>
      </trkpt>
      <trkpt lat="42.484436" lon="1.570896">
        <ele>1981.000000</ele>
        <time>2020-08-22T11:40:20Z</time>
      </trkpt>
      <trkpt lat="42.484436" lon="1.570896">
        <ele>1981.000000</ele>
        <time>2020-08-22T11:40:20Z</time>
      </trkpt>
      <trkpt lat="42.484428" lon="1.570899">
        <ele>1981.000000</ele>
        <time>2020-08-22T11:40:20Z</time>
      </trkpt>
      <trkpt lat="42.484428" lon="1.570899">
        <ele>1981.000000</ele>
        <time>2020-08-22T11:40:20Z</time>
      </trkpt>
      <trkpt lat="42.484417" lon="1.570902">
        <ele>1981.000000</ele>
        <time>2020-08-22T11:40:20Z</time>
      </trkpt>
      <trkpt lat="42.484417" lon="1.570902">
        <ele>1981.000000</ele>
        <time>2020-08-22T11:40:20Z</time>
      </trkpt>
      <trkpt lat="42.484409" lon="1.570905">
        <ele>1981.000000</ele>
        <time>2020-08-22T11:40:20Z</time>
      </trkpt>
      <trkpt lat="42.484409" lon="1.570905">
        <ele>1981.000000</ele>
        <time>2020-08-22T11:40:20Z</time>
      </trkpt>
      <trkpt lat="42.484402" lon="1.570909">
        <ele>1981.000000</ele>
        <time>2020-08-22T11:40:30Z</time>
      </trkpt>
      <trkpt lat="42.484402" lon="1.570909">
        <ele>1981.000000</ele>
        <time>2020-08-22T11:40:30Z</time>
      </trkpt>
      <trkpt lat="42.484383" lon="1.570917">
        <ele>1981.000000</ele>
        <time>2020-08-22T11:40:37Z</time>
      </trkpt>
      <trkpt lat="42.484383" lon="1.570917">
        <ele>1981.000000</ele>
        <time>2020-08-22T11:40:37Z</time>
      </trkpt>
      <trkpt lat="42.484364" lon="1.570924">
        <ele>1981.000000</ele>
        <time>2020-08-22T11:40:37Z</time>
      </trkpt>
      <trkpt lat="42.484364" lon="1.570924">
        <ele>1981.000000</ele>
        <time>2020-08-22T11:40:37Z</time>
      </trkpt>
      <trkpt lat="42.484341" lon="1.570931">
        <ele>1981.000000</ele>
        <time>2020-08-22T11:40:37Z</time>
      </trkpt>
      <trkpt lat="42.484341" lon="1.570931">
        <ele>1981.000000</ele>
        <time>2020-08-22T11:40:37Z</time>
      </trkpt>
      <trkpt lat="42.484322" lon="1.570936">
        <ele>1981.000000</ele>
        <time>2020-08-22T11:40:37Z</time>
      </trkpt>
      <trkpt lat="42.484322" lon="1.570936">
        <ele>1981.000000</ele>
        <time>2020-08-22T11:40:37Z</time>
      </trkpt>
      <trkpt lat="42.484299" lon="1.570941">
        <ele>1981.000000</ele>
        <time>2020-08-22T11:40:37Z</time>
      </trkpt>
      <trkpt lat="42.484299" lon="1.570941">
        <ele>1981.000000</ele>
        <time>2020-08-22T11:40:37Z</time>
      </trkpt>
      <trkpt lat="42.484276" lon="1.570945">
        <ele>1981.000000</ele>
        <time>2020-08-22T11:40:37Z</time>
      </trkpt>
      <trkpt lat="42.484276" lon="1.570945">
        <ele>1981.000000</ele>
        <time>2020-08-22T11:40:37Z</time>
      </trkpt>
      <trkpt lat="42.484253" lon="1.570949">
        <ele>1981.000000</ele>
        <time>2020-08-22T11:40:37Z</time>
      </trkpt>
      <trkpt lat="42.484253" lon="1.570949">
        <ele>1981.000000</ele>
        <time>2020-08-22T11:40:37Z</time>
      </trkpt>
      <trkpt lat="42.484230" lon="1.570954">
        <ele>1981.000000</ele>
        <time>2020-08-22T11:40:44Z</time>
      </trkpt>
      <trkpt lat="42.484230" lon="1.570954">
        <ele>1981.000000</ele>
        <time>2020-08-22T11:40:44Z</time>
      </trkpt>
      <trkpt lat="42.484207" lon="1.570958">
        <ele>1981.000000</ele>
        <time>2020-08-22T11:40:44Z</time>
      </trkpt>
      <trkpt lat="42.484207" lon="1.570958">
        <ele>1981.000000</ele>
        <time>2020-08-22T11:40:44Z</time>
      </trkpt>
      <trkpt lat="42.484184" lon="1.570962">
        <ele>1981.000000</ele>
        <time>2020-08-22T11:40:44Z</time>
      </trkpt>
      <trkpt lat="42.484184" lon="1.570962">
        <ele>1982.000000</ele>
        <time>2020-08-22T11:40:44Z</time>
      </trkpt>
      <trkpt lat="42.484173" lon="1.570962">
        <ele>1982.000000</ele>
        <time>2020-08-22T11:40:44Z</time>
      </trkpt>
      <trkpt lat="42.484173" lon="1.570962">
        <ele>1982.000000</ele>
        <time>2020-08-22T11:40:44Z</time>
      </trkpt>
      <trkpt lat="42.484161" lon="1.570962">
        <ele>1982.000000</ele>
        <time>2020-08-22T11:40:44Z</time>
      </trkpt>
      <trkpt lat="42.484161" lon="1.570962">
        <ele>1982.000000</ele>
        <time>2020-08-22T11:40:44Z</time>
      </trkpt>
      <trkpt lat="42.484154" lon="1.570964">
        <ele>1982.000000</ele>
        <time>2020-08-22T11:40:44Z</time>
      </trkpt>
      <trkpt lat="42.484154" lon="1.570964">
        <ele>1982.000000</ele>
        <time>2020-08-22T11:40:44Z</time>
      </trkpt>
      <trkpt lat="42.484142" lon="1.570967">
        <ele>1982.000000</ele>
        <time>2020-08-22T11:40:44Z</time>
      </trkpt>
      <trkpt lat="42.484142" lon="1.570967">
        <ele>1982.000000</ele>
        <time>2020-08-22T11:40:44Z</time>
      </trkpt>
      <trkpt lat="42.484135" lon="1.570971">
        <ele>1982.000000</ele>
        <time>2020-08-22T11:40:51Z</time>
      </trkpt>
      <trkpt lat="42.484135" lon="1.570971">
        <ele>1982.000000</ele>
        <time>2020-08-22T11:40:51Z</time>
      </trkpt>
      <trkpt lat="42.484127" lon="1.570975">
        <ele>1982.000000</ele>
        <time>2020-08-22T11:40:51Z</time>
      </trkpt>
      <trkpt lat="42.484127" lon="1.570975">
        <ele>1982.000000</ele>
        <time>2020-08-22T11:40:51Z</time>
      </trkpt>
      <trkpt lat="42.484116" lon="1.570980">
        <ele>1982.000000</ele>
        <time>2020-08-22T11:40:51Z</time>
      </trkpt>
      <trkpt lat="42.484116" lon="1.570980">
        <ele>1982.000000</ele>
        <time>2020-08-22T11:40:51Z</time>
      </trkpt>
      <trkpt lat="42.484108" lon="1.570984">
        <ele>1982.000000</ele>
        <time>2020-08-22T11:40:51Z</time>
      </trkpt>
      <trkpt lat="42.484108" lon="1.570984">
        <ele>1982.000000</ele>
        <time>2020-08-22T11:40:51Z</time>
      </trkpt>
      <trkpt lat="42.484100" lon="1.570988">
        <time>2020-08-22T11:40:51Z</time>
      </trkpt>
      <trkpt lat="42.484100" lon="1.570988">
        <time>2020-08-22T11:40:51Z</time>
      </trkpt>
      <trkpt lat="42.484093" lon="1.570992">
        <time>2020-08-22T11:40:51Z</time>
      </trkpt>
      <trkpt lat="42.484093" lon="1.570992">
        <time>2020-08-22T11:40:51Z</time>
      </trkpt>
      <trkpt lat="42.484077" lon="1.571000">
        <time>2020-08-22T11:40:51Z</time>
      </trkpt>
      <trkpt lat="42.484077" lon="1.571000">
        <time>2020-08-22T11:40:51Z</time>
      </trkpt>
      <trkpt lat="42.484062" lon="1.571006">
        <time>2020-08-22T11:40:51Z</time>
      </trkpt>
      <trkpt lat="42.484062" lon="1.571006">
        <time>2020-08-22T11:40:51Z</time>
      </trkpt>
      <trkpt lat="42.484043" lon="1.571012">
        <time>2020-08-22T11:40:51Z</time>
      </trkpt>
      <trkpt lat="42.484043" lon="1.571012">
        <time>2020-08-22T11:40:51Z</time>
      </trkpt>
      <trkpt lat="42.484028" lon="1.571019">
        <time>2020-08-22T11:40:51Z</time>
      </trkpt>
      <trkpt lat="42.484028" lon="1.571019">
        <time>2020-08-22T11:40:51Z</time>
      </trkpt>
      <trkpt lat="42.484009" lon="1.571025">
        <time>2020-08-22T11:40:58Z</time>
      </trkpt>
      <trkpt lat="42.484009" lon="1.571025">
        <time>2020-08-22T11:40:58Z</time>
      </trkpt>
      <trkpt lat="42.483990" lon="1.571033">
        <time>2020-08-22T11:40:58Z</time>
      </trkpt>
      <trkpt lat="42.483990" lon="1.571033">
        <time>2020-08-22T11:40:58Z</time>
      </trkpt>
      <trkpt lat="42.483967" lon="1.571041">
        <time>2020-08-22T11:40:58Z</time>
      </trkpt>
      <trkpt lat="42.483967" lon="1.571041">
        <time>2020-08-22T11:40:58Z</time>
      </trkpt>
      <trkpt lat="42.483948" lon="1.571051">
        <time>2020-08-22T11:40:58Z</time>
      </trkpt>
      <trkpt lat="42.483948" lon="1.571051">
        <time>2020-08-22T11:40:58Z</time>
      </trkpt>
      <trkpt lat="42.483921" lon="1.571060">
        <time>2020-08-22T11:40:58Z</time>
      </trkpt>
      <trkpt lat="42.483921" lon="1.571060">
        <time>2020-08-22T11:40:58Z</time>
      </trkpt>
      <trkpt lat="42.483894" lon="1.571068">
        <time>2020-08-22T11:40:58Z</time>
      </trkpt>
      <trkpt lat="42.483894" lon="1.571068">
        <time>2020-08-22T11:40:58Z</time>
      </trkpt>
      <trkpt lat="42.483879" lon="1.571072">
        <time>2020-08-22T11:40:58Z</time>
      </trkpt>
      <trkpt lat="42.483879" lon="1.571072">
        <time>2020-08-22T11:40:58Z</time>
      </trkpt>
      <trkpt lat="42.483860" lon="1.571075">
        <time>2020-08-22T11:41:05Z</time>
      </trkpt>
      <trkpt lat="42.483860" lon="1.571075">
        <time>2020-08-22T11:41:05Z</time>
      </trkpt>
      <trkpt lat="42.483841" lon="1.571078">
        <time>2020-08-22T11:41:05Z</time>
      </trkpt>
      <trkpt lat="42.483841" lon="1.571078">
        <time>2020-08-22T11:41:05Z</time>
      </trkpt>
      <trkpt lat="42.483822" lon="1.571080">
        <time>2020-08-22T11:41:05Z</time>
      </trkpt>
      <trkpt lat="42.483822" lon="1.571080">
        <time>2020-08-22T11:41:05Z</time>
      </trkpt>
      <trkpt lat="42.483803" lon="1.571082">
        <time>2020-08-22T11:41:05Z</time>
      </trkpt>
      <trkpt lat="42.483803" lon="1.571082">
        <time>2020-08-22T11:41:05Z</time>
      </trkpt>
      <trkpt lat="42.483788" lon="1.571083">
        <time>2020-08-22T11:41:05Z</time>
      </trkpt>
      <trkpt lat="42.483788" lon="1.571083">
        <time>2020-08-22T11:41:05Z</time>
      </trkpt>
      <trkpt lat="42.483772" lon="1.571082">
        <time>2020-08-22T11:41:05Z</time>
      </trkpt>
      <trkpt lat="42.483772" lon="1.571082">
        <time>2020-08-22T11:41:05Z</time>
      </trkpt>
      <trkpt lat="42.483753" lon="1.571080">
        <time>2020-08-22T11:41:05Z</time>
      </trkpt>
      <trkpt lat="42.483753" lon="1.571080">
        <time>2020-08-22T11:41:05Z</time>
      </trkpt>
      <trkpt lat="42.483742" lon="1.571078">
        <time>2020-08-22T11:41:14Z</time>
      </trkpt>
      <trkpt lat="42.483742" lon="1.571078">
        <time>2020-08-22T11:41:14Z</time>
      </trkpt>
      <trkpt lat="42.483726" lon="1.571074">
        <time>2020-08-22T11:41:14Z</time>
      </trkpt>
      <trkpt lat="42.483726" lon="1.571074">
        <time>2020-08-22T11:41:14Z</time>
      </trkpt>
      <trkpt lat="42.483715" lon="1.571071">
        <time>2020-08-22T11:41:14Z</time>
      </trkpt>
      <trkpt lat="42.483715" lon="1.571071">
        <time>2020-08-22T11:41:14Z</time>
      </trkpt>
      <trkpt lat="42.483704" lon="1.571067">
        <time>2020-08-22T11:41:14Z</time>
      </trkpt>
      <trkpt lat="42.483704" lon="1.571067">
        <time>2020-08-22T11:41:14Z</time>
      </trkpt>
      <trkpt lat="42.483692" lon="1.571063">
        <time>2020-08-22T11:41:14Z</time>
      </trkpt>
      <trkpt lat="42.483692" lon="1.571063">
        <time>2020-08-22T11:41:14Z</time>
      </trkpt>
      <trkpt lat="42.483685" lon="1.571058">
        <time>2020-08-22T11:41:14Z</time>
      </trkpt>
      <trkpt lat="42.483685" lon="1.571058">
        <time>2020-08-22T11:41:14Z</time>
      </trkpt>
      <trkpt lat="42.483673" lon="1.571052">
        <time>2020-08-22T11:41:14Z</time>
      </trkpt>
      <trkpt lat="42.483673" lon="1.571052">
        <time>2020-08-22T11:41:14Z</time>
      </trkpt>
      <trkpt lat="42.483665" lon="1.571046">
        <time>2020-08-22T11:41:14Z</time>
      </trkpt>
      <trkpt lat="42.483665" lon="1.571046">
        <time>2020-08-22T11:41:14Z</time>
      </trkpt>
      <trkpt lat="42.483658" lon="1.571040">
        <time>2020-08-22T11:41:14Z</time>
      </trkpt>
      <trkpt lat="42.483658" lon="1.571040">
        <time>2020-08-22T11:41:14Z</time>
      </trkpt>
      <trkpt lat="42.483646" lon="1.571034">
        <time>2020-08-22T11:41:14Z</time>
      </trkpt>
      <trkpt lat="42.483646" lon="1.571034">
        <time>2020-08-22T11:41:14Z</time>
      </trkpt>
      <trkpt lat="42.483639" lon="1.571030">
        <time>2020-08-22T11:41:14Z</time>
      </trkpt>
      <trkpt lat="42.483639" lon="1.571030">
        <time>2020-08-22T11:41:14Z</time>
      </trkpt>
      <trkpt lat="42.483631" lon="1.571027">
        <time>2020-08-22T11:41:14Z</time>
      </trkpt>
      <trkpt lat="42.483631" lon="1.571027">
        <time>2020-08-22T11:41:14Z</time>
      </trkpt>
      <trkpt lat="42.483620" lon="1.571025">
        <time>2020-08-22T11:41:14Z</time>
      </trkpt>
      <trkpt lat="42.483620" lon="1.571025">
        <time>2020-08-22T11:41:14Z</time>
      </trkpt>
      <trkpt lat="42.483612" lon="1.571023">
        <time>2020-08-22T11:41:21Z</time>
      </trkpt>
      <trkpt lat="42.483612" lon="1.571023">
        <time>2020-08-22T11:41:21Z</time>
      </trkpt>
      <trkpt lat="42.483604" lon="1.571021">
        <time>2020-08-22T11:41:21Z</time>
      </trkpt>
      <trkpt lat="42.483604" lon="1.571021">
        <time>2020-08-22T11:41:21Z</time>
      </trkpt>
      <trkpt lat="42.483593" lon="1.571019">
        <time>2020-08-22T11:41:21Z</time>
      </trkpt>
      <trkpt lat="42.483593" lon="1.571019">
        <time>2020-08-22T11:41:21Z</time>
      </trkpt>
      <trkpt lat="42.483585" lon="1.571017">
        <time>2020-08-22T11:41:21Z</time>
      </trkpt>
      <trkpt lat="42.483585" lon="1.571017">
        <time>2020-08-22T11:41:21Z</time>
      </trkpt>
      <trkpt lat="42.483578" lon="1.571014">
        <time>2020-08-22T11:41:21Z</time>
      </trkpt>
      <trkpt lat="42.483578" lon="1.571014">
        <time>2020-08-22T11:41:21Z</time>
      </trkpt>
      <trkpt lat="42.483570" lon="1.571011">
        <time>2020-08-22T11:41:21Z</time>
      </trkpt>
      <trkpt lat="42.483570" lon="1.571011">
        <time>2020-08-22T11:41:21Z</time>
      </trkpt>
      <trkpt lat="42.483559" lon="1.571006">
        <time>2020-08-22T11:41:21Z</time>
      </trkpt>
      <trkpt lat="42.483559" lon="1.571006">
        <time>2020-08-22T11:41:21Z</time>
      </trkpt>
      <trkpt lat="42.483551" lon="1.570999">
        <time>2020-08-22T11:41:28Z</time>
      </trkpt>
      <trkpt lat="42.483551" lon="1.570999">
        <time>2020-08-22T11:41:28Z</time>
      </trkpt>
      <trkpt lat="42.483543" lon="1.570990">
        <time>2020-08-22T11:41:28Z</time>
      </trkpt>
      <trkpt lat="42.483543" lon="1.570990">
        <time>2020-08-22T11:41:28Z</time>
      </trkpt>
      <trkpt lat="42.483536" lon="1.570980">
        <time>2020-08-22T11:41:28Z</time>
      </trkpt>
      <trkpt lat="42.483536" lon="1.570980">
        <time>2020-08-22T11:41:28Z</time>
      </trkpt>
      <trkpt lat="42.483524" lon="1.570970">
        <time>2020-08-22T11:41:28Z</time>
      </trkpt>
      <trkpt lat="42.483524" lon="1.570970">
        <time>2020-08-22T11:41:28Z</time>
      </trkpt>
      <trkpt lat="42.483513" lon="1.570961">
        <time>2020-08-22T11:41:28Z</time>
      </trkpt>
      <trkpt lat="42.483513" lon="1.570961">
        <time>2020-08-22T11:41:28Z</time>
      </trkpt>
      <trkpt lat="42.483505" lon="1.570952">
        <time>2020-08-22T11:41:28Z</time>
      </trkpt>
      <trkpt lat="42.483505" lon="1.570952">
        <time>2020-08-22T11:41:28Z</time>
      </trkpt>
      <trkpt lat="42.483498" lon="1.570945">
        <time>2020-08-22T11:41:28Z</time>
      </trkpt>
      <trkpt lat="42.483498" lon="1.570945">
        <time>2020-08-22T11:41:28Z</time>
      </trkpt>
      <trkpt lat="42.483486" lon="1.570937">
        <time>2020-08-22T11:41:35Z</time>
      </trkpt>
      <trkpt lat="42.483486" lon="1.570937">
        <time>2020-08-22T11:41:35Z</time>
      </trkpt>
      <trkpt lat="42.483479" lon="1.570930">
        <time>2020-08-22T11:41:35Z</time>
      </trkpt>
      <trkpt lat="42.483479" lon="1.570930">
        <time>2020-08-22T11:41:35Z</time>
      </trkpt>
      <trkpt lat="42.483467" lon="1.570924">
        <time>2020-08-22T11:41:35Z</time>
      </trkpt>
      <trkpt lat="42.483467" lon="1.570924">
        <time>2020-08-22T11:41:35Z</time>
      </trkpt>
      <trkpt lat="42.483456" lon="1.570920">
        <time>2020-08-22T11:41:35Z</time>
      </trkpt>
      <trkpt lat="42.483456" lon="1.570920">
        <time>2020-08-22T11:41:35Z</time>
      </trkpt>
      <trkpt lat="42.483444" lon="1.570916">
        <time>2020-08-22T11:41:35Z</time>
      </trkpt>
      <trkpt lat="42.483444" lon="1.570916">
        <time>2020-08-22T11:41:35Z</time>
      </trkpt>
      <trkpt lat="42.483433" lon="1.570914">
        <time>2020-08-22T11:41:35Z</time>
      </trkpt>
      <trkpt lat="42.483433" lon="1.570914">
        <time>2020-08-22T11:41:35Z</time>
      </trkpt>
      <trkpt lat="42.483425" lon="1.570911">
        <time>2020-08-22T11:41:35Z</time>
      </trkpt>
      <trkpt lat="42.483425" lon="1.570911">
        <time>2020-08-22T11:41:35Z</time>
      </trkpt>
      <trkpt lat="42.483414" lon="1.570908">
        <time>2020-08-22T11:41:42Z</time>
      </trkpt>
      <trkpt lat="42.483414" lon="1.570908">
        <time>2020-08-22T11:41:42Z</time>
      </trkpt>
      <trkpt lat="42.483398" lon="1.570905">
        <time>2020-08-22T11:41:42Z</time>
      </trkpt>
      <trkpt lat="42.483398" lon="1.570905">
        <time>2020-08-22T11:41:42Z</time>
      </trkpt>
      <trkpt lat="42.483387" lon="1.570902">
        <time>2020-08-22T11:41:42Z</time>
      </trkpt>
      <trkpt lat="42.483387" lon="1.570902">
        <time>2020-08-22T11:41:42Z</time>
      </trkpt>
      <trkpt lat="42.483376" lon="1.570899">
        <time>2020-08-22T11:41:42Z</time>
      </trkpt>
      <trkpt lat="42.483376" lon="1.570899">
        <time>2020-08-22T11:41:42Z</time>
      </trkpt>
      <trkpt lat="42.483364" lon="1.570897">
        <time>2020-08-22T11:41:42Z</time>
      </trkpt>
      <trkpt lat="42.483364" lon="1.570897">
        <time>2020-08-22T11:41:42Z</time>
      </trkpt>
      <trkpt lat="42.483353" lon="1.570895">
        <time>2020-08-22T11:41:42Z</time>
      </trkpt>
      <trkpt lat="42.483353" lon="1.570895">
        <time>2020-08-22T11:41:42Z</time>
      </trkpt>
      <trkpt lat="42.483341" lon="1.570893">
        <time>2020-08-22T11:41:42Z</time>
      </trkpt>
      <trkpt lat="42.483341" lon="1.570893">
        <time>2020-08-22T11:41:42Z</time>
      </trkpt>
      <trkpt lat="42.483330" lon="1.570891">
        <time>2020-08-22T11:41:49Z</time>
      </trkpt>
      <trkpt lat="42.483330" lon="1.570891">
        <time>2020-08-22T11:41:49Z</time>
      </trkpt>
      <trkpt lat="42.483307" lon="1.570889">
        <time>2020-08-22T11:41:49Z</time>
      </trkpt>
      <trkpt lat="42.483307" lon="1.570889">
        <time>2020-08-22T11:41:49Z</time>
      </trkpt>
      <trkpt lat="42.483288" lon="1.570887">
        <time>2020-08-22T11:41:49Z</time>
      </trkpt>
      <trkpt lat="42.483288" lon="1.570887">
        <time>2020-08-22T11:41:49Z</time>
      </trkpt>
      <trkpt lat="42.483265" lon="1.570886">
        <time>2020-08-22T11:41:49Z</time>
      </trkpt>
      <trkpt lat="42.483265" lon="1.570886">
        <time>2020-08-22T11:41:49Z</time>
      </trkpt>
      <trkpt lat="42.483250" lon="1.570885">
        <time>2020-08-22T11:41:49Z</time>
      </trkpt>
      <trkpt lat="42.483250" lon="1.570885">
        <time>2020-08-22T11:41:49Z</time>
      </trkpt>
      <trkpt lat="42.483231" lon="1.570885">
        <time>2020-08-22T11:41:49Z</time>
      </trkpt>
      <trkpt lat="42.483231" lon="1.570885">
        <time>2020-08-22T11:41:49Z</time>
      </trkpt>
      <trkpt lat="42.483212" lon="1.570884">
        <time>2020-08-22T11:41:49Z</time>
      </trkpt>
      <trkpt lat="42.483212" lon="1.570884">
        <time>2020-08-22T11:41:49Z</time>
      </trkpt>
      <trkpt lat="42.483196" lon="1.570884">
        <time>2020-08-22T11:41:56Z</time>
      </trkpt>
      <trkpt lat="42.483196" lon="1.570884">
        <time>2020-08-22T11:41:56Z</time>
      </trkpt>
      <trkpt lat="42.483177" lon="1.570882">
        <time>2020-08-22T11:41:56Z</time>
      </trkpt>
      <trkpt lat="42.483177" lon="1.570882">
        <time>2020-08-22T11:41:56Z</time>
      </trkpt>
      <trkpt lat="42.483162" lon="1.570881">
        <time>2020-08-22T11:41:56Z</time>
      </trkpt>
      <trkpt lat="42.483162" lon="1.570881">
        <time>2020-08-22T11:41:56Z</time>
      </trkpt>
      <trkpt lat="42.483147" lon="1.570879">
        <time>2020-08-22T11:41:56Z</time>
      </trkpt>
      <trkpt lat="42.483147" lon="1.570879">
        <time>2020-08-22T11:41:56Z</time>
      </trkpt>
      <trkpt lat="42.483128" lon="1.570867">
        <time>2020-08-22T11:41:56Z</time>
      </trkpt>
      <trkpt lat="42.483128" lon="1.570867">
        <time>2020-08-22T11:41:56Z</time>
      </trkpt>
      <trkpt lat="42.483109" lon="1.570854">
        <time>2020-08-22T11:41:56Z</time>
      </trkpt>
      <trkpt lat="42.483109" lon="1.570854">
        <time>2020-08-22T11:41:56Z</time>
      </trkpt>
      <trkpt lat="42.483089" lon="1.570842">
        <time>2020-08-22T11:41:56Z</time>
      </trkpt>
      <trkpt lat="42.483089" lon="1.570842">
        <time>2020-08-22T11:41:56Z</time>
      </trkpt>
      <trkpt lat="42.483070" lon="1.570829">
        <time>2020-08-22T11:42:10Z</time>
      </trkpt>
      <trkpt lat="42.483070" lon="1.570829">
        <time>2020-08-22T11:42:10Z</time>
      </trkpt>
      <trkpt lat="42.483055" lon="1.570816">
        <time>2020-08-22T11:42:10Z</time>
      </trkpt>
      <trkpt lat="42.483055" lon="1.570816">
        <time>2020-08-22T11:42:10Z</time>
      </trkpt>
      <trkpt lat="42.483036" lon="1.570803">
        <time>2020-08-22T11:42:10Z</time>
      </trkpt>
      <trkpt lat="42.483036" lon="1.570803">
        <time>2020-08-22T11:42:10Z</time>
      </trkpt>
      <trkpt lat="42.483017" lon="1.570789">
        <time>2020-08-22T11:42:10Z</time>
      </trkpt>
      <trkpt lat="42.483017" lon="1.570789">
        <time>2020-08-22T11:42:10Z</time>
      </trkpt>
      <trkpt lat="42.482998" lon="1.570775">
        <time>2020-08-22T11:42:10Z</time>
      </trkpt>
      <trkpt lat="42.482998" lon="1.570775">
        <time>2020-08-22T11:42:10Z</time>
      </trkpt>
      <trkpt lat="42.482975" lon="1.570761">
        <time>2020-08-22T11:42:21Z</time>
      </trkpt>
      <trkpt lat="42.482975" lon="1.570761">
        <time>2020-08-22T11:42:21Z</time>
      </trkpt>
      <trkpt lat="42.482960" lon="1.570747">
        <time>2020-08-22T11:42:21Z</time>
      </trkpt>
      <trkpt lat="42.482960" lon="1.570747">
        <time>2020-08-22T11:42:21Z</time>
      </trkpt>
      <trkpt lat="42.482952" lon="1.570745">
        <time>2020-08-22T11:42:21Z</time>
      </trkpt>
      <trkpt lat="42.482952" lon="1.570745">
        <time>2020-08-22T11:42:21Z</time>
      </trkpt>
      <trkpt lat="42.482944" lon="1.570744">
        <time>2020-08-22T11:42:21Z</time>
      </trkpt>
      <trkpt lat="42.482944" lon="1.570744">
        <time>2020-08-22T11:42:21Z</time>
      </trkpt>
      <trkpt lat="42.482937" lon="1.570744">
        <time>2020-08-22T11:42:28Z</time>
      </trkpt>
      <trkpt lat="42.482937" lon="1.570744">
        <time>2020-08-22T11:42:28Z</time>
      </trkpt>
      <trkpt lat="42.482929" lon="1.570744">
        <time>2020-08-22T11:42:28Z</time>
      </trkpt>
      <trkpt lat="42.482929" lon="1.570744">
        <time>2020-08-22T11:42:28Z</time>
      </trkpt>
      <trkpt lat="42.482922" lon="1.570746">
        <time>2020-08-22T11:42:28Z</time>
      </trkpt>
      <trkpt lat="42.482922" lon="1.570746">
        <time>2020-08-22T11:42:28Z</time>
      </trkpt>
      <trkpt lat="42.482910" lon="1.570749">
        <time>2020-08-22T11:42:28Z</time>
      </trkpt>
      <trkpt lat="42.482910" lon="1.570749">
        <time>2020-08-22T11:42:28Z</time>
      </trkpt>
      <trkpt lat="42.482903" lon="1.570755">
        <time>2020-08-22T11:42:28Z</time>
      </trkpt>
      <trkpt lat="42.482903" lon="1.570755">
        <time>2020-08-22T11:42:28Z</time>
      </trkpt>
      <trkpt lat="42.482895" lon="1.570762">
        <time>2020-08-22T11:42:28Z</time>
      </trkpt>
      <trkpt lat="42.482895" lon="1.570762">
        <time>2020-08-22T11:42:28Z</time>
      </trkpt>
      <trkpt lat="42.482883" lon="1.570771">
        <time>2020-08-22T11:42:28Z</time>
      </trkpt>
      <trkpt lat="42.482883" lon="1.570771">
        <time>2020-08-22T11:42:28Z</time>
      </trkpt>
      <trkpt lat="42.482876" lon="1.570781">
        <time>2020-08-22T11:42:35Z</time>
      </trkpt>
      <trkpt lat="42.482876" lon="1.570781">
        <time>2020-08-22T11:42:35Z</time>
      </trkpt>
      <trkpt lat="42.482868" lon="1.570791">
        <time>2020-08-22T11:42:35Z</time>
      </trkpt>
      <trkpt lat="42.482868" lon="1.570791">
        <time>2020-08-22T11:42:35Z</time>
      </trkpt>
      <trkpt lat="42.482861" lon="1.570801">
        <time>2020-08-22T11:42:35Z</time>
      </trkpt>
      <trkpt lat="42.482861" lon="1.570801">
        <time>2020-08-22T11:42:35Z</time>
      </trkpt>
      <trkpt lat="42.482849" lon="1.570810">
        <time>2020-08-22T11:42:35Z</time>
      </trkpt>
      <trkpt lat="42.482849" lon="1.570810">
        <time>2020-08-22T11:42:35Z</time>
      </trkpt>
      <trkpt lat="42.482841" lon="1.570819">
        <time>2020-08-22T11:42:35Z</time>
      </trkpt>
      <trkpt lat="42.482841" lon="1.570819">
        <time>2020-08-22T11:42:35Z</time>
      </trkpt>
      <trkpt lat="42.482834" lon="1.570827">
        <time>2020-08-22T11:42:35Z</time>
      </trkpt>
      <trkpt lat="42.482834" lon="1.570827">
        <time>2020-08-22T11:42:35Z</time>
      </trkpt>
      <trkpt lat="42.482822" lon="1.570835">
        <time>2020-08-22T11:42:35Z</time>
      </trkpt>
      <trkpt lat="42.482822" lon="1.570835">
        <time>2020-08-22T11:42:35Z</time>
      </trkpt>
      <trkpt lat="42.482815" lon="1.570842">
        <time>2020-08-22T11:42:42Z</time>
      </trkpt>
      <trkpt lat="42.482815" lon="1.570842">
        <time>2020-08-22T11:42:42Z</time>
      </trkpt>
      <trkpt lat="42.482811" lon="1.570849">
        <time>2020-08-22T11:42:42Z</time>
      </trkpt>
      <trkpt lat="42.482811" lon="1.570849">
        <time>2020-08-22T11:42:42Z</time>
      </trkpt>
      <trkpt lat="42.482807" lon="1.570856">
        <time>2020-08-22T11:42:42Z</time>
      </trkpt>
      <trkpt lat="42.482807" lon="1.570856">
        <time>2020-08-22T11:42:42Z</time>
      </trkpt>
      <trkpt lat="42.482796" lon="1.570862">
        <time>2020-08-22T11:42:42Z</time>
      </trkpt>
      <trkpt lat="42.482796" lon="1.570862">
        <time>2020-08-22T11:42:42Z</time>
      </trkpt>
      <trkpt lat="42.482792" lon="1.570868">
        <time>2020-08-22T11:42:49Z</time>
      </trkpt>
      <trkpt lat="42.482792" lon="1.570868">
        <time>2020-08-22T11:42:49Z</time>
      </trkpt>
      <trkpt lat="42.482788" lon="1.570874">
        <time>2020-08-22T11:42:49Z</time>
      </trkpt>
      <trkpt lat="42.482788" lon="1.570874">
        <time>2020-08-22T11:42:49Z</time>
      </trkpt>
      <trkpt lat="42.482780" lon="1.570880">
        <time>2020-08-22T11:42:49Z</time>
      </trkpt>
      <trkpt lat="42.482780" lon="1.570880">
        <time>2020-08-22T11:42:49Z</time>
      </trkpt>
      <trkpt lat="42.482777" lon="1.570886">
        <time>2020-08-22T11:42:49Z</time>
      </trkpt>
      <trkpt lat="42.482777" lon="1.570886">
        <time>2020-08-22T11:42:49Z</time>
      </trkpt>
      <trkpt lat="42.482769" lon="1.570892">
        <time>2020-08-22T11:42:49Z</time>
      </trkpt>
      <trkpt lat="42.482769" lon="1.570892">
        <time>2020-08-22T11:42:49Z</time>
      </trkpt>
      <trkpt lat="42.482765" lon="1.570897">
        <time>2020-08-22T11:42:49Z</time>
      </trkpt>
      <trkpt lat="42.482765" lon="1.570897">
        <time>2020-08-22T11:42:49Z</time>
      </trkpt>
      <trkpt lat="42.482761" lon="1.570902">
        <time>2020-08-22T11:42:49Z</time>
      </trkpt>
      <trkpt lat="42.482761" lon="1.570902">
        <time>2020-08-22T11:42:49Z</time>
      </trkpt>
      <trkpt lat="42.482754" lon="1.570910">
        <time>2020-08-22T11:42:57Z</time>
      </trkpt>
      <trkpt lat="42.482754" lon="1.570910">
        <time>2020-08-22T11:42:57Z</time>
      </trkpt>
      <trkpt lat="42.482750" lon="1.570918">
        <time>2020-08-22T11:42:57Z</time>
      </trkpt>
      <trkpt lat="42.482750" lon="1.570918">
        <time>2020-08-22T11:42:57Z</time>
      </trkpt>
      <trkpt lat="42.482742" lon="1.570928">
        <time>2020-08-22T11:42:57Z</time>
      </trkpt>
      <trkpt lat="42.482742" lon="1.570928">
        <time>2020-08-22T11:42:57Z</time>
      </trkpt>
      <trkpt lat="42.482738" lon="1.570937">
        <time>2020-08-22T11:42:57Z</time>
      </trkpt>
      <trkpt lat="42.482738" lon="1.570937">
        <time>2020-08-22T11:42:57Z</time>
      </trkpt>
      <trkpt lat="42.482735" lon="1.570947">
        <time>2020-08-22T11:42:57Z</time>
      </trkpt>
      <trkpt lat="42.482735" lon="1.570947">
        <time>2020-08-22T11:42:57Z</time>
      </trkpt>
      <trkpt lat="42.482731" lon="1.570956">
        <time>2020-08-22T11:42:57Z</time>
      </trkpt>
      <trkpt lat="42.482731" lon="1.570956">
        <time>2020-08-22T11:42:57Z</time>
      </trkpt>
      <trkpt lat="42.482727" lon="1.570966">
        <time>2020-08-22T11:43:04Z</time>
      </trkpt>
      <trkpt lat="42.482727" lon="1.570966">
        <time>2020-08-22T11:43:04Z</time>
      </trkpt>
      <trkpt lat="42.482716" lon="1.570976">
        <time>2020-08-22T11:43:04Z</time>
      </trkpt>
      <trkpt lat="42.482716" lon="1.570976">
        <time>2020-08-22T11:43:04Z</time>
      </trkpt>
      <trkpt lat="42.482712" lon="1.570987">
        <time>2020-08-22T11:43:04Z</time>
      </trkpt>
      <trkpt lat="42.482712" lon="1.570987">
        <time>2020-08-22T11:43:04Z</time>
      </trkpt>
      <trkpt lat="42.482708" lon="1.570998">
        <time>2020-08-22T11:43:04Z</time>
      </trkpt>
      <trkpt lat="42.482708" lon="1.570998">
        <time>2020-08-22T11:43:04Z</time>
      </trkpt>
      <trkpt lat="42.482700" lon="1.571008">
        <time>2020-08-22T11:43:04Z</time>
      </trkpt>
      <trkpt lat="42.482700" lon="1.571008">
        <time>2020-08-22T11:43:04Z</time>
      </trkpt>
      <trkpt lat="42.482697" lon="1.571017">
        <time>2020-08-22T11:43:04Z</time>
      </trkpt>
      <trkpt lat="42.482697" lon="1.571017">
        <time>2020-08-22T11:43:04Z</time>
      </trkpt>
      <trkpt lat="42.482689" lon="1.571027">
        <time>2020-08-22T11:43:11Z</time>
      </trkpt>
      <trkpt lat="42.482689" lon="1.571027">
        <time>2020-08-22T11:43:11Z</time>
      </trkpt>
      <trkpt lat="42.482681" lon="1.571038">
        <time>2020-08-22T11:43:11Z</time>
      </trkpt>
      <trkpt lat="42.482681" lon="1.571038">
        <time>2020-08-22T11:43:11Z</time>
      </trkpt>
      <trkpt lat="42.482677" lon="1.571050">
        <time>2020-08-22T11:43:11Z</time>
      </trkpt>
      <trkpt lat="42.482677" lon="1.571050">
        <time>2020-08-22T11:43:11Z</time>
      </trkpt>
      <trkpt lat="42.482674" lon="1.571063">
        <time>2020-08-22T11:43:11Z</time>
      </trkpt>
      <trkpt lat="42.482674" lon="1.571063">
        <time>2020-08-22T11:43:11Z</time>
      </trkpt>
      <trkpt lat="42.482666" lon="1.571077">
        <time>2020-08-22T11:43:11Z</time>
      </trkpt>
      <trkpt lat="42.482666" lon="1.571077">
        <time>2020-08-22T11:43:11Z</time>
      </trkpt>
      <trkpt lat="42.482658" lon="1.571092">
        <time>2020-08-22T11:43:11Z</time>
      </trkpt>
      <trkpt lat="42.482658" lon="1.571092">
        <time>2020-08-22T11:43:11Z</time>
      </trkpt>
      <trkpt lat="42.482655" lon="1.571107">
        <time>2020-08-22T11:43:11Z</time>
      </trkpt>
      <trkpt lat="42.482655" lon="1.571107">
        <time>2020-08-22T11:43:11Z</time>
      </trkpt>
      <trkpt lat="42.482647" lon="1.571122">
        <time>2020-08-22T11:43:18Z</time>
      </trkpt>
      <trkpt lat="42.482647" lon="1.571122">
        <time>2020-08-22T11:43:18Z</time>
      </trkpt>
      <trkpt lat="42.482639" lon="1.571137">
        <time>2020-08-22T11:43:18Z</time>
      </trkpt>
      <trkpt lat="42.482639" lon="1.571137">
        <time>2020-08-22T11:43:18Z</time>
      </trkpt>
      <trkpt lat="42.482632" lon="1.571152">
        <time>2020-08-22T11:43:18Z</time>
      </trkpt>
      <trkpt lat="42.482632" lon="1.571152">
        <time>2020-08-22T11:43:18Z</time>
      </trkpt>
      <trkpt lat="42.482624" lon="1.571167">
        <time>2020-08-22T11:43:18Z</time>
      </trkpt>
      <trkpt lat="42.482624" lon="1.571167">
        <time>2020-08-22T11:43:18Z</time>
      </trkpt>
      <trkpt lat="42.482613" lon="1.571183">
        <time>2020-08-22T11:43:18Z</time>
      </trkpt>
      <trkpt lat="42.482613" lon="1.571183">
        <time>2020-08-22T11:43:18Z</time>
      </trkpt>
      <trkpt lat="42.482605" lon="1.571197">
        <time>2020-08-22T11:43:18Z</time>
      </trkpt>
      <trkpt lat="42.482605" lon="1.571197">
        <time>2020-08-22T11:43:18Z</time>
      </trkpt>
      <trkpt lat="42.482594" lon="1.571211">
        <time>2020-08-22T11:43:18Z</time>
      </trkpt>
      <trkpt lat="42.482594" lon="1.571211">
        <time>2020-08-22T11:43:18Z</time>
      </trkpt>
      <trkpt lat="42.482586" lon="1.571225">
        <time>2020-08-22T11:43:25Z</time>
      </trkpt>
      <trkpt lat="42.482586" lon="1.571225">
        <time>2020-08-22T11:43:25Z</time>
      </trkpt>
      <trkpt lat="42.482574" lon="1.571238">
        <time>2020-08-22T11:43:25Z</time>
      </trkpt>
      <trkpt lat="42.482574" lon="1.571238">
        <time>2020-08-22T11:43:25Z</time>
      </trkpt>
      <trkpt lat="42.482563" lon="1.571251">
        <time>2020-08-22T11:43:25Z</time>
      </trkpt>
      <trkpt lat="42.482563" lon="1.571251">
        <time>2020-08-22T11:43:25Z</time>
      </trkpt>
      <trkpt lat="42.482552" lon="1.571264">
        <time>2020-08-22T11:43:25Z</time>
      </trkpt>
      <trkpt lat="42.482552" lon="1.571264">
        <time>2020-08-22T11:43:25Z</time>
      </trkpt>
      <trkpt lat="42.482544" lon="1.571276">
        <time>2020-08-22T11:43:25Z</time>
      </trkpt>
      <trkpt lat="42.482544" lon="1.571276">
        <time>2020-08-22T11:43:25Z</time>
      </trkpt>
      <trkpt lat="42.482532" lon="1.571286">
        <time>2020-08-22T11:43:25Z</time>
      </trkpt>
      <trkpt lat="42.482532" lon="1.571286">
        <time>2020-08-22T11:43:25Z</time>
      </trkpt>
      <trkpt lat="42.482525" lon="1.571296">
        <time>2020-08-22T11:43:25Z</time>
      </trkpt>
      <trkpt lat="42.482525" lon="1.571296">
        <time>2020-08-22T11:43:25Z</time>
      </trkpt>
      <trkpt lat="42.482513" lon="1.571304">
        <time>2020-08-22T11:43:32Z</time>
      </trkpt>
      <trkpt lat="42.482513" lon="1.571304">
        <time>2020-08-22T11:43:32Z</time>
      </trkpt>
      <trkpt lat="42.482506" lon="1.571312">
        <time>2020-08-22T11:43:32Z</time>
      </trkpt>
      <trkpt lat="42.482506" lon="1.571312">
        <time>2020-08-22T11:43:32Z</time>
      </trkpt>
      <trkpt lat="42.482502" lon="1.571320">
        <time>2020-08-22T11:43:32Z</time>
      </trkpt>
      <trkpt lat="42.482502" lon="1.571320">
        <time>2020-08-22T11:43:32Z</time>
      </trkpt>
      <trkpt lat="42.482494" lon="1.571328">
        <time>2020-08-22T11:43:32Z</time>
      </trkpt>
      <trkpt lat="42.482494" lon="1.571328">
        <time>2020-08-22T11:43:32Z</time>
      </trkpt>
      <trkpt lat="42.482491" lon="1.571336">
        <time>2020-08-22T11:43:32Z</time>
      </trkpt>
      <trkpt lat="42.482491" lon="1.571336">
        <time>2020-08-22T11:43:32Z</time>
      </trkpt>
      <trkpt lat="42.482487" lon="1.571343">
        <time>2020-08-22T11:43:32Z</time>
      </trkpt>
      <trkpt lat="42.482487" lon="1.571343">
        <time>2020-08-22T11:43:32Z</time>
      </trkpt>
      <trkpt lat="42.482479" lon="1.571349">
        <time>2020-08-22T11:43:32Z</time>
      </trkpt>
      <trkpt lat="42.482479" lon="1.571349">
        <time>2020-08-22T11:43:32Z</time>
      </trkpt>
      <trkpt lat="42.482471" lon="1.571355">
        <time>2020-08-22T11:43:39Z</time>
      </trkpt>
      <trkpt lat="42.482471" lon="1.571355">
        <time>2020-08-22T11:43:39Z</time>
      </trkpt>
      <trkpt lat="42.482464" lon="1.571362">
        <time>2020-08-22T11:43:39Z</time>
      </trkpt>
      <trkpt lat="42.482464" lon="1.571362">
        <time>2020-08-22T11:43:39Z</time>
      </trkpt>
      <trkpt lat="42.482456" lon="1.571368">
        <time>2020-08-22T11:43:39Z</time>
      </trkpt>
      <trkpt lat="42.482456" lon="1.571368">
        <time>2020-08-22T11:43:39Z</time>
      </trkpt>
      <trkpt lat="42.482449" lon="1.571375">
        <time>2020-08-22T11:43:39Z</time>
      </trkpt>
      <trkpt lat="42.482449" lon="1.571375">
        <time>2020-08-22T11:43:39Z</time>
      </trkpt>
      <trkpt lat="42.482441" lon="1.571383">
        <time>2020-08-22T11:43:39Z</time>
      </trkpt>
      <trkpt lat="42.482441" lon="1.571383">
        <time>2020-08-22T11:43:39Z</time>
      </trkpt>
      <trkpt lat="42.482433" lon="1.571391">
        <time>2020-08-22T11:43:39Z</time>
      </trkpt>
      <trkpt lat="42.482433" lon="1.571391">
        <time>2020-08-22T11:43:39Z</time>
      </trkpt>
      <trkpt lat="42.482426" lon="1.571400">
        <time>2020-08-22T11:43:39Z</time>
      </trkpt>
      <trkpt lat="42.482426" lon="1.571400">
        <time>2020-08-22T11:43:39Z</time>
      </trkpt>
      <trkpt lat="42.482414" lon="1.571409">
        <time>2020-08-22T11:43:46Z</time>
      </trkpt>
      <trkpt lat="42.482414" lon="1.571409">
        <time>2020-08-22T11:43:46Z</time>
      </trkpt>
      <trkpt lat="42.482407" lon="1.571419">
        <time>2020-08-22T11:43:46Z</time>
      </trkpt>
      <trkpt lat="42.482407" lon="1.571419">
        <time>2020-08-22T11:43:46Z</time>
      </trkpt>
      <trkpt lat="42.482399" lon="1.571429">
        <time>2020-08-22T11:43:46Z</time>
      </trkpt>
      <trkpt lat="42.482399" lon="1.571429">
        <time>2020-08-22T11:43:46Z</time>
      </trkpt>
      <trkpt lat="42.482391" lon="1.571441">
        <time>2020-08-22T11:43:46Z</time>
      </trkpt>
      <trkpt lat="42.482391" lon="1.571441">
        <time>2020-08-22T11:43:46Z</time>
      </trkpt>
      <trkpt lat="42.482384" lon="1.571453">
        <time>2020-08-22T11:43:46Z</time>
      </trkpt>
      <trkpt lat="42.482384" lon="1.571453">
        <time>2020-08-22T11:43:46Z</time>
      </trkpt>
      <trkpt lat="42.482380" lon="1.571465">
        <time>2020-08-22T11:43:46Z</time>
      </trkpt>
      <trkpt lat="42.482380" lon="1.571465">
        <time>2020-08-22T11:43:46Z</time>
      </trkpt>
      <trkpt lat="42.482372" lon="1.571478">
        <time>2020-08-22T11:43:46Z</time>
      </trkpt>
      <trkpt lat="42.482372" lon="1.571478">
        <time>2020-08-22T11:43:46Z</time>
      </trkpt>
      <trkpt lat="42.482361" lon="1.571490">
        <time>2020-08-22T11:43:53Z</time>
      </trkpt>
      <trkpt lat="42.482361" lon="1.571490">
        <time>2020-08-22T11:43:53Z</time>
      </trkpt>
      <trkpt lat="42.482357" lon="1.571501">
        <time>2020-08-22T11:43:53Z</time>
      </trkpt>
      <trkpt lat="42.482357" lon="1.571501">
        <time>2020-08-22T11:43:53Z</time>
      </trkpt>
      <trkpt lat="42.482349" lon="1.571512">
        <time>2020-08-22T11:43:53Z</time>
      </trkpt>
      <trkpt lat="42.482349" lon="1.571512">
        <time>2020-08-22T11:43:53Z</time>
      </trkpt>
      <trkpt lat="42.482346" lon="1.571523">
        <time>2020-08-22T11:43:53Z</time>
      </trkpt>
      <trkpt lat="42.482346" lon="1.571523">
        <time>2020-08-22T11:43:53Z</time>
      </trkpt>
      <trkpt lat="42.482334" lon="1.571533">
        <time>2020-08-22T11:43:53Z</time>
      </trkpt>
      <trkpt lat="42.482334" lon="1.571533">
        <time>2020-08-22T11:43:53Z</time>
      </trkpt>
      <trkpt lat="42.482326" lon="1.571542">
        <time>2020-08-22T11:43:53Z</time>
      </trkpt>
      <trkpt lat="42.482326" lon="1.571542">
        <time>2020-08-22T11:43:53Z</time>
      </trkpt>
      <trkpt lat="42.482319" lon="1.571552">
        <time>2020-08-22T11:43:53Z</time>
      </trkpt>
      <trkpt lat="42.482319" lon="1.571552">
        <time>2020-08-22T11:43:53Z</time>
      </trkpt>
      <trkpt lat="42.482315" lon="1.571562">
        <time>2020-08-22T11:44:02Z</time>
      </trkpt>
      <trkpt lat="42.482315" lon="1.571562">
        <time>2020-08-22T11:44:02Z</time>
      </trkpt>
      <trkpt lat="42.482307" lon="1.571573">
        <time>2020-08-22T11:44:02Z</time>
      </trkpt>
      <trkpt lat="42.482307" lon="1.571573">
        <time>2020-08-22T11:44:02Z</time>
      </trkpt>
      <trkpt lat="42.482292" lon="1.571587">
        <time>2020-08-22T11:44:02Z</time>
      </trkpt>
      <trkpt lat="42.482292" lon="1.571587">
        <time>2020-08-22T11:44:02Z</time>
      </trkpt>
      <trkpt lat="42.482277" lon="1.571600">
        <time>2020-08-22T11:44:02Z</time>
      </trkpt>
      <trkpt lat="42.482277" lon="1.571600">
        <time>2020-08-22T11:44:02Z</time>
      </trkpt>
      <trkpt lat="42.482265" lon="1.571613">
        <time>2020-08-22T11:44:02Z</time>
      </trkpt>
      <trkpt lat="42.482265" lon="1.571613">
        <time>2020-08-22T11:44:02Z</time>
      </trkpt>
      <trkpt lat="42.482246" lon="1.571625">
        <time>2020-08-22T11:44:02Z</time>
      </trkpt>
      <trkpt lat="42.482246" lon="1.571625">
        <time>2020-08-22T11:44:02Z</time>
      </trkpt>
      <trkpt lat="42.482231" lon="1.571637">
        <time>2020-08-22T11:44:02Z</time>
      </trkpt>
      <trkpt lat="42.482231" lon="1.571637">
        <time>2020-08-22T11:44:02Z</time>
      </trkpt>
      <trkpt lat="42.482220" lon="1.571648">
        <time>2020-08-22T11:44:02Z</time>
      </trkpt>
      <trkpt lat="42.482220" lon="1.571648">
        <time>2020-08-22T11:44:02Z</time>
      </trkpt>
      <trkpt lat="42.482204" lon="1.571660">
        <time>2020-08-22T11:44:09Z</time>
      </trkpt>
      <trkpt lat="42.482204" lon="1.571660">
        <time>2020-08-22T11:44:09Z</time>
      </trkpt>
      <trkpt lat="42.482189" lon="1.571671">
        <time>2020-08-22T11:44:09Z</time>
      </trkpt>
      <trkpt lat="42.482189" lon="1.571671">
        <time>2020-08-22T11:44:09Z</time>
      </trkpt>
      <trkpt lat="42.482178" lon="1.571681">
        <time>2020-08-22T11:44:09Z</time>
      </trkpt>
      <trkpt lat="42.482178" lon="1.571681">
        <time>2020-08-22T11:44:09Z</time>
      </trkpt>
      <trkpt lat="42.482162" lon="1.571691">
        <time>2020-08-22T11:44:09Z</time>
      </trkpt>
      <trkpt lat="42.482162" lon="1.571691">
        <time>2020-08-22T11:44:09Z</time>
      </trkpt>
      <trkpt lat="42.482159" lon="1.571697">
        <time>2020-08-22T11:44:09Z</time>
      </trkpt>
      <trkpt lat="42.482159" lon="1.571697">
        <time>2020-08-22T11:44:09Z</time>
      </trkpt>
      <trkpt lat="42.482155" lon="1.571704">
        <time>2020-08-22T11:44:09Z</time>
      </trkpt>
      <trkpt lat="42.482155" lon="1.571704">
        <time>2020-08-22T11:44:09Z</time>
      </trkpt>
      <trkpt lat="42.482151" lon="1.571712">
        <time>2020-08-22T11:44:09Z</time>
      </trkpt>
      <trkpt lat="42.482151" lon="1.571712">
        <time>2020-08-22T11:44:09Z</time>
      </trkpt>
      <trkpt lat="42.482147" lon="1.571721">
        <time>2020-08-22T11:44:09Z</time>
      </trkpt>
      <trkpt lat="42.482147" lon="1.571721">
        <time>2020-08-22T11:44:09Z</time>
      </trkpt>
      <trkpt lat="42.482143" lon="1.571730">
        <time>2020-08-22T11:44:09Z</time>
      </trkpt>
      <trkpt lat="42.482143" lon="1.571730">
        <time>2020-08-22T11:44:09Z</time>
      </trkpt>
      <trkpt lat="42.482140" lon="1.571740">
        <time>2020-08-22T11:44:09Z</time>
      </trkpt>
      <trkpt lat="42.482140" lon="1.571740">
        <time>2020-08-22T11:44:09Z</time>
      </trkpt>
      <trkpt lat="42.482132" lon="1.571751">
        <time>2020-08-22T11:44:09Z</time>
      </trkpt>
      <trkpt lat="42.482132" lon="1.571751">
        <time>2020-08-22T11:44:09Z</time>
      </trkpt>
      <trkpt lat="42.482132" lon="1.571762">
        <time>2020-08-22T11:44:09Z</time>
      </trkpt>
      <trkpt lat="42.482132" lon="1.571762">
        <time>2020-08-22T11:44:09Z</time>
      </trkpt>
      <trkpt lat="42.482124" lon="1.571774">
        <time>2020-08-22T11:44:16Z</time>
      </trkpt>
      <trkpt lat="42.482124" lon="1.571774">
        <time>2020-08-22T11:44:16Z</time>
      </trkpt>
      <trkpt lat="42.482121" lon="1.571787">
        <time>2020-08-22T11:44:16Z</time>
      </trkpt>
      <trkpt lat="42.482121" lon="1.571787">
        <time>2020-08-22T11:44:16Z</time>
      </trkpt>
      <trkpt lat="42.482113" lon="1.571800">
        <time>2020-08-22T11:44:16Z</time>
      </trkpt>
      <trkpt lat="42.482113" lon="1.571800">
        <time>2020-08-22T11:44:16Z</time>
      </trkpt>
      <trkpt lat="42.482109" lon="1.571814">
        <time>2020-08-22T11:44:16Z</time>
      </trkpt>
      <trkpt lat="42.482109" lon="1.571814">
        <time>2020-08-22T11:44:16Z</time>
      </trkpt>
      <trkpt lat="42.482105" lon="1.571827">
        <time>2020-08-22T11:44:16Z</time>
      </trkpt>
      <trkpt lat="42.482105" lon="1.571827">
        <time>2020-08-22T11:44:16Z</time>
      </trkpt>
      <trkpt lat="42.482101" lon="1.571841">
        <time>2020-08-22T11:44:16Z</time>
      </trkpt>
      <trkpt lat="42.482101" lon="1.571841">
        <time>2020-08-22T11:44:16Z</time>
      </trkpt>
      <trkpt lat="42.482098" lon="1.571855">
        <time>2020-08-22T11:44:16Z</time>
      </trkpt>
      <trkpt lat="42.482098" lon="1.571855">
        <time>2020-08-22T11:44:16Z</time>
      </trkpt>
      <trkpt lat="42.482094" lon="1.571869">
        <time>2020-08-22T11:44:23Z</time>
      </trkpt>
      <trkpt lat="42.482094" lon="1.571869">
        <time>2020-08-22T11:44:23Z</time>
      </trkpt>
      <trkpt lat="42.482090" lon="1.571882">
        <time>2020-08-22T11:44:23Z</time>
      </trkpt>
      <trkpt lat="42.482090" lon="1.571882">
        <time>2020-08-22T11:44:23Z</time>
      </trkpt>
      <trkpt lat="42.482086" lon="1.571895">
        <time>2020-08-22T11:44:23Z</time>
      </trkpt>
      <trkpt lat="42.482086" lon="1.571895">
        <time>2020-08-22T11:44:23Z</time>
      </trkpt>
      <trkpt lat="42.482082" lon="1.571906">
        <time>2020-08-22T11:44:23Z</time>
      </trkpt>
      <trkpt lat="42.482082" lon="1.571906">
        <time>2020-08-22T11:44:23Z</time>
      </trkpt>
      <trkpt lat="42.482079" lon="1.571917">
        <time>2020-08-22T11:44:23Z</time>
      </trkpt>
      <trkpt lat="42.482079" lon="1.571917">
        <time>2020-08-22T11:44:23Z</time>
      </trkpt>
      <trkpt lat="42.482079" lon="1.571927">
        <time>2020-08-22T11:44:23Z</time>
      </trkpt>
      <trkpt lat="42.482079" lon="1.571927">
        <time>2020-08-22T11:44:23Z</time>
      </trkpt>
      <trkpt lat="42.482075" lon="1.571937">
        <time>2020-08-22T11:44:23Z</time>
      </trkpt>
      <trkpt lat="42.482075" lon="1.571937">
        <time>2020-08-22T11:44:23Z</time>
      </trkpt>
      <trkpt lat="42.482071" lon="1.571947">
        <time>2020-08-22T11:44:30Z</time>
      </trkpt>
      <trkpt lat="42.482071" lon="1.571947">
        <time>2020-08-22T11:44:30Z</time>
      </trkpt>
      <trkpt lat="42.482063" lon="1.571957">
        <time>2020-08-22T11:44:30Z</time>
      </trkpt>
      <trkpt lat="42.482063" lon="1.571957">
        <time>2020-08-22T11:44:30Z</time>
      </trkpt>
      <trkpt lat="42.482059" lon="1.571967">
        <time>2020-08-22T11:44:30Z</time>
      </trkpt>
      <trkpt lat="42.482059" lon="1.571967">
        <time>2020-08-22T11:44:30Z</time>
      </trkpt>
      <trkpt lat="42.482052" lon="1.571978">
        <time>2020-08-22T11:44:30Z</time>
      </trkpt>
      <trkpt lat="42.482052" lon="1.571978">
        <time>2020-08-22T11:44:30Z</time>
      </trkpt>
      <trkpt lat="42.482048" lon="1.571989">
        <time>2020-08-22T11:44:30Z</time>
      </trkpt>
      <trkpt lat="42.482048" lon="1.571989">
        <time>2020-08-22T11:44:30Z</time>
      </trkpt>
      <trkpt lat="42.482040" lon="1.572001">
        <time>2020-08-22T11:44:30Z</time>
      </trkpt>
      <trkpt lat="42.482040" lon="1.572001">
        <time>2020-08-22T11:44:30Z</time>
      </trkpt>
      <trkpt lat="42.482033" lon="1.572013">
        <time>2020-08-22T11:44:30Z</time>
      </trkpt>
      <trkpt lat="42.482033" lon="1.572013">
        <time>2020-08-22T11:44:30Z</time>
      </trkpt>
      <trkpt lat="42.482025" lon="1.572026">
        <time>2020-08-22T11:44:40Z</time>
      </trkpt>
      <trkpt lat="42.482025" lon="1.572026">
        <time>2020-08-22T11:44:40Z</time>
      </trkpt>
      <trkpt lat="42.482014" lon="1.572044">
        <time>2020-08-22T11:44:40Z</time>
      </trkpt>
      <trkpt lat="42.482014" lon="1.572044">
        <time>2020-08-22T11:44:40Z</time>
      </trkpt>
      <trkpt lat="42.482002" lon="1.572062">
        <time>2020-08-22T11:44:40Z</time>
      </trkpt>
      <trkpt lat="42.482002" lon="1.572062">
        <time>2020-08-22T11:44:40Z</time>
      </trkpt>
      <trkpt lat="42.481991" lon="1.572081">
        <time>2020-08-22T11:44:47Z</time>
      </trkpt>
      <trkpt lat="42.481991" lon="1.572081">
        <time>2020-08-22T11:44:47Z</time>
      </trkpt>
      <trkpt lat="42.481983" lon="1.572099">
        <time>2020-08-22T11:44:47Z</time>
      </trkpt>
      <trkpt lat="42.481983" lon="1.572099">
        <time>2020-08-22T11:44:47Z</time>
      </trkpt>
      <trkpt lat="42.481968" lon="1.572117">
        <time>2020-08-22T11:44:47Z</time>
      </trkpt>
      <trkpt lat="42.481968" lon="1.572117">
        <time>2020-08-22T11:44:47Z</time>
      </trkpt>
      <trkpt lat="42.481956" lon="1.572135">
        <time>2020-08-22T11:44:47Z</time>
      </trkpt>
      <trkpt lat="42.481956" lon="1.572135">
        <time>2020-08-22T11:44:47Z</time>
      </trkpt>
      <trkpt lat="42.481945" lon="1.572153">
        <time>2020-08-22T11:44:47Z</time>
      </trkpt>
      <trkpt lat="42.481945" lon="1.572153">
        <time>2020-08-22T11:44:47Z</time>
      </trkpt>
      <trkpt lat="42.481937" lon="1.572171">
        <time>2020-08-22T11:44:47Z</time>
      </trkpt>
      <trkpt lat="42.481937" lon="1.572171">
        <time>2020-08-22T11:44:47Z</time>
      </trkpt>
      <trkpt lat="42.481930" lon="1.572190">
        <time>2020-08-22T11:44:47Z</time>
      </trkpt>
      <trkpt lat="42.481930" lon="1.572190">
        <time>2020-08-22T11:44:47Z</time>
      </trkpt>
      <trkpt lat="42.481918" lon="1.572210">
        <time>2020-08-22T11:44:47Z</time>
      </trkpt>
      <trkpt lat="42.481918" lon="1.572210">
        <time>2020-08-22T11:44:47Z</time>
      </trkpt>
      <trkpt lat="42.481911" lon="1.572225">
        <time>2020-08-22T11:44:47Z</time>
      </trkpt>
      <trkpt lat="42.481911" lon="1.572225">
        <time>2020-08-22T11:44:47Z</time>
      </trkpt>
      <trkpt lat="42.481907" lon="1.572240">
        <time>2020-08-22T11:44:47Z</time>
      </trkpt>
      <trkpt lat="42.481907" lon="1.572240">
        <time>2020-08-22T11:44:47Z</time>
      </trkpt>
      <trkpt lat="42.481903" lon="1.572255">
        <time>2020-08-22T11:44:47Z</time>
      </trkpt>
      <trkpt lat="42.481903" lon="1.572255">
        <time>2020-08-22T11:44:47Z</time>
      </trkpt>
      <trkpt lat="42.481899" lon="1.572270">
        <time>2020-08-22T11:44:47Z</time>
      </trkpt>
      <trkpt lat="42.481899" lon="1.572270">
        <time>2020-08-22T11:44:47Z</time>
      </trkpt>
      <trkpt lat="42.481892" lon="1.572285">
        <time>2020-08-22T11:44:54Z</time>
      </trkpt>
      <trkpt lat="42.481892" lon="1.572285">
        <time>2020-08-22T11:44:54Z</time>
      </trkpt>
      <trkpt lat="42.481892" lon="1.572300">
        <time>2020-08-22T11:44:54Z</time>
      </trkpt>
      <trkpt lat="42.481892" lon="1.572300">
        <time>2020-08-22T11:44:54Z</time>
      </trkpt>
      <trkpt lat="42.481892" lon="1.572315">
        <time>2020-08-22T11:44:54Z</time>
      </trkpt>
      <trkpt lat="42.481892" lon="1.572315">
        <time>2020-08-22T11:44:54Z</time>
      </trkpt>
      <trkpt lat="42.481888" lon="1.572330">
        <time>2020-08-22T11:44:54Z</time>
      </trkpt>
      <trkpt lat="42.481888" lon="1.572330">
        <time>2020-08-22T11:44:54Z</time>
      </trkpt>
      <trkpt lat="42.481888" lon="1.572343">
        <time>2020-08-22T11:44:54Z</time>
      </trkpt>
      <trkpt lat="42.481888" lon="1.572343">
        <time>2020-08-22T11:44:54Z</time>
      </trkpt>
      <trkpt lat="42.481884" lon="1.572357">
        <time>2020-08-22T11:44:54Z</time>
      </trkpt>
      <trkpt lat="42.481884" lon="1.572357">
        <time>2020-08-22T11:44:54Z</time>
      </trkpt>
      <trkpt lat="42.481884" lon="1.572371">
        <time>2020-08-22T11:44:54Z</time>
      </trkpt>
      <trkpt lat="42.481884" lon="1.572371">
        <time>2020-08-22T11:44:54Z</time>
      </trkpt>
      <trkpt lat="42.481884" lon="1.572384">
        <time>2020-08-22T11:45:01Z</time>
      </trkpt>
      <trkpt lat="42.481884" lon="1.572384">
        <time>2020-08-22T11:45:01Z</time>
      </trkpt>
      <trkpt lat="42.481880" lon="1.572398">
        <time>2020-08-22T11:45:01Z</time>
      </trkpt>
      <trkpt lat="42.481880" lon="1.572398">
        <time>2020-08-22T11:45:01Z</time>
      </trkpt>
      <trkpt lat="42.481876" lon="1.572411">
        <time>2020-08-22T11:45:01Z</time>
      </trkpt>
      <trkpt lat="42.481876" lon="1.572411">
        <time>2020-08-22T11:45:01Z</time>
      </trkpt>
      <trkpt lat="42.481876" lon="1.572425">
        <time>2020-08-22T11:45:01Z</time>
      </trkpt>
      <trkpt lat="42.481876" lon="1.572425">
        <time>2020-08-22T11:45:01Z</time>
      </trkpt>
      <trkpt lat="42.481873" lon="1.572439">
        <time>2020-08-22T11:45:01Z</time>
      </trkpt>
      <trkpt lat="42.481873" lon="1.572439">
        <time>2020-08-22T11:45:01Z</time>
      </trkpt>
      <trkpt lat="42.481873" lon="1.572454">
        <time>2020-08-22T11:45:01Z</time>
      </trkpt>
      <trkpt lat="42.481873" lon="1.572454">
        <time>2020-08-22T11:45:01Z</time>
      </trkpt>
      <trkpt lat="42.481873" lon="1.572468">
        <time>2020-08-22T11:45:01Z</time>
      </trkpt>
      <trkpt lat="42.481873" lon="1.572468">
        <time>2020-08-22T11:45:01Z</time>
      </trkpt>
      <trkpt lat="42.481873" lon="1.572481">
        <time>2020-08-22T11:45:08Z</time>
      </trkpt>
      <trkpt lat="42.481873" lon="1.572481">
        <time>2020-08-22T11:45:08Z</time>
      </trkpt>
      <trkpt lat="42.481873" lon="1.572493">
        <time>2020-08-22T11:45:08Z</time>
      </trkpt>
      <trkpt lat="42.481873" lon="1.572493">
        <time>2020-08-22T11:45:08Z</time>
      </trkpt>
      <trkpt lat="42.481873" lon="1.572509">
        <time>2020-08-22T11:45:08Z</time>
      </trkpt>
      <trkpt lat="42.481873" lon="1.572509">
        <time>2020-08-22T11:45:08Z</time>
      </trkpt>
      <trkpt lat="42.481876" lon="1.572525">
        <time>2020-08-22T11:45:08Z</time>
      </trkpt>
      <trkpt lat="42.481876" lon="1.572525">
        <time>2020-08-22T11:45:08Z</time>
      </trkpt>
      <trkpt lat="42.481884" lon="1.572540">
        <time>2020-08-22T11:45:08Z</time>
      </trkpt>
      <trkpt lat="42.481884" lon="1.572540">
        <time>2020-08-22T11:45:08Z</time>
      </trkpt>
      <trkpt lat="42.481888" lon="1.572554">
        <time>2020-08-22T11:45:15Z</time>
      </trkpt>
      <trkpt lat="42.481888" lon="1.572554">
        <time>2020-08-22T11:45:15Z</time>
      </trkpt>
      <trkpt lat="42.481892" lon="1.572569">
        <time>2020-08-22T11:45:15Z</time>
      </trkpt>
      <trkpt lat="42.481892" lon="1.572569">
        <time>2020-08-22T11:45:15Z</time>
      </trkpt>
      <trkpt lat="42.481899" lon="1.572583">
        <time>2020-08-22T11:45:15Z</time>
      </trkpt>
      <trkpt lat="42.481899" lon="1.572583">
        <time>2020-08-22T11:45:15Z</time>
      </trkpt>
      <trkpt lat="42.481903" lon="1.572598">
        <time>2020-08-22T11:45:15Z</time>
      </trkpt>
      <trkpt lat="42.481903" lon="1.572598">
        <time>2020-08-22T11:45:15Z</time>
      </trkpt>
      <trkpt lat="42.481911" lon="1.572612">
        <time>2020-08-22T11:45:15Z</time>
      </trkpt>
      <trkpt lat="42.481911" lon="1.572612">
        <time>2020-08-22T11:45:15Z</time>
      </trkpt>
      <trkpt lat="42.481915" lon="1.572627">
        <time>2020-08-22T11:45:15Z</time>
      </trkpt>
      <trkpt lat="42.481915" lon="1.572627">
        <time>2020-08-22T11:45:15Z</time>
      </trkpt>
      <trkpt lat="42.481918" lon="1.572642">
        <time>2020-08-22T11:45:15Z</time>
      </trkpt>
      <trkpt lat="42.481918" lon="1.572642">
        <time>2020-08-22T11:45:15Z</time>
      </trkpt>
      <trkpt lat="42.481926" lon="1.572653">
        <time>2020-08-22T11:45:22Z</time>
      </trkpt>
      <trkpt lat="42.481926" lon="1.572653">
        <time>2020-08-22T11:45:22Z</time>
      </trkpt>
      <trkpt lat="42.481930" lon="1.572664">
        <time>2020-08-22T11:45:22Z</time>
      </trkpt>
      <trkpt lat="42.481930" lon="1.572664">
        <time>2020-08-22T11:45:22Z</time>
      </trkpt>
      <trkpt lat="42.481934" lon="1.572676">
        <time>2020-08-22T11:45:22Z</time>
      </trkpt>
      <trkpt lat="42.481934" lon="1.572676">
        <time>2020-08-22T11:45:22Z</time>
      </trkpt>
      <trkpt lat="42.481937" lon="1.572690">
        <time>2020-08-22T11:45:22Z</time>
      </trkpt>
      <trkpt lat="42.481937" lon="1.572690">
        <time>2020-08-22T11:45:22Z</time>
      </trkpt>
      <trkpt lat="42.481941" lon="1.572705">
        <time>2020-08-22T11:45:22Z</time>
      </trkpt>
      <trkpt lat="42.481941" lon="1.572705">
        <time>2020-08-22T11:45:22Z</time>
      </trkpt>
      <trkpt lat="42.481945" lon="1.572720">
        <time>2020-08-22T11:45:29Z</time>
      </trkpt>
      <trkpt lat="42.481945" lon="1.572720">
        <time>2020-08-22T11:45:29Z</time>
      </trkpt>
      <trkpt lat="42.481949" lon="1.572736">
        <time>2020-08-22T11:45:29Z</time>
      </trkpt>
      <trkpt lat="42.481949" lon="1.572736">
        <time>2020-08-22T11:45:29Z</time>
      </trkpt>
      <trkpt lat="42.481956" lon="1.572751">
        <time>2020-08-22T11:45:29Z</time>
      </trkpt>
      <trkpt lat="42.481956" lon="1.572751">
        <time>2020-08-22T11:45:29Z</time>
      </trkpt>
      <trkpt lat="42.481956" lon="1.572766">
        <time>2020-08-22T11:45:29Z</time>
      </trkpt>
      <trkpt lat="42.481956" lon="1.572766">
        <time>2020-08-22T11:45:29Z</time>
      </trkpt>
      <trkpt lat="42.481964" lon="1.572781">
        <time>2020-08-22T11:45:29Z</time>
      </trkpt>
      <trkpt lat="42.481964" lon="1.572781">
        <time>2020-08-22T11:45:29Z</time>
      </trkpt>
      <trkpt lat="42.481968" lon="1.572795">
        <time>2020-08-22T11:45:36Z</time>
      </trkpt>
      <trkpt lat="42.481968" lon="1.572795">
        <time>2020-08-22T11:45:36Z</time>
      </trkpt>
      <trkpt lat="42.481968" lon="1.572808">
        <time>2020-08-22T11:45:36Z</time>
      </trkpt>
      <trkpt lat="42.481968" lon="1.572808">
        <time>2020-08-22T11:45:36Z</time>
      </trkpt>
      <trkpt lat="42.481968" lon="1.572820">
        <time>2020-08-22T11:45:36Z</time>
      </trkpt>
      <trkpt lat="42.481968" lon="1.572820">
        <time>2020-08-22T11:45:36Z</time>
      </trkpt>
      <trkpt lat="42.481968" lon="1.572832">
        <time>2020-08-22T11:45:36Z</time>
      </trkpt>
      <trkpt lat="42.481968" lon="1.572832">
        <time>2020-08-22T11:45:36Z</time>
      </trkpt>
      <trkpt lat="42.481968" lon="1.572841">
        <time>2020-08-22T11:45:36Z</time>
      </trkpt>
      <trkpt lat="42.481968" lon="1.572841">
        <time>2020-08-22T11:45:36Z</time>
      </trkpt>
      <trkpt lat="42.481968" lon="1.572851">
        <time>2020-08-22T11:45:36Z</time>
      </trkpt>
      <trkpt lat="42.481968" lon="1.572851">
        <time>2020-08-22T11:45:36Z</time>
      </trkpt>
      <trkpt lat="42.481964" lon="1.572861">
        <time>2020-08-22T11:45:36Z</time>
      </trkpt>
      <trkpt lat="42.481964" lon="1.572861">
        <time>2020-08-22T11:45:36Z</time>
      </trkpt>
      <trkpt lat="42.481964" lon="1.572871">
        <time>2020-08-22T11:45:43Z</time>
      </trkpt>
      <trkpt lat="42.481964" lon="1.572871">
        <time>2020-08-22T11:45:43Z</time>
      </trkpt>
      <trkpt lat="42.481960" lon="1.572881">
        <time>2020-08-22T11:45:43Z</time>
      </trkpt>
      <trkpt lat="42.481960" lon="1.572881">
        <time>2020-08-22T11:45:43Z</time>
      </trkpt>
      <trkpt lat="42.481956" lon="1.572892">
        <time>2020-08-22T11:45:43Z</time>
      </trkpt>
      <trkpt lat="42.481956" lon="1.572892">
        <time>2020-08-22T11:45:43Z</time>
      </trkpt>
      <trkpt lat="42.481956" lon="1.572904">
        <time>2020-08-22T11:45:43Z</time>
      </trkpt>
      <trkpt lat="42.481956" lon="1.572904">
        <time>2020-08-22T11:45:43Z</time>
      </trkpt>
      <trkpt lat="42.481953" lon="1.572915">
        <time>2020-08-22T11:45:43Z</time>
      </trkpt>
      <trkpt lat="42.481953" lon="1.572915">
        <time>2020-08-22T11:45:43Z</time>
      </trkpt>
      <trkpt lat="42.481949" lon="1.572928">
        <time>2020-08-22T11:45:43Z</time>
      </trkpt>
      <trkpt lat="42.481949" lon="1.572928">
        <time>2020-08-22T11:45:43Z</time>
      </trkpt>
      <trkpt lat="42.481945" lon="1.572940">
        <time>2020-08-22T11:45:43Z</time>
      </trkpt>
      <trkpt lat="42.481945" lon="1.572940">
        <time>2020-08-22T11:45:43Z</time>
      </trkpt>
      <trkpt lat="42.481945" lon="1.572952">
        <time>2020-08-22T11:45:50Z</time>
      </trkpt>
      <trkpt lat="42.481945" lon="1.572952">
        <time>2020-08-22T11:45:50Z</time>
      </trkpt>
      <trkpt lat="42.481941" lon="1.572965">
        <time>2020-08-22T11:45:50Z</time>
      </trkpt>
      <trkpt lat="42.481941" lon="1.572965">
        <time>2020-08-22T11:45:50Z</time>
      </trkpt>
      <trkpt lat="42.481937" lon="1.572978">
        <time>2020-08-22T11:45:50Z</time>
      </trkpt>
      <trkpt lat="42.481937" lon="1.572978">
        <time>2020-08-22T11:45:50Z</time>
      </trkpt>
      <trkpt lat="42.481930" lon="1.572992">
        <time>2020-08-22T11:45:50Z</time>
      </trkpt>
      <trkpt lat="42.481930" lon="1.572992">
        <time>2020-08-22T11:45:50Z</time>
      </trkpt>
      <trkpt lat="42.481922" lon="1.573006">
        <time>2020-08-22T11:45:50Z</time>
      </trkpt>
      <trkpt lat="42.481922" lon="1.573006">
        <time>2020-08-22T11:45:50Z</time>
      </trkpt>
      <trkpt lat="42.481915" lon="1.573020">
        <time>2020-08-22T11:45:50Z</time>
      </trkpt>
      <trkpt lat="42.481915" lon="1.573020">
        <time>2020-08-22T11:45:50Z</time>
      </trkpt>
      <trkpt lat="42.481911" lon="1.573035">
        <time>2020-08-22T11:45:50Z</time>
      </trkpt>
      <trkpt lat="42.481911" lon="1.573035">
        <time>2020-08-22T11:45:50Z</time>
      </trkpt>
      <trkpt lat="42.481903" lon="1.573050">
        <time>2020-08-22T11:45:57Z</time>
      </trkpt>
      <trkpt lat="42.481903" lon="1.573050">
        <time>2020-08-22T11:45:57Z</time>
      </trkpt>
      <trkpt lat="42.481899" lon="1.573065">
        <time>2020-08-22T11:45:57Z</time>
      </trkpt>
      <trkpt lat="42.481899" lon="1.573065">
        <time>2020-08-22T11:45:57Z</time>
      </trkpt>
      <trkpt lat="42.481892" lon="1.573079">
        <time>2020-08-22T11:45:57Z</time>
      </trkpt>
      <trkpt lat="42.481892" lon="1.573079">
        <time>2020-08-22T11:45:57Z</time>
      </trkpt>
      <trkpt lat="42.481888" lon="1.573093">
        <time>2020-08-22T11:45:57Z</time>
      </trkpt>
      <trkpt lat="42.481888" lon="1.573093">
        <time>2020-08-22T11:45:57Z</time>
      </trkpt>
      <trkpt lat="42.481884" lon="1.573107">
        <time>2020-08-22T11:45:57Z</time>
      </trkpt>
      <trkpt lat="42.481884" lon="1.573107">
        <time>2020-08-22T11:45:57Z</time>
      </trkpt>
      <trkpt lat="42.481884" lon="1.573120">
        <time>2020-08-22T11:45:57Z</time>
      </trkpt>
      <trkpt lat="42.481884" lon="1.573120">
        <time>2020-08-22T11:45:57Z</time>
      </trkpt>
      <trkpt lat="42.481880" lon="1.573131">
        <time>2020-08-22T11:45:57Z</time>
      </trkpt>
      <trkpt lat="42.481880" lon="1.573131">
        <time>2020-08-22T11:45:57Z</time>
      </trkpt>
      <trkpt lat="42.481880" lon="1.573141">
        <time>2020-08-22T11:46:05Z</time>
      </trkpt>
      <trkpt lat="42.481880" lon="1.573141">
        <time>2020-08-22T11:46:05Z</time>
      </trkpt>
      <trkpt lat="42.481876" lon="1.573150">
        <time>2020-08-22T11:46:05Z</time>
      </trkpt>
      <trkpt lat="42.481876" lon="1.573150">
        <time>2020-08-22T11:46:05Z</time>
      </trkpt>
      <trkpt lat="42.481865" lon="1.573158">
        <time>2020-08-22T11:46:05Z</time>
      </trkpt>
      <trkpt lat="42.481865" lon="1.573158">
        <time>2020-08-22T11:46:05Z</time>
      </trkpt>
      <trkpt lat="42.481861" lon="1.573166">
        <time>2020-08-22T11:46:05Z</time>
      </trkpt>
      <trkpt lat="42.481861" lon="1.573166">
        <time>2020-08-22T11:46:05Z</time>
      </trkpt>
      <trkpt lat="42.481853" lon="1.573174">
        <time>2020-08-22T11:46:05Z</time>
      </trkpt>
      <trkpt lat="42.481853" lon="1.573174">
        <time>2020-08-22T11:46:05Z</time>
      </trkpt>
      <trkpt lat="42.481846" lon="1.573183">
        <time>2020-08-22T11:46:05Z</time>
      </trkpt>
      <trkpt lat="42.481846" lon="1.573183">
        <time>2020-08-22T11:46:05Z</time>
      </trkpt>
      <trkpt lat="42.481838" lon="1.573193">
        <time>2020-08-22T11:46:05Z</time>
      </trkpt>
      <trkpt lat="42.481838" lon="1.573193">
        <time>2020-08-22T11:46:05Z</time>
      </trkpt>
      <trkpt lat="42.481831" lon="1.573202">
        <time>2020-08-22T11:46:05Z</time>
      </trkpt>
      <trkpt lat="42.481831" lon="1.573202">
        <time>2020-08-22T11:46:05Z</time>
      </trkpt>
      <trkpt lat="42.481823" lon="1.573213">
        <time>2020-08-22T11:46:12Z</time>
      </trkpt>
      <trkpt lat="42.481823" lon="1.573213">
        <time>2020-08-22T11:46:12Z</time>
      </trkpt>
      <trkpt lat="42.481819" lon="1.573224">
        <time>2020-08-22T11:46:12Z</time>
      </trkpt>
      <trkpt lat="42.481819" lon="1.573224">
        <time>2020-08-22T11:46:12Z</time>
      </trkpt>
      <trkpt lat="42.481812" lon="1.573237">
        <time>2020-08-22T11:46:12Z</time>
      </trkpt>
      <trkpt lat="42.481812" lon="1.573237">
        <time>2020-08-22T11:46:12Z</time>
      </trkpt>
      <trkpt lat="42.481804" lon="1.573252">
        <time>2020-08-22T11:46:12Z</time>
      </trkpt>
      <trkpt lat="42.481804" lon="1.573252">
        <time>2020-08-22T11:46:12Z</time>
      </trkpt>
      <trkpt lat="42.481804" lon="1.573267">
        <time>2020-08-22T11:46:12Z</time>
      </trkpt>
      <trkpt lat="42.481804" lon="1.573267">
        <time>2020-08-22T11:46:12Z</time>
      </trkpt>
      <trkpt lat="42.481796" lon="1.573283">
        <time>2020-08-22T11:46:12Z</time>
      </trkpt>
      <trkpt lat="42.481796" lon="1.573283">
        <time>2020-08-22T11:46:12Z</time>
      </trkpt>
      <trkpt lat="42.481792" lon="1.573298">
        <time>2020-08-22T11:46:12Z</time>
      </trkpt>
      <trkpt lat="42.481792" lon="1.573298">
        <time>2020-08-22T11:46:12Z</time>
      </trkpt>
      <trkpt lat="42.481789" lon="1.573314">
        <time>2020-08-22T11:46:19Z</time>
      </trkpt>
      <trkpt lat="42.481789" lon="1.573314">
        <time>2020-08-22T11:46:19Z</time>
      </trkpt>
      <trkpt lat="42.481785" lon="1.573330">
        <time>2020-08-22T11:46:19Z</time>
      </trkpt>
      <trkpt lat="42.481785" lon="1.573330">
        <time>2020-08-22T11:46:19Z</time>
      </trkpt>
      <trkpt lat="42.481777" lon="1.573346">
        <time>2020-08-22T11:46:19Z</time>
      </trkpt>
      <trkpt lat="42.481777" lon="1.573346">
        <time>2020-08-22T11:46:19Z</time>
      </trkpt>
      <trkpt lat="42.481773" lon="1.573362">
        <time>2020-08-22T11:46:19Z</time>
      </trkpt>
      <trkpt lat="42.481773" lon="1.573362">
        <time>2020-08-22T11:46:19Z</time>
      </trkpt>
      <trkpt lat="42.481770" lon="1.573377">
        <time>2020-08-22T11:46:19Z</time>
      </trkpt>
      <trkpt lat="42.481770" lon="1.573377">
        <time>2020-08-22T11:46:19Z</time>
      </trkpt>
      <trkpt lat="42.481762" lon="1.573392">
        <time>2020-08-22T11:46:19Z</time>
      </trkpt>
      <trkpt lat="42.481762" lon="1.573392">
        <time>2020-08-22T11:46:19Z</time>
      </trkpt>
      <trkpt lat="42.481758" lon="1.573407">
        <time>2020-08-22T11:46:19Z</time>
      </trkpt>
      <trkpt lat="42.481758" lon="1.573407">
        <time>2020-08-22T11:46:19Z</time>
      </trkpt>
      <trkpt lat="42.481754" lon="1.573422">
        <time>2020-08-22T11:46:26Z</time>
      </trkpt>
      <trkpt lat="42.481754" lon="1.573422">
        <time>2020-08-22T11:46:26Z</time>
      </trkpt>
      <trkpt lat="42.481750" lon="1.573436">
        <time>2020-08-22T11:46:26Z</time>
      </trkpt>
      <trkpt lat="42.481750" lon="1.573436">
        <time>2020-08-22T11:46:26Z</time>
      </trkpt>
      <trkpt lat="42.481750" lon="1.573451">
        <time>2020-08-22T11:46:26Z</time>
      </trkpt>
      <trkpt lat="42.481750" lon="1.573451">
        <time>2020-08-22T11:46:26Z</time>
      </trkpt>
      <trkpt lat="42.481747" lon="1.573466">
        <time>2020-08-22T11:46:26Z</time>
      </trkpt>
      <trkpt lat="42.481747" lon="1.573466">
        <time>2020-08-22T11:46:26Z</time>
      </trkpt>
      <trkpt lat="42.481743" lon="1.573481">
        <time>2020-08-22T11:46:26Z</time>
      </trkpt>
      <trkpt lat="42.481743" lon="1.573481">
        <time>2020-08-22T11:46:26Z</time>
      </trkpt>
      <trkpt lat="42.481743" lon="1.573495">
        <time>2020-08-22T11:46:26Z</time>
      </trkpt>
      <trkpt lat="42.481743" lon="1.573495">
        <time>2020-08-22T11:46:26Z</time>
      </trkpt>
      <trkpt lat="42.481743" lon="1.573509">
        <time>2020-08-22T11:46:26Z</time>
      </trkpt>
      <trkpt lat="42.481743" lon="1.573509">
        <time>2020-08-22T11:46:26Z</time>
      </trkpt>
      <trkpt lat="42.481739" lon="1.573524">
        <time>2020-08-22T11:46:33Z</time>
      </trkpt>
      <trkpt lat="42.481739" lon="1.573524">
        <time>2020-08-22T11:46:33Z</time>
      </trkpt>
      <trkpt lat="42.481739" lon="1.573539">
        <time>2020-08-22T11:46:33Z</time>
      </trkpt>
      <trkpt lat="42.481739" lon="1.573539">
        <time>2020-08-22T11:46:33Z</time>
      </trkpt>
      <trkpt lat="42.481735" lon="1.573555">
        <time>2020-08-22T11:46:33Z</time>
      </trkpt>
      <trkpt lat="42.481735" lon="1.573555">
        <time>2020-08-22T11:46:33Z</time>
      </trkpt>
      <trkpt lat="42.481735" lon="1.573573">
        <time>2020-08-22T11:46:33Z</time>
      </trkpt>
      <trkpt lat="42.481735" lon="1.573573">
        <time>2020-08-22T11:46:33Z</time>
      </trkpt>
      <trkpt lat="42.481731" lon="1.573592">
        <time>2020-08-22T11:46:40Z</time>
      </trkpt>
      <trkpt lat="42.481731" lon="1.573592">
        <time>2020-08-22T11:46:40Z</time>
      </trkpt>
      <trkpt lat="42.481728" lon="1.573611">
        <time>2020-08-22T11:46:40Z</time>
      </trkpt>
      <trkpt lat="42.481728" lon="1.573611">
        <time>2020-08-22T11:46:40Z</time>
      </trkpt>
      <trkpt lat="42.481724" lon="1.573630">
        <time>2020-08-22T11:46:40Z</time>
      </trkpt>
      <trkpt lat="42.481724" lon="1.573630">
        <time>2020-08-22T11:46:40Z</time>
      </trkpt>
      <trkpt lat="42.481720" lon="1.573649">
        <time>2020-08-22T11:46:40Z</time>
      </trkpt>
      <trkpt lat="42.481720" lon="1.573649">
        <time>2020-08-22T11:46:40Z</time>
      </trkpt>
      <trkpt lat="42.481716" lon="1.573668">
        <time>2020-08-22T11:46:40Z</time>
      </trkpt>
      <trkpt lat="42.481716" lon="1.573668">
        <time>2020-08-22T11:46:40Z</time>
      </trkpt>
      <trkpt lat="42.481712" lon="1.573687">
        <time>2020-08-22T11:46:40Z</time>
      </trkpt>
      <trkpt lat="42.481712" lon="1.573687">
        <time>2020-08-22T11:46:40Z</time>
      </trkpt>
      <trkpt lat="42.481709" lon="1.573707">
        <time>2020-08-22T11:46:40Z</time>
      </trkpt>
      <trkpt lat="42.481709" lon="1.573707">
        <time>2020-08-22T11:46:40Z</time>
      </trkpt>
      <trkpt lat="42.481705" lon="1.573727">
        <time>2020-08-22T11:46:47Z</time>
      </trkpt>
      <trkpt lat="42.481705" lon="1.573727">
        <time>2020-08-22T11:46:47Z</time>
      </trkpt>
      <trkpt lat="42.481701" lon="1.573747">
        <time>2020-08-22T11:46:47Z</time>
      </trkpt>
      <trkpt lat="42.481701" lon="1.573747">
        <time>2020-08-22T11:46:47Z</time>
      </trkpt>
      <trkpt lat="42.481697" lon="1.573765">
        <time>2020-08-22T11:46:47Z</time>
      </trkpt>
      <trkpt lat="42.481697" lon="1.573765">
        <time>2020-08-22T11:46:47Z</time>
      </trkpt>
      <trkpt lat="42.481697" lon="1.573782">
        <time>2020-08-22T11:46:47Z</time>
      </trkpt>
      <trkpt lat="42.481697" lon="1.573782">
        <time>2020-08-22T11:46:47Z</time>
      </trkpt>
      <trkpt lat="42.481693" lon="1.573799">
        <time>2020-08-22T11:46:47Z</time>
      </trkpt>
      <trkpt lat="42.481693" lon="1.573799">
        <time>2020-08-22T11:46:47Z</time>
      </trkpt>
      <trkpt lat="42.481689" lon="1.573816">
        <time>2020-08-22T11:46:47Z</time>
      </trkpt>
      <trkpt lat="42.481689" lon="1.573816">
        <time>2020-08-22T11:46:47Z</time>
      </trkpt>
      <trkpt lat="42.481689" lon="1.573833">
        <time>2020-08-22T11:46:47Z</time>
      </trkpt>
      <trkpt lat="42.481689" lon="1.573833">
        <time>2020-08-22T11:46:47Z</time>
      </trkpt>
      <trkpt lat="42.481686" lon="1.573849">
        <time>2020-08-22T11:46:54Z</time>
      </trkpt>
      <trkpt lat="42.481686" lon="1.573849">
        <time>2020-08-22T11:46:54Z</time>
      </trkpt>
      <trkpt lat="42.481682" lon="1.573865">
        <time>2020-08-22T11:46:54Z</time>
      </trkpt>
      <trkpt lat="42.481682" lon="1.573865">
        <time>2020-08-22T11:46:54Z</time>
      </trkpt>
      <trkpt lat="42.481682" lon="1.573881">
        <time>2020-08-22T11:46:54Z</time>
      </trkpt>
      <trkpt lat="42.481682" lon="1.573881">
        <time>2020-08-22T11:46:54Z</time>
      </trkpt>
      <trkpt lat="42.481678" lon="1.573896">
        <time>2020-08-22T11:46:54Z</time>
      </trkpt>
      <trkpt lat="42.481678" lon="1.573896">
        <time>2020-08-22T11:46:54Z</time>
      </trkpt>
      <trkpt lat="42.481674" lon="1.573912">
        <time>2020-08-22T11:46:54Z</time>
      </trkpt>
      <trkpt lat="42.481674" lon="1.573912">
        <time>2020-08-22T11:46:54Z</time>
      </trkpt>
      <trkpt lat="42.481670" lon="1.573927">
        <time>2020-08-22T11:46:54Z</time>
      </trkpt>
      <trkpt lat="42.481670" lon="1.573927">
        <time>2020-08-22T11:46:54Z</time>
      </trkpt>
      <trkpt lat="42.481667" lon="1.573942">
        <time>2020-08-22T11:46:54Z</time>
      </trkpt>
      <trkpt lat="42.481667" lon="1.573942">
        <time>2020-08-22T11:46:54Z</time>
      </trkpt>
      <trkpt lat="42.481663" lon="1.573957">
        <time>2020-08-22T11:47:01Z</time>
      </trkpt>
      <trkpt lat="42.481663" lon="1.573957">
        <time>2020-08-22T11:47:01Z</time>
      </trkpt>
      <trkpt lat="42.481659" lon="1.573972">
        <time>2020-08-22T11:47:01Z</time>
      </trkpt>
      <trkpt lat="42.481659" lon="1.573972">
        <time>2020-08-22T11:47:01Z</time>
      </trkpt>
      <trkpt lat="42.481655" lon="1.573987">
        <time>2020-08-22T11:47:01Z</time>
      </trkpt>
      <trkpt lat="42.481655" lon="1.573987">
        <time>2020-08-22T11:47:01Z</time>
      </trkpt>
      <trkpt lat="42.481647" lon="1.574001">
        <time>2020-08-22T11:47:01Z</time>
      </trkpt>
      <trkpt lat="42.481647" lon="1.574001">
        <time>2020-08-22T11:47:01Z</time>
      </trkpt>
      <trkpt lat="42.481644" lon="1.574014">
        <time>2020-08-22T11:47:01Z</time>
      </trkpt>
      <trkpt lat="42.481644" lon="1.574014">
        <time>2020-08-22T11:47:01Z</time>
      </trkpt>
      <trkpt lat="42.481644" lon="1.574027">
        <time>2020-08-22T11:47:01Z</time>
      </trkpt>
      <trkpt lat="42.481644" lon="1.574027">
        <time>2020-08-22T11:47:01Z</time>
      </trkpt>
      <trkpt lat="42.481644" lon="1.574039">
        <time>2020-08-22T11:47:01Z</time>
      </trkpt>
      <trkpt lat="42.481644" lon="1.574039">
        <time>2020-08-22T11:47:01Z</time>
      </trkpt>
      <trkpt lat="42.481644" lon="1.574050">
        <time>2020-08-22T11:47:08Z</time>
      </trkpt>
      <trkpt lat="42.481644" lon="1.574050">
        <time>2020-08-22T11:47:08Z</time>
      </trkpt>
      <trkpt lat="42.481640" lon="1.574060">
        <time>2020-08-22T11:47:08Z</time>
      </trkpt>
      <trkpt lat="42.481640" lon="1.574060">
        <time>2020-08-22T11:47:08Z</time>
      </trkpt>
      <trkpt lat="42.481640" lon="1.574069">
        <time>2020-08-22T11:47:08Z</time>
      </trkpt>
      <trkpt lat="42.481640" lon="1.574069">
        <time>2020-08-22T11:47:08Z</time>
      </trkpt>
      <trkpt lat="42.481636" lon="1.574078">
        <time>2020-08-22T11:47:08Z</time>
      </trkpt>
      <trkpt lat="42.481636" lon="1.574078">
        <time>2020-08-22T11:47:08Z</time>
      </trkpt>
      <trkpt lat="42.481636" lon="1.574086">
        <time>2020-08-22T11:47:08Z</time>
      </trkpt>
      <trkpt lat="42.481636" lon="1.574086">
        <time>2020-08-22T11:47:08Z</time>
      </trkpt>
      <trkpt lat="42.481636" lon="1.574094">
        <time>2020-08-22T11:47:08Z</time>
      </trkpt>
      <trkpt lat="42.481636" lon="1.574094">
        <time>2020-08-22T11:47:08Z</time>
      </trkpt>
      <trkpt lat="42.481632" lon="1.574102">
        <time>2020-08-22T11:47:08Z</time>
      </trkpt>
      <trkpt lat="42.481632" lon="1.574102">
        <time>2020-08-22T11:47:08Z</time>
      </trkpt>
      <trkpt lat="42.481632" lon="1.574111">
        <time>2020-08-22T11:47:15Z</time>
      </trkpt>
      <trkpt lat="42.481632" lon="1.574111">
        <time>2020-08-22T11:47:15Z</time>
      </trkpt>
      <trkpt lat="42.481628" lon="1.574119">
        <time>2020-08-22T11:47:15Z</time>
      </trkpt>
      <trkpt lat="42.481628" lon="1.574119">
        <time>2020-08-22T11:47:15Z</time>
      </trkpt>
      <trkpt lat="42.481628" lon="1.574127">
        <time>2020-08-22T11:47:15Z</time>
      </trkpt>
      <trkpt lat="42.481628" lon="1.574127">
        <time>2020-08-22T11:47:15Z</time>
      </trkpt>
      <trkpt lat="42.481625" lon="1.574136">
        <time>2020-08-22T11:47:15Z</time>
      </trkpt>
      <trkpt lat="42.481625" lon="1.574136">
        <time>2020-08-22T11:47:15Z</time>
      </trkpt>
      <trkpt lat="42.481625" lon="1.574146">
        <time>2020-08-22T11:47:15Z</time>
      </trkpt>
      <trkpt lat="42.481625" lon="1.574146">
        <time>2020-08-22T11:47:15Z</time>
      </trkpt>
      <trkpt lat="42.481621" lon="1.574156">
        <time>2020-08-22T11:47:15Z</time>
      </trkpt>
      <trkpt lat="42.481621" lon="1.574156">
        <time>2020-08-22T11:47:15Z</time>
      </trkpt>
      <trkpt lat="42.481621" lon="1.574167">
        <time>2020-08-22T11:47:15Z</time>
      </trkpt>
      <trkpt lat="42.481621" lon="1.574167">
        <time>2020-08-22T11:47:15Z</time>
      </trkpt>
      <trkpt lat="42.481621" lon="1.574178">
        <time>2020-08-22T11:47:22Z</time>
      </trkpt>
      <trkpt lat="42.481621" lon="1.574178">
        <time>2020-08-22T11:47:22Z</time>
      </trkpt>
      <trkpt lat="42.481621" lon="1.574190">
        <time>2020-08-22T11:47:22Z</time>
      </trkpt>
      <trkpt lat="42.481621" lon="1.574190">
        <time>2020-08-22T11:47:22Z</time>
      </trkpt>
      <trkpt lat="42.481621" lon="1.574201">
        <time>2020-08-22T11:47:22Z</time>
      </trkpt>
      <trkpt lat="42.481621" lon="1.574201">
        <time>2020-08-22T11:47:22Z</time>
      </trkpt>
      <trkpt lat="42.481621" lon="1.574212">
        <time>2020-08-22T11:47:22Z</time>
      </trkpt>
      <trkpt lat="42.481621" lon="1.574212">
        <time>2020-08-22T11:47:22Z</time>
      </trkpt>
      <trkpt lat="42.481617" lon="1.574224">
        <time>2020-08-22T11:47:22Z</time>
      </trkpt>
      <trkpt lat="42.481617" lon="1.574224">
        <time>2020-08-22T11:47:22Z</time>
      </trkpt>
      <trkpt lat="42.481617" lon="1.574235">
        <time>2020-08-22T11:47:22Z</time>
      </trkpt>
      <trkpt lat="42.481617" lon="1.574235">
        <time>2020-08-22T11:47:22Z</time>
      </trkpt>
      <trkpt lat="42.481613" lon="1.574246">
        <time>2020-08-22T11:47:22Z</time>
      </trkpt>
      <trkpt lat="42.481613" lon="1.574246">
        <time>2020-08-22T11:47:22Z</time>
      </trkpt>
      <trkpt lat="42.481609" lon="1.574257">
        <time>2020-08-22T11:47:29Z</time>
      </trkpt>
      <trkpt lat="42.481609" lon="1.574257">
        <time>2020-08-22T11:47:29Z</time>
      </trkpt>
      <trkpt lat="42.481606" lon="1.574266">
        <time>2020-08-22T11:47:29Z</time>
      </trkpt>
      <trkpt lat="42.481606" lon="1.574266">
        <time>2020-08-22T11:47:29Z</time>
      </trkpt>
      <trkpt lat="42.481602" lon="1.574276">
        <time>2020-08-22T11:47:29Z</time>
      </trkpt>
      <trkpt lat="42.481602" lon="1.574276">
        <time>2020-08-22T11:47:29Z</time>
      </trkpt>
      <trkpt lat="42.481594" lon="1.574285">
        <time>2020-08-22T11:47:29Z</time>
      </trkpt>
      <trkpt lat="42.481594" lon="1.574285">
        <time>2020-08-22T11:47:29Z</time>
      </trkpt>
      <trkpt lat="42.481590" lon="1.574294">
        <time>2020-08-22T11:47:29Z</time>
      </trkpt>
      <trkpt lat="42.481590" lon="1.574294">
        <time>2020-08-22T11:47:29Z</time>
      </trkpt>
      <trkpt lat="42.481583" lon="1.574302">
        <time>2020-08-22T11:47:29Z</time>
      </trkpt>
      <trkpt lat="42.481583" lon="1.574302">
        <time>2020-08-22T11:47:29Z</time>
      </trkpt>
      <trkpt lat="42.481579" lon="1.574310">
        <time>2020-08-22T11:47:29Z</time>
      </trkpt>
      <trkpt lat="42.481579" lon="1.574310">
        <time>2020-08-22T11:47:29Z</time>
      </trkpt>
      <trkpt lat="42.481575" lon="1.574319">
        <time>2020-08-22T11:47:37Z</time>
      </trkpt>
      <trkpt lat="42.481575" lon="1.574319">
        <time>2020-08-22T11:47:37Z</time>
      </trkpt>
      <trkpt lat="42.481567" lon="1.574327">
        <time>2020-08-22T11:47:37Z</time>
      </trkpt>
      <trkpt lat="42.481567" lon="1.574327">
        <time>2020-08-22T11:47:37Z</time>
      </trkpt>
      <trkpt lat="42.481564" lon="1.574334">
        <time>2020-08-22T11:47:37Z</time>
      </trkpt>
      <trkpt lat="42.481564" lon="1.574334">
        <time>2020-08-22T11:47:37Z</time>
      </trkpt>
      <trkpt lat="42.481560" lon="1.574343">
        <time>2020-08-22T11:47:37Z</time>
      </trkpt>
      <trkpt lat="42.481560" lon="1.574343">
        <time>2020-08-22T11:47:37Z</time>
      </trkpt>
      <trkpt lat="42.481556" lon="1.574352">
        <time>2020-08-22T11:47:37Z</time>
      </trkpt>
      <trkpt lat="42.481556" lon="1.574352">
        <time>2020-08-22T11:47:37Z</time>
      </trkpt>
      <trkpt lat="42.481556" lon="1.574361">
        <time>2020-08-22T11:47:37Z</time>
      </trkpt>
      <trkpt lat="42.481556" lon="1.574361">
        <time>2020-08-22T11:47:37Z</time>
      </trkpt>
      <trkpt lat="42.481556" lon="1.574371">
        <time>2020-08-22T11:47:44Z</time>
      </trkpt>
      <trkpt lat="42.481556" lon="1.574371">
        <time>2020-08-22T11:47:44Z</time>
      </trkpt>
      <trkpt lat="42.481556" lon="1.574381">
        <time>2020-08-22T11:47:44Z</time>
      </trkpt>
      <trkpt lat="42.481556" lon="1.574381">
        <time>2020-08-22T11:47:44Z</time>
      </trkpt>
      <trkpt lat="42.481556" lon="1.574391">
        <time>2020-08-22T11:47:44Z</time>
      </trkpt>
      <trkpt lat="42.481556" lon="1.574391">
        <time>2020-08-22T11:47:44Z</time>
      </trkpt>
      <trkpt lat="42.481552" lon="1.574401">
        <time>2020-08-22T11:47:44Z</time>
      </trkpt>
      <trkpt lat="42.481552" lon="1.574401">
        <time>2020-08-22T11:47:44Z</time>
      </trkpt>
      <trkpt lat="42.481552" lon="1.574412">
        <time>2020-08-22T11:47:44Z</time>
      </trkpt>
      <trkpt lat="42.481552" lon="1.574412">
        <time>2020-08-22T11:47:44Z</time>
      </trkpt>
      <trkpt lat="42.481548" lon="1.574423">
        <time>2020-08-22T11:47:44Z</time>
      </trkpt>
      <trkpt lat="42.481548" lon="1.574423">
        <time>2020-08-22T11:47:44Z</time>
      </trkpt>
      <trkpt lat="42.481548" lon="1.574434">
        <time>2020-08-22T11:47:44Z</time>
      </trkpt>
      <trkpt lat="42.481548" lon="1.574434">
        <time>2020-08-22T11:47:44Z</time>
      </trkpt>
      <trkpt lat="42.481544" lon="1.574444">
        <time>2020-08-22T11:47:51Z</time>
      </trkpt>
      <trkpt lat="42.481544" lon="1.574444">
        <time>2020-08-22T11:47:51Z</time>
      </trkpt>
      <trkpt lat="42.481541" lon="1.574454">
        <time>2020-08-22T11:47:51Z</time>
      </trkpt>
      <trkpt lat="42.481541" lon="1.574454">
        <time>2020-08-22T11:47:51Z</time>
      </trkpt>
      <trkpt lat="42.481537" lon="1.574463">
        <time>2020-08-22T11:47:51Z</time>
      </trkpt>
      <trkpt lat="42.481537" lon="1.574463">
        <time>2020-08-22T11:47:51Z</time>
      </trkpt>
      <trkpt lat="42.481537" lon="1.574472">
        <time>2020-08-22T11:47:51Z</time>
      </trkpt>
      <trkpt lat="42.481537" lon="1.574472">
        <time>2020-08-22T11:47:51Z</time>
      </trkpt>
      <trkpt lat="42.481529" lon="1.574481">
        <time>2020-08-22T11:47:51Z</time>
      </trkpt>
      <trkpt lat="42.481529" lon="1.574481">
        <time>2020-08-22T11:47:51Z</time>
      </trkpt>
      <trkpt lat="42.481525" lon="1.574490">
        <time>2020-08-22T11:47:51Z</time>
      </trkpt>
      <trkpt lat="42.481525" lon="1.574490">
        <time>2020-08-22T11:47:51Z</time>
      </trkpt>
      <trkpt lat="42.481518" lon="1.574498">
        <time>2020-08-22T11:47:51Z</time>
      </trkpt>
      <trkpt lat="42.481518" lon="1.574498">
        <time>2020-08-22T11:47:51Z</time>
      </trkpt>
      <trkpt lat="42.481510" lon="1.574507">
        <time>2020-08-22T11:47:58Z</time>
      </trkpt>
      <trkpt lat="42.481510" lon="1.574507">
        <time>2020-08-22T11:47:58Z</time>
      </trkpt>
      <trkpt lat="42.481503" lon="1.574515">
        <time>2020-08-22T11:47:58Z</time>
      </trkpt>
      <trkpt lat="42.481503" lon="1.574515">
        <time>2020-08-22T11:47:58Z</time>
      </trkpt>
      <trkpt lat="42.481495" lon="1.574524">
        <time>2020-08-22T11:47:58Z</time>
      </trkpt>
      <trkpt lat="42.481495" lon="1.574524">
        <time>2020-08-22T11:47:58Z</time>
      </trkpt>
      <trkpt lat="42.481487" lon="1.574539">
        <time>2020-08-22T11:47:58Z</time>
      </trkpt>
      <trkpt lat="42.481487" lon="1.574539">
        <time>2020-08-22T11:47:58Z</time>
      </trkpt>
      <trkpt lat="42.481453" lon="1.574640">
        <time>2020-08-22T11:47:58Z</time>
      </trkpt>
      <trkpt lat="42.481453" lon="1.574640">
        <time>2020-08-22T11:47:58Z</time>
      </trkpt>
      <trkpt lat="42.481453" lon="1.574645">
        <time>2020-08-22T11:47:58Z</time>
      </trkpt>
      <trkpt lat="42.481453" lon="1.574645">
        <time>2020-08-22T11:47:58Z</time>
      </trkpt>
      <trkpt lat="42.481453" lon="1.574649">
        <time>2020-08-22T11:47:58Z</time>
      </trkpt>
      <trkpt lat="42.481453" lon="1.574649">
        <time>2020-08-22T11:47:58Z</time>
      </trkpt>
      <trkpt lat="42.481449" lon="1.574654">
        <time>2020-08-22T11:47:58Z</time>
      </trkpt>
      <trkpt lat="42.481449" lon="1.574654">
        <time>2020-08-22T11:47:58Z</time>
      </trkpt>
      <trkpt lat="42.481449" lon="1.574658">
        <time>2020-08-22T11:47:58Z</time>
      </trkpt>
      <trkpt lat="42.481449" lon="1.574658">
        <time>2020-08-22T11:47:58Z</time>
      </trkpt>
      <trkpt lat="42.481449" lon="1.574663">
        <time>2020-08-22T11:47:58Z</time>
      </trkpt>
      <trkpt lat="42.481449" lon="1.574663">
        <time>2020-08-22T11:47:58Z</time>
      </trkpt>
      <trkpt lat="42.481445" lon="1.574668">
        <time>2020-08-22T11:48:05Z</time>
      </trkpt>
      <trkpt lat="42.481445" lon="1.574668">
        <time>2020-08-22T11:48:05Z</time>
      </trkpt>
      <trkpt lat="42.481445" lon="1.574673">
        <time>2020-08-22T11:48:05Z</time>
      </trkpt>
      <trkpt lat="42.481445" lon="1.574673">
        <time>2020-08-22T11:48:05Z</time>
      </trkpt>
      <trkpt lat="42.481441" lon="1.574679">
        <time>2020-08-22T11:48:05Z</time>
      </trkpt>
      <trkpt lat="42.481441" lon="1.574679">
        <time>2020-08-22T11:48:05Z</time>
      </trkpt>
      <trkpt lat="42.481441" lon="1.574684">
        <time>2020-08-22T11:48:05Z</time>
      </trkpt>
      <trkpt lat="42.481441" lon="1.574684">
        <time>2020-08-22T11:48:05Z</time>
      </trkpt>
      <trkpt lat="42.481434" lon="1.574694">
        <time>2020-08-22T11:48:05Z</time>
      </trkpt>
      <trkpt lat="42.481434" lon="1.574694">
        <time>2020-08-22T11:48:05Z</time>
      </trkpt>
      <trkpt lat="42.481434" lon="1.574704">
        <time>2020-08-22T11:48:05Z</time>
      </trkpt>
      <trkpt lat="42.481434" lon="1.574704">
        <time>2020-08-22T11:48:05Z</time>
      </trkpt>
      <trkpt lat="42.481426" lon="1.574714">
        <time>2020-08-22T11:48:05Z</time>
      </trkpt>
      <trkpt lat="42.481426" lon="1.574714">
        <time>2020-08-22T11:48:05Z</time>
      </trkpt>
      <trkpt lat="42.481422" lon="1.574724">
        <time>2020-08-22T11:48:12Z</time>
      </trkpt>
      <trkpt lat="42.481422" lon="1.574724">
        <time>2020-08-22T11:48:12Z</time>
      </trkpt>
      <trkpt lat="42.481415" lon="1.574735">
        <time>2020-08-22T11:48:12Z</time>
      </trkpt>
      <trkpt lat="42.481415" lon="1.574735">
        <time>2020-08-22T11:48:12Z</time>
      </trkpt>
      <trkpt lat="42.481407" lon="1.574745">
        <time>2020-08-22T11:48:12Z</time>
      </trkpt>
      <trkpt lat="42.481407" lon="1.574745">
        <time>2020-08-22T11:48:12Z</time>
      </trkpt>
      <trkpt lat="42.481403" lon="1.574755">
        <time>2020-08-22T11:48:12Z</time>
      </trkpt>
      <trkpt lat="42.481403" lon="1.574755">
        <time>2020-08-22T11:48:12Z</time>
      </trkpt>
      <trkpt lat="42.481396" lon="1.574765">
        <time>2020-08-22T11:48:12Z</time>
      </trkpt>
      <trkpt lat="42.481396" lon="1.574765">
        <time>2020-08-22T11:48:12Z</time>
      </trkpt>
      <trkpt lat="42.481392" lon="1.574774">
        <time>2020-08-22T11:48:12Z</time>
      </trkpt>
      <trkpt lat="42.481392" lon="1.574774">
        <time>2020-08-22T11:48:12Z</time>
      </trkpt>
      <trkpt lat="42.481388" lon="1.574784">
        <time>2020-08-22T11:48:19Z</time>
      </trkpt>
      <trkpt lat="42.481388" lon="1.574784">
        <time>2020-08-22T11:48:19Z</time>
      </trkpt>
      <trkpt lat="42.481380" lon="1.574795">
        <time>2020-08-22T11:48:19Z</time>
      </trkpt>
      <trkpt lat="42.481380" lon="1.574795">
        <time>2020-08-22T11:48:19Z</time>
      </trkpt>
      <trkpt lat="42.481377" lon="1.574808">
        <time>2020-08-22T11:48:19Z</time>
      </trkpt>
      <trkpt lat="42.481377" lon="1.574808">
        <time>2020-08-22T11:48:19Z</time>
      </trkpt>
      <trkpt lat="42.481369" lon="1.574823">
        <time>2020-08-22T11:48:26Z</time>
      </trkpt>
      <trkpt lat="42.481369" lon="1.574823">
        <time>2020-08-22T11:48:26Z</time>
      </trkpt>
      <trkpt lat="42.481369" lon="1.574839">
        <time>2020-08-22T11:48:26Z</time>
      </trkpt>
      <trkpt lat="42.481369" lon="1.574839">
        <time>2020-08-22T11:48:26Z</time>
      </trkpt>
      <trkpt lat="42.481365" lon="1.574855">
        <time>2020-08-22T11:48:26Z</time>
      </trkpt>
      <trkpt lat="42.481365" lon="1.574855">
        <time>2020-08-22T11:48:26Z</time>
      </trkpt>
      <trkpt lat="42.481361" lon="1.574871">
        <time>2020-08-22T11:48:26Z</time>
      </trkpt>
      <trkpt lat="42.481361" lon="1.574871">
        <time>2020-08-22T11:48:26Z</time>
      </trkpt>
      <trkpt lat="42.481358" lon="1.574886">
        <time>2020-08-22T11:48:26Z</time>
      </trkpt>
      <trkpt lat="42.481358" lon="1.574886">
        <time>2020-08-22T11:48:26Z</time>
      </trkpt>
      <trkpt lat="42.481354" lon="1.574902">
        <time>2020-08-22T11:48:26Z</time>
      </trkpt>
      <trkpt lat="42.481354" lon="1.574902">
        <time>2020-08-22T11:48:26Z</time>
      </trkpt>
      <trkpt lat="42.481350" lon="1.574918">
        <time>2020-08-22T11:48:26Z</time>
      </trkpt>
      <trkpt lat="42.481350" lon="1.574918">
        <time>2020-08-22T11:48:26Z</time>
      </trkpt>
      <trkpt lat="42.481346" lon="1.574933">
        <time>2020-08-22T11:48:33Z</time>
      </trkpt>
      <trkpt lat="42.481346" lon="1.574933">
        <time>2020-08-22T11:48:33Z</time>
      </trkpt>
      <trkpt lat="42.481342" lon="1.574948">
        <time>2020-08-22T11:48:33Z</time>
      </trkpt>
      <trkpt lat="42.481342" lon="1.574948">
        <time>2020-08-22T11:48:33Z</time>
      </trkpt>
      <trkpt lat="42.481342" lon="1.574961">
        <time>2020-08-22T11:48:33Z</time>
      </trkpt>
      <trkpt lat="42.481342" lon="1.574961">
        <time>2020-08-22T11:48:33Z</time>
      </trkpt>
      <trkpt lat="42.481338" lon="1.574972">
        <time>2020-08-22T11:48:33Z</time>
      </trkpt>
      <trkpt lat="42.481338" lon="1.574972">
        <time>2020-08-22T11:48:33Z</time>
      </trkpt>
      <trkpt lat="42.481338" lon="1.574983">
        <time>2020-08-22T11:48:33Z</time>
      </trkpt>
      <trkpt lat="42.481338" lon="1.574983">
        <time>2020-08-22T11:48:33Z</time>
      </trkpt>
      <trkpt lat="42.481335" lon="1.574994">
        <time>2020-08-22T11:48:33Z</time>
      </trkpt>
      <trkpt lat="42.481335" lon="1.574994">
        <time>2020-08-22T11:48:33Z</time>
      </trkpt>
      <trkpt lat="42.481335" lon="1.575006">
        <time>2020-08-22T11:48:33Z</time>
      </trkpt>
      <trkpt lat="42.481335" lon="1.575006">
        <time>2020-08-22T11:48:33Z</time>
      </trkpt>
      <trkpt lat="42.481327" lon="1.575018">
        <time>2020-08-22T11:48:40Z</time>
      </trkpt>
      <trkpt lat="42.481327" lon="1.575018">
        <time>2020-08-22T11:48:40Z</time>
      </trkpt>
      <trkpt lat="42.481327" lon="1.575030">
        <time>2020-08-22T11:48:40Z</time>
      </trkpt>
      <trkpt lat="42.481327" lon="1.575030">
        <time>2020-08-22T11:48:40Z</time>
      </trkpt>
      <trkpt lat="42.481323" lon="1.575043">
        <time>2020-08-22T11:48:40Z</time>
      </trkpt>
      <trkpt lat="42.481323" lon="1.575043">
        <time>2020-08-22T11:48:40Z</time>
      </trkpt>
      <trkpt lat="42.481319" lon="1.575058">
        <time>2020-08-22T11:48:40Z</time>
      </trkpt>
      <trkpt lat="42.481319" lon="1.575058">
        <time>2020-08-22T11:48:40Z</time>
      </trkpt>
      <trkpt lat="42.481316" lon="1.575073">
        <time>2020-08-22T11:48:40Z</time>
      </trkpt>
      <trkpt lat="42.481316" lon="1.575073">
        <time>2020-08-22T11:48:40Z</time>
      </trkpt>
      <trkpt lat="42.481312" lon="1.575087">
        <time>2020-08-22T11:48:40Z</time>
      </trkpt>
      <trkpt lat="42.481312" lon="1.575087">
        <time>2020-08-22T11:48:40Z</time>
      </trkpt>
      <trkpt lat="42.481308" lon="1.575102">
        <time>2020-08-22T11:48:47Z</time>
      </trkpt>
      <trkpt lat="42.481308" lon="1.575102">
        <time>2020-08-22T11:48:47Z</time>
      </trkpt>
      <trkpt lat="42.481300" lon="1.575117">
        <time>2020-08-22T11:48:47Z</time>
      </trkpt>
      <trkpt lat="42.481300" lon="1.575117">
        <time>2020-08-22T11:48:47Z</time>
      </trkpt>
      <trkpt lat="42.481297" lon="1.575132">
        <time>2020-08-22T11:48:47Z</time>
      </trkpt>
      <trkpt lat="42.481297" lon="1.575132">
        <time>2020-08-22T11:48:47Z</time>
      </trkpt>
      <trkpt lat="42.481289" lon="1.575147">
        <time>2020-08-22T11:48:47Z</time>
      </trkpt>
      <trkpt lat="42.481289" lon="1.575147">
        <time>2020-08-22T11:48:47Z</time>
      </trkpt>
      <trkpt lat="42.481285" lon="1.575163">
        <time>2020-08-22T11:48:47Z</time>
      </trkpt>
      <trkpt lat="42.481285" lon="1.575163">
        <time>2020-08-22T11:48:47Z</time>
      </trkpt>
      <trkpt lat="42.481281" lon="1.575180">
        <time>2020-08-22T11:48:47Z</time>
      </trkpt>
      <trkpt lat="42.481281" lon="1.575180">
        <time>2020-08-22T11:48:47Z</time>
      </trkpt>
      <trkpt lat="42.481277" lon="1.575196">
        <time>2020-08-22T11:48:47Z</time>
      </trkpt>
      <trkpt lat="42.481277" lon="1.575196">
        <time>2020-08-22T11:48:47Z</time>
      </trkpt>
      <trkpt lat="42.481274" lon="1.575212">
        <time>2020-08-22T11:48:55Z</time>
      </trkpt>
      <trkpt lat="42.481274" lon="1.575212">
        <time>2020-08-22T11:48:55Z</time>
      </trkpt>
      <trkpt lat="42.481274" lon="1.575228">
        <time>2020-08-22T11:48:55Z</time>
      </trkpt>
      <trkpt lat="42.481274" lon="1.575228">
        <time>2020-08-22T11:48:55Z</time>
      </trkpt>
      <trkpt lat="42.481270" lon="1.575243">
        <time>2020-08-22T11:48:55Z</time>
      </trkpt>
      <trkpt lat="42.481270" lon="1.575243">
        <time>2020-08-22T11:48:55Z</time>
      </trkpt>
      <trkpt lat="42.481270" lon="1.575255">
        <time>2020-08-22T11:48:55Z</time>
      </trkpt>
      <trkpt lat="42.481270" lon="1.575255">
        <time>2020-08-22T11:48:55Z</time>
      </trkpt>
      <trkpt lat="42.481270" lon="1.575264">
        <time>2020-08-22T11:48:55Z</time>
      </trkpt>
      <trkpt lat="42.481270" lon="1.575264">
        <time>2020-08-22T11:48:55Z</time>
      </trkpt>
      <trkpt lat="42.481270" lon="1.575270">
        <time>2020-08-22T11:48:55Z</time>
      </trkpt>
      <trkpt lat="42.481270" lon="1.575270">
        <time>2020-08-22T11:48:55Z</time>
      </trkpt>
      <trkpt lat="42.481270" lon="1.575274">
        <time>2020-08-22T11:49:02Z</time>
      </trkpt>
      <trkpt lat="42.481270" lon="1.575274">
        <time>2020-08-22T11:49:02Z</time>
      </trkpt>
      <trkpt lat="42.481270" lon="1.575274">
        <time>2020-08-22T11:49:02Z</time>
      </trkpt>
      <trkpt lat="42.481270" lon="1.575274">
        <time>2020-08-22T11:49:02Z</time>
      </trkpt>
      <trkpt lat="42.481274" lon="1.575271">
        <time>2020-08-22T11:49:02Z</time>
      </trkpt>
      <trkpt lat="42.481274" lon="1.575271">
        <time>2020-08-22T11:49:02Z</time>
      </trkpt>
      <trkpt lat="42.481274" lon="1.575266">
        <time>2020-08-22T11:49:02Z</time>
      </trkpt>
      <trkpt lat="42.481274" lon="1.575266">
        <time>2020-08-22T11:49:02Z</time>
      </trkpt>
      <trkpt lat="42.481274" lon="1.575259">
        <time>2020-08-22T11:49:02Z</time>
      </trkpt>
      <trkpt lat="42.481274" lon="1.575259">
        <time>2020-08-22T11:49:02Z</time>
      </trkpt>
      <trkpt lat="42.481274" lon="1.575251">
        <time>2020-08-22T11:49:02Z</time>
      </trkpt>
      <trkpt lat="42.481274" lon="1.575251">
        <time>2020-08-22T11:49:02Z</time>
      </trkpt>
      <trkpt lat="42.481274" lon="1.575244">
        <time>2020-08-22T11:49:02Z</time>
      </trkpt>
      <trkpt lat="42.481274" lon="1.575244">
        <time>2020-08-22T11:49:02Z</time>
      </trkpt>
      <trkpt lat="42.481270" lon="1.575240">
        <time>2020-08-22T11:49:02Z</time>
      </trkpt>
      <trkpt lat="42.481270" lon="1.575240">
        <time>2020-08-22T11:49:02Z</time>
      </trkpt>
      <trkpt lat="42.481266" lon="1.575238">
        <time>2020-08-22T11:49:02Z</time>
      </trkpt>
      <trkpt lat="42.481266" lon="1.575238">
        <time>2020-08-22T11:49:02Z</time>
      </trkpt>
      <trkpt lat="42.481266" lon="1.575238">
        <time>2020-08-22T11:49:02Z</time>
      </trkpt>
      <trkpt lat="42.481266" lon="1.575238">
        <time>2020-08-22T11:49:02Z</time>
      </trkpt>
      <trkpt lat="42.481262" lon="1.575240">
        <time>2020-08-22T11:49:09Z</time>
      </trkpt>
      <trkpt lat="42.481262" lon="1.575240">
        <time>2020-08-22T11:49:09Z</time>
      </trkpt>
      <trkpt lat="42.481262" lon="1.575244">
        <time>2020-08-22T11:49:09Z</time>
      </trkpt>
      <trkpt lat="42.481262" lon="1.575244">
        <time>2020-08-22T11:49:09Z</time>
      </trkpt>
      <trkpt lat="42.481262" lon="1.575250">
        <time>2020-08-22T11:49:09Z</time>
      </trkpt>
      <trkpt lat="42.481262" lon="1.575250">
        <time>2020-08-22T11:49:09Z</time>
      </trkpt>
      <trkpt lat="42.481258" lon="1.575258">
        <time>2020-08-22T11:49:09Z</time>
      </trkpt>
      <trkpt lat="42.481258" lon="1.575258">
        <time>2020-08-22T11:49:09Z</time>
      </trkpt>
      <trkpt lat="42.481258" lon="1.575267">
        <time>2020-08-22T11:49:09Z</time>
      </trkpt>
      <trkpt lat="42.481258" lon="1.575267">
        <time>2020-08-22T11:49:09Z</time>
      </trkpt>
      <trkpt lat="42.481262" lon="1.575277">
        <time>2020-08-22T11:49:09Z</time>
      </trkpt>
      <trkpt lat="42.481262" lon="1.575277">
        <time>2020-08-22T11:49:09Z</time>
      </trkpt>
      <trkpt lat="42.481262" lon="1.575286">
        <time>2020-08-22T11:49:09Z</time>
      </trkpt>
      <trkpt lat="42.481262" lon="1.575286">
        <time>2020-08-22T11:49:09Z</time>
      </trkpt>
      <trkpt lat="42.481262" lon="1.575296">
        <time>2020-08-22T11:49:16Z</time>
      </trkpt>
      <trkpt lat="42.481262" lon="1.575296">
        <time>2020-08-22T11:49:16Z</time>
      </trkpt>
      <trkpt lat="42.481266" lon="1.575306">
        <time>2020-08-22T11:49:16Z</time>
      </trkpt>
      <trkpt lat="42.481266" lon="1.575306">
        <time>2020-08-22T11:49:16Z</time>
      </trkpt>
      <trkpt lat="42.481266" lon="1.575315">
        <time>2020-08-22T11:49:16Z</time>
      </trkpt>
      <trkpt lat="42.481266" lon="1.575315">
        <time>2020-08-22T11:49:16Z</time>
      </trkpt>
      <trkpt lat="42.481270" lon="1.575324">
        <time>2020-08-22T11:49:16Z</time>
      </trkpt>
      <trkpt lat="42.481270" lon="1.575324">
        <time>2020-08-22T11:49:16Z</time>
      </trkpt>
      <trkpt lat="42.481270" lon="1.575333">
        <time>2020-08-22T11:49:16Z</time>
      </trkpt>
      <trkpt lat="42.481270" lon="1.575333">
        <time>2020-08-22T11:49:16Z</time>
      </trkpt>
      <trkpt lat="42.481270" lon="1.575341">
        <time>2020-08-22T11:49:16Z</time>
      </trkpt>
      <trkpt lat="42.481270" lon="1.575341">
        <time>2020-08-22T11:49:16Z</time>
      </trkpt>
      <trkpt lat="42.481270" lon="1.575350">
        <time>2020-08-22T11:49:16Z</time>
      </trkpt>
      <trkpt lat="42.481270" lon="1.575350">
        <time>2020-08-22T11:49:16Z</time>
      </trkpt>
      <trkpt lat="42.481270" lon="1.575358">
        <time>2020-08-22T11:49:23Z</time>
      </trkpt>
      <trkpt lat="42.481270" lon="1.575358">
        <time>2020-08-22T11:49:23Z</time>
      </trkpt>
      <trkpt lat="42.481266" lon="1.575366">
        <time>2020-08-22T11:49:23Z</time>
      </trkpt>
      <trkpt lat="42.481266" lon="1.575366">
        <time>2020-08-22T11:49:23Z</time>
      </trkpt>
      <trkpt lat="42.481266" lon="1.575374">
        <time>2020-08-22T11:49:23Z</time>
      </trkpt>
      <trkpt lat="42.481266" lon="1.575374">
        <time>2020-08-22T11:49:23Z</time>
      </trkpt>
      <trkpt lat="42.481262" lon="1.575382">
        <time>2020-08-22T11:49:23Z</time>
      </trkpt>
      <trkpt lat="42.481262" lon="1.575382">
        <time>2020-08-22T11:49:23Z</time>
      </trkpt>
      <trkpt lat="42.481262" lon="1.575390">
        <time>2020-08-22T11:49:23Z</time>
      </trkpt>
      <trkpt lat="42.481262" lon="1.575390">
        <time>2020-08-22T11:49:23Z</time>
      </trkpt>
      <trkpt lat="42.481262" lon="1.575399">
        <time>2020-08-22T11:49:23Z</time>
      </trkpt>
      <trkpt lat="42.481262" lon="1.575399">
        <time>2020-08-22T11:49:23Z</time>
      </trkpt>
      <trkpt lat="42.481262" lon="1.575409">
        <time>2020-08-22T11:49:23Z</time>
      </trkpt>
      <trkpt lat="42.481262" lon="1.575409">
        <time>2020-08-22T11:49:23Z</time>
      </trkpt>
      <trkpt lat="42.481258" lon="1.575419">
        <time>2020-08-22T11:49:30Z</time>
      </trkpt>
      <trkpt lat="42.481258" lon="1.575419">
        <time>2020-08-22T11:49:30Z</time>
      </trkpt>
      <trkpt lat="42.481255" lon="1.575429">
        <time>2020-08-22T11:49:30Z</time>
      </trkpt>
      <trkpt lat="42.481255" lon="1.575429">
        <time>2020-08-22T11:49:30Z</time>
      </trkpt>
      <trkpt lat="42.481255" lon="1.575439">
        <time>2020-08-22T11:49:30Z</time>
      </trkpt>
      <trkpt lat="42.481255" lon="1.575439">
        <time>2020-08-22T11:49:30Z</time>
      </trkpt>
      <trkpt lat="42.481251" lon="1.575450">
        <time>2020-08-22T11:49:30Z</time>
      </trkpt>
      <trkpt lat="42.481251" lon="1.575450">
        <time>2020-08-22T11:49:30Z</time>
      </trkpt>
      <trkpt lat="42.481239" lon="1.575475">
        <time>2020-08-22T11:49:37Z</time>
      </trkpt>
      <trkpt lat="42.481239" lon="1.575475">
        <time>2020-08-22T11:49:37Z</time>
      </trkpt>
      <trkpt lat="42.481228" lon="1.575499">
        <time>2020-08-22T11:49:37Z</time>
      </trkpt>
      <trkpt lat="42.481228" lon="1.575499">
        <time>2020-08-22T11:49:37Z</time>
      </trkpt>
      <trkpt lat="42.481220" lon="1.575522">
        <time>2020-08-22T11:49:37Z</time>
      </trkpt>
      <trkpt lat="42.481220" lon="1.575522">
        <time>2020-08-22T11:49:37Z</time>
      </trkpt>
      <trkpt lat="42.481209" lon="1.575544">
        <time>2020-08-22T11:49:37Z</time>
      </trkpt>
      <trkpt lat="42.481209" lon="1.575544">
        <time>2020-08-22T11:49:37Z</time>
      </trkpt>
      <trkpt lat="42.481194" lon="1.575566">
        <time>2020-08-22T11:49:37Z</time>
      </trkpt>
      <trkpt lat="42.481194" lon="1.575566">
        <time>2020-08-22T11:49:37Z</time>
      </trkpt>
      <trkpt lat="42.481182" lon="1.575587">
        <time>2020-08-22T11:49:37Z</time>
      </trkpt>
      <trkpt lat="42.481182" lon="1.575587">
        <time>2020-08-22T11:49:37Z</time>
      </trkpt>
      <trkpt lat="42.481174" lon="1.575608">
        <time>2020-08-22T11:49:37Z</time>
      </trkpt>
      <trkpt lat="42.481174" lon="1.575608">
        <time>2020-08-22T11:49:37Z</time>
      </trkpt>
      <trkpt lat="42.481159" lon="1.575629">
        <time>2020-08-22T11:49:44Z</time>
      </trkpt>
      <trkpt lat="42.481159" lon="1.575629">
        <time>2020-08-22T11:49:44Z</time>
      </trkpt>
      <trkpt lat="42.481152" lon="1.575651">
        <time>2020-08-22T11:49:44Z</time>
      </trkpt>
      <trkpt lat="42.481152" lon="1.575651">
        <time>2020-08-22T11:49:44Z</time>
      </trkpt>
      <trkpt lat="42.481140" lon="1.575672">
        <time>2020-08-22T11:49:44Z</time>
      </trkpt>
      <trkpt lat="42.481140" lon="1.575672">
        <time>2020-08-22T11:49:44Z</time>
      </trkpt>
      <trkpt lat="42.481136" lon="1.575682">
        <time>2020-08-22T11:49:44Z</time>
      </trkpt>
      <trkpt lat="42.481136" lon="1.575682">
        <time>2020-08-22T11:49:44Z</time>
      </trkpt>
      <trkpt lat="42.481106" lon="1.575746">
        <time>2020-08-22T11:50:25Z</time>
      </trkpt>
      <trkpt lat="42.481106" lon="1.575746">
        <time>2020-08-22T11:50:25Z</time>
      </trkpt>
      <trkpt lat="42.481106" lon="1.575742">
        <time>2020-08-22T11:50:25Z</time>
      </trkpt>
      <trkpt lat="42.481106" lon="1.575742">
        <time>2020-08-22T11:50:25Z</time>
      </trkpt>
      <trkpt lat="42.481106" lon="1.575740">
        <time>2020-08-22T11:50:25Z</time>
      </trkpt>
      <trkpt lat="42.481106" lon="1.575740">
        <time>2020-08-22T11:50:25Z</time>
      </trkpt>
      <trkpt lat="42.481106" lon="1.575735">
        <time>2020-08-22T11:50:25Z</time>
      </trkpt>
      <trkpt lat="42.481106" lon="1.575735">
        <time>2020-08-22T11:50:25Z</time>
      </trkpt>
      <trkpt lat="42.481110" lon="1.575729">
        <time>2020-08-22T11:50:25Z</time>
      </trkpt>
      <trkpt lat="42.481110" lon="1.575729">
        <time>2020-08-22T11:50:25Z</time>
      </trkpt>
      <trkpt lat="42.481110" lon="1.575726">
        <time>2020-08-22T11:50:25Z</time>
      </trkpt>
      <trkpt lat="42.481110" lon="1.575726">
        <time>2020-08-22T11:50:25Z</time>
      </trkpt>
      <trkpt lat="42.481113" lon="1.575724">
        <time>2020-08-22T11:50:25Z</time>
      </trkpt>
      <trkpt lat="42.481113" lon="1.575724">
        <time>2020-08-22T11:50:25Z</time>
      </trkpt>
      <trkpt lat="42.481113" lon="1.575722">
        <time>2020-08-22T11:50:25Z</time>
      </trkpt>
      <trkpt lat="42.481113" lon="1.575722">
        <time>2020-08-22T11:50:25Z</time>
      </trkpt>
      <trkpt lat="42.481113" lon="1.575721">
        <time>2020-08-22T11:50:25Z</time>
      </trkpt>
      <trkpt lat="42.481113" lon="1.575721">
        <time>2020-08-22T11:50:25Z</time>
      </trkpt>
      <trkpt lat="42.481117" lon="1.575721">
        <time>2020-08-22T11:50:25Z</time>
      </trkpt>
      <trkpt lat="42.481117" lon="1.575721">
        <time>2020-08-22T11:50:25Z</time>
      </trkpt>
      <trkpt lat="42.481121" lon="1.575719">
        <time>2020-08-22T11:50:25Z</time>
      </trkpt>
      <trkpt lat="42.481121" lon="1.575719">
        <time>2020-08-22T11:50:25Z</time>
      </trkpt>
      <trkpt lat="42.481121" lon="1.575717">
        <time>2020-08-22T11:50:25Z</time>
      </trkpt>
      <trkpt lat="42.481121" lon="1.575717">
        <time>2020-08-22T11:50:25Z</time>
      </trkpt>
      <trkpt lat="42.481121" lon="1.575715">
        <time>2020-08-22T11:50:32Z</time>
      </trkpt>
      <trkpt lat="42.481121" lon="1.575715">
        <time>2020-08-22T11:50:32Z</time>
      </trkpt>
      <trkpt lat="42.481121" lon="1.575714">
        <time>2020-08-22T11:50:32Z</time>
      </trkpt>
      <trkpt lat="42.481121" lon="1.575714">
        <time>2020-08-22T11:50:32Z</time>
      </trkpt>
      <trkpt lat="42.481117" lon="1.575714">
        <time>2020-08-22T11:50:32Z</time>
      </trkpt>
      <trkpt lat="42.481117" lon="1.575714">
        <time>2020-08-22T11:50:32Z</time>
      </trkpt>
      <trkpt lat="42.481113" lon="1.575714">
        <time>2020-08-22T11:50:32Z</time>
      </trkpt>
      <trkpt lat="42.481113" lon="1.575714">
        <time>2020-08-22T11:50:32Z</time>
      </trkpt>
      <trkpt lat="42.481110" lon="1.575714">
        <time>2020-08-22T11:50:32Z</time>
      </trkpt>
      <trkpt lat="42.481110" lon="1.575714">
        <time>2020-08-22T11:50:32Z</time>
      </trkpt>
      <trkpt lat="42.481102" lon="1.575714">
        <time>2020-08-22T11:50:32Z</time>
      </trkpt>
      <trkpt lat="42.481102" lon="1.575714">
        <time>2020-08-22T11:50:32Z</time>
      </trkpt>
      <trkpt lat="42.481091" lon="1.575714">
        <time>2020-08-22T11:50:32Z</time>
      </trkpt>
      <trkpt lat="42.481091" lon="1.575714">
        <time>2020-08-22T11:50:32Z</time>
      </trkpt>
      <trkpt lat="42.481079" lon="1.575713">
        <time>2020-08-22T11:50:39Z</time>
      </trkpt>
      <trkpt lat="42.481079" lon="1.575713">
        <time>2020-08-22T11:50:39Z</time>
      </trkpt>
      <trkpt lat="42.481068" lon="1.575711">
        <time>2020-08-22T11:50:39Z</time>
      </trkpt>
      <trkpt lat="42.481068" lon="1.575711">
        <time>2020-08-22T11:50:39Z</time>
      </trkpt>
      <trkpt lat="42.481060" lon="1.575710">
        <time>2020-08-22T11:50:39Z</time>
      </trkpt>
      <trkpt lat="42.481060" lon="1.575710">
        <time>2020-08-22T11:50:39Z</time>
      </trkpt>
      <trkpt lat="42.481045" lon="1.575709">
        <time>2020-08-22T11:50:39Z</time>
      </trkpt>
      <trkpt lat="42.481045" lon="1.575709">
        <time>2020-08-22T11:50:39Z</time>
      </trkpt>
      <trkpt lat="42.481033" lon="1.575707">
        <time>2020-08-22T11:50:39Z</time>
      </trkpt>
      <trkpt lat="42.481033" lon="1.575707">
        <time>2020-08-22T11:50:39Z</time>
      </trkpt>
      <trkpt lat="42.481026" lon="1.575706">
        <time>2020-08-22T11:50:39Z</time>
      </trkpt>
      <trkpt lat="42.481026" lon="1.575706">
        <time>2020-08-22T11:50:39Z</time>
      </trkpt>
      <trkpt lat="42.481014" lon="1.575706">
        <time>2020-08-22T11:50:39Z</time>
      </trkpt>
      <trkpt lat="42.481014" lon="1.575706">
        <time>2020-08-22T11:50:39Z</time>
      </trkpt>
      <trkpt lat="42.481003" lon="1.575707">
        <time>2020-08-22T11:50:46Z</time>
      </trkpt>
      <trkpt lat="42.481003" lon="1.575707">
        <time>2020-08-22T11:50:46Z</time>
      </trkpt>
      <trkpt lat="42.480991" lon="1.575708">
        <time>2020-08-22T11:50:46Z</time>
      </trkpt>
      <trkpt lat="42.480991" lon="1.575708">
        <time>2020-08-22T11:50:46Z</time>
      </trkpt>
      <trkpt lat="42.480980" lon="1.575711">
        <time>2020-08-22T11:50:46Z</time>
      </trkpt>
      <trkpt lat="42.480980" lon="1.575711">
        <time>2020-08-22T11:50:46Z</time>
      </trkpt>
      <trkpt lat="42.480968" lon="1.575715">
        <time>2020-08-22T11:50:46Z</time>
      </trkpt>
      <trkpt lat="42.480968" lon="1.575715">
        <time>2020-08-22T11:50:46Z</time>
      </trkpt>
      <trkpt lat="42.480953" lon="1.575720">
        <time>2020-08-22T11:50:46Z</time>
      </trkpt>
      <trkpt lat="42.480953" lon="1.575720">
        <time>2020-08-22T11:50:46Z</time>
      </trkpt>
      <trkpt lat="42.480934" lon="1.575727">
        <time>2020-08-22T11:50:46Z</time>
      </trkpt>
      <trkpt lat="42.480934" lon="1.575727">
        <time>2020-08-22T11:50:46Z</time>
      </trkpt>
      <trkpt lat="42.480919" lon="1.575735">
        <time>2020-08-22T11:50:46Z</time>
      </trkpt>
      <trkpt lat="42.480919" lon="1.575735">
        <time>2020-08-22T11:50:46Z</time>
      </trkpt>
      <trkpt lat="42.480900" lon="1.575744">
        <time>2020-08-22T11:50:53Z</time>
      </trkpt>
      <trkpt lat="42.480900" lon="1.575744">
        <time>2020-08-22T11:50:53Z</time>
      </trkpt>
      <trkpt lat="42.480885" lon="1.575755">
        <time>2020-08-22T11:50:53Z</time>
      </trkpt>
      <trkpt lat="42.480885" lon="1.575755">
        <time>2020-08-22T11:50:53Z</time>
      </trkpt>
      <trkpt lat="42.480865" lon="1.575765">
        <time>2020-08-22T11:50:53Z</time>
      </trkpt>
      <trkpt lat="42.480865" lon="1.575765">
        <time>2020-08-22T11:50:53Z</time>
      </trkpt>
      <trkpt lat="42.480854" lon="1.575776">
        <time>2020-08-22T11:50:53Z</time>
      </trkpt>
      <trkpt lat="42.480854" lon="1.575776">
        <time>2020-08-22T11:50:53Z</time>
      </trkpt>
      <trkpt lat="42.480839" lon="1.575787">
        <time>2020-08-22T11:50:53Z</time>
      </trkpt>
      <trkpt lat="42.480839" lon="1.575787">
        <time>2020-08-22T11:50:53Z</time>
      </trkpt>
      <trkpt lat="42.480831" lon="1.575797">
        <time>2020-08-22T11:50:53Z</time>
      </trkpt>
      <trkpt lat="42.480831" lon="1.575797">
        <time>2020-08-22T11:50:53Z</time>
      </trkpt>
      <trkpt lat="42.480820" lon="1.575807">
        <time>2020-08-22T11:51:02Z</time>
      </trkpt>
      <trkpt lat="42.480820" lon="1.575807">
        <time>2020-08-22T11:51:02Z</time>
      </trkpt>
      <trkpt lat="42.480820" lon="1.575825">
        <time>2020-08-22T11:51:02Z</time>
      </trkpt>
      <trkpt lat="42.480820" lon="1.575825">
        <time>2020-08-22T11:51:02Z</time>
      </trkpt>
      <trkpt lat="42.480816" lon="1.575843">
        <time>2020-08-22T11:51:02Z</time>
      </trkpt>
      <trkpt lat="42.480816" lon="1.575843">
        <time>2020-08-22T11:51:02Z</time>
      </trkpt>
      <trkpt lat="42.480812" lon="1.575862">
        <time>2020-08-22T11:51:02Z</time>
      </trkpt>
      <trkpt lat="42.480812" lon="1.575862">
        <time>2020-08-22T11:51:02Z</time>
      </trkpt>
      <trkpt lat="42.480812" lon="1.575880">
        <time>2020-08-22T11:51:02Z</time>
      </trkpt>
      <trkpt lat="42.480812" lon="1.575880">
        <time>2020-08-22T11:51:02Z</time>
      </trkpt>
      <trkpt lat="42.480812" lon="1.575898">
        <time>2020-08-22T11:51:02Z</time>
      </trkpt>
      <trkpt lat="42.480812" lon="1.575898">
        <time>2020-08-22T11:51:02Z</time>
      </trkpt>
      <trkpt lat="42.480812" lon="1.575917">
        <time>2020-08-22T11:51:02Z</time>
      </trkpt>
      <trkpt lat="42.480812" lon="1.575917">
        <time>2020-08-22T11:51:02Z</time>
      </trkpt>
      <trkpt lat="42.480804" lon="1.575936">
        <time>2020-08-22T11:51:09Z</time>
      </trkpt>
      <trkpt lat="42.480804" lon="1.575936">
        <time>2020-08-22T11:51:09Z</time>
      </trkpt>
      <trkpt lat="42.480804" lon="1.575954">
        <time>2020-08-22T11:51:09Z</time>
      </trkpt>
      <trkpt lat="42.480804" lon="1.575954">
        <time>2020-08-22T11:51:09Z</time>
      </trkpt>
      <trkpt lat="42.480801" lon="1.575973">
        <time>2020-08-22T11:51:09Z</time>
      </trkpt>
      <trkpt lat="42.480801" lon="1.575973">
        <time>2020-08-22T11:51:09Z</time>
      </trkpt>
      <trkpt lat="42.480793" lon="1.575993">
        <time>2020-08-22T11:51:09Z</time>
      </trkpt>
      <trkpt lat="42.480793" lon="1.575993">
        <time>2020-08-22T11:51:09Z</time>
      </trkpt>
      <trkpt lat="42.480789" lon="1.576009">
        <time>2020-08-22T11:51:09Z</time>
      </trkpt>
      <trkpt lat="42.480789" lon="1.576009">
        <time>2020-08-22T11:51:09Z</time>
      </trkpt>
      <trkpt lat="42.480785" lon="1.576025">
        <time>2020-08-22T11:51:09Z</time>
      </trkpt>
      <trkpt lat="42.480785" lon="1.576025">
        <time>2020-08-22T11:51:09Z</time>
      </trkpt>
      <trkpt lat="42.480778" lon="1.576039">
        <time>2020-08-22T11:51:16Z</time>
      </trkpt>
      <trkpt lat="42.480778" lon="1.576039">
        <time>2020-08-22T11:51:16Z</time>
      </trkpt>
      <trkpt lat="42.480774" lon="1.576052">
        <time>2020-08-22T11:51:16Z</time>
      </trkpt>
      <trkpt lat="42.480774" lon="1.576052">
        <time>2020-08-22T11:51:16Z</time>
      </trkpt>
      <trkpt lat="42.480766" lon="1.576065">
        <time>2020-08-22T11:51:16Z</time>
      </trkpt>
      <trkpt lat="42.480766" lon="1.576065">
        <time>2020-08-22T11:51:16Z</time>
      </trkpt>
      <trkpt lat="42.480766" lon="1.576079">
        <time>2020-08-22T11:51:16Z</time>
      </trkpt>
      <trkpt lat="42.480766" lon="1.576079">
        <time>2020-08-22T11:51:16Z</time>
      </trkpt>
      <trkpt lat="42.480759" lon="1.576092">
        <time>2020-08-22T11:51:16Z</time>
      </trkpt>
      <trkpt lat="42.480759" lon="1.576092">
        <time>2020-08-22T11:51:16Z</time>
      </trkpt>
      <trkpt lat="42.480759" lon="1.576105">
        <time>2020-08-22T11:51:23Z</time>
      </trkpt>
      <trkpt lat="42.480759" lon="1.576105">
        <time>2020-08-22T11:51:23Z</time>
      </trkpt>
      <trkpt lat="42.480751" lon="1.576118">
        <time>2020-08-22T11:51:23Z</time>
      </trkpt>
      <trkpt lat="42.480751" lon="1.576118">
        <time>2020-08-22T11:51:23Z</time>
      </trkpt>
      <trkpt lat="42.480751" lon="1.576132">
        <time>2020-08-22T11:51:23Z</time>
      </trkpt>
      <trkpt lat="42.480751" lon="1.576132">
        <time>2020-08-22T11:51:23Z</time>
      </trkpt>
      <trkpt lat="42.480747" lon="1.576140">
        <time>2020-08-22T11:51:23Z</time>
      </trkpt>
      <trkpt lat="42.480747" lon="1.576140">
        <time>2020-08-22T11:51:23Z</time>
      </trkpt>
      <trkpt lat="42.480743" lon="1.576150">
        <time>2020-08-22T11:51:23Z</time>
      </trkpt>
      <trkpt lat="42.480743" lon="1.576150">
        <time>2020-08-22T11:51:23Z</time>
      </trkpt>
      <trkpt lat="42.480740" lon="1.576161">
        <time>2020-08-22T11:51:23Z</time>
      </trkpt>
      <trkpt lat="42.480740" lon="1.576161">
        <time>2020-08-22T11:51:23Z</time>
      </trkpt>
      <trkpt lat="42.480740" lon="1.576172">
        <time>2020-08-22T11:51:23Z</time>
      </trkpt>
      <trkpt lat="42.480740" lon="1.576172">
        <time>2020-08-22T11:51:23Z</time>
      </trkpt>
      <trkpt lat="42.480740" lon="1.576184">
        <time>2020-08-22T11:51:30Z</time>
      </trkpt>
      <trkpt lat="42.480740" lon="1.576184">
        <time>2020-08-22T11:51:30Z</time>
      </trkpt>
      <trkpt lat="42.480736" lon="1.576197">
        <time>2020-08-22T11:51:30Z</time>
      </trkpt>
      <trkpt lat="42.480736" lon="1.576197">
        <time>2020-08-22T11:51:30Z</time>
      </trkpt>
      <trkpt lat="42.480732" lon="1.576210">
        <time>2020-08-22T11:51:30Z</time>
      </trkpt>
      <trkpt lat="42.480732" lon="1.576210">
        <time>2020-08-22T11:51:30Z</time>
      </trkpt>
      <trkpt lat="42.480732" lon="1.576223">
        <time>2020-08-22T11:51:30Z</time>
      </trkpt>
      <trkpt lat="42.480732" lon="1.576223">
        <time>2020-08-22T11:51:30Z</time>
      </trkpt>
      <trkpt lat="42.480732" lon="1.576236">
        <time>2020-08-22T11:51:30Z</time>
      </trkpt>
      <trkpt lat="42.480732" lon="1.576236">
        <time>2020-08-22T11:51:30Z</time>
      </trkpt>
      <trkpt lat="42.480728" lon="1.576250">
        <time>2020-08-22T11:51:30Z</time>
      </trkpt>
      <trkpt lat="42.480728" lon="1.576250">
        <time>2020-08-22T11:51:30Z</time>
      </trkpt>
      <trkpt lat="42.480724" lon="1.576264">
        <time>2020-08-22T11:51:30Z</time>
      </trkpt>
      <trkpt lat="42.480724" lon="1.576264">
        <time>2020-08-22T11:51:30Z</time>
      </trkpt>
      <trkpt lat="42.480724" lon="1.576279">
        <time>2020-08-22T11:51:37Z</time>
      </trkpt>
      <trkpt lat="42.480724" lon="1.576279">
        <time>2020-08-22T11:51:37Z</time>
      </trkpt>
      <trkpt lat="42.480724" lon="1.576294">
        <time>2020-08-22T11:51:37Z</time>
      </trkpt>
      <trkpt lat="42.480724" lon="1.576294">
        <time>2020-08-22T11:51:37Z</time>
      </trkpt>
      <trkpt lat="42.480724" lon="1.576309">
        <time>2020-08-22T11:51:37Z</time>
      </trkpt>
      <trkpt lat="42.480724" lon="1.576309">
        <time>2020-08-22T11:51:37Z</time>
      </trkpt>
      <trkpt lat="42.480724" lon="1.576325">
        <time>2020-08-22T11:51:37Z</time>
      </trkpt>
      <trkpt lat="42.480724" lon="1.576325">
        <time>2020-08-22T11:51:37Z</time>
      </trkpt>
      <trkpt lat="42.480724" lon="1.576340">
        <time>2020-08-22T11:51:37Z</time>
      </trkpt>
      <trkpt lat="42.480724" lon="1.576340">
        <time>2020-08-22T11:51:37Z</time>
      </trkpt>
      <trkpt lat="42.480728" lon="1.576356">
        <time>2020-08-22T11:51:37Z</time>
      </trkpt>
      <trkpt lat="42.480728" lon="1.576356">
        <time>2020-08-22T11:51:37Z</time>
      </trkpt>
      <trkpt lat="42.480728" lon="1.576371">
        <time>2020-08-22T11:51:37Z</time>
      </trkpt>
      <trkpt lat="42.480728" lon="1.576371">
        <time>2020-08-22T11:51:37Z</time>
      </trkpt>
      <trkpt lat="42.480732" lon="1.576387">
        <time>2020-08-22T11:51:44Z</time>
      </trkpt>
      <trkpt lat="42.480732" lon="1.576387">
        <time>2020-08-22T11:51:44Z</time>
      </trkpt>
      <trkpt lat="42.480732" lon="1.576402">
        <time>2020-08-22T11:51:44Z</time>
      </trkpt>
      <trkpt lat="42.480732" lon="1.576402">
        <time>2020-08-22T11:51:44Z</time>
      </trkpt>
      <trkpt lat="42.480732" lon="1.576418">
        <time>2020-08-22T11:51:44Z</time>
      </trkpt>
      <trkpt lat="42.480732" lon="1.576418">
        <time>2020-08-22T11:51:44Z</time>
      </trkpt>
      <trkpt lat="42.480736" lon="1.576433">
        <time>2020-08-22T11:51:44Z</time>
      </trkpt>
      <trkpt lat="42.480736" lon="1.576433">
        <time>2020-08-22T11:51:44Z</time>
      </trkpt>
      <trkpt lat="42.480736" lon="1.576449">
        <time>2020-08-22T11:51:44Z</time>
      </trkpt>
      <trkpt lat="42.480736" lon="1.576449">
        <time>2020-08-22T11:51:44Z</time>
      </trkpt>
      <trkpt lat="42.480736" lon="1.576465">
        <time>2020-08-22T11:51:44Z</time>
      </trkpt>
      <trkpt lat="42.480736" lon="1.576465">
        <time>2020-08-22T11:51:44Z</time>
      </trkpt>
      <trkpt lat="42.480740" lon="1.576481">
        <time>2020-08-22T11:51:44Z</time>
      </trkpt>
      <trkpt lat="42.480740" lon="1.576481">
        <time>2020-08-22T11:51:44Z</time>
      </trkpt>
      <trkpt lat="42.480740" lon="1.576497">
        <time>2020-08-22T11:51:51Z</time>
      </trkpt>
      <trkpt lat="42.480740" lon="1.576497">
        <time>2020-08-22T11:51:51Z</time>
      </trkpt>
      <trkpt lat="42.480743" lon="1.576514">
        <time>2020-08-22T11:51:51Z</time>
      </trkpt>
      <trkpt lat="42.480743" lon="1.576514">
        <time>2020-08-22T11:51:51Z</time>
      </trkpt>
      <trkpt lat="42.480747" lon="1.576532">
        <time>2020-08-22T11:51:51Z</time>
      </trkpt>
      <trkpt lat="42.480747" lon="1.576532">
        <time>2020-08-22T11:51:51Z</time>
      </trkpt>
      <trkpt lat="42.480747" lon="1.576550">
        <time>2020-08-22T11:51:51Z</time>
      </trkpt>
      <trkpt lat="42.480747" lon="1.576550">
        <time>2020-08-22T11:51:51Z</time>
      </trkpt>
      <trkpt lat="42.480747" lon="1.576567">
        <time>2020-08-22T11:51:51Z</time>
      </trkpt>
      <trkpt lat="42.480747" lon="1.576567">
        <time>2020-08-22T11:51:51Z</time>
      </trkpt>
      <trkpt lat="42.480747" lon="1.576585">
        <time>2020-08-22T11:51:58Z</time>
      </trkpt>
      <trkpt lat="42.480747" lon="1.576585">
        <time>2020-08-22T11:51:58Z</time>
      </trkpt>
      <trkpt lat="42.480747" lon="1.576602">
        <time>2020-08-22T11:51:58Z</time>
      </trkpt>
      <trkpt lat="42.480747" lon="1.576602">
        <time>2020-08-22T11:51:58Z</time>
      </trkpt>
      <trkpt lat="42.480747" lon="1.576619">
        <time>2020-08-22T11:51:58Z</time>
      </trkpt>
      <trkpt lat="42.480747" lon="1.576619">
        <time>2020-08-22T11:51:58Z</time>
      </trkpt>
      <trkpt lat="42.480743" lon="1.576636">
        <time>2020-08-22T11:51:58Z</time>
      </trkpt>
      <trkpt lat="42.480743" lon="1.576636">
        <time>2020-08-22T11:51:58Z</time>
      </trkpt>
      <trkpt lat="42.480740" lon="1.576653">
        <time>2020-08-22T11:51:58Z</time>
      </trkpt>
      <trkpt lat="42.480740" lon="1.576653">
        <time>2020-08-22T11:51:58Z</time>
      </trkpt>
      <trkpt lat="42.480732" lon="1.576670">
        <time>2020-08-22T11:51:58Z</time>
      </trkpt>
      <trkpt lat="42.480732" lon="1.576670">
        <time>2020-08-22T11:51:58Z</time>
      </trkpt>
      <trkpt lat="42.480724" lon="1.576687">
        <time>2020-08-22T11:51:58Z</time>
      </trkpt>
      <trkpt lat="42.480724" lon="1.576687">
        <time>2020-08-22T11:51:58Z</time>
      </trkpt>
      <trkpt lat="42.480717" lon="1.576702">
        <time>2020-08-22T11:52:05Z</time>
      </trkpt>
      <trkpt lat="42.480717" lon="1.576702">
        <time>2020-08-22T11:52:05Z</time>
      </trkpt>
      <trkpt lat="42.480705" lon="1.576718">
        <time>2020-08-22T11:52:05Z</time>
      </trkpt>
      <trkpt lat="42.480705" lon="1.576718">
        <time>2020-08-22T11:52:05Z</time>
      </trkpt>
      <trkpt lat="42.480698" lon="1.576732">
        <time>2020-08-22T11:52:05Z</time>
      </trkpt>
      <trkpt lat="42.480698" lon="1.576732">
        <time>2020-08-22T11:52:05Z</time>
      </trkpt>
      <trkpt lat="42.480686" lon="1.576746">
        <time>2020-08-22T11:52:05Z</time>
      </trkpt>
      <trkpt lat="42.480686" lon="1.576746">
        <time>2020-08-22T11:52:05Z</time>
      </trkpt>
      <trkpt lat="42.480675" lon="1.576758">
        <time>2020-08-22T11:52:05Z</time>
      </trkpt>
      <trkpt lat="42.480675" lon="1.576758">
        <time>2020-08-22T11:52:05Z</time>
      </trkpt>
      <trkpt lat="42.480663" lon="1.576770">
        <time>2020-08-22T11:52:05Z</time>
      </trkpt>
      <trkpt lat="42.480663" lon="1.576770">
        <time>2020-08-22T11:52:05Z</time>
      </trkpt>
      <trkpt lat="42.480652" lon="1.576780">
        <time>2020-08-22T11:52:05Z</time>
      </trkpt>
      <trkpt lat="42.480652" lon="1.576780">
        <time>2020-08-22T11:52:05Z</time>
      </trkpt>
      <trkpt lat="42.480633" lon="1.576790">
        <time>2020-08-22T11:52:12Z</time>
      </trkpt>
      <trkpt lat="42.480633" lon="1.576790">
        <time>2020-08-22T11:52:12Z</time>
      </trkpt>
      <trkpt lat="42.480621" lon="1.576799">
        <time>2020-08-22T11:52:12Z</time>
      </trkpt>
      <trkpt lat="42.480621" lon="1.576799">
        <time>2020-08-22T11:52:12Z</time>
      </trkpt>
      <trkpt lat="42.480610" lon="1.576807">
        <time>2020-08-22T11:52:12Z</time>
      </trkpt>
      <trkpt lat="42.480610" lon="1.576807">
        <time>2020-08-22T11:52:12Z</time>
      </trkpt>
      <trkpt lat="42.480595" lon="1.576814">
        <time>2020-08-22T11:52:12Z</time>
      </trkpt>
      <trkpt lat="42.480595" lon="1.576814">
        <time>2020-08-22T11:52:12Z</time>
      </trkpt>
      <trkpt lat="42.480583" lon="1.576821">
        <time>2020-08-22T11:52:12Z</time>
      </trkpt>
      <trkpt lat="42.480583" lon="1.576821">
        <time>2020-08-22T11:52:12Z</time>
      </trkpt>
      <trkpt lat="42.480568" lon="1.576827">
        <time>2020-08-22T11:52:12Z</time>
      </trkpt>
      <trkpt lat="42.480568" lon="1.576827">
        <time>2020-08-22T11:52:12Z</time>
      </trkpt>
      <trkpt lat="42.480556" lon="1.576833">
        <time>2020-08-22T11:52:12Z</time>
      </trkpt>
      <trkpt lat="42.480556" lon="1.576833">
        <time>2020-08-22T11:52:12Z</time>
      </trkpt>
      <trkpt lat="42.480541" lon="1.576840">
        <time>2020-08-22T11:52:19Z</time>
      </trkpt>
      <trkpt lat="42.480541" lon="1.576840">
        <time>2020-08-22T11:52:19Z</time>
      </trkpt>
      <trkpt lat="42.480530" lon="1.576848">
        <time>2020-08-22T11:52:19Z</time>
      </trkpt>
      <trkpt lat="42.480530" lon="1.576848">
        <time>2020-08-22T11:52:19Z</time>
      </trkpt>
      <trkpt lat="42.480518" lon="1.576855">
        <time>2020-08-22T11:52:19Z</time>
      </trkpt>
      <trkpt lat="42.480518" lon="1.576855">
        <time>2020-08-22T11:52:19Z</time>
      </trkpt>
      <trkpt lat="42.480507" lon="1.576863">
        <time>2020-08-22T11:52:19Z</time>
      </trkpt>
      <trkpt lat="42.480507" lon="1.576863">
        <time>2020-08-22T11:52:19Z</time>
      </trkpt>
      <trkpt lat="42.480499" lon="1.576871">
        <time>2020-08-22T11:52:19Z</time>
      </trkpt>
      <trkpt lat="42.480499" lon="1.576871">
        <time>2020-08-22T11:52:19Z</time>
      </trkpt>
      <trkpt lat="42.480488" lon="1.576879">
        <time>2020-08-22T11:52:19Z</time>
      </trkpt>
      <trkpt lat="42.480488" lon="1.576879">
        <time>2020-08-22T11:52:19Z</time>
      </trkpt>
      <trkpt lat="42.480480" lon="1.576887">
        <time>2020-08-22T11:52:19Z</time>
      </trkpt>
      <trkpt lat="42.480480" lon="1.576887">
        <time>2020-08-22T11:52:19Z</time>
      </trkpt>
      <trkpt lat="42.480469" lon="1.576896">
        <time>2020-08-22T11:52:26Z</time>
      </trkpt>
      <trkpt lat="42.480469" lon="1.576896">
        <time>2020-08-22T11:52:26Z</time>
      </trkpt>
      <trkpt lat="42.480457" lon="1.576904">
        <time>2020-08-22T11:52:26Z</time>
      </trkpt>
      <trkpt lat="42.480457" lon="1.576904">
        <time>2020-08-22T11:52:26Z</time>
      </trkpt>
      <trkpt lat="42.480450" lon="1.576913">
        <time>2020-08-22T11:52:26Z</time>
      </trkpt>
      <trkpt lat="42.480450" lon="1.576913">
        <time>2020-08-22T11:52:26Z</time>
      </trkpt>
      <trkpt lat="42.480442" lon="1.576923">
        <time>2020-08-22T11:52:26Z</time>
      </trkpt>
      <trkpt lat="42.480442" lon="1.576923">
        <time>2020-08-22T11:52:26Z</time>
      </trkpt>
      <trkpt lat="42.480431" lon="1.576935">
        <time>2020-08-22T11:52:26Z</time>
      </trkpt>
      <trkpt lat="42.480431" lon="1.576935">
        <time>2020-08-22T11:52:26Z</time>
      </trkpt>
      <trkpt lat="42.480423" lon="1.576947">
        <time>2020-08-22T11:52:26Z</time>
      </trkpt>
      <trkpt lat="42.480423" lon="1.576947">
        <time>2020-08-22T11:52:26Z</time>
      </trkpt>
      <trkpt lat="42.480415" lon="1.576959">
        <time>2020-08-22T11:52:33Z</time>
      </trkpt>
      <trkpt lat="42.480415" lon="1.576959">
        <time>2020-08-22T11:52:33Z</time>
      </trkpt>
      <trkpt lat="42.480408" lon="1.576971">
        <time>2020-08-22T11:52:33Z</time>
      </trkpt>
      <trkpt lat="42.480408" lon="1.576971">
        <time>2020-08-22T11:52:33Z</time>
      </trkpt>
      <trkpt lat="42.480400" lon="1.576983">
        <time>2020-08-22T11:52:33Z</time>
      </trkpt>
      <trkpt lat="42.480400" lon="1.576983">
        <time>2020-08-22T11:52:33Z</time>
      </trkpt>
      <trkpt lat="42.480396" lon="1.576996">
        <time>2020-08-22T11:52:33Z</time>
      </trkpt>
      <trkpt lat="42.480396" lon="1.576996">
        <time>2020-08-22T11:52:33Z</time>
      </trkpt>
      <trkpt lat="42.480385" lon="1.577010">
        <time>2020-08-22T11:52:33Z</time>
      </trkpt>
      <trkpt lat="42.480385" lon="1.577010">
        <time>2020-08-22T11:52:33Z</time>
      </trkpt>
      <trkpt lat="42.480381" lon="1.577024">
        <time>2020-08-22T11:52:33Z</time>
      </trkpt>
      <trkpt lat="42.480381" lon="1.577024">
        <time>2020-08-22T11:52:33Z</time>
      </trkpt>
      <trkpt lat="42.480377" lon="1.577038">
        <time>2020-08-22T11:52:33Z</time>
      </trkpt>
      <trkpt lat="42.480377" lon="1.577038">
        <time>2020-08-22T11:52:33Z</time>
      </trkpt>
      <trkpt lat="42.480370" lon="1.577051">
        <time>2020-08-22T11:52:40Z</time>
      </trkpt>
      <trkpt lat="42.480370" lon="1.577051">
        <time>2020-08-22T11:52:40Z</time>
      </trkpt>
      <trkpt lat="42.480362" lon="1.577062">
        <time>2020-08-22T11:52:40Z</time>
      </trkpt>
      <trkpt lat="42.480362" lon="1.577062">
        <time>2020-08-22T11:52:40Z</time>
      </trkpt>
      <trkpt lat="42.480358" lon="1.577073">
        <time>2020-08-22T11:52:40Z</time>
      </trkpt>
      <trkpt lat="42.480358" lon="1.577073">
        <time>2020-08-22T11:52:40Z</time>
      </trkpt>
      <trkpt lat="42.480350" lon="1.577083">
        <time>2020-08-22T11:52:40Z</time>
      </trkpt>
      <trkpt lat="42.480350" lon="1.577083">
        <time>2020-08-22T11:52:40Z</time>
      </trkpt>
      <trkpt lat="42.480343" lon="1.577093">
        <time>2020-08-22T11:52:40Z</time>
      </trkpt>
      <trkpt lat="42.480343" lon="1.577093">
        <time>2020-08-22T11:52:40Z</time>
      </trkpt>
      <trkpt lat="42.480335" lon="1.577102">
        <time>2020-08-22T11:52:40Z</time>
      </trkpt>
      <trkpt lat="42.480335" lon="1.577102">
        <time>2020-08-22T11:52:40Z</time>
      </trkpt>
      <trkpt lat="42.480331" lon="1.577111">
        <time>2020-08-22T11:52:40Z</time>
      </trkpt>
      <trkpt lat="42.480331" lon="1.577111">
        <time>2020-08-22T11:52:40Z</time>
      </trkpt>
      <trkpt lat="42.480324" lon="1.577119">
        <time>2020-08-22T11:52:47Z</time>
      </trkpt>
      <trkpt lat="42.480324" lon="1.577119">
        <time>2020-08-22T11:52:47Z</time>
      </trkpt>
      <trkpt lat="42.480316" lon="1.577127">
        <time>2020-08-22T11:52:47Z</time>
      </trkpt>
      <trkpt lat="42.480316" lon="1.577127">
        <time>2020-08-22T11:52:47Z</time>
      </trkpt>
      <trkpt lat="42.480309" lon="1.577135">
        <time>2020-08-22T11:52:47Z</time>
      </trkpt>
      <trkpt lat="42.480309" lon="1.577135">
        <time>2020-08-22T11:52:47Z</time>
      </trkpt>
      <trkpt lat="42.480297" lon="1.577143">
        <time>2020-08-22T11:52:47Z</time>
      </trkpt>
      <trkpt lat="42.480297" lon="1.577143">
        <time>2020-08-22T11:52:47Z</time>
      </trkpt>
      <trkpt lat="42.480289" lon="1.577151">
        <time>2020-08-22T11:52:47Z</time>
      </trkpt>
      <trkpt lat="42.480289" lon="1.577151">
        <time>2020-08-22T11:52:47Z</time>
      </trkpt>
      <trkpt lat="42.480282" lon="1.577160">
        <time>2020-08-22T11:52:47Z</time>
      </trkpt>
      <trkpt lat="42.480282" lon="1.577160">
        <time>2020-08-22T11:52:47Z</time>
      </trkpt>
      <trkpt lat="42.480274" lon="1.577170">
        <time>2020-08-22T11:52:47Z</time>
      </trkpt>
      <trkpt lat="42.480274" lon="1.577170">
        <time>2020-08-22T11:52:47Z</time>
      </trkpt>
      <trkpt lat="42.480267" lon="1.577180">
        <time>2020-08-22T11:52:54Z</time>
      </trkpt>
      <trkpt lat="42.480267" lon="1.577180">
        <time>2020-08-22T11:52:54Z</time>
      </trkpt>
      <trkpt lat="42.480263" lon="1.577191">
        <time>2020-08-22T11:52:54Z</time>
      </trkpt>
      <trkpt lat="42.480263" lon="1.577191">
        <time>2020-08-22T11:52:54Z</time>
      </trkpt>
      <trkpt lat="42.480255" lon="1.577201">
        <time>2020-08-22T11:52:54Z</time>
      </trkpt>
      <trkpt lat="42.480255" lon="1.577201">
        <time>2020-08-22T11:52:54Z</time>
      </trkpt>
      <trkpt lat="42.480247" lon="1.577212">
        <time>2020-08-22T11:52:54Z</time>
      </trkpt>
      <trkpt lat="42.480247" lon="1.577212">
        <time>2020-08-22T11:52:54Z</time>
      </trkpt>
      <trkpt lat="42.480240" lon="1.577223">
        <time>2020-08-22T11:52:54Z</time>
      </trkpt>
      <trkpt lat="42.480240" lon="1.577223">
        <time>2020-08-22T11:52:54Z</time>
      </trkpt>
      <trkpt lat="42.480232" lon="1.577234">
        <time>2020-08-22T11:52:54Z</time>
      </trkpt>
      <trkpt lat="42.480232" lon="1.577234">
        <time>2020-08-22T11:52:54Z</time>
      </trkpt>
      <trkpt lat="42.480228" lon="1.577245">
        <time>2020-08-22T11:52:54Z</time>
      </trkpt>
      <trkpt lat="42.480228" lon="1.577245">
        <time>2020-08-22T11:52:54Z</time>
      </trkpt>
      <trkpt lat="42.480217" lon="1.577257">
        <time>2020-08-22T11:53:01Z</time>
      </trkpt>
      <trkpt lat="42.480217" lon="1.577257">
        <time>2020-08-22T11:53:01Z</time>
      </trkpt>
      <trkpt lat="42.480209" lon="1.577269">
        <time>2020-08-22T11:53:01Z</time>
      </trkpt>
      <trkpt lat="42.480209" lon="1.577269">
        <time>2020-08-22T11:53:01Z</time>
      </trkpt>
      <trkpt lat="42.480202" lon="1.577282">
        <time>2020-08-22T11:53:01Z</time>
      </trkpt>
      <trkpt lat="42.480202" lon="1.577282">
        <time>2020-08-22T11:53:01Z</time>
      </trkpt>
      <trkpt lat="42.480190" lon="1.577297">
        <time>2020-08-22T11:53:01Z</time>
      </trkpt>
      <trkpt lat="42.480190" lon="1.577297">
        <time>2020-08-22T11:53:01Z</time>
      </trkpt>
      <trkpt lat="42.480183" lon="1.577312">
        <time>2020-08-22T11:53:01Z</time>
      </trkpt>
      <trkpt lat="42.480183" lon="1.577312">
        <time>2020-08-22T11:53:01Z</time>
      </trkpt>
      <trkpt lat="42.480167" lon="1.577328">
        <time>2020-08-22T11:53:01Z</time>
      </trkpt>
      <trkpt lat="42.480167" lon="1.577328">
        <time>2020-08-22T11:53:01Z</time>
      </trkpt>
      <trkpt lat="42.480156" lon="1.577346">
        <time>2020-08-22T11:53:01Z</time>
      </trkpt>
      <trkpt lat="42.480156" lon="1.577346">
        <time>2020-08-22T11:53:01Z</time>
      </trkpt>
      <trkpt lat="42.480148" lon="1.577364">
        <time>2020-08-22T11:53:08Z</time>
      </trkpt>
      <trkpt lat="42.480148" lon="1.577364">
        <time>2020-08-22T11:53:08Z</time>
      </trkpt>
      <trkpt lat="42.480129" lon="1.577386">
        <time>2020-08-22T11:53:15Z</time>
      </trkpt>
      <trkpt lat="42.480129" lon="1.577386">
        <time>2020-08-22T11:53:15Z</time>
      </trkpt>
      <trkpt lat="42.480110" lon="1.577406">
        <time>2020-08-22T11:53:15Z</time>
      </trkpt>
      <trkpt lat="42.480110" lon="1.577406">
        <time>2020-08-22T11:53:15Z</time>
      </trkpt>
      <trkpt lat="42.480095" lon="1.577424">
        <time>2020-08-22T11:53:15Z</time>
      </trkpt>
      <trkpt lat="42.480095" lon="1.577424">
        <time>2020-08-22T11:53:15Z</time>
      </trkpt>
      <trkpt lat="42.480076" lon="1.577439">
        <time>2020-08-22T11:53:15Z</time>
      </trkpt>
      <trkpt lat="42.480076" lon="1.577439">
        <time>2020-08-22T11:53:15Z</time>
      </trkpt>
      <trkpt lat="42.480061" lon="1.577451">
        <time>2020-08-22T11:53:15Z</time>
      </trkpt>
      <trkpt lat="42.480061" lon="1.577451">
        <time>2020-08-22T11:53:15Z</time>
      </trkpt>
      <trkpt lat="42.480049" lon="1.577460">
        <time>2020-08-22T11:53:15Z</time>
      </trkpt>
      <trkpt lat="42.480049" lon="1.577460">
        <time>2020-08-22T11:53:15Z</time>
      </trkpt>
      <trkpt lat="42.480034" lon="1.577466">
        <time>2020-08-22T11:53:15Z</time>
      </trkpt>
      <trkpt lat="42.480034" lon="1.577466">
        <time>2020-08-22T11:53:15Z</time>
      </trkpt>
      <trkpt lat="42.480022" lon="1.577470">
        <time>2020-08-22T11:53:24Z</time>
      </trkpt>
      <trkpt lat="42.480022" lon="1.577470">
        <time>2020-08-22T11:53:24Z</time>
      </trkpt>
      <trkpt lat="42.480007" lon="1.577470">
        <time>2020-08-22T11:53:24Z</time>
      </trkpt>
      <trkpt lat="42.480007" lon="1.577470">
        <time>2020-08-22T11:53:24Z</time>
      </trkpt>
      <trkpt lat="42.480000" lon="1.577468">
        <time>2020-08-22T11:53:24Z</time>
      </trkpt>
      <trkpt lat="42.480000" lon="1.577468">
        <time>2020-08-22T11:53:24Z</time>
      </trkpt>
      <trkpt lat="42.479996" lon="1.577462">
        <time>2020-08-22T11:53:31Z</time>
      </trkpt>
      <trkpt lat="42.479996" lon="1.577462">
        <time>2020-08-22T11:53:31Z</time>
      </trkpt>
      <trkpt lat="42.479996" lon="1.577458">
        <time>2020-08-22T11:53:31Z</time>
      </trkpt>
      <trkpt lat="42.479996" lon="1.577458">
        <time>2020-08-22T11:53:31Z</time>
      </trkpt>
      <trkpt lat="42.479992" lon="1.577455">
        <time>2020-08-22T11:53:31Z</time>
      </trkpt>
      <trkpt lat="42.479992" lon="1.577455">
        <time>2020-08-22T11:53:31Z</time>
      </trkpt>
      <trkpt lat="42.479988" lon="1.577454">
        <time>2020-08-22T11:53:31Z</time>
      </trkpt>
      <trkpt lat="42.479988" lon="1.577454">
        <time>2020-08-22T11:53:31Z</time>
      </trkpt>
      <trkpt lat="42.479988" lon="1.577455">
        <time>2020-08-22T11:53:31Z</time>
      </trkpt>
      <trkpt lat="42.479988" lon="1.577455">
        <time>2020-08-22T11:53:31Z</time>
      </trkpt>
      <trkpt lat="42.479984" lon="1.577459">
        <time>2020-08-22T11:53:31Z</time>
      </trkpt>
      <trkpt lat="42.479984" lon="1.577459">
        <time>2020-08-22T11:53:31Z</time>
      </trkpt>
      <trkpt lat="42.479980" lon="1.577464">
        <time>2020-08-22T11:53:38Z</time>
      </trkpt>
      <trkpt lat="42.479980" lon="1.577464">
        <time>2020-08-22T11:53:38Z</time>
      </trkpt>
      <trkpt lat="42.479980" lon="1.577472">
        <time>2020-08-22T11:53:38Z</time>
      </trkpt>
      <trkpt lat="42.479980" lon="1.577472">
        <time>2020-08-22T11:53:38Z</time>
      </trkpt>
      <trkpt lat="42.479973" lon="1.577482">
        <time>2020-08-22T11:53:38Z</time>
      </trkpt>
      <trkpt lat="42.479973" lon="1.577482">
        <time>2020-08-22T11:53:38Z</time>
      </trkpt>
      <trkpt lat="42.479969" lon="1.577495">
        <time>2020-08-22T11:53:38Z</time>
      </trkpt>
      <trkpt lat="42.479969" lon="1.577495">
        <time>2020-08-22T11:53:38Z</time>
      </trkpt>
      <trkpt lat="42.479961" lon="1.577507">
        <time>2020-08-22T11:53:38Z</time>
      </trkpt>
      <trkpt lat="42.479961" lon="1.577507">
        <time>2020-08-22T11:53:38Z</time>
      </trkpt>
      <trkpt lat="42.479954" lon="1.577521">
        <time>2020-08-22T11:53:38Z</time>
      </trkpt>
      <trkpt lat="42.479954" lon="1.577521">
        <time>2020-08-22T11:53:38Z</time>
      </trkpt>
      <trkpt lat="42.479950" lon="1.577535">
        <time>2020-08-22T11:53:38Z</time>
      </trkpt>
      <trkpt lat="42.479950" lon="1.577535">
        <time>2020-08-22T11:53:38Z</time>
      </trkpt>
      <trkpt lat="42.479942" lon="1.577549">
        <time>2020-08-22T11:53:45Z</time>
      </trkpt>
      <trkpt lat="42.479942" lon="1.577549">
        <time>2020-08-22T11:53:45Z</time>
      </trkpt>
      <trkpt lat="42.479935" lon="1.577563">
        <time>2020-08-22T11:53:45Z</time>
      </trkpt>
      <trkpt lat="42.479935" lon="1.577563">
        <time>2020-08-22T11:53:45Z</time>
      </trkpt>
      <trkpt lat="42.479927" lon="1.577578">
        <time>2020-08-22T11:53:45Z</time>
      </trkpt>
      <trkpt lat="42.479927" lon="1.577578">
        <time>2020-08-22T11:53:45Z</time>
      </trkpt>
      <trkpt lat="42.479916" lon="1.577592">
        <time>2020-08-22T11:53:45Z</time>
      </trkpt>
      <trkpt lat="42.479916" lon="1.577592">
        <time>2020-08-22T11:53:45Z</time>
      </trkpt>
      <trkpt lat="42.479908" lon="1.577606">
        <time>2020-08-22T11:53:45Z</time>
      </trkpt>
      <trkpt lat="42.479908" lon="1.577606">
        <time>2020-08-22T11:53:45Z</time>
      </trkpt>
      <trkpt lat="42.479904" lon="1.577619">
        <time>2020-08-22T11:53:45Z</time>
      </trkpt>
      <trkpt lat="42.479904" lon="1.577619">
        <time>2020-08-22T11:53:45Z</time>
      </trkpt>
      <trkpt lat="42.479897" lon="1.577632">
        <time>2020-08-22T11:53:45Z</time>
      </trkpt>
      <trkpt lat="42.479897" lon="1.577632">
        <time>2020-08-22T11:53:45Z</time>
      </trkpt>
      <trkpt lat="42.479889" lon="1.577645">
        <time>2020-08-22T11:53:52Z</time>
      </trkpt>
      <trkpt lat="42.479889" lon="1.577645">
        <time>2020-08-22T11:53:52Z</time>
      </trkpt>
      <trkpt lat="42.479885" lon="1.577657">
        <time>2020-08-22T11:53:52Z</time>
      </trkpt>
      <trkpt lat="42.479885" lon="1.577657">
        <time>2020-08-22T11:53:52Z</time>
      </trkpt>
      <trkpt lat="42.479881" lon="1.577670">
        <time>2020-08-22T11:53:52Z</time>
      </trkpt>
      <trkpt lat="42.479881" lon="1.577670">
        <time>2020-08-22T11:53:52Z</time>
      </trkpt>
      <trkpt lat="42.479874" lon="1.577683">
        <time>2020-08-22T11:53:52Z</time>
      </trkpt>
      <trkpt lat="42.479874" lon="1.577683">
        <time>2020-08-22T11:53:52Z</time>
      </trkpt>
      <trkpt lat="42.479874" lon="1.577695">
        <time>2020-08-22T11:53:52Z</time>
      </trkpt>
      <trkpt lat="42.479874" lon="1.577695">
        <time>2020-08-22T11:53:52Z</time>
      </trkpt>
      <trkpt lat="42.479866" lon="1.577708">
        <time>2020-08-22T11:53:52Z</time>
      </trkpt>
      <trkpt lat="42.479866" lon="1.577708">
        <time>2020-08-22T11:53:52Z</time>
      </trkpt>
      <trkpt lat="42.479862" lon="1.577722">
        <time>2020-08-22T11:53:52Z</time>
      </trkpt>
      <trkpt lat="42.479862" lon="1.577722">
        <time>2020-08-22T11:53:52Z</time>
      </trkpt>
      <trkpt lat="42.479858" lon="1.577735">
        <time>2020-08-22T11:53:59Z</time>
      </trkpt>
      <trkpt lat="42.479858" lon="1.577735">
        <time>2020-08-22T11:53:59Z</time>
      </trkpt>
      <trkpt lat="42.479855" lon="1.577749">
        <time>2020-08-22T11:53:59Z</time>
      </trkpt>
      <trkpt lat="42.479855" lon="1.577749">
        <time>2020-08-22T11:53:59Z</time>
      </trkpt>
      <trkpt lat="42.479851" lon="1.577763">
        <time>2020-08-22T11:53:59Z</time>
      </trkpt>
      <trkpt lat="42.479851" lon="1.577763">
        <time>2020-08-22T11:53:59Z</time>
      </trkpt>
      <trkpt lat="42.479847" lon="1.577778">
        <time>2020-08-22T11:53:59Z</time>
      </trkpt>
      <trkpt lat="42.479847" lon="1.577778">
        <time>2020-08-22T11:53:59Z</time>
      </trkpt>
      <trkpt lat="42.479836" lon="1.577792">
        <time>2020-08-22T11:53:59Z</time>
      </trkpt>
      <trkpt lat="42.479836" lon="1.577792">
        <time>2020-08-22T11:53:59Z</time>
      </trkpt>
      <trkpt lat="42.479828" lon="1.577808">
        <time>2020-08-22T11:53:59Z</time>
      </trkpt>
      <trkpt lat="42.479828" lon="1.577808">
        <time>2020-08-22T11:53:59Z</time>
      </trkpt>
      <trkpt lat="42.479820" lon="1.577823">
        <time>2020-08-22T11:53:59Z</time>
      </trkpt>
      <trkpt lat="42.479820" lon="1.577823">
        <time>2020-08-22T11:53:59Z</time>
      </trkpt>
      <trkpt lat="42.479813" lon="1.577839">
        <time>2020-08-22T11:54:07Z</time>
      </trkpt>
      <trkpt lat="42.479813" lon="1.577839">
        <time>2020-08-22T11:54:07Z</time>
      </trkpt>
      <trkpt lat="42.479805" lon="1.577858">
        <time>2020-08-22T11:54:07Z</time>
      </trkpt>
      <trkpt lat="42.479805" lon="1.577858">
        <time>2020-08-22T11:54:07Z</time>
      </trkpt>
      <trkpt lat="42.479797" lon="1.577876">
        <time>2020-08-22T11:54:07Z</time>
      </trkpt>
      <trkpt lat="42.479797" lon="1.577876">
        <time>2020-08-22T11:54:07Z</time>
      </trkpt>
      <trkpt lat="42.479794" lon="1.577894">
        <time>2020-08-22T11:54:07Z</time>
      </trkpt>
      <trkpt lat="42.479794" lon="1.577894">
        <time>2020-08-22T11:54:07Z</time>
      </trkpt>
      <trkpt lat="42.479782" lon="1.577912">
        <time>2020-08-22T11:54:07Z</time>
      </trkpt>
      <trkpt lat="42.479782" lon="1.577912">
        <time>2020-08-22T11:54:07Z</time>
      </trkpt>
      <trkpt lat="42.479774" lon="1.577929">
        <time>2020-08-22T11:54:07Z</time>
      </trkpt>
      <trkpt lat="42.479774" lon="1.577929">
        <time>2020-08-22T11:54:07Z</time>
      </trkpt>
      <trkpt lat="42.479771" lon="1.577945">
        <time>2020-08-22T11:54:14Z</time>
      </trkpt>
      <trkpt lat="42.479771" lon="1.577945">
        <time>2020-08-22T11:54:14Z</time>
      </trkpt>
      <trkpt lat="42.479767" lon="1.577961">
        <time>2020-08-22T11:54:14Z</time>
      </trkpt>
      <trkpt lat="42.479767" lon="1.577961">
        <time>2020-08-22T11:54:14Z</time>
      </trkpt>
      <trkpt lat="42.479763" lon="1.577976">
        <time>2020-08-22T11:54:14Z</time>
      </trkpt>
      <trkpt lat="42.479763" lon="1.577976">
        <time>2020-08-22T11:54:14Z</time>
      </trkpt>
      <trkpt lat="42.479759" lon="1.577991">
        <time>2020-08-22T11:54:14Z</time>
      </trkpt>
      <trkpt lat="42.479759" lon="1.577991">
        <time>2020-08-22T11:54:14Z</time>
      </trkpt>
      <trkpt lat="42.479752" lon="1.578006">
        <time>2020-08-22T11:54:14Z</time>
      </trkpt>
      <trkpt lat="42.479752" lon="1.578006">
        <time>2020-08-22T11:54:14Z</time>
      </trkpt>
      <trkpt lat="42.479748" lon="1.578017">
        <time>2020-08-22T11:54:14Z</time>
      </trkpt>
      <trkpt lat="42.479748" lon="1.578017">
        <time>2020-08-22T11:54:14Z</time>
      </trkpt>
      <trkpt lat="42.479740" lon="1.578027">
        <time>2020-08-22T11:54:21Z</time>
      </trkpt>
      <trkpt lat="42.479740" lon="1.578027">
        <time>2020-08-22T11:54:21Z</time>
      </trkpt>
      <trkpt lat="42.479733" lon="1.578037">
        <time>2020-08-22T11:54:21Z</time>
      </trkpt>
      <trkpt lat="42.479733" lon="1.578037">
        <time>2020-08-22T11:54:21Z</time>
      </trkpt>
      <trkpt lat="42.479729" lon="1.578047">
        <time>2020-08-22T11:54:21Z</time>
      </trkpt>
      <trkpt lat="42.479729" lon="1.578047">
        <time>2020-08-22T11:54:21Z</time>
      </trkpt>
      <trkpt lat="42.479721" lon="1.578056">
        <time>2020-08-22T11:54:21Z</time>
      </trkpt>
      <trkpt lat="42.479721" lon="1.578056">
        <time>2020-08-22T11:54:21Z</time>
      </trkpt>
      <trkpt lat="42.479713" lon="1.578066">
        <time>2020-08-22T11:54:28Z</time>
      </trkpt>
      <trkpt lat="42.479713" lon="1.578066">
        <time>2020-08-22T11:54:28Z</time>
      </trkpt>
      <trkpt lat="42.479702" lon="1.578075">
        <time>2020-08-22T11:54:28Z</time>
      </trkpt>
      <trkpt lat="42.479702" lon="1.578075">
        <time>2020-08-22T11:54:28Z</time>
      </trkpt>
      <trkpt lat="42.479691" lon="1.578084">
        <time>2020-08-22T11:54:28Z</time>
      </trkpt>
      <trkpt lat="42.479691" lon="1.578084">
        <time>2020-08-22T11:54:28Z</time>
      </trkpt>
      <trkpt lat="42.479683" lon="1.578092">
        <time>2020-08-22T11:54:28Z</time>
      </trkpt>
      <trkpt lat="42.479683" lon="1.578092">
        <time>2020-08-22T11:54:28Z</time>
      </trkpt>
      <trkpt lat="42.479679" lon="1.578098">
        <time>2020-08-22T11:54:28Z</time>
      </trkpt>
      <trkpt lat="42.479679" lon="1.578098">
        <time>2020-08-22T11:54:28Z</time>
      </trkpt>
      <trkpt lat="42.479671" lon="1.578105">
        <time>2020-08-22T11:54:28Z</time>
      </trkpt>
      <trkpt lat="42.479671" lon="1.578105">
        <time>2020-08-22T11:54:28Z</time>
      </trkpt>
      <trkpt lat="42.479668" lon="1.578110">
        <time>2020-08-22T11:54:28Z</time>
      </trkpt>
      <trkpt lat="42.479668" lon="1.578110">
        <time>2020-08-22T11:54:28Z</time>
      </trkpt>
      <trkpt lat="42.479668" lon="1.578115">
        <time>2020-08-22T11:54:36Z</time>
      </trkpt>
      <trkpt lat="42.479668" lon="1.578115">
        <time>2020-08-22T11:54:36Z</time>
      </trkpt>
      <trkpt lat="42.479668" lon="1.578120">
        <time>2020-08-22T11:54:36Z</time>
      </trkpt>
      <trkpt lat="42.479668" lon="1.578120">
        <time>2020-08-22T11:54:36Z</time>
      </trkpt>
      <trkpt lat="42.479668" lon="1.578123">
        <time>2020-08-22T11:54:36Z</time>
      </trkpt>
      <trkpt lat="42.479668" lon="1.578123">
        <time>2020-08-22T11:54:36Z</time>
      </trkpt>
      <trkpt lat="42.479679" lon="1.578126">
        <time>2020-08-22T11:54:36Z</time>
      </trkpt>
      <trkpt lat="42.479679" lon="1.578126">
        <time>2020-08-22T11:54:36Z</time>
      </trkpt>
      <trkpt lat="42.479683" lon="1.578129">
        <time>2020-08-22T11:54:36Z</time>
      </trkpt>
      <trkpt lat="42.479683" lon="1.578129">
        <time>2020-08-22T11:54:36Z</time>
      </trkpt>
      <trkpt lat="42.479687" lon="1.578133">
        <time>2020-08-22T11:54:43Z</time>
      </trkpt>
      <trkpt lat="42.479687" lon="1.578133">
        <time>2020-08-22T11:54:43Z</time>
      </trkpt>
      <trkpt lat="42.479694" lon="1.578138">
        <time>2020-08-22T11:54:43Z</time>
      </trkpt>
      <trkpt lat="42.479694" lon="1.578138">
        <time>2020-08-22T11:54:43Z</time>
      </trkpt>
      <trkpt lat="42.479698" lon="1.578144">
        <time>2020-08-22T11:54:43Z</time>
      </trkpt>
      <trkpt lat="42.479698" lon="1.578144">
        <time>2020-08-22T11:54:43Z</time>
      </trkpt>
      <trkpt lat="42.479702" lon="1.578151">
        <time>2020-08-22T11:54:43Z</time>
      </trkpt>
      <trkpt lat="42.479702" lon="1.578151">
        <time>2020-08-22T11:54:43Z</time>
      </trkpt>
      <trkpt lat="42.479706" lon="1.578159">
        <time>2020-08-22T11:54:43Z</time>
      </trkpt>
      <trkpt lat="42.479706" lon="1.578159">
        <time>2020-08-22T11:54:43Z</time>
      </trkpt>
      <trkpt lat="42.479706" lon="1.578169">
        <time>2020-08-22T11:54:43Z</time>
      </trkpt>
      <trkpt lat="42.479706" lon="1.578169">
        <time>2020-08-22T11:54:43Z</time>
      </trkpt>
      <trkpt lat="42.479706" lon="1.578180">
        <time>2020-08-22T11:54:43Z</time>
      </trkpt>
      <trkpt lat="42.479706" lon="1.578180">
        <time>2020-08-22T11:54:43Z</time>
      </trkpt>
      <trkpt lat="42.479706" lon="1.578193">
        <time>2020-08-22T11:54:50Z</time>
      </trkpt>
      <trkpt lat="42.479706" lon="1.578193">
        <time>2020-08-22T11:54:50Z</time>
      </trkpt>
      <trkpt lat="42.479706" lon="1.578205">
        <time>2020-08-22T11:54:50Z</time>
      </trkpt>
      <trkpt lat="42.479706" lon="1.578205">
        <time>2020-08-22T11:54:50Z</time>
      </trkpt>
      <trkpt lat="42.479706" lon="1.578218">
        <time>2020-08-22T11:54:50Z</time>
      </trkpt>
      <trkpt lat="42.479706" lon="1.578218">
        <time>2020-08-22T11:54:50Z</time>
      </trkpt>
      <trkpt lat="42.479710" lon="1.578229">
        <time>2020-08-22T11:54:50Z</time>
      </trkpt>
      <trkpt lat="42.479710" lon="1.578229">
        <time>2020-08-22T11:54:50Z</time>
      </trkpt>
      <trkpt lat="42.479710" lon="1.578239">
        <time>2020-08-22T11:54:50Z</time>
      </trkpt>
      <trkpt lat="42.479710" lon="1.578239">
        <time>2020-08-22T11:54:50Z</time>
      </trkpt>
      <trkpt lat="42.479713" lon="1.578249">
        <time>2020-08-22T11:54:50Z</time>
      </trkpt>
      <trkpt lat="42.479713" lon="1.578249">
        <time>2020-08-22T11:54:50Z</time>
      </trkpt>
      <trkpt lat="42.479713" lon="1.578256">
        <time>2020-08-22T11:54:50Z</time>
      </trkpt>
      <trkpt lat="42.479713" lon="1.578256">
        <time>2020-08-22T11:54:50Z</time>
      </trkpt>
      <trkpt lat="42.479721" lon="1.578262">
        <time>2020-08-22T11:54:57Z</time>
      </trkpt>
      <trkpt lat="42.479721" lon="1.578262">
        <time>2020-08-22T11:54:57Z</time>
      </trkpt>
      <trkpt lat="42.479721" lon="1.578268">
        <time>2020-08-22T11:55:06Z</time>
      </trkpt>
      <trkpt lat="42.479721" lon="1.578268">
        <time>2020-08-22T11:55:06Z</time>
      </trkpt>
      <trkpt lat="42.479729" lon="1.578273">
        <time>2020-08-22T11:55:06Z</time>
      </trkpt>
      <trkpt lat="42.479729" lon="1.578273">
        <time>2020-08-22T11:55:06Z</time>
      </trkpt>
      <trkpt lat="42.479733" lon="1.578278">
        <time>2020-08-22T11:55:06Z</time>
      </trkpt>
      <trkpt lat="42.479733" lon="1.578278">
        <time>2020-08-22T11:55:06Z</time>
      </trkpt>
      <trkpt lat="42.479733" lon="1.578281">
        <time>2020-08-22T11:55:06Z</time>
      </trkpt>
      <trkpt lat="42.479733" lon="1.578281">
        <time>2020-08-22T11:55:06Z</time>
      </trkpt>
      <trkpt lat="42.479733" lon="1.578283">
        <time>2020-08-22T11:55:06Z</time>
      </trkpt>
      <trkpt lat="42.479733" lon="1.578283">
        <time>2020-08-22T11:55:06Z</time>
      </trkpt>
      <trkpt lat="42.479733" lon="1.578284">
        <time>2020-08-22T11:55:13Z</time>
      </trkpt>
      <trkpt lat="42.479733" lon="1.578284">
        <time>2020-08-22T11:55:13Z</time>
      </trkpt>
      <trkpt lat="42.479733" lon="1.578283">
        <time>2020-08-22T11:55:13Z</time>
      </trkpt>
      <trkpt lat="42.479733" lon="1.578283">
        <time>2020-08-22T11:55:13Z</time>
      </trkpt>
      <trkpt lat="42.479729" lon="1.578282">
        <time>2020-08-22T11:55:13Z</time>
      </trkpt>
      <trkpt lat="42.479729" lon="1.578282">
        <time>2020-08-22T11:55:13Z</time>
      </trkpt>
      <trkpt lat="42.479725" lon="1.578280">
        <time>2020-08-22T11:55:13Z</time>
      </trkpt>
      <trkpt lat="42.479725" lon="1.578280">
        <time>2020-08-22T11:55:13Z</time>
      </trkpt>
      <trkpt lat="42.479721" lon="1.578278">
        <time>2020-08-22T11:55:13Z</time>
      </trkpt>
      <trkpt lat="42.479721" lon="1.578278">
        <time>2020-08-22T11:55:13Z</time>
      </trkpt>
      <trkpt lat="42.479717" lon="1.578274">
        <time>2020-08-22T11:55:13Z</time>
      </trkpt>
      <trkpt lat="42.479717" lon="1.578274">
        <time>2020-08-22T11:55:13Z</time>
      </trkpt>
      <trkpt lat="42.479713" lon="1.578268">
        <time>2020-08-22T11:55:13Z</time>
      </trkpt>
      <trkpt lat="42.479713" lon="1.578268">
        <time>2020-08-22T11:55:13Z</time>
      </trkpt>
      <trkpt lat="42.479713" lon="1.578260">
        <time>2020-08-22T11:55:20Z</time>
      </trkpt>
      <trkpt lat="42.479713" lon="1.578260">
        <time>2020-08-22T11:55:20Z</time>
      </trkpt>
      <trkpt lat="42.479713" lon="1.578252">
        <time>2020-08-22T11:55:20Z</time>
      </trkpt>
      <trkpt lat="42.479713" lon="1.578252">
        <time>2020-08-22T11:55:20Z</time>
      </trkpt>
      <trkpt lat="42.479717" lon="1.578244">
        <time>2020-08-22T11:55:20Z</time>
      </trkpt>
      <trkpt lat="42.479717" lon="1.578244">
        <time>2020-08-22T11:55:20Z</time>
      </trkpt>
      <trkpt lat="42.479721" lon="1.578236">
        <time>2020-08-22T11:55:20Z</time>
      </trkpt>
      <trkpt lat="42.479721" lon="1.578236">
        <time>2020-08-22T11:55:20Z</time>
      </trkpt>
      <trkpt lat="42.479725" lon="1.578227">
        <time>2020-08-22T11:55:20Z</time>
      </trkpt>
      <trkpt lat="42.479725" lon="1.578227">
        <time>2020-08-22T11:55:20Z</time>
      </trkpt>
      <trkpt lat="42.479733" lon="1.578219">
        <time>2020-08-22T11:55:20Z</time>
      </trkpt>
      <trkpt lat="42.479733" lon="1.578219">
        <time>2020-08-22T11:55:20Z</time>
      </trkpt>
      <trkpt lat="42.479740" lon="1.578211">
        <time>2020-08-22T11:55:20Z</time>
      </trkpt>
      <trkpt lat="42.479740" lon="1.578211">
        <time>2020-08-22T11:55:20Z</time>
      </trkpt>
      <trkpt lat="42.479748" lon="1.578204">
        <time>2020-08-22T11:55:27Z</time>
      </trkpt>
      <trkpt lat="42.479748" lon="1.578204">
        <time>2020-08-22T11:55:27Z</time>
      </trkpt>
      <trkpt lat="42.479755" lon="1.578198">
        <time>2020-08-22T11:55:27Z</time>
      </trkpt>
      <trkpt lat="42.479755" lon="1.578198">
        <time>2020-08-22T11:55:27Z</time>
      </trkpt>
      <trkpt lat="42.479767" lon="1.578193">
        <time>2020-08-22T11:55:27Z</time>
      </trkpt>
      <trkpt lat="42.479767" lon="1.578193">
        <time>2020-08-22T11:55:27Z</time>
      </trkpt>
      <trkpt lat="42.479774" lon="1.578190">
        <time>2020-08-22T11:55:27Z</time>
      </trkpt>
      <trkpt lat="42.479774" lon="1.578190">
        <time>2020-08-22T11:55:27Z</time>
      </trkpt>
      <trkpt lat="42.479782" lon="1.578189">
        <time>2020-08-22T11:55:27Z</time>
      </trkpt>
      <trkpt lat="42.479782" lon="1.578189">
        <time>2020-08-22T11:55:27Z</time>
      </trkpt>
      <trkpt lat="42.479790" lon="1.578189">
        <time>2020-08-22T11:55:27Z</time>
      </trkpt>
      <trkpt lat="42.479790" lon="1.578189">
        <time>2020-08-22T11:55:27Z</time>
      </trkpt>
      <trkpt lat="42.479794" lon="1.578190">
        <time>2020-08-22T11:55:27Z</time>
      </trkpt>
      <trkpt lat="42.479794" lon="1.578190">
        <time>2020-08-22T11:55:27Z</time>
      </trkpt>
      <trkpt lat="42.479797" lon="1.578193">
        <time>2020-08-22T11:55:27Z</time>
      </trkpt>
      <trkpt lat="42.479797" lon="1.578193">
        <time>2020-08-22T11:55:27Z</time>
      </trkpt>
      <trkpt lat="42.479797" lon="1.578197">
        <time>2020-08-22T11:55:27Z</time>
      </trkpt>
      <trkpt lat="42.479797" lon="1.578197">
        <time>2020-08-22T11:55:27Z</time>
      </trkpt>
      <trkpt lat="42.479794" lon="1.578202">
        <time>2020-08-22T11:55:34Z</time>
      </trkpt>
      <trkpt lat="42.479794" lon="1.578202">
        <time>2020-08-22T11:55:34Z</time>
      </trkpt>
      <trkpt lat="42.479790" lon="1.578208">
        <time>2020-08-22T11:55:34Z</time>
      </trkpt>
      <trkpt lat="42.479790" lon="1.578208">
        <time>2020-08-22T11:55:34Z</time>
      </trkpt>
      <trkpt lat="42.479782" lon="1.578215">
        <time>2020-08-22T11:55:34Z</time>
      </trkpt>
      <trkpt lat="42.479782" lon="1.578215">
        <time>2020-08-22T11:55:34Z</time>
      </trkpt>
      <trkpt lat="42.479774" lon="1.578222">
        <time>2020-08-22T11:55:34Z</time>
      </trkpt>
      <trkpt lat="42.479774" lon="1.578222">
        <time>2020-08-22T11:55:34Z</time>
      </trkpt>
      <trkpt lat="42.479767" lon="1.578230">
        <time>2020-08-22T11:55:34Z</time>
      </trkpt>
      <trkpt lat="42.479767" lon="1.578230">
        <time>2020-08-22T11:55:34Z</time>
      </trkpt>
      <trkpt lat="42.479759" lon="1.578237">
        <time>2020-08-22T11:55:34Z</time>
      </trkpt>
      <trkpt lat="42.479759" lon="1.578237">
        <time>2020-08-22T11:55:34Z</time>
      </trkpt>
      <trkpt lat="42.479748" lon="1.578245">
        <time>2020-08-22T11:55:34Z</time>
      </trkpt>
      <trkpt lat="42.479748" lon="1.578245">
        <time>2020-08-22T11:55:34Z</time>
      </trkpt>
      <trkpt lat="42.479740" lon="1.578253">
        <time>2020-08-22T11:55:41Z</time>
      </trkpt>
      <trkpt lat="42.479740" lon="1.578253">
        <time>2020-08-22T11:55:41Z</time>
      </trkpt>
      <trkpt lat="42.479733" lon="1.578261">
        <time>2020-08-22T11:55:41Z</time>
      </trkpt>
      <trkpt lat="42.479733" lon="1.578261">
        <time>2020-08-22T11:55:41Z</time>
      </trkpt>
      <trkpt lat="42.479721" lon="1.578270">
        <time>2020-08-22T11:55:41Z</time>
      </trkpt>
      <trkpt lat="42.479721" lon="1.578270">
        <time>2020-08-22T11:55:41Z</time>
      </trkpt>
      <trkpt lat="42.479713" lon="1.578279">
        <time>2020-08-22T11:55:41Z</time>
      </trkpt>
      <trkpt lat="42.479713" lon="1.578279">
        <time>2020-08-22T11:55:41Z</time>
      </trkpt>
      <trkpt lat="42.479706" lon="1.578287">
        <time>2020-08-22T11:55:41Z</time>
      </trkpt>
      <trkpt lat="42.479706" lon="1.578287">
        <time>2020-08-22T11:55:41Z</time>
      </trkpt>
      <trkpt lat="42.479698" lon="1.578296">
        <time>2020-08-22T11:55:41Z</time>
      </trkpt>
      <trkpt lat="42.479698" lon="1.578296">
        <time>2020-08-22T11:55:41Z</time>
      </trkpt>
      <trkpt lat="42.479691" lon="1.578305">
        <time>2020-08-22T11:55:41Z</time>
      </trkpt>
      <trkpt lat="42.479691" lon="1.578305">
        <time>2020-08-22T11:55:41Z</time>
      </trkpt>
      <trkpt lat="42.479687" lon="1.578315">
        <time>2020-08-22T11:55:50Z</time>
      </trkpt>
      <trkpt lat="42.479687" lon="1.578315">
        <time>2020-08-22T11:55:50Z</time>
      </trkpt>
      <trkpt lat="42.479683" lon="1.578325">
        <time>2020-08-22T11:56:10Z</time>
      </trkpt>
      <trkpt lat="42.479683" lon="1.578325">
        <time>2020-08-22T11:56:10Z</time>
      </trkpt>
      <trkpt lat="42.479679" lon="1.578334">
        <time>2020-08-22T11:56:10Z</time>
      </trkpt>
      <trkpt lat="42.479679" lon="1.578334">
        <time>2020-08-22T11:56:10Z</time>
      </trkpt>
      <trkpt lat="42.479679" lon="1.578341">
        <time>2020-08-22T11:56:10Z</time>
      </trkpt>
      <trkpt lat="42.479679" lon="1.578341">
        <time>2020-08-22T11:56:10Z</time>
      </trkpt>
      <trkpt lat="42.479675" lon="1.578347">
        <time>2020-08-22T11:56:10Z</time>
      </trkpt>
      <trkpt lat="42.479675" lon="1.578347">
        <time>2020-08-22T11:56:10Z</time>
      </trkpt>
      <trkpt lat="42.479675" lon="1.578351">
        <time>2020-08-22T11:56:10Z</time>
      </trkpt>
      <trkpt lat="42.479675" lon="1.578351">
        <time>2020-08-22T11:56:10Z</time>
      </trkpt>
      <trkpt lat="42.479671" lon="1.578354">
        <time>2020-08-22T11:56:10Z</time>
      </trkpt>
      <trkpt lat="42.479671" lon="1.578354">
        <time>2020-08-22T11:56:10Z</time>
      </trkpt>
      <trkpt lat="42.479671" lon="1.578354">
        <time>2020-08-22T11:56:10Z</time>
      </trkpt>
      <trkpt lat="42.479671" lon="1.578354">
        <time>2020-08-22T11:56:10Z</time>
      </trkpt>
      <trkpt lat="42.479668" lon="1.578353">
        <time>2020-08-22T11:56:17Z</time>
      </trkpt>
      <trkpt lat="42.479668" lon="1.578353">
        <time>2020-08-22T11:56:17Z</time>
      </trkpt>
      <trkpt lat="42.479668" lon="1.578349">
        <time>2020-08-22T11:56:17Z</time>
      </trkpt>
      <trkpt lat="42.479668" lon="1.578349">
        <time>2020-08-22T11:56:17Z</time>
      </trkpt>
      <trkpt lat="42.479664" lon="1.578343">
        <time>2020-08-22T11:56:17Z</time>
      </trkpt>
      <trkpt lat="42.479664" lon="1.578343">
        <time>2020-08-22T11:56:17Z</time>
      </trkpt>
      <trkpt lat="42.479660" lon="1.578334">
        <time>2020-08-22T11:56:17Z</time>
      </trkpt>
      <trkpt lat="42.479660" lon="1.578334">
        <time>2020-08-22T11:56:17Z</time>
      </trkpt>
      <trkpt lat="42.479656" lon="1.578324">
        <time>2020-08-22T11:56:17Z</time>
      </trkpt>
      <trkpt lat="42.479656" lon="1.578324">
        <time>2020-08-22T11:56:17Z</time>
      </trkpt>
      <trkpt lat="42.479652" lon="1.578314">
        <time>2020-08-22T11:56:17Z</time>
      </trkpt>
      <trkpt lat="42.479652" lon="1.578314">
        <time>2020-08-22T11:56:17Z</time>
      </trkpt>
      <trkpt lat="42.479649" lon="1.578303">
        <time>2020-08-22T11:56:17Z</time>
      </trkpt>
      <trkpt lat="42.479649" lon="1.578303">
        <time>2020-08-22T11:56:17Z</time>
      </trkpt>
      <trkpt lat="42.479645" lon="1.578292">
        <time>2020-08-22T11:56:25Z</time>
      </trkpt>
      <trkpt lat="42.479645" lon="1.578292">
        <time>2020-08-22T11:56:25Z</time>
      </trkpt>
      <trkpt lat="42.479641" lon="1.578281">
        <time>2020-08-22T11:56:25Z</time>
      </trkpt>
      <trkpt lat="42.479641" lon="1.578281">
        <time>2020-08-22T11:56:25Z</time>
      </trkpt>
      <trkpt lat="42.479641" lon="1.578269">
        <time>2020-08-22T11:56:25Z</time>
      </trkpt>
      <trkpt lat="42.479641" lon="1.578269">
        <time>2020-08-22T11:56:25Z</time>
      </trkpt>
      <trkpt lat="42.479637" lon="1.578258">
        <time>2020-08-22T11:56:25Z</time>
      </trkpt>
      <trkpt lat="42.479637" lon="1.578258">
        <time>2020-08-22T11:56:25Z</time>
      </trkpt>
      <trkpt lat="42.479633" lon="1.578248">
        <time>2020-08-22T11:56:25Z</time>
      </trkpt>
      <trkpt lat="42.479633" lon="1.578248">
        <time>2020-08-22T11:56:25Z</time>
      </trkpt>
      <trkpt lat="42.479633" lon="1.578237">
        <time>2020-08-22T11:56:25Z</time>
      </trkpt>
      <trkpt lat="42.479633" lon="1.578237">
        <time>2020-08-22T11:56:25Z</time>
      </trkpt>
      <trkpt lat="42.479633" lon="1.578225">
        <time>2020-08-22T11:56:25Z</time>
      </trkpt>
      <trkpt lat="42.479633" lon="1.578225">
        <time>2020-08-22T11:56:25Z</time>
      </trkpt>
      <trkpt lat="42.479633" lon="1.578213">
        <time>2020-08-22T11:56:25Z</time>
      </trkpt>
      <trkpt lat="42.479633" lon="1.578213">
        <time>2020-08-22T11:56:25Z</time>
      </trkpt>
      <trkpt lat="42.479633" lon="1.578202">
        <time>2020-08-22T11:56:25Z</time>
      </trkpt>
      <trkpt lat="42.479633" lon="1.578202">
        <time>2020-08-22T11:56:25Z</time>
      </trkpt>
      <trkpt lat="42.479630" lon="1.578189">
        <time>2020-08-22T11:56:25Z</time>
      </trkpt>
      <trkpt lat="42.479630" lon="1.578189">
        <time>2020-08-22T11:56:25Z</time>
      </trkpt>
      <trkpt lat="42.479630" lon="1.578177">
        <time>2020-08-22T11:56:25Z</time>
      </trkpt>
      <trkpt lat="42.479630" lon="1.578177">
        <time>2020-08-22T11:56:25Z</time>
      </trkpt>
      <trkpt lat="42.479626" lon="1.578165">
        <time>2020-08-22T11:56:25Z</time>
      </trkpt>
      <trkpt lat="42.479626" lon="1.578165">
        <time>2020-08-22T11:56:25Z</time>
      </trkpt>
      <trkpt lat="42.479626" lon="1.578153">
        <time>2020-08-22T11:56:25Z</time>
      </trkpt>
      <trkpt lat="42.479626" lon="1.578153">
        <time>2020-08-22T11:56:25Z</time>
      </trkpt>
      <trkpt lat="42.479622" lon="1.578141">
        <time>2020-08-22T11:56:25Z</time>
      </trkpt>
      <trkpt lat="42.479622" lon="1.578141">
        <time>2020-08-22T11:56:25Z</time>
      </trkpt>
      <trkpt lat="42.479614" lon="1.578130">
        <time>2020-08-22T11:56:32Z</time>
      </trkpt>
      <trkpt lat="42.479614" lon="1.578130">
        <time>2020-08-22T11:56:32Z</time>
      </trkpt>
      <trkpt lat="42.479610" lon="1.578119">
        <time>2020-08-22T11:56:32Z</time>
      </trkpt>
      <trkpt lat="42.479610" lon="1.578119">
        <time>2020-08-22T11:56:32Z</time>
      </trkpt>
      <trkpt lat="42.479607" lon="1.578110">
        <time>2020-08-22T11:56:32Z</time>
      </trkpt>
      <trkpt lat="42.479607" lon="1.578110">
        <time>2020-08-22T11:56:32Z</time>
      </trkpt>
      <trkpt lat="42.479603" lon="1.578101">
        <time>2020-08-22T11:56:32Z</time>
      </trkpt>
      <trkpt lat="42.479603" lon="1.578101">
        <time>2020-08-22T11:56:32Z</time>
      </trkpt>
      <trkpt lat="42.479599" lon="1.578093">
        <time>2020-08-22T11:56:32Z</time>
      </trkpt>
      <trkpt lat="42.479599" lon="1.578093">
        <time>2020-08-22T11:56:32Z</time>
      </trkpt>
      <trkpt lat="42.479591" lon="1.578086">
        <time>2020-08-22T11:56:32Z</time>
      </trkpt>
      <trkpt lat="42.479591" lon="1.578086">
        <time>2020-08-22T11:56:32Z</time>
      </trkpt>
      <trkpt lat="42.479588" lon="1.578080">
        <time>2020-08-22T11:56:32Z</time>
      </trkpt>
      <trkpt lat="42.479588" lon="1.578080">
        <time>2020-08-22T11:56:32Z</time>
      </trkpt>
      <trkpt lat="42.479584" lon="1.578075">
        <time>2020-08-22T11:56:40Z</time>
      </trkpt>
      <trkpt lat="42.479584" lon="1.578075">
        <time>2020-08-22T11:56:40Z</time>
      </trkpt>
      <trkpt lat="42.479580" lon="1.578070">
        <time>2020-08-22T11:56:40Z</time>
      </trkpt>
      <trkpt lat="42.479580" lon="1.578070">
        <time>2020-08-22T11:56:40Z</time>
      </trkpt>
      <trkpt lat="42.479572" lon="1.578065">
        <time>2020-08-22T11:56:40Z</time>
      </trkpt>
      <trkpt lat="42.479572" lon="1.578065">
        <time>2020-08-22T11:56:40Z</time>
      </trkpt>
      <trkpt lat="42.479568" lon="1.578061">
        <time>2020-08-22T11:56:40Z</time>
      </trkpt>
      <trkpt lat="42.479568" lon="1.578061">
        <time>2020-08-22T11:56:40Z</time>
      </trkpt>
      <trkpt lat="42.479561" lon="1.578057">
        <time>2020-08-22T11:56:40Z</time>
      </trkpt>
      <trkpt lat="42.479561" lon="1.578057">
        <time>2020-08-22T11:56:40Z</time>
      </trkpt>
      <trkpt lat="42.479553" lon="1.578047">
        <time>2020-08-22T11:56:40Z</time>
      </trkpt>
      <trkpt lat="42.479553" lon="1.578047">
        <time>2020-08-22T11:56:40Z</time>
      </trkpt>
      <trkpt lat="42.479546" lon="1.578037">
        <time>2020-08-22T11:56:40Z</time>
      </trkpt>
      <trkpt lat="42.479546" lon="1.578037">
        <time>2020-08-22T11:56:40Z</time>
      </trkpt>
      <trkpt lat="42.479538" lon="1.578027">
        <time>2020-08-22T11:56:40Z</time>
      </trkpt>
      <trkpt lat="42.479538" lon="1.578027">
        <time>2020-08-22T11:56:40Z</time>
      </trkpt>
      <trkpt lat="42.479530" lon="1.578016">
        <time>2020-08-22T11:56:40Z</time>
      </trkpt>
      <trkpt lat="42.479530" lon="1.578016">
        <time>2020-08-22T11:56:40Z</time>
      </trkpt>
      <trkpt lat="42.479523" lon="1.578005">
        <time>2020-08-22T11:56:40Z</time>
      </trkpt>
      <trkpt lat="42.479523" lon="1.578005">
        <time>2020-08-22T11:56:40Z</time>
      </trkpt>
      <trkpt lat="42.479515" lon="1.577993">
        <time>2020-08-22T11:56:47Z</time>
      </trkpt>
      <trkpt lat="42.479515" lon="1.577993">
        <time>2020-08-22T11:56:47Z</time>
      </trkpt>
      <trkpt lat="42.479507" lon="1.577981">
        <time>2020-08-22T11:56:47Z</time>
      </trkpt>
      <trkpt lat="42.479507" lon="1.577981">
        <time>2020-08-22T11:56:47Z</time>
      </trkpt>
      <trkpt lat="42.479500" lon="1.577968">
        <time>2020-08-22T11:56:47Z</time>
      </trkpt>
      <trkpt lat="42.479500" lon="1.577968">
        <time>2020-08-22T11:56:47Z</time>
      </trkpt>
      <trkpt lat="42.479488" lon="1.577954">
        <time>2020-08-22T11:56:47Z</time>
      </trkpt>
      <trkpt lat="42.479488" lon="1.577954">
        <time>2020-08-22T11:56:47Z</time>
      </trkpt>
      <trkpt lat="42.479481" lon="1.577939">
        <time>2020-08-22T11:56:47Z</time>
      </trkpt>
      <trkpt lat="42.479481" lon="1.577939">
        <time>2020-08-22T11:56:47Z</time>
      </trkpt>
      <trkpt lat="42.479473" lon="1.577931">
        <time>2020-08-22T11:56:47Z</time>
      </trkpt>
      <trkpt lat="42.479473" lon="1.577931">
        <time>2020-08-22T11:56:47Z</time>
      </trkpt>
      <trkpt lat="42.479465" lon="1.577922">
        <time>2020-08-22T11:56:47Z</time>
      </trkpt>
      <trkpt lat="42.479465" lon="1.577922">
        <time>2020-08-22T11:56:47Z</time>
      </trkpt>
      <trkpt lat="42.479458" lon="1.577913">
        <time>2020-08-22T11:56:54Z</time>
      </trkpt>
      <trkpt lat="42.479458" lon="1.577913">
        <time>2020-08-22T11:56:54Z</time>
      </trkpt>
      <trkpt lat="42.479450" lon="1.577905">
        <time>2020-08-22T11:56:54Z</time>
      </trkpt>
      <trkpt lat="42.479450" lon="1.577905">
        <time>2020-08-22T11:56:54Z</time>
      </trkpt>
      <trkpt lat="42.479439" lon="1.577898">
        <time>2020-08-22T11:56:54Z</time>
      </trkpt>
      <trkpt lat="42.479439" lon="1.577898">
        <time>2020-08-22T11:56:54Z</time>
      </trkpt>
      <trkpt lat="42.479431" lon="1.577890">
        <time>2020-08-22T11:56:54Z</time>
      </trkpt>
      <trkpt lat="42.479431" lon="1.577890">
        <time>2020-08-22T11:56:54Z</time>
      </trkpt>
      <trkpt lat="42.479424" lon="1.577882">
        <time>2020-08-22T11:56:54Z</time>
      </trkpt>
      <trkpt lat="42.479424" lon="1.577882">
        <time>2020-08-22T11:56:54Z</time>
      </trkpt>
      <trkpt lat="42.479416" lon="1.577874">
        <time>2020-08-22T11:56:54Z</time>
      </trkpt>
      <trkpt lat="42.479416" lon="1.577874">
        <time>2020-08-22T11:56:54Z</time>
      </trkpt>
      <trkpt lat="42.479404" lon="1.577866">
        <time>2020-08-22T11:56:54Z</time>
      </trkpt>
      <trkpt lat="42.479404" lon="1.577866">
        <time>2020-08-22T11:56:54Z</time>
      </trkpt>
      <trkpt lat="42.479397" lon="1.577858">
        <time>2020-08-22T11:57:01Z</time>
      </trkpt>
      <trkpt lat="42.479397" lon="1.577858">
        <time>2020-08-22T11:57:01Z</time>
      </trkpt>
      <trkpt lat="42.479382" lon="1.577846">
        <time>2020-08-22T11:57:01Z</time>
      </trkpt>
      <trkpt lat="42.479382" lon="1.577846">
        <time>2020-08-22T11:57:01Z</time>
      </trkpt>
      <trkpt lat="42.479362" lon="1.577835">
        <time>2020-08-22T11:57:01Z</time>
      </trkpt>
      <trkpt lat="42.479362" lon="1.577835">
        <time>2020-08-22T11:57:01Z</time>
      </trkpt>
      <trkpt lat="42.479256" lon="1.577811">
        <time>2020-08-22T11:57:01Z</time>
      </trkpt>
      <trkpt lat="42.479256" lon="1.577811">
        <time>2020-08-22T11:57:01Z</time>
      </trkpt>
      <trkpt lat="42.479252" lon="1.577812">
        <time>2020-08-22T11:57:01Z</time>
      </trkpt>
      <trkpt lat="42.479252" lon="1.577812">
        <time>2020-08-22T11:57:01Z</time>
      </trkpt>
      <trkpt lat="42.479252" lon="1.577814">
        <time>2020-08-22T11:57:08Z</time>
      </trkpt>
      <trkpt lat="42.479252" lon="1.577814">
        <time>2020-08-22T11:57:08Z</time>
      </trkpt>
      <trkpt lat="42.479244" lon="1.577815">
        <time>2020-08-22T11:57:08Z</time>
      </trkpt>
      <trkpt lat="42.479244" lon="1.577815">
        <time>2020-08-22T11:57:08Z</time>
      </trkpt>
      <trkpt lat="42.479244" lon="1.577816">
        <time>2020-08-22T11:57:08Z</time>
      </trkpt>
      <trkpt lat="42.479244" lon="1.577816">
        <time>2020-08-22T11:57:08Z</time>
      </trkpt>
      <trkpt lat="42.479237" lon="1.577817">
        <time>2020-08-22T11:57:08Z</time>
      </trkpt>
      <trkpt lat="42.479237" lon="1.577817">
        <time>2020-08-22T11:57:08Z</time>
      </trkpt>
      <trkpt lat="42.479233" lon="1.577817">
        <time>2020-08-22T11:57:08Z</time>
      </trkpt>
      <trkpt lat="42.479233" lon="1.577817">
        <time>2020-08-22T11:57:08Z</time>
      </trkpt>
      <trkpt lat="42.479229" lon="1.577816">
        <time>2020-08-22T11:57:08Z</time>
      </trkpt>
      <trkpt lat="42.479229" lon="1.577816">
        <time>2020-08-22T11:57:08Z</time>
      </trkpt>
      <trkpt lat="42.479225" lon="1.577815">
        <time>2020-08-22T11:57:08Z</time>
      </trkpt>
      <trkpt lat="42.479225" lon="1.577815">
        <time>2020-08-22T11:57:08Z</time>
      </trkpt>
      <trkpt lat="42.479221" lon="1.577813">
        <time>2020-08-22T11:57:15Z</time>
      </trkpt>
      <trkpt lat="42.479221" lon="1.577813">
        <time>2020-08-22T11:57:15Z</time>
      </trkpt>
      <trkpt lat="42.479218" lon="1.577811">
        <time>2020-08-22T11:57:15Z</time>
      </trkpt>
      <trkpt lat="42.479218" lon="1.577811">
        <time>2020-08-22T11:57:15Z</time>
      </trkpt>
      <trkpt lat="42.479210" lon="1.577807">
        <time>2020-08-22T11:57:15Z</time>
      </trkpt>
      <trkpt lat="42.479210" lon="1.577807">
        <time>2020-08-22T11:57:15Z</time>
      </trkpt>
      <trkpt lat="42.479198" lon="1.577802">
        <time>2020-08-22T11:57:15Z</time>
      </trkpt>
      <trkpt lat="42.479198" lon="1.577802">
        <time>2020-08-22T11:57:15Z</time>
      </trkpt>
      <trkpt lat="42.479191" lon="1.577797">
        <time>2020-08-22T11:57:15Z</time>
      </trkpt>
      <trkpt lat="42.479191" lon="1.577797">
        <time>2020-08-22T11:57:15Z</time>
      </trkpt>
      <trkpt lat="42.479183" lon="1.577791">
        <time>2020-08-22T11:57:15Z</time>
      </trkpt>
      <trkpt lat="42.479183" lon="1.577791">
        <time>2020-08-22T11:57:15Z</time>
      </trkpt>
      <trkpt lat="42.479179" lon="1.577783">
        <time>2020-08-22T11:57:15Z</time>
      </trkpt>
      <trkpt lat="42.479179" lon="1.577783">
        <time>2020-08-22T11:57:15Z</time>
      </trkpt>
      <trkpt lat="42.479172" lon="1.577776">
        <time>2020-08-22T11:57:22Z</time>
      </trkpt>
      <trkpt lat="42.479172" lon="1.577776">
        <time>2020-08-22T11:57:22Z</time>
      </trkpt>
      <trkpt lat="42.479164" lon="1.577767">
        <time>2020-08-22T11:57:22Z</time>
      </trkpt>
      <trkpt lat="42.479164" lon="1.577767">
        <time>2020-08-22T11:57:22Z</time>
      </trkpt>
      <trkpt lat="42.479156" lon="1.577758">
        <time>2020-08-22T11:57:22Z</time>
      </trkpt>
      <trkpt lat="42.479156" lon="1.577758">
        <time>2020-08-22T11:57:22Z</time>
      </trkpt>
      <trkpt lat="42.479145" lon="1.577750">
        <time>2020-08-22T11:57:22Z</time>
      </trkpt>
      <trkpt lat="42.479145" lon="1.577750">
        <time>2020-08-22T11:57:22Z</time>
      </trkpt>
      <trkpt lat="42.479137" lon="1.577742">
        <time>2020-08-22T11:57:22Z</time>
      </trkpt>
      <trkpt lat="42.479137" lon="1.577742">
        <time>2020-08-22T11:57:22Z</time>
      </trkpt>
      <trkpt lat="42.479130" lon="1.577734">
        <time>2020-08-22T11:57:22Z</time>
      </trkpt>
      <trkpt lat="42.479130" lon="1.577734">
        <time>2020-08-22T11:57:22Z</time>
      </trkpt>
      <trkpt lat="42.479118" lon="1.577726">
        <time>2020-08-22T11:57:22Z</time>
      </trkpt>
      <trkpt lat="42.479118" lon="1.577726">
        <time>2020-08-22T11:57:22Z</time>
      </trkpt>
      <trkpt lat="42.479111" lon="1.577717">
        <time>2020-08-22T11:57:30Z</time>
      </trkpt>
      <trkpt lat="42.479111" lon="1.577717">
        <time>2020-08-22T11:57:30Z</time>
      </trkpt>
      <trkpt lat="42.479103" lon="1.577709">
        <time>2020-08-22T11:57:30Z</time>
      </trkpt>
      <trkpt lat="42.479103" lon="1.577709">
        <time>2020-08-22T11:57:30Z</time>
      </trkpt>
      <trkpt lat="42.479092" lon="1.577701">
        <time>2020-08-22T11:57:30Z</time>
      </trkpt>
      <trkpt lat="42.479092" lon="1.577701">
        <time>2020-08-22T11:57:30Z</time>
      </trkpt>
      <trkpt lat="42.479080" lon="1.577694">
        <time>2020-08-22T11:57:30Z</time>
      </trkpt>
      <trkpt lat="42.479080" lon="1.577694">
        <time>2020-08-22T11:57:30Z</time>
      </trkpt>
      <trkpt lat="42.479073" lon="1.577688">
        <time>2020-08-22T11:57:30Z</time>
      </trkpt>
      <trkpt lat="42.479073" lon="1.577688">
        <time>2020-08-22T11:57:30Z</time>
      </trkpt>
      <trkpt lat="42.479061" lon="1.577683">
        <time>2020-08-22T11:57:30Z</time>
      </trkpt>
      <trkpt lat="42.479061" lon="1.577683">
        <time>2020-08-22T11:57:30Z</time>
      </trkpt>
      <trkpt lat="42.479050" lon="1.577678">
        <time>2020-08-22T11:57:37Z</time>
      </trkpt>
      <trkpt lat="42.479050" lon="1.577678">
        <time>2020-08-22T11:57:37Z</time>
      </trkpt>
      <trkpt lat="42.479038" lon="1.577674">
        <time>2020-08-22T11:57:37Z</time>
      </trkpt>
      <trkpt lat="42.479038" lon="1.577674">
        <time>2020-08-22T11:57:37Z</time>
      </trkpt>
      <trkpt lat="42.479031" lon="1.577671">
        <time>2020-08-22T11:57:37Z</time>
      </trkpt>
      <trkpt lat="42.479031" lon="1.577671">
        <time>2020-08-22T11:57:37Z</time>
      </trkpt>
      <trkpt lat="42.479023" lon="1.577668">
        <time>2020-08-22T11:57:37Z</time>
      </trkpt>
      <trkpt lat="42.479023" lon="1.577668">
        <time>2020-08-22T11:57:37Z</time>
      </trkpt>
      <trkpt lat="42.479015" lon="1.577665">
        <time>2020-08-22T11:57:37Z</time>
      </trkpt>
      <trkpt lat="42.479015" lon="1.577665">
        <time>2020-08-22T11:57:37Z</time>
      </trkpt>
      <trkpt lat="42.479008" lon="1.577662">
        <time>2020-08-22T11:57:37Z</time>
      </trkpt>
      <trkpt lat="42.479008" lon="1.577662">
        <time>2020-08-22T11:57:37Z</time>
      </trkpt>
      <trkpt lat="42.479000" lon="1.577659">
        <time>2020-08-22T11:57:37Z</time>
      </trkpt>
      <trkpt lat="42.479000" lon="1.577659">
        <time>2020-08-22T11:57:37Z</time>
      </trkpt>
      <trkpt lat="42.478996" lon="1.577655">
        <time>2020-08-22T11:57:44Z</time>
      </trkpt>
      <trkpt lat="42.478996" lon="1.577655">
        <time>2020-08-22T11:57:44Z</time>
      </trkpt>
      <trkpt lat="42.478985" lon="1.577651">
        <time>2020-08-22T11:57:44Z</time>
      </trkpt>
      <trkpt lat="42.478985" lon="1.577651">
        <time>2020-08-22T11:57:44Z</time>
      </trkpt>
      <trkpt lat="42.478981" lon="1.577646">
        <time>2020-08-22T11:57:44Z</time>
      </trkpt>
      <trkpt lat="42.478981" lon="1.577646">
        <time>2020-08-22T11:57:44Z</time>
      </trkpt>
      <trkpt lat="42.478977" lon="1.577640">
        <time>2020-08-22T11:57:44Z</time>
      </trkpt>
      <trkpt lat="42.478977" lon="1.577640">
        <time>2020-08-22T11:57:44Z</time>
      </trkpt>
      <trkpt lat="42.478970" lon="1.577635">
        <time>2020-08-22T11:57:44Z</time>
      </trkpt>
      <trkpt lat="42.478970" lon="1.577635">
        <time>2020-08-22T11:57:44Z</time>
      </trkpt>
      <trkpt lat="42.478962" lon="1.577629">
        <time>2020-08-22T11:57:44Z</time>
      </trkpt>
      <trkpt lat="42.478962" lon="1.577629">
        <time>2020-08-22T11:57:44Z</time>
      </trkpt>
      <trkpt lat="42.478958" lon="1.577622">
        <time>2020-08-22T11:57:44Z</time>
      </trkpt>
      <trkpt lat="42.478958" lon="1.577622">
        <time>2020-08-22T11:57:44Z</time>
      </trkpt>
      <trkpt lat="42.478950" lon="1.577616">
        <time>2020-08-22T11:57:51Z</time>
      </trkpt>
      <trkpt lat="42.478950" lon="1.577616">
        <time>2020-08-22T11:57:51Z</time>
      </trkpt>
      <trkpt lat="42.478943" lon="1.577609">
        <time>2020-08-22T11:57:51Z</time>
      </trkpt>
      <trkpt lat="42.478943" lon="1.577609">
        <time>2020-08-22T11:57:51Z</time>
      </trkpt>
      <trkpt lat="42.478935" lon="1.577602">
        <time>2020-08-22T11:57:51Z</time>
      </trkpt>
      <trkpt lat="42.478935" lon="1.577602">
        <time>2020-08-22T11:57:51Z</time>
      </trkpt>
      <trkpt lat="42.478928" lon="1.577594">
        <time>2020-08-22T11:57:51Z</time>
      </trkpt>
      <trkpt lat="42.478928" lon="1.577594">
        <time>2020-08-22T11:57:51Z</time>
      </trkpt>
      <trkpt lat="42.478920" lon="1.577585">
        <time>2020-08-22T11:57:51Z</time>
      </trkpt>
      <trkpt lat="42.478920" lon="1.577585">
        <time>2020-08-22T11:57:51Z</time>
      </trkpt>
      <trkpt lat="42.478912" lon="1.577576">
        <time>2020-08-22T11:57:51Z</time>
      </trkpt>
      <trkpt lat="42.478912" lon="1.577576">
        <time>2020-08-22T11:57:51Z</time>
      </trkpt>
      <trkpt lat="42.478909" lon="1.577566">
        <time>2020-08-22T11:57:51Z</time>
      </trkpt>
      <trkpt lat="42.478909" lon="1.577566">
        <time>2020-08-22T11:57:51Z</time>
      </trkpt>
      <trkpt lat="42.478897" lon="1.577555">
        <time>2020-08-22T11:57:58Z</time>
      </trkpt>
      <trkpt lat="42.478897" lon="1.577555">
        <time>2020-08-22T11:57:58Z</time>
      </trkpt>
      <trkpt lat="42.478889" lon="1.577545">
        <time>2020-08-22T11:57:58Z</time>
      </trkpt>
      <trkpt lat="42.478889" lon="1.577545">
        <time>2020-08-22T11:57:58Z</time>
      </trkpt>
      <trkpt lat="42.478886" lon="1.577534">
        <time>2020-08-22T11:57:58Z</time>
      </trkpt>
      <trkpt lat="42.478886" lon="1.577534">
        <time>2020-08-22T11:57:58Z</time>
      </trkpt>
      <trkpt lat="42.478878" lon="1.577523">
        <time>2020-08-22T11:57:58Z</time>
      </trkpt>
      <trkpt lat="42.478878" lon="1.577523">
        <time>2020-08-22T11:57:58Z</time>
      </trkpt>
      <trkpt lat="42.478870" lon="1.577512">
        <time>2020-08-22T11:57:58Z</time>
      </trkpt>
      <trkpt lat="42.478870" lon="1.577512">
        <time>2020-08-22T11:57:58Z</time>
      </trkpt>
      <trkpt lat="42.478863" lon="1.577500">
        <time>2020-08-22T11:57:58Z</time>
      </trkpt>
      <trkpt lat="42.478863" lon="1.577500">
        <time>2020-08-22T11:57:58Z</time>
      </trkpt>
      <trkpt lat="42.478855" lon="1.577489">
        <time>2020-08-22T11:57:58Z</time>
      </trkpt>
      <trkpt lat="42.478855" lon="1.577489">
        <time>2020-08-22T11:57:58Z</time>
      </trkpt>
      <trkpt lat="42.478847" lon="1.577478">
        <time>2020-08-22T11:58:05Z</time>
      </trkpt>
      <trkpt lat="42.478847" lon="1.577478">
        <time>2020-08-22T11:58:05Z</time>
      </trkpt>
      <trkpt lat="42.478844" lon="1.577468">
        <time>2020-08-22T11:58:05Z</time>
      </trkpt>
      <trkpt lat="42.478844" lon="1.577468">
        <time>2020-08-22T11:58:05Z</time>
      </trkpt>
      <trkpt lat="42.478836" lon="1.577457">
        <time>2020-08-22T11:58:05Z</time>
      </trkpt>
      <trkpt lat="42.478836" lon="1.577457">
        <time>2020-08-22T11:58:05Z</time>
      </trkpt>
      <trkpt lat="42.478828" lon="1.577446">
        <time>2020-08-22T11:58:05Z</time>
      </trkpt>
      <trkpt lat="42.478828" lon="1.577446">
        <time>2020-08-22T11:58:05Z</time>
      </trkpt>
      <trkpt lat="42.478817" lon="1.577436">
        <time>2020-08-22T11:58:05Z</time>
      </trkpt>
      <trkpt lat="42.478817" lon="1.577436">
        <time>2020-08-22T11:58:05Z</time>
      </trkpt>
      <trkpt lat="42.478809" lon="1.577426">
        <time>2020-08-22T11:58:05Z</time>
      </trkpt>
      <trkpt lat="42.478809" lon="1.577426">
        <time>2020-08-22T11:58:05Z</time>
      </trkpt>
      <trkpt lat="42.478802" lon="1.577418">
        <time>2020-08-22T11:58:12Z</time>
      </trkpt>
      <trkpt lat="42.478802" lon="1.577418">
        <time>2020-08-22T11:58:12Z</time>
      </trkpt>
      <trkpt lat="42.478794" lon="1.577411">
        <time>2020-08-22T11:58:12Z</time>
      </trkpt>
      <trkpt lat="42.478794" lon="1.577411">
        <time>2020-08-22T11:58:12Z</time>
      </trkpt>
      <trkpt lat="42.478783" lon="1.577405">
        <time>2020-08-22T11:58:12Z</time>
      </trkpt>
      <trkpt lat="42.478783" lon="1.577405">
        <time>2020-08-22T11:58:12Z</time>
      </trkpt>
      <trkpt lat="42.478779" lon="1.577401">
        <time>2020-08-22T11:58:12Z</time>
      </trkpt>
      <trkpt lat="42.478779" lon="1.577401">
        <time>2020-08-22T11:58:12Z</time>
      </trkpt>
      <trkpt lat="42.478771" lon="1.577398">
        <time>2020-08-22T11:58:12Z</time>
      </trkpt>
      <trkpt lat="42.478771" lon="1.577398">
        <time>2020-08-22T11:58:12Z</time>
      </trkpt>
      <trkpt lat="42.478764" lon="1.577396">
        <time>2020-08-22T11:58:12Z</time>
      </trkpt>
      <trkpt lat="42.478764" lon="1.577396">
        <time>2020-08-22T11:58:12Z</time>
      </trkpt>
      <trkpt lat="42.478756" lon="1.577396">
        <time>2020-08-22T11:58:19Z</time>
      </trkpt>
      <trkpt lat="42.478756" lon="1.577396">
        <time>2020-08-22T11:58:19Z</time>
      </trkpt>
      <trkpt lat="42.478752" lon="1.577394">
        <time>2020-08-22T11:58:19Z</time>
      </trkpt>
      <trkpt lat="42.478752" lon="1.577394">
        <time>2020-08-22T11:58:19Z</time>
      </trkpt>
      <trkpt lat="42.478748" lon="1.577391">
        <time>2020-08-22T11:58:19Z</time>
      </trkpt>
      <trkpt lat="42.478748" lon="1.577391">
        <time>2020-08-22T11:58:19Z</time>
      </trkpt>
      <trkpt lat="42.478744" lon="1.577389">
        <time>2020-08-22T11:58:28Z</time>
      </trkpt>
      <trkpt lat="42.478744" lon="1.577389">
        <time>2020-08-22T11:58:28Z</time>
      </trkpt>
      <trkpt lat="42.478741" lon="1.577387">
        <time>2020-08-22T11:58:28Z</time>
      </trkpt>
      <trkpt lat="42.478741" lon="1.577387">
        <time>2020-08-22T11:58:28Z</time>
      </trkpt>
      <trkpt lat="42.478737" lon="1.577386">
        <time>2020-08-22T11:58:28Z</time>
      </trkpt>
      <trkpt lat="42.478737" lon="1.577386">
        <time>2020-08-22T11:58:28Z</time>
      </trkpt>
      <trkpt lat="42.478729" lon="1.577384">
        <time>2020-08-22T11:58:28Z</time>
      </trkpt>
      <trkpt lat="42.478729" lon="1.577384">
        <time>2020-08-22T11:58:28Z</time>
      </trkpt>
      <trkpt lat="42.478722" lon="1.577382">
        <time>2020-08-22T11:58:28Z</time>
      </trkpt>
      <trkpt lat="42.478722" lon="1.577382">
        <time>2020-08-22T11:58:28Z</time>
      </trkpt>
      <trkpt lat="42.478710" lon="1.577380">
        <time>2020-08-22T11:58:28Z</time>
      </trkpt>
      <trkpt lat="42.478710" lon="1.577380">
        <time>2020-08-22T11:58:28Z</time>
      </trkpt>
      <trkpt lat="42.478703" lon="1.577378">
        <time>2020-08-22T11:58:35Z</time>
      </trkpt>
      <trkpt lat="42.478703" lon="1.577378">
        <time>2020-08-22T11:58:35Z</time>
      </trkpt>
      <trkpt lat="42.478695" lon="1.577376">
        <time>2020-08-22T11:58:35Z</time>
      </trkpt>
      <trkpt lat="42.478695" lon="1.577376">
        <time>2020-08-22T11:58:35Z</time>
      </trkpt>
      <trkpt lat="42.478680" lon="1.577378">
        <time>2020-08-22T11:58:35Z</time>
      </trkpt>
      <trkpt lat="42.478680" lon="1.577378">
        <time>2020-08-22T11:58:35Z</time>
      </trkpt>
      <trkpt lat="42.478668" lon="1.577379">
        <time>2020-08-22T11:58:35Z</time>
      </trkpt>
      <trkpt lat="42.478668" lon="1.577379">
        <time>2020-08-22T11:58:35Z</time>
      </trkpt>
      <trkpt lat="42.478649" lon="1.577380">
        <time>2020-08-22T11:58:35Z</time>
      </trkpt>
      <trkpt lat="42.478649" lon="1.577380">
        <time>2020-08-22T11:58:35Z</time>
      </trkpt>
      <trkpt lat="42.478638" lon="1.577381">
        <time>2020-08-22T11:58:35Z</time>
      </trkpt>
      <trkpt lat="42.478638" lon="1.577381">
        <time>2020-08-22T11:58:35Z</time>
      </trkpt>
      <trkpt lat="42.478622" lon="1.577381">
        <time>2020-08-22T11:58:35Z</time>
      </trkpt>
      <trkpt lat="42.478622" lon="1.577381">
        <time>2020-08-22T11:58:35Z</time>
      </trkpt>
      <trkpt lat="42.478607" lon="1.577380">
        <time>2020-08-22T11:58:42Z</time>
      </trkpt>
      <trkpt lat="42.478607" lon="1.577380">
        <time>2020-08-22T11:58:42Z</time>
      </trkpt>
      <trkpt lat="42.478596" lon="1.577380">
        <time>2020-08-22T11:58:42Z</time>
      </trkpt>
      <trkpt lat="42.478596" lon="1.577380">
        <time>2020-08-22T11:58:42Z</time>
      </trkpt>
      <trkpt lat="42.478580" lon="1.577379">
        <time>2020-08-22T11:58:42Z</time>
      </trkpt>
      <trkpt lat="42.478580" lon="1.577379">
        <time>2020-08-22T11:58:42Z</time>
      </trkpt>
      <trkpt lat="42.478569" lon="1.577377">
        <time>2020-08-22T11:58:42Z</time>
      </trkpt>
      <trkpt lat="42.478569" lon="1.577377">
        <time>2020-08-22T11:58:42Z</time>
      </trkpt>
      <trkpt lat="42.478561" lon="1.577376">
        <time>2020-08-22T11:58:42Z</time>
      </trkpt>
      <trkpt lat="42.478561" lon="1.577376">
        <time>2020-08-22T11:58:42Z</time>
      </trkpt>
      <trkpt lat="42.478554" lon="1.577374">
        <time>2020-08-22T11:58:42Z</time>
      </trkpt>
      <trkpt lat="42.478554" lon="1.577374">
        <time>2020-08-22T11:58:42Z</time>
      </trkpt>
      <trkpt lat="42.478542" lon="1.577371">
        <time>2020-08-22T11:58:42Z</time>
      </trkpt>
      <trkpt lat="42.478542" lon="1.577371">
        <time>2020-08-22T11:58:42Z</time>
      </trkpt>
      <trkpt lat="42.478539" lon="1.577368">
        <time>2020-08-22T11:58:42Z</time>
      </trkpt>
      <trkpt lat="42.478539" lon="1.577368">
        <time>2020-08-22T11:58:42Z</time>
      </trkpt>
      <trkpt lat="42.478535" lon="1.577365">
        <time>2020-08-22T11:58:42Z</time>
      </trkpt>
      <trkpt lat="42.478535" lon="1.577365">
        <time>2020-08-22T11:58:42Z</time>
      </trkpt>
      <trkpt lat="42.478527" lon="1.577361">
        <time>2020-08-22T11:58:42Z</time>
      </trkpt>
      <trkpt lat="42.478527" lon="1.577361">
        <time>2020-08-22T11:58:42Z</time>
      </trkpt>
      <trkpt lat="42.478527" lon="1.577358">
        <time>2020-08-22T11:58:49Z</time>
      </trkpt>
      <trkpt lat="42.478527" lon="1.577358">
        <time>2020-08-22T11:58:49Z</time>
      </trkpt>
      <trkpt lat="42.478523" lon="1.577354">
        <time>2020-08-22T11:58:49Z</time>
      </trkpt>
      <trkpt lat="42.478523" lon="1.577354">
        <time>2020-08-22T11:58:49Z</time>
      </trkpt>
      <trkpt lat="42.478519" lon="1.577350">
        <time>2020-08-22T11:58:49Z</time>
      </trkpt>
      <trkpt lat="42.478519" lon="1.577350">
        <time>2020-08-22T11:58:49Z</time>
      </trkpt>
      <trkpt lat="42.478516" lon="1.577345">
        <time>2020-08-22T11:58:49Z</time>
      </trkpt>
      <trkpt lat="42.478516" lon="1.577345">
        <time>2020-08-22T11:58:49Z</time>
      </trkpt>
      <trkpt lat="42.478516" lon="1.577340">
        <time>2020-08-22T11:58:49Z</time>
      </trkpt>
      <trkpt lat="42.478516" lon="1.577340">
        <time>2020-08-22T11:58:49Z</time>
      </trkpt>
      <trkpt lat="42.478512" lon="1.577335">
        <time>2020-08-22T11:58:49Z</time>
      </trkpt>
      <trkpt lat="42.478512" lon="1.577335">
        <time>2020-08-22T11:58:49Z</time>
      </trkpt>
      <trkpt lat="42.478508" lon="1.577331">
        <time>2020-08-22T11:58:49Z</time>
      </trkpt>
      <trkpt lat="42.478508" lon="1.577331">
        <time>2020-08-22T11:58:49Z</time>
      </trkpt>
      <trkpt lat="42.478500" lon="1.577326">
        <time>2020-08-22T11:58:56Z</time>
      </trkpt>
      <trkpt lat="42.478500" lon="1.577326">
        <time>2020-08-22T11:58:56Z</time>
      </trkpt>
      <trkpt lat="42.478497" lon="1.577322">
        <time>2020-08-22T11:58:56Z</time>
      </trkpt>
      <trkpt lat="42.478497" lon="1.577322">
        <time>2020-08-22T11:58:56Z</time>
      </trkpt>
      <trkpt lat="42.478493" lon="1.577318">
        <time>2020-08-22T11:58:56Z</time>
      </trkpt>
      <trkpt lat="42.478493" lon="1.577318">
        <time>2020-08-22T11:58:56Z</time>
      </trkpt>
      <trkpt lat="42.478489" lon="1.577313">
        <time>2020-08-22T11:58:56Z</time>
      </trkpt>
      <trkpt lat="42.478489" lon="1.577313">
        <time>2020-08-22T11:58:56Z</time>
      </trkpt>
      <trkpt lat="42.478481" lon="1.577309">
        <time>2020-08-22T11:58:56Z</time>
      </trkpt>
      <trkpt lat="42.478481" lon="1.577309">
        <time>2020-08-22T11:58:56Z</time>
      </trkpt>
      <trkpt lat="42.478474" lon="1.577306">
        <time>2020-08-22T11:58:56Z</time>
      </trkpt>
      <trkpt lat="42.478474" lon="1.577306">
        <time>2020-08-22T11:58:56Z</time>
      </trkpt>
      <trkpt lat="42.478470" lon="1.577303">
        <time>2020-08-22T11:58:56Z</time>
      </trkpt>
      <trkpt lat="42.478470" lon="1.577303">
        <time>2020-08-22T11:58:56Z</time>
      </trkpt>
      <trkpt lat="42.478458" lon="1.577302">
        <time>2020-08-22T11:59:03Z</time>
      </trkpt>
      <trkpt lat="42.478458" lon="1.577302">
        <time>2020-08-22T11:59:03Z</time>
      </trkpt>
      <trkpt lat="42.478451" lon="1.577300">
        <time>2020-08-22T11:59:03Z</time>
      </trkpt>
      <trkpt lat="42.478451" lon="1.577300">
        <time>2020-08-22T11:59:03Z</time>
      </trkpt>
      <trkpt lat="42.478439" lon="1.577300">
        <time>2020-08-22T11:59:03Z</time>
      </trkpt>
      <trkpt lat="42.478439" lon="1.577300">
        <time>2020-08-22T11:59:03Z</time>
      </trkpt>
      <trkpt lat="42.478428" lon="1.577300">
        <time>2020-08-22T11:59:03Z</time>
      </trkpt>
      <trkpt lat="42.478428" lon="1.577300">
        <time>2020-08-22T11:59:03Z</time>
      </trkpt>
      <trkpt lat="42.478416" lon="1.577300">
        <time>2020-08-22T11:59:03Z</time>
      </trkpt>
      <trkpt lat="42.478416" lon="1.577300">
        <time>2020-08-22T11:59:03Z</time>
      </trkpt>
      <trkpt lat="42.478401" lon="1.577302">
        <time>2020-08-22T11:59:03Z</time>
      </trkpt>
      <trkpt lat="42.478401" lon="1.577302">
        <time>2020-08-22T11:59:03Z</time>
      </trkpt>
      <trkpt lat="42.478390" lon="1.577303">
        <time>2020-08-22T11:59:03Z</time>
      </trkpt>
      <trkpt lat="42.478390" lon="1.577303">
        <time>2020-08-22T11:59:03Z</time>
      </trkpt>
      <trkpt lat="42.478374" lon="1.577305">
        <time>2020-08-22T11:59:10Z</time>
      </trkpt>
      <trkpt lat="42.478374" lon="1.577305">
        <time>2020-08-22T11:59:10Z</time>
      </trkpt>
      <trkpt lat="42.478359" lon="1.577308">
        <time>2020-08-22T11:59:10Z</time>
      </trkpt>
      <trkpt lat="42.478359" lon="1.577308">
        <time>2020-08-22T11:59:10Z</time>
      </trkpt>
      <trkpt lat="42.478344" lon="1.577310">
        <time>2020-08-22T11:59:10Z</time>
      </trkpt>
      <trkpt lat="42.478344" lon="1.577310">
        <time>2020-08-22T11:59:10Z</time>
      </trkpt>
      <trkpt lat="42.478329" lon="1.577313">
        <time>2020-08-22T11:59:10Z</time>
      </trkpt>
      <trkpt lat="42.478329" lon="1.577313">
        <time>2020-08-22T11:59:10Z</time>
      </trkpt>
      <trkpt lat="42.478313" lon="1.577307">
        <time>2020-08-22T11:59:10Z</time>
      </trkpt>
      <trkpt lat="42.478313" lon="1.577307">
        <time>2020-08-22T11:59:10Z</time>
      </trkpt>
      <trkpt lat="42.478302" lon="1.577301">
        <time>2020-08-22T11:59:10Z</time>
      </trkpt>
      <trkpt lat="42.478302" lon="1.577301">
        <time>2020-08-22T11:59:10Z</time>
      </trkpt>
      <trkpt lat="42.478287" lon="1.577294">
        <time>2020-08-22T11:59:10Z</time>
      </trkpt>
      <trkpt lat="42.478287" lon="1.577294">
        <time>2020-08-22T11:59:10Z</time>
      </trkpt>
      <trkpt lat="42.478279" lon="1.577285">
        <time>2020-08-22T11:59:10Z</time>
      </trkpt>
      <trkpt lat="42.478279" lon="1.577285">
        <time>2020-08-22T11:59:10Z</time>
      </trkpt>
      <trkpt lat="42.478268" lon="1.577274">
        <time>2020-08-22T11:59:10Z</time>
      </trkpt>
      <trkpt lat="42.478268" lon="1.577274">
        <time>2020-08-22T11:59:10Z</time>
      </trkpt>
      <trkpt lat="42.478256" lon="1.577261">
        <time>2020-08-22T11:59:17Z</time>
      </trkpt>
      <trkpt lat="42.478256" lon="1.577261">
        <time>2020-08-22T11:59:17Z</time>
      </trkpt>
      <trkpt lat="42.478245" lon="1.577246">
        <time>2020-08-22T11:59:17Z</time>
      </trkpt>
      <trkpt lat="42.478245" lon="1.577246">
        <time>2020-08-22T11:59:17Z</time>
      </trkpt>
      <trkpt lat="42.478237" lon="1.577228">
        <time>2020-08-22T11:59:17Z</time>
      </trkpt>
      <trkpt lat="42.478237" lon="1.577228">
        <time>2020-08-22T11:59:17Z</time>
      </trkpt>
      <trkpt lat="42.478226" lon="1.577208">
        <time>2020-08-22T11:59:17Z</time>
      </trkpt>
      <trkpt lat="42.478226" lon="1.577208">
        <time>2020-08-22T11:59:17Z</time>
      </trkpt>
      <trkpt lat="42.478218" lon="1.577187">
        <time>2020-08-22T11:59:17Z</time>
      </trkpt>
      <trkpt lat="42.478218" lon="1.577187">
        <time>2020-08-22T11:59:17Z</time>
      </trkpt>
      <trkpt lat="42.478210" lon="1.577170">
        <time>2020-08-22T11:59:17Z</time>
      </trkpt>
      <trkpt lat="42.478210" lon="1.577170">
        <time>2020-08-22T11:59:17Z</time>
      </trkpt>
      <trkpt lat="42.478199" lon="1.577152">
        <time>2020-08-22T11:59:17Z</time>
      </trkpt>
      <trkpt lat="42.478199" lon="1.577152">
        <time>2020-08-22T11:59:17Z</time>
      </trkpt>
      <trkpt lat="42.478191" lon="1.577134">
        <time>2020-08-22T11:59:24Z</time>
      </trkpt>
      <trkpt lat="42.478191" lon="1.577134">
        <time>2020-08-22T11:59:24Z</time>
      </trkpt>
      <trkpt lat="42.478180" lon="1.577116">
        <time>2020-08-22T11:59:24Z</time>
      </trkpt>
      <trkpt lat="42.478180" lon="1.577116">
        <time>2020-08-22T11:59:24Z</time>
      </trkpt>
      <trkpt lat="42.478172" lon="1.577099">
        <time>2020-08-22T11:59:24Z</time>
      </trkpt>
      <trkpt lat="42.478172" lon="1.577099">
        <time>2020-08-22T11:59:24Z</time>
      </trkpt>
      <trkpt lat="42.478161" lon="1.577083">
        <time>2020-08-22T11:59:24Z</time>
      </trkpt>
      <trkpt lat="42.478161" lon="1.577083">
        <time>2020-08-22T11:59:24Z</time>
      </trkpt>
      <trkpt lat="42.478153" lon="1.577067">
        <time>2020-08-22T11:59:24Z</time>
      </trkpt>
      <trkpt lat="42.478153" lon="1.577067">
        <time>2020-08-22T11:59:24Z</time>
      </trkpt>
      <trkpt lat="42.478146" lon="1.577053">
        <time>2020-08-22T11:59:24Z</time>
      </trkpt>
      <trkpt lat="42.478146" lon="1.577053">
        <time>2020-08-22T11:59:24Z</time>
      </trkpt>
      <trkpt lat="42.478134" lon="1.577040">
        <time>2020-08-22T11:59:24Z</time>
      </trkpt>
      <trkpt lat="42.478134" lon="1.577040">
        <time>2020-08-22T11:59:24Z</time>
      </trkpt>
      <trkpt lat="42.478127" lon="1.577028">
        <time>2020-08-22T11:59:31Z</time>
      </trkpt>
      <trkpt lat="42.478127" lon="1.577028">
        <time>2020-08-22T11:59:31Z</time>
      </trkpt>
      <trkpt lat="42.478119" lon="1.577017">
        <time>2020-08-22T11:59:31Z</time>
      </trkpt>
      <trkpt lat="42.478119" lon="1.577017">
        <time>2020-08-22T11:59:31Z</time>
      </trkpt>
      <trkpt lat="42.478107" lon="1.577008">
        <time>2020-08-22T11:59:31Z</time>
      </trkpt>
      <trkpt lat="42.478107" lon="1.577008">
        <time>2020-08-22T11:59:31Z</time>
      </trkpt>
      <trkpt lat="42.478100" lon="1.576999">
        <time>2020-08-22T11:59:31Z</time>
      </trkpt>
      <trkpt lat="42.478100" lon="1.576999">
        <time>2020-08-22T11:59:31Z</time>
      </trkpt>
      <trkpt lat="42.478092" lon="1.576990">
        <time>2020-08-22T11:59:31Z</time>
      </trkpt>
      <trkpt lat="42.478092" lon="1.576990">
        <time>2020-08-22T11:59:31Z</time>
      </trkpt>
      <trkpt lat="42.478081" lon="1.576981">
        <time>2020-08-22T11:59:31Z</time>
      </trkpt>
      <trkpt lat="42.478081" lon="1.576981">
        <time>2020-08-22T11:59:31Z</time>
      </trkpt>
      <trkpt lat="42.478073" lon="1.576972">
        <time>2020-08-22T11:59:31Z</time>
      </trkpt>
      <trkpt lat="42.478073" lon="1.576972">
        <time>2020-08-22T11:59:31Z</time>
      </trkpt>
      <trkpt lat="42.478065" lon="1.576963">
        <time>2020-08-22T11:59:38Z</time>
      </trkpt>
      <trkpt lat="42.478065" lon="1.576963">
        <time>2020-08-22T11:59:38Z</time>
      </trkpt>
      <trkpt lat="42.478054" lon="1.576952">
        <time>2020-08-22T11:59:38Z</time>
      </trkpt>
      <trkpt lat="42.478054" lon="1.576952">
        <time>2020-08-22T11:59:38Z</time>
      </trkpt>
      <trkpt lat="42.478046" lon="1.576942">
        <time>2020-08-22T11:59:38Z</time>
      </trkpt>
      <trkpt lat="42.478046" lon="1.576942">
        <time>2020-08-22T11:59:38Z</time>
      </trkpt>
      <trkpt lat="42.478039" lon="1.576930">
        <time>2020-08-22T11:59:38Z</time>
      </trkpt>
      <trkpt lat="42.478039" lon="1.576930">
        <time>2020-08-22T11:59:38Z</time>
      </trkpt>
      <trkpt lat="42.478031" lon="1.576917">
        <time>2020-08-22T11:59:38Z</time>
      </trkpt>
      <trkpt lat="42.478031" lon="1.576917">
        <time>2020-08-22T11:59:38Z</time>
      </trkpt>
      <trkpt lat="42.478024" lon="1.576904">
        <time>2020-08-22T11:59:38Z</time>
      </trkpt>
      <trkpt lat="42.478024" lon="1.576904">
        <time>2020-08-22T11:59:38Z</time>
      </trkpt>
      <trkpt lat="42.478020" lon="1.576890">
        <time>2020-08-22T11:59:38Z</time>
      </trkpt>
      <trkpt lat="42.478020" lon="1.576890">
        <time>2020-08-22T11:59:38Z</time>
      </trkpt>
      <trkpt lat="42.478012" lon="1.576875">
        <time>2020-08-22T11:59:45Z</time>
      </trkpt>
      <trkpt lat="42.478012" lon="1.576875">
        <time>2020-08-22T11:59:45Z</time>
      </trkpt>
      <trkpt lat="42.478004" lon="1.576861">
        <time>2020-08-22T11:59:45Z</time>
      </trkpt>
      <trkpt lat="42.478004" lon="1.576861">
        <time>2020-08-22T11:59:45Z</time>
      </trkpt>
      <trkpt lat="42.478001" lon="1.576847">
        <time>2020-08-22T11:59:45Z</time>
      </trkpt>
      <trkpt lat="42.478001" lon="1.576847">
        <time>2020-08-22T11:59:45Z</time>
      </trkpt>
      <trkpt lat="42.477993" lon="1.576834">
        <time>2020-08-22T11:59:45Z</time>
      </trkpt>
      <trkpt lat="42.477993" lon="1.576834">
        <time>2020-08-22T11:59:45Z</time>
      </trkpt>
      <trkpt lat="42.477985" lon="1.576820">
        <time>2020-08-22T11:59:45Z</time>
      </trkpt>
      <trkpt lat="42.477985" lon="1.576820">
        <time>2020-08-22T11:59:45Z</time>
      </trkpt>
      <trkpt lat="42.477978" lon="1.576806">
        <time>2020-08-22T11:59:45Z</time>
      </trkpt>
      <trkpt lat="42.477978" lon="1.576806">
        <time>2020-08-22T11:59:45Z</time>
      </trkpt>
      <trkpt lat="42.477974" lon="1.576792">
        <time>2020-08-22T11:59:45Z</time>
      </trkpt>
      <trkpt lat="42.477974" lon="1.576792">
        <time>2020-08-22T11:59:45Z</time>
      </trkpt>
      <trkpt lat="42.477966" lon="1.576778">
        <time>2020-08-22T11:59:52Z</time>
      </trkpt>
      <trkpt lat="42.477966" lon="1.576778">
        <time>2020-08-22T11:59:52Z</time>
      </trkpt>
      <trkpt lat="42.477959" lon="1.576763">
        <time>2020-08-22T11:59:52Z</time>
      </trkpt>
      <trkpt lat="42.477959" lon="1.576763">
        <time>2020-08-22T11:59:52Z</time>
      </trkpt>
      <trkpt lat="42.477951" lon="1.576749">
        <time>2020-08-22T11:59:52Z</time>
      </trkpt>
      <trkpt lat="42.477951" lon="1.576749">
        <time>2020-08-22T11:59:52Z</time>
      </trkpt>
      <trkpt lat="42.477940" lon="1.576733">
        <time>2020-08-22T11:59:52Z</time>
      </trkpt>
      <trkpt lat="42.477940" lon="1.576733">
        <time>2020-08-22T11:59:52Z</time>
      </trkpt>
      <trkpt lat="42.477936" lon="1.576718">
        <time>2020-08-22T11:59:52Z</time>
      </trkpt>
      <trkpt lat="42.477936" lon="1.576718">
        <time>2020-08-22T11:59:52Z</time>
      </trkpt>
      <trkpt lat="42.477928" lon="1.576701">
        <time>2020-08-22T11:59:52Z</time>
      </trkpt>
      <trkpt lat="42.477928" lon="1.576701">
        <time>2020-08-22T11:59:52Z</time>
      </trkpt>
      <trkpt lat="42.477921" lon="1.576685">
        <time>2020-08-22T11:59:52Z</time>
      </trkpt>
      <trkpt lat="42.477921" lon="1.576685">
        <time>2020-08-22T11:59:52Z</time>
      </trkpt>
      <trkpt lat="42.477913" lon="1.576669">
        <time>2020-08-22T11:59:59Z</time>
      </trkpt>
      <trkpt lat="42.477913" lon="1.576669">
        <time>2020-08-22T11:59:59Z</time>
      </trkpt>
      <trkpt lat="42.477909" lon="1.576653">
        <time>2020-08-22T11:59:59Z</time>
      </trkpt>
      <trkpt lat="42.477909" lon="1.576653">
        <time>2020-08-22T11:59:59Z</time>
      </trkpt>
      <trkpt lat="42.477905" lon="1.576637">
        <time>2020-08-22T11:59:59Z</time>
      </trkpt>
      <trkpt lat="42.477905" lon="1.576637">
        <time>2020-08-22T11:59:59Z</time>
      </trkpt>
      <trkpt lat="42.477901" lon="1.576602">
        <time>2020-08-22T11:59:59Z</time>
      </trkpt>
      <trkpt lat="42.477901" lon="1.576602">
        <time>2020-08-22T11:59:59Z</time>
      </trkpt>
      <trkpt lat="42.477898" lon="1.576565">
        <time>2020-08-22T11:59:59Z</time>
      </trkpt>
      <trkpt lat="42.477898" lon="1.576565">
        <time>2020-08-22T11:59:59Z</time>
      </trkpt>
      <trkpt lat="42.477894" lon="1.576525">
        <time>2020-08-22T11:59:59Z</time>
      </trkpt>
      <trkpt lat="42.477894" lon="1.576525">
        <time>2020-08-22T11:59:59Z</time>
      </trkpt>
      <trkpt lat="42.477890" lon="1.576486">
        <time>2020-08-22T11:59:59Z</time>
      </trkpt>
      <trkpt lat="42.477890" lon="1.576486">
        <time>2020-08-22T11:59:59Z</time>
      </trkpt>
      <trkpt lat="42.477886" lon="1.576446">
        <time>2020-08-22T11:59:59Z</time>
      </trkpt>
      <trkpt lat="42.477886" lon="1.576446">
        <time>2020-08-22T11:59:59Z</time>
      </trkpt>
      <trkpt lat="42.477886" lon="1.576407">
        <time>2020-08-22T11:59:59Z</time>
      </trkpt>
      <trkpt lat="42.477886" lon="1.576407">
        <time>2020-08-22T11:59:59Z</time>
      </trkpt>
      <trkpt lat="42.477886" lon="1.576369">
        <time>2020-08-22T11:59:59Z</time>
      </trkpt>
      <trkpt lat="42.477886" lon="1.576369">
        <time>2020-08-22T11:59:59Z</time>
      </trkpt>
      <trkpt lat="42.477882" lon="1.576331">
        <time>2020-08-22T11:59:59Z</time>
      </trkpt>
      <trkpt lat="42.477882" lon="1.576331">
        <time>2020-08-22T11:59:59Z</time>
      </trkpt>
      <trkpt lat="42.477886" lon="1.576293">
        <time>2020-08-22T12:00:06Z</time>
      </trkpt>
      <trkpt lat="42.477886" lon="1.576293">
        <time>2020-08-22T12:00:06Z</time>
      </trkpt>
      <trkpt lat="42.477886" lon="1.576256">
        <time>2020-08-22T12:00:06Z</time>
      </trkpt>
      <trkpt lat="42.477886" lon="1.576256">
        <time>2020-08-22T12:00:06Z</time>
      </trkpt>
      <trkpt lat="42.477882" lon="1.576239">
        <time>2020-08-22T12:00:06Z</time>
      </trkpt>
      <trkpt lat="42.477882" lon="1.576239">
        <time>2020-08-22T12:00:06Z</time>
      </trkpt>
      <trkpt lat="42.477882" lon="1.576225">
        <time>2020-08-22T12:00:06Z</time>
      </trkpt>
      <trkpt lat="42.477882" lon="1.576225">
        <time>2020-08-22T12:00:06Z</time>
      </trkpt>
      <trkpt lat="42.477879" lon="1.576213">
        <time>2020-08-22T12:00:06Z</time>
      </trkpt>
      <trkpt lat="42.477879" lon="1.576213">
        <time>2020-08-22T12:00:06Z</time>
      </trkpt>
      <trkpt lat="42.477879" lon="1.576202">
        <time>2020-08-22T12:00:06Z</time>
      </trkpt>
      <trkpt lat="42.477879" lon="1.576202">
        <time>2020-08-22T12:00:06Z</time>
      </trkpt>
      <trkpt lat="42.477875" lon="1.576191">
        <time>2020-08-22T12:00:06Z</time>
      </trkpt>
      <trkpt lat="42.477875" lon="1.576191">
        <time>2020-08-22T12:00:06Z</time>
      </trkpt>
      <trkpt lat="42.477871" lon="1.576180">
        <time>2020-08-22T12:00:13Z</time>
      </trkpt>
      <trkpt lat="42.477871" lon="1.576180">
        <time>2020-08-22T12:00:13Z</time>
      </trkpt>
      <trkpt lat="42.477863" lon="1.576168">
        <time>2020-08-22T12:00:13Z</time>
      </trkpt>
      <trkpt lat="42.477863" lon="1.576168">
        <time>2020-08-22T12:00:13Z</time>
      </trkpt>
      <trkpt lat="42.477856" lon="1.576156">
        <time>2020-08-22T12:00:13Z</time>
      </trkpt>
      <trkpt lat="42.477856" lon="1.576156">
        <time>2020-08-22T12:00:13Z</time>
      </trkpt>
      <trkpt lat="42.477852" lon="1.576144">
        <time>2020-08-22T12:00:13Z</time>
      </trkpt>
      <trkpt lat="42.477852" lon="1.576144">
        <time>2020-08-22T12:00:13Z</time>
      </trkpt>
      <trkpt lat="42.477844" lon="1.576131">
        <time>2020-08-22T12:00:13Z</time>
      </trkpt>
      <trkpt lat="42.477844" lon="1.576131">
        <time>2020-08-22T12:00:13Z</time>
      </trkpt>
      <trkpt lat="42.477844" lon="1.576111">
        <time>2020-08-22T12:00:13Z</time>
      </trkpt>
      <trkpt lat="42.477844" lon="1.576111">
        <time>2020-08-22T12:00:13Z</time>
      </trkpt>
      <trkpt lat="42.477837" lon="1.576092">
        <time>2020-08-22T12:00:20Z</time>
      </trkpt>
      <trkpt lat="42.477837" lon="1.576092">
        <time>2020-08-22T12:00:20Z</time>
      </trkpt>
      <trkpt lat="42.477833" lon="1.576072">
        <time>2020-08-22T12:00:20Z</time>
      </trkpt>
      <trkpt lat="42.477833" lon="1.576072">
        <time>2020-08-22T12:00:20Z</time>
      </trkpt>
      <trkpt lat="42.477833" lon="1.576053">
        <time>2020-08-22T12:00:20Z</time>
      </trkpt>
      <trkpt lat="42.477833" lon="1.576053">
        <time>2020-08-22T12:00:20Z</time>
      </trkpt>
      <trkpt lat="42.477833" lon="1.576033">
        <time>2020-08-22T12:00:20Z</time>
      </trkpt>
      <trkpt lat="42.477833" lon="1.576033">
        <time>2020-08-22T12:00:20Z</time>
      </trkpt>
      <trkpt lat="42.477829" lon="1.576013">
        <time>2020-08-22T12:00:20Z</time>
      </trkpt>
      <trkpt lat="42.477829" lon="1.576013">
        <time>2020-08-22T12:00:20Z</time>
      </trkpt>
      <trkpt lat="42.477829" lon="1.575993">
        <time>2020-08-22T12:00:20Z</time>
      </trkpt>
      <trkpt lat="42.477829" lon="1.575993">
        <time>2020-08-22T12:00:20Z</time>
      </trkpt>
      <trkpt lat="42.477829" lon="1.575972">
        <time>2020-08-22T12:00:20Z</time>
      </trkpt>
      <trkpt lat="42.477829" lon="1.575972">
        <time>2020-08-22T12:00:20Z</time>
      </trkpt>
      <trkpt lat="42.477829" lon="1.575952">
        <time>2020-08-22T12:00:27Z</time>
      </trkpt>
      <trkpt lat="42.477829" lon="1.575952">
        <time>2020-08-22T12:00:27Z</time>
      </trkpt>
      <trkpt lat="42.477829" lon="1.575930">
        <time>2020-08-22T12:00:27Z</time>
      </trkpt>
      <trkpt lat="42.477829" lon="1.575930">
        <time>2020-08-22T12:00:27Z</time>
      </trkpt>
      <trkpt lat="42.477825" lon="1.575913">
        <time>2020-08-22T12:00:27Z</time>
      </trkpt>
      <trkpt lat="42.477825" lon="1.575913">
        <time>2020-08-22T12:00:27Z</time>
      </trkpt>
      <trkpt lat="42.477825" lon="1.575895">
        <time>2020-08-22T12:00:27Z</time>
      </trkpt>
      <trkpt lat="42.477825" lon="1.575895">
        <time>2020-08-22T12:00:27Z</time>
      </trkpt>
      <trkpt lat="42.477821" lon="1.575876">
        <time>2020-08-22T12:00:34Z</time>
      </trkpt>
      <trkpt lat="42.477821" lon="1.575876">
        <time>2020-08-22T12:00:34Z</time>
      </trkpt>
      <trkpt lat="42.477818" lon="1.575857">
        <time>2020-08-22T12:00:34Z</time>
      </trkpt>
      <trkpt lat="42.477818" lon="1.575857">
        <time>2020-08-22T12:00:34Z</time>
      </trkpt>
      <trkpt lat="42.477818" lon="1.575839">
        <time>2020-08-22T12:00:34Z</time>
      </trkpt>
      <trkpt lat="42.477818" lon="1.575839">
        <time>2020-08-22T12:00:34Z</time>
      </trkpt>
      <trkpt lat="42.477818" lon="1.575821">
        <time>2020-08-22T12:00:34Z</time>
      </trkpt>
      <trkpt lat="42.477818" lon="1.575821">
        <time>2020-08-22T12:00:34Z</time>
      </trkpt>
      <trkpt lat="42.477814" lon="1.575804">
        <time>2020-08-22T12:00:34Z</time>
      </trkpt>
      <trkpt lat="42.477814" lon="1.575804">
        <time>2020-08-22T12:00:34Z</time>
      </trkpt>
      <trkpt lat="42.477810" lon="1.575786">
        <time>2020-08-22T12:00:34Z</time>
      </trkpt>
      <trkpt lat="42.477810" lon="1.575786">
        <time>2020-08-22T12:00:34Z</time>
      </trkpt>
      <trkpt lat="42.477806" lon="1.575769">
        <time>2020-08-22T12:00:34Z</time>
      </trkpt>
      <trkpt lat="42.477806" lon="1.575769">
        <time>2020-08-22T12:00:34Z</time>
      </trkpt>
      <trkpt lat="42.477802" lon="1.575752">
        <time>2020-08-22T12:00:41Z</time>
      </trkpt>
      <trkpt lat="42.477802" lon="1.575752">
        <time>2020-08-22T12:00:41Z</time>
      </trkpt>
      <trkpt lat="42.477798" lon="1.575738">
        <time>2020-08-22T12:00:41Z</time>
      </trkpt>
      <trkpt lat="42.477798" lon="1.575738">
        <time>2020-08-22T12:00:41Z</time>
      </trkpt>
      <trkpt lat="42.477795" lon="1.575724">
        <time>2020-08-22T12:00:41Z</time>
      </trkpt>
      <trkpt lat="42.477795" lon="1.575724">
        <time>2020-08-22T12:00:41Z</time>
      </trkpt>
      <trkpt lat="42.477791" lon="1.575711">
        <time>2020-08-22T12:00:41Z</time>
      </trkpt>
      <trkpt lat="42.477791" lon="1.575711">
        <time>2020-08-22T12:00:41Z</time>
      </trkpt>
      <trkpt lat="42.477787" lon="1.575697">
        <time>2020-08-22T12:00:41Z</time>
      </trkpt>
      <trkpt lat="42.477787" lon="1.575697">
        <time>2020-08-22T12:00:41Z</time>
      </trkpt>
      <trkpt lat="42.477783" lon="1.575684">
        <time>2020-08-22T12:00:41Z</time>
      </trkpt>
      <trkpt lat="42.477783" lon="1.575684">
        <time>2020-08-22T12:00:41Z</time>
      </trkpt>
      <trkpt lat="42.477779" lon="1.575670">
        <time>2020-08-22T12:00:41Z</time>
      </trkpt>
      <trkpt lat="42.477779" lon="1.575670">
        <time>2020-08-22T12:00:41Z</time>
      </trkpt>
      <trkpt lat="42.477772" lon="1.575657">
        <time>2020-08-22T12:00:48Z</time>
      </trkpt>
      <trkpt lat="42.477772" lon="1.575657">
        <time>2020-08-22T12:00:48Z</time>
      </trkpt>
      <trkpt lat="42.477768" lon="1.575644">
        <time>2020-08-22T12:00:48Z</time>
      </trkpt>
      <trkpt lat="42.477768" lon="1.575644">
        <time>2020-08-22T12:00:48Z</time>
      </trkpt>
      <trkpt lat="42.477764" lon="1.575630">
        <time>2020-08-22T12:00:48Z</time>
      </trkpt>
      <trkpt lat="42.477764" lon="1.575630">
        <time>2020-08-22T12:00:48Z</time>
      </trkpt>
      <trkpt lat="42.477760" lon="1.575617">
        <time>2020-08-22T12:00:48Z</time>
      </trkpt>
      <trkpt lat="42.477760" lon="1.575617">
        <time>2020-08-22T12:00:48Z</time>
      </trkpt>
      <trkpt lat="42.477756" lon="1.575604">
        <time>2020-08-22T12:00:48Z</time>
      </trkpt>
      <trkpt lat="42.477756" lon="1.575604">
        <time>2020-08-22T12:00:48Z</time>
      </trkpt>
      <trkpt lat="42.477753" lon="1.575591">
        <time>2020-08-22T12:00:48Z</time>
      </trkpt>
      <trkpt lat="42.477753" lon="1.575591">
        <time>2020-08-22T12:00:48Z</time>
      </trkpt>
      <trkpt lat="42.477749" lon="1.575577">
        <time>2020-08-22T12:00:48Z</time>
      </trkpt>
      <trkpt lat="42.477749" lon="1.575577">
        <time>2020-08-22T12:00:48Z</time>
      </trkpt>
      <trkpt lat="42.477745" lon="1.575564">
        <time>2020-08-22T12:00:55Z</time>
      </trkpt>
      <trkpt lat="42.477745" lon="1.575564">
        <time>2020-08-22T12:00:55Z</time>
      </trkpt>
      <trkpt lat="42.477741" lon="1.575551">
        <time>2020-08-22T12:00:55Z</time>
      </trkpt>
      <trkpt lat="42.477741" lon="1.575551">
        <time>2020-08-22T12:00:55Z</time>
      </trkpt>
      <trkpt lat="42.477737" lon="1.575538">
        <time>2020-08-22T12:00:55Z</time>
      </trkpt>
      <trkpt lat="42.477737" lon="1.575538">
        <time>2020-08-22T12:00:55Z</time>
      </trkpt>
      <trkpt lat="42.477737" lon="1.575526">
        <time>2020-08-22T12:00:55Z</time>
      </trkpt>
      <trkpt lat="42.477737" lon="1.575526">
        <time>2020-08-22T12:00:55Z</time>
      </trkpt>
      <trkpt lat="42.477734" lon="1.575513">
        <time>2020-08-22T12:00:55Z</time>
      </trkpt>
      <trkpt lat="42.477734" lon="1.575513">
        <time>2020-08-22T12:00:55Z</time>
      </trkpt>
      <trkpt lat="42.477730" lon="1.575500">
        <time>2020-08-22T12:00:55Z</time>
      </trkpt>
      <trkpt lat="42.477730" lon="1.575500">
        <time>2020-08-22T12:00:55Z</time>
      </trkpt>
      <trkpt lat="42.477730" lon="1.575488">
        <time>2020-08-22T12:00:55Z</time>
      </trkpt>
      <trkpt lat="42.477730" lon="1.575488">
        <time>2020-08-22T12:00:55Z</time>
      </trkpt>
      <trkpt lat="42.477730" lon="1.575475">
        <time>2020-08-22T12:01:02Z</time>
      </trkpt>
      <trkpt lat="42.477730" lon="1.575475">
        <time>2020-08-22T12:01:02Z</time>
      </trkpt>
      <trkpt lat="42.477730" lon="1.575463">
        <time>2020-08-22T12:01:02Z</time>
      </trkpt>
      <trkpt lat="42.477730" lon="1.575463">
        <time>2020-08-22T12:01:02Z</time>
      </trkpt>
      <trkpt lat="42.477726" lon="1.575450">
        <time>2020-08-22T12:01:02Z</time>
      </trkpt>
      <trkpt lat="42.477726" lon="1.575450">
        <time>2020-08-22T12:01:02Z</time>
      </trkpt>
      <trkpt lat="42.477726" lon="1.575437">
        <time>2020-08-22T12:01:02Z</time>
      </trkpt>
      <trkpt lat="42.477726" lon="1.575437">
        <time>2020-08-22T12:01:02Z</time>
      </trkpt>
      <trkpt lat="42.477722" lon="1.575423">
        <time>2020-08-22T12:01:02Z</time>
      </trkpt>
      <trkpt lat="42.477722" lon="1.575423">
        <time>2020-08-22T12:01:02Z</time>
      </trkpt>
      <trkpt lat="42.477718" lon="1.575409">
        <time>2020-08-22T12:01:02Z</time>
      </trkpt>
      <trkpt lat="42.477718" lon="1.575409">
        <time>2020-08-22T12:01:02Z</time>
      </trkpt>
      <trkpt lat="42.477718" lon="1.575395">
        <time>2020-08-22T12:01:02Z</time>
      </trkpt>
      <trkpt lat="42.477718" lon="1.575395">
        <time>2020-08-22T12:01:02Z</time>
      </trkpt>
      <trkpt lat="42.477711" lon="1.575381">
        <time>2020-08-22T12:01:09Z</time>
      </trkpt>
      <trkpt lat="42.477711" lon="1.575381">
        <time>2020-08-22T12:01:09Z</time>
      </trkpt>
      <trkpt lat="42.477707" lon="1.575366">
        <time>2020-08-22T12:01:09Z</time>
      </trkpt>
      <trkpt lat="42.477707" lon="1.575366">
        <time>2020-08-22T12:01:09Z</time>
      </trkpt>
      <trkpt lat="42.477703" lon="1.575351">
        <time>2020-08-22T12:01:09Z</time>
      </trkpt>
      <trkpt lat="42.477703" lon="1.575351">
        <time>2020-08-22T12:01:09Z</time>
      </trkpt>
      <trkpt lat="42.477695" lon="1.575336">
        <time>2020-08-22T12:01:09Z</time>
      </trkpt>
      <trkpt lat="42.477695" lon="1.575336">
        <time>2020-08-22T12:01:09Z</time>
      </trkpt>
      <trkpt lat="42.477692" lon="1.575322">
        <time>2020-08-22T12:01:09Z</time>
      </trkpt>
      <trkpt lat="42.477692" lon="1.575322">
        <time>2020-08-22T12:01:09Z</time>
      </trkpt>
      <trkpt lat="42.477684" lon="1.575307">
        <time>2020-08-22T12:01:09Z</time>
      </trkpt>
      <trkpt lat="42.477684" lon="1.575307">
        <time>2020-08-22T12:01:09Z</time>
      </trkpt>
      <trkpt lat="42.477680" lon="1.575293">
        <time>2020-08-22T12:01:09Z</time>
      </trkpt>
      <trkpt lat="42.477680" lon="1.575293">
        <time>2020-08-22T12:01:09Z</time>
      </trkpt>
      <trkpt lat="42.477676" lon="1.575279">
        <time>2020-08-22T12:01:16Z</time>
      </trkpt>
      <trkpt lat="42.477676" lon="1.575279">
        <time>2020-08-22T12:01:16Z</time>
      </trkpt>
      <trkpt lat="42.477669" lon="1.575265">
        <time>2020-08-22T12:01:16Z</time>
      </trkpt>
      <trkpt lat="42.477669" lon="1.575265">
        <time>2020-08-22T12:01:16Z</time>
      </trkpt>
      <trkpt lat="42.477665" lon="1.575251">
        <time>2020-08-22T12:01:16Z</time>
      </trkpt>
      <trkpt lat="42.477665" lon="1.575251">
        <time>2020-08-22T12:01:16Z</time>
      </trkpt>
      <trkpt lat="42.477661" lon="1.575237">
        <time>2020-08-22T12:01:16Z</time>
      </trkpt>
      <trkpt lat="42.477661" lon="1.575237">
        <time>2020-08-22T12:01:16Z</time>
      </trkpt>
      <trkpt lat="42.477657" lon="1.575224">
        <time>2020-08-22T12:01:16Z</time>
      </trkpt>
      <trkpt lat="42.477657" lon="1.575224">
        <time>2020-08-22T12:01:16Z</time>
      </trkpt>
      <trkpt lat="42.477653" lon="1.575211">
        <time>2020-08-22T12:01:16Z</time>
      </trkpt>
      <trkpt lat="42.477653" lon="1.575211">
        <time>2020-08-22T12:01:16Z</time>
      </trkpt>
      <trkpt lat="42.477650" lon="1.575198">
        <time>2020-08-22T12:01:16Z</time>
      </trkpt>
      <trkpt lat="42.477650" lon="1.575198">
        <time>2020-08-22T12:01:16Z</time>
      </trkpt>
      <trkpt lat="42.477642" lon="1.575185">
        <time>2020-08-22T12:01:23Z</time>
      </trkpt>
      <trkpt lat="42.477642" lon="1.575185">
        <time>2020-08-22T12:01:23Z</time>
      </trkpt>
      <trkpt lat="42.477638" lon="1.575173">
        <time>2020-08-22T12:01:23Z</time>
      </trkpt>
      <trkpt lat="42.477638" lon="1.575173">
        <time>2020-08-22T12:01:23Z</time>
      </trkpt>
      <trkpt lat="42.477634" lon="1.575161">
        <time>2020-08-22T12:01:23Z</time>
      </trkpt>
      <trkpt lat="42.477634" lon="1.575161">
        <time>2020-08-22T12:01:23Z</time>
      </trkpt>
      <trkpt lat="42.477631" lon="1.575151">
        <time>2020-08-22T12:01:23Z</time>
      </trkpt>
      <trkpt lat="42.477631" lon="1.575151">
        <time>2020-08-22T12:01:23Z</time>
      </trkpt>
      <trkpt lat="42.477623" lon="1.575142">
        <time>2020-08-22T12:01:23Z</time>
      </trkpt>
      <trkpt lat="42.477623" lon="1.575142">
        <time>2020-08-22T12:01:23Z</time>
      </trkpt>
      <trkpt lat="42.477619" lon="1.575133">
        <time>2020-08-22T12:01:23Z</time>
      </trkpt>
      <trkpt lat="42.477619" lon="1.575133">
        <time>2020-08-22T12:01:23Z</time>
      </trkpt>
      <trkpt lat="42.477612" lon="1.575125">
        <time>2020-08-22T12:01:23Z</time>
      </trkpt>
      <trkpt lat="42.477612" lon="1.575125">
        <time>2020-08-22T12:01:23Z</time>
      </trkpt>
      <trkpt lat="42.477612" lon="1.575117">
        <time>2020-08-22T12:01:30Z</time>
      </trkpt>
      <trkpt lat="42.477612" lon="1.575117">
        <time>2020-08-22T12:01:30Z</time>
      </trkpt>
      <trkpt lat="42.477604" lon="1.575110">
        <time>2020-08-22T12:01:30Z</time>
      </trkpt>
      <trkpt lat="42.477604" lon="1.575110">
        <time>2020-08-22T12:01:30Z</time>
      </trkpt>
      <trkpt lat="42.477604" lon="1.575103">
        <time>2020-08-22T12:01:30Z</time>
      </trkpt>
      <trkpt lat="42.477604" lon="1.575103">
        <time>2020-08-22T12:01:30Z</time>
      </trkpt>
      <trkpt lat="42.477596" lon="1.575095">
        <time>2020-08-22T12:01:30Z</time>
      </trkpt>
      <trkpt lat="42.477596" lon="1.575095">
        <time>2020-08-22T12:01:30Z</time>
      </trkpt>
      <trkpt lat="42.477596" lon="1.575086">
        <time>2020-08-22T12:01:30Z</time>
      </trkpt>
      <trkpt lat="42.477596" lon="1.575086">
        <time>2020-08-22T12:01:30Z</time>
      </trkpt>
      <trkpt lat="42.477592" lon="1.575077">
        <time>2020-08-22T12:01:30Z</time>
      </trkpt>
      <trkpt lat="42.477592" lon="1.575077">
        <time>2020-08-22T12:01:30Z</time>
      </trkpt>
      <trkpt lat="42.477592" lon="1.575067">
        <time>2020-08-22T12:01:37Z</time>
      </trkpt>
      <trkpt lat="42.477592" lon="1.575067">
        <time>2020-08-22T12:01:37Z</time>
      </trkpt>
      <trkpt lat="42.477589" lon="1.575056">
        <time>2020-08-22T12:01:37Z</time>
      </trkpt>
      <trkpt lat="42.477589" lon="1.575056">
        <time>2020-08-22T12:01:37Z</time>
      </trkpt>
      <trkpt lat="42.477589" lon="1.575044">
        <time>2020-08-22T12:01:37Z</time>
      </trkpt>
      <trkpt lat="42.477589" lon="1.575044">
        <time>2020-08-22T12:01:37Z</time>
      </trkpt>
      <trkpt lat="42.477589" lon="1.575032">
        <time>2020-08-22T12:01:37Z</time>
      </trkpt>
      <trkpt lat="42.477589" lon="1.575032">
        <time>2020-08-22T12:01:37Z</time>
      </trkpt>
      <trkpt lat="42.477589" lon="1.575019">
        <time>2020-08-22T12:01:37Z</time>
      </trkpt>
      <trkpt lat="42.477589" lon="1.575019">
        <time>2020-08-22T12:01:37Z</time>
      </trkpt>
      <trkpt lat="42.477589" lon="1.575007">
        <time>2020-08-22T12:01:37Z</time>
      </trkpt>
      <trkpt lat="42.477589" lon="1.575007">
        <time>2020-08-22T12:01:37Z</time>
      </trkpt>
      <trkpt lat="42.477589" lon="1.574995">
        <time>2020-08-22T12:01:37Z</time>
      </trkpt>
      <trkpt lat="42.477589" lon="1.574995">
        <time>2020-08-22T12:01:37Z</time>
      </trkpt>
      <trkpt lat="42.477592" lon="1.574983">
        <time>2020-08-22T12:01:44Z</time>
      </trkpt>
      <trkpt lat="42.477592" lon="1.574983">
        <time>2020-08-22T12:01:44Z</time>
      </trkpt>
      <trkpt lat="42.477592" lon="1.574972">
        <time>2020-08-22T12:01:44Z</time>
      </trkpt>
      <trkpt lat="42.477592" lon="1.574972">
        <time>2020-08-22T12:01:44Z</time>
      </trkpt>
      <trkpt lat="42.477589" lon="1.574961">
        <time>2020-08-22T12:01:44Z</time>
      </trkpt>
      <trkpt lat="42.477589" lon="1.574961">
        <time>2020-08-22T12:01:44Z</time>
      </trkpt>
      <trkpt lat="42.477589" lon="1.574949">
        <time>2020-08-22T12:01:44Z</time>
      </trkpt>
      <trkpt lat="42.477589" lon="1.574949">
        <time>2020-08-22T12:01:44Z</time>
      </trkpt>
      <trkpt lat="42.477585" lon="1.574935">
        <time>2020-08-22T12:01:51Z</time>
      </trkpt>
      <trkpt lat="42.477585" lon="1.574935">
        <time>2020-08-22T12:01:51Z</time>
      </trkpt>
      <trkpt lat="42.477585" lon="1.574916">
        <time>2020-08-22T12:01:51Z</time>
      </trkpt>
      <trkpt lat="42.477585" lon="1.574916">
        <time>2020-08-22T12:01:51Z</time>
      </trkpt>
      <trkpt lat="42.477585" lon="1.574896">
        <time>2020-08-22T12:01:59Z</time>
      </trkpt>
      <trkpt lat="42.477585" lon="1.574896">
        <time>2020-08-22T12:01:59Z</time>
      </trkpt>
      <trkpt lat="42.477581" lon="1.574876">
        <time>2020-08-22T12:01:59Z</time>
      </trkpt>
      <trkpt lat="42.477581" lon="1.574876">
        <time>2020-08-22T12:01:59Z</time>
      </trkpt>
      <trkpt lat="42.477577" lon="1.574856">
        <time>2020-08-22T12:01:59Z</time>
      </trkpt>
      <trkpt lat="42.477577" lon="1.574856">
        <time>2020-08-22T12:01:59Z</time>
      </trkpt>
      <trkpt lat="42.477573" lon="1.574820">
        <time>2020-08-22T12:01:59Z</time>
      </trkpt>
      <trkpt lat="42.477573" lon="1.574820">
        <time>2020-08-22T12:01:59Z</time>
      </trkpt>
      <trkpt lat="42.477570" lon="1.574784">
        <time>2020-08-22T12:01:59Z</time>
      </trkpt>
      <trkpt lat="42.477570" lon="1.574784">
        <time>2020-08-22T12:01:59Z</time>
      </trkpt>
      <trkpt lat="42.477566" lon="1.574748">
        <time>2020-08-22T12:01:59Z</time>
      </trkpt>
      <trkpt lat="42.477566" lon="1.574748">
        <time>2020-08-22T12:01:59Z</time>
      </trkpt>
      <trkpt lat="42.477562" lon="1.574712">
        <time>2020-08-22T12:01:59Z</time>
      </trkpt>
      <trkpt lat="42.477562" lon="1.574712">
        <time>2020-08-22T12:01:59Z</time>
      </trkpt>
      <trkpt lat="42.477558" lon="1.574677">
        <time>2020-08-22T12:02:06Z</time>
      </trkpt>
      <trkpt lat="42.477558" lon="1.574677">
        <time>2020-08-22T12:02:06Z</time>
      </trkpt>
      <trkpt lat="42.477558" lon="1.574643">
        <time>2020-08-22T12:02:06Z</time>
      </trkpt>
      <trkpt lat="42.477558" lon="1.574643">
        <time>2020-08-22T12:02:06Z</time>
      </trkpt>
      <trkpt lat="42.477554" lon="1.574615">
        <time>2020-08-22T12:02:06Z</time>
      </trkpt>
      <trkpt lat="42.477554" lon="1.574615">
        <time>2020-08-22T12:02:06Z</time>
      </trkpt>
      <trkpt lat="42.477550" lon="1.574586">
        <time>2020-08-22T12:02:06Z</time>
      </trkpt>
      <trkpt lat="42.477550" lon="1.574586">
        <time>2020-08-22T12:02:06Z</time>
      </trkpt>
      <trkpt lat="42.477550" lon="1.574558">
        <time>2020-08-22T12:02:06Z</time>
      </trkpt>
      <trkpt lat="42.477550" lon="1.574558">
        <time>2020-08-22T12:02:06Z</time>
      </trkpt>
      <trkpt lat="42.477547" lon="1.574529">
        <time>2020-08-22T12:02:06Z</time>
      </trkpt>
      <trkpt lat="42.477547" lon="1.574529">
        <time>2020-08-22T12:02:06Z</time>
      </trkpt>
      <trkpt lat="42.477547" lon="1.574516">
        <time>2020-08-22T12:02:06Z</time>
      </trkpt>
      <trkpt lat="42.477547" lon="1.574516">
        <time>2020-08-22T12:02:06Z</time>
      </trkpt>
      <trkpt lat="42.477547" lon="1.574503">
        <time>2020-08-22T12:02:13Z</time>
      </trkpt>
      <trkpt lat="42.477547" lon="1.574503">
        <time>2020-08-22T12:02:13Z</time>
      </trkpt>
      <trkpt lat="42.477547" lon="1.574489">
        <time>2020-08-22T12:02:13Z</time>
      </trkpt>
      <trkpt lat="42.477547" lon="1.574489">
        <time>2020-08-22T12:02:13Z</time>
      </trkpt>
      <trkpt lat="42.477543" lon="1.574476">
        <time>2020-08-22T12:02:13Z</time>
      </trkpt>
      <trkpt lat="42.477543" lon="1.574476">
        <time>2020-08-22T12:02:13Z</time>
      </trkpt>
      <trkpt lat="42.477543" lon="1.574464">
        <time>2020-08-22T12:02:13Z</time>
      </trkpt>
      <trkpt lat="42.477543" lon="1.574464">
        <time>2020-08-22T12:02:13Z</time>
      </trkpt>
      <trkpt lat="42.477543" lon="1.574452">
        <time>2020-08-22T12:02:13Z</time>
      </trkpt>
      <trkpt lat="42.477543" lon="1.574452">
        <time>2020-08-22T12:02:13Z</time>
      </trkpt>
      <trkpt lat="42.477543" lon="1.574440">
        <time>2020-08-22T12:02:13Z</time>
      </trkpt>
      <trkpt lat="42.477543" lon="1.574440">
        <time>2020-08-22T12:02:13Z</time>
      </trkpt>
      <trkpt lat="42.477539" lon="1.574429">
        <time>2020-08-22T12:02:13Z</time>
      </trkpt>
      <trkpt lat="42.477539" lon="1.574429">
        <time>2020-08-22T12:02:13Z</time>
      </trkpt>
      <trkpt lat="42.477535" lon="1.574418">
        <time>2020-08-22T12:02:13Z</time>
      </trkpt>
      <trkpt lat="42.477535" lon="1.574418">
        <time>2020-08-22T12:02:13Z</time>
      </trkpt>
      <trkpt lat="42.477531" lon="1.574407">
        <time>2020-08-22T12:02:13Z</time>
      </trkpt>
      <trkpt lat="42.477531" lon="1.574407">
        <time>2020-08-22T12:02:13Z</time>
      </trkpt>
      <trkpt lat="42.477531" lon="1.574397">
        <time>2020-08-22T12:02:13Z</time>
      </trkpt>
      <trkpt lat="42.477531" lon="1.574397">
        <time>2020-08-22T12:02:13Z</time>
      </trkpt>
      <trkpt lat="42.477531" lon="1.574388">
        <time>2020-08-22T12:02:13Z</time>
      </trkpt>
      <trkpt lat="42.477531" lon="1.574388">
        <time>2020-08-22T12:02:13Z</time>
      </trkpt>
      <trkpt lat="42.477531" lon="1.574379">
        <time>2020-08-22T12:02:13Z</time>
      </trkpt>
      <trkpt lat="42.477531" lon="1.574379">
        <time>2020-08-22T12:02:13Z</time>
      </trkpt>
      <trkpt lat="42.477531" lon="1.574370">
        <time>2020-08-22T12:02:13Z</time>
      </trkpt>
      <trkpt lat="42.477531" lon="1.574370">
        <time>2020-08-22T12:02:13Z</time>
      </trkpt>
      <trkpt lat="42.477528" lon="1.574360">
        <time>2020-08-22T12:02:20Z</time>
      </trkpt>
      <trkpt lat="42.477528" lon="1.574360">
        <time>2020-08-22T12:02:20Z</time>
      </trkpt>
      <trkpt lat="42.477528" lon="1.574352">
        <time>2020-08-22T12:02:20Z</time>
      </trkpt>
      <trkpt lat="42.477528" lon="1.574352">
        <time>2020-08-22T12:02:20Z</time>
      </trkpt>
      <trkpt lat="42.477528" lon="1.574343">
        <time>2020-08-22T12:02:20Z</time>
      </trkpt>
      <trkpt lat="42.477528" lon="1.574343">
        <time>2020-08-22T12:02:20Z</time>
      </trkpt>
      <trkpt lat="42.477528" lon="1.574332">
        <time>2020-08-22T12:02:20Z</time>
      </trkpt>
      <trkpt lat="42.477528" lon="1.574332">
        <time>2020-08-22T12:02:20Z</time>
      </trkpt>
      <trkpt lat="42.477524" lon="1.574321">
        <time>2020-08-22T12:02:27Z</time>
      </trkpt>
      <trkpt lat="42.477524" lon="1.574321">
        <time>2020-08-22T12:02:27Z</time>
      </trkpt>
      <trkpt lat="42.477524" lon="1.574311">
        <time>2020-08-22T12:02:27Z</time>
      </trkpt>
      <trkpt lat="42.477524" lon="1.574311">
        <time>2020-08-22T12:02:27Z</time>
      </trkpt>
      <trkpt lat="42.477520" lon="1.574300">
        <time>2020-08-22T12:02:27Z</time>
      </trkpt>
      <trkpt lat="42.477520" lon="1.574300">
        <time>2020-08-22T12:02:27Z</time>
      </trkpt>
      <trkpt lat="42.477516" lon="1.574288">
        <time>2020-08-22T12:02:27Z</time>
      </trkpt>
      <trkpt lat="42.477516" lon="1.574288">
        <time>2020-08-22T12:02:27Z</time>
      </trkpt>
      <trkpt lat="42.477512" lon="1.574277">
        <time>2020-08-22T12:02:27Z</time>
      </trkpt>
      <trkpt lat="42.477512" lon="1.574277">
        <time>2020-08-22T12:02:27Z</time>
      </trkpt>
      <trkpt lat="42.477505" lon="1.574265">
        <time>2020-08-22T12:02:27Z</time>
      </trkpt>
      <trkpt lat="42.477505" lon="1.574265">
        <time>2020-08-22T12:02:27Z</time>
      </trkpt>
      <trkpt lat="42.477497" lon="1.574252">
        <time>2020-08-22T12:02:27Z</time>
      </trkpt>
      <trkpt lat="42.477497" lon="1.574252">
        <time>2020-08-22T12:02:27Z</time>
      </trkpt>
      <trkpt lat="42.477493" lon="1.574238">
        <time>2020-08-22T12:02:34Z</time>
      </trkpt>
      <trkpt lat="42.477493" lon="1.574238">
        <time>2020-08-22T12:02:34Z</time>
      </trkpt>
      <trkpt lat="42.477486" lon="1.574224">
        <time>2020-08-22T12:02:34Z</time>
      </trkpt>
      <trkpt lat="42.477486" lon="1.574224">
        <time>2020-08-22T12:02:34Z</time>
      </trkpt>
      <trkpt lat="42.477478" lon="1.574211">
        <time>2020-08-22T12:02:34Z</time>
      </trkpt>
      <trkpt lat="42.477478" lon="1.574211">
        <time>2020-08-22T12:02:34Z</time>
      </trkpt>
      <trkpt lat="42.477470" lon="1.574199">
        <time>2020-08-22T12:02:34Z</time>
      </trkpt>
      <trkpt lat="42.477470" lon="1.574199">
        <time>2020-08-22T12:02:34Z</time>
      </trkpt>
      <trkpt lat="42.477467" lon="1.574186">
        <time>2020-08-22T12:02:34Z</time>
      </trkpt>
      <trkpt lat="42.477467" lon="1.574186">
        <time>2020-08-22T12:02:34Z</time>
      </trkpt>
      <trkpt lat="42.477459" lon="1.574173">
        <time>2020-08-22T12:02:34Z</time>
      </trkpt>
      <trkpt lat="42.477459" lon="1.574173">
        <time>2020-08-22T12:02:34Z</time>
      </trkpt>
      <trkpt lat="42.477451" lon="1.574160">
        <time>2020-08-22T12:02:34Z</time>
      </trkpt>
      <trkpt lat="42.477451" lon="1.574160">
        <time>2020-08-22T12:02:34Z</time>
      </trkpt>
      <trkpt lat="42.477444" lon="1.574147">
        <time>2020-08-22T12:02:41Z</time>
      </trkpt>
      <trkpt lat="42.477444" lon="1.574147">
        <time>2020-08-22T12:02:41Z</time>
      </trkpt>
      <trkpt lat="42.477440" lon="1.574134">
        <time>2020-08-22T12:02:41Z</time>
      </trkpt>
      <trkpt lat="42.477440" lon="1.574134">
        <time>2020-08-22T12:02:41Z</time>
      </trkpt>
      <trkpt lat="42.477432" lon="1.574121">
        <time>2020-08-22T12:02:41Z</time>
      </trkpt>
      <trkpt lat="42.477432" lon="1.574121">
        <time>2020-08-22T12:02:41Z</time>
      </trkpt>
      <trkpt lat="42.477428" lon="1.574109">
        <time>2020-08-22T12:02:41Z</time>
      </trkpt>
      <trkpt lat="42.477428" lon="1.574109">
        <time>2020-08-22T12:02:41Z</time>
      </trkpt>
      <trkpt lat="42.477421" lon="1.574097">
        <time>2020-08-22T12:02:41Z</time>
      </trkpt>
      <trkpt lat="42.477421" lon="1.574097">
        <time>2020-08-22T12:02:41Z</time>
      </trkpt>
      <trkpt lat="42.477413" lon="1.574086">
        <time>2020-08-22T12:02:41Z</time>
      </trkpt>
      <trkpt lat="42.477413" lon="1.574086">
        <time>2020-08-22T12:02:41Z</time>
      </trkpt>
      <trkpt lat="42.477409" lon="1.574075">
        <time>2020-08-22T12:02:41Z</time>
      </trkpt>
      <trkpt lat="42.477409" lon="1.574075">
        <time>2020-08-22T12:02:41Z</time>
      </trkpt>
      <trkpt lat="42.477402" lon="1.574064">
        <time>2020-08-22T12:02:48Z</time>
      </trkpt>
      <trkpt lat="42.477402" lon="1.574064">
        <time>2020-08-22T12:02:48Z</time>
      </trkpt>
      <trkpt lat="42.477398" lon="1.574054">
        <time>2020-08-22T12:02:48Z</time>
      </trkpt>
      <trkpt lat="42.477398" lon="1.574054">
        <time>2020-08-22T12:02:48Z</time>
      </trkpt>
      <trkpt lat="42.477390" lon="1.574043">
        <time>2020-08-22T12:02:48Z</time>
      </trkpt>
      <trkpt lat="42.477390" lon="1.574043">
        <time>2020-08-22T12:02:48Z</time>
      </trkpt>
      <trkpt lat="42.477386" lon="1.574033">
        <time>2020-08-22T12:02:48Z</time>
      </trkpt>
      <trkpt lat="42.477386" lon="1.574033">
        <time>2020-08-22T12:02:48Z</time>
      </trkpt>
      <trkpt lat="42.477383" lon="1.574024">
        <time>2020-08-22T12:02:48Z</time>
      </trkpt>
      <trkpt lat="42.477383" lon="1.574024">
        <time>2020-08-22T12:02:48Z</time>
      </trkpt>
      <trkpt lat="42.477379" lon="1.574015">
        <time>2020-08-22T12:02:48Z</time>
      </trkpt>
      <trkpt lat="42.477379" lon="1.574015">
        <time>2020-08-22T12:02:48Z</time>
      </trkpt>
      <trkpt lat="42.477375" lon="1.574006">
        <time>2020-08-22T12:02:48Z</time>
      </trkpt>
      <trkpt lat="42.477375" lon="1.574006">
        <time>2020-08-22T12:02:48Z</time>
      </trkpt>
      <trkpt lat="42.477371" lon="1.573996">
        <time>2020-08-22T12:02:55Z</time>
      </trkpt>
      <trkpt lat="42.477371" lon="1.573996">
        <time>2020-08-22T12:02:55Z</time>
      </trkpt>
      <trkpt lat="42.477367" lon="1.573986">
        <time>2020-08-22T12:02:55Z</time>
      </trkpt>
      <trkpt lat="42.477367" lon="1.573986">
        <time>2020-08-22T12:02:55Z</time>
      </trkpt>
      <trkpt lat="42.477364" lon="1.573976">
        <time>2020-08-22T12:02:55Z</time>
      </trkpt>
      <trkpt lat="42.477364" lon="1.573976">
        <time>2020-08-22T12:02:55Z</time>
      </trkpt>
      <trkpt lat="42.477360" lon="1.573965">
        <time>2020-08-22T12:02:55Z</time>
      </trkpt>
      <trkpt lat="42.477360" lon="1.573965">
        <time>2020-08-22T12:02:55Z</time>
      </trkpt>
      <trkpt lat="42.477356" lon="1.573955">
        <time>2020-08-22T12:02:55Z</time>
      </trkpt>
      <trkpt lat="42.477356" lon="1.573955">
        <time>2020-08-22T12:02:55Z</time>
      </trkpt>
      <trkpt lat="42.477356" lon="1.573943">
        <time>2020-08-22T12:02:55Z</time>
      </trkpt>
      <trkpt lat="42.477356" lon="1.573943">
        <time>2020-08-22T12:02:55Z</time>
      </trkpt>
      <trkpt lat="42.477352" lon="1.573932">
        <time>2020-08-22T12:03:02Z</time>
      </trkpt>
      <trkpt lat="42.477352" lon="1.573932">
        <time>2020-08-22T12:03:02Z</time>
      </trkpt>
      <trkpt lat="42.477348" lon="1.573920">
        <time>2020-08-22T12:03:02Z</time>
      </trkpt>
      <trkpt lat="42.477348" lon="1.573920">
        <time>2020-08-22T12:03:02Z</time>
      </trkpt>
      <trkpt lat="42.477348" lon="1.573908">
        <time>2020-08-22T12:03:02Z</time>
      </trkpt>
      <trkpt lat="42.477348" lon="1.573908">
        <time>2020-08-22T12:03:02Z</time>
      </trkpt>
      <trkpt lat="42.477341" lon="1.573896">
        <time>2020-08-22T12:03:02Z</time>
      </trkpt>
      <trkpt lat="42.477341" lon="1.573896">
        <time>2020-08-22T12:03:02Z</time>
      </trkpt>
      <trkpt lat="42.477337" lon="1.573885">
        <time>2020-08-22T12:03:02Z</time>
      </trkpt>
      <trkpt lat="42.477337" lon="1.573885">
        <time>2020-08-22T12:03:02Z</time>
      </trkpt>
      <trkpt lat="42.477333" lon="1.573875">
        <time>2020-08-22T12:03:02Z</time>
      </trkpt>
      <trkpt lat="42.477333" lon="1.573875">
        <time>2020-08-22T12:03:02Z</time>
      </trkpt>
      <trkpt lat="42.477329" lon="1.573866">
        <time>2020-08-22T12:03:02Z</time>
      </trkpt>
      <trkpt lat="42.477329" lon="1.573866">
        <time>2020-08-22T12:03:02Z</time>
      </trkpt>
      <trkpt lat="42.477325" lon="1.573857">
        <time>2020-08-22T12:03:09Z</time>
      </trkpt>
      <trkpt lat="42.477325" lon="1.573857">
        <time>2020-08-22T12:03:09Z</time>
      </trkpt>
      <trkpt lat="42.477310" lon="1.573839">
        <time>2020-08-22T12:03:16Z</time>
      </trkpt>
      <trkpt lat="42.477310" lon="1.573839">
        <time>2020-08-22T12:03:16Z</time>
      </trkpt>
      <trkpt lat="42.477303" lon="1.573823">
        <time>2020-08-22T12:03:16Z</time>
      </trkpt>
      <trkpt lat="42.477303" lon="1.573823">
        <time>2020-08-22T12:03:16Z</time>
      </trkpt>
      <trkpt lat="42.477287" lon="1.573807">
        <time>2020-08-22T12:03:16Z</time>
      </trkpt>
      <trkpt lat="42.477287" lon="1.573807">
        <time>2020-08-22T12:03:16Z</time>
      </trkpt>
      <trkpt lat="42.477276" lon="1.573792">
        <time>2020-08-22T12:03:16Z</time>
      </trkpt>
      <trkpt lat="42.477276" lon="1.573792">
        <time>2020-08-22T12:03:16Z</time>
      </trkpt>
      <trkpt lat="42.477264" lon="1.573778">
        <time>2020-08-22T12:03:16Z</time>
      </trkpt>
      <trkpt lat="42.477264" lon="1.573778">
        <time>2020-08-22T12:03:16Z</time>
      </trkpt>
      <trkpt lat="42.477249" lon="1.573766">
        <time>2020-08-22T12:03:16Z</time>
      </trkpt>
      <trkpt lat="42.477249" lon="1.573766">
        <time>2020-08-22T12:03:16Z</time>
      </trkpt>
      <trkpt lat="42.477234" lon="1.573754">
        <time>2020-08-22T12:03:16Z</time>
      </trkpt>
      <trkpt lat="42.477234" lon="1.573754">
        <time>2020-08-22T12:03:16Z</time>
      </trkpt>
      <trkpt lat="42.477219" lon="1.573743">
        <time>2020-08-22T12:03:23Z</time>
      </trkpt>
      <trkpt lat="42.477219" lon="1.573743">
        <time>2020-08-22T12:03:23Z</time>
      </trkpt>
      <trkpt lat="42.477203" lon="1.573734">
        <time>2020-08-22T12:03:23Z</time>
      </trkpt>
      <trkpt lat="42.477203" lon="1.573734">
        <time>2020-08-22T12:03:23Z</time>
      </trkpt>
      <trkpt lat="42.477188" lon="1.573724">
        <time>2020-08-22T12:03:23Z</time>
      </trkpt>
      <trkpt lat="42.477188" lon="1.573724">
        <time>2020-08-22T12:03:23Z</time>
      </trkpt>
      <trkpt lat="42.477173" lon="1.573727">
        <time>2020-08-22T12:03:23Z</time>
      </trkpt>
      <trkpt lat="42.477173" lon="1.573727">
        <time>2020-08-22T12:03:23Z</time>
      </trkpt>
      <trkpt lat="42.477161" lon="1.573730">
        <time>2020-08-22T12:03:23Z</time>
      </trkpt>
      <trkpt lat="42.477161" lon="1.573730">
        <time>2020-08-22T12:03:23Z</time>
      </trkpt>
      <trkpt lat="42.477150" lon="1.573733">
        <time>2020-08-22T12:03:23Z</time>
      </trkpt>
      <trkpt lat="42.477150" lon="1.573733">
        <time>2020-08-22T12:03:23Z</time>
      </trkpt>
      <trkpt lat="42.477139" lon="1.573737">
        <time>2020-08-22T12:03:23Z</time>
      </trkpt>
      <trkpt lat="42.477139" lon="1.573737">
        <time>2020-08-22T12:03:23Z</time>
      </trkpt>
      <trkpt lat="42.477127" lon="1.573740">
        <time>2020-08-22T12:03:31Z</time>
      </trkpt>
      <trkpt lat="42.477127" lon="1.573740">
        <time>2020-08-22T12:03:31Z</time>
      </trkpt>
      <trkpt lat="42.477116" lon="1.573744">
        <time>2020-08-22T12:03:31Z</time>
      </trkpt>
      <trkpt lat="42.477116" lon="1.573744">
        <time>2020-08-22T12:03:31Z</time>
      </trkpt>
      <trkpt lat="42.477108" lon="1.573748">
        <time>2020-08-22T12:03:31Z</time>
      </trkpt>
      <trkpt lat="42.477108" lon="1.573748">
        <time>2020-08-22T12:03:31Z</time>
      </trkpt>
      <trkpt lat="42.477097" lon="1.573751">
        <time>2020-08-22T12:03:31Z</time>
      </trkpt>
      <trkpt lat="42.477097" lon="1.573751">
        <time>2020-08-22T12:03:31Z</time>
      </trkpt>
      <trkpt lat="42.477089" lon="1.573755">
        <time>2020-08-22T12:03:31Z</time>
      </trkpt>
      <trkpt lat="42.477089" lon="1.573755">
        <time>2020-08-22T12:03:31Z</time>
      </trkpt>
      <trkpt lat="42.477081" lon="1.573759">
        <time>2020-08-22T12:03:31Z</time>
      </trkpt>
      <trkpt lat="42.477081" lon="1.573759">
        <time>2020-08-22T12:03:31Z</time>
      </trkpt>
      <trkpt lat="42.477074" lon="1.573764">
        <time>2020-08-22T12:03:31Z</time>
      </trkpt>
      <trkpt lat="42.477074" lon="1.573764">
        <time>2020-08-22T12:03:31Z</time>
      </trkpt>
      <trkpt lat="42.477066" lon="1.573769">
        <time>2020-08-22T12:03:31Z</time>
      </trkpt>
      <trkpt lat="42.477066" lon="1.573769">
        <time>2020-08-22T12:03:31Z</time>
      </trkpt>
      <trkpt lat="42.477062" lon="1.573774">
        <time>2020-08-22T12:03:31Z</time>
      </trkpt>
      <trkpt lat="42.477062" lon="1.573774">
        <time>2020-08-22T12:03:31Z</time>
      </trkpt>
      <trkpt lat="42.477055" lon="1.573778">
        <time>2020-08-22T12:03:31Z</time>
      </trkpt>
      <trkpt lat="42.477055" lon="1.573778">
        <time>2020-08-22T12:03:31Z</time>
      </trkpt>
      <trkpt lat="42.477047" lon="1.573782">
        <time>2020-08-22T12:03:31Z</time>
      </trkpt>
      <trkpt lat="42.477047" lon="1.573782">
        <time>2020-08-22T12:03:31Z</time>
      </trkpt>
      <trkpt lat="42.477039" lon="1.573786">
        <time>2020-08-22T12:03:31Z</time>
      </trkpt>
      <trkpt lat="42.477039" lon="1.573786">
        <time>2020-08-22T12:03:31Z</time>
      </trkpt>
      <trkpt lat="42.477036" lon="1.573788">
        <time>2020-08-22T12:03:31Z</time>
      </trkpt>
      <trkpt lat="42.477036" lon="1.573788">
        <time>2020-08-22T12:03:31Z</time>
      </trkpt>
      <trkpt lat="42.477028" lon="1.573789">
        <time>2020-08-22T12:03:39Z</time>
      </trkpt>
      <trkpt lat="42.477028" lon="1.573789">
        <time>2020-08-22T12:03:39Z</time>
      </trkpt>
      <trkpt lat="42.477020" lon="1.573789">
        <time>2020-08-22T12:03:39Z</time>
      </trkpt>
      <trkpt lat="42.477020" lon="1.573789">
        <time>2020-08-22T12:03:39Z</time>
      </trkpt>
      <trkpt lat="42.477013" lon="1.573789">
        <time>2020-08-22T12:03:39Z</time>
      </trkpt>
      <trkpt lat="42.477013" lon="1.573789">
        <time>2020-08-22T12:03:39Z</time>
      </trkpt>
      <trkpt lat="42.477005" lon="1.573780">
        <time>2020-08-22T12:03:39Z</time>
      </trkpt>
      <trkpt lat="42.477005" lon="1.573780">
        <time>2020-08-22T12:03:39Z</time>
      </trkpt>
      <trkpt lat="42.476994" lon="1.573772">
        <time>2020-08-22T12:03:39Z</time>
      </trkpt>
      <trkpt lat="42.476994" lon="1.573772">
        <time>2020-08-22T12:03:39Z</time>
      </trkpt>
      <trkpt lat="42.476986" lon="1.573764">
        <time>2020-08-22T12:03:39Z</time>
      </trkpt>
      <trkpt lat="42.476986" lon="1.573764">
        <time>2020-08-22T12:03:39Z</time>
      </trkpt>
      <trkpt lat="42.476974" lon="1.573757">
        <time>2020-08-22T12:03:39Z</time>
      </trkpt>
      <trkpt lat="42.476974" lon="1.573757">
        <time>2020-08-22T12:03:39Z</time>
      </trkpt>
      <trkpt lat="42.476967" lon="1.573749">
        <time>2020-08-22T12:03:39Z</time>
      </trkpt>
      <trkpt lat="42.476967" lon="1.573749">
        <time>2020-08-22T12:03:39Z</time>
      </trkpt>
      <trkpt lat="42.476959" lon="1.573740">
        <time>2020-08-22T12:03:46Z</time>
      </trkpt>
      <trkpt lat="42.476959" lon="1.573740">
        <time>2020-08-22T12:03:46Z</time>
      </trkpt>
      <trkpt lat="42.476948" lon="1.573732">
        <time>2020-08-22T12:03:46Z</time>
      </trkpt>
      <trkpt lat="42.476948" lon="1.573732">
        <time>2020-08-22T12:03:46Z</time>
      </trkpt>
      <trkpt lat="42.476940" lon="1.573724">
        <time>2020-08-22T12:03:46Z</time>
      </trkpt>
      <trkpt lat="42.476940" lon="1.573724">
        <time>2020-08-22T12:03:46Z</time>
      </trkpt>
      <trkpt lat="42.476929" lon="1.573716">
        <time>2020-08-22T12:03:46Z</time>
      </trkpt>
      <trkpt lat="42.476929" lon="1.573716">
        <time>2020-08-22T12:03:46Z</time>
      </trkpt>
      <trkpt lat="42.476917" lon="1.573708">
        <time>2020-08-22T12:03:46Z</time>
      </trkpt>
      <trkpt lat="42.476917" lon="1.573708">
        <time>2020-08-22T12:03:46Z</time>
      </trkpt>
      <trkpt lat="42.476913" lon="1.573705">
        <time>2020-08-22T12:03:46Z</time>
      </trkpt>
      <trkpt lat="42.476913" lon="1.573705">
        <time>2020-08-22T12:03:46Z</time>
      </trkpt>
      <trkpt lat="42.476906" lon="1.573702">
        <time>2020-08-22T12:03:46Z</time>
      </trkpt>
      <trkpt lat="42.476906" lon="1.573702">
        <time>2020-08-22T12:03:46Z</time>
      </trkpt>
      <trkpt lat="42.476894" lon="1.573698">
        <time>2020-08-22T12:03:53Z</time>
      </trkpt>
      <trkpt lat="42.476894" lon="1.573698">
        <time>2020-08-22T12:03:53Z</time>
      </trkpt>
      <trkpt lat="42.476887" lon="1.573694">
        <time>2020-08-22T12:03:53Z</time>
      </trkpt>
      <trkpt lat="42.476887" lon="1.573694">
        <time>2020-08-22T12:03:53Z</time>
      </trkpt>
      <trkpt lat="42.476879" lon="1.573691">
        <time>2020-08-22T12:03:53Z</time>
      </trkpt>
      <trkpt lat="42.476879" lon="1.573691">
        <time>2020-08-22T12:03:53Z</time>
      </trkpt>
      <trkpt lat="42.476868" lon="1.573688">
        <time>2020-08-22T12:03:53Z</time>
      </trkpt>
      <trkpt lat="42.476868" lon="1.573688">
        <time>2020-08-22T12:03:53Z</time>
      </trkpt>
      <trkpt lat="42.476856" lon="1.573686">
        <time>2020-08-22T12:03:53Z</time>
      </trkpt>
      <trkpt lat="42.476856" lon="1.573686">
        <time>2020-08-22T12:03:53Z</time>
      </trkpt>
      <trkpt lat="42.476845" lon="1.573684">
        <time>2020-08-22T12:03:53Z</time>
      </trkpt>
      <trkpt lat="42.476845" lon="1.573684">
        <time>2020-08-22T12:03:53Z</time>
      </trkpt>
      <trkpt lat="42.476837" lon="1.573683">
        <time>2020-08-22T12:03:53Z</time>
      </trkpt>
      <trkpt lat="42.476837" lon="1.573683">
        <time>2020-08-22T12:03:53Z</time>
      </trkpt>
      <trkpt lat="42.476826" lon="1.573681">
        <time>2020-08-22T12:04:00Z</time>
      </trkpt>
      <trkpt lat="42.476826" lon="1.573681">
        <time>2020-08-22T12:04:00Z</time>
      </trkpt>
      <trkpt lat="42.476814" lon="1.573680">
        <time>2020-08-22T12:04:00Z</time>
      </trkpt>
      <trkpt lat="42.476814" lon="1.573680">
        <time>2020-08-22T12:04:00Z</time>
      </trkpt>
      <trkpt lat="42.476807" lon="1.573679">
        <time>2020-08-22T12:04:00Z</time>
      </trkpt>
      <trkpt lat="42.476807" lon="1.573679">
        <time>2020-08-22T12:04:00Z</time>
      </trkpt>
      <trkpt lat="42.476799" lon="1.573679">
        <time>2020-08-22T12:04:00Z</time>
      </trkpt>
      <trkpt lat="42.476799" lon="1.573679">
        <time>2020-08-22T12:04:00Z</time>
      </trkpt>
      <trkpt lat="42.476788" lon="1.573678">
        <time>2020-08-22T12:04:00Z</time>
      </trkpt>
      <trkpt lat="42.476788" lon="1.573678">
        <time>2020-08-22T12:04:00Z</time>
      </trkpt>
      <trkpt lat="42.476780" lon="1.573677">
        <time>2020-08-22T12:04:00Z</time>
      </trkpt>
      <trkpt lat="42.476780" lon="1.573677">
        <time>2020-08-22T12:04:00Z</time>
      </trkpt>
      <trkpt lat="42.476772" lon="1.573677">
        <time>2020-08-22T12:04:00Z</time>
      </trkpt>
      <trkpt lat="42.476772" lon="1.573677">
        <time>2020-08-22T12:04:00Z</time>
      </trkpt>
      <trkpt lat="42.476765" lon="1.573676">
        <time>2020-08-22T12:04:07Z</time>
      </trkpt>
      <trkpt lat="42.476765" lon="1.573676">
        <time>2020-08-22T12:04:07Z</time>
      </trkpt>
      <trkpt lat="42.476757" lon="1.573677">
        <time>2020-08-22T12:04:07Z</time>
      </trkpt>
      <trkpt lat="42.476757" lon="1.573677">
        <time>2020-08-22T12:04:07Z</time>
      </trkpt>
      <trkpt lat="42.476749" lon="1.573677">
        <time>2020-08-22T12:04:07Z</time>
      </trkpt>
      <trkpt lat="42.476749" lon="1.573677">
        <time>2020-08-22T12:04:07Z</time>
      </trkpt>
      <trkpt lat="42.476746" lon="1.573679">
        <time>2020-08-22T12:04:07Z</time>
      </trkpt>
      <trkpt lat="42.476746" lon="1.573679">
        <time>2020-08-22T12:04:07Z</time>
      </trkpt>
      <trkpt lat="42.476734" lon="1.573681">
        <time>2020-08-22T12:04:07Z</time>
      </trkpt>
      <trkpt lat="42.476734" lon="1.573681">
        <time>2020-08-22T12:04:07Z</time>
      </trkpt>
      <trkpt lat="42.476727" lon="1.573683">
        <time>2020-08-22T12:04:07Z</time>
      </trkpt>
      <trkpt lat="42.476727" lon="1.573683">
        <time>2020-08-22T12:04:07Z</time>
      </trkpt>
      <trkpt lat="42.476723" lon="1.573686">
        <time>2020-08-22T12:04:07Z</time>
      </trkpt>
      <trkpt lat="42.476723" lon="1.573686">
        <time>2020-08-22T12:04:07Z</time>
      </trkpt>
      <trkpt lat="42.476715" lon="1.573688">
        <time>2020-08-22T12:04:14Z</time>
      </trkpt>
      <trkpt lat="42.476715" lon="1.573688">
        <time>2020-08-22T12:04:14Z</time>
      </trkpt>
      <trkpt lat="42.476707" lon="1.573692">
        <time>2020-08-22T12:04:14Z</time>
      </trkpt>
      <trkpt lat="42.476707" lon="1.573692">
        <time>2020-08-22T12:04:14Z</time>
      </trkpt>
      <trkpt lat="42.476700" lon="1.573695">
        <time>2020-08-22T12:04:14Z</time>
      </trkpt>
      <trkpt lat="42.476700" lon="1.573695">
        <time>2020-08-22T12:04:14Z</time>
      </trkpt>
      <trkpt lat="42.476692" lon="1.573699">
        <time>2020-08-22T12:04:14Z</time>
      </trkpt>
      <trkpt lat="42.476692" lon="1.573699">
        <time>2020-08-22T12:04:14Z</time>
      </trkpt>
      <trkpt lat="42.476685" lon="1.573702">
        <time>2020-08-22T12:04:14Z</time>
      </trkpt>
      <trkpt lat="42.476685" lon="1.573702">
        <time>2020-08-22T12:04:14Z</time>
      </trkpt>
      <trkpt lat="42.476677" lon="1.573706">
        <time>2020-08-22T12:04:14Z</time>
      </trkpt>
      <trkpt lat="42.476677" lon="1.573706">
        <time>2020-08-22T12:04:14Z</time>
      </trkpt>
      <trkpt lat="42.476665" lon="1.573711">
        <time>2020-08-22T12:04:14Z</time>
      </trkpt>
      <trkpt lat="42.476665" lon="1.573711">
        <time>2020-08-22T12:04:14Z</time>
      </trkpt>
      <trkpt lat="42.476658" lon="1.573716">
        <time>2020-08-22T12:04:14Z</time>
      </trkpt>
      <trkpt lat="42.476658" lon="1.573716">
        <time>2020-08-22T12:04:14Z</time>
      </trkpt>
      <trkpt lat="42.476646" lon="1.573721">
        <time>2020-08-22T12:04:14Z</time>
      </trkpt>
      <trkpt lat="42.476646" lon="1.573721">
        <time>2020-08-22T12:04:14Z</time>
      </trkpt>
      <trkpt lat="42.476635" lon="1.573726">
        <time>2020-08-22T12:04:21Z</time>
      </trkpt>
      <trkpt lat="42.476635" lon="1.573726">
        <time>2020-08-22T12:04:21Z</time>
      </trkpt>
      <trkpt lat="42.476624" lon="1.573730">
        <time>2020-08-22T12:04:21Z</time>
      </trkpt>
      <trkpt lat="42.476624" lon="1.573730">
        <time>2020-08-22T12:04:21Z</time>
      </trkpt>
      <trkpt lat="42.476612" lon="1.573733">
        <time>2020-08-22T12:04:21Z</time>
      </trkpt>
      <trkpt lat="42.476612" lon="1.573733">
        <time>2020-08-22T12:04:21Z</time>
      </trkpt>
      <trkpt lat="42.476604" lon="1.573736">
        <time>2020-08-22T12:04:21Z</time>
      </trkpt>
      <trkpt lat="42.476604" lon="1.573736">
        <time>2020-08-22T12:04:21Z</time>
      </trkpt>
      <trkpt lat="42.476593" lon="1.573738">
        <time>2020-08-22T12:04:21Z</time>
      </trkpt>
      <trkpt lat="42.476593" lon="1.573738">
        <time>2020-08-22T12:04:21Z</time>
      </trkpt>
      <trkpt lat="42.476582" lon="1.573739">
        <time>2020-08-22T12:04:21Z</time>
      </trkpt>
      <trkpt lat="42.476582" lon="1.573739">
        <time>2020-08-22T12:04:21Z</time>
      </trkpt>
      <trkpt lat="42.476570" lon="1.573738">
        <time>2020-08-22T12:04:21Z</time>
      </trkpt>
      <trkpt lat="42.476570" lon="1.573738">
        <time>2020-08-22T12:04:21Z</time>
      </trkpt>
      <trkpt lat="42.476559" lon="1.573736">
        <time>2020-08-22T12:04:28Z</time>
      </trkpt>
      <trkpt lat="42.476559" lon="1.573736">
        <time>2020-08-22T12:04:28Z</time>
      </trkpt>
      <trkpt lat="42.476547" lon="1.573731">
        <time>2020-08-22T12:04:28Z</time>
      </trkpt>
      <trkpt lat="42.476547" lon="1.573731">
        <time>2020-08-22T12:04:28Z</time>
      </trkpt>
      <trkpt lat="42.476536" lon="1.573726">
        <time>2020-08-22T12:04:28Z</time>
      </trkpt>
      <trkpt lat="42.476536" lon="1.573726">
        <time>2020-08-22T12:04:28Z</time>
      </trkpt>
      <trkpt lat="42.476524" lon="1.573720">
        <time>2020-08-22T12:04:28Z</time>
      </trkpt>
      <trkpt lat="42.476524" lon="1.573720">
        <time>2020-08-22T12:04:28Z</time>
      </trkpt>
      <trkpt lat="42.476513" lon="1.573713">
        <time>2020-08-22T12:04:28Z</time>
      </trkpt>
      <trkpt lat="42.476513" lon="1.573713">
        <time>2020-08-22T12:04:28Z</time>
      </trkpt>
      <trkpt lat="42.476505" lon="1.573707">
        <time>2020-08-22T12:04:28Z</time>
      </trkpt>
      <trkpt lat="42.476505" lon="1.573707">
        <time>2020-08-22T12:04:28Z</time>
      </trkpt>
      <trkpt lat="42.476498" lon="1.573700">
        <time>2020-08-22T12:04:28Z</time>
      </trkpt>
      <trkpt lat="42.476498" lon="1.573700">
        <time>2020-08-22T12:04:28Z</time>
      </trkpt>
      <trkpt lat="42.476486" lon="1.573692">
        <time>2020-08-22T12:04:36Z</time>
      </trkpt>
      <trkpt lat="42.476486" lon="1.573692">
        <time>2020-08-22T12:04:36Z</time>
      </trkpt>
      <trkpt lat="42.476479" lon="1.573685">
        <time>2020-08-22T12:04:36Z</time>
      </trkpt>
      <trkpt lat="42.476479" lon="1.573685">
        <time>2020-08-22T12:04:36Z</time>
      </trkpt>
      <trkpt lat="42.476475" lon="1.573678">
        <time>2020-08-22T12:04:36Z</time>
      </trkpt>
      <trkpt lat="42.476475" lon="1.573678">
        <time>2020-08-22T12:04:36Z</time>
      </trkpt>
      <trkpt lat="42.476467" lon="1.573671">
        <time>2020-08-22T12:04:36Z</time>
      </trkpt>
      <trkpt lat="42.476467" lon="1.573671">
        <time>2020-08-22T12:04:36Z</time>
      </trkpt>
      <trkpt lat="42.476459" lon="1.573663">
        <time>2020-08-22T12:04:36Z</time>
      </trkpt>
      <trkpt lat="42.476459" lon="1.573663">
        <time>2020-08-22T12:04:36Z</time>
      </trkpt>
      <trkpt lat="42.476452" lon="1.573656">
        <time>2020-08-22T12:04:36Z</time>
      </trkpt>
      <trkpt lat="42.476452" lon="1.573656">
        <time>2020-08-22T12:04:36Z</time>
      </trkpt>
      <trkpt lat="42.476448" lon="1.573651">
        <time>2020-08-22T12:04:36Z</time>
      </trkpt>
      <trkpt lat="42.476448" lon="1.573651">
        <time>2020-08-22T12:04:36Z</time>
      </trkpt>
      <trkpt lat="42.476444" lon="1.573647">
        <time>2020-08-22T12:04:36Z</time>
      </trkpt>
      <trkpt lat="42.476444" lon="1.573647">
        <time>2020-08-22T12:04:36Z</time>
      </trkpt>
      <trkpt lat="42.476437" lon="1.573644">
        <time>2020-08-22T12:04:36Z</time>
      </trkpt>
      <trkpt lat="42.476437" lon="1.573644">
        <time>2020-08-22T12:04:36Z</time>
      </trkpt>
      <trkpt lat="42.476433" lon="1.573643">
        <time>2020-08-22T12:04:46Z</time>
      </trkpt>
      <trkpt lat="42.476433" lon="1.573643">
        <time>2020-08-22T12:04:46Z</time>
      </trkpt>
      <trkpt lat="42.476433" lon="1.573644">
        <time>2020-08-22T12:04:46Z</time>
      </trkpt>
      <trkpt lat="42.476433" lon="1.573644">
        <time>2020-08-22T12:04:46Z</time>
      </trkpt>
      <trkpt lat="42.476425" lon="1.573647">
        <time>2020-08-22T12:04:46Z</time>
      </trkpt>
      <trkpt lat="42.476425" lon="1.573647">
        <time>2020-08-22T12:04:46Z</time>
      </trkpt>
      <trkpt lat="42.476425" lon="1.573652">
        <time>2020-08-22T12:04:46Z</time>
      </trkpt>
      <trkpt lat="42.476425" lon="1.573652">
        <time>2020-08-22T12:04:46Z</time>
      </trkpt>
      <trkpt lat="42.476421" lon="1.573659">
        <time>2020-08-22T12:04:46Z</time>
      </trkpt>
      <trkpt lat="42.476421" lon="1.573659">
        <time>2020-08-22T12:04:46Z</time>
      </trkpt>
      <trkpt lat="42.476421" lon="1.573669">
        <time>2020-08-22T12:04:53Z</time>
      </trkpt>
      <trkpt lat="42.476421" lon="1.573669">
        <time>2020-08-22T12:04:53Z</time>
      </trkpt>
      <trkpt lat="42.476421" lon="1.573679">
        <time>2020-08-22T12:04:53Z</time>
      </trkpt>
      <trkpt lat="42.476421" lon="1.573679">
        <time>2020-08-22T12:04:53Z</time>
      </trkpt>
      <trkpt lat="42.476418" lon="1.573688">
        <time>2020-08-22T12:04:53Z</time>
      </trkpt>
      <trkpt lat="42.476418" lon="1.573688">
        <time>2020-08-22T12:04:53Z</time>
      </trkpt>
      <trkpt lat="42.476418" lon="1.573698">
        <time>2020-08-22T12:04:53Z</time>
      </trkpt>
      <trkpt lat="42.476418" lon="1.573698">
        <time>2020-08-22T12:04:53Z</time>
      </trkpt>
      <trkpt lat="42.476410" lon="1.573707">
        <time>2020-08-22T12:04:53Z</time>
      </trkpt>
      <trkpt lat="42.476410" lon="1.573707">
        <time>2020-08-22T12:04:53Z</time>
      </trkpt>
      <trkpt lat="42.476406" lon="1.573715">
        <time>2020-08-22T12:04:53Z</time>
      </trkpt>
      <trkpt lat="42.476406" lon="1.573715">
        <time>2020-08-22T12:04:53Z</time>
      </trkpt>
      <trkpt lat="42.476402" lon="1.573724">
        <time>2020-08-22T12:05:00Z</time>
      </trkpt>
      <trkpt lat="42.476402" lon="1.573724">
        <time>2020-08-22T12:05:00Z</time>
      </trkpt>
      <trkpt lat="42.476398" lon="1.573731">
        <time>2020-08-22T12:05:00Z</time>
      </trkpt>
      <trkpt lat="42.476398" lon="1.573731">
        <time>2020-08-22T12:05:00Z</time>
      </trkpt>
      <trkpt lat="42.476395" lon="1.573738">
        <time>2020-08-22T12:05:00Z</time>
      </trkpt>
      <trkpt lat="42.476395" lon="1.573738">
        <time>2020-08-22T12:05:00Z</time>
      </trkpt>
      <trkpt lat="42.476391" lon="1.573744">
        <time>2020-08-22T12:05:00Z</time>
      </trkpt>
      <trkpt lat="42.476391" lon="1.573744">
        <time>2020-08-22T12:05:00Z</time>
      </trkpt>
      <trkpt lat="42.476383" lon="1.573769">
        <time>2020-08-22T12:05:07Z</time>
      </trkpt>
      <trkpt lat="42.476383" lon="1.573769">
        <time>2020-08-22T12:05:07Z</time>
      </trkpt>
      <trkpt lat="42.476372" lon="1.573794">
        <time>2020-08-22T12:05:07Z</time>
      </trkpt>
      <trkpt lat="42.476372" lon="1.573794">
        <time>2020-08-22T12:05:07Z</time>
      </trkpt>
      <trkpt lat="42.476368" lon="1.573819">
        <time>2020-08-22T12:05:07Z</time>
      </trkpt>
      <trkpt lat="42.476368" lon="1.573819">
        <time>2020-08-22T12:05:07Z</time>
      </trkpt>
      <trkpt lat="42.476360" lon="1.573843">
        <time>2020-08-22T12:05:07Z</time>
      </trkpt>
      <trkpt lat="42.476360" lon="1.573843">
        <time>2020-08-22T12:05:07Z</time>
      </trkpt>
      <trkpt lat="42.476353" lon="1.573868">
        <time>2020-08-22T12:05:07Z</time>
      </trkpt>
      <trkpt lat="42.476353" lon="1.573868">
        <time>2020-08-22T12:05:07Z</time>
      </trkpt>
      <trkpt lat="42.476345" lon="1.573891">
        <time>2020-08-22T12:05:07Z</time>
      </trkpt>
      <trkpt lat="42.476345" lon="1.573891">
        <time>2020-08-22T12:05:07Z</time>
      </trkpt>
      <trkpt lat="42.476337" lon="1.573915">
        <time>2020-08-22T12:05:07Z</time>
      </trkpt>
      <trkpt lat="42.476337" lon="1.573915">
        <time>2020-08-22T12:05:07Z</time>
      </trkpt>
      <trkpt lat="42.476330" lon="1.573939">
        <time>2020-08-22T12:05:07Z</time>
      </trkpt>
      <trkpt lat="42.476330" lon="1.573939">
        <time>2020-08-22T12:05:07Z</time>
      </trkpt>
      <trkpt lat="42.476322" lon="1.573964">
        <time>2020-08-22T12:05:07Z</time>
      </trkpt>
      <trkpt lat="42.476322" lon="1.573964">
        <time>2020-08-22T12:05:07Z</time>
      </trkpt>
      <trkpt lat="42.476318" lon="1.573988">
        <time>2020-08-22T12:05:07Z</time>
      </trkpt>
      <trkpt lat="42.476318" lon="1.573988">
        <time>2020-08-22T12:05:07Z</time>
      </trkpt>
      <trkpt lat="42.476307" lon="1.573994">
        <time>2020-08-22T12:05:14Z</time>
      </trkpt>
      <trkpt lat="42.476307" lon="1.573994">
        <time>2020-08-22T12:05:14Z</time>
      </trkpt>
      <trkpt lat="42.476299" lon="1.573999">
        <time>2020-08-22T12:05:14Z</time>
      </trkpt>
      <trkpt lat="42.476299" lon="1.573999">
        <time>2020-08-22T12:05:14Z</time>
      </trkpt>
      <trkpt lat="42.476288" lon="1.574004">
        <time>2020-08-22T12:05:14Z</time>
      </trkpt>
      <trkpt lat="42.476288" lon="1.574004">
        <time>2020-08-22T12:05:14Z</time>
      </trkpt>
      <trkpt lat="42.476280" lon="1.574009">
        <time>2020-08-22T12:05:14Z</time>
      </trkpt>
      <trkpt lat="42.476280" lon="1.574009">
        <time>2020-08-22T12:05:14Z</time>
      </trkpt>
      <trkpt lat="42.476273" lon="1.574014">
        <time>2020-08-22T12:05:14Z</time>
      </trkpt>
      <trkpt lat="42.476273" lon="1.574014">
        <time>2020-08-22T12:05:14Z</time>
      </trkpt>
      <trkpt lat="42.476261" lon="1.574020">
        <time>2020-08-22T12:05:14Z</time>
      </trkpt>
      <trkpt lat="42.476261" lon="1.574020">
        <time>2020-08-22T12:05:14Z</time>
      </trkpt>
      <trkpt lat="42.476250" lon="1.574026">
        <time>2020-08-22T12:05:14Z</time>
      </trkpt>
      <trkpt lat="42.476250" lon="1.574026">
        <time>2020-08-22T12:05:14Z</time>
      </trkpt>
      <trkpt lat="42.476238" lon="1.574031">
        <time>2020-08-22T12:05:22Z</time>
      </trkpt>
      <trkpt lat="42.476238" lon="1.574031">
        <time>2020-08-22T12:05:22Z</time>
      </trkpt>
      <trkpt lat="42.476231" lon="1.574037">
        <time>2020-08-22T12:05:22Z</time>
      </trkpt>
      <trkpt lat="42.476231" lon="1.574037">
        <time>2020-08-22T12:05:22Z</time>
      </trkpt>
      <trkpt lat="42.476215" lon="1.574042">
        <time>2020-08-22T12:05:22Z</time>
      </trkpt>
      <trkpt lat="42.476215" lon="1.574042">
        <time>2020-08-22T12:05:22Z</time>
      </trkpt>
      <trkpt lat="42.476208" lon="1.574047">
        <time>2020-08-22T12:05:22Z</time>
      </trkpt>
      <trkpt lat="42.476208" lon="1.574047">
        <time>2020-08-22T12:05:22Z</time>
      </trkpt>
      <trkpt lat="42.476200" lon="1.574053">
        <time>2020-08-22T12:05:22Z</time>
      </trkpt>
      <trkpt lat="42.476200" lon="1.574053">
        <time>2020-08-22T12:05:22Z</time>
      </trkpt>
      <trkpt lat="42.476192" lon="1.574060">
        <time>2020-08-22T12:05:22Z</time>
      </trkpt>
      <trkpt lat="42.476192" lon="1.574060">
        <time>2020-08-22T12:05:22Z</time>
      </trkpt>
      <trkpt lat="42.476185" lon="1.574067">
        <time>2020-08-22T12:05:22Z</time>
      </trkpt>
      <trkpt lat="42.476185" lon="1.574067">
        <time>2020-08-22T12:05:22Z</time>
      </trkpt>
      <trkpt lat="42.476177" lon="1.574075">
        <time>2020-08-22T12:05:29Z</time>
      </trkpt>
      <trkpt lat="42.476177" lon="1.574075">
        <time>2020-08-22T12:05:29Z</time>
      </trkpt>
      <trkpt lat="42.476170" lon="1.574082">
        <time>2020-08-22T12:05:29Z</time>
      </trkpt>
      <trkpt lat="42.476170" lon="1.574082">
        <time>2020-08-22T12:05:29Z</time>
      </trkpt>
      <trkpt lat="42.476162" lon="1.574090">
        <time>2020-08-22T12:05:29Z</time>
      </trkpt>
      <trkpt lat="42.476162" lon="1.574090">
        <time>2020-08-22T12:05:29Z</time>
      </trkpt>
      <trkpt lat="42.476158" lon="1.574097">
        <time>2020-08-22T12:05:29Z</time>
      </trkpt>
      <trkpt lat="42.476158" lon="1.574097">
        <time>2020-08-22T12:05:29Z</time>
      </trkpt>
      <trkpt lat="42.476151" lon="1.574105">
        <time>2020-08-22T12:05:29Z</time>
      </trkpt>
      <trkpt lat="42.476151" lon="1.574105">
        <time>2020-08-22T12:05:29Z</time>
      </trkpt>
      <trkpt lat="42.476147" lon="1.574113">
        <time>2020-08-22T12:05:29Z</time>
      </trkpt>
      <trkpt lat="42.476147" lon="1.574113">
        <time>2020-08-22T12:05:29Z</time>
      </trkpt>
      <trkpt lat="42.476143" lon="1.574121">
        <time>2020-08-22T12:05:29Z</time>
      </trkpt>
      <trkpt lat="42.476143" lon="1.574121">
        <time>2020-08-22T12:05:29Z</time>
      </trkpt>
      <trkpt lat="42.476135" lon="1.574128">
        <time>2020-08-22T12:05:29Z</time>
      </trkpt>
      <trkpt lat="42.476135" lon="1.574128">
        <time>2020-08-22T12:05:29Z</time>
      </trkpt>
      <trkpt lat="42.476128" lon="1.574135">
        <time>2020-08-22T12:05:29Z</time>
      </trkpt>
      <trkpt lat="42.476128" lon="1.574135">
        <time>2020-08-22T12:05:29Z</time>
      </trkpt>
      <trkpt lat="42.476120" lon="1.574142">
        <time>2020-08-22T12:05:29Z</time>
      </trkpt>
      <trkpt lat="42.476120" lon="1.574142">
        <time>2020-08-22T12:05:29Z</time>
      </trkpt>
      <trkpt lat="42.476112" lon="1.574149">
        <time>2020-08-22T12:05:36Z</time>
      </trkpt>
      <trkpt lat="42.476112" lon="1.574149">
        <time>2020-08-22T12:05:36Z</time>
      </trkpt>
      <trkpt lat="42.476105" lon="1.574156">
        <time>2020-08-22T12:05:36Z</time>
      </trkpt>
      <trkpt lat="42.476105" lon="1.574156">
        <time>2020-08-22T12:05:36Z</time>
      </trkpt>
      <trkpt lat="42.476097" lon="1.574163">
        <time>2020-08-22T12:05:36Z</time>
      </trkpt>
      <trkpt lat="42.476097" lon="1.574163">
        <time>2020-08-22T12:05:36Z</time>
      </trkpt>
      <trkpt lat="42.476086" lon="1.574169">
        <time>2020-08-22T12:05:36Z</time>
      </trkpt>
      <trkpt lat="42.476086" lon="1.574169">
        <time>2020-08-22T12:05:36Z</time>
      </trkpt>
      <trkpt lat="42.476082" lon="1.574176">
        <time>2020-08-22T12:05:36Z</time>
      </trkpt>
      <trkpt lat="42.476082" lon="1.574176">
        <time>2020-08-22T12:05:36Z</time>
      </trkpt>
      <trkpt lat="42.476070" lon="1.574183">
        <time>2020-08-22T12:05:36Z</time>
      </trkpt>
      <trkpt lat="42.476070" lon="1.574183">
        <time>2020-08-22T12:05:36Z</time>
      </trkpt>
      <trkpt lat="42.476063" lon="1.574190">
        <time>2020-08-22T12:05:36Z</time>
      </trkpt>
      <trkpt lat="42.476063" lon="1.574190">
        <time>2020-08-22T12:05:36Z</time>
      </trkpt>
      <trkpt lat="42.476059" lon="1.574198">
        <time>2020-08-22T12:05:43Z</time>
      </trkpt>
      <trkpt lat="42.476059" lon="1.574198">
        <time>2020-08-22T12:05:43Z</time>
      </trkpt>
      <trkpt lat="42.476055" lon="1.574205">
        <time>2020-08-22T12:05:43Z</time>
      </trkpt>
      <trkpt lat="42.476055" lon="1.574205">
        <time>2020-08-22T12:05:43Z</time>
      </trkpt>
      <trkpt lat="42.476051" lon="1.574212">
        <time>2020-08-22T12:05:43Z</time>
      </trkpt>
      <trkpt lat="42.476051" lon="1.574212">
        <time>2020-08-22T12:05:43Z</time>
      </trkpt>
      <trkpt lat="42.476048" lon="1.574219">
        <time>2020-08-22T12:05:43Z</time>
      </trkpt>
      <trkpt lat="42.476048" lon="1.574219">
        <time>2020-08-22T12:05:43Z</time>
      </trkpt>
      <trkpt lat="42.476048" lon="1.574227">
        <time>2020-08-22T12:05:43Z</time>
      </trkpt>
      <trkpt lat="42.476048" lon="1.574227">
        <time>2020-08-22T12:05:43Z</time>
      </trkpt>
      <trkpt lat="42.476048" lon="1.574235">
        <time>2020-08-22T12:05:43Z</time>
      </trkpt>
      <trkpt lat="42.476048" lon="1.574235">
        <time>2020-08-22T12:05:43Z</time>
      </trkpt>
      <trkpt lat="42.476048" lon="1.574243">
        <time>2020-08-22T12:05:43Z</time>
      </trkpt>
      <trkpt lat="42.476048" lon="1.574243">
        <time>2020-08-22T12:05:43Z</time>
      </trkpt>
      <trkpt lat="42.476048" lon="1.574251">
        <time>2020-08-22T12:05:50Z</time>
      </trkpt>
      <trkpt lat="42.476048" lon="1.574251">
        <time>2020-08-22T12:05:50Z</time>
      </trkpt>
      <trkpt lat="42.476048" lon="1.574259">
        <time>2020-08-22T12:05:50Z</time>
      </trkpt>
      <trkpt lat="42.476048" lon="1.574259">
        <time>2020-08-22T12:05:50Z</time>
      </trkpt>
      <trkpt lat="42.476048" lon="1.574266">
        <time>2020-08-22T12:05:57Z</time>
      </trkpt>
      <trkpt lat="42.476048" lon="1.574266">
        <time>2020-08-22T12:05:57Z</time>
      </trkpt>
      <trkpt lat="42.476048" lon="1.574274">
        <time>2020-08-22T12:05:57Z</time>
      </trkpt>
      <trkpt lat="42.476048" lon="1.574274">
        <time>2020-08-22T12:05:57Z</time>
      </trkpt>
      <trkpt lat="42.476048" lon="1.574281">
        <time>2020-08-22T12:05:57Z</time>
      </trkpt>
      <trkpt lat="42.476048" lon="1.574281">
        <time>2020-08-22T12:05:57Z</time>
      </trkpt>
      <trkpt lat="42.476048" lon="1.574289">
        <time>2020-08-22T12:05:57Z</time>
      </trkpt>
      <trkpt lat="42.476048" lon="1.574289">
        <time>2020-08-22T12:05:57Z</time>
      </trkpt>
      <trkpt lat="42.476048" lon="1.574298">
        <time>2020-08-22T12:05:57Z</time>
      </trkpt>
      <trkpt lat="42.476048" lon="1.574298">
        <time>2020-08-22T12:05:57Z</time>
      </trkpt>
      <trkpt lat="42.476044" lon="1.574306">
        <time>2020-08-22T12:05:57Z</time>
      </trkpt>
      <trkpt lat="42.476044" lon="1.574306">
        <time>2020-08-22T12:05:57Z</time>
      </trkpt>
      <trkpt lat="42.476044" lon="1.574314">
        <time>2020-08-22T12:05:57Z</time>
      </trkpt>
      <trkpt lat="42.476044" lon="1.574314">
        <time>2020-08-22T12:05:57Z</time>
      </trkpt>
      <trkpt lat="42.476036" lon="1.574321">
        <time>2020-08-22T12:06:04Z</time>
      </trkpt>
      <trkpt lat="42.476036" lon="1.574321">
        <time>2020-08-22T12:06:04Z</time>
      </trkpt>
      <trkpt lat="42.476036" lon="1.574329">
        <time>2020-08-22T12:06:04Z</time>
      </trkpt>
      <trkpt lat="42.476036" lon="1.574329">
        <time>2020-08-22T12:06:04Z</time>
      </trkpt>
      <trkpt lat="42.476028" lon="1.574337">
        <time>2020-08-22T12:06:04Z</time>
      </trkpt>
      <trkpt lat="42.476028" lon="1.574337">
        <time>2020-08-22T12:06:04Z</time>
      </trkpt>
      <trkpt lat="42.476025" lon="1.574346">
        <time>2020-08-22T12:06:04Z</time>
      </trkpt>
      <trkpt lat="42.476025" lon="1.574346">
        <time>2020-08-22T12:06:04Z</time>
      </trkpt>
      <trkpt lat="42.476017" lon="1.574355">
        <time>2020-08-22T12:06:04Z</time>
      </trkpt>
      <trkpt lat="42.476017" lon="1.574355">
        <time>2020-08-22T12:06:04Z</time>
      </trkpt>
      <trkpt lat="42.476009" lon="1.574364">
        <time>2020-08-22T12:06:04Z</time>
      </trkpt>
      <trkpt lat="42.476009" lon="1.574364">
        <time>2020-08-22T12:06:04Z</time>
      </trkpt>
      <trkpt lat="42.476002" lon="1.574373">
        <time>2020-08-22T12:06:04Z</time>
      </trkpt>
      <trkpt lat="42.476002" lon="1.574373">
        <time>2020-08-22T12:06:04Z</time>
      </trkpt>
      <trkpt lat="42.475994" lon="1.574381">
        <time>2020-08-22T12:06:11Z</time>
      </trkpt>
      <trkpt lat="42.475994" lon="1.574381">
        <time>2020-08-22T12:06:11Z</time>
      </trkpt>
      <trkpt lat="42.475986" lon="1.574389">
        <time>2020-08-22T12:06:11Z</time>
      </trkpt>
      <trkpt lat="42.475986" lon="1.574389">
        <time>2020-08-22T12:06:11Z</time>
      </trkpt>
      <trkpt lat="42.475979" lon="1.574397">
        <time>2020-08-22T12:06:11Z</time>
      </trkpt>
      <trkpt lat="42.475979" lon="1.574397">
        <time>2020-08-22T12:06:11Z</time>
      </trkpt>
      <trkpt lat="42.475967" lon="1.574404">
        <time>2020-08-22T12:06:11Z</time>
      </trkpt>
      <trkpt lat="42.475967" lon="1.574404">
        <time>2020-08-22T12:06:11Z</time>
      </trkpt>
      <trkpt lat="42.475960" lon="1.574409">
        <time>2020-08-22T12:06:11Z</time>
      </trkpt>
      <trkpt lat="42.475960" lon="1.574409">
        <time>2020-08-22T12:06:11Z</time>
      </trkpt>
      <trkpt lat="42.475948" lon="1.574415">
        <time>2020-08-22T12:06:11Z</time>
      </trkpt>
      <trkpt lat="42.475948" lon="1.574415">
        <time>2020-08-22T12:06:11Z</time>
      </trkpt>
      <trkpt lat="42.475937" lon="1.574422">
        <time>2020-08-22T12:06:11Z</time>
      </trkpt>
      <trkpt lat="42.475937" lon="1.574422">
        <time>2020-08-22T12:06:11Z</time>
      </trkpt>
      <trkpt lat="42.475929" lon="1.574429">
        <time>2020-08-22T12:06:11Z</time>
      </trkpt>
      <trkpt lat="42.475929" lon="1.574429">
        <time>2020-08-22T12:06:11Z</time>
      </trkpt>
      <trkpt lat="42.475922" lon="1.574437">
        <time>2020-08-22T12:06:11Z</time>
      </trkpt>
      <trkpt lat="42.475922" lon="1.574437">
        <time>2020-08-22T12:06:11Z</time>
      </trkpt>
      <trkpt lat="42.475910" lon="1.574445">
        <time>2020-08-22T12:06:11Z</time>
      </trkpt>
      <trkpt lat="42.475910" lon="1.574445">
        <time>2020-08-22T12:06:11Z</time>
      </trkpt>
      <trkpt lat="42.475899" lon="1.574454">
        <time>2020-08-22T12:06:11Z</time>
      </trkpt>
      <trkpt lat="42.475899" lon="1.574454">
        <time>2020-08-22T12:06:11Z</time>
      </trkpt>
      <trkpt lat="42.475891" lon="1.574464">
        <time>2020-08-22T12:06:11Z</time>
      </trkpt>
      <trkpt lat="42.475891" lon="1.574464">
        <time>2020-08-22T12:06:11Z</time>
      </trkpt>
      <trkpt lat="42.475880" lon="1.574473">
        <time>2020-08-22T12:06:18Z</time>
      </trkpt>
      <trkpt lat="42.475880" lon="1.574473">
        <time>2020-08-22T12:06:18Z</time>
      </trkpt>
      <trkpt lat="42.475868" lon="1.574484">
        <time>2020-08-22T12:06:18Z</time>
      </trkpt>
      <trkpt lat="42.475868" lon="1.574484">
        <time>2020-08-22T12:06:18Z</time>
      </trkpt>
      <trkpt lat="42.475861" lon="1.574495">
        <time>2020-08-22T12:06:18Z</time>
      </trkpt>
      <trkpt lat="42.475861" lon="1.574495">
        <time>2020-08-22T12:06:18Z</time>
      </trkpt>
      <trkpt lat="42.475849" lon="1.574505">
        <time>2020-08-22T12:06:18Z</time>
      </trkpt>
      <trkpt lat="42.475849" lon="1.574505">
        <time>2020-08-22T12:06:18Z</time>
      </trkpt>
      <trkpt lat="42.475842" lon="1.574513">
        <time>2020-08-22T12:06:18Z</time>
      </trkpt>
      <trkpt lat="42.475842" lon="1.574513">
        <time>2020-08-22T12:06:18Z</time>
      </trkpt>
      <trkpt lat="42.475826" lon="1.574517">
        <time>2020-08-22T12:06:18Z</time>
      </trkpt>
      <trkpt lat="42.475826" lon="1.574517">
        <time>2020-08-22T12:06:18Z</time>
      </trkpt>
      <trkpt lat="42.475819" lon="1.574518">
        <time>2020-08-22T12:06:18Z</time>
      </trkpt>
      <trkpt lat="42.475819" lon="1.574518">
        <time>2020-08-22T12:06:18Z</time>
      </trkpt>
      <trkpt lat="42.475807" lon="1.574514">
        <time>2020-08-22T12:06:18Z</time>
      </trkpt>
      <trkpt lat="42.475807" lon="1.574514">
        <time>2020-08-22T12:06:18Z</time>
      </trkpt>
      <trkpt lat="42.475800" lon="1.574506">
        <time>2020-08-22T12:06:18Z</time>
      </trkpt>
      <trkpt lat="42.475800" lon="1.574506">
        <time>2020-08-22T12:06:18Z</time>
      </trkpt>
      <trkpt lat="42.475792" lon="1.574497">
        <time>2020-08-22T12:06:18Z</time>
      </trkpt>
      <trkpt lat="42.475792" lon="1.574497">
        <time>2020-08-22T12:06:18Z</time>
      </trkpt>
      <trkpt lat="42.475788" lon="1.574486">
        <time>2020-08-22T12:06:25Z</time>
      </trkpt>
      <trkpt lat="42.475788" lon="1.574486">
        <time>2020-08-22T12:06:25Z</time>
      </trkpt>
      <trkpt lat="42.475780" lon="1.574474">
        <time>2020-08-22T12:06:25Z</time>
      </trkpt>
      <trkpt lat="42.475780" lon="1.574474">
        <time>2020-08-22T12:06:25Z</time>
      </trkpt>
      <trkpt lat="42.475777" lon="1.574460">
        <time>2020-08-22T12:06:25Z</time>
      </trkpt>
      <trkpt lat="42.475777" lon="1.574460">
        <time>2020-08-22T12:06:25Z</time>
      </trkpt>
      <trkpt lat="42.475769" lon="1.574445">
        <time>2020-08-22T12:06:25Z</time>
      </trkpt>
      <trkpt lat="42.475769" lon="1.574445">
        <time>2020-08-22T12:06:25Z</time>
      </trkpt>
      <trkpt lat="42.475769" lon="1.574435">
        <time>2020-08-22T12:06:25Z</time>
      </trkpt>
      <trkpt lat="42.475769" lon="1.574435">
        <time>2020-08-22T12:06:25Z</time>
      </trkpt>
      <trkpt lat="42.475769" lon="1.574428">
        <time>2020-08-22T12:06:25Z</time>
      </trkpt>
      <trkpt lat="42.475769" lon="1.574428">
        <time>2020-08-22T12:06:25Z</time>
      </trkpt>
      <trkpt lat="42.475769" lon="1.574424">
        <time>2020-08-22T12:06:25Z</time>
      </trkpt>
      <trkpt lat="42.475769" lon="1.574424">
        <time>2020-08-22T12:06:25Z</time>
      </trkpt>
      <trkpt lat="42.475769" lon="1.574425">
        <time>2020-08-22T12:06:25Z</time>
      </trkpt>
      <trkpt lat="42.475769" lon="1.574425">
        <time>2020-08-22T12:06:25Z</time>
      </trkpt>
      <trkpt lat="42.475769" lon="1.574430">
        <time>2020-08-22T12:06:25Z</time>
      </trkpt>
      <trkpt lat="42.475769" lon="1.574430">
        <time>2020-08-22T12:06:25Z</time>
      </trkpt>
      <trkpt lat="42.475769" lon="1.574437">
        <time>2020-08-22T12:06:25Z</time>
      </trkpt>
      <trkpt lat="42.475769" lon="1.574437">
        <time>2020-08-22T12:06:25Z</time>
      </trkpt>
      <trkpt lat="42.475765" lon="1.574446">
        <time>2020-08-22T12:06:25Z</time>
      </trkpt>
      <trkpt lat="42.475765" lon="1.574446">
        <time>2020-08-22T12:06:25Z</time>
      </trkpt>
      <trkpt lat="42.475765" lon="1.574458">
        <time>2020-08-22T12:06:35Z</time>
      </trkpt>
      <trkpt lat="42.475765" lon="1.574458">
        <time>2020-08-22T12:06:35Z</time>
      </trkpt>
      <trkpt lat="42.475765" lon="1.574472">
        <time>2020-08-22T12:06:35Z</time>
      </trkpt>
      <trkpt lat="42.475765" lon="1.574472">
        <time>2020-08-22T12:06:35Z</time>
      </trkpt>
      <trkpt lat="42.475765" lon="1.574487">
        <time>2020-08-22T12:06:35Z</time>
      </trkpt>
      <trkpt lat="42.475765" lon="1.574487">
        <time>2020-08-22T12:06:35Z</time>
      </trkpt>
      <trkpt lat="42.475769" lon="1.574497">
        <time>2020-08-22T12:06:35Z</time>
      </trkpt>
      <trkpt lat="42.475769" lon="1.574497">
        <time>2020-08-22T12:06:35Z</time>
      </trkpt>
      <trkpt lat="42.475769" lon="1.574506">
        <time>2020-08-22T12:06:42Z</time>
      </trkpt>
      <trkpt lat="42.475769" lon="1.574506">
        <time>2020-08-22T12:06:42Z</time>
      </trkpt>
      <trkpt lat="42.475773" lon="1.574514">
        <time>2020-08-22T12:06:42Z</time>
      </trkpt>
      <trkpt lat="42.475773" lon="1.574514">
        <time>2020-08-22T12:06:42Z</time>
      </trkpt>
      <trkpt lat="42.475780" lon="1.574522">
        <time>2020-08-22T12:06:42Z</time>
      </trkpt>
      <trkpt lat="42.475780" lon="1.574522">
        <time>2020-08-22T12:06:42Z</time>
      </trkpt>
      <trkpt lat="42.475784" lon="1.574529">
        <time>2020-08-22T12:06:42Z</time>
      </trkpt>
      <trkpt lat="42.475784" lon="1.574529">
        <time>2020-08-22T12:06:42Z</time>
      </trkpt>
      <trkpt lat="42.475788" lon="1.574535">
        <time>2020-08-22T12:06:42Z</time>
      </trkpt>
      <trkpt lat="42.475788" lon="1.574535">
        <time>2020-08-22T12:06:42Z</time>
      </trkpt>
      <trkpt lat="42.475796" lon="1.574541">
        <time>2020-08-22T12:06:42Z</time>
      </trkpt>
      <trkpt lat="42.475796" lon="1.574541">
        <time>2020-08-22T12:06:42Z</time>
      </trkpt>
      <trkpt lat="42.475807" lon="1.574547">
        <time>2020-08-22T12:06:42Z</time>
      </trkpt>
      <trkpt lat="42.475807" lon="1.574547">
        <time>2020-08-22T12:06:42Z</time>
      </trkpt>
      <trkpt lat="42.475815" lon="1.574553">
        <time>2020-08-22T12:06:50Z</time>
      </trkpt>
      <trkpt lat="42.475815" lon="1.574553">
        <time>2020-08-22T12:06:50Z</time>
      </trkpt>
      <trkpt lat="42.475822" lon="1.574558">
        <time>2020-08-22T12:06:50Z</time>
      </trkpt>
      <trkpt lat="42.475822" lon="1.574558">
        <time>2020-08-22T12:06:50Z</time>
      </trkpt>
      <trkpt lat="42.475830" lon="1.574566">
        <time>2020-08-22T12:06:50Z</time>
      </trkpt>
      <trkpt lat="42.475830" lon="1.574566">
        <time>2020-08-22T12:06:50Z</time>
      </trkpt>
      <trkpt lat="42.475834" lon="1.574574">
        <time>2020-08-22T12:06:50Z</time>
      </trkpt>
      <trkpt lat="42.475834" lon="1.574574">
        <time>2020-08-22T12:06:50Z</time>
      </trkpt>
      <trkpt lat="42.475842" lon="1.574585">
        <time>2020-08-22T12:06:50Z</time>
      </trkpt>
      <trkpt lat="42.475842" lon="1.574585">
        <time>2020-08-22T12:06:50Z</time>
      </trkpt>
      <trkpt lat="42.475845" lon="1.574595">
        <time>2020-08-22T12:06:57Z</time>
      </trkpt>
      <trkpt lat="42.475845" lon="1.574595">
        <time>2020-08-22T12:06:57Z</time>
      </trkpt>
      <trkpt lat="42.475849" lon="1.574605">
        <time>2020-08-22T12:06:57Z</time>
      </trkpt>
      <trkpt lat="42.475849" lon="1.574605">
        <time>2020-08-22T12:06:57Z</time>
      </trkpt>
      <trkpt lat="42.475849" lon="1.574616">
        <time>2020-08-22T12:06:57Z</time>
      </trkpt>
      <trkpt lat="42.475849" lon="1.574616">
        <time>2020-08-22T12:06:57Z</time>
      </trkpt>
      <trkpt lat="42.475849" lon="1.574627">
        <time>2020-08-22T12:06:57Z</time>
      </trkpt>
      <trkpt lat="42.475849" lon="1.574627">
        <time>2020-08-22T12:06:57Z</time>
      </trkpt>
      <trkpt lat="42.475849" lon="1.574638">
        <time>2020-08-22T12:06:57Z</time>
      </trkpt>
      <trkpt lat="42.475849" lon="1.574638">
        <time>2020-08-22T12:06:57Z</time>
      </trkpt>
      <trkpt lat="42.475849" lon="1.574649">
        <time>2020-08-22T12:06:57Z</time>
      </trkpt>
      <trkpt lat="42.475849" lon="1.574649">
        <time>2020-08-22T12:06:57Z</time>
      </trkpt>
      <trkpt lat="42.475849" lon="1.574661">
        <time>2020-08-22T12:07:05Z</time>
      </trkpt>
      <trkpt lat="42.475849" lon="1.574661">
        <time>2020-08-22T12:07:05Z</time>
      </trkpt>
      <trkpt lat="42.475845" lon="1.574689">
        <time>2020-08-22T12:07:05Z</time>
      </trkpt>
      <trkpt lat="42.475845" lon="1.574689">
        <time>2020-08-22T12:07:05Z</time>
      </trkpt>
      <trkpt lat="42.475842" lon="1.574717">
        <time>2020-08-22T12:07:05Z</time>
      </trkpt>
      <trkpt lat="42.475842" lon="1.574717">
        <time>2020-08-22T12:07:05Z</time>
      </trkpt>
      <trkpt lat="42.475842" lon="1.574744">
        <time>2020-08-22T12:07:05Z</time>
      </trkpt>
      <trkpt lat="42.475842" lon="1.574744">
        <time>2020-08-22T12:07:05Z</time>
      </trkpt>
      <trkpt lat="42.475834" lon="1.574771">
        <time>2020-08-22T12:07:14Z</time>
      </trkpt>
      <trkpt lat="42.475834" lon="1.574771">
        <time>2020-08-22T12:07:14Z</time>
      </trkpt>
      <trkpt lat="42.475834" lon="1.574798">
        <time>2020-08-22T12:07:14Z</time>
      </trkpt>
      <trkpt lat="42.475834" lon="1.574798">
        <time>2020-08-22T12:07:14Z</time>
      </trkpt>
      <trkpt lat="42.475826" lon="1.574826">
        <time>2020-08-22T12:07:14Z</time>
      </trkpt>
      <trkpt lat="42.475826" lon="1.574826">
        <time>2020-08-22T12:07:14Z</time>
      </trkpt>
      <trkpt lat="42.475822" lon="1.574854">
        <time>2020-08-22T12:07:14Z</time>
      </trkpt>
      <trkpt lat="42.475822" lon="1.574854">
        <time>2020-08-22T12:07:14Z</time>
      </trkpt>
      <trkpt lat="42.475819" lon="1.574885">
        <time>2020-08-22T12:07:14Z</time>
      </trkpt>
      <trkpt lat="42.475819" lon="1.574885">
        <time>2020-08-22T12:07:14Z</time>
      </trkpt>
      <trkpt lat="42.475815" lon="1.574917">
        <time>2020-08-22T12:07:14Z</time>
      </trkpt>
      <trkpt lat="42.475815" lon="1.574917">
        <time>2020-08-22T12:07:14Z</time>
      </trkpt>
      <trkpt lat="42.475815" lon="1.574948">
        <time>2020-08-22T12:07:14Z</time>
      </trkpt>
      <trkpt lat="42.475815" lon="1.574948">
        <time>2020-08-22T12:07:14Z</time>
      </trkpt>
      <trkpt lat="42.475815" lon="1.574965">
        <time>2020-08-22T12:07:14Z</time>
      </trkpt>
      <trkpt lat="42.475815" lon="1.574965">
        <time>2020-08-22T12:07:14Z</time>
      </trkpt>
      <trkpt lat="42.475811" lon="1.574983">
        <time>2020-08-22T12:07:14Z</time>
      </trkpt>
      <trkpt lat="42.475811" lon="1.574983">
        <time>2020-08-22T12:07:14Z</time>
      </trkpt>
      <trkpt lat="42.475811" lon="1.575000">
        <time>2020-08-22T12:07:21Z</time>
      </trkpt>
      <trkpt lat="42.475811" lon="1.575000">
        <time>2020-08-22T12:07:21Z</time>
      </trkpt>
      <trkpt lat="42.475815" lon="1.575018">
        <time>2020-08-22T12:07:21Z</time>
      </trkpt>
      <trkpt lat="42.475815" lon="1.575018">
        <time>2020-08-22T12:07:21Z</time>
      </trkpt>
      <trkpt lat="42.475815" lon="1.575034">
        <time>2020-08-22T12:07:21Z</time>
      </trkpt>
      <trkpt lat="42.475815" lon="1.575034">
        <time>2020-08-22T12:07:21Z</time>
      </trkpt>
      <trkpt lat="42.475815" lon="1.575050">
        <time>2020-08-22T12:07:21Z</time>
      </trkpt>
      <trkpt lat="42.475815" lon="1.575050">
        <time>2020-08-22T12:07:21Z</time>
      </trkpt>
      <trkpt lat="42.475822" lon="1.575066">
        <time>2020-08-22T12:07:21Z</time>
      </trkpt>
      <trkpt lat="42.475822" lon="1.575066">
        <time>2020-08-22T12:07:21Z</time>
      </trkpt>
      <trkpt lat="42.475826" lon="1.575077">
        <time>2020-08-22T12:07:21Z</time>
      </trkpt>
      <trkpt lat="42.475826" lon="1.575077">
        <time>2020-08-22T12:07:21Z</time>
      </trkpt>
      <trkpt lat="42.475830" lon="1.575087">
        <time>2020-08-22T12:07:21Z</time>
      </trkpt>
      <trkpt lat="42.475830" lon="1.575087">
        <time>2020-08-22T12:07:21Z</time>
      </trkpt>
      <trkpt lat="42.475834" lon="1.575098">
        <time>2020-08-22T12:07:28Z</time>
      </trkpt>
      <trkpt lat="42.475834" lon="1.575098">
        <time>2020-08-22T12:07:28Z</time>
      </trkpt>
      <trkpt lat="42.475842" lon="1.575107">
        <time>2020-08-22T12:07:28Z</time>
      </trkpt>
      <trkpt lat="42.475842" lon="1.575107">
        <time>2020-08-22T12:07:28Z</time>
      </trkpt>
      <trkpt lat="42.475842" lon="1.575117">
        <time>2020-08-22T12:07:28Z</time>
      </trkpt>
      <trkpt lat="42.475842" lon="1.575117">
        <time>2020-08-22T12:07:28Z</time>
      </trkpt>
      <trkpt lat="42.475849" lon="1.575127">
        <time>2020-08-22T12:07:28Z</time>
      </trkpt>
      <trkpt lat="42.475849" lon="1.575127">
        <time>2020-08-22T12:07:28Z</time>
      </trkpt>
      <trkpt lat="42.475849" lon="1.575137">
        <time>2020-08-22T12:07:28Z</time>
      </trkpt>
      <trkpt lat="42.475849" lon="1.575137">
        <time>2020-08-22T12:07:28Z</time>
      </trkpt>
      <trkpt lat="42.475857" lon="1.575149">
        <time>2020-08-22T12:07:28Z</time>
      </trkpt>
      <trkpt lat="42.475857" lon="1.575149">
        <time>2020-08-22T12:07:28Z</time>
      </trkpt>
      <trkpt lat="42.475861" lon="1.575160">
        <time>2020-08-22T12:07:28Z</time>
      </trkpt>
      <trkpt lat="42.475861" lon="1.575160">
        <time>2020-08-22T12:07:28Z</time>
      </trkpt>
      <trkpt lat="42.475868" lon="1.575172">
        <time>2020-08-22T12:07:35Z</time>
      </trkpt>
      <trkpt lat="42.475868" lon="1.575172">
        <time>2020-08-22T12:07:35Z</time>
      </trkpt>
      <trkpt lat="42.475868" lon="1.575184">
        <time>2020-08-22T12:07:35Z</time>
      </trkpt>
      <trkpt lat="42.475868" lon="1.575184">
        <time>2020-08-22T12:07:35Z</time>
      </trkpt>
      <trkpt lat="42.475876" lon="1.575197">
        <time>2020-08-22T12:07:35Z</time>
      </trkpt>
      <trkpt lat="42.475876" lon="1.575197">
        <time>2020-08-22T12:07:35Z</time>
      </trkpt>
      <trkpt lat="42.475880" lon="1.575209">
        <time>2020-08-22T12:07:35Z</time>
      </trkpt>
      <trkpt lat="42.475880" lon="1.575209">
        <time>2020-08-22T12:07:35Z</time>
      </trkpt>
      <trkpt lat="42.475883" lon="1.575221">
        <time>2020-08-22T12:07:35Z</time>
      </trkpt>
      <trkpt lat="42.475883" lon="1.575221">
        <time>2020-08-22T12:07:35Z</time>
      </trkpt>
      <trkpt lat="42.475887" lon="1.575233">
        <time>2020-08-22T12:07:35Z</time>
      </trkpt>
      <trkpt lat="42.475887" lon="1.575233">
        <time>2020-08-22T12:07:35Z</time>
      </trkpt>
      <trkpt lat="42.475895" lon="1.575245">
        <time>2020-08-22T12:07:42Z</time>
      </trkpt>
      <trkpt lat="42.475895" lon="1.575245">
        <time>2020-08-22T12:07:42Z</time>
      </trkpt>
      <trkpt lat="42.475895" lon="1.575257">
        <time>2020-08-22T12:07:42Z</time>
      </trkpt>
      <trkpt lat="42.475895" lon="1.575257">
        <time>2020-08-22T12:07:42Z</time>
      </trkpt>
      <trkpt lat="42.475903" lon="1.575270">
        <time>2020-08-22T12:07:42Z</time>
      </trkpt>
      <trkpt lat="42.475903" lon="1.575270">
        <time>2020-08-22T12:07:42Z</time>
      </trkpt>
      <trkpt lat="42.475903" lon="1.575283">
        <time>2020-08-22T12:07:42Z</time>
      </trkpt>
      <trkpt lat="42.475903" lon="1.575283">
        <time>2020-08-22T12:07:42Z</time>
      </trkpt>
      <trkpt lat="42.475906" lon="1.575297">
        <time>2020-08-22T12:07:42Z</time>
      </trkpt>
      <trkpt lat="42.475906" lon="1.575297">
        <time>2020-08-22T12:07:42Z</time>
      </trkpt>
      <trkpt lat="42.475910" lon="1.575311">
        <time>2020-08-22T12:07:42Z</time>
      </trkpt>
      <trkpt lat="42.475910" lon="1.575311">
        <time>2020-08-22T12:07:42Z</time>
      </trkpt>
      <trkpt lat="42.475910" lon="1.575325">
        <time>2020-08-22T12:07:42Z</time>
      </trkpt>
      <trkpt lat="42.475910" lon="1.575325">
        <time>2020-08-22T12:07:42Z</time>
      </trkpt>
      <trkpt lat="42.475914" lon="1.575339">
        <time>2020-08-22T12:07:49Z</time>
      </trkpt>
      <trkpt lat="42.475914" lon="1.575339">
        <time>2020-08-22T12:07:49Z</time>
      </trkpt>
      <trkpt lat="42.475918" lon="1.575353">
        <time>2020-08-22T12:07:49Z</time>
      </trkpt>
      <trkpt lat="42.475918" lon="1.575353">
        <time>2020-08-22T12:07:49Z</time>
      </trkpt>
      <trkpt lat="42.475922" lon="1.575367">
        <time>2020-08-22T12:07:49Z</time>
      </trkpt>
      <trkpt lat="42.475922" lon="1.575367">
        <time>2020-08-22T12:07:49Z</time>
      </trkpt>
      <trkpt lat="42.475922" lon="1.575382">
        <time>2020-08-22T12:07:49Z</time>
      </trkpt>
      <trkpt lat="42.475922" lon="1.575382">
        <time>2020-08-22T12:07:49Z</time>
      </trkpt>
      <trkpt lat="42.475925" lon="1.575396">
        <time>2020-08-22T12:07:49Z</time>
      </trkpt>
      <trkpt lat="42.475925" lon="1.575396">
        <time>2020-08-22T12:07:49Z</time>
      </trkpt>
      <trkpt lat="42.475929" lon="1.575410">
        <time>2020-08-22T12:07:49Z</time>
      </trkpt>
      <trkpt lat="42.475929" lon="1.575410">
        <time>2020-08-22T12:07:49Z</time>
      </trkpt>
      <trkpt lat="42.475933" lon="1.575424">
        <time>2020-08-22T12:07:49Z</time>
      </trkpt>
      <trkpt lat="42.475933" lon="1.575424">
        <time>2020-08-22T12:07:49Z</time>
      </trkpt>
      <trkpt lat="42.475937" lon="1.575437">
        <time>2020-08-22T12:07:56Z</time>
      </trkpt>
      <trkpt lat="42.475937" lon="1.575437">
        <time>2020-08-22T12:07:56Z</time>
      </trkpt>
      <trkpt lat="42.475941" lon="1.575450">
        <time>2020-08-22T12:07:56Z</time>
      </trkpt>
      <trkpt lat="42.475941" lon="1.575450">
        <time>2020-08-22T12:07:56Z</time>
      </trkpt>
      <trkpt lat="42.475945" lon="1.575463">
        <time>2020-08-22T12:07:56Z</time>
      </trkpt>
      <trkpt lat="42.475945" lon="1.575463">
        <time>2020-08-22T12:07:56Z</time>
      </trkpt>
      <trkpt lat="42.475948" lon="1.575475">
        <time>2020-08-22T12:07:56Z</time>
      </trkpt>
      <trkpt lat="42.475948" lon="1.575475">
        <time>2020-08-22T12:07:56Z</time>
      </trkpt>
      <trkpt lat="42.475952" lon="1.575487">
        <time>2020-08-22T12:07:56Z</time>
      </trkpt>
      <trkpt lat="42.475952" lon="1.575487">
        <time>2020-08-22T12:07:56Z</time>
      </trkpt>
      <trkpt lat="42.475956" lon="1.575499">
        <time>2020-08-22T12:07:56Z</time>
      </trkpt>
      <trkpt lat="42.475956" lon="1.575499">
        <time>2020-08-22T12:07:56Z</time>
      </trkpt>
      <trkpt lat="42.475960" lon="1.575509">
        <time>2020-08-22T12:08:03Z</time>
      </trkpt>
      <trkpt lat="42.475960" lon="1.575509">
        <time>2020-08-22T12:08:03Z</time>
      </trkpt>
      <trkpt lat="42.475964" lon="1.575518">
        <time>2020-08-22T12:08:03Z</time>
      </trkpt>
      <trkpt lat="42.475964" lon="1.575518">
        <time>2020-08-22T12:08:03Z</time>
      </trkpt>
      <trkpt lat="42.475971" lon="1.575528">
        <time>2020-08-22T12:08:03Z</time>
      </trkpt>
      <trkpt lat="42.475971" lon="1.575528">
        <time>2020-08-22T12:08:03Z</time>
      </trkpt>
      <trkpt lat="42.475975" lon="1.575537">
        <time>2020-08-22T12:08:03Z</time>
      </trkpt>
      <trkpt lat="42.475975" lon="1.575537">
        <time>2020-08-22T12:08:03Z</time>
      </trkpt>
      <trkpt lat="42.475979" lon="1.575546">
        <time>2020-08-22T12:08:03Z</time>
      </trkpt>
      <trkpt lat="42.475979" lon="1.575546">
        <time>2020-08-22T12:08:03Z</time>
      </trkpt>
      <trkpt lat="42.475983" lon="1.575555">
        <time>2020-08-22T12:08:03Z</time>
      </trkpt>
      <trkpt lat="42.475983" lon="1.575555">
        <time>2020-08-22T12:08:03Z</time>
      </trkpt>
      <trkpt lat="42.475986" lon="1.575564">
        <time>2020-08-22T12:08:03Z</time>
      </trkpt>
      <trkpt lat="42.475986" lon="1.575564">
        <time>2020-08-22T12:08:03Z</time>
      </trkpt>
      <trkpt lat="42.475990" lon="1.575574">
        <time>2020-08-22T12:08:10Z</time>
      </trkpt>
      <trkpt lat="42.475990" lon="1.575574">
        <time>2020-08-22T12:08:10Z</time>
      </trkpt>
      <trkpt lat="42.475994" lon="1.575583">
        <time>2020-08-22T12:08:10Z</time>
      </trkpt>
      <trkpt lat="42.475994" lon="1.575583">
        <time>2020-08-22T12:08:10Z</time>
      </trkpt>
      <trkpt lat="42.475998" lon="1.575592">
        <time>2020-08-22T12:08:10Z</time>
      </trkpt>
      <trkpt lat="42.475998" lon="1.575592">
        <time>2020-08-22T12:08:10Z</time>
      </trkpt>
      <trkpt lat="42.476002" lon="1.575601">
        <time>2020-08-22T12:08:10Z</time>
      </trkpt>
      <trkpt lat="42.476002" lon="1.575601">
        <time>2020-08-22T12:08:10Z</time>
      </trkpt>
      <trkpt lat="42.476002" lon="1.575611">
        <time>2020-08-22T12:08:10Z</time>
      </trkpt>
      <trkpt lat="42.476002" lon="1.575611">
        <time>2020-08-22T12:08:10Z</time>
      </trkpt>
      <trkpt lat="42.476002" lon="1.575621">
        <time>2020-08-22T12:08:10Z</time>
      </trkpt>
      <trkpt lat="42.476002" lon="1.575621">
        <time>2020-08-22T12:08:10Z</time>
      </trkpt>
      <trkpt lat="42.476006" lon="1.575632">
        <time>2020-08-22T12:08:10Z</time>
      </trkpt>
      <trkpt lat="42.476006" lon="1.575632">
        <time>2020-08-22T12:08:10Z</time>
      </trkpt>
      <trkpt lat="42.476006" lon="1.575642">
        <time>2020-08-22T12:08:10Z</time>
      </trkpt>
      <trkpt lat="42.476006" lon="1.575642">
        <time>2020-08-22T12:08:10Z</time>
      </trkpt>
      <trkpt lat="42.476009" lon="1.575651">
        <time>2020-08-22T12:08:10Z</time>
      </trkpt>
      <trkpt lat="42.476009" lon="1.575651">
        <time>2020-08-22T12:08:10Z</time>
      </trkpt>
      <trkpt lat="42.476009" lon="1.575660">
        <time>2020-08-22T12:08:10Z</time>
      </trkpt>
      <trkpt lat="42.476009" lon="1.575660">
        <time>2020-08-22T12:08:10Z</time>
      </trkpt>
      <trkpt lat="42.476013" lon="1.575669">
        <time>2020-08-22T12:08:17Z</time>
      </trkpt>
      <trkpt lat="42.476013" lon="1.575669">
        <time>2020-08-22T12:08:17Z</time>
      </trkpt>
      <trkpt lat="42.476017" lon="1.575679">
        <time>2020-08-22T12:08:17Z</time>
      </trkpt>
      <trkpt lat="42.476017" lon="1.575679">
        <time>2020-08-22T12:08:17Z</time>
      </trkpt>
      <trkpt lat="42.476017" lon="1.575688">
        <time>2020-08-22T12:08:17Z</time>
      </trkpt>
      <trkpt lat="42.476017" lon="1.575688">
        <time>2020-08-22T12:08:17Z</time>
      </trkpt>
      <trkpt lat="42.476017" lon="1.575697">
        <time>2020-08-22T12:08:24Z</time>
      </trkpt>
      <trkpt lat="42.476017" lon="1.575697">
        <time>2020-08-22T12:08:24Z</time>
      </trkpt>
      <trkpt lat="42.476017" lon="1.575705">
        <time>2020-08-22T12:08:24Z</time>
      </trkpt>
      <trkpt lat="42.476017" lon="1.575705">
        <time>2020-08-22T12:08:24Z</time>
      </trkpt>
      <trkpt lat="42.476013" lon="1.575712">
        <time>2020-08-22T12:08:24Z</time>
      </trkpt>
      <trkpt lat="42.476013" lon="1.575712">
        <time>2020-08-22T12:08:24Z</time>
      </trkpt>
      <trkpt lat="42.476009" lon="1.575719">
        <time>2020-08-22T12:08:24Z</time>
      </trkpt>
      <trkpt lat="42.476009" lon="1.575719">
        <time>2020-08-22T12:08:24Z</time>
      </trkpt>
      <trkpt lat="42.476009" lon="1.575725">
        <time>2020-08-22T12:08:24Z</time>
      </trkpt>
      <trkpt lat="42.476009" lon="1.575725">
        <time>2020-08-22T12:08:24Z</time>
      </trkpt>
      <trkpt lat="42.476006" lon="1.575732">
        <time>2020-08-22T12:08:24Z</time>
      </trkpt>
      <trkpt lat="42.476006" lon="1.575732">
        <time>2020-08-22T12:08:24Z</time>
      </trkpt>
      <trkpt lat="42.476002" lon="1.575738">
        <time>2020-08-22T12:08:24Z</time>
      </trkpt>
      <trkpt lat="42.476002" lon="1.575738">
        <time>2020-08-22T12:08:24Z</time>
      </trkpt>
      <trkpt lat="42.475994" lon="1.575743">
        <time>2020-08-22T12:08:24Z</time>
      </trkpt>
      <trkpt lat="42.475994" lon="1.575743">
        <time>2020-08-22T12:08:24Z</time>
      </trkpt>
      <trkpt lat="42.475990" lon="1.575746">
        <time>2020-08-22T12:08:24Z</time>
      </trkpt>
      <trkpt lat="42.475990" lon="1.575746">
        <time>2020-08-22T12:08:24Z</time>
      </trkpt>
      <trkpt lat="42.475983" lon="1.575748">
        <time>2020-08-22T12:08:24Z</time>
      </trkpt>
      <trkpt lat="42.475983" lon="1.575748">
        <time>2020-08-22T12:08:24Z</time>
      </trkpt>
      <trkpt lat="42.475983" lon="1.575750">
        <time>2020-08-22T12:08:24Z</time>
      </trkpt>
      <trkpt lat="42.475983" lon="1.575750">
        <time>2020-08-22T12:08:24Z</time>
      </trkpt>
      <trkpt lat="42.475979" lon="1.575750">
        <time>2020-08-22T12:08:31Z</time>
      </trkpt>
      <trkpt lat="42.475979" lon="1.575750">
        <time>2020-08-22T12:08:31Z</time>
      </trkpt>
      <trkpt lat="42.475979" lon="1.575750">
        <time>2020-08-22T12:08:31Z</time>
      </trkpt>
      <trkpt lat="42.475979" lon="1.575750">
        <time>2020-08-22T12:08:31Z</time>
      </trkpt>
      <trkpt lat="42.475979" lon="1.575748">
        <time>2020-08-22T12:08:31Z</time>
      </trkpt>
      <trkpt lat="42.475979" lon="1.575748">
        <time>2020-08-22T12:08:31Z</time>
      </trkpt>
      <trkpt lat="42.475983" lon="1.575746">
        <time>2020-08-22T12:08:31Z</time>
      </trkpt>
      <trkpt lat="42.475983" lon="1.575746">
        <time>2020-08-22T12:08:31Z</time>
      </trkpt>
      <trkpt lat="42.475983" lon="1.575744">
        <time>2020-08-22T12:08:31Z</time>
      </trkpt>
      <trkpt lat="42.475983" lon="1.575744">
        <time>2020-08-22T12:08:31Z</time>
      </trkpt>
      <trkpt lat="42.475990" lon="1.575741">
        <time>2020-08-22T12:08:31Z</time>
      </trkpt>
      <trkpt lat="42.475990" lon="1.575741">
        <time>2020-08-22T12:08:31Z</time>
      </trkpt>
      <trkpt lat="42.475994" lon="1.575739">
        <time>2020-08-22T12:08:31Z</time>
      </trkpt>
      <trkpt lat="42.475994" lon="1.575739">
        <time>2020-08-22T12:08:31Z</time>
      </trkpt>
      <trkpt lat="42.476002" lon="1.575741">
        <time>2020-08-22T12:08:31Z</time>
      </trkpt>
      <trkpt lat="42.476002" lon="1.575741">
        <time>2020-08-22T12:08:31Z</time>
      </trkpt>
      <trkpt lat="42.476036" lon="1.575727">
        <time>2020-08-22T12:09:53Z</time>
      </trkpt>
      <trkpt lat="42.476036" lon="1.575727">
        <time>2020-08-22T12:09:53Z</time>
      </trkpt>
      <trkpt lat="42.476036" lon="1.575726">
        <time>2020-08-22T12:09:53Z</time>
      </trkpt>
      <trkpt lat="42.476036" lon="1.575726">
        <time>2020-08-22T12:09:53Z</time>
      </trkpt>
      <trkpt lat="42.476036" lon="1.575724">
        <time>2020-08-22T12:09:53Z</time>
      </trkpt>
      <trkpt lat="42.476036" lon="1.575724">
        <time>2020-08-22T12:09:53Z</time>
      </trkpt>
      <trkpt lat="42.476036" lon="1.575721">
        <time>2020-08-22T12:09:53Z</time>
      </trkpt>
      <trkpt lat="42.476036" lon="1.575721">
        <time>2020-08-22T12:09:53Z</time>
      </trkpt>
      <trkpt lat="42.476032" lon="1.575718">
        <time>2020-08-22T12:09:53Z</time>
      </trkpt>
      <trkpt lat="42.476032" lon="1.575718">
        <time>2020-08-22T12:09:53Z</time>
      </trkpt>
      <trkpt lat="42.476002" lon="1.575749">
        <time>2020-08-22T12:09:53Z</time>
      </trkpt>
      <trkpt lat="42.476002" lon="1.575749">
        <time>2020-08-22T12:09:53Z</time>
      </trkpt>
      <trkpt lat="42.476059" lon="1.575759">
        <time>2020-08-22T12:09:53Z</time>
      </trkpt>
      <trkpt lat="42.476059" lon="1.575759">
        <time>2020-08-22T12:09:53Z</time>
      </trkpt>
      <trkpt lat="42.476048" lon="1.575777">
        <time>2020-08-22T12:10:25Z</time>
      </trkpt>
      <trkpt lat="42.476048" lon="1.575777">
        <time>2020-08-22T12:10:25Z</time>
      </trkpt>
      <trkpt lat="42.476048" lon="1.575777">
        <time>2020-08-22T12:10:25Z</time>
      </trkpt>
      <trkpt lat="42.476048" lon="1.575777">
        <time>2020-08-22T12:10:25Z</time>
      </trkpt>
      <trkpt lat="42.476044" lon="1.575775">
        <time>2020-08-22T12:10:25Z</time>
      </trkpt>
      <trkpt lat="42.476044" lon="1.575775">
        <time>2020-08-22T12:10:25Z</time>
      </trkpt>
      <trkpt lat="42.476044" lon="1.575773">
        <time>2020-08-22T12:10:25Z</time>
      </trkpt>
      <trkpt lat="42.476044" lon="1.575773">
        <time>2020-08-22T12:10:25Z</time>
      </trkpt>
      <trkpt lat="42.476002" lon="1.575762">
        <time>2020-08-22T12:10:25Z</time>
      </trkpt>
      <trkpt lat="42.476002" lon="1.575762">
        <time>2020-08-22T12:10:25Z</time>
      </trkpt>
      <trkpt lat="42.475998" lon="1.575762">
        <time>2020-08-22T12:10:56Z</time>
      </trkpt>
      <trkpt lat="42.475998" lon="1.575762">
        <time>2020-08-22T12:10:56Z</time>
      </trkpt>
      <trkpt lat="42.475998" lon="1.575762">
        <time>2020-08-22T12:10:56Z</time>
      </trkpt>
      <trkpt lat="42.475998" lon="1.575762">
        <time>2020-08-22T12:10:56Z</time>
      </trkpt>
      <trkpt lat="42.476002" lon="1.575760">
        <time>2020-08-22T12:10:56Z</time>
      </trkpt>
      <trkpt lat="42.476002" lon="1.575760">
        <time>2020-08-22T12:10:56Z</time>
      </trkpt>
      <trkpt lat="42.476002" lon="1.575759">
        <time>2020-08-22T12:10:56Z</time>
      </trkpt>
      <trkpt lat="42.476002" lon="1.575759">
        <time>2020-08-22T12:10:56Z</time>
      </trkpt>
      <trkpt lat="42.475979" lon="1.575774">
        <time>2020-08-22T12:10:56Z</time>
      </trkpt>
      <trkpt lat="42.475979" lon="1.575774">
        <time>2020-08-22T12:10:56Z</time>
      </trkpt>
      <trkpt lat="42.475975" lon="1.575775">
        <time>2020-08-22T12:10:56Z</time>
      </trkpt>
      <trkpt lat="42.475975" lon="1.575775">
        <time>2020-08-22T12:10:56Z</time>
      </trkpt>
      <trkpt lat="42.475971" lon="1.575775">
        <time>2020-08-22T12:10:56Z</time>
      </trkpt>
      <trkpt lat="42.475971" lon="1.575775">
        <time>2020-08-22T12:10:56Z</time>
      </trkpt>
      <trkpt lat="42.475967" lon="1.575775">
        <time>2020-08-22T12:10:56Z</time>
      </trkpt>
      <trkpt lat="42.475967" lon="1.575775">
        <time>2020-08-22T12:10:56Z</time>
      </trkpt>
      <trkpt lat="42.475983" lon="1.575768">
        <time>2020-08-22T12:10:56Z</time>
      </trkpt>
      <trkpt lat="42.475983" lon="1.575768">
        <time>2020-08-22T12:10:56Z</time>
      </trkpt>
      <trkpt lat="42.475983" lon="1.575766">
        <time>2020-08-22T12:11:03Z</time>
      </trkpt>
      <trkpt lat="42.475983" lon="1.575766">
        <time>2020-08-22T12:11:03Z</time>
      </trkpt>
      <trkpt lat="42.475986" lon="1.575764">
        <time>2020-08-22T12:11:03Z</time>
      </trkpt>
      <trkpt lat="42.475986" lon="1.575764">
        <time>2020-08-22T12:11:03Z</time>
      </trkpt>
      <trkpt lat="42.475986" lon="1.575762">
        <time>2020-08-22T12:11:03Z</time>
      </trkpt>
      <trkpt lat="42.475986" lon="1.575762">
        <time>2020-08-22T12:11:03Z</time>
      </trkpt>
      <trkpt lat="42.475990" lon="1.575760">
        <time>2020-08-22T12:11:03Z</time>
      </trkpt>
      <trkpt lat="42.475990" lon="1.575760">
        <time>2020-08-22T12:11:03Z</time>
      </trkpt>
      <trkpt lat="42.475990" lon="1.575759">
        <time>2020-08-22T12:11:03Z</time>
      </trkpt>
      <trkpt lat="42.475990" lon="1.575759">
        <time>2020-08-22T12:11:03Z</time>
      </trkpt>
      <trkpt lat="42.475990" lon="1.575757">
        <time>2020-08-22T12:11:15Z</time>
      </trkpt>
      <trkpt lat="42.475990" lon="1.575757">
        <time>2020-08-22T12:11:15Z</time>
      </trkpt>
      <trkpt lat="42.475998" lon="1.575755">
        <time>2020-08-22T12:11:15Z</time>
      </trkpt>
      <trkpt lat="42.475998" lon="1.575755">
        <time>2020-08-22T12:11:15Z</time>
      </trkpt>
      <trkpt lat="42.476002" lon="1.575752">
        <time>2020-08-22T12:11:15Z</time>
      </trkpt>
      <trkpt lat="42.476002" lon="1.575752">
        <time>2020-08-22T12:11:15Z</time>
      </trkpt>
      <trkpt lat="42.475960" lon="1.575774">
        <time>2020-08-22T12:11:15Z</time>
      </trkpt>
      <trkpt lat="42.475960" lon="1.575774">
        <time>2020-08-22T12:11:15Z</time>
      </trkpt>
      <trkpt lat="42.475964" lon="1.575770">
        <time>2020-08-22T12:11:15Z</time>
      </trkpt>
      <trkpt lat="42.475964" lon="1.575770">
        <time>2020-08-22T12:11:15Z</time>
      </trkpt>
      <trkpt lat="42.475964" lon="1.575766">
        <time>2020-08-22T12:11:15Z</time>
      </trkpt>
      <trkpt lat="42.475964" lon="1.575766">
        <time>2020-08-22T12:11:15Z</time>
      </trkpt>
      <trkpt lat="42.475967" lon="1.575763">
        <time>2020-08-22T12:11:15Z</time>
      </trkpt>
      <trkpt lat="42.475967" lon="1.575763">
        <time>2020-08-22T12:11:15Z</time>
      </trkpt>
      <trkpt lat="42.475971" lon="1.575760">
        <time>2020-08-22T12:11:15Z</time>
      </trkpt>
      <trkpt lat="42.475971" lon="1.575760">
        <time>2020-08-22T12:11:15Z</time>
      </trkpt>
      <trkpt lat="42.475975" lon="1.575758">
        <time>2020-08-22T12:11:15Z</time>
      </trkpt>
      <trkpt lat="42.475975" lon="1.575758">
        <time>2020-08-22T12:11:15Z</time>
      </trkpt>
      <trkpt lat="42.475975" lon="1.575755">
        <time>2020-08-22T12:11:15Z</time>
      </trkpt>
      <trkpt lat="42.475975" lon="1.575755">
        <time>2020-08-22T12:11:15Z</time>
      </trkpt>
      <trkpt lat="42.475975" lon="1.575753">
        <time>2020-08-22T12:11:15Z</time>
      </trkpt>
      <trkpt lat="42.475975" lon="1.575753">
        <time>2020-08-22T12:11:15Z</time>
      </trkpt>
      <trkpt lat="42.476028" lon="1.575743">
        <time>2020-08-22T12:11:15Z</time>
      </trkpt>
      <trkpt lat="42.476028" lon="1.575743">
        <time>2020-08-22T12:11:15Z</time>
      </trkpt>
      <trkpt lat="42.475990" lon="1.575746">
        <time>2020-08-22T12:12:06Z</time>
      </trkpt>
      <trkpt lat="42.475990" lon="1.575746">
        <time>2020-08-22T12:12:06Z</time>
      </trkpt>
      <trkpt lat="42.475990" lon="1.575745">
        <time>2020-08-22T12:12:06Z</time>
      </trkpt>
      <trkpt lat="42.475990" lon="1.575745">
        <time>2020-08-22T12:12:06Z</time>
      </trkpt>
      <trkpt lat="42.475994" lon="1.575746">
        <time>2020-08-22T12:12:06Z</time>
      </trkpt>
      <trkpt lat="42.475994" lon="1.575746">
        <time>2020-08-22T12:12:06Z</time>
      </trkpt>
      <trkpt lat="42.475998" lon="1.575748">
        <time>2020-08-22T12:12:06Z</time>
      </trkpt>
      <trkpt lat="42.475998" lon="1.575748">
        <time>2020-08-22T12:12:06Z</time>
      </trkpt>
      <trkpt lat="42.476002" lon="1.575749">
        <time>2020-08-22T12:12:16Z</time>
      </trkpt>
      <trkpt lat="42.476002" lon="1.575749">
        <time>2020-08-22T12:12:16Z</time>
      </trkpt>
      <trkpt lat="42.476006" lon="1.575750">
        <time>2020-08-22T12:12:16Z</time>
      </trkpt>
      <trkpt lat="42.476006" lon="1.575750">
        <time>2020-08-22T12:12:16Z</time>
      </trkpt>
      <trkpt lat="42.476009" lon="1.575752">
        <time>2020-08-22T12:12:16Z</time>
      </trkpt>
      <trkpt lat="42.476009" lon="1.575752">
        <time>2020-08-22T12:12:16Z</time>
      </trkpt>
      <trkpt lat="42.476009" lon="1.575754">
        <time>2020-08-22T12:12:16Z</time>
      </trkpt>
      <trkpt lat="42.476009" lon="1.575754">
        <time>2020-08-22T12:12:16Z</time>
      </trkpt>
      <trkpt lat="42.476017" lon="1.575755">
        <time>2020-08-22T12:12:16Z</time>
      </trkpt>
      <trkpt lat="42.476017" lon="1.575755">
        <time>2020-08-22T12:12:16Z</time>
      </trkpt>
      <trkpt lat="42.476017" lon="1.575757">
        <time>2020-08-22T12:12:16Z</time>
      </trkpt>
      <trkpt lat="42.476017" lon="1.575757">
        <time>2020-08-22T12:12:16Z</time>
      </trkpt>
      <trkpt lat="42.476025" lon="1.575762">
        <time>2020-08-22T12:12:16Z</time>
      </trkpt>
      <trkpt lat="42.476025" lon="1.575762">
        <time>2020-08-22T12:12:16Z</time>
      </trkpt>
      <trkpt lat="42.476028" lon="1.575768">
        <time>2020-08-22T12:12:23Z</time>
      </trkpt>
      <trkpt lat="42.476028" lon="1.575768">
        <time>2020-08-22T12:12:23Z</time>
      </trkpt>
      <trkpt lat="42.476036" lon="1.575773">
        <time>2020-08-22T12:12:23Z</time>
      </trkpt>
      <trkpt lat="42.476036" lon="1.575773">
        <time>2020-08-22T12:12:23Z</time>
      </trkpt>
      <trkpt lat="42.476036" lon="1.575779">
        <time>2020-08-22T12:12:23Z</time>
      </trkpt>
      <trkpt lat="42.476036" lon="1.575779">
        <time>2020-08-22T12:12:23Z</time>
      </trkpt>
      <trkpt lat="42.476040" lon="1.575785">
        <time>2020-08-22T12:12:23Z</time>
      </trkpt>
      <trkpt lat="42.476040" lon="1.575785">
        <time>2020-08-22T12:12:23Z</time>
      </trkpt>
      <trkpt lat="42.476040" lon="1.575792">
        <time>2020-08-22T12:12:23Z</time>
      </trkpt>
      <trkpt lat="42.476040" lon="1.575792">
        <time>2020-08-22T12:12:23Z</time>
      </trkpt>
      <trkpt lat="42.476028" lon="1.575825">
        <time>2020-08-22T12:12:56Z</time>
      </trkpt>
      <trkpt lat="42.476028" lon="1.575825">
        <time>2020-08-22T12:12:56Z</time>
      </trkpt>
      <trkpt lat="42.476028" lon="1.575826">
        <time>2020-08-22T12:12:56Z</time>
      </trkpt>
      <trkpt lat="42.476028" lon="1.575826">
        <time>2020-08-22T12:12:56Z</time>
      </trkpt>
      <trkpt lat="42.476028" lon="1.575828">
        <time>2020-08-22T12:12:56Z</time>
      </trkpt>
      <trkpt lat="42.476028" lon="1.575828">
        <time>2020-08-22T12:12:56Z</time>
      </trkpt>
      <trkpt lat="42.476028" lon="1.575831">
        <time>2020-08-22T12:12:56Z</time>
      </trkpt>
      <trkpt lat="42.476028" lon="1.575831">
        <time>2020-08-22T12:12:56Z</time>
      </trkpt>
      <trkpt lat="42.476028" lon="1.575831">
        <time>2020-08-22T12:12:56Z</time>
      </trkpt>
      <trkpt lat="42.476028" lon="1.575831">
        <time>2020-08-22T12:12:56Z</time>
      </trkpt>
      <trkpt lat="42.476013" lon="1.575787">
        <time>2020-08-22T12:12:56Z</time>
      </trkpt>
      <trkpt lat="42.476013" lon="1.575787">
        <time>2020-08-22T12:12:56Z</time>
      </trkpt>
      <trkpt lat="42.475986" lon="1.575750">
        <time>2020-08-22T12:13:29Z</time>
      </trkpt>
      <trkpt lat="42.475986" lon="1.575750">
        <time>2020-08-22T12:13:29Z</time>
      </trkpt>
      <trkpt lat="42.475983" lon="1.575750">
        <time>2020-08-22T12:13:29Z</time>
      </trkpt>
      <trkpt lat="42.475983" lon="1.575750">
        <time>2020-08-22T12:13:29Z</time>
      </trkpt>
      <trkpt lat="42.475979" lon="1.575750">
        <time>2020-08-22T12:13:29Z</time>
      </trkpt>
      <trkpt lat="42.475979" lon="1.575750">
        <time>2020-08-22T12:13:29Z</time>
      </trkpt>
      <trkpt lat="42.475975" lon="1.575750">
        <time>2020-08-22T12:13:29Z</time>
      </trkpt>
      <trkpt lat="42.475975" lon="1.575750">
        <time>2020-08-22T12:13:29Z</time>
      </trkpt>
      <trkpt lat="42.475975" lon="1.575750">
        <time>2020-08-22T12:13:29Z</time>
      </trkpt>
      <trkpt lat="42.475975" lon="1.575750">
        <time>2020-08-22T12:13:29Z</time>
      </trkpt>
      <trkpt lat="42.475971" lon="1.575750">
        <time>2020-08-22T12:13:29Z</time>
      </trkpt>
      <trkpt lat="42.475971" lon="1.575750">
        <time>2020-08-22T12:13:29Z</time>
      </trkpt>
      <trkpt lat="42.475967" lon="1.575750">
        <time>2020-08-22T12:13:29Z</time>
      </trkpt>
      <trkpt lat="42.475967" lon="1.575750">
        <time>2020-08-22T12:13:29Z</time>
      </trkpt>
      <trkpt lat="42.475964" lon="1.575750">
        <time>2020-08-22T12:13:38Z</time>
      </trkpt>
      <trkpt lat="42.475964" lon="1.575750">
        <time>2020-08-22T12:13:38Z</time>
      </trkpt>
      <trkpt lat="42.475964" lon="1.575750">
        <time>2020-08-22T12:13:38Z</time>
      </trkpt>
      <trkpt lat="42.475964" lon="1.575750">
        <time>2020-08-22T12:13:38Z</time>
      </trkpt>
      <trkpt lat="42.475956" lon="1.575751">
        <time>2020-08-22T12:13:38Z</time>
      </trkpt>
      <trkpt lat="42.475956" lon="1.575751">
        <time>2020-08-22T12:13:38Z</time>
      </trkpt>
      <trkpt lat="42.475952" lon="1.575756">
        <time>2020-08-22T12:13:45Z</time>
      </trkpt>
      <trkpt lat="42.475952" lon="1.575756">
        <time>2020-08-22T12:13:45Z</time>
      </trkpt>
      <trkpt lat="42.475948" lon="1.575761">
        <time>2020-08-22T12:13:45Z</time>
      </trkpt>
      <trkpt lat="42.475948" lon="1.575761">
        <time>2020-08-22T12:13:45Z</time>
      </trkpt>
      <trkpt lat="42.475945" lon="1.575766">
        <time>2020-08-22T12:13:45Z</time>
      </trkpt>
      <trkpt lat="42.475945" lon="1.575766">
        <time>2020-08-22T12:13:45Z</time>
      </trkpt>
      <trkpt lat="42.475937" lon="1.575772">
        <time>2020-08-22T12:13:45Z</time>
      </trkpt>
      <trkpt lat="42.475937" lon="1.575772">
        <time>2020-08-22T12:13:45Z</time>
      </trkpt>
      <trkpt lat="42.475937" lon="1.575778">
        <time>2020-08-22T12:13:45Z</time>
      </trkpt>
      <trkpt lat="42.475937" lon="1.575778">
        <time>2020-08-22T12:13:45Z</time>
      </trkpt>
      <trkpt lat="42.475929" lon="1.575785">
        <time>2020-08-22T12:13:45Z</time>
      </trkpt>
      <trkpt lat="42.475929" lon="1.575785">
        <time>2020-08-22T12:13:45Z</time>
      </trkpt>
      <trkpt lat="42.475925" lon="1.575792">
        <time>2020-08-22T12:13:45Z</time>
      </trkpt>
      <trkpt lat="42.475925" lon="1.575792">
        <time>2020-08-22T12:13:45Z</time>
      </trkpt>
      <trkpt lat="42.476112" lon="1.575724">
        <time>2020-08-22T12:13:45Z</time>
      </trkpt>
      <trkpt lat="42.476112" lon="1.575724">
        <time>2020-08-22T12:13:45Z</time>
      </trkpt>
      <trkpt lat="42.476109" lon="1.575726">
        <time>2020-08-22T12:13:52Z</time>
      </trkpt>
      <trkpt lat="42.476109" lon="1.575726">
        <time>2020-08-22T12:13:52Z</time>
      </trkpt>
      <trkpt lat="42.476101" lon="1.575729">
        <time>2020-08-22T12:13:52Z</time>
      </trkpt>
      <trkpt lat="42.476101" lon="1.575729">
        <time>2020-08-22T12:13:52Z</time>
      </trkpt>
      <trkpt lat="42.476097" lon="1.575733">
        <time>2020-08-22T12:13:52Z</time>
      </trkpt>
      <trkpt lat="42.476097" lon="1.575733">
        <time>2020-08-22T12:13:52Z</time>
      </trkpt>
      <trkpt lat="42.476093" lon="1.575739">
        <time>2020-08-22T12:13:52Z</time>
      </trkpt>
      <trkpt lat="42.476093" lon="1.575739">
        <time>2020-08-22T12:13:52Z</time>
      </trkpt>
      <trkpt lat="42.476089" lon="1.575745">
        <time>2020-08-22T12:13:52Z</time>
      </trkpt>
      <trkpt lat="42.476089" lon="1.575745">
        <time>2020-08-22T12:13:52Z</time>
      </trkpt>
      <trkpt lat="42.476089" lon="1.575751">
        <time>2020-08-22T12:13:52Z</time>
      </trkpt>
      <trkpt lat="42.476089" lon="1.575751">
        <time>2020-08-22T12:13:52Z</time>
      </trkpt>
      <trkpt lat="42.476086" lon="1.575758">
        <time>2020-08-22T12:13:52Z</time>
      </trkpt>
      <trkpt lat="42.476086" lon="1.575758">
        <time>2020-08-22T12:13:52Z</time>
      </trkpt>
      <trkpt lat="42.476082" lon="1.575764">
        <time>2020-08-22T12:13:59Z</time>
      </trkpt>
      <trkpt lat="42.476082" lon="1.575764">
        <time>2020-08-22T12:13:59Z</time>
      </trkpt>
      <trkpt lat="42.476082" lon="1.575770">
        <time>2020-08-22T12:13:59Z</time>
      </trkpt>
      <trkpt lat="42.476082" lon="1.575770">
        <time>2020-08-22T12:13:59Z</time>
      </trkpt>
      <trkpt lat="42.476070" lon="1.575780">
        <time>2020-08-22T12:13:59Z</time>
      </trkpt>
      <trkpt lat="42.476070" lon="1.575780">
        <time>2020-08-22T12:13:59Z</time>
      </trkpt>
      <trkpt lat="42.476067" lon="1.575789">
        <time>2020-08-22T12:14:06Z</time>
      </trkpt>
      <trkpt lat="42.476067" lon="1.575789">
        <time>2020-08-22T12:14:06Z</time>
      </trkpt>
      <trkpt lat="42.476063" lon="1.575797">
        <time>2020-08-22T12:14:06Z</time>
      </trkpt>
      <trkpt lat="42.476063" lon="1.575797">
        <time>2020-08-22T12:14:06Z</time>
      </trkpt>
      <trkpt lat="42.476055" lon="1.575804">
        <time>2020-08-22T12:14:06Z</time>
      </trkpt>
      <trkpt lat="42.476055" lon="1.575804">
        <time>2020-08-22T12:14:06Z</time>
      </trkpt>
      <trkpt lat="42.476051" lon="1.575809">
        <time>2020-08-22T12:14:06Z</time>
      </trkpt>
      <trkpt lat="42.476051" lon="1.575809">
        <time>2020-08-22T12:14:06Z</time>
      </trkpt>
      <trkpt lat="42.476044" lon="1.575812">
        <time>2020-08-22T12:14:06Z</time>
      </trkpt>
      <trkpt lat="42.476044" lon="1.575812">
        <time>2020-08-22T12:14:06Z</time>
      </trkpt>
      <trkpt lat="42.476040" lon="1.575815">
        <time>2020-08-22T12:14:06Z</time>
      </trkpt>
      <trkpt lat="42.476040" lon="1.575815">
        <time>2020-08-22T12:14:06Z</time>
      </trkpt>
      <trkpt lat="42.476036" lon="1.575816">
        <time>2020-08-22T12:14:06Z</time>
      </trkpt>
      <trkpt lat="42.476036" lon="1.575816">
        <time>2020-08-22T12:14:06Z</time>
      </trkpt>
      <trkpt lat="42.476028" lon="1.575817">
        <time>2020-08-22T12:14:13Z</time>
      </trkpt>
      <trkpt lat="42.476028" lon="1.575817">
        <time>2020-08-22T12:14:13Z</time>
      </trkpt>
      <trkpt lat="42.476025" lon="1.575816">
        <time>2020-08-22T12:14:13Z</time>
      </trkpt>
      <trkpt lat="42.476025" lon="1.575816">
        <time>2020-08-22T12:14:13Z</time>
      </trkpt>
      <trkpt lat="42.476025" lon="1.575816">
        <time>2020-08-22T12:14:13Z</time>
      </trkpt>
      <trkpt lat="42.476025" lon="1.575816">
        <time>2020-08-22T12:14:13Z</time>
      </trkpt>
      <trkpt lat="42.476021" lon="1.575817">
        <time>2020-08-22T12:14:13Z</time>
      </trkpt>
      <trkpt lat="42.476021" lon="1.575817">
        <time>2020-08-22T12:14:13Z</time>
      </trkpt>
      <trkpt lat="42.476017" lon="1.575820">
        <time>2020-08-22T12:14:13Z</time>
      </trkpt>
      <trkpt lat="42.476017" lon="1.575820">
        <time>2020-08-22T12:14:13Z</time>
      </trkpt>
      <trkpt lat="42.476017" lon="1.575823">
        <time>2020-08-22T12:14:13Z</time>
      </trkpt>
      <trkpt lat="42.476017" lon="1.575823">
        <time>2020-08-22T12:14:13Z</time>
      </trkpt>
      <trkpt lat="42.476017" lon="1.575827">
        <time>2020-08-22T12:14:34Z</time>
      </trkpt>
      <trkpt lat="42.476017" lon="1.575827">
        <time>2020-08-22T12:14:34Z</time>
      </trkpt>
      <trkpt lat="42.476009" lon="1.575832">
        <time>2020-08-22T12:14:34Z</time>
      </trkpt>
      <trkpt lat="42.476009" lon="1.575832">
        <time>2020-08-22T12:14:34Z</time>
      </trkpt>
      <trkpt lat="42.476009" lon="1.575836">
        <time>2020-08-22T12:14:34Z</time>
      </trkpt>
      <trkpt lat="42.476009" lon="1.575836">
        <time>2020-08-22T12:14:34Z</time>
      </trkpt>
      <trkpt lat="42.476002" lon="1.575841">
        <time>2020-08-22T12:14:34Z</time>
      </trkpt>
      <trkpt lat="42.476002" lon="1.575841">
        <time>2020-08-22T12:14:34Z</time>
      </trkpt>
      <trkpt lat="42.475994" lon="1.575847">
        <time>2020-08-22T12:14:34Z</time>
      </trkpt>
      <trkpt lat="42.475994" lon="1.575847">
        <time>2020-08-22T12:14:34Z</time>
      </trkpt>
      <trkpt lat="42.475983" lon="1.575854">
        <time>2020-08-22T12:14:34Z</time>
      </trkpt>
      <trkpt lat="42.475983" lon="1.575854">
        <time>2020-08-22T12:14:34Z</time>
      </trkpt>
      <trkpt lat="42.475914" lon="1.575857">
        <time>2020-08-22T12:15:09Z</time>
      </trkpt>
      <trkpt lat="42.475914" lon="1.575857">
        <time>2020-08-22T12:15:09Z</time>
      </trkpt>
      <trkpt lat="42.475914" lon="1.575856">
        <time>2020-08-22T12:15:09Z</time>
      </trkpt>
      <trkpt lat="42.475914" lon="1.575856">
        <time>2020-08-22T12:15:09Z</time>
      </trkpt>
      <trkpt lat="42.475910" lon="1.575857">
        <time>2020-08-22T12:15:09Z</time>
      </trkpt>
      <trkpt lat="42.475910" lon="1.575857">
        <time>2020-08-22T12:15:09Z</time>
      </trkpt>
      <trkpt lat="42.475983" lon="1.575844">
        <time>2020-08-22T12:15:09Z</time>
      </trkpt>
      <trkpt lat="42.475983" lon="1.575844">
        <time>2020-08-22T12:15:09Z</time>
      </trkpt>
      <trkpt lat="42.475986" lon="1.575841">
        <time>2020-08-22T12:15:09Z</time>
      </trkpt>
      <trkpt lat="42.475986" lon="1.575841">
        <time>2020-08-22T12:15:09Z</time>
      </trkpt>
      <trkpt lat="42.475925" lon="1.575777">
        <time>2020-08-22T12:15:19Z</time>
      </trkpt>
      <trkpt lat="42.475925" lon="1.575777">
        <time>2020-08-22T12:15:19Z</time>
      </trkpt>
      <trkpt lat="42.475929" lon="1.575775">
        <time>2020-08-22T12:15:19Z</time>
      </trkpt>
      <trkpt lat="42.475929" lon="1.575775">
        <time>2020-08-22T12:15:19Z</time>
      </trkpt>
      <trkpt lat="42.475929" lon="1.575774">
        <time>2020-08-22T12:15:19Z</time>
      </trkpt>
      <trkpt lat="42.475929" lon="1.575774">
        <time>2020-08-22T12:15:19Z</time>
      </trkpt>
      <trkpt lat="42.475937" lon="1.575772">
        <time>2020-08-22T12:15:26Z</time>
      </trkpt>
      <trkpt lat="42.475937" lon="1.575772">
        <time>2020-08-22T12:15:26Z</time>
      </trkpt>
      <trkpt lat="42.475937" lon="1.575770">
        <time>2020-08-22T12:15:26Z</time>
      </trkpt>
      <trkpt lat="42.475937" lon="1.575770">
        <time>2020-08-22T12:15:26Z</time>
      </trkpt>
      <trkpt lat="42.475941" lon="1.575767">
        <time>2020-08-22T12:15:26Z</time>
      </trkpt>
      <trkpt lat="42.475941" lon="1.575767">
        <time>2020-08-22T12:15:26Z</time>
      </trkpt>
      <trkpt lat="42.475910" lon="1.575794">
        <time>2020-08-22T12:15:26Z</time>
      </trkpt>
      <trkpt lat="42.475910" lon="1.575794">
        <time>2020-08-22T12:15:26Z</time>
      </trkpt>
      <trkpt lat="42.475929" lon="1.575743">
        <time>2020-08-22T12:15:26Z</time>
      </trkpt>
      <trkpt lat="42.475929" lon="1.575743">
        <time>2020-08-22T12:15:26Z</time>
      </trkpt>
      <trkpt lat="42.475914" lon="1.575736">
        <time>2020-08-22T12:16:40Z</time>
      </trkpt>
      <trkpt lat="42.475914" lon="1.575736">
        <time>2020-08-22T12:16:40Z</time>
      </trkpt>
      <trkpt lat="42.475914" lon="1.575737">
        <time>2020-08-22T12:16:40Z</time>
      </trkpt>
      <trkpt lat="42.475914" lon="1.575737">
        <time>2020-08-22T12:16:40Z</time>
      </trkpt>
      <trkpt lat="42.475914" lon="1.575740">
        <time>2020-08-22T12:16:40Z</time>
      </trkpt>
      <trkpt lat="42.475914" lon="1.575740">
        <time>2020-08-22T12:16:40Z</time>
      </trkpt>
      <trkpt lat="42.475914" lon="1.575744">
        <time>2020-08-22T12:16:40Z</time>
      </trkpt>
      <trkpt lat="42.475914" lon="1.575744">
        <time>2020-08-22T12:16:40Z</time>
      </trkpt>
      <trkpt lat="42.475910" lon="1.575749">
        <time>2020-08-22T12:16:40Z</time>
      </trkpt>
      <trkpt lat="42.475910" lon="1.575749">
        <time>2020-08-22T12:16:40Z</time>
      </trkpt>
      <trkpt lat="42.475910" lon="1.575755">
        <time>2020-08-22T12:16:40Z</time>
      </trkpt>
      <trkpt lat="42.475910" lon="1.575755">
        <time>2020-08-22T12:16:40Z</time>
      </trkpt>
      <trkpt lat="42.475910" lon="1.575761">
        <time>2020-08-22T12:16:40Z</time>
      </trkpt>
      <trkpt lat="42.475910" lon="1.575761">
        <time>2020-08-22T12:16:40Z</time>
      </trkpt>
      <trkpt lat="42.475906" lon="1.575767">
        <time>2020-08-22T12:16:48Z</time>
      </trkpt>
      <trkpt lat="42.475906" lon="1.575767">
        <time>2020-08-22T12:16:48Z</time>
      </trkpt>
      <trkpt lat="42.475906" lon="1.575773">
        <time>2020-08-22T12:16:48Z</time>
      </trkpt>
      <trkpt lat="42.475906" lon="1.575773">
        <time>2020-08-22T12:16:48Z</time>
      </trkpt>
      <trkpt lat="42.475903" lon="1.575779">
        <time>2020-08-22T12:16:48Z</time>
      </trkpt>
      <trkpt lat="42.475903" lon="1.575779">
        <time>2020-08-22T12:16:48Z</time>
      </trkpt>
      <trkpt lat="42.475910" lon="1.575785">
        <time>2020-08-22T12:16:55Z</time>
      </trkpt>
      <trkpt lat="42.475910" lon="1.575785">
        <time>2020-08-22T12:16:55Z</time>
      </trkpt>
      <trkpt lat="42.475918" lon="1.575790">
        <time>2020-08-22T12:16:55Z</time>
      </trkpt>
      <trkpt lat="42.475918" lon="1.575790">
        <time>2020-08-22T12:16:55Z</time>
      </trkpt>
      <trkpt lat="42.475925" lon="1.575794">
        <time>2020-08-22T12:16:55Z</time>
      </trkpt>
      <trkpt lat="42.475925" lon="1.575794">
        <time>2020-08-22T12:16:55Z</time>
      </trkpt>
      <trkpt lat="42.475933" lon="1.575796">
        <time>2020-08-22T12:16:55Z</time>
      </trkpt>
      <trkpt lat="42.475933" lon="1.575796">
        <time>2020-08-22T12:16:55Z</time>
      </trkpt>
      <trkpt lat="42.475941" lon="1.575797">
        <time>2020-08-22T12:16:55Z</time>
      </trkpt>
      <trkpt lat="42.475941" lon="1.575797">
        <time>2020-08-22T12:16:55Z</time>
      </trkpt>
      <trkpt lat="42.475952" lon="1.575796">
        <time>2020-08-22T12:16:55Z</time>
      </trkpt>
      <trkpt lat="42.475952" lon="1.575796">
        <time>2020-08-22T12:16:55Z</time>
      </trkpt>
      <trkpt lat="42.475964" lon="1.575792">
        <time>2020-08-22T12:16:55Z</time>
      </trkpt>
      <trkpt lat="42.475964" lon="1.575792">
        <time>2020-08-22T12:16:55Z</time>
      </trkpt>
      <trkpt lat="42.475975" lon="1.575786">
        <time>2020-08-22T12:17:02Z</time>
      </trkpt>
      <trkpt lat="42.475975" lon="1.575786">
        <time>2020-08-22T12:17:02Z</time>
      </trkpt>
      <trkpt lat="42.475990" lon="1.575778">
        <time>2020-08-22T12:17:02Z</time>
      </trkpt>
      <trkpt lat="42.475990" lon="1.575778">
        <time>2020-08-22T12:17:02Z</time>
      </trkpt>
      <trkpt lat="42.476009" lon="1.575767">
        <time>2020-08-22T12:17:02Z</time>
      </trkpt>
      <trkpt lat="42.476009" lon="1.575767">
        <time>2020-08-22T12:17:02Z</time>
      </trkpt>
      <trkpt lat="42.476009" lon="1.575769">
        <time>2020-08-22T12:17:02Z</time>
      </trkpt>
      <trkpt lat="42.476009" lon="1.575769">
        <time>2020-08-22T12:17:02Z</time>
      </trkpt>
      <trkpt lat="42.476009" lon="1.575772">
        <time>2020-08-22T12:17:02Z</time>
      </trkpt>
      <trkpt lat="42.476009" lon="1.575772">
        <time>2020-08-22T12:17:02Z</time>
      </trkpt>
      <trkpt lat="42.476009" lon="1.575776">
        <time>2020-08-22T12:17:02Z</time>
      </trkpt>
      <trkpt lat="42.476009" lon="1.575776">
        <time>2020-08-22T12:17:02Z</time>
      </trkpt>
      <trkpt lat="42.476006" lon="1.575780">
        <time>2020-08-22T12:17:02Z</time>
      </trkpt>
      <trkpt lat="42.476006" lon="1.575780">
        <time>2020-08-22T12:17:02Z</time>
      </trkpt>
      <trkpt lat="42.476002" lon="1.575786">
        <time>2020-08-22T12:17:09Z</time>
      </trkpt>
      <trkpt lat="42.476002" lon="1.575786">
        <time>2020-08-22T12:17:09Z</time>
      </trkpt>
      <trkpt lat="42.476002" lon="1.575792">
        <time>2020-08-22T12:17:09Z</time>
      </trkpt>
      <trkpt lat="42.476002" lon="1.575792">
        <time>2020-08-22T12:17:09Z</time>
      </trkpt>
      <trkpt lat="42.475990" lon="1.575799">
        <time>2020-08-22T12:17:09Z</time>
      </trkpt>
      <trkpt lat="42.475990" lon="1.575799">
        <time>2020-08-22T12:17:09Z</time>
      </trkpt>
      <trkpt lat="42.475983" lon="1.575807">
        <time>2020-08-22T12:17:09Z</time>
      </trkpt>
      <trkpt lat="42.475983" lon="1.575807">
        <time>2020-08-22T12:17:09Z</time>
      </trkpt>
      <trkpt lat="42.475975" lon="1.575817">
        <time>2020-08-22T12:17:09Z</time>
      </trkpt>
      <trkpt lat="42.475975" lon="1.575817">
        <time>2020-08-22T12:17:09Z</time>
      </trkpt>
      <trkpt lat="42.475964" lon="1.575828">
        <time>2020-08-22T12:17:09Z</time>
      </trkpt>
      <trkpt lat="42.475964" lon="1.575828">
        <time>2020-08-22T12:17:09Z</time>
      </trkpt>
      <trkpt lat="42.475956" lon="1.575824">
        <time>2020-08-22T12:17:09Z</time>
      </trkpt>
      <trkpt lat="42.475956" lon="1.575824">
        <time>2020-08-22T12:17:09Z</time>
      </trkpt>
      <trkpt lat="42.475952" lon="1.575820">
        <time>2020-08-22T12:17:09Z</time>
      </trkpt>
      <trkpt lat="42.475952" lon="1.575820">
        <time>2020-08-22T12:17:09Z</time>
      </trkpt>
      <trkpt lat="42.475948" lon="1.575815">
        <time>2020-08-22T12:17:09Z</time>
      </trkpt>
      <trkpt lat="42.475948" lon="1.575815">
        <time>2020-08-22T12:17:09Z</time>
      </trkpt>
      <trkpt lat="42.475941" lon="1.575808">
        <time>2020-08-22T12:17:09Z</time>
      </trkpt>
      <trkpt lat="42.475941" lon="1.575808">
        <time>2020-08-22T12:17:09Z</time>
      </trkpt>
      <trkpt lat="42.475922" lon="1.575752">
        <time>2020-08-22T12:17:44Z</time>
      </trkpt>
      <trkpt lat="42.475922" lon="1.575752">
        <time>2020-08-22T12:17:44Z</time>
      </trkpt>
      <trkpt lat="42.475922" lon="1.575751">
        <time>2020-08-22T12:17:44Z</time>
      </trkpt>
      <trkpt lat="42.475922" lon="1.575751">
        <time>2020-08-22T12:17:44Z</time>
      </trkpt>
      <trkpt lat="42.475922" lon="1.575751">
        <time>2020-08-22T12:17:44Z</time>
      </trkpt>
      <trkpt lat="42.475922" lon="1.575751">
        <time>2020-08-22T12:17:44Z</time>
      </trkpt>
      <trkpt lat="42.475925" lon="1.575751">
        <time>2020-08-22T12:17:44Z</time>
      </trkpt>
      <trkpt lat="42.475925" lon="1.575751">
        <time>2020-08-22T12:17:44Z</time>
      </trkpt>
      <trkpt lat="42.476109" lon="1.575764">
        <time>2020-08-22T12:17:44Z</time>
      </trkpt>
      <trkpt lat="42.476109" lon="1.575764">
        <time>2020-08-22T12:17:44Z</time>
      </trkpt>
      <trkpt lat="42.476101" lon="1.575765">
        <time>2020-08-22T12:17:44Z</time>
      </trkpt>
      <trkpt lat="42.476101" lon="1.575765">
        <time>2020-08-22T12:17:44Z</time>
      </trkpt>
      <trkpt lat="42.476097" lon="1.575764">
        <time>2020-08-22T12:17:44Z</time>
      </trkpt>
      <trkpt lat="42.476097" lon="1.575764">
        <time>2020-08-22T12:17:44Z</time>
      </trkpt>
      <trkpt lat="42.476097" lon="1.575762">
        <time>2020-08-22T12:17:44Z</time>
      </trkpt>
      <trkpt lat="42.476097" lon="1.575762">
        <time>2020-08-22T12:17:44Z</time>
      </trkpt>
      <trkpt lat="42.476093" lon="1.575759">
        <time>2020-08-22T12:17:44Z</time>
      </trkpt>
      <trkpt lat="42.476093" lon="1.575759">
        <time>2020-08-22T12:17:44Z</time>
      </trkpt>
      <trkpt lat="42.476089" lon="1.575757">
        <time>2020-08-22T12:17:51Z</time>
      </trkpt>
      <trkpt lat="42.476089" lon="1.575757">
        <time>2020-08-22T12:17:51Z</time>
      </trkpt>
      <trkpt lat="42.476086" lon="1.575756">
        <time>2020-08-22T12:17:51Z</time>
      </trkpt>
      <trkpt lat="42.476086" lon="1.575756">
        <time>2020-08-22T12:17:51Z</time>
      </trkpt>
      <trkpt lat="42.476082" lon="1.575754">
        <time>2020-08-22T12:17:51Z</time>
      </trkpt>
      <trkpt lat="42.476082" lon="1.575754">
        <time>2020-08-22T12:17:51Z</time>
      </trkpt>
      <trkpt lat="42.476082" lon="1.575752">
        <time>2020-08-22T12:17:51Z</time>
      </trkpt>
      <trkpt lat="42.476082" lon="1.575752">
        <time>2020-08-22T12:17:51Z</time>
      </trkpt>
      <trkpt lat="42.476082" lon="1.575750">
        <time>2020-08-22T12:17:51Z</time>
      </trkpt>
      <trkpt lat="42.476082" lon="1.575750">
        <time>2020-08-22T12:17:51Z</time>
      </trkpt>
      <trkpt lat="42.475956" lon="1.575788">
        <time>2020-08-22T12:17:51Z</time>
      </trkpt>
      <trkpt lat="42.475956" lon="1.575788">
        <time>2020-08-22T12:17:51Z</time>
      </trkpt>
      <trkpt lat="42.475952" lon="1.575786">
        <time>2020-08-22T12:17:51Z</time>
      </trkpt>
      <trkpt lat="42.475952" lon="1.575786">
        <time>2020-08-22T12:17:51Z</time>
      </trkpt>
      <trkpt lat="42.475937" lon="1.575868">
        <time>2020-08-22T12:17:51Z</time>
      </trkpt>
      <trkpt lat="42.475937" lon="1.575868">
        <time>2020-08-22T12:17:51Z</time>
      </trkpt>
      <trkpt lat="42.475941" lon="1.575863">
        <time>2020-08-22T12:17:51Z</time>
      </trkpt>
      <trkpt lat="42.475941" lon="1.575863">
        <time>2020-08-22T12:17:51Z</time>
      </trkpt>
      <trkpt lat="42.475941" lon="1.575859">
        <time>2020-08-22T12:17:51Z</time>
      </trkpt>
      <trkpt lat="42.475941" lon="1.575859">
        <time>2020-08-22T12:17:51Z</time>
      </trkpt>
      <trkpt lat="42.475945" lon="1.575854">
        <time>2020-08-22T12:17:51Z</time>
      </trkpt>
      <trkpt lat="42.475945" lon="1.575854">
        <time>2020-08-22T12:17:51Z</time>
      </trkpt>
      <trkpt lat="42.475945" lon="1.575849">
        <time>2020-08-22T12:17:51Z</time>
      </trkpt>
      <trkpt lat="42.475945" lon="1.575849">
        <time>2020-08-22T12:17:51Z</time>
      </trkpt>
      <trkpt lat="42.475948" lon="1.575844">
        <time>2020-08-22T12:17:58Z</time>
      </trkpt>
      <trkpt lat="42.475948" lon="1.575844">
        <time>2020-08-22T12:17:58Z</time>
      </trkpt>
      <trkpt lat="42.475948" lon="1.575839">
        <time>2020-08-22T12:17:58Z</time>
      </trkpt>
      <trkpt lat="42.475948" lon="1.575839">
        <time>2020-08-22T12:17:58Z</time>
      </trkpt>
      <trkpt lat="42.475948" lon="1.575834">
        <time>2020-08-22T12:17:58Z</time>
      </trkpt>
      <trkpt lat="42.475948" lon="1.575834">
        <time>2020-08-22T12:17:58Z</time>
      </trkpt>
      <trkpt lat="42.475948" lon="1.575829">
        <time>2020-08-22T12:17:58Z</time>
      </trkpt>
      <trkpt lat="42.475948" lon="1.575829">
        <time>2020-08-22T12:17:58Z</time>
      </trkpt>
      <trkpt lat="42.475948" lon="1.575824">
        <time>2020-08-22T12:17:58Z</time>
      </trkpt>
      <trkpt lat="42.475948" lon="1.575824">
        <time>2020-08-22T12:17:58Z</time>
      </trkpt>
      <trkpt lat="42.475956" lon="1.575819">
        <time>2020-08-22T12:17:58Z</time>
      </trkpt>
      <trkpt lat="42.475956" lon="1.575819">
        <time>2020-08-22T12:17:58Z</time>
      </trkpt>
      <trkpt lat="42.475964" lon="1.575814">
        <time>2020-08-22T12:17:58Z</time>
      </trkpt>
      <trkpt lat="42.475964" lon="1.575814">
        <time>2020-08-22T12:17:58Z</time>
      </trkpt>
      <trkpt lat="42.476032" lon="1.575797">
        <time>2020-08-22T12:17:58Z</time>
      </trkpt>
      <trkpt lat="42.476032" lon="1.575797">
        <time>2020-08-22T12:17:58Z</time>
      </trkpt>
      <trkpt lat="42.476032" lon="1.575802">
        <time>2020-08-22T12:17:58Z</time>
      </trkpt>
      <trkpt lat="42.476032" lon="1.575802">
        <time>2020-08-22T12:17:58Z</time>
      </trkpt>
      <trkpt lat="42.476021" lon="1.575809">
        <time>2020-08-22T12:17:58Z</time>
      </trkpt>
      <trkpt lat="42.476021" lon="1.575809">
        <time>2020-08-22T12:17:58Z</time>
      </trkpt>
      <trkpt lat="42.476025" lon="1.575806">
        <time>2020-08-22T12:17:58Z</time>
      </trkpt>
      <trkpt lat="42.476025" lon="1.575806">
        <time>2020-08-22T12:17:58Z</time>
      </trkpt>
      <trkpt lat="42.476028" lon="1.575803">
        <time>2020-08-22T12:17:58Z</time>
      </trkpt>
      <trkpt lat="42.476028" lon="1.575803">
        <time>2020-08-22T12:17:58Z</time>
      </trkpt>
      <trkpt lat="42.476028" lon="1.575800">
        <time>2020-08-22T12:17:58Z</time>
      </trkpt>
      <trkpt lat="42.476028" lon="1.575800">
        <time>2020-08-22T12:17:58Z</time>
      </trkpt>
      <trkpt lat="42.476028" lon="1.575797">
        <time>2020-08-22T12:17:58Z</time>
      </trkpt>
      <trkpt lat="42.476028" lon="1.575797">
        <time>2020-08-22T12:17:58Z</time>
      </trkpt>
      <trkpt lat="42.476028" lon="1.575794">
        <time>2020-08-22T12:17:58Z</time>
      </trkpt>
      <trkpt lat="42.476028" lon="1.575794">
        <time>2020-08-22T12:17:58Z</time>
      </trkpt>
      <trkpt lat="42.476036" lon="1.575772">
        <time>2020-08-22T12:18:32Z</time>
      </trkpt>
      <trkpt lat="42.476036" lon="1.575772">
        <time>2020-08-22T12:18:32Z</time>
      </trkpt>
      <trkpt lat="42.476036" lon="1.575768">
        <time>2020-08-22T12:18:32Z</time>
      </trkpt>
      <trkpt lat="42.476036" lon="1.575768">
        <time>2020-08-22T12:18:32Z</time>
      </trkpt>
      <trkpt lat="42.476040" lon="1.575766">
        <time>2020-08-22T12:18:32Z</time>
      </trkpt>
      <trkpt lat="42.476040" lon="1.575766">
        <time>2020-08-22T12:18:32Z</time>
      </trkpt>
      <trkpt lat="42.476044" lon="1.575764">
        <time>2020-08-22T12:18:32Z</time>
      </trkpt>
      <trkpt lat="42.476044" lon="1.575764">
        <time>2020-08-22T12:18:32Z</time>
      </trkpt>
      <trkpt lat="42.476044" lon="1.575762">
        <time>2020-08-22T12:18:32Z</time>
      </trkpt>
      <trkpt lat="42.476044" lon="1.575762">
        <time>2020-08-22T12:18:32Z</time>
      </trkpt>
      <trkpt lat="42.476044" lon="1.575761">
        <time>2020-08-22T12:18:32Z</time>
      </trkpt>
      <trkpt lat="42.476044" lon="1.575761">
        <time>2020-08-22T12:18:32Z</time>
      </trkpt>
      <trkpt lat="42.476055" lon="1.575751">
        <time>2020-08-22T12:18:32Z</time>
      </trkpt>
      <trkpt lat="42.476055" lon="1.575751">
        <time>2020-08-22T12:18:32Z</time>
      </trkpt>
      <trkpt lat="42.476055" lon="1.575752">
        <time>2020-08-22T12:18:52Z</time>
      </trkpt>
      <trkpt lat="42.476055" lon="1.575752">
        <time>2020-08-22T12:18:52Z</time>
      </trkpt>
      <trkpt lat="42.476051" lon="1.575755">
        <time>2020-08-22T12:18:52Z</time>
      </trkpt>
      <trkpt lat="42.476051" lon="1.575755">
        <time>2020-08-22T12:18:52Z</time>
      </trkpt>
      <trkpt lat="42.476051" lon="1.575758">
        <time>2020-08-22T12:18:52Z</time>
      </trkpt>
      <trkpt lat="42.476051" lon="1.575758">
        <time>2020-08-22T12:18:52Z</time>
      </trkpt>
      <trkpt lat="42.476048" lon="1.575763">
        <time>2020-08-22T12:18:52Z</time>
      </trkpt>
      <trkpt lat="42.476048" lon="1.575763">
        <time>2020-08-22T12:18:52Z</time>
      </trkpt>
      <trkpt lat="42.475990" lon="1.575743">
        <time>2020-08-22T12:18:52Z</time>
      </trkpt>
      <trkpt lat="42.475990" lon="1.575743">
        <time>2020-08-22T12:18:52Z</time>
      </trkpt>
      <trkpt lat="42.475986" lon="1.575738">
        <time>2020-08-22T12:18:52Z</time>
      </trkpt>
      <trkpt lat="42.475986" lon="1.575738">
        <time>2020-08-22T12:18:52Z</time>
      </trkpt>
      <trkpt lat="42.475983" lon="1.575733">
        <time>2020-08-22T12:18:52Z</time>
      </trkpt>
      <trkpt lat="42.475983" lon="1.575733">
        <time>2020-08-22T12:18:52Z</time>
      </trkpt>
      <trkpt lat="42.475983" lon="1.575728">
        <time>2020-08-22T12:18:52Z</time>
      </trkpt>
      <trkpt lat="42.475983" lon="1.575728">
        <time>2020-08-22T12:18:52Z</time>
      </trkpt>
      <trkpt lat="42.475979" lon="1.575721">
        <time>2020-08-22T12:18:52Z</time>
      </trkpt>
      <trkpt lat="42.475979" lon="1.575721">
        <time>2020-08-22T12:18:52Z</time>
      </trkpt>
      <trkpt lat="42.475975" lon="1.575715">
        <time>2020-08-22T12:18:59Z</time>
      </trkpt>
      <trkpt lat="42.475975" lon="1.575715">
        <time>2020-08-22T12:18:59Z</time>
      </trkpt>
      <trkpt lat="42.475971" lon="1.575708">
        <time>2020-08-22T12:18:59Z</time>
      </trkpt>
      <trkpt lat="42.475971" lon="1.575708">
        <time>2020-08-22T12:18:59Z</time>
      </trkpt>
      <trkpt lat="42.475967" lon="1.575701">
        <time>2020-08-22T12:18:59Z</time>
      </trkpt>
      <trkpt lat="42.475967" lon="1.575701">
        <time>2020-08-22T12:18:59Z</time>
      </trkpt>
      <trkpt lat="42.475964" lon="1.575693">
        <time>2020-08-22T12:18:59Z</time>
      </trkpt>
      <trkpt lat="42.475964" lon="1.575693">
        <time>2020-08-22T12:18:59Z</time>
      </trkpt>
      <trkpt lat="42.475964" lon="1.575685">
        <time>2020-08-22T12:18:59Z</time>
      </trkpt>
      <trkpt lat="42.475964" lon="1.575685">
        <time>2020-08-22T12:18:59Z</time>
      </trkpt>
      <trkpt lat="42.475956" lon="1.575670">
        <time>2020-08-22T12:18:59Z</time>
      </trkpt>
      <trkpt lat="42.475956" lon="1.575670">
        <time>2020-08-22T12:18:59Z</time>
      </trkpt>
      <trkpt lat="42.475948" lon="1.575654">
        <time>2020-08-22T12:18:59Z</time>
      </trkpt>
      <trkpt lat="42.475948" lon="1.575654">
        <time>2020-08-22T12:18:59Z</time>
      </trkpt>
      <trkpt lat="42.475941" lon="1.575638">
        <time>2020-08-22T12:19:06Z</time>
      </trkpt>
      <trkpt lat="42.475941" lon="1.575638">
        <time>2020-08-22T12:19:06Z</time>
      </trkpt>
      <trkpt lat="42.475937" lon="1.575621">
        <time>2020-08-22T12:19:06Z</time>
      </trkpt>
      <trkpt lat="42.475937" lon="1.575621">
        <time>2020-08-22T12:19:06Z</time>
      </trkpt>
      <trkpt lat="42.475929" lon="1.575605">
        <time>2020-08-22T12:19:06Z</time>
      </trkpt>
      <trkpt lat="42.475929" lon="1.575605">
        <time>2020-08-22T12:19:06Z</time>
      </trkpt>
      <trkpt lat="42.475925" lon="1.575589">
        <time>2020-08-22T12:19:06Z</time>
      </trkpt>
      <trkpt lat="42.475925" lon="1.575589">
        <time>2020-08-22T12:19:06Z</time>
      </trkpt>
      <trkpt lat="42.475922" lon="1.575574">
        <time>2020-08-22T12:19:06Z</time>
      </trkpt>
      <trkpt lat="42.475922" lon="1.575574">
        <time>2020-08-22T12:19:06Z</time>
      </trkpt>
      <trkpt lat="42.475914" lon="1.575559">
        <time>2020-08-22T12:19:06Z</time>
      </trkpt>
      <trkpt lat="42.475914" lon="1.575559">
        <time>2020-08-22T12:19:06Z</time>
      </trkpt>
      <trkpt lat="42.475910" lon="1.575544">
        <time>2020-08-22T12:19:13Z</time>
      </trkpt>
      <trkpt lat="42.475910" lon="1.575544">
        <time>2020-08-22T12:19:13Z</time>
      </trkpt>
      <trkpt lat="42.475906" lon="1.575530">
        <time>2020-08-22T12:19:13Z</time>
      </trkpt>
      <trkpt lat="42.475906" lon="1.575530">
        <time>2020-08-22T12:19:13Z</time>
      </trkpt>
      <trkpt lat="42.475903" lon="1.575516">
        <time>2020-08-22T12:19:13Z</time>
      </trkpt>
      <trkpt lat="42.475903" lon="1.575516">
        <time>2020-08-22T12:19:13Z</time>
      </trkpt>
      <trkpt lat="42.475903" lon="1.575501">
        <time>2020-08-22T12:19:13Z</time>
      </trkpt>
      <trkpt lat="42.475903" lon="1.575501">
        <time>2020-08-22T12:19:13Z</time>
      </trkpt>
      <trkpt lat="42.475899" lon="1.575487">
        <time>2020-08-22T12:19:20Z</time>
      </trkpt>
      <trkpt lat="42.475899" lon="1.575487">
        <time>2020-08-22T12:19:20Z</time>
      </trkpt>
      <trkpt lat="42.475895" lon="1.575474">
        <time>2020-08-22T12:19:20Z</time>
      </trkpt>
      <trkpt lat="42.475895" lon="1.575474">
        <time>2020-08-22T12:19:20Z</time>
      </trkpt>
      <trkpt lat="42.475895" lon="1.575460">
        <time>2020-08-22T12:19:20Z</time>
      </trkpt>
      <trkpt lat="42.475895" lon="1.575460">
        <time>2020-08-22T12:19:20Z</time>
      </trkpt>
      <trkpt lat="42.475887" lon="1.575447">
        <time>2020-08-22T12:19:20Z</time>
      </trkpt>
      <trkpt lat="42.475887" lon="1.575447">
        <time>2020-08-22T12:19:20Z</time>
      </trkpt>
      <trkpt lat="42.475883" lon="1.575435">
        <time>2020-08-22T12:19:20Z</time>
      </trkpt>
      <trkpt lat="42.475883" lon="1.575435">
        <time>2020-08-22T12:19:20Z</time>
      </trkpt>
      <trkpt lat="42.475880" lon="1.575424">
        <time>2020-08-22T12:19:20Z</time>
      </trkpt>
      <trkpt lat="42.475880" lon="1.575424">
        <time>2020-08-22T12:19:20Z</time>
      </trkpt>
      <trkpt lat="42.475876" lon="1.575414">
        <time>2020-08-22T12:19:27Z</time>
      </trkpt>
      <trkpt lat="42.475876" lon="1.575414">
        <time>2020-08-22T12:19:27Z</time>
      </trkpt>
      <trkpt lat="42.475876" lon="1.575405">
        <time>2020-08-22T12:19:27Z</time>
      </trkpt>
      <trkpt lat="42.475876" lon="1.575405">
        <time>2020-08-22T12:19:27Z</time>
      </trkpt>
      <trkpt lat="42.475868" lon="1.575395">
        <time>2020-08-22T12:19:27Z</time>
      </trkpt>
      <trkpt lat="42.475868" lon="1.575395">
        <time>2020-08-22T12:19:27Z</time>
      </trkpt>
      <trkpt lat="42.475868" lon="1.575387">
        <time>2020-08-22T12:19:35Z</time>
      </trkpt>
      <trkpt lat="42.475868" lon="1.575387">
        <time>2020-08-22T12:19:35Z</time>
      </trkpt>
      <trkpt lat="42.475864" lon="1.575377">
        <time>2020-08-22T12:19:35Z</time>
      </trkpt>
      <trkpt lat="42.475864" lon="1.575377">
        <time>2020-08-22T12:19:35Z</time>
      </trkpt>
      <trkpt lat="42.475861" lon="1.575367">
        <time>2020-08-22T12:19:35Z</time>
      </trkpt>
      <trkpt lat="42.475861" lon="1.575367">
        <time>2020-08-22T12:19:35Z</time>
      </trkpt>
      <trkpt lat="42.475857" lon="1.575357">
        <time>2020-08-22T12:19:35Z</time>
      </trkpt>
      <trkpt lat="42.475857" lon="1.575357">
        <time>2020-08-22T12:19:35Z</time>
      </trkpt>
      <trkpt lat="42.475857" lon="1.575347">
        <time>2020-08-22T12:19:35Z</time>
      </trkpt>
      <trkpt lat="42.475857" lon="1.575347">
        <time>2020-08-22T12:19:35Z</time>
      </trkpt>
      <trkpt lat="42.475857" lon="1.575337">
        <time>2020-08-22T12:19:42Z</time>
      </trkpt>
      <trkpt lat="42.475857" lon="1.575337">
        <time>2020-08-22T12:19:42Z</time>
      </trkpt>
      <trkpt lat="42.475857" lon="1.575326">
        <time>2020-08-22T12:19:42Z</time>
      </trkpt>
      <trkpt lat="42.475857" lon="1.575326">
        <time>2020-08-22T12:19:42Z</time>
      </trkpt>
      <trkpt lat="42.475857" lon="1.575315">
        <time>2020-08-22T12:19:42Z</time>
      </trkpt>
      <trkpt lat="42.475857" lon="1.575315">
        <time>2020-08-22T12:19:42Z</time>
      </trkpt>
      <trkpt lat="42.475857" lon="1.575304">
        <time>2020-08-22T12:19:42Z</time>
      </trkpt>
      <trkpt lat="42.475857" lon="1.575304">
        <time>2020-08-22T12:19:42Z</time>
      </trkpt>
      <trkpt lat="42.475857" lon="1.575293">
        <time>2020-08-22T12:19:42Z</time>
      </trkpt>
      <trkpt lat="42.475857" lon="1.575293">
        <time>2020-08-22T12:19:42Z</time>
      </trkpt>
      <trkpt lat="42.475857" lon="1.575283">
        <time>2020-08-22T12:19:42Z</time>
      </trkpt>
      <trkpt lat="42.475857" lon="1.575283">
        <time>2020-08-22T12:19:42Z</time>
      </trkpt>
      <trkpt lat="42.475861" lon="1.575274">
        <time>2020-08-22T12:19:42Z</time>
      </trkpt>
      <trkpt lat="42.475861" lon="1.575274">
        <time>2020-08-22T12:19:42Z</time>
      </trkpt>
      <trkpt lat="42.475861" lon="1.575265">
        <time>2020-08-22T12:19:49Z</time>
      </trkpt>
      <trkpt lat="42.475861" lon="1.575265">
        <time>2020-08-22T12:19:49Z</time>
      </trkpt>
      <trkpt lat="42.475864" lon="1.575255">
        <time>2020-08-22T12:19:49Z</time>
      </trkpt>
      <trkpt lat="42.475864" lon="1.575255">
        <time>2020-08-22T12:19:49Z</time>
      </trkpt>
      <trkpt lat="42.475864" lon="1.575244">
        <time>2020-08-22T12:19:49Z</time>
      </trkpt>
      <trkpt lat="42.475864" lon="1.575244">
        <time>2020-08-22T12:19:49Z</time>
      </trkpt>
      <trkpt lat="42.475868" lon="1.575233">
        <time>2020-08-22T12:19:49Z</time>
      </trkpt>
      <trkpt lat="42.475868" lon="1.575233">
        <time>2020-08-22T12:19:49Z</time>
      </trkpt>
      <trkpt lat="42.475868" lon="1.575221">
        <time>2020-08-22T12:19:49Z</time>
      </trkpt>
      <trkpt lat="42.475868" lon="1.575221">
        <time>2020-08-22T12:19:49Z</time>
      </trkpt>
      <trkpt lat="42.475864" lon="1.575209">
        <time>2020-08-22T12:19:49Z</time>
      </trkpt>
      <trkpt lat="42.475864" lon="1.575209">
        <time>2020-08-22T12:19:49Z</time>
      </trkpt>
      <trkpt lat="42.475864" lon="1.575197">
        <time>2020-08-22T12:19:49Z</time>
      </trkpt>
      <trkpt lat="42.475864" lon="1.575197">
        <time>2020-08-22T12:19:49Z</time>
      </trkpt>
      <trkpt lat="42.475861" lon="1.575185">
        <time>2020-08-22T12:19:56Z</time>
      </trkpt>
      <trkpt lat="42.475861" lon="1.575185">
        <time>2020-08-22T12:19:56Z</time>
      </trkpt>
      <trkpt lat="42.475861" lon="1.575172">
        <time>2020-08-22T12:19:56Z</time>
      </trkpt>
      <trkpt lat="42.475861" lon="1.575172">
        <time>2020-08-22T12:19:56Z</time>
      </trkpt>
      <trkpt lat="42.475857" lon="1.575159">
        <time>2020-08-22T12:19:56Z</time>
      </trkpt>
      <trkpt lat="42.475857" lon="1.575159">
        <time>2020-08-22T12:19:56Z</time>
      </trkpt>
      <trkpt lat="42.475857" lon="1.575146">
        <time>2020-08-22T12:19:56Z</time>
      </trkpt>
      <trkpt lat="42.475857" lon="1.575146">
        <time>2020-08-22T12:19:56Z</time>
      </trkpt>
      <trkpt lat="42.475853" lon="1.575133">
        <time>2020-08-22T12:19:56Z</time>
      </trkpt>
      <trkpt lat="42.475853" lon="1.575133">
        <time>2020-08-22T12:19:56Z</time>
      </trkpt>
      <trkpt lat="42.475849" lon="1.575120">
        <time>2020-08-22T12:19:56Z</time>
      </trkpt>
      <trkpt lat="42.475849" lon="1.575120">
        <time>2020-08-22T12:19:56Z</time>
      </trkpt>
      <trkpt lat="42.475849" lon="1.575107">
        <time>2020-08-22T12:20:03Z</time>
      </trkpt>
      <trkpt lat="42.475849" lon="1.575107">
        <time>2020-08-22T12:20:03Z</time>
      </trkpt>
      <trkpt lat="42.475845" lon="1.575092">
        <time>2020-08-22T12:20:03Z</time>
      </trkpt>
      <trkpt lat="42.475845" lon="1.575092">
        <time>2020-08-22T12:20:03Z</time>
      </trkpt>
      <trkpt lat="42.475842" lon="1.575077">
        <time>2020-08-22T12:20:03Z</time>
      </trkpt>
      <trkpt lat="42.475842" lon="1.575077">
        <time>2020-08-22T12:20:03Z</time>
      </trkpt>
      <trkpt lat="42.475842" lon="1.575062">
        <time>2020-08-22T12:20:03Z</time>
      </trkpt>
      <trkpt lat="42.475842" lon="1.575062">
        <time>2020-08-22T12:20:03Z</time>
      </trkpt>
      <trkpt lat="42.475842" lon="1.575046">
        <time>2020-08-22T12:20:03Z</time>
      </trkpt>
      <trkpt lat="42.475842" lon="1.575046">
        <time>2020-08-22T12:20:03Z</time>
      </trkpt>
      <trkpt lat="42.475838" lon="1.575031">
        <time>2020-08-22T12:20:03Z</time>
      </trkpt>
      <trkpt lat="42.475838" lon="1.575031">
        <time>2020-08-22T12:20:03Z</time>
      </trkpt>
      <trkpt lat="42.475834" lon="1.575015">
        <time>2020-08-22T12:20:10Z</time>
      </trkpt>
      <trkpt lat="42.475834" lon="1.575015">
        <time>2020-08-22T12:20:10Z</time>
      </trkpt>
      <trkpt lat="42.475834" lon="1.574999">
        <time>2020-08-22T12:20:10Z</time>
      </trkpt>
      <trkpt lat="42.475834" lon="1.574999">
        <time>2020-08-22T12:20:10Z</time>
      </trkpt>
      <trkpt lat="42.475830" lon="1.574983">
        <time>2020-08-22T12:20:10Z</time>
      </trkpt>
      <trkpt lat="42.475830" lon="1.574983">
        <time>2020-08-22T12:20:10Z</time>
      </trkpt>
      <trkpt lat="42.475826" lon="1.574967">
        <time>2020-08-22T12:20:10Z</time>
      </trkpt>
      <trkpt lat="42.475826" lon="1.574967">
        <time>2020-08-22T12:20:10Z</time>
      </trkpt>
      <trkpt lat="42.475822" lon="1.574953">
        <time>2020-08-22T12:20:10Z</time>
      </trkpt>
      <trkpt lat="42.475822" lon="1.574953">
        <time>2020-08-22T12:20:10Z</time>
      </trkpt>
      <trkpt lat="42.475819" lon="1.574940">
        <time>2020-08-22T12:20:10Z</time>
      </trkpt>
      <trkpt lat="42.475819" lon="1.574940">
        <time>2020-08-22T12:20:10Z</time>
      </trkpt>
      <trkpt lat="42.475815" lon="1.574927">
        <time>2020-08-22T12:20:10Z</time>
      </trkpt>
      <trkpt lat="42.475815" lon="1.574927">
        <time>2020-08-22T12:20:10Z</time>
      </trkpt>
      <trkpt lat="42.475815" lon="1.574914">
        <time>2020-08-22T12:20:17Z</time>
      </trkpt>
      <trkpt lat="42.475815" lon="1.574914">
        <time>2020-08-22T12:20:17Z</time>
      </trkpt>
      <trkpt lat="42.475807" lon="1.574902">
        <time>2020-08-22T12:20:17Z</time>
      </trkpt>
      <trkpt lat="42.475807" lon="1.574902">
        <time>2020-08-22T12:20:17Z</time>
      </trkpt>
      <trkpt lat="42.475803" lon="1.574891">
        <time>2020-08-22T12:20:17Z</time>
      </trkpt>
      <trkpt lat="42.475803" lon="1.574891">
        <time>2020-08-22T12:20:17Z</time>
      </trkpt>
      <trkpt lat="42.475800" lon="1.574879">
        <time>2020-08-22T12:20:17Z</time>
      </trkpt>
      <trkpt lat="42.475800" lon="1.574879">
        <time>2020-08-22T12:20:17Z</time>
      </trkpt>
      <trkpt lat="42.475796" lon="1.574869">
        <time>2020-08-22T12:20:17Z</time>
      </trkpt>
      <trkpt lat="42.475796" lon="1.574869">
        <time>2020-08-22T12:20:17Z</time>
      </trkpt>
      <trkpt lat="42.475788" lon="1.574858">
        <time>2020-08-22T12:20:17Z</time>
      </trkpt>
      <trkpt lat="42.475788" lon="1.574858">
        <time>2020-08-22T12:20:17Z</time>
      </trkpt>
      <trkpt lat="42.475788" lon="1.574848">
        <time>2020-08-22T12:20:24Z</time>
      </trkpt>
      <trkpt lat="42.475788" lon="1.574848">
        <time>2020-08-22T12:20:24Z</time>
      </trkpt>
      <trkpt lat="42.475780" lon="1.574837">
        <time>2020-08-22T12:20:24Z</time>
      </trkpt>
      <trkpt lat="42.475780" lon="1.574837">
        <time>2020-08-22T12:20:24Z</time>
      </trkpt>
      <trkpt lat="42.475780" lon="1.574827">
        <time>2020-08-22T12:20:24Z</time>
      </trkpt>
      <trkpt lat="42.475780" lon="1.574827">
        <time>2020-08-22T12:20:24Z</time>
      </trkpt>
      <trkpt lat="42.475777" lon="1.574815">
        <time>2020-08-22T12:20:24Z</time>
      </trkpt>
      <trkpt lat="42.475777" lon="1.574815">
        <time>2020-08-22T12:20:24Z</time>
      </trkpt>
      <trkpt lat="42.475773" lon="1.574804">
        <time>2020-08-22T12:20:24Z</time>
      </trkpt>
      <trkpt lat="42.475773" lon="1.574804">
        <time>2020-08-22T12:20:24Z</time>
      </trkpt>
      <trkpt lat="42.475769" lon="1.574791">
        <time>2020-08-22T12:20:24Z</time>
      </trkpt>
      <trkpt lat="42.475769" lon="1.574791">
        <time>2020-08-22T12:20:24Z</time>
      </trkpt>
      <trkpt lat="42.475769" lon="1.574779">
        <time>2020-08-22T12:20:24Z</time>
      </trkpt>
      <trkpt lat="42.475769" lon="1.574779">
        <time>2020-08-22T12:20:24Z</time>
      </trkpt>
      <trkpt lat="42.475765" lon="1.574766">
        <time>2020-08-22T12:20:31Z</time>
      </trkpt>
      <trkpt lat="42.475765" lon="1.574766">
        <time>2020-08-22T12:20:31Z</time>
      </trkpt>
      <trkpt lat="42.475761" lon="1.574752">
        <time>2020-08-22T12:20:31Z</time>
      </trkpt>
      <trkpt lat="42.475761" lon="1.574752">
        <time>2020-08-22T12:20:31Z</time>
      </trkpt>
      <trkpt lat="42.475761" lon="1.574739">
        <time>2020-08-22T12:20:31Z</time>
      </trkpt>
      <trkpt lat="42.475761" lon="1.574739">
        <time>2020-08-22T12:20:31Z</time>
      </trkpt>
      <trkpt lat="42.475761" lon="1.574725">
        <time>2020-08-22T12:20:31Z</time>
      </trkpt>
      <trkpt lat="42.475761" lon="1.574725">
        <time>2020-08-22T12:20:31Z</time>
      </trkpt>
      <trkpt lat="42.475754" lon="1.574712">
        <time>2020-08-22T12:20:31Z</time>
      </trkpt>
      <trkpt lat="42.475754" lon="1.574712">
        <time>2020-08-22T12:20:31Z</time>
      </trkpt>
      <trkpt lat="42.475754" lon="1.574698">
        <time>2020-08-22T12:20:31Z</time>
      </trkpt>
      <trkpt lat="42.475754" lon="1.574698">
        <time>2020-08-22T12:20:31Z</time>
      </trkpt>
      <trkpt lat="42.475750" lon="1.574685">
        <time>2020-08-22T12:20:31Z</time>
      </trkpt>
      <trkpt lat="42.475750" lon="1.574685">
        <time>2020-08-22T12:20:31Z</time>
      </trkpt>
      <trkpt lat="42.475742" lon="1.574671">
        <time>2020-08-22T12:20:38Z</time>
      </trkpt>
      <trkpt lat="42.475742" lon="1.574671">
        <time>2020-08-22T12:20:38Z</time>
      </trkpt>
      <trkpt lat="42.475739" lon="1.574659">
        <time>2020-08-22T12:20:38Z</time>
      </trkpt>
      <trkpt lat="42.475739" lon="1.574659">
        <time>2020-08-22T12:20:38Z</time>
      </trkpt>
      <trkpt lat="42.475735" lon="1.574648">
        <time>2020-08-22T12:20:38Z</time>
      </trkpt>
      <trkpt lat="42.475735" lon="1.574648">
        <time>2020-08-22T12:20:38Z</time>
      </trkpt>
      <trkpt lat="42.475727" lon="1.574638">
        <time>2020-08-22T12:20:38Z</time>
      </trkpt>
      <trkpt lat="42.475727" lon="1.574638">
        <time>2020-08-22T12:20:38Z</time>
      </trkpt>
      <trkpt lat="42.475723" lon="1.574630">
        <time>2020-08-22T12:20:38Z</time>
      </trkpt>
      <trkpt lat="42.475723" lon="1.574630">
        <time>2020-08-22T12:20:38Z</time>
      </trkpt>
      <trkpt lat="42.475716" lon="1.574622">
        <time>2020-08-22T12:20:38Z</time>
      </trkpt>
      <trkpt lat="42.475716" lon="1.574622">
        <time>2020-08-22T12:20:38Z</time>
      </trkpt>
      <trkpt lat="42.475708" lon="1.574616">
        <time>2020-08-22T12:20:38Z</time>
      </trkpt>
      <trkpt lat="42.475708" lon="1.574616">
        <time>2020-08-22T12:20:38Z</time>
      </trkpt>
      <trkpt lat="42.475704" lon="1.574612">
        <time>2020-08-22T12:20:45Z</time>
      </trkpt>
      <trkpt lat="42.475704" lon="1.574612">
        <time>2020-08-22T12:20:45Z</time>
      </trkpt>
      <trkpt lat="42.475697" lon="1.574609">
        <time>2020-08-22T12:20:45Z</time>
      </trkpt>
      <trkpt lat="42.475697" lon="1.574609">
        <time>2020-08-22T12:20:45Z</time>
      </trkpt>
      <trkpt lat="42.475689" lon="1.574607">
        <time>2020-08-22T12:20:45Z</time>
      </trkpt>
      <trkpt lat="42.475689" lon="1.574607">
        <time>2020-08-22T12:20:45Z</time>
      </trkpt>
      <trkpt lat="42.475681" lon="1.574607">
        <time>2020-08-22T12:20:45Z</time>
      </trkpt>
      <trkpt lat="42.475681" lon="1.574607">
        <time>2020-08-22T12:20:45Z</time>
      </trkpt>
      <trkpt lat="42.475677" lon="1.574607">
        <time>2020-08-22T12:20:45Z</time>
      </trkpt>
      <trkpt lat="42.475677" lon="1.574607">
        <time>2020-08-22T12:20:45Z</time>
      </trkpt>
      <trkpt lat="42.475670" lon="1.574609">
        <time>2020-08-22T12:20:45Z</time>
      </trkpt>
      <trkpt lat="42.475670" lon="1.574609">
        <time>2020-08-22T12:20:45Z</time>
      </trkpt>
      <trkpt lat="42.475662" lon="1.574610">
        <time>2020-08-22T12:20:45Z</time>
      </trkpt>
      <trkpt lat="42.475662" lon="1.574610">
        <time>2020-08-22T12:20:45Z</time>
      </trkpt>
      <trkpt lat="42.475655" lon="1.574612">
        <time>2020-08-22T12:20:52Z</time>
      </trkpt>
      <trkpt lat="42.475655" lon="1.574612">
        <time>2020-08-22T12:20:52Z</time>
      </trkpt>
      <trkpt lat="42.475647" lon="1.574614">
        <time>2020-08-22T12:20:52Z</time>
      </trkpt>
      <trkpt lat="42.475647" lon="1.574614">
        <time>2020-08-22T12:20:52Z</time>
      </trkpt>
      <trkpt lat="42.475643" lon="1.574617">
        <time>2020-08-22T12:20:52Z</time>
      </trkpt>
      <trkpt lat="42.475643" lon="1.574617">
        <time>2020-08-22T12:20:52Z</time>
      </trkpt>
      <trkpt lat="42.475636" lon="1.574620">
        <time>2020-08-22T12:20:52Z</time>
      </trkpt>
      <trkpt lat="42.475636" lon="1.574620">
        <time>2020-08-22T12:20:52Z</time>
      </trkpt>
      <trkpt lat="42.475628" lon="1.574623">
        <time>2020-08-22T12:20:52Z</time>
      </trkpt>
      <trkpt lat="42.475628" lon="1.574623">
        <time>2020-08-22T12:20:52Z</time>
      </trkpt>
      <trkpt lat="42.475620" lon="1.574626">
        <time>2020-08-22T12:20:52Z</time>
      </trkpt>
      <trkpt lat="42.475620" lon="1.574626">
        <time>2020-08-22T12:20:52Z</time>
      </trkpt>
      <trkpt lat="42.475613" lon="1.574629">
        <time>2020-08-22T12:20:52Z</time>
      </trkpt>
      <trkpt lat="42.475613" lon="1.574629">
        <time>2020-08-22T12:20:52Z</time>
      </trkpt>
      <trkpt lat="42.475605" lon="1.574633">
        <time>2020-08-22T12:20:59Z</time>
      </trkpt>
      <trkpt lat="42.475605" lon="1.574633">
        <time>2020-08-22T12:20:59Z</time>
      </trkpt>
      <trkpt lat="42.475601" lon="1.574638">
        <time>2020-08-22T12:20:59Z</time>
      </trkpt>
      <trkpt lat="42.475601" lon="1.574638">
        <time>2020-08-22T12:20:59Z</time>
      </trkpt>
      <trkpt lat="42.475594" lon="1.574644">
        <time>2020-08-22T12:20:59Z</time>
      </trkpt>
      <trkpt lat="42.475594" lon="1.574644">
        <time>2020-08-22T12:20:59Z</time>
      </trkpt>
      <trkpt lat="42.475582" lon="1.574651">
        <time>2020-08-22T12:20:59Z</time>
      </trkpt>
      <trkpt lat="42.475582" lon="1.574651">
        <time>2020-08-22T12:20:59Z</time>
      </trkpt>
      <trkpt lat="42.475578" lon="1.574657">
        <time>2020-08-22T12:20:59Z</time>
      </trkpt>
      <trkpt lat="42.475578" lon="1.574657">
        <time>2020-08-22T12:20:59Z</time>
      </trkpt>
      <trkpt lat="42.475571" lon="1.574664">
        <time>2020-08-22T12:20:59Z</time>
      </trkpt>
      <trkpt lat="42.475571" lon="1.574664">
        <time>2020-08-22T12:20:59Z</time>
      </trkpt>
      <trkpt lat="42.475563" lon="1.574671">
        <time>2020-08-22T12:20:59Z</time>
      </trkpt>
      <trkpt lat="42.475563" lon="1.574671">
        <time>2020-08-22T12:20:59Z</time>
      </trkpt>
      <trkpt lat="42.475555" lon="1.574679">
        <time>2020-08-22T12:21:06Z</time>
      </trkpt>
      <trkpt lat="42.475555" lon="1.574679">
        <time>2020-08-22T12:21:06Z</time>
      </trkpt>
      <trkpt lat="42.475548" lon="1.574687">
        <time>2020-08-22T12:21:06Z</time>
      </trkpt>
      <trkpt lat="42.475548" lon="1.574687">
        <time>2020-08-22T12:21:06Z</time>
      </trkpt>
      <trkpt lat="42.475540" lon="1.574695">
        <time>2020-08-22T12:21:06Z</time>
      </trkpt>
      <trkpt lat="42.475540" lon="1.574695">
        <time>2020-08-22T12:21:06Z</time>
      </trkpt>
      <trkpt lat="42.475533" lon="1.574703">
        <time>2020-08-22T12:21:06Z</time>
      </trkpt>
      <trkpt lat="42.475533" lon="1.574703">
        <time>2020-08-22T12:21:06Z</time>
      </trkpt>
      <trkpt lat="42.475525" lon="1.574710">
        <time>2020-08-22T12:21:06Z</time>
      </trkpt>
      <trkpt lat="42.475525" lon="1.574710">
        <time>2020-08-22T12:21:06Z</time>
      </trkpt>
      <trkpt lat="42.475517" lon="1.574718">
        <time>2020-08-22T12:21:06Z</time>
      </trkpt>
      <trkpt lat="42.475517" lon="1.574718">
        <time>2020-08-22T12:21:06Z</time>
      </trkpt>
      <trkpt lat="42.475510" lon="1.574725">
        <time>2020-08-22T12:21:06Z</time>
      </trkpt>
      <trkpt lat="42.475510" lon="1.574725">
        <time>2020-08-22T12:21:06Z</time>
      </trkpt>
      <trkpt lat="42.475502" lon="1.574732">
        <time>2020-08-22T12:21:13Z</time>
      </trkpt>
      <trkpt lat="42.475502" lon="1.574732">
        <time>2020-08-22T12:21:13Z</time>
      </trkpt>
      <trkpt lat="42.475494" lon="1.574740">
        <time>2020-08-22T12:21:13Z</time>
      </trkpt>
      <trkpt lat="42.475494" lon="1.574740">
        <time>2020-08-22T12:21:13Z</time>
      </trkpt>
      <trkpt lat="42.475483" lon="1.574748">
        <time>2020-08-22T12:21:13Z</time>
      </trkpt>
      <trkpt lat="42.475483" lon="1.574748">
        <time>2020-08-22T12:21:13Z</time>
      </trkpt>
      <trkpt lat="42.475475" lon="1.574755">
        <time>2020-08-22T12:21:13Z</time>
      </trkpt>
      <trkpt lat="42.475475" lon="1.574755">
        <time>2020-08-22T12:21:13Z</time>
      </trkpt>
      <trkpt lat="42.475464" lon="1.574763">
        <time>2020-08-22T12:21:13Z</time>
      </trkpt>
      <trkpt lat="42.475464" lon="1.574763">
        <time>2020-08-22T12:21:13Z</time>
      </trkpt>
      <trkpt lat="42.475452" lon="1.574770">
        <time>2020-08-22T12:21:13Z</time>
      </trkpt>
      <trkpt lat="42.475452" lon="1.574770">
        <time>2020-08-22T12:21:13Z</time>
      </trkpt>
      <trkpt lat="42.475441" lon="1.574777">
        <time>2020-08-22T12:21:13Z</time>
      </trkpt>
      <trkpt lat="42.475441" lon="1.574777">
        <time>2020-08-22T12:21:13Z</time>
      </trkpt>
      <trkpt lat="42.475430" lon="1.574784">
        <time>2020-08-22T12:21:20Z</time>
      </trkpt>
      <trkpt lat="42.475430" lon="1.574784">
        <time>2020-08-22T12:21:20Z</time>
      </trkpt>
      <trkpt lat="42.475418" lon="1.574790">
        <time>2020-08-22T12:21:20Z</time>
      </trkpt>
      <trkpt lat="42.475418" lon="1.574790">
        <time>2020-08-22T12:21:20Z</time>
      </trkpt>
      <trkpt lat="42.475407" lon="1.574794">
        <time>2020-08-22T12:21:20Z</time>
      </trkpt>
      <trkpt lat="42.475407" lon="1.574794">
        <time>2020-08-22T12:21:20Z</time>
      </trkpt>
      <trkpt lat="42.475395" lon="1.574798">
        <time>2020-08-22T12:21:20Z</time>
      </trkpt>
      <trkpt lat="42.475395" lon="1.574798">
        <time>2020-08-22T12:21:20Z</time>
      </trkpt>
      <trkpt lat="42.475384" lon="1.574801">
        <time>2020-08-22T12:21:20Z</time>
      </trkpt>
      <trkpt lat="42.475384" lon="1.574801">
        <time>2020-08-22T12:21:20Z</time>
      </trkpt>
      <trkpt lat="42.475372" lon="1.574803">
        <time>2020-08-22T12:21:20Z</time>
      </trkpt>
      <trkpt lat="42.475372" lon="1.574803">
        <time>2020-08-22T12:21:20Z</time>
      </trkpt>
      <trkpt lat="42.475361" lon="1.574803">
        <time>2020-08-22T12:21:20Z</time>
      </trkpt>
      <trkpt lat="42.475361" lon="1.574803">
        <time>2020-08-22T12:21:20Z</time>
      </trkpt>
      <trkpt lat="42.475353" lon="1.574804">
        <time>2020-08-22T12:21:27Z</time>
      </trkpt>
      <trkpt lat="42.475353" lon="1.574804">
        <time>2020-08-22T12:21:27Z</time>
      </trkpt>
      <trkpt lat="42.475342" lon="1.574803">
        <time>2020-08-22T12:21:27Z</time>
      </trkpt>
      <trkpt lat="42.475342" lon="1.574803">
        <time>2020-08-22T12:21:27Z</time>
      </trkpt>
      <trkpt lat="42.475330" lon="1.574802">
        <time>2020-08-22T12:21:27Z</time>
      </trkpt>
      <trkpt lat="42.475330" lon="1.574802">
        <time>2020-08-22T12:21:27Z</time>
      </trkpt>
      <trkpt lat="42.475319" lon="1.574800">
        <time>2020-08-22T12:21:27Z</time>
      </trkpt>
      <trkpt lat="42.475319" lon="1.574800">
        <time>2020-08-22T12:21:27Z</time>
      </trkpt>
      <trkpt lat="42.475311" lon="1.574798">
        <time>2020-08-22T12:21:27Z</time>
      </trkpt>
      <trkpt lat="42.475311" lon="1.574798">
        <time>2020-08-22T12:21:27Z</time>
      </trkpt>
      <trkpt lat="42.475300" lon="1.574796">
        <time>2020-08-22T12:21:27Z</time>
      </trkpt>
      <trkpt lat="42.475300" lon="1.574796">
        <time>2020-08-22T12:21:27Z</time>
      </trkpt>
      <trkpt lat="42.475292" lon="1.574794">
        <time>2020-08-22T12:21:27Z</time>
      </trkpt>
      <trkpt lat="42.475292" lon="1.574794">
        <time>2020-08-22T12:21:27Z</time>
      </trkpt>
      <trkpt lat="42.475281" lon="1.574792">
        <time>2020-08-22T12:21:34Z</time>
      </trkpt>
      <trkpt lat="42.475281" lon="1.574792">
        <time>2020-08-22T12:21:34Z</time>
      </trkpt>
      <trkpt lat="42.475273" lon="1.574790">
        <time>2020-08-22T12:21:34Z</time>
      </trkpt>
      <trkpt lat="42.475273" lon="1.574790">
        <time>2020-08-22T12:21:34Z</time>
      </trkpt>
      <trkpt lat="42.475265" lon="1.574787">
        <time>2020-08-22T12:21:34Z</time>
      </trkpt>
      <trkpt lat="42.475265" lon="1.574787">
        <time>2020-08-22T12:21:34Z</time>
      </trkpt>
      <trkpt lat="42.475258" lon="1.574783">
        <time>2020-08-22T12:21:34Z</time>
      </trkpt>
      <trkpt lat="42.475258" lon="1.574783">
        <time>2020-08-22T12:21:34Z</time>
      </trkpt>
      <trkpt lat="42.475246" lon="1.574779">
        <time>2020-08-22T12:21:34Z</time>
      </trkpt>
      <trkpt lat="42.475246" lon="1.574779">
        <time>2020-08-22T12:21:34Z</time>
      </trkpt>
      <trkpt lat="42.475239" lon="1.574774">
        <time>2020-08-22T12:21:34Z</time>
      </trkpt>
      <trkpt lat="42.475239" lon="1.574774">
        <time>2020-08-22T12:21:34Z</time>
      </trkpt>
      <trkpt lat="42.475231" lon="1.574769">
        <time>2020-08-22T12:21:34Z</time>
      </trkpt>
      <trkpt lat="42.475231" lon="1.574769">
        <time>2020-08-22T12:21:34Z</time>
      </trkpt>
      <trkpt lat="42.475220" lon="1.574763">
        <time>2020-08-22T12:21:41Z</time>
      </trkpt>
      <trkpt lat="42.475220" lon="1.574763">
        <time>2020-08-22T12:21:41Z</time>
      </trkpt>
      <trkpt lat="42.475212" lon="1.574757">
        <time>2020-08-22T12:21:41Z</time>
      </trkpt>
      <trkpt lat="42.475212" lon="1.574757">
        <time>2020-08-22T12:21:41Z</time>
      </trkpt>
      <trkpt lat="42.475204" lon="1.574749">
        <time>2020-08-22T12:21:41Z</time>
      </trkpt>
      <trkpt lat="42.475204" lon="1.574749">
        <time>2020-08-22T12:21:41Z</time>
      </trkpt>
      <trkpt lat="42.475193" lon="1.574741">
        <time>2020-08-22T12:21:41Z</time>
      </trkpt>
      <trkpt lat="42.475193" lon="1.574741">
        <time>2020-08-22T12:21:41Z</time>
      </trkpt>
      <trkpt lat="42.475185" lon="1.574732">
        <time>2020-08-22T12:21:41Z</time>
      </trkpt>
      <trkpt lat="42.475185" lon="1.574732">
        <time>2020-08-22T12:21:41Z</time>
      </trkpt>
      <trkpt lat="42.475178" lon="1.574722">
        <time>2020-08-22T12:21:41Z</time>
      </trkpt>
      <trkpt lat="42.475178" lon="1.574722">
        <time>2020-08-22T12:21:41Z</time>
      </trkpt>
      <trkpt lat="42.475170" lon="1.574712">
        <time>2020-08-22T12:21:41Z</time>
      </trkpt>
      <trkpt lat="42.475170" lon="1.574712">
        <time>2020-08-22T12:21:41Z</time>
      </trkpt>
      <trkpt lat="42.475162" lon="1.574701">
        <time>2020-08-22T12:21:48Z</time>
      </trkpt>
      <trkpt lat="42.475162" lon="1.574701">
        <time>2020-08-22T12:21:48Z</time>
      </trkpt>
      <trkpt lat="42.475159" lon="1.574690">
        <time>2020-08-22T12:21:48Z</time>
      </trkpt>
      <trkpt lat="42.475159" lon="1.574690">
        <time>2020-08-22T12:21:48Z</time>
      </trkpt>
      <trkpt lat="42.475151" lon="1.574679">
        <time>2020-08-22T12:21:48Z</time>
      </trkpt>
      <trkpt lat="42.475151" lon="1.574679">
        <time>2020-08-22T12:21:48Z</time>
      </trkpt>
      <trkpt lat="42.475143" lon="1.574667">
        <time>2020-08-22T12:21:48Z</time>
      </trkpt>
      <trkpt lat="42.475143" lon="1.574667">
        <time>2020-08-22T12:21:48Z</time>
      </trkpt>
      <trkpt lat="42.475140" lon="1.574655">
        <time>2020-08-22T12:21:48Z</time>
      </trkpt>
      <trkpt lat="42.475140" lon="1.574655">
        <time>2020-08-22T12:21:48Z</time>
      </trkpt>
      <trkpt lat="42.475132" lon="1.574643">
        <time>2020-08-22T12:21:48Z</time>
      </trkpt>
      <trkpt lat="42.475132" lon="1.574643">
        <time>2020-08-22T12:21:48Z</time>
      </trkpt>
      <trkpt lat="42.475128" lon="1.574632">
        <time>2020-08-22T12:21:48Z</time>
      </trkpt>
      <trkpt lat="42.475128" lon="1.574632">
        <time>2020-08-22T12:21:48Z</time>
      </trkpt>
      <trkpt lat="42.475124" lon="1.574622">
        <time>2020-08-22T12:21:55Z</time>
      </trkpt>
      <trkpt lat="42.475124" lon="1.574622">
        <time>2020-08-22T12:21:55Z</time>
      </trkpt>
      <trkpt lat="42.475113" lon="1.574612">
        <time>2020-08-22T12:21:55Z</time>
      </trkpt>
      <trkpt lat="42.475113" lon="1.574612">
        <time>2020-08-22T12:21:55Z</time>
      </trkpt>
      <trkpt lat="42.475109" lon="1.574603">
        <time>2020-08-22T12:21:55Z</time>
      </trkpt>
      <trkpt lat="42.475109" lon="1.574603">
        <time>2020-08-22T12:21:55Z</time>
      </trkpt>
      <trkpt lat="42.475101" lon="1.574593">
        <time>2020-08-22T12:21:55Z</time>
      </trkpt>
      <trkpt lat="42.475101" lon="1.574593">
        <time>2020-08-22T12:21:55Z</time>
      </trkpt>
      <trkpt lat="42.475094" lon="1.574584">
        <time>2020-08-22T12:21:55Z</time>
      </trkpt>
      <trkpt lat="42.475094" lon="1.574584">
        <time>2020-08-22T12:21:55Z</time>
      </trkpt>
      <trkpt lat="42.475086" lon="1.574575">
        <time>2020-08-22T12:21:55Z</time>
      </trkpt>
      <trkpt lat="42.475086" lon="1.574575">
        <time>2020-08-22T12:21:55Z</time>
      </trkpt>
      <trkpt lat="42.475079" lon="1.574566">
        <time>2020-08-22T12:21:55Z</time>
      </trkpt>
      <trkpt lat="42.475079" lon="1.574566">
        <time>2020-08-22T12:21:55Z</time>
      </trkpt>
      <trkpt lat="42.475071" lon="1.574556">
        <time>2020-08-22T12:22:02Z</time>
      </trkpt>
      <trkpt lat="42.475071" lon="1.574556">
        <time>2020-08-22T12:22:02Z</time>
      </trkpt>
      <trkpt lat="42.475063" lon="1.574546">
        <time>2020-08-22T12:22:02Z</time>
      </trkpt>
      <trkpt lat="42.475063" lon="1.574546">
        <time>2020-08-22T12:22:02Z</time>
      </trkpt>
      <trkpt lat="42.475056" lon="1.574536">
        <time>2020-08-22T12:22:02Z</time>
      </trkpt>
      <trkpt lat="42.475056" lon="1.574536">
        <time>2020-08-22T12:22:02Z</time>
      </trkpt>
      <trkpt lat="42.475052" lon="1.574524">
        <time>2020-08-22T12:22:02Z</time>
      </trkpt>
      <trkpt lat="42.475052" lon="1.574524">
        <time>2020-08-22T12:22:02Z</time>
      </trkpt>
      <trkpt lat="42.475044" lon="1.574511">
        <time>2020-08-22T12:22:02Z</time>
      </trkpt>
      <trkpt lat="42.475044" lon="1.574511">
        <time>2020-08-22T12:22:02Z</time>
      </trkpt>
      <trkpt lat="42.475040" lon="1.574497">
        <time>2020-08-22T12:22:02Z</time>
      </trkpt>
      <trkpt lat="42.475040" lon="1.574497">
        <time>2020-08-22T12:22:02Z</time>
      </trkpt>
      <trkpt lat="42.475033" lon="1.574483">
        <time>2020-08-22T12:22:02Z</time>
      </trkpt>
      <trkpt lat="42.475033" lon="1.574483">
        <time>2020-08-22T12:22:02Z</time>
      </trkpt>
      <trkpt lat="42.475033" lon="1.574469">
        <time>2020-08-22T12:22:09Z</time>
      </trkpt>
      <trkpt lat="42.475033" lon="1.574469">
        <time>2020-08-22T12:22:09Z</time>
      </trkpt>
      <trkpt lat="42.475025" lon="1.574454">
        <time>2020-08-22T12:22:09Z</time>
      </trkpt>
      <trkpt lat="42.475025" lon="1.574454">
        <time>2020-08-22T12:22:09Z</time>
      </trkpt>
      <trkpt lat="42.475025" lon="1.574439">
        <time>2020-08-22T12:22:09Z</time>
      </trkpt>
      <trkpt lat="42.475025" lon="1.574439">
        <time>2020-08-22T12:22:09Z</time>
      </trkpt>
      <trkpt lat="42.475018" lon="1.574424">
        <time>2020-08-22T12:22:09Z</time>
      </trkpt>
      <trkpt lat="42.475018" lon="1.574424">
        <time>2020-08-22T12:22:09Z</time>
      </trkpt>
      <trkpt lat="42.475018" lon="1.574408">
        <time>2020-08-22T12:22:09Z</time>
      </trkpt>
      <trkpt lat="42.475018" lon="1.574408">
        <time>2020-08-22T12:22:09Z</time>
      </trkpt>
      <trkpt lat="42.475010" lon="1.574392">
        <time>2020-08-22T12:22:09Z</time>
      </trkpt>
      <trkpt lat="42.475010" lon="1.574392">
        <time>2020-08-22T12:22:09Z</time>
      </trkpt>
      <trkpt lat="42.475006" lon="1.574377">
        <time>2020-08-22T12:22:09Z</time>
      </trkpt>
      <trkpt lat="42.475006" lon="1.574377">
        <time>2020-08-22T12:22:09Z</time>
      </trkpt>
      <trkpt lat="42.474998" lon="1.574362">
        <time>2020-08-22T12:22:16Z</time>
      </trkpt>
      <trkpt lat="42.474998" lon="1.574362">
        <time>2020-08-22T12:22:16Z</time>
      </trkpt>
      <trkpt lat="42.474995" lon="1.574346">
        <time>2020-08-22T12:22:16Z</time>
      </trkpt>
      <trkpt lat="42.474995" lon="1.574346">
        <time>2020-08-22T12:22:16Z</time>
      </trkpt>
      <trkpt lat="42.474987" lon="1.574331">
        <time>2020-08-22T12:22:16Z</time>
      </trkpt>
      <trkpt lat="42.474987" lon="1.574331">
        <time>2020-08-22T12:22:16Z</time>
      </trkpt>
      <trkpt lat="42.474976" lon="1.574316">
        <time>2020-08-22T12:22:16Z</time>
      </trkpt>
      <trkpt lat="42.474976" lon="1.574316">
        <time>2020-08-22T12:22:16Z</time>
      </trkpt>
      <trkpt lat="42.474968" lon="1.574300">
        <time>2020-08-22T12:22:16Z</time>
      </trkpt>
      <trkpt lat="42.474968" lon="1.574300">
        <time>2020-08-22T12:22:16Z</time>
      </trkpt>
      <trkpt lat="42.474957" lon="1.574285">
        <time>2020-08-22T12:22:16Z</time>
      </trkpt>
      <trkpt lat="42.474957" lon="1.574285">
        <time>2020-08-22T12:22:16Z</time>
      </trkpt>
      <trkpt lat="42.474945" lon="1.574271">
        <time>2020-08-22T12:22:16Z</time>
      </trkpt>
      <trkpt lat="42.474945" lon="1.574271">
        <time>2020-08-22T12:22:16Z</time>
      </trkpt>
      <trkpt lat="42.474937" lon="1.574256">
        <time>2020-08-22T12:22:23Z</time>
      </trkpt>
      <trkpt lat="42.474937" lon="1.574256">
        <time>2020-08-22T12:22:23Z</time>
      </trkpt>
      <trkpt lat="42.474926" lon="1.574242">
        <time>2020-08-22T12:22:23Z</time>
      </trkpt>
      <trkpt lat="42.474926" lon="1.574242">
        <time>2020-08-22T12:22:23Z</time>
      </trkpt>
      <trkpt lat="42.474918" lon="1.574227">
        <time>2020-08-22T12:22:23Z</time>
      </trkpt>
      <trkpt lat="42.474918" lon="1.574227">
        <time>2020-08-22T12:22:23Z</time>
      </trkpt>
      <trkpt lat="42.474907" lon="1.574212">
        <time>2020-08-22T12:22:23Z</time>
      </trkpt>
      <trkpt lat="42.474907" lon="1.574212">
        <time>2020-08-22T12:22:23Z</time>
      </trkpt>
      <trkpt lat="42.474899" lon="1.574196">
        <time>2020-08-22T12:22:23Z</time>
      </trkpt>
      <trkpt lat="42.474899" lon="1.574196">
        <time>2020-08-22T12:22:23Z</time>
      </trkpt>
      <trkpt lat="42.474892" lon="1.574180">
        <time>2020-08-22T12:22:33Z</time>
      </trkpt>
      <trkpt lat="42.474892" lon="1.574180">
        <time>2020-08-22T12:22:33Z</time>
      </trkpt>
      <trkpt lat="42.474884" lon="1.574158">
        <time>2020-08-22T12:22:33Z</time>
      </trkpt>
      <trkpt lat="42.474884" lon="1.574158">
        <time>2020-08-22T12:22:33Z</time>
      </trkpt>
      <trkpt lat="42.474876" lon="1.574137">
        <time>2020-08-22T12:22:33Z</time>
      </trkpt>
      <trkpt lat="42.474876" lon="1.574137">
        <time>2020-08-22T12:22:33Z</time>
      </trkpt>
      <trkpt lat="42.474873" lon="1.574118">
        <time>2020-08-22T12:22:33Z</time>
      </trkpt>
      <trkpt lat="42.474873" lon="1.574118">
        <time>2020-08-22T12:22:33Z</time>
      </trkpt>
      <trkpt lat="42.474865" lon="1.574100">
        <time>2020-08-22T12:22:40Z</time>
      </trkpt>
      <trkpt lat="42.474865" lon="1.574100">
        <time>2020-08-22T12:22:40Z</time>
      </trkpt>
      <trkpt lat="42.474861" lon="1.574083">
        <time>2020-08-22T12:22:40Z</time>
      </trkpt>
      <trkpt lat="42.474861" lon="1.574083">
        <time>2020-08-22T12:22:40Z</time>
      </trkpt>
      <trkpt lat="42.474857" lon="1.574069">
        <time>2020-08-22T12:22:40Z</time>
      </trkpt>
      <trkpt lat="42.474857" lon="1.574069">
        <time>2020-08-22T12:22:40Z</time>
      </trkpt>
      <trkpt lat="42.474850" lon="1.574057">
        <time>2020-08-22T12:22:40Z</time>
      </trkpt>
      <trkpt lat="42.474850" lon="1.574057">
        <time>2020-08-22T12:22:40Z</time>
      </trkpt>
      <trkpt lat="42.474846" lon="1.574048">
        <time>2020-08-22T12:22:40Z</time>
      </trkpt>
      <trkpt lat="42.474846" lon="1.574048">
        <time>2020-08-22T12:22:40Z</time>
      </trkpt>
      <trkpt lat="42.474842" lon="1.574041">
        <time>2020-08-22T12:22:40Z</time>
      </trkpt>
      <trkpt lat="42.474842" lon="1.574041">
        <time>2020-08-22T12:22:40Z</time>
      </trkpt>
      <trkpt lat="42.474838" lon="1.574035">
        <time>2020-08-22T12:22:47Z</time>
      </trkpt>
      <trkpt lat="42.474838" lon="1.574035">
        <time>2020-08-22T12:22:47Z</time>
      </trkpt>
      <trkpt lat="42.474831" lon="1.574034">
        <time>2020-08-22T12:22:47Z</time>
      </trkpt>
      <trkpt lat="42.474831" lon="1.574034">
        <time>2020-08-22T12:22:47Z</time>
      </trkpt>
      <trkpt lat="42.474831" lon="1.574032">
        <time>2020-08-22T12:23:09Z</time>
      </trkpt>
      <trkpt lat="42.474831" lon="1.574032">
        <time>2020-08-22T12:23:09Z</time>
      </trkpt>
      <trkpt lat="42.474827" lon="1.574028">
        <time>2020-08-22T12:23:09Z</time>
      </trkpt>
      <trkpt lat="42.474827" lon="1.574028">
        <time>2020-08-22T12:23:09Z</time>
      </trkpt>
      <trkpt lat="42.474823" lon="1.574024">
        <time>2020-08-22T12:23:09Z</time>
      </trkpt>
      <trkpt lat="42.474823" lon="1.574024">
        <time>2020-08-22T12:23:09Z</time>
      </trkpt>
      <trkpt lat="42.474815" lon="1.574017">
        <time>2020-08-22T12:23:09Z</time>
      </trkpt>
      <trkpt lat="42.474815" lon="1.574017">
        <time>2020-08-22T12:23:09Z</time>
      </trkpt>
      <trkpt lat="42.474812" lon="1.574009">
        <time>2020-08-22T12:23:09Z</time>
      </trkpt>
      <trkpt lat="42.474812" lon="1.574009">
        <time>2020-08-22T12:23:09Z</time>
      </trkpt>
      <trkpt lat="42.474812" lon="1.574001">
        <time>2020-08-22T12:23:16Z</time>
      </trkpt>
      <trkpt lat="42.474812" lon="1.574001">
        <time>2020-08-22T12:23:16Z</time>
      </trkpt>
      <trkpt lat="42.474804" lon="1.573991">
        <time>2020-08-22T12:23:16Z</time>
      </trkpt>
      <trkpt lat="42.474804" lon="1.573991">
        <time>2020-08-22T12:23:16Z</time>
      </trkpt>
      <trkpt lat="42.474800" lon="1.573981">
        <time>2020-08-22T12:23:16Z</time>
      </trkpt>
      <trkpt lat="42.474800" lon="1.573981">
        <time>2020-08-22T12:23:16Z</time>
      </trkpt>
      <trkpt lat="42.474796" lon="1.573970">
        <time>2020-08-22T12:23:16Z</time>
      </trkpt>
      <trkpt lat="42.474796" lon="1.573970">
        <time>2020-08-22T12:23:16Z</time>
      </trkpt>
      <trkpt lat="42.474785" lon="1.573963">
        <time>2020-08-22T12:23:16Z</time>
      </trkpt>
      <trkpt lat="42.474785" lon="1.573963">
        <time>2020-08-22T12:23:16Z</time>
      </trkpt>
      <trkpt lat="42.474770" lon="1.573958">
        <time>2020-08-22T12:23:16Z</time>
      </trkpt>
      <trkpt lat="42.474770" lon="1.573958">
        <time>2020-08-22T12:23:16Z</time>
      </trkpt>
      <trkpt lat="42.474758" lon="1.573953">
        <time>2020-08-22T12:23:16Z</time>
      </trkpt>
      <trkpt lat="42.474758" lon="1.573953">
        <time>2020-08-22T12:23:16Z</time>
      </trkpt>
      <trkpt lat="42.474747" lon="1.573948">
        <time>2020-08-22T12:23:16Z</time>
      </trkpt>
      <trkpt lat="42.474747" lon="1.573948">
        <time>2020-08-22T12:23:16Z</time>
      </trkpt>
      <trkpt lat="42.474731" lon="1.573945">
        <time>2020-08-22T12:23:16Z</time>
      </trkpt>
      <trkpt lat="42.474731" lon="1.573945">
        <time>2020-08-22T12:23:16Z</time>
      </trkpt>
      <trkpt lat="42.474701" lon="1.573910">
        <time>2020-08-22T12:23:16Z</time>
      </trkpt>
      <trkpt lat="42.474701" lon="1.573910">
        <time>2020-08-22T12:23:16Z</time>
      </trkpt>
      <trkpt lat="42.474705" lon="1.573889">
        <time>2020-08-22T12:23:16Z</time>
      </trkpt>
      <trkpt lat="42.474705" lon="1.573889">
        <time>2020-08-22T12:23:16Z</time>
      </trkpt>
      <trkpt lat="42.474709" lon="1.573879">
        <time>2020-08-22T12:23:16Z</time>
      </trkpt>
      <trkpt lat="42.474709" lon="1.573879">
        <time>2020-08-22T12:23:16Z</time>
      </trkpt>
      <trkpt lat="42.474716" lon="1.573856">
        <time>2020-08-22T12:23:50Z</time>
      </trkpt>
      <trkpt lat="42.474716" lon="1.573856">
        <time>2020-08-22T12:23:50Z</time>
      </trkpt>
      <trkpt lat="42.474720" lon="1.573855">
        <time>2020-08-22T12:23:50Z</time>
      </trkpt>
      <trkpt lat="42.474720" lon="1.573855">
        <time>2020-08-22T12:23:50Z</time>
      </trkpt>
      <trkpt lat="42.474731" lon="1.573848">
        <time>2020-08-22T12:23:50Z</time>
      </trkpt>
      <trkpt lat="42.474731" lon="1.573848">
        <time>2020-08-22T12:23:50Z</time>
      </trkpt>
      <trkpt lat="42.474743" lon="1.573843">
        <time>2020-08-22T12:23:50Z</time>
      </trkpt>
      <trkpt lat="42.474743" lon="1.573843">
        <time>2020-08-22T12:23:50Z</time>
      </trkpt>
      <trkpt lat="42.474751" lon="1.573840">
        <time>2020-08-22T12:23:50Z</time>
      </trkpt>
      <trkpt lat="42.474751" lon="1.573840">
        <time>2020-08-22T12:23:50Z</time>
      </trkpt>
      <trkpt lat="42.474758" lon="1.573838">
        <time>2020-08-22T12:23:50Z</time>
      </trkpt>
      <trkpt lat="42.474758" lon="1.573838">
        <time>2020-08-22T12:23:50Z</time>
      </trkpt>
      <trkpt lat="42.474762" lon="1.573837">
        <time>2020-08-22T12:24:02Z</time>
      </trkpt>
      <trkpt lat="42.474762" lon="1.573837">
        <time>2020-08-22T12:24:02Z</time>
      </trkpt>
      <trkpt lat="42.474770" lon="1.573837">
        <time>2020-08-22T12:24:02Z</time>
      </trkpt>
      <trkpt lat="42.474770" lon="1.573837">
        <time>2020-08-22T12:24:02Z</time>
      </trkpt>
      <trkpt lat="42.474770" lon="1.573838">
        <time>2020-08-22T12:24:02Z</time>
      </trkpt>
      <trkpt lat="42.474770" lon="1.573838">
        <time>2020-08-22T12:24:02Z</time>
      </trkpt>
      <trkpt lat="42.474773" lon="1.573839">
        <time>2020-08-22T12:24:09Z</time>
      </trkpt>
      <trkpt lat="42.474773" lon="1.573839">
        <time>2020-08-22T12:24:09Z</time>
      </trkpt>
      <trkpt lat="42.474785" lon="1.573840">
        <time>2020-08-22T12:24:09Z</time>
      </trkpt>
      <trkpt lat="42.474785" lon="1.573840">
        <time>2020-08-22T12:24:09Z</time>
      </trkpt>
      <trkpt lat="42.474792" lon="1.573841">
        <time>2020-08-22T12:24:09Z</time>
      </trkpt>
      <trkpt lat="42.474792" lon="1.573841">
        <time>2020-08-22T12:24:09Z</time>
      </trkpt>
      <trkpt lat="42.474796" lon="1.573845">
        <time>2020-08-22T12:24:09Z</time>
      </trkpt>
      <trkpt lat="42.474796" lon="1.573845">
        <time>2020-08-22T12:24:09Z</time>
      </trkpt>
      <trkpt lat="42.474800" lon="1.573851">
        <time>2020-08-22T12:24:16Z</time>
      </trkpt>
      <trkpt lat="42.474800" lon="1.573851">
        <time>2020-08-22T12:24:16Z</time>
      </trkpt>
      <trkpt lat="42.474804" lon="1.573857">
        <time>2020-08-22T12:24:16Z</time>
      </trkpt>
      <trkpt lat="42.474804" lon="1.573857">
        <time>2020-08-22T12:24:16Z</time>
      </trkpt>
      <trkpt lat="42.474804" lon="1.573865">
        <time>2020-08-22T12:24:16Z</time>
      </trkpt>
      <trkpt lat="42.474804" lon="1.573865">
        <time>2020-08-22T12:24:16Z</time>
      </trkpt>
      <trkpt lat="42.474804" lon="1.573872">
        <time>2020-08-22T12:24:16Z</time>
      </trkpt>
      <trkpt lat="42.474804" lon="1.573872">
        <time>2020-08-22T12:24:16Z</time>
      </trkpt>
      <trkpt lat="42.474804" lon="1.573879">
        <time>2020-08-22T12:24:16Z</time>
      </trkpt>
      <trkpt lat="42.474804" lon="1.573879">
        <time>2020-08-22T12:24:16Z</time>
      </trkpt>
      <trkpt lat="42.474804" lon="1.573886">
        <time>2020-08-22T12:24:16Z</time>
      </trkpt>
      <trkpt lat="42.474804" lon="1.573886">
        <time>2020-08-22T12:24:16Z</time>
      </trkpt>
      <trkpt lat="42.474804" lon="1.573893">
        <time>2020-08-22T12:24:24Z</time>
      </trkpt>
      <trkpt lat="42.474804" lon="1.573893">
        <time>2020-08-22T12:24:24Z</time>
      </trkpt>
      <trkpt lat="42.474804" lon="1.573897">
        <time>2020-08-22T12:24:24Z</time>
      </trkpt>
      <trkpt lat="42.474804" lon="1.573897">
        <time>2020-08-22T12:24:24Z</time>
      </trkpt>
      <trkpt lat="42.474800" lon="1.573899">
        <time>2020-08-22T12:24:37Z</time>
      </trkpt>
      <trkpt lat="42.474800" lon="1.573899">
        <time>2020-08-22T12:24:37Z</time>
      </trkpt>
      <trkpt lat="42.474796" lon="1.573899">
        <time>2020-08-22T12:24:37Z</time>
      </trkpt>
      <trkpt lat="42.474796" lon="1.573899">
        <time>2020-08-22T12:24:37Z</time>
      </trkpt>
      <trkpt lat="42.474796" lon="1.573899">
        <time>2020-08-22T12:24:37Z</time>
      </trkpt>
      <trkpt lat="42.474796" lon="1.573899">
        <time>2020-08-22T12:24:37Z</time>
      </trkpt>
      <trkpt lat="42.474792" lon="1.573898">
        <time>2020-08-22T12:24:37Z</time>
      </trkpt>
      <trkpt lat="42.474792" lon="1.573898">
        <time>2020-08-22T12:24:37Z</time>
      </trkpt>
      <trkpt lat="42.474789" lon="1.573896">
        <time>2020-08-22T12:24:37Z</time>
      </trkpt>
      <trkpt lat="42.474789" lon="1.573896">
        <time>2020-08-22T12:24:37Z</time>
      </trkpt>
      <trkpt lat="42.474785" lon="1.573892">
        <time>2020-08-22T12:24:37Z</time>
      </trkpt>
      <trkpt lat="42.474785" lon="1.573892">
        <time>2020-08-22T12:24:37Z</time>
      </trkpt>
      <trkpt lat="42.474758" lon="1.573876">
        <time>2020-08-22T12:25:10Z</time>
      </trkpt>
      <trkpt lat="42.474758" lon="1.573876">
        <time>2020-08-22T12:25:10Z</time>
      </trkpt>
      <trkpt lat="42.474758" lon="1.573875">
        <time>2020-08-22T12:25:10Z</time>
      </trkpt>
      <trkpt lat="42.474758" lon="1.573875">
        <time>2020-08-22T12:25:10Z</time>
      </trkpt>
      <trkpt lat="42.474754" lon="1.573874">
        <time>2020-08-22T12:25:10Z</time>
      </trkpt>
      <trkpt lat="42.474754" lon="1.573874">
        <time>2020-08-22T12:25:10Z</time>
      </trkpt>
      <trkpt lat="42.474751" lon="1.573872">
        <time>2020-08-22T12:25:10Z</time>
      </trkpt>
      <trkpt lat="42.474751" lon="1.573872">
        <time>2020-08-22T12:25:10Z</time>
      </trkpt>
      <trkpt lat="42.474751" lon="1.573870">
        <time>2020-08-22T12:25:10Z</time>
      </trkpt>
      <trkpt lat="42.474751" lon="1.573870">
        <time>2020-08-22T12:25:10Z</time>
      </trkpt>
      <trkpt lat="42.474747" lon="1.573867">
        <time>2020-08-22T12:25:10Z</time>
      </trkpt>
      <trkpt lat="42.474747" lon="1.573867">
        <time>2020-08-22T12:25:10Z</time>
      </trkpt>
      <trkpt lat="42.474743" lon="1.573864">
        <time>2020-08-22T12:25:10Z</time>
      </trkpt>
      <trkpt lat="42.474743" lon="1.573864">
        <time>2020-08-22T12:25:10Z</time>
      </trkpt>
      <trkpt lat="42.474743" lon="1.573861">
        <time>2020-08-22T12:25:17Z</time>
      </trkpt>
      <trkpt lat="42.474743" lon="1.573861">
        <time>2020-08-22T12:25:17Z</time>
      </trkpt>
      <trkpt lat="42.474739" lon="1.573859">
        <time>2020-08-22T12:25:17Z</time>
      </trkpt>
      <trkpt lat="42.474739" lon="1.573859">
        <time>2020-08-22T12:25:17Z</time>
      </trkpt>
      <trkpt lat="42.474731" lon="1.573856">
        <time>2020-08-22T12:25:17Z</time>
      </trkpt>
      <trkpt lat="42.474731" lon="1.573856">
        <time>2020-08-22T12:25:17Z</time>
      </trkpt>
      <trkpt lat="42.474728" lon="1.573851">
        <time>2020-08-22T12:25:17Z</time>
      </trkpt>
      <trkpt lat="42.474728" lon="1.573851">
        <time>2020-08-22T12:25:17Z</time>
      </trkpt>
      <trkpt lat="42.474720" lon="1.573846">
        <time>2020-08-22T12:25:17Z</time>
      </trkpt>
      <trkpt lat="42.474720" lon="1.573846">
        <time>2020-08-22T12:25:17Z</time>
      </trkpt>
      <trkpt lat="42.474712" lon="1.573841">
        <time>2020-08-22T12:25:17Z</time>
      </trkpt>
      <trkpt lat="42.474712" lon="1.573841">
        <time>2020-08-22T12:25:17Z</time>
      </trkpt>
      <trkpt lat="42.474705" lon="1.573835">
        <time>2020-08-22T12:25:17Z</time>
      </trkpt>
      <trkpt lat="42.474705" lon="1.573835">
        <time>2020-08-22T12:25:17Z</time>
      </trkpt>
      <trkpt lat="42.474697" lon="1.573830">
        <time>2020-08-22T12:25:26Z</time>
      </trkpt>
      <trkpt lat="42.474697" lon="1.573830">
        <time>2020-08-22T12:25:26Z</time>
      </trkpt>
      <trkpt lat="42.474689" lon="1.573825">
        <time>2020-08-22T12:25:26Z</time>
      </trkpt>
      <trkpt lat="42.474689" lon="1.573825">
        <time>2020-08-22T12:25:26Z</time>
      </trkpt>
      <trkpt lat="42.474682" lon="1.573821">
        <time>2020-08-22T12:25:26Z</time>
      </trkpt>
      <trkpt lat="42.474682" lon="1.573821">
        <time>2020-08-22T12:25:26Z</time>
      </trkpt>
      <trkpt lat="42.474670" lon="1.573816">
        <time>2020-08-22T12:25:26Z</time>
      </trkpt>
      <trkpt lat="42.474670" lon="1.573816">
        <time>2020-08-22T12:25:26Z</time>
      </trkpt>
      <trkpt lat="42.474667" lon="1.573812">
        <time>2020-08-22T12:25:26Z</time>
      </trkpt>
      <trkpt lat="42.474667" lon="1.573812">
        <time>2020-08-22T12:25:26Z</time>
      </trkpt>
      <trkpt lat="42.474659" lon="1.573807">
        <time>2020-08-22T12:25:26Z</time>
      </trkpt>
      <trkpt lat="42.474659" lon="1.573807">
        <time>2020-08-22T12:25:26Z</time>
      </trkpt>
      <trkpt lat="42.474648" lon="1.573802">
        <time>2020-08-22T12:25:26Z</time>
      </trkpt>
      <trkpt lat="42.474648" lon="1.573802">
        <time>2020-08-22T12:25:26Z</time>
      </trkpt>
      <trkpt lat="42.474640" lon="1.573797">
        <time>2020-08-22T12:25:26Z</time>
      </trkpt>
      <trkpt lat="42.474640" lon="1.573797">
        <time>2020-08-22T12:25:26Z</time>
      </trkpt>
      <trkpt lat="42.474628" lon="1.573792">
        <time>2020-08-22T12:25:26Z</time>
      </trkpt>
      <trkpt lat="42.474628" lon="1.573792">
        <time>2020-08-22T12:25:26Z</time>
      </trkpt>
      <trkpt lat="42.474617" lon="1.573788">
        <time>2020-08-22T12:25:26Z</time>
      </trkpt>
      <trkpt lat="42.474617" lon="1.573788">
        <time>2020-08-22T12:25:26Z</time>
      </trkpt>
      <trkpt lat="42.474609" lon="1.573785">
        <time>2020-08-22T12:25:33Z</time>
      </trkpt>
      <trkpt lat="42.474609" lon="1.573785">
        <time>2020-08-22T12:25:33Z</time>
      </trkpt>
      <trkpt lat="42.474602" lon="1.573782">
        <time>2020-08-22T12:25:33Z</time>
      </trkpt>
      <trkpt lat="42.474602" lon="1.573782">
        <time>2020-08-22T12:25:33Z</time>
      </trkpt>
      <trkpt lat="42.474590" lon="1.573781">
        <time>2020-08-22T12:25:33Z</time>
      </trkpt>
      <trkpt lat="42.474590" lon="1.573781">
        <time>2020-08-22T12:25:33Z</time>
      </trkpt>
      <trkpt lat="42.474583" lon="1.573779">
        <time>2020-08-22T12:25:33Z</time>
      </trkpt>
      <trkpt lat="42.474583" lon="1.573779">
        <time>2020-08-22T12:25:33Z</time>
      </trkpt>
      <trkpt lat="42.474571" lon="1.573778">
        <time>2020-08-22T12:25:33Z</time>
      </trkpt>
      <trkpt lat="42.474571" lon="1.573778">
        <time>2020-08-22T12:25:33Z</time>
      </trkpt>
      <trkpt lat="42.474564" lon="1.573777">
        <time>2020-08-22T12:25:33Z</time>
      </trkpt>
      <trkpt lat="42.474564" lon="1.573777">
        <time>2020-08-22T12:25:33Z</time>
      </trkpt>
      <trkpt lat="42.474556" lon="1.573777">
        <time>2020-08-22T12:25:33Z</time>
      </trkpt>
      <trkpt lat="42.474556" lon="1.573777">
        <time>2020-08-22T12:25:33Z</time>
      </trkpt>
      <trkpt lat="42.474548" lon="1.573777">
        <time>2020-08-22T12:25:40Z</time>
      </trkpt>
      <trkpt lat="42.474548" lon="1.573777">
        <time>2020-08-22T12:25:40Z</time>
      </trkpt>
      <trkpt lat="42.474545" lon="1.573775">
        <time>2020-08-22T12:25:40Z</time>
      </trkpt>
      <trkpt lat="42.474545" lon="1.573775">
        <time>2020-08-22T12:25:40Z</time>
      </trkpt>
      <trkpt lat="42.474537" lon="1.573773">
        <time>2020-08-22T12:25:40Z</time>
      </trkpt>
      <trkpt lat="42.474537" lon="1.573773">
        <time>2020-08-22T12:25:40Z</time>
      </trkpt>
      <trkpt lat="42.474533" lon="1.573770">
        <time>2020-08-22T12:25:40Z</time>
      </trkpt>
      <trkpt lat="42.474533" lon="1.573770">
        <time>2020-08-22T12:25:40Z</time>
      </trkpt>
      <trkpt lat="42.474529" lon="1.573766">
        <time>2020-08-22T12:25:40Z</time>
      </trkpt>
      <trkpt lat="42.474529" lon="1.573766">
        <time>2020-08-22T12:25:40Z</time>
      </trkpt>
      <trkpt lat="42.474522" lon="1.573760">
        <time>2020-08-22T12:25:40Z</time>
      </trkpt>
      <trkpt lat="42.474522" lon="1.573760">
        <time>2020-08-22T12:25:40Z</time>
      </trkpt>
      <trkpt lat="42.474518" lon="1.573754">
        <time>2020-08-22T12:25:40Z</time>
      </trkpt>
      <trkpt lat="42.474518" lon="1.573754">
        <time>2020-08-22T12:25:40Z</time>
      </trkpt>
      <trkpt lat="42.474510" lon="1.573747">
        <time>2020-08-22T12:25:47Z</time>
      </trkpt>
      <trkpt lat="42.474510" lon="1.573747">
        <time>2020-08-22T12:25:47Z</time>
      </trkpt>
      <trkpt lat="42.474506" lon="1.573739">
        <time>2020-08-22T12:25:47Z</time>
      </trkpt>
      <trkpt lat="42.474506" lon="1.573739">
        <time>2020-08-22T12:25:47Z</time>
      </trkpt>
      <trkpt lat="42.474499" lon="1.573730">
        <time>2020-08-22T12:25:47Z</time>
      </trkpt>
      <trkpt lat="42.474499" lon="1.573730">
        <time>2020-08-22T12:25:47Z</time>
      </trkpt>
      <trkpt lat="42.474491" lon="1.573722">
        <time>2020-08-22T12:25:47Z</time>
      </trkpt>
      <trkpt lat="42.474491" lon="1.573722">
        <time>2020-08-22T12:25:47Z</time>
      </trkpt>
      <trkpt lat="42.474411" lon="1.573682">
        <time>2020-08-22T12:25:47Z</time>
      </trkpt>
      <trkpt lat="42.474411" lon="1.573682">
        <time>2020-08-22T12:25:47Z</time>
      </trkpt>
      <trkpt lat="42.474407" lon="1.573681">
        <time>2020-08-22T12:25:54Z</time>
      </trkpt>
      <trkpt lat="42.474407" lon="1.573681">
        <time>2020-08-22T12:25:54Z</time>
      </trkpt>
      <trkpt lat="42.474400" lon="1.573680">
        <time>2020-08-22T12:25:54Z</time>
      </trkpt>
      <trkpt lat="42.474400" lon="1.573680">
        <time>2020-08-22T12:25:54Z</time>
      </trkpt>
      <trkpt lat="42.474392" lon="1.573678">
        <time>2020-08-22T12:25:54Z</time>
      </trkpt>
      <trkpt lat="42.474392" lon="1.573678">
        <time>2020-08-22T12:25:54Z</time>
      </trkpt>
      <trkpt lat="42.474384" lon="1.573677">
        <time>2020-08-22T12:25:54Z</time>
      </trkpt>
      <trkpt lat="42.474384" lon="1.573677">
        <time>2020-08-22T12:25:54Z</time>
      </trkpt>
      <trkpt lat="42.474380" lon="1.573675">
        <time>2020-08-22T12:25:54Z</time>
      </trkpt>
      <trkpt lat="42.474380" lon="1.573675">
        <time>2020-08-22T12:25:54Z</time>
      </trkpt>
      <trkpt lat="42.474369" lon="1.573673">
        <time>2020-08-22T12:25:54Z</time>
      </trkpt>
      <trkpt lat="42.474369" lon="1.573673">
        <time>2020-08-22T12:25:54Z</time>
      </trkpt>
      <trkpt lat="42.474361" lon="1.573672">
        <time>2020-08-22T12:25:54Z</time>
      </trkpt>
      <trkpt lat="42.474361" lon="1.573672">
        <time>2020-08-22T12:25:54Z</time>
      </trkpt>
      <trkpt lat="42.474358" lon="1.573670">
        <time>2020-08-22T12:26:01Z</time>
      </trkpt>
      <trkpt lat="42.474358" lon="1.573670">
        <time>2020-08-22T12:26:01Z</time>
      </trkpt>
      <trkpt lat="42.474354" lon="1.573668">
        <time>2020-08-22T12:26:01Z</time>
      </trkpt>
      <trkpt lat="42.474354" lon="1.573668">
        <time>2020-08-22T12:26:01Z</time>
      </trkpt>
      <trkpt lat="42.474342" lon="1.573666">
        <time>2020-08-22T12:26:01Z</time>
      </trkpt>
      <trkpt lat="42.474342" lon="1.573666">
        <time>2020-08-22T12:26:01Z</time>
      </trkpt>
      <trkpt lat="42.474327" lon="1.573663">
        <time>2020-08-22T12:26:01Z</time>
      </trkpt>
      <trkpt lat="42.474327" lon="1.573663">
        <time>2020-08-22T12:26:01Z</time>
      </trkpt>
      <trkpt lat="42.474316" lon="1.573660">
        <time>2020-08-22T12:26:01Z</time>
      </trkpt>
      <trkpt lat="42.474316" lon="1.573660">
        <time>2020-08-22T12:26:01Z</time>
      </trkpt>
      <trkpt lat="42.474308" lon="1.573657">
        <time>2020-08-22T12:26:01Z</time>
      </trkpt>
      <trkpt lat="42.474308" lon="1.573657">
        <time>2020-08-22T12:26:01Z</time>
      </trkpt>
      <trkpt lat="42.474297" lon="1.573654">
        <time>2020-08-22T12:26:01Z</time>
      </trkpt>
      <trkpt lat="42.474297" lon="1.573654">
        <time>2020-08-22T12:26:01Z</time>
      </trkpt>
      <trkpt lat="42.474285" lon="1.573651">
        <time>2020-08-22T12:26:08Z</time>
      </trkpt>
      <trkpt lat="42.474285" lon="1.573651">
        <time>2020-08-22T12:26:08Z</time>
      </trkpt>
      <trkpt lat="42.474274" lon="1.573649">
        <time>2020-08-22T12:26:08Z</time>
      </trkpt>
      <trkpt lat="42.474274" lon="1.573649">
        <time>2020-08-22T12:26:08Z</time>
      </trkpt>
      <trkpt lat="42.474262" lon="1.573646">
        <time>2020-08-22T12:26:08Z</time>
      </trkpt>
      <trkpt lat="42.474262" lon="1.573646">
        <time>2020-08-22T12:26:08Z</time>
      </trkpt>
      <trkpt lat="42.474255" lon="1.573645">
        <time>2020-08-22T12:26:08Z</time>
      </trkpt>
      <trkpt lat="42.474255" lon="1.573645">
        <time>2020-08-22T12:26:08Z</time>
      </trkpt>
      <trkpt lat="42.474243" lon="1.573643">
        <time>2020-08-22T12:26:08Z</time>
      </trkpt>
      <trkpt lat="42.474243" lon="1.573643">
        <time>2020-08-22T12:26:08Z</time>
      </trkpt>
      <trkpt lat="42.474228" lon="1.573643">
        <time>2020-08-22T12:26:08Z</time>
      </trkpt>
      <trkpt lat="42.474228" lon="1.573643">
        <time>2020-08-22T12:26:08Z</time>
      </trkpt>
      <trkpt lat="42.474220" lon="1.573642">
        <time>2020-08-22T12:26:08Z</time>
      </trkpt>
      <trkpt lat="42.474220" lon="1.573642">
        <time>2020-08-22T12:26:08Z</time>
      </trkpt>
      <trkpt lat="42.474205" lon="1.573641">
        <time>2020-08-22T12:26:08Z</time>
      </trkpt>
      <trkpt lat="42.474205" lon="1.573641">
        <time>2020-08-22T12:26:08Z</time>
      </trkpt>
      <trkpt lat="42.474194" lon="1.573640">
        <time>2020-08-22T12:26:08Z</time>
      </trkpt>
      <trkpt lat="42.474194" lon="1.573640">
        <time>2020-08-22T12:26:08Z</time>
      </trkpt>
      <trkpt lat="42.474182" lon="1.573639">
        <time>2020-08-22T12:26:08Z</time>
      </trkpt>
      <trkpt lat="42.474182" lon="1.573639">
        <time>2020-08-22T12:26:08Z</time>
      </trkpt>
      <trkpt lat="42.474171" lon="1.573639">
        <time>2020-08-22T12:26:08Z</time>
      </trkpt>
      <trkpt lat="42.474171" lon="1.573639">
        <time>2020-08-22T12:26:08Z</time>
      </trkpt>
      <trkpt lat="42.474159" lon="1.573638">
        <time>2020-08-22T12:26:15Z</time>
      </trkpt>
      <trkpt lat="42.474159" lon="1.573638">
        <time>2020-08-22T12:26:15Z</time>
      </trkpt>
      <trkpt lat="42.474148" lon="1.573637">
        <time>2020-08-22T12:26:15Z</time>
      </trkpt>
      <trkpt lat="42.474148" lon="1.573637">
        <time>2020-08-22T12:26:15Z</time>
      </trkpt>
      <trkpt lat="42.474140" lon="1.573636">
        <time>2020-08-22T12:26:15Z</time>
      </trkpt>
      <trkpt lat="42.474140" lon="1.573636">
        <time>2020-08-22T12:26:15Z</time>
      </trkpt>
      <trkpt lat="42.474133" lon="1.573634">
        <time>2020-08-22T12:26:15Z</time>
      </trkpt>
      <trkpt lat="42.474133" lon="1.573634">
        <time>2020-08-22T12:26:15Z</time>
      </trkpt>
      <trkpt lat="42.474125" lon="1.573632">
        <time>2020-08-22T12:26:15Z</time>
      </trkpt>
      <trkpt lat="42.474125" lon="1.573632">
        <time>2020-08-22T12:26:15Z</time>
      </trkpt>
      <trkpt lat="42.474117" lon="1.573629">
        <time>2020-08-22T12:26:15Z</time>
      </trkpt>
      <trkpt lat="42.474117" lon="1.573629">
        <time>2020-08-22T12:26:15Z</time>
      </trkpt>
      <trkpt lat="42.474113" lon="1.573626">
        <time>2020-08-22T12:26:15Z</time>
      </trkpt>
      <trkpt lat="42.474113" lon="1.573626">
        <time>2020-08-22T12:26:15Z</time>
      </trkpt>
      <trkpt lat="42.474106" lon="1.573623">
        <time>2020-08-22T12:26:22Z</time>
      </trkpt>
      <trkpt lat="42.474106" lon="1.573623">
        <time>2020-08-22T12:26:22Z</time>
      </trkpt>
      <trkpt lat="42.474094" lon="1.573622">
        <time>2020-08-22T12:26:22Z</time>
      </trkpt>
      <trkpt lat="42.474094" lon="1.573622">
        <time>2020-08-22T12:26:22Z</time>
      </trkpt>
      <trkpt lat="42.474087" lon="1.573621">
        <time>2020-08-22T12:26:22Z</time>
      </trkpt>
      <trkpt lat="42.474087" lon="1.573621">
        <time>2020-08-22T12:26:22Z</time>
      </trkpt>
      <trkpt lat="42.474079" lon="1.573620">
        <time>2020-08-22T12:26:22Z</time>
      </trkpt>
      <trkpt lat="42.474079" lon="1.573620">
        <time>2020-08-22T12:26:22Z</time>
      </trkpt>
      <trkpt lat="42.474068" lon="1.573620">
        <time>2020-08-22T12:26:22Z</time>
      </trkpt>
      <trkpt lat="42.474068" lon="1.573620">
        <time>2020-08-22T12:26:22Z</time>
      </trkpt>
      <trkpt lat="42.474056" lon="1.573620">
        <time>2020-08-22T12:26:22Z</time>
      </trkpt>
      <trkpt lat="42.474056" lon="1.573620">
        <time>2020-08-22T12:26:22Z</time>
      </trkpt>
      <trkpt lat="42.474041" lon="1.573621">
        <time>2020-08-22T12:26:22Z</time>
      </trkpt>
      <trkpt lat="42.474041" lon="1.573621">
        <time>2020-08-22T12:26:22Z</time>
      </trkpt>
      <trkpt lat="42.474033" lon="1.573622">
        <time>2020-08-22T12:26:29Z</time>
      </trkpt>
      <trkpt lat="42.474033" lon="1.573622">
        <time>2020-08-22T12:26:29Z</time>
      </trkpt>
      <trkpt lat="42.474018" lon="1.573624">
        <time>2020-08-22T12:26:29Z</time>
      </trkpt>
      <trkpt lat="42.474018" lon="1.573624">
        <time>2020-08-22T12:26:29Z</time>
      </trkpt>
      <trkpt lat="42.474007" lon="1.573626">
        <time>2020-08-22T12:26:29Z</time>
      </trkpt>
      <trkpt lat="42.474007" lon="1.573626">
        <time>2020-08-22T12:26:29Z</time>
      </trkpt>
      <trkpt lat="42.473991" lon="1.573629">
        <time>2020-08-22T12:26:29Z</time>
      </trkpt>
      <trkpt lat="42.473991" lon="1.573629">
        <time>2020-08-22T12:26:29Z</time>
      </trkpt>
      <trkpt lat="42.473980" lon="1.573631">
        <time>2020-08-22T12:26:29Z</time>
      </trkpt>
      <trkpt lat="42.473980" lon="1.573631">
        <time>2020-08-22T12:26:29Z</time>
      </trkpt>
      <trkpt lat="42.473965" lon="1.573633">
        <time>2020-08-22T12:26:29Z</time>
      </trkpt>
      <trkpt lat="42.473965" lon="1.573633">
        <time>2020-08-22T12:26:29Z</time>
      </trkpt>
      <trkpt lat="42.473953" lon="1.573636">
        <time>2020-08-22T12:26:29Z</time>
      </trkpt>
      <trkpt lat="42.473953" lon="1.573636">
        <time>2020-08-22T12:26:29Z</time>
      </trkpt>
      <trkpt lat="42.473942" lon="1.573637">
        <time>2020-08-22T12:26:36Z</time>
      </trkpt>
      <trkpt lat="42.473942" lon="1.573637">
        <time>2020-08-22T12:26:36Z</time>
      </trkpt>
      <trkpt lat="42.473927" lon="1.573638">
        <time>2020-08-22T12:26:36Z</time>
      </trkpt>
      <trkpt lat="42.473927" lon="1.573638">
        <time>2020-08-22T12:26:36Z</time>
      </trkpt>
      <trkpt lat="42.473915" lon="1.573639">
        <time>2020-08-22T12:26:36Z</time>
      </trkpt>
      <trkpt lat="42.473915" lon="1.573639">
        <time>2020-08-22T12:26:36Z</time>
      </trkpt>
      <trkpt lat="42.473904" lon="1.573639">
        <time>2020-08-22T12:26:36Z</time>
      </trkpt>
      <trkpt lat="42.473904" lon="1.573639">
        <time>2020-08-22T12:26:36Z</time>
      </trkpt>
      <trkpt lat="42.473892" lon="1.573639">
        <time>2020-08-22T12:26:36Z</time>
      </trkpt>
      <trkpt lat="42.473892" lon="1.573639">
        <time>2020-08-22T12:26:36Z</time>
      </trkpt>
      <trkpt lat="42.473881" lon="1.573639">
        <time>2020-08-22T12:26:36Z</time>
      </trkpt>
      <trkpt lat="42.473881" lon="1.573639">
        <time>2020-08-22T12:26:36Z</time>
      </trkpt>
      <trkpt lat="42.473869" lon="1.573639">
        <time>2020-08-22T12:26:36Z</time>
      </trkpt>
      <trkpt lat="42.473869" lon="1.573639">
        <time>2020-08-22T12:26:36Z</time>
      </trkpt>
      <trkpt lat="42.473858" lon="1.573639">
        <time>2020-08-22T12:26:43Z</time>
      </trkpt>
      <trkpt lat="42.473858" lon="1.573639">
        <time>2020-08-22T12:26:43Z</time>
      </trkpt>
      <trkpt lat="42.473846" lon="1.573638">
        <time>2020-08-22T12:26:43Z</time>
      </trkpt>
      <trkpt lat="42.473846" lon="1.573638">
        <time>2020-08-22T12:26:43Z</time>
      </trkpt>
      <trkpt lat="42.473839" lon="1.573637">
        <time>2020-08-22T12:26:43Z</time>
      </trkpt>
      <trkpt lat="42.473839" lon="1.573637">
        <time>2020-08-22T12:26:43Z</time>
      </trkpt>
      <trkpt lat="42.473831" lon="1.573635">
        <time>2020-08-22T12:26:43Z</time>
      </trkpt>
      <trkpt lat="42.473831" lon="1.573635">
        <time>2020-08-22T12:26:43Z</time>
      </trkpt>
      <trkpt lat="42.473820" lon="1.573634">
        <time>2020-08-22T12:26:43Z</time>
      </trkpt>
      <trkpt lat="42.473820" lon="1.573634">
        <time>2020-08-22T12:26:43Z</time>
      </trkpt>
      <trkpt lat="42.473812" lon="1.573631">
        <time>2020-08-22T12:26:43Z</time>
      </trkpt>
      <trkpt lat="42.473812" lon="1.573631">
        <time>2020-08-22T12:26:43Z</time>
      </trkpt>
      <trkpt lat="42.473804" lon="1.573628">
        <time>2020-08-22T12:26:43Z</time>
      </trkpt>
      <trkpt lat="42.473804" lon="1.573628">
        <time>2020-08-22T12:26:43Z</time>
      </trkpt>
      <trkpt lat="42.473793" lon="1.573624">
        <time>2020-08-22T12:26:50Z</time>
      </trkpt>
      <trkpt lat="42.473793" lon="1.573624">
        <time>2020-08-22T12:26:50Z</time>
      </trkpt>
      <trkpt lat="42.473785" lon="1.573619">
        <time>2020-08-22T12:26:50Z</time>
      </trkpt>
      <trkpt lat="42.473785" lon="1.573619">
        <time>2020-08-22T12:26:50Z</time>
      </trkpt>
      <trkpt lat="42.473778" lon="1.573614">
        <time>2020-08-22T12:26:50Z</time>
      </trkpt>
      <trkpt lat="42.473778" lon="1.573614">
        <time>2020-08-22T12:26:50Z</time>
      </trkpt>
      <trkpt lat="42.473766" lon="1.573609">
        <time>2020-08-22T12:26:50Z</time>
      </trkpt>
      <trkpt lat="42.473766" lon="1.573609">
        <time>2020-08-22T12:26:50Z</time>
      </trkpt>
      <trkpt lat="42.473755" lon="1.573604">
        <time>2020-08-22T12:26:50Z</time>
      </trkpt>
      <trkpt lat="42.473755" lon="1.573604">
        <time>2020-08-22T12:26:50Z</time>
      </trkpt>
      <trkpt lat="42.473747" lon="1.573599">
        <time>2020-08-22T12:26:50Z</time>
      </trkpt>
      <trkpt lat="42.473747" lon="1.573599">
        <time>2020-08-22T12:26:50Z</time>
      </trkpt>
      <trkpt lat="42.473736" lon="1.573594">
        <time>2020-08-22T12:26:50Z</time>
      </trkpt>
      <trkpt lat="42.473736" lon="1.573594">
        <time>2020-08-22T12:26:50Z</time>
      </trkpt>
      <trkpt lat="42.473724" lon="1.573590">
        <time>2020-08-22T12:26:57Z</time>
      </trkpt>
      <trkpt lat="42.473724" lon="1.573590">
        <time>2020-08-22T12:26:57Z</time>
      </trkpt>
      <trkpt lat="42.473713" lon="1.573586">
        <time>2020-08-22T12:26:57Z</time>
      </trkpt>
      <trkpt lat="42.473713" lon="1.573586">
        <time>2020-08-22T12:26:57Z</time>
      </trkpt>
      <trkpt lat="42.473705" lon="1.573584">
        <time>2020-08-22T12:26:57Z</time>
      </trkpt>
      <trkpt lat="42.473705" lon="1.573584">
        <time>2020-08-22T12:26:57Z</time>
      </trkpt>
      <trkpt lat="42.473694" lon="1.573583">
        <time>2020-08-22T12:26:57Z</time>
      </trkpt>
      <trkpt lat="42.473694" lon="1.573583">
        <time>2020-08-22T12:26:57Z</time>
      </trkpt>
      <trkpt lat="42.473679" lon="1.573583">
        <time>2020-08-22T12:26:57Z</time>
      </trkpt>
      <trkpt lat="42.473679" lon="1.573583">
        <time>2020-08-22T12:26:57Z</time>
      </trkpt>
      <trkpt lat="42.473671" lon="1.573583">
        <time>2020-08-22T12:26:57Z</time>
      </trkpt>
      <trkpt lat="42.473671" lon="1.573583">
        <time>2020-08-22T12:26:57Z</time>
      </trkpt>
      <trkpt lat="42.473660" lon="1.573583">
        <time>2020-08-22T12:26:57Z</time>
      </trkpt>
      <trkpt lat="42.473660" lon="1.573583">
        <time>2020-08-22T12:26:57Z</time>
      </trkpt>
      <trkpt lat="42.473648" lon="1.573583">
        <time>2020-08-22T12:27:05Z</time>
      </trkpt>
      <trkpt lat="42.473648" lon="1.573583">
        <time>2020-08-22T12:27:05Z</time>
      </trkpt>
      <trkpt lat="42.473637" lon="1.573583">
        <time>2020-08-22T12:27:05Z</time>
      </trkpt>
      <trkpt lat="42.473637" lon="1.573583">
        <time>2020-08-22T12:27:05Z</time>
      </trkpt>
      <trkpt lat="42.473625" lon="1.573582">
        <time>2020-08-22T12:27:05Z</time>
      </trkpt>
      <trkpt lat="42.473625" lon="1.573582">
        <time>2020-08-22T12:27:05Z</time>
      </trkpt>
      <trkpt lat="42.473618" lon="1.573582">
        <time>2020-08-22T12:27:05Z</time>
      </trkpt>
      <trkpt lat="42.473618" lon="1.573582">
        <time>2020-08-22T12:27:05Z</time>
      </trkpt>
      <trkpt lat="42.473606" lon="1.573580">
        <time>2020-08-22T12:27:05Z</time>
      </trkpt>
      <trkpt lat="42.473606" lon="1.573580">
        <time>2020-08-22T12:27:05Z</time>
      </trkpt>
      <trkpt lat="42.473598" lon="1.573578">
        <time>2020-08-22T12:27:05Z</time>
      </trkpt>
      <trkpt lat="42.473598" lon="1.573578">
        <time>2020-08-22T12:27:05Z</time>
      </trkpt>
      <trkpt lat="42.473587" lon="1.573574">
        <time>2020-08-22T12:27:12Z</time>
      </trkpt>
      <trkpt lat="42.473587" lon="1.573574">
        <time>2020-08-22T12:27:12Z</time>
      </trkpt>
      <trkpt lat="42.473576" lon="1.573571">
        <time>2020-08-22T12:27:12Z</time>
      </trkpt>
      <trkpt lat="42.473576" lon="1.573571">
        <time>2020-08-22T12:27:12Z</time>
      </trkpt>
      <trkpt lat="42.473564" lon="1.573569">
        <time>2020-08-22T12:27:12Z</time>
      </trkpt>
      <trkpt lat="42.473564" lon="1.573569">
        <time>2020-08-22T12:27:12Z</time>
      </trkpt>
      <trkpt lat="42.473553" lon="1.573566">
        <time>2020-08-22T12:27:12Z</time>
      </trkpt>
      <trkpt lat="42.473553" lon="1.573566">
        <time>2020-08-22T12:27:12Z</time>
      </trkpt>
      <trkpt lat="42.473541" lon="1.573565">
        <time>2020-08-22T12:27:12Z</time>
      </trkpt>
      <trkpt lat="42.473541" lon="1.573565">
        <time>2020-08-22T12:27:12Z</time>
      </trkpt>
      <trkpt lat="42.473530" lon="1.573563">
        <time>2020-08-22T12:27:12Z</time>
      </trkpt>
      <trkpt lat="42.473530" lon="1.573563">
        <time>2020-08-22T12:27:12Z</time>
      </trkpt>
      <trkpt lat="42.473518" lon="1.573562">
        <time>2020-08-22T12:27:12Z</time>
      </trkpt>
      <trkpt lat="42.473518" lon="1.573562">
        <time>2020-08-22T12:27:12Z</time>
      </trkpt>
      <trkpt lat="42.473507" lon="1.573561">
        <time>2020-08-22T12:27:19Z</time>
      </trkpt>
      <trkpt lat="42.473507" lon="1.573561">
        <time>2020-08-22T12:27:19Z</time>
      </trkpt>
      <trkpt lat="42.473492" lon="1.573559">
        <time>2020-08-22T12:27:19Z</time>
      </trkpt>
      <trkpt lat="42.473492" lon="1.573559">
        <time>2020-08-22T12:27:19Z</time>
      </trkpt>
      <trkpt lat="42.473480" lon="1.573558">
        <time>2020-08-22T12:27:19Z</time>
      </trkpt>
      <trkpt lat="42.473480" lon="1.573558">
        <time>2020-08-22T12:27:19Z</time>
      </trkpt>
      <trkpt lat="42.473465" lon="1.573555">
        <time>2020-08-22T12:27:19Z</time>
      </trkpt>
      <trkpt lat="42.473465" lon="1.573555">
        <time>2020-08-22T12:27:19Z</time>
      </trkpt>
      <trkpt lat="42.473454" lon="1.573552">
        <time>2020-08-22T12:27:19Z</time>
      </trkpt>
      <trkpt lat="42.473454" lon="1.573552">
        <time>2020-08-22T12:27:19Z</time>
      </trkpt>
      <trkpt lat="42.473442" lon="1.573548">
        <time>2020-08-22T12:27:19Z</time>
      </trkpt>
      <trkpt lat="42.473442" lon="1.573548">
        <time>2020-08-22T12:27:19Z</time>
      </trkpt>
      <trkpt lat="42.473431" lon="1.573542">
        <time>2020-08-22T12:27:19Z</time>
      </trkpt>
      <trkpt lat="42.473431" lon="1.573542">
        <time>2020-08-22T12:27:19Z</time>
      </trkpt>
      <trkpt lat="42.473415" lon="1.573536">
        <time>2020-08-22T12:27:26Z</time>
      </trkpt>
      <trkpt lat="42.473415" lon="1.573536">
        <time>2020-08-22T12:27:26Z</time>
      </trkpt>
      <trkpt lat="42.473404" lon="1.573531">
        <time>2020-08-22T12:27:26Z</time>
      </trkpt>
      <trkpt lat="42.473404" lon="1.573531">
        <time>2020-08-22T12:27:26Z</time>
      </trkpt>
      <trkpt lat="42.473389" lon="1.573525">
        <time>2020-08-22T12:27:26Z</time>
      </trkpt>
      <trkpt lat="42.473389" lon="1.573525">
        <time>2020-08-22T12:27:26Z</time>
      </trkpt>
      <trkpt lat="42.473377" lon="1.573520">
        <time>2020-08-22T12:27:26Z</time>
      </trkpt>
      <trkpt lat="42.473377" lon="1.573520">
        <time>2020-08-22T12:27:26Z</time>
      </trkpt>
      <trkpt lat="42.473362" lon="1.573515">
        <time>2020-08-22T12:27:26Z</time>
      </trkpt>
      <trkpt lat="42.473362" lon="1.573515">
        <time>2020-08-22T12:27:26Z</time>
      </trkpt>
      <trkpt lat="42.473347" lon="1.573510">
        <time>2020-08-22T12:27:26Z</time>
      </trkpt>
      <trkpt lat="42.473347" lon="1.573510">
        <time>2020-08-22T12:27:26Z</time>
      </trkpt>
      <trkpt lat="42.473331" lon="1.573506">
        <time>2020-08-22T12:27:26Z</time>
      </trkpt>
      <trkpt lat="42.473331" lon="1.573506">
        <time>2020-08-22T12:27:26Z</time>
      </trkpt>
      <trkpt lat="42.473320" lon="1.573502">
        <time>2020-08-22T12:27:34Z</time>
      </trkpt>
      <trkpt lat="42.473320" lon="1.573502">
        <time>2020-08-22T12:27:34Z</time>
      </trkpt>
      <trkpt lat="42.473309" lon="1.573498">
        <time>2020-08-22T12:27:34Z</time>
      </trkpt>
      <trkpt lat="42.473309" lon="1.573498">
        <time>2020-08-22T12:27:34Z</time>
      </trkpt>
      <trkpt lat="42.473293" lon="1.573494">
        <time>2020-08-22T12:27:34Z</time>
      </trkpt>
      <trkpt lat="42.473293" lon="1.573494">
        <time>2020-08-22T12:27:34Z</time>
      </trkpt>
      <trkpt lat="42.473282" lon="1.573490">
        <time>2020-08-22T12:27:34Z</time>
      </trkpt>
      <trkpt lat="42.473282" lon="1.573490">
        <time>2020-08-22T12:27:34Z</time>
      </trkpt>
      <trkpt lat="42.473270" lon="1.573485">
        <time>2020-08-22T12:27:34Z</time>
      </trkpt>
      <trkpt lat="42.473270" lon="1.573485">
        <time>2020-08-22T12:27:34Z</time>
      </trkpt>
      <trkpt lat="42.473263" lon="1.573481">
        <time>2020-08-22T12:27:34Z</time>
      </trkpt>
      <trkpt lat="42.473263" lon="1.573481">
        <time>2020-08-22T12:27:34Z</time>
      </trkpt>
      <trkpt lat="42.473251" lon="1.573475">
        <time>2020-08-22T12:27:34Z</time>
      </trkpt>
      <trkpt lat="42.473251" lon="1.573475">
        <time>2020-08-22T12:27:34Z</time>
      </trkpt>
      <trkpt lat="42.473240" lon="1.573470">
        <time>2020-08-22T12:27:34Z</time>
      </trkpt>
      <trkpt lat="42.473240" lon="1.573470">
        <time>2020-08-22T12:27:34Z</time>
      </trkpt>
      <trkpt lat="42.473228" lon="1.573466">
        <time>2020-08-22T12:27:34Z</time>
      </trkpt>
      <trkpt lat="42.473228" lon="1.573466">
        <time>2020-08-22T12:27:34Z</time>
      </trkpt>
      <trkpt lat="42.473221" lon="1.573462">
        <time>2020-08-22T12:27:34Z</time>
      </trkpt>
      <trkpt lat="42.473221" lon="1.573462">
        <time>2020-08-22T12:27:34Z</time>
      </trkpt>
      <trkpt lat="42.473213" lon="1.573458">
        <time>2020-08-22T12:27:34Z</time>
      </trkpt>
      <trkpt lat="42.473213" lon="1.573458">
        <time>2020-08-22T12:27:34Z</time>
      </trkpt>
      <trkpt lat="42.473202" lon="1.573454">
        <time>2020-08-22T12:27:34Z</time>
      </trkpt>
      <trkpt lat="42.473202" lon="1.573454">
        <time>2020-08-22T12:27:34Z</time>
      </trkpt>
      <trkpt lat="42.473194" lon="1.573450">
        <time>2020-08-22T12:27:34Z</time>
      </trkpt>
      <trkpt lat="42.473194" lon="1.573450">
        <time>2020-08-22T12:27:34Z</time>
      </trkpt>
      <trkpt lat="42.473183" lon="1.573445">
        <time>2020-08-22T12:27:41Z</time>
      </trkpt>
      <trkpt lat="42.473183" lon="1.573445">
        <time>2020-08-22T12:27:41Z</time>
      </trkpt>
      <trkpt lat="42.473175" lon="1.573439">
        <time>2020-08-22T12:27:41Z</time>
      </trkpt>
      <trkpt lat="42.473175" lon="1.573439">
        <time>2020-08-22T12:27:41Z</time>
      </trkpt>
      <trkpt lat="42.473164" lon="1.573434">
        <time>2020-08-22T12:27:41Z</time>
      </trkpt>
      <trkpt lat="42.473164" lon="1.573434">
        <time>2020-08-22T12:27:41Z</time>
      </trkpt>
      <trkpt lat="42.473152" lon="1.573428">
        <time>2020-08-22T12:27:41Z</time>
      </trkpt>
      <trkpt lat="42.473152" lon="1.573428">
        <time>2020-08-22T12:27:41Z</time>
      </trkpt>
      <trkpt lat="42.473145" lon="1.573422">
        <time>2020-08-22T12:27:41Z</time>
      </trkpt>
      <trkpt lat="42.473145" lon="1.573422">
        <time>2020-08-22T12:27:41Z</time>
      </trkpt>
      <trkpt lat="42.473133" lon="1.573415">
        <time>2020-08-22T12:27:41Z</time>
      </trkpt>
      <trkpt lat="42.473133" lon="1.573415">
        <time>2020-08-22T12:27:41Z</time>
      </trkpt>
      <trkpt lat="42.473122" lon="1.573408">
        <time>2020-08-22T12:27:41Z</time>
      </trkpt>
      <trkpt lat="42.473122" lon="1.573408">
        <time>2020-08-22T12:27:41Z</time>
      </trkpt>
      <trkpt lat="42.473110" lon="1.573400">
        <time>2020-08-22T12:27:48Z</time>
      </trkpt>
      <trkpt lat="42.473110" lon="1.573400">
        <time>2020-08-22T12:27:48Z</time>
      </trkpt>
      <trkpt lat="42.473099" lon="1.573391">
        <time>2020-08-22T12:27:48Z</time>
      </trkpt>
      <trkpt lat="42.473099" lon="1.573391">
        <time>2020-08-22T12:27:48Z</time>
      </trkpt>
      <trkpt lat="42.473087" lon="1.573383">
        <time>2020-08-22T12:27:48Z</time>
      </trkpt>
      <trkpt lat="42.473087" lon="1.573383">
        <time>2020-08-22T12:27:48Z</time>
      </trkpt>
      <trkpt lat="42.473076" lon="1.573375">
        <time>2020-08-22T12:27:48Z</time>
      </trkpt>
      <trkpt lat="42.473076" lon="1.573375">
        <time>2020-08-22T12:27:48Z</time>
      </trkpt>
      <trkpt lat="42.473061" lon="1.573367">
        <time>2020-08-22T12:27:48Z</time>
      </trkpt>
      <trkpt lat="42.473061" lon="1.573367">
        <time>2020-08-22T12:27:48Z</time>
      </trkpt>
      <trkpt lat="42.473049" lon="1.573358">
        <time>2020-08-22T12:27:48Z</time>
      </trkpt>
      <trkpt lat="42.473049" lon="1.573358">
        <time>2020-08-22T12:27:48Z</time>
      </trkpt>
      <trkpt lat="42.473038" lon="1.573350">
        <time>2020-08-22T12:27:48Z</time>
      </trkpt>
      <trkpt lat="42.473038" lon="1.573350">
        <time>2020-08-22T12:27:48Z</time>
      </trkpt>
      <trkpt lat="42.473022" lon="1.573342">
        <time>2020-08-22T12:27:55Z</time>
      </trkpt>
      <trkpt lat="42.473022" lon="1.573342">
        <time>2020-08-22T12:27:55Z</time>
      </trkpt>
      <trkpt lat="42.473011" lon="1.573334">
        <time>2020-08-22T12:27:55Z</time>
      </trkpt>
      <trkpt lat="42.473011" lon="1.573334">
        <time>2020-08-22T12:27:55Z</time>
      </trkpt>
      <trkpt lat="42.472996" lon="1.573326">
        <time>2020-08-22T12:27:55Z</time>
      </trkpt>
      <trkpt lat="42.472996" lon="1.573326">
        <time>2020-08-22T12:27:55Z</time>
      </trkpt>
      <trkpt lat="42.472988" lon="1.573319">
        <time>2020-08-22T12:27:55Z</time>
      </trkpt>
      <trkpt lat="42.472988" lon="1.573319">
        <time>2020-08-22T12:27:55Z</time>
      </trkpt>
      <trkpt lat="42.472977" lon="1.573312">
        <time>2020-08-22T12:27:55Z</time>
      </trkpt>
      <trkpt lat="42.472977" lon="1.573312">
        <time>2020-08-22T12:27:55Z</time>
      </trkpt>
      <trkpt lat="42.472965" lon="1.573306">
        <time>2020-08-22T12:27:55Z</time>
      </trkpt>
      <trkpt lat="42.472965" lon="1.573306">
        <time>2020-08-22T12:27:55Z</time>
      </trkpt>
      <trkpt lat="42.472954" lon="1.573300">
        <time>2020-08-22T12:27:55Z</time>
      </trkpt>
      <trkpt lat="42.472954" lon="1.573300">
        <time>2020-08-22T12:27:55Z</time>
      </trkpt>
      <trkpt lat="42.472942" lon="1.573295">
        <time>2020-08-22T12:28:04Z</time>
      </trkpt>
      <trkpt lat="42.472942" lon="1.573295">
        <time>2020-08-22T12:28:04Z</time>
      </trkpt>
      <trkpt lat="42.472935" lon="1.573291">
        <time>2020-08-22T12:28:04Z</time>
      </trkpt>
      <trkpt lat="42.472935" lon="1.573291">
        <time>2020-08-22T12:28:04Z</time>
      </trkpt>
      <trkpt lat="42.472927" lon="1.573288">
        <time>2020-08-22T12:28:04Z</time>
      </trkpt>
      <trkpt lat="42.472927" lon="1.573288">
        <time>2020-08-22T12:28:04Z</time>
      </trkpt>
      <trkpt lat="42.472916" lon="1.573285">
        <time>2020-08-22T12:28:04Z</time>
      </trkpt>
      <trkpt lat="42.472916" lon="1.573285">
        <time>2020-08-22T12:28:04Z</time>
      </trkpt>
      <trkpt lat="42.472904" lon="1.573284">
        <time>2020-08-22T12:28:04Z</time>
      </trkpt>
      <trkpt lat="42.472904" lon="1.573284">
        <time>2020-08-22T12:28:04Z</time>
      </trkpt>
      <trkpt lat="42.472893" lon="1.573284">
        <time>2020-08-22T12:28:04Z</time>
      </trkpt>
      <trkpt lat="42.472893" lon="1.573284">
        <time>2020-08-22T12:28:04Z</time>
      </trkpt>
      <trkpt lat="42.472881" lon="1.573285">
        <time>2020-08-22T12:28:11Z</time>
      </trkpt>
      <trkpt lat="42.472881" lon="1.573285">
        <time>2020-08-22T12:28:11Z</time>
      </trkpt>
      <trkpt lat="42.472870" lon="1.573286">
        <time>2020-08-22T12:28:11Z</time>
      </trkpt>
      <trkpt lat="42.472870" lon="1.573286">
        <time>2020-08-22T12:28:11Z</time>
      </trkpt>
      <trkpt lat="42.472858" lon="1.573288">
        <time>2020-08-22T12:28:11Z</time>
      </trkpt>
      <trkpt lat="42.472858" lon="1.573288">
        <time>2020-08-22T12:28:11Z</time>
      </trkpt>
      <trkpt lat="42.472847" lon="1.573289">
        <time>2020-08-22T12:28:11Z</time>
      </trkpt>
      <trkpt lat="42.472847" lon="1.573289">
        <time>2020-08-22T12:28:11Z</time>
      </trkpt>
      <trkpt lat="42.472832" lon="1.573290">
        <time>2020-08-22T12:28:11Z</time>
      </trkpt>
      <trkpt lat="42.472832" lon="1.573290">
        <time>2020-08-22T12:28:11Z</time>
      </trkpt>
      <trkpt lat="42.472820" lon="1.573289">
        <time>2020-08-22T12:28:11Z</time>
      </trkpt>
      <trkpt lat="42.472820" lon="1.573289">
        <time>2020-08-22T12:28:11Z</time>
      </trkpt>
      <trkpt lat="42.472809" lon="1.573288">
        <time>2020-08-22T12:28:11Z</time>
      </trkpt>
      <trkpt lat="42.472809" lon="1.573288">
        <time>2020-08-22T12:28:11Z</time>
      </trkpt>
      <trkpt lat="42.472797" lon="1.573285">
        <time>2020-08-22T12:28:18Z</time>
      </trkpt>
      <trkpt lat="42.472797" lon="1.573285">
        <time>2020-08-22T12:28:18Z</time>
      </trkpt>
      <trkpt lat="42.472786" lon="1.573281">
        <time>2020-08-22T12:28:18Z</time>
      </trkpt>
      <trkpt lat="42.472786" lon="1.573281">
        <time>2020-08-22T12:28:18Z</time>
      </trkpt>
      <trkpt lat="42.472774" lon="1.573274">
        <time>2020-08-22T12:28:18Z</time>
      </trkpt>
      <trkpt lat="42.472774" lon="1.573274">
        <time>2020-08-22T12:28:18Z</time>
      </trkpt>
      <trkpt lat="42.472767" lon="1.573266">
        <time>2020-08-22T12:28:18Z</time>
      </trkpt>
      <trkpt lat="42.472767" lon="1.573266">
        <time>2020-08-22T12:28:18Z</time>
      </trkpt>
      <trkpt lat="42.472759" lon="1.573257">
        <time>2020-08-22T12:28:18Z</time>
      </trkpt>
      <trkpt lat="42.472759" lon="1.573257">
        <time>2020-08-22T12:28:18Z</time>
      </trkpt>
      <trkpt lat="42.472752" lon="1.573247">
        <time>2020-08-22T12:28:18Z</time>
      </trkpt>
      <trkpt lat="42.472752" lon="1.573247">
        <time>2020-08-22T12:28:18Z</time>
      </trkpt>
      <trkpt lat="42.472744" lon="1.573236">
        <time>2020-08-22T12:28:18Z</time>
      </trkpt>
      <trkpt lat="42.472744" lon="1.573236">
        <time>2020-08-22T12:28:18Z</time>
      </trkpt>
      <trkpt lat="42.472736" lon="1.573225">
        <time>2020-08-22T12:28:25Z</time>
      </trkpt>
      <trkpt lat="42.472736" lon="1.573225">
        <time>2020-08-22T12:28:25Z</time>
      </trkpt>
      <trkpt lat="42.472733" lon="1.573214">
        <time>2020-08-22T12:28:25Z</time>
      </trkpt>
      <trkpt lat="42.472733" lon="1.573214">
        <time>2020-08-22T12:28:25Z</time>
      </trkpt>
      <trkpt lat="42.472721" lon="1.573203">
        <time>2020-08-22T12:28:25Z</time>
      </trkpt>
      <trkpt lat="42.472721" lon="1.573203">
        <time>2020-08-22T12:28:25Z</time>
      </trkpt>
      <trkpt lat="42.472717" lon="1.573192">
        <time>2020-08-22T12:28:25Z</time>
      </trkpt>
      <trkpt lat="42.472717" lon="1.573192">
        <time>2020-08-22T12:28:25Z</time>
      </trkpt>
      <trkpt lat="42.472713" lon="1.573182">
        <time>2020-08-22T12:28:25Z</time>
      </trkpt>
      <trkpt lat="42.472713" lon="1.573182">
        <time>2020-08-22T12:28:25Z</time>
      </trkpt>
      <trkpt lat="42.472706" lon="1.573173">
        <time>2020-08-22T12:28:25Z</time>
      </trkpt>
      <trkpt lat="42.472706" lon="1.573173">
        <time>2020-08-22T12:28:25Z</time>
      </trkpt>
      <trkpt lat="42.472698" lon="1.573165">
        <time>2020-08-22T12:28:25Z</time>
      </trkpt>
      <trkpt lat="42.472698" lon="1.573165">
        <time>2020-08-22T12:28:25Z</time>
      </trkpt>
      <trkpt lat="42.472694" lon="1.573157">
        <time>2020-08-22T12:28:32Z</time>
      </trkpt>
      <trkpt lat="42.472694" lon="1.573157">
        <time>2020-08-22T12:28:32Z</time>
      </trkpt>
      <trkpt lat="42.472687" lon="1.573151">
        <time>2020-08-22T12:28:32Z</time>
      </trkpt>
      <trkpt lat="42.472687" lon="1.573151">
        <time>2020-08-22T12:28:32Z</time>
      </trkpt>
      <trkpt lat="42.472683" lon="1.573144">
        <time>2020-08-22T12:28:32Z</time>
      </trkpt>
      <trkpt lat="42.472683" lon="1.573144">
        <time>2020-08-22T12:28:32Z</time>
      </trkpt>
      <trkpt lat="42.472679" lon="1.573138">
        <time>2020-08-22T12:28:32Z</time>
      </trkpt>
      <trkpt lat="42.472679" lon="1.573138">
        <time>2020-08-22T12:28:32Z</time>
      </trkpt>
      <trkpt lat="42.472671" lon="1.573132">
        <time>2020-08-22T12:28:32Z</time>
      </trkpt>
      <trkpt lat="42.472671" lon="1.573132">
        <time>2020-08-22T12:28:32Z</time>
      </trkpt>
      <trkpt lat="42.472664" lon="1.573125">
        <time>2020-08-22T12:28:32Z</time>
      </trkpt>
      <trkpt lat="42.472664" lon="1.573125">
        <time>2020-08-22T12:28:32Z</time>
      </trkpt>
      <trkpt lat="42.472656" lon="1.573116">
        <time>2020-08-22T12:28:32Z</time>
      </trkpt>
      <trkpt lat="42.472656" lon="1.573116">
        <time>2020-08-22T12:28:32Z</time>
      </trkpt>
      <trkpt lat="42.472652" lon="1.573107">
        <time>2020-08-22T12:28:39Z</time>
      </trkpt>
      <trkpt lat="42.472652" lon="1.573107">
        <time>2020-08-22T12:28:39Z</time>
      </trkpt>
      <trkpt lat="42.472641" lon="1.573098">
        <time>2020-08-22T12:28:39Z</time>
      </trkpt>
      <trkpt lat="42.472641" lon="1.573098">
        <time>2020-08-22T12:28:39Z</time>
      </trkpt>
      <trkpt lat="42.472633" lon="1.573088">
        <time>2020-08-22T12:28:39Z</time>
      </trkpt>
      <trkpt lat="42.472633" lon="1.573088">
        <time>2020-08-22T12:28:39Z</time>
      </trkpt>
      <trkpt lat="42.472626" lon="1.573079">
        <time>2020-08-22T12:28:39Z</time>
      </trkpt>
      <trkpt lat="42.472626" lon="1.573079">
        <time>2020-08-22T12:28:39Z</time>
      </trkpt>
      <trkpt lat="42.472614" lon="1.573068">
        <time>2020-08-22T12:28:39Z</time>
      </trkpt>
      <trkpt lat="42.472614" lon="1.573068">
        <time>2020-08-22T12:28:39Z</time>
      </trkpt>
      <trkpt lat="42.472607" lon="1.573058">
        <time>2020-08-22T12:28:39Z</time>
      </trkpt>
      <trkpt lat="42.472607" lon="1.573058">
        <time>2020-08-22T12:28:39Z</time>
      </trkpt>
      <trkpt lat="42.472595" lon="1.573048">
        <time>2020-08-22T12:28:39Z</time>
      </trkpt>
      <trkpt lat="42.472595" lon="1.573048">
        <time>2020-08-22T12:28:39Z</time>
      </trkpt>
      <trkpt lat="42.472588" lon="1.573038">
        <time>2020-08-22T12:28:46Z</time>
      </trkpt>
      <trkpt lat="42.472588" lon="1.573038">
        <time>2020-08-22T12:28:46Z</time>
      </trkpt>
      <trkpt lat="42.472576" lon="1.573028">
        <time>2020-08-22T12:28:46Z</time>
      </trkpt>
      <trkpt lat="42.472576" lon="1.573028">
        <time>2020-08-22T12:28:46Z</time>
      </trkpt>
      <trkpt lat="42.472565" lon="1.573019">
        <time>2020-08-22T12:28:46Z</time>
      </trkpt>
      <trkpt lat="42.472565" lon="1.573019">
        <time>2020-08-22T12:28:46Z</time>
      </trkpt>
      <trkpt lat="42.472557" lon="1.573009">
        <time>2020-08-22T12:28:46Z</time>
      </trkpt>
      <trkpt lat="42.472557" lon="1.573009">
        <time>2020-08-22T12:28:46Z</time>
      </trkpt>
      <trkpt lat="42.472546" lon="1.572999">
        <time>2020-08-22T12:28:46Z</time>
      </trkpt>
      <trkpt lat="42.472546" lon="1.572999">
        <time>2020-08-22T12:28:46Z</time>
      </trkpt>
      <trkpt lat="42.472534" lon="1.572989">
        <time>2020-08-22T12:28:46Z</time>
      </trkpt>
      <trkpt lat="42.472534" lon="1.572989">
        <time>2020-08-22T12:28:46Z</time>
      </trkpt>
      <trkpt lat="42.472527" lon="1.572979">
        <time>2020-08-22T12:28:46Z</time>
      </trkpt>
      <trkpt lat="42.472527" lon="1.572979">
        <time>2020-08-22T12:28:46Z</time>
      </trkpt>
      <trkpt lat="42.472519" lon="1.572969">
        <time>2020-08-22T12:28:53Z</time>
      </trkpt>
      <trkpt lat="42.472519" lon="1.572969">
        <time>2020-08-22T12:28:53Z</time>
      </trkpt>
      <trkpt lat="42.472507" lon="1.572958">
        <time>2020-08-22T12:28:53Z</time>
      </trkpt>
      <trkpt lat="42.472507" lon="1.572958">
        <time>2020-08-22T12:28:53Z</time>
      </trkpt>
      <trkpt lat="42.472500" lon="1.572948">
        <time>2020-08-22T12:28:53Z</time>
      </trkpt>
      <trkpt lat="42.472500" lon="1.572948">
        <time>2020-08-22T12:28:53Z</time>
      </trkpt>
      <trkpt lat="42.472488" lon="1.572938">
        <time>2020-08-22T12:28:53Z</time>
      </trkpt>
      <trkpt lat="42.472488" lon="1.572938">
        <time>2020-08-22T12:28:53Z</time>
      </trkpt>
      <trkpt lat="42.472481" lon="1.572929">
        <time>2020-08-22T12:28:53Z</time>
      </trkpt>
      <trkpt lat="42.472481" lon="1.572929">
        <time>2020-08-22T12:28:53Z</time>
      </trkpt>
      <trkpt lat="42.472469" lon="1.572920">
        <time>2020-08-22T12:28:53Z</time>
      </trkpt>
      <trkpt lat="42.472469" lon="1.572920">
        <time>2020-08-22T12:28:53Z</time>
      </trkpt>
      <trkpt lat="42.472458" lon="1.572912">
        <time>2020-08-22T12:28:53Z</time>
      </trkpt>
      <trkpt lat="42.472458" lon="1.572912">
        <time>2020-08-22T12:28:53Z</time>
      </trkpt>
      <trkpt lat="42.472450" lon="1.572904">
        <time>2020-08-22T12:29:00Z</time>
      </trkpt>
      <trkpt lat="42.472450" lon="1.572904">
        <time>2020-08-22T12:29:00Z</time>
      </trkpt>
      <trkpt lat="42.472439" lon="1.572896">
        <time>2020-08-22T12:29:00Z</time>
      </trkpt>
      <trkpt lat="42.472439" lon="1.572896">
        <time>2020-08-22T12:29:00Z</time>
      </trkpt>
      <trkpt lat="42.472431" lon="1.572888">
        <time>2020-08-22T12:29:00Z</time>
      </trkpt>
      <trkpt lat="42.472431" lon="1.572888">
        <time>2020-08-22T12:29:00Z</time>
      </trkpt>
      <trkpt lat="42.472420" lon="1.572879">
        <time>2020-08-22T12:29:00Z</time>
      </trkpt>
      <trkpt lat="42.472420" lon="1.572879">
        <time>2020-08-22T12:29:00Z</time>
      </trkpt>
      <trkpt lat="42.472412" lon="1.572870">
        <time>2020-08-22T12:29:00Z</time>
      </trkpt>
      <trkpt lat="42.472412" lon="1.572870">
        <time>2020-08-22T12:29:00Z</time>
      </trkpt>
      <trkpt lat="42.472401" lon="1.572861">
        <time>2020-08-22T12:29:00Z</time>
      </trkpt>
      <trkpt lat="42.472401" lon="1.572861">
        <time>2020-08-22T12:29:00Z</time>
      </trkpt>
      <trkpt lat="42.472393" lon="1.572851">
        <time>2020-08-22T12:29:00Z</time>
      </trkpt>
      <trkpt lat="42.472393" lon="1.572851">
        <time>2020-08-22T12:29:00Z</time>
      </trkpt>
      <trkpt lat="42.472382" lon="1.572841">
        <time>2020-08-22T12:29:07Z</time>
      </trkpt>
      <trkpt lat="42.472382" lon="1.572841">
        <time>2020-08-22T12:29:07Z</time>
      </trkpt>
      <trkpt lat="42.472374" lon="1.572830">
        <time>2020-08-22T12:29:07Z</time>
      </trkpt>
      <trkpt lat="42.472374" lon="1.572830">
        <time>2020-08-22T12:29:07Z</time>
      </trkpt>
      <trkpt lat="42.472363" lon="1.572819">
        <time>2020-08-22T12:29:07Z</time>
      </trkpt>
      <trkpt lat="42.472363" lon="1.572819">
        <time>2020-08-22T12:29:07Z</time>
      </trkpt>
      <trkpt lat="42.472355" lon="1.572808">
        <time>2020-08-22T12:29:07Z</time>
      </trkpt>
      <trkpt lat="42.472355" lon="1.572808">
        <time>2020-08-22T12:29:07Z</time>
      </trkpt>
      <trkpt lat="42.472347" lon="1.572797">
        <time>2020-08-22T12:29:07Z</time>
      </trkpt>
      <trkpt lat="42.472347" lon="1.572797">
        <time>2020-08-22T12:29:07Z</time>
      </trkpt>
      <trkpt lat="42.472336" lon="1.572787">
        <time>2020-08-22T12:29:07Z</time>
      </trkpt>
      <trkpt lat="42.472336" lon="1.572787">
        <time>2020-08-22T12:29:07Z</time>
      </trkpt>
      <trkpt lat="42.472328" lon="1.572777">
        <time>2020-08-22T12:29:07Z</time>
      </trkpt>
      <trkpt lat="42.472328" lon="1.572777">
        <time>2020-08-22T12:29:07Z</time>
      </trkpt>
      <trkpt lat="42.472321" lon="1.572767">
        <time>2020-08-22T12:29:14Z</time>
      </trkpt>
      <trkpt lat="42.472321" lon="1.572767">
        <time>2020-08-22T12:29:14Z</time>
      </trkpt>
      <trkpt lat="42.472309" lon="1.572758">
        <time>2020-08-22T12:29:14Z</time>
      </trkpt>
      <trkpt lat="42.472309" lon="1.572758">
        <time>2020-08-22T12:29:14Z</time>
      </trkpt>
      <trkpt lat="42.472298" lon="1.572749">
        <time>2020-08-22T12:29:14Z</time>
      </trkpt>
      <trkpt lat="42.472298" lon="1.572749">
        <time>2020-08-22T12:29:14Z</time>
      </trkpt>
      <trkpt lat="42.472290" lon="1.572740">
        <time>2020-08-22T12:29:14Z</time>
      </trkpt>
      <trkpt lat="42.472290" lon="1.572740">
        <time>2020-08-22T12:29:14Z</time>
      </trkpt>
      <trkpt lat="42.472282" lon="1.572731">
        <time>2020-08-22T12:29:14Z</time>
      </trkpt>
      <trkpt lat="42.472282" lon="1.572731">
        <time>2020-08-22T12:29:14Z</time>
      </trkpt>
      <trkpt lat="42.472271" lon="1.572722">
        <time>2020-08-22T12:29:14Z</time>
      </trkpt>
      <trkpt lat="42.472271" lon="1.572722">
        <time>2020-08-22T12:29:14Z</time>
      </trkpt>
      <trkpt lat="42.472263" lon="1.572712">
        <time>2020-08-22T12:29:14Z</time>
      </trkpt>
      <trkpt lat="42.472263" lon="1.572712">
        <time>2020-08-22T12:29:14Z</time>
      </trkpt>
      <trkpt lat="42.472256" lon="1.572700">
        <time>2020-08-22T12:29:21Z</time>
      </trkpt>
      <trkpt lat="42.472256" lon="1.572700">
        <time>2020-08-22T12:29:21Z</time>
      </trkpt>
      <trkpt lat="42.472244" lon="1.572689">
        <time>2020-08-22T12:29:21Z</time>
      </trkpt>
      <trkpt lat="42.472244" lon="1.572689">
        <time>2020-08-22T12:29:21Z</time>
      </trkpt>
      <trkpt lat="42.472237" lon="1.572677">
        <time>2020-08-22T12:29:21Z</time>
      </trkpt>
      <trkpt lat="42.472237" lon="1.572677">
        <time>2020-08-22T12:29:21Z</time>
      </trkpt>
      <trkpt lat="42.472229" lon="1.572666">
        <time>2020-08-22T12:29:21Z</time>
      </trkpt>
      <trkpt lat="42.472229" lon="1.572666">
        <time>2020-08-22T12:29:21Z</time>
      </trkpt>
      <trkpt lat="42.472218" lon="1.572655">
        <time>2020-08-22T12:29:21Z</time>
      </trkpt>
      <trkpt lat="42.472218" lon="1.572655">
        <time>2020-08-22T12:29:21Z</time>
      </trkpt>
      <trkpt lat="42.472210" lon="1.572645">
        <time>2020-08-22T12:29:21Z</time>
      </trkpt>
      <trkpt lat="42.472210" lon="1.572645">
        <time>2020-08-22T12:29:21Z</time>
      </trkpt>
      <trkpt lat="42.472198" lon="1.572636">
        <time>2020-08-22T12:29:21Z</time>
      </trkpt>
      <trkpt lat="42.472198" lon="1.572636">
        <time>2020-08-22T12:29:21Z</time>
      </trkpt>
      <trkpt lat="42.472191" lon="1.572627">
        <time>2020-08-22T12:29:28Z</time>
      </trkpt>
      <trkpt lat="42.472191" lon="1.572627">
        <time>2020-08-22T12:29:28Z</time>
      </trkpt>
      <trkpt lat="42.472183" lon="1.572620">
        <time>2020-08-22T12:29:28Z</time>
      </trkpt>
      <trkpt lat="42.472183" lon="1.572620">
        <time>2020-08-22T12:29:28Z</time>
      </trkpt>
      <trkpt lat="42.472172" lon="1.572613">
        <time>2020-08-22T12:29:28Z</time>
      </trkpt>
      <trkpt lat="42.472172" lon="1.572613">
        <time>2020-08-22T12:29:28Z</time>
      </trkpt>
      <trkpt lat="42.472164" lon="1.572608">
        <time>2020-08-22T12:29:28Z</time>
      </trkpt>
      <trkpt lat="42.472164" lon="1.572608">
        <time>2020-08-22T12:29:28Z</time>
      </trkpt>
      <trkpt lat="42.472157" lon="1.572603">
        <time>2020-08-22T12:29:28Z</time>
      </trkpt>
      <trkpt lat="42.472157" lon="1.572603">
        <time>2020-08-22T12:29:28Z</time>
      </trkpt>
      <trkpt lat="42.472145" lon="1.572598">
        <time>2020-08-22T12:29:28Z</time>
      </trkpt>
      <trkpt lat="42.472145" lon="1.572598">
        <time>2020-08-22T12:29:28Z</time>
      </trkpt>
      <trkpt lat="42.472137" lon="1.572593">
        <time>2020-08-22T12:29:28Z</time>
      </trkpt>
      <trkpt lat="42.472137" lon="1.572593">
        <time>2020-08-22T12:29:28Z</time>
      </trkpt>
      <trkpt lat="42.472130" lon="1.572588">
        <time>2020-08-22T12:29:35Z</time>
      </trkpt>
      <trkpt lat="42.472130" lon="1.572588">
        <time>2020-08-22T12:29:35Z</time>
      </trkpt>
      <trkpt lat="42.472118" lon="1.572583">
        <time>2020-08-22T12:29:35Z</time>
      </trkpt>
      <trkpt lat="42.472118" lon="1.572583">
        <time>2020-08-22T12:29:35Z</time>
      </trkpt>
      <trkpt lat="42.472111" lon="1.572578">
        <time>2020-08-22T12:29:35Z</time>
      </trkpt>
      <trkpt lat="42.472111" lon="1.572578">
        <time>2020-08-22T12:29:35Z</time>
      </trkpt>
      <trkpt lat="42.472103" lon="1.572573">
        <time>2020-08-22T12:29:35Z</time>
      </trkpt>
      <trkpt lat="42.472103" lon="1.572573">
        <time>2020-08-22T12:29:35Z</time>
      </trkpt>
      <trkpt lat="42.472092" lon="1.572567">
        <time>2020-08-22T12:29:35Z</time>
      </trkpt>
      <trkpt lat="42.472092" lon="1.572567">
        <time>2020-08-22T12:29:35Z</time>
      </trkpt>
      <trkpt lat="42.472084" lon="1.572562">
        <time>2020-08-22T12:29:35Z</time>
      </trkpt>
      <trkpt lat="42.472084" lon="1.572562">
        <time>2020-08-22T12:29:35Z</time>
      </trkpt>
      <trkpt lat="42.472080" lon="1.572556">
        <time>2020-08-22T12:29:35Z</time>
      </trkpt>
      <trkpt lat="42.472080" lon="1.572556">
        <time>2020-08-22T12:29:35Z</time>
      </trkpt>
      <trkpt lat="42.472073" lon="1.572550">
        <time>2020-08-22T12:29:42Z</time>
      </trkpt>
      <trkpt lat="42.472073" lon="1.572550">
        <time>2020-08-22T12:29:42Z</time>
      </trkpt>
      <trkpt lat="42.472065" lon="1.572544">
        <time>2020-08-22T12:29:42Z</time>
      </trkpt>
      <trkpt lat="42.472065" lon="1.572544">
        <time>2020-08-22T12:29:42Z</time>
      </trkpt>
      <trkpt lat="42.472057" lon="1.572538">
        <time>2020-08-22T12:29:42Z</time>
      </trkpt>
      <trkpt lat="42.472057" lon="1.572538">
        <time>2020-08-22T12:29:42Z</time>
      </trkpt>
      <trkpt lat="42.472050" lon="1.572531">
        <time>2020-08-22T12:29:42Z</time>
      </trkpt>
      <trkpt lat="42.472050" lon="1.572531">
        <time>2020-08-22T12:29:42Z</time>
      </trkpt>
      <trkpt lat="42.472042" lon="1.572523">
        <time>2020-08-22T12:29:42Z</time>
      </trkpt>
      <trkpt lat="42.472042" lon="1.572523">
        <time>2020-08-22T12:29:42Z</time>
      </trkpt>
      <trkpt lat="42.472034" lon="1.572514">
        <time>2020-08-22T12:29:42Z</time>
      </trkpt>
      <trkpt lat="42.472034" lon="1.572514">
        <time>2020-08-22T12:29:42Z</time>
      </trkpt>
      <trkpt lat="42.472027" lon="1.572504">
        <time>2020-08-22T12:29:42Z</time>
      </trkpt>
      <trkpt lat="42.472027" lon="1.572504">
        <time>2020-08-22T12:29:42Z</time>
      </trkpt>
      <trkpt lat="42.472023" lon="1.572494">
        <time>2020-08-22T12:29:49Z</time>
      </trkpt>
      <trkpt lat="42.472023" lon="1.572494">
        <time>2020-08-22T12:29:49Z</time>
      </trkpt>
      <trkpt lat="42.472015" lon="1.572483">
        <time>2020-08-22T12:29:49Z</time>
      </trkpt>
      <trkpt lat="42.472015" lon="1.572483">
        <time>2020-08-22T12:29:49Z</time>
      </trkpt>
      <trkpt lat="42.472012" lon="1.572471">
        <time>2020-08-22T12:29:49Z</time>
      </trkpt>
      <trkpt lat="42.472012" lon="1.572471">
        <time>2020-08-22T12:29:49Z</time>
      </trkpt>
      <trkpt lat="42.472004" lon="1.572460">
        <time>2020-08-22T12:29:49Z</time>
      </trkpt>
      <trkpt lat="42.472004" lon="1.572460">
        <time>2020-08-22T12:29:49Z</time>
      </trkpt>
      <trkpt lat="42.471996" lon="1.572448">
        <time>2020-08-22T12:29:49Z</time>
      </trkpt>
      <trkpt lat="42.471996" lon="1.572448">
        <time>2020-08-22T12:29:49Z</time>
      </trkpt>
      <trkpt lat="42.471992" lon="1.572436">
        <time>2020-08-22T12:29:49Z</time>
      </trkpt>
      <trkpt lat="42.471992" lon="1.572436">
        <time>2020-08-22T12:29:49Z</time>
      </trkpt>
      <trkpt lat="42.471985" lon="1.572423">
        <time>2020-08-22T12:29:49Z</time>
      </trkpt>
      <trkpt lat="42.471985" lon="1.572423">
        <time>2020-08-22T12:29:49Z</time>
      </trkpt>
      <trkpt lat="42.471977" lon="1.572411">
        <time>2020-08-22T12:29:56Z</time>
      </trkpt>
      <trkpt lat="42.471977" lon="1.572411">
        <time>2020-08-22T12:29:56Z</time>
      </trkpt>
      <trkpt lat="42.471973" lon="1.572399">
        <time>2020-08-22T12:29:56Z</time>
      </trkpt>
      <trkpt lat="42.471973" lon="1.572399">
        <time>2020-08-22T12:29:56Z</time>
      </trkpt>
      <trkpt lat="42.471970" lon="1.572387">
        <time>2020-08-22T12:29:56Z</time>
      </trkpt>
      <trkpt lat="42.471970" lon="1.572387">
        <time>2020-08-22T12:29:56Z</time>
      </trkpt>
      <trkpt lat="42.471958" lon="1.572375">
        <time>2020-08-22T12:29:56Z</time>
      </trkpt>
      <trkpt lat="42.471958" lon="1.572375">
        <time>2020-08-22T12:29:56Z</time>
      </trkpt>
      <trkpt lat="42.471954" lon="1.572362">
        <time>2020-08-22T12:29:56Z</time>
      </trkpt>
      <trkpt lat="42.471954" lon="1.572362">
        <time>2020-08-22T12:29:56Z</time>
      </trkpt>
      <trkpt lat="42.471947" lon="1.572350">
        <time>2020-08-22T12:29:56Z</time>
      </trkpt>
      <trkpt lat="42.471947" lon="1.572350">
        <time>2020-08-22T12:29:56Z</time>
      </trkpt>
      <trkpt lat="42.471943" lon="1.572337">
        <time>2020-08-22T12:29:56Z</time>
      </trkpt>
      <trkpt lat="42.471943" lon="1.572337">
        <time>2020-08-22T12:29:56Z</time>
      </trkpt>
      <trkpt lat="42.471931" lon="1.572323">
        <time>2020-08-22T12:30:03Z</time>
      </trkpt>
      <trkpt lat="42.471931" lon="1.572323">
        <time>2020-08-22T12:30:03Z</time>
      </trkpt>
      <trkpt lat="42.471924" lon="1.572308">
        <time>2020-08-22T12:30:03Z</time>
      </trkpt>
      <trkpt lat="42.471924" lon="1.572308">
        <time>2020-08-22T12:30:03Z</time>
      </trkpt>
      <trkpt lat="42.471920" lon="1.572294">
        <time>2020-08-22T12:30:03Z</time>
      </trkpt>
      <trkpt lat="42.471920" lon="1.572294">
        <time>2020-08-22T12:30:03Z</time>
      </trkpt>
      <trkpt lat="42.471909" lon="1.572278">
        <time>2020-08-22T12:30:03Z</time>
      </trkpt>
      <trkpt lat="42.471909" lon="1.572278">
        <time>2020-08-22T12:30:03Z</time>
      </trkpt>
      <trkpt lat="42.471901" lon="1.572263">
        <time>2020-08-22T12:30:03Z</time>
      </trkpt>
      <trkpt lat="42.471901" lon="1.572263">
        <time>2020-08-22T12:30:03Z</time>
      </trkpt>
      <trkpt lat="42.471893" lon="1.572247">
        <time>2020-08-22T12:30:03Z</time>
      </trkpt>
      <trkpt lat="42.471893" lon="1.572247">
        <time>2020-08-22T12:30:03Z</time>
      </trkpt>
      <trkpt lat="42.471882" lon="1.572231">
        <time>2020-08-22T12:30:03Z</time>
      </trkpt>
      <trkpt lat="42.471882" lon="1.572231">
        <time>2020-08-22T12:30:03Z</time>
      </trkpt>
      <trkpt lat="42.471874" lon="1.572215">
        <time>2020-08-22T12:30:10Z</time>
      </trkpt>
      <trkpt lat="42.471874" lon="1.572215">
        <time>2020-08-22T12:30:10Z</time>
      </trkpt>
      <trkpt lat="42.471863" lon="1.572200">
        <time>2020-08-22T12:30:10Z</time>
      </trkpt>
      <trkpt lat="42.471863" lon="1.572200">
        <time>2020-08-22T12:30:10Z</time>
      </trkpt>
      <trkpt lat="42.471855" lon="1.572185">
        <time>2020-08-22T12:30:10Z</time>
      </trkpt>
      <trkpt lat="42.471855" lon="1.572185">
        <time>2020-08-22T12:30:10Z</time>
      </trkpt>
      <trkpt lat="42.471844" lon="1.572171">
        <time>2020-08-22T12:30:10Z</time>
      </trkpt>
      <trkpt lat="42.471844" lon="1.572171">
        <time>2020-08-22T12:30:10Z</time>
      </trkpt>
      <trkpt lat="42.471836" lon="1.572157">
        <time>2020-08-22T12:30:10Z</time>
      </trkpt>
      <trkpt lat="42.471836" lon="1.572157">
        <time>2020-08-22T12:30:10Z</time>
      </trkpt>
      <trkpt lat="42.471828" lon="1.572144">
        <time>2020-08-22T12:30:10Z</time>
      </trkpt>
      <trkpt lat="42.471828" lon="1.572144">
        <time>2020-08-22T12:30:10Z</time>
      </trkpt>
      <trkpt lat="42.471821" lon="1.572130">
        <time>2020-08-22T12:30:10Z</time>
      </trkpt>
      <trkpt lat="42.471821" lon="1.572130">
        <time>2020-08-22T12:30:10Z</time>
      </trkpt>
      <trkpt lat="42.471813" lon="1.572117">
        <time>2020-08-22T12:30:17Z</time>
      </trkpt>
      <trkpt lat="42.471813" lon="1.572117">
        <time>2020-08-22T12:30:17Z</time>
      </trkpt>
      <trkpt lat="42.471809" lon="1.572105">
        <time>2020-08-22T12:30:17Z</time>
      </trkpt>
      <trkpt lat="42.471809" lon="1.572105">
        <time>2020-08-22T12:30:17Z</time>
      </trkpt>
      <trkpt lat="42.471802" lon="1.572092">
        <time>2020-08-22T12:30:17Z</time>
      </trkpt>
      <trkpt lat="42.471802" lon="1.572092">
        <time>2020-08-22T12:30:17Z</time>
      </trkpt>
      <trkpt lat="42.471794" lon="1.572079">
        <time>2020-08-22T12:30:17Z</time>
      </trkpt>
      <trkpt lat="42.471794" lon="1.572079">
        <time>2020-08-22T12:30:17Z</time>
      </trkpt>
      <trkpt lat="42.471786" lon="1.572066">
        <time>2020-08-22T12:30:17Z</time>
      </trkpt>
      <trkpt lat="42.471786" lon="1.572066">
        <time>2020-08-22T12:30:17Z</time>
      </trkpt>
      <trkpt lat="42.471783" lon="1.572052">
        <time>2020-08-22T12:30:17Z</time>
      </trkpt>
      <trkpt lat="42.471783" lon="1.572052">
        <time>2020-08-22T12:30:17Z</time>
      </trkpt>
      <trkpt lat="42.471775" lon="1.572039">
        <time>2020-08-22T12:30:17Z</time>
      </trkpt>
      <trkpt lat="42.471775" lon="1.572039">
        <time>2020-08-22T12:30:17Z</time>
      </trkpt>
      <trkpt lat="42.471771" lon="1.572024">
        <time>2020-08-22T12:30:24Z</time>
      </trkpt>
      <trkpt lat="42.471771" lon="1.572024">
        <time>2020-08-22T12:30:24Z</time>
      </trkpt>
      <trkpt lat="42.471764" lon="1.572011">
        <time>2020-08-22T12:30:24Z</time>
      </trkpt>
      <trkpt lat="42.471764" lon="1.572011">
        <time>2020-08-22T12:30:24Z</time>
      </trkpt>
      <trkpt lat="42.471756" lon="1.571997">
        <time>2020-08-22T12:30:24Z</time>
      </trkpt>
      <trkpt lat="42.471756" lon="1.571997">
        <time>2020-08-22T12:30:24Z</time>
      </trkpt>
      <trkpt lat="42.471752" lon="1.571984">
        <time>2020-08-22T12:30:24Z</time>
      </trkpt>
      <trkpt lat="42.471752" lon="1.571984">
        <time>2020-08-22T12:30:24Z</time>
      </trkpt>
      <trkpt lat="42.471748" lon="1.571971">
        <time>2020-08-22T12:30:24Z</time>
      </trkpt>
      <trkpt lat="42.471748" lon="1.571971">
        <time>2020-08-22T12:30:24Z</time>
      </trkpt>
      <trkpt lat="42.471703" lon="1.571789">
        <time>2020-08-22T12:30:24Z</time>
      </trkpt>
      <trkpt lat="42.471703" lon="1.571789">
        <time>2020-08-22T12:30:24Z</time>
      </trkpt>
      <trkpt lat="42.471703" lon="1.571783">
        <time>2020-08-22T12:30:24Z</time>
      </trkpt>
      <trkpt lat="42.471703" lon="1.571783">
        <time>2020-08-22T12:30:24Z</time>
      </trkpt>
      <trkpt lat="42.471699" lon="1.571776">
        <time>2020-08-22T12:30:24Z</time>
      </trkpt>
      <trkpt lat="42.471699" lon="1.571776">
        <time>2020-08-22T12:30:24Z</time>
      </trkpt>
      <trkpt lat="42.471695" lon="1.571769">
        <time>2020-08-22T12:30:31Z</time>
      </trkpt>
      <trkpt lat="42.471695" lon="1.571769">
        <time>2020-08-22T12:30:31Z</time>
      </trkpt>
      <trkpt lat="42.471691" lon="1.571761">
        <time>2020-08-22T12:30:31Z</time>
      </trkpt>
      <trkpt lat="42.471691" lon="1.571761">
        <time>2020-08-22T12:30:31Z</time>
      </trkpt>
      <trkpt lat="42.471683" lon="1.571753">
        <time>2020-08-22T12:30:31Z</time>
      </trkpt>
      <trkpt lat="42.471683" lon="1.571753">
        <time>2020-08-22T12:30:31Z</time>
      </trkpt>
      <trkpt lat="42.471683" lon="1.571745">
        <time>2020-08-22T12:30:31Z</time>
      </trkpt>
      <trkpt lat="42.471683" lon="1.571745">
        <time>2020-08-22T12:30:31Z</time>
      </trkpt>
      <trkpt lat="42.471680" lon="1.571736">
        <time>2020-08-22T12:30:31Z</time>
      </trkpt>
      <trkpt lat="42.471680" lon="1.571736">
        <time>2020-08-22T12:30:31Z</time>
      </trkpt>
      <trkpt lat="42.471676" lon="1.571728">
        <time>2020-08-22T12:30:31Z</time>
      </trkpt>
      <trkpt lat="42.471676" lon="1.571728">
        <time>2020-08-22T12:30:31Z</time>
      </trkpt>
      <trkpt lat="42.471672" lon="1.571719">
        <time>2020-08-22T12:30:31Z</time>
      </trkpt>
      <trkpt lat="42.471672" lon="1.571719">
        <time>2020-08-22T12:30:31Z</time>
      </trkpt>
      <trkpt lat="42.471668" lon="1.571703">
        <time>2020-08-22T12:30:38Z</time>
      </trkpt>
      <trkpt lat="42.471668" lon="1.571703">
        <time>2020-08-22T12:30:38Z</time>
      </trkpt>
      <trkpt lat="42.471661" lon="1.571687">
        <time>2020-08-22T12:30:38Z</time>
      </trkpt>
      <trkpt lat="42.471661" lon="1.571687">
        <time>2020-08-22T12:30:38Z</time>
      </trkpt>
      <trkpt lat="42.471657" lon="1.571670">
        <time>2020-08-22T12:30:38Z</time>
      </trkpt>
      <trkpt lat="42.471657" lon="1.571670">
        <time>2020-08-22T12:30:38Z</time>
      </trkpt>
      <trkpt lat="42.471657" lon="1.571654">
        <time>2020-08-22T12:30:38Z</time>
      </trkpt>
      <trkpt lat="42.471657" lon="1.571654">
        <time>2020-08-22T12:30:38Z</time>
      </trkpt>
      <trkpt lat="42.471653" lon="1.571639">
        <time>2020-08-22T12:30:38Z</time>
      </trkpt>
      <trkpt lat="42.471653" lon="1.571639">
        <time>2020-08-22T12:30:38Z</time>
      </trkpt>
      <trkpt lat="42.471653" lon="1.571625">
        <time>2020-08-22T12:30:38Z</time>
      </trkpt>
      <trkpt lat="42.471653" lon="1.571625">
        <time>2020-08-22T12:30:38Z</time>
      </trkpt>
      <trkpt lat="42.471653" lon="1.571612">
        <time>2020-08-22T12:30:38Z</time>
      </trkpt>
      <trkpt lat="42.471653" lon="1.571612">
        <time>2020-08-22T12:30:38Z</time>
      </trkpt>
      <trkpt lat="42.471653" lon="1.571599">
        <time>2020-08-22T12:30:45Z</time>
      </trkpt>
      <trkpt lat="42.471653" lon="1.571599">
        <time>2020-08-22T12:30:45Z</time>
      </trkpt>
      <trkpt lat="42.471653" lon="1.571588">
        <time>2020-08-22T12:30:45Z</time>
      </trkpt>
      <trkpt lat="42.471653" lon="1.571588">
        <time>2020-08-22T12:30:45Z</time>
      </trkpt>
      <trkpt lat="42.471653" lon="1.571577">
        <time>2020-08-22T12:30:45Z</time>
      </trkpt>
      <trkpt lat="42.471653" lon="1.571577">
        <time>2020-08-22T12:30:45Z</time>
      </trkpt>
      <trkpt lat="42.471649" lon="1.571545">
        <time>2020-08-22T12:30:45Z</time>
      </trkpt>
      <trkpt lat="42.471649" lon="1.571545">
        <time>2020-08-22T12:30:45Z</time>
      </trkpt>
      <trkpt lat="42.471642" lon="1.571514">
        <time>2020-08-22T12:30:45Z</time>
      </trkpt>
      <trkpt lat="42.471642" lon="1.571514">
        <time>2020-08-22T12:30:45Z</time>
      </trkpt>
      <trkpt lat="42.471634" lon="1.571484">
        <time>2020-08-22T12:30:45Z</time>
      </trkpt>
      <trkpt lat="42.471634" lon="1.571484">
        <time>2020-08-22T12:30:45Z</time>
      </trkpt>
      <trkpt lat="42.471626" lon="1.571453">
        <time>2020-08-22T12:30:45Z</time>
      </trkpt>
      <trkpt lat="42.471626" lon="1.571453">
        <time>2020-08-22T12:30:45Z</time>
      </trkpt>
      <trkpt lat="42.471619" lon="1.571423">
        <time>2020-08-22T12:30:45Z</time>
      </trkpt>
      <trkpt lat="42.471619" lon="1.571423">
        <time>2020-08-22T12:30:45Z</time>
      </trkpt>
      <trkpt lat="42.471607" lon="1.571393">
        <time>2020-08-22T12:30:45Z</time>
      </trkpt>
      <trkpt lat="42.471607" lon="1.571393">
        <time>2020-08-22T12:30:45Z</time>
      </trkpt>
      <trkpt lat="42.471596" lon="1.571362">
        <time>2020-08-22T12:30:52Z</time>
      </trkpt>
      <trkpt lat="42.471596" lon="1.571362">
        <time>2020-08-22T12:30:52Z</time>
      </trkpt>
      <trkpt lat="42.471584" lon="1.571332">
        <time>2020-08-22T12:30:52Z</time>
      </trkpt>
      <trkpt lat="42.471584" lon="1.571332">
        <time>2020-08-22T12:30:52Z</time>
      </trkpt>
      <trkpt lat="42.471569" lon="1.571302">
        <time>2020-08-22T12:30:52Z</time>
      </trkpt>
      <trkpt lat="42.471569" lon="1.571302">
        <time>2020-08-22T12:30:52Z</time>
      </trkpt>
      <trkpt lat="42.471554" lon="1.571272">
        <time>2020-08-22T12:30:52Z</time>
      </trkpt>
      <trkpt lat="42.471554" lon="1.571272">
        <time>2020-08-22T12:30:52Z</time>
      </trkpt>
      <trkpt lat="42.471542" lon="1.571264">
        <time>2020-08-22T12:30:52Z</time>
      </trkpt>
      <trkpt lat="42.471542" lon="1.571264">
        <time>2020-08-22T12:30:52Z</time>
      </trkpt>
      <trkpt lat="42.471527" lon="1.571255">
        <time>2020-08-22T12:30:52Z</time>
      </trkpt>
      <trkpt lat="42.471527" lon="1.571255">
        <time>2020-08-22T12:30:52Z</time>
      </trkpt>
      <trkpt lat="42.471516" lon="1.571247">
        <time>2020-08-22T12:30:52Z</time>
      </trkpt>
      <trkpt lat="42.471516" lon="1.571247">
        <time>2020-08-22T12:30:52Z</time>
      </trkpt>
      <trkpt lat="42.471500" lon="1.571239">
        <time>2020-08-22T12:30:59Z</time>
      </trkpt>
      <trkpt lat="42.471500" lon="1.571239">
        <time>2020-08-22T12:30:59Z</time>
      </trkpt>
      <trkpt lat="42.471489" lon="1.571233">
        <time>2020-08-22T12:30:59Z</time>
      </trkpt>
      <trkpt lat="42.471489" lon="1.571233">
        <time>2020-08-22T12:30:59Z</time>
      </trkpt>
      <trkpt lat="42.471474" lon="1.571227">
        <time>2020-08-22T12:30:59Z</time>
      </trkpt>
      <trkpt lat="42.471474" lon="1.571227">
        <time>2020-08-22T12:30:59Z</time>
      </trkpt>
      <trkpt lat="42.471462" lon="1.571221">
        <time>2020-08-22T12:30:59Z</time>
      </trkpt>
      <trkpt lat="42.471462" lon="1.571221">
        <time>2020-08-22T12:30:59Z</time>
      </trkpt>
      <trkpt lat="42.471447" lon="1.571216">
        <time>2020-08-22T12:30:59Z</time>
      </trkpt>
      <trkpt lat="42.471447" lon="1.571216">
        <time>2020-08-22T12:30:59Z</time>
      </trkpt>
      <trkpt lat="42.471436" lon="1.571212">
        <time>2020-08-22T12:30:59Z</time>
      </trkpt>
      <trkpt lat="42.471436" lon="1.571212">
        <time>2020-08-22T12:30:59Z</time>
      </trkpt>
      <trkpt lat="42.471424" lon="1.571208">
        <time>2020-08-22T12:31:06Z</time>
      </trkpt>
      <trkpt lat="42.471424" lon="1.571208">
        <time>2020-08-22T12:31:06Z</time>
      </trkpt>
      <trkpt lat="42.471413" lon="1.571205">
        <time>2020-08-22T12:31:06Z</time>
      </trkpt>
      <trkpt lat="42.471413" lon="1.571205">
        <time>2020-08-22T12:31:06Z</time>
      </trkpt>
      <trkpt lat="42.471401" lon="1.571203">
        <time>2020-08-22T12:31:06Z</time>
      </trkpt>
      <trkpt lat="42.471401" lon="1.571203">
        <time>2020-08-22T12:31:06Z</time>
      </trkpt>
      <trkpt lat="42.471394" lon="1.571200">
        <time>2020-08-22T12:31:06Z</time>
      </trkpt>
      <trkpt lat="42.471394" lon="1.571200">
        <time>2020-08-22T12:31:06Z</time>
      </trkpt>
      <trkpt lat="42.471386" lon="1.571198">
        <time>2020-08-22T12:31:06Z</time>
      </trkpt>
      <trkpt lat="42.471386" lon="1.571198">
        <time>2020-08-22T12:31:06Z</time>
      </trkpt>
      <trkpt lat="42.471378" lon="1.571195">
        <time>2020-08-22T12:31:06Z</time>
      </trkpt>
      <trkpt lat="42.471378" lon="1.571195">
        <time>2020-08-22T12:31:06Z</time>
      </trkpt>
      <trkpt lat="42.471375" lon="1.571193">
        <time>2020-08-22T12:31:06Z</time>
      </trkpt>
      <trkpt lat="42.471375" lon="1.571193">
        <time>2020-08-22T12:31:06Z</time>
      </trkpt>
      <trkpt lat="42.471367" lon="1.571191">
        <time>2020-08-22T12:31:13Z</time>
      </trkpt>
      <trkpt lat="42.471367" lon="1.571191">
        <time>2020-08-22T12:31:13Z</time>
      </trkpt>
      <trkpt lat="42.471359" lon="1.571188">
        <time>2020-08-22T12:31:13Z</time>
      </trkpt>
      <trkpt lat="42.471359" lon="1.571188">
        <time>2020-08-22T12:31:13Z</time>
      </trkpt>
      <trkpt lat="42.471355" lon="1.571185">
        <time>2020-08-22T12:31:13Z</time>
      </trkpt>
      <trkpt lat="42.471355" lon="1.571185">
        <time>2020-08-22T12:31:13Z</time>
      </trkpt>
      <trkpt lat="42.471348" lon="1.571182">
        <time>2020-08-22T12:31:13Z</time>
      </trkpt>
      <trkpt lat="42.471348" lon="1.571182">
        <time>2020-08-22T12:31:13Z</time>
      </trkpt>
      <trkpt lat="42.471340" lon="1.571178">
        <time>2020-08-22T12:31:13Z</time>
      </trkpt>
      <trkpt lat="42.471340" lon="1.571178">
        <time>2020-08-22T12:31:13Z</time>
      </trkpt>
      <trkpt lat="42.471336" lon="1.571174">
        <time>2020-08-22T12:31:13Z</time>
      </trkpt>
      <trkpt lat="42.471336" lon="1.571174">
        <time>2020-08-22T12:31:13Z</time>
      </trkpt>
      <trkpt lat="42.471333" lon="1.571170">
        <time>2020-08-22T12:31:13Z</time>
      </trkpt>
      <trkpt lat="42.471333" lon="1.571170">
        <time>2020-08-22T12:31:13Z</time>
      </trkpt>
      <trkpt lat="42.471321" lon="1.571165">
        <time>2020-08-22T12:31:20Z</time>
      </trkpt>
      <trkpt lat="42.471321" lon="1.571165">
        <time>2020-08-22T12:31:20Z</time>
      </trkpt>
      <trkpt lat="42.471317" lon="1.571160">
        <time>2020-08-22T12:31:20Z</time>
      </trkpt>
      <trkpt lat="42.471317" lon="1.571160">
        <time>2020-08-22T12:31:20Z</time>
      </trkpt>
      <trkpt lat="42.471310" lon="1.571155">
        <time>2020-08-22T12:31:20Z</time>
      </trkpt>
      <trkpt lat="42.471310" lon="1.571155">
        <time>2020-08-22T12:31:20Z</time>
      </trkpt>
      <trkpt lat="42.471302" lon="1.571150">
        <time>2020-08-22T12:31:20Z</time>
      </trkpt>
      <trkpt lat="42.471302" lon="1.571150">
        <time>2020-08-22T12:31:20Z</time>
      </trkpt>
      <trkpt lat="42.471294" lon="1.571145">
        <time>2020-08-22T12:31:20Z</time>
      </trkpt>
      <trkpt lat="42.471294" lon="1.571145">
        <time>2020-08-22T12:31:20Z</time>
      </trkpt>
      <trkpt lat="42.471287" lon="1.571141">
        <time>2020-08-22T12:31:20Z</time>
      </trkpt>
      <trkpt lat="42.471287" lon="1.571141">
        <time>2020-08-22T12:31:20Z</time>
      </trkpt>
      <trkpt lat="42.471279" lon="1.571136">
        <time>2020-08-22T12:31:20Z</time>
      </trkpt>
      <trkpt lat="42.471279" lon="1.571136">
        <time>2020-08-22T12:31:20Z</time>
      </trkpt>
      <trkpt lat="42.471256" lon="1.571129">
        <time>2020-08-22T12:32:17Z</time>
      </trkpt>
      <trkpt lat="42.471256" lon="1.571129">
        <time>2020-08-22T12:32:17Z</time>
      </trkpt>
      <trkpt lat="42.471249" lon="1.571128">
        <time>2020-08-22T12:32:17Z</time>
      </trkpt>
      <trkpt lat="42.471249" lon="1.571128">
        <time>2020-08-22T12:32:17Z</time>
      </trkpt>
      <trkpt lat="42.471241" lon="1.571126">
        <time>2020-08-22T12:32:17Z</time>
      </trkpt>
      <trkpt lat="42.471241" lon="1.571126">
        <time>2020-08-22T12:32:17Z</time>
      </trkpt>
      <trkpt lat="42.471233" lon="1.571126">
        <time>2020-08-22T12:32:17Z</time>
      </trkpt>
      <trkpt lat="42.471233" lon="1.571126">
        <time>2020-08-22T12:32:17Z</time>
      </trkpt>
      <trkpt lat="42.471226" lon="1.571125">
        <time>2020-08-22T12:32:17Z</time>
      </trkpt>
      <trkpt lat="42.471226" lon="1.571125">
        <time>2020-08-22T12:32:17Z</time>
      </trkpt>
      <trkpt lat="42.471210" lon="1.571120">
        <time>2020-08-22T12:32:17Z</time>
      </trkpt>
      <trkpt lat="42.471210" lon="1.571120">
        <time>2020-08-22T12:32:17Z</time>
      </trkpt>
      <trkpt lat="42.471199" lon="1.571116">
        <time>2020-08-22T12:32:17Z</time>
      </trkpt>
      <trkpt lat="42.471199" lon="1.571116">
        <time>2020-08-22T12:32:17Z</time>
      </trkpt>
      <trkpt lat="42.471191" lon="1.571114">
        <time>2020-08-22T12:32:24Z</time>
      </trkpt>
      <trkpt lat="42.471191" lon="1.571114">
        <time>2020-08-22T12:32:24Z</time>
      </trkpt>
      <trkpt lat="42.471180" lon="1.571112">
        <time>2020-08-22T12:32:24Z</time>
      </trkpt>
      <trkpt lat="42.471180" lon="1.571112">
        <time>2020-08-22T12:32:24Z</time>
      </trkpt>
      <trkpt lat="42.471172" lon="1.571111">
        <time>2020-08-22T12:32:24Z</time>
      </trkpt>
      <trkpt lat="42.471172" lon="1.571111">
        <time>2020-08-22T12:32:24Z</time>
      </trkpt>
      <trkpt lat="42.471157" lon="1.571109">
        <time>2020-08-22T12:32:24Z</time>
      </trkpt>
      <trkpt lat="42.471157" lon="1.571109">
        <time>2020-08-22T12:32:24Z</time>
      </trkpt>
      <trkpt lat="42.471142" lon="1.571107">
        <time>2020-08-22T12:32:24Z</time>
      </trkpt>
      <trkpt lat="42.471142" lon="1.571107">
        <time>2020-08-22T12:32:24Z</time>
      </trkpt>
      <trkpt lat="42.471123" lon="1.571105">
        <time>2020-08-22T12:32:24Z</time>
      </trkpt>
      <trkpt lat="42.471123" lon="1.571105">
        <time>2020-08-22T12:32:24Z</time>
      </trkpt>
      <trkpt lat="42.471104" lon="1.571105">
        <time>2020-08-22T12:32:24Z</time>
      </trkpt>
      <trkpt lat="42.471104" lon="1.571105">
        <time>2020-08-22T12:32:24Z</time>
      </trkpt>
      <trkpt lat="42.471088" lon="1.571104">
        <time>2020-08-22T12:32:31Z</time>
      </trkpt>
      <trkpt lat="42.471088" lon="1.571104">
        <time>2020-08-22T12:32:31Z</time>
      </trkpt>
      <trkpt lat="42.471073" lon="1.571107">
        <time>2020-08-22T12:32:31Z</time>
      </trkpt>
      <trkpt lat="42.471073" lon="1.571107">
        <time>2020-08-22T12:32:31Z</time>
      </trkpt>
      <trkpt lat="42.471058" lon="1.571109">
        <time>2020-08-22T12:32:31Z</time>
      </trkpt>
      <trkpt lat="42.471058" lon="1.571109">
        <time>2020-08-22T12:32:31Z</time>
      </trkpt>
      <trkpt lat="42.471046" lon="1.571113">
        <time>2020-08-22T12:32:31Z</time>
      </trkpt>
      <trkpt lat="42.471046" lon="1.571113">
        <time>2020-08-22T12:32:31Z</time>
      </trkpt>
      <trkpt lat="42.471031" lon="1.571116">
        <time>2020-08-22T12:32:31Z</time>
      </trkpt>
      <trkpt lat="42.471031" lon="1.571116">
        <time>2020-08-22T12:32:31Z</time>
      </trkpt>
      <trkpt lat="42.471012" lon="1.571120">
        <time>2020-08-22T12:32:31Z</time>
      </trkpt>
      <trkpt lat="42.471012" lon="1.571120">
        <time>2020-08-22T12:32:31Z</time>
      </trkpt>
      <trkpt lat="42.471001" lon="1.571123">
        <time>2020-08-22T12:32:31Z</time>
      </trkpt>
      <trkpt lat="42.471001" lon="1.571123">
        <time>2020-08-22T12:32:31Z</time>
      </trkpt>
      <trkpt lat="42.470985" lon="1.571125">
        <time>2020-08-22T12:32:38Z</time>
      </trkpt>
      <trkpt lat="42.470985" lon="1.571125">
        <time>2020-08-22T12:32:38Z</time>
      </trkpt>
      <trkpt lat="42.470974" lon="1.571127">
        <time>2020-08-22T12:32:38Z</time>
      </trkpt>
      <trkpt lat="42.470974" lon="1.571127">
        <time>2020-08-22T12:32:38Z</time>
      </trkpt>
      <trkpt lat="42.470959" lon="1.571129">
        <time>2020-08-22T12:32:38Z</time>
      </trkpt>
      <trkpt lat="42.470959" lon="1.571129">
        <time>2020-08-22T12:32:38Z</time>
      </trkpt>
      <trkpt lat="42.470951" lon="1.571130">
        <time>2020-08-22T12:32:38Z</time>
      </trkpt>
      <trkpt lat="42.470951" lon="1.571130">
        <time>2020-08-22T12:32:38Z</time>
      </trkpt>
      <trkpt lat="42.470940" lon="1.571130">
        <time>2020-08-22T12:32:38Z</time>
      </trkpt>
      <trkpt lat="42.470940" lon="1.571130">
        <time>2020-08-22T12:32:38Z</time>
      </trkpt>
      <trkpt lat="42.470928" lon="1.571129">
        <time>2020-08-22T12:32:38Z</time>
      </trkpt>
      <trkpt lat="42.470928" lon="1.571129">
        <time>2020-08-22T12:32:38Z</time>
      </trkpt>
      <trkpt lat="42.470921" lon="1.571128">
        <time>2020-08-22T12:32:38Z</time>
      </trkpt>
      <trkpt lat="42.470921" lon="1.571128">
        <time>2020-08-22T12:32:38Z</time>
      </trkpt>
      <trkpt lat="42.470913" lon="1.571126">
        <time>2020-08-22T12:32:45Z</time>
      </trkpt>
      <trkpt lat="42.470913" lon="1.571126">
        <time>2020-08-22T12:32:45Z</time>
      </trkpt>
      <trkpt lat="42.470901" lon="1.571124">
        <time>2020-08-22T12:32:45Z</time>
      </trkpt>
      <trkpt lat="42.470901" lon="1.571124">
        <time>2020-08-22T12:32:45Z</time>
      </trkpt>
      <trkpt lat="42.470894" lon="1.571122">
        <time>2020-08-22T12:32:45Z</time>
      </trkpt>
      <trkpt lat="42.470894" lon="1.571122">
        <time>2020-08-22T12:32:45Z</time>
      </trkpt>
      <trkpt lat="42.470886" lon="1.571120">
        <time>2020-08-22T12:32:45Z</time>
      </trkpt>
      <trkpt lat="42.470886" lon="1.571120">
        <time>2020-08-22T12:32:45Z</time>
      </trkpt>
      <trkpt lat="42.470879" lon="1.571119">
        <time>2020-08-22T12:32:45Z</time>
      </trkpt>
      <trkpt lat="42.470879" lon="1.571119">
        <time>2020-08-22T12:32:45Z</time>
      </trkpt>
      <trkpt lat="42.470867" lon="1.571118">
        <time>2020-08-22T12:32:45Z</time>
      </trkpt>
      <trkpt lat="42.470867" lon="1.571118">
        <time>2020-08-22T12:32:45Z</time>
      </trkpt>
      <trkpt lat="42.470860" lon="1.571118">
        <time>2020-08-22T12:32:45Z</time>
      </trkpt>
      <trkpt lat="42.470860" lon="1.571118">
        <time>2020-08-22T12:32:45Z</time>
      </trkpt>
      <trkpt lat="42.470852" lon="1.571119">
        <time>2020-08-22T12:32:52Z</time>
      </trkpt>
      <trkpt lat="42.470852" lon="1.571119">
        <time>2020-08-22T12:32:52Z</time>
      </trkpt>
      <trkpt lat="42.470840" lon="1.571120">
        <time>2020-08-22T12:32:52Z</time>
      </trkpt>
      <trkpt lat="42.470840" lon="1.571120">
        <time>2020-08-22T12:32:52Z</time>
      </trkpt>
      <trkpt lat="42.470833" lon="1.571122">
        <time>2020-08-22T12:32:52Z</time>
      </trkpt>
      <trkpt lat="42.470833" lon="1.571122">
        <time>2020-08-22T12:32:52Z</time>
      </trkpt>
      <trkpt lat="42.470825" lon="1.571123">
        <time>2020-08-22T12:32:52Z</time>
      </trkpt>
      <trkpt lat="42.470825" lon="1.571123">
        <time>2020-08-22T12:32:52Z</time>
      </trkpt>
      <trkpt lat="42.470818" lon="1.571125">
        <time>2020-08-22T12:32:52Z</time>
      </trkpt>
      <trkpt lat="42.470818" lon="1.571125">
        <time>2020-08-22T12:32:52Z</time>
      </trkpt>
      <trkpt lat="42.470806" lon="1.571126">
        <time>2020-08-22T12:32:52Z</time>
      </trkpt>
      <trkpt lat="42.470806" lon="1.571126">
        <time>2020-08-22T12:32:52Z</time>
      </trkpt>
      <trkpt lat="42.470798" lon="1.571127">
        <time>2020-08-22T12:32:52Z</time>
      </trkpt>
      <trkpt lat="42.470798" lon="1.571127">
        <time>2020-08-22T12:32:52Z</time>
      </trkpt>
      <trkpt lat="42.470791" lon="1.571128">
        <time>2020-08-22T12:32:59Z</time>
      </trkpt>
      <trkpt lat="42.470791" lon="1.571128">
        <time>2020-08-22T12:32:59Z</time>
      </trkpt>
      <trkpt lat="42.470783" lon="1.571128">
        <time>2020-08-22T12:32:59Z</time>
      </trkpt>
      <trkpt lat="42.470783" lon="1.571128">
        <time>2020-08-22T12:32:59Z</time>
      </trkpt>
      <trkpt lat="42.470772" lon="1.571128">
        <time>2020-08-22T12:32:59Z</time>
      </trkpt>
      <trkpt lat="42.470772" lon="1.571128">
        <time>2020-08-22T12:32:59Z</time>
      </trkpt>
      <trkpt lat="42.470764" lon="1.571127">
        <time>2020-08-22T12:32:59Z</time>
      </trkpt>
      <trkpt lat="42.470764" lon="1.571127">
        <time>2020-08-22T12:32:59Z</time>
      </trkpt>
      <trkpt lat="42.470757" lon="1.571127">
        <time>2020-08-22T12:32:59Z</time>
      </trkpt>
      <trkpt lat="42.470757" lon="1.571127">
        <time>2020-08-22T12:32:59Z</time>
      </trkpt>
      <trkpt lat="42.470745" lon="1.571126">
        <time>2020-08-22T12:32:59Z</time>
      </trkpt>
      <trkpt lat="42.470745" lon="1.571126">
        <time>2020-08-22T12:32:59Z</time>
      </trkpt>
      <trkpt lat="42.470737" lon="1.571126">
        <time>2020-08-22T12:32:59Z</time>
      </trkpt>
      <trkpt lat="42.470737" lon="1.571126">
        <time>2020-08-22T12:32:59Z</time>
      </trkpt>
      <trkpt lat="42.470730" lon="1.571126">
        <time>2020-08-22T12:33:06Z</time>
      </trkpt>
      <trkpt lat="42.470730" lon="1.571126">
        <time>2020-08-22T12:33:06Z</time>
      </trkpt>
      <trkpt lat="42.470718" lon="1.571127">
        <time>2020-08-22T12:33:06Z</time>
      </trkpt>
      <trkpt lat="42.470718" lon="1.571127">
        <time>2020-08-22T12:33:06Z</time>
      </trkpt>
      <trkpt lat="42.470707" lon="1.571128">
        <time>2020-08-22T12:33:06Z</time>
      </trkpt>
      <trkpt lat="42.470707" lon="1.571128">
        <time>2020-08-22T12:33:06Z</time>
      </trkpt>
      <trkpt lat="42.470695" lon="1.571129">
        <time>2020-08-22T12:33:06Z</time>
      </trkpt>
      <trkpt lat="42.470695" lon="1.571129">
        <time>2020-08-22T12:33:06Z</time>
      </trkpt>
      <trkpt lat="42.470684" lon="1.571131">
        <time>2020-08-22T12:33:06Z</time>
      </trkpt>
      <trkpt lat="42.470684" lon="1.571131">
        <time>2020-08-22T12:33:06Z</time>
      </trkpt>
      <trkpt lat="42.470673" lon="1.571132">
        <time>2020-08-22T12:33:06Z</time>
      </trkpt>
      <trkpt lat="42.470673" lon="1.571132">
        <time>2020-08-22T12:33:06Z</time>
      </trkpt>
      <trkpt lat="42.470661" lon="1.571134">
        <time>2020-08-22T12:33:06Z</time>
      </trkpt>
      <trkpt lat="42.470661" lon="1.571134">
        <time>2020-08-22T12:33:06Z</time>
      </trkpt>
      <trkpt lat="42.470650" lon="1.571135">
        <time>2020-08-22T12:33:13Z</time>
      </trkpt>
      <trkpt lat="42.470650" lon="1.571135">
        <time>2020-08-22T12:33:13Z</time>
      </trkpt>
      <trkpt lat="42.470638" lon="1.571136">
        <time>2020-08-22T12:33:13Z</time>
      </trkpt>
      <trkpt lat="42.470638" lon="1.571136">
        <time>2020-08-22T12:33:13Z</time>
      </trkpt>
      <trkpt lat="42.470623" lon="1.571134">
        <time>2020-08-22T12:33:13Z</time>
      </trkpt>
      <trkpt lat="42.470623" lon="1.571134">
        <time>2020-08-22T12:33:13Z</time>
      </trkpt>
      <trkpt lat="42.470612" lon="1.571132">
        <time>2020-08-22T12:33:13Z</time>
      </trkpt>
      <trkpt lat="42.470612" lon="1.571132">
        <time>2020-08-22T12:33:13Z</time>
      </trkpt>
      <trkpt lat="42.470596" lon="1.571124">
        <time>2020-08-22T12:33:13Z</time>
      </trkpt>
      <trkpt lat="42.470596" lon="1.571124">
        <time>2020-08-22T12:33:13Z</time>
      </trkpt>
      <trkpt lat="42.470581" lon="1.571115">
        <time>2020-08-22T12:33:13Z</time>
      </trkpt>
      <trkpt lat="42.470581" lon="1.571115">
        <time>2020-08-22T12:33:13Z</time>
      </trkpt>
      <trkpt lat="42.470566" lon="1.571105">
        <time>2020-08-22T12:33:13Z</time>
      </trkpt>
      <trkpt lat="42.470566" lon="1.571105">
        <time>2020-08-22T12:33:13Z</time>
      </trkpt>
      <trkpt lat="42.470551" lon="1.571094">
        <time>2020-08-22T12:33:20Z</time>
      </trkpt>
      <trkpt lat="42.470551" lon="1.571094">
        <time>2020-08-22T12:33:20Z</time>
      </trkpt>
      <trkpt lat="42.470535" lon="1.571082">
        <time>2020-08-22T12:33:20Z</time>
      </trkpt>
      <trkpt lat="42.470535" lon="1.571082">
        <time>2020-08-22T12:33:20Z</time>
      </trkpt>
      <trkpt lat="42.470524" lon="1.571068">
        <time>2020-08-22T12:33:20Z</time>
      </trkpt>
      <trkpt lat="42.470524" lon="1.571068">
        <time>2020-08-22T12:33:20Z</time>
      </trkpt>
      <trkpt lat="42.470505" lon="1.571054">
        <time>2020-08-22T12:33:20Z</time>
      </trkpt>
      <trkpt lat="42.470505" lon="1.571054">
        <time>2020-08-22T12:33:20Z</time>
      </trkpt>
      <trkpt lat="42.470493" lon="1.571040">
        <time>2020-08-22T12:33:20Z</time>
      </trkpt>
      <trkpt lat="42.470493" lon="1.571040">
        <time>2020-08-22T12:33:20Z</time>
      </trkpt>
      <trkpt lat="42.470482" lon="1.571026">
        <time>2020-08-22T12:33:20Z</time>
      </trkpt>
      <trkpt lat="42.470482" lon="1.571026">
        <time>2020-08-22T12:33:20Z</time>
      </trkpt>
      <trkpt lat="42.470463" lon="1.571013">
        <time>2020-08-22T12:33:20Z</time>
      </trkpt>
      <trkpt lat="42.470463" lon="1.571013">
        <time>2020-08-22T12:33:20Z</time>
      </trkpt>
      <trkpt lat="42.470455" lon="1.571004">
        <time>2020-08-22T12:33:27Z</time>
      </trkpt>
      <trkpt lat="42.470455" lon="1.571004">
        <time>2020-08-22T12:33:27Z</time>
      </trkpt>
      <trkpt lat="42.470444" lon="1.570995">
        <time>2020-08-22T12:33:27Z</time>
      </trkpt>
      <trkpt lat="42.470444" lon="1.570995">
        <time>2020-08-22T12:33:27Z</time>
      </trkpt>
      <trkpt lat="42.470432" lon="1.570987">
        <time>2020-08-22T12:33:27Z</time>
      </trkpt>
      <trkpt lat="42.470432" lon="1.570987">
        <time>2020-08-22T12:33:27Z</time>
      </trkpt>
      <trkpt lat="42.470421" lon="1.570979">
        <time>2020-08-22T12:33:27Z</time>
      </trkpt>
      <trkpt lat="42.470421" lon="1.570979">
        <time>2020-08-22T12:33:27Z</time>
      </trkpt>
      <trkpt lat="42.470409" lon="1.570971">
        <time>2020-08-22T12:33:27Z</time>
      </trkpt>
      <trkpt lat="42.470409" lon="1.570971">
        <time>2020-08-22T12:33:27Z</time>
      </trkpt>
      <trkpt lat="42.470398" lon="1.570965">
        <time>2020-08-22T12:33:27Z</time>
      </trkpt>
      <trkpt lat="42.470398" lon="1.570965">
        <time>2020-08-22T12:33:27Z</time>
      </trkpt>
      <trkpt lat="42.470386" lon="1.570958">
        <time>2020-08-22T12:33:27Z</time>
      </trkpt>
      <trkpt lat="42.470386" lon="1.570958">
        <time>2020-08-22T12:33:27Z</time>
      </trkpt>
      <trkpt lat="42.470375" lon="1.570952">
        <time>2020-08-22T12:33:34Z</time>
      </trkpt>
      <trkpt lat="42.470375" lon="1.570952">
        <time>2020-08-22T12:33:34Z</time>
      </trkpt>
      <trkpt lat="42.470364" lon="1.570946">
        <time>2020-08-22T12:33:34Z</time>
      </trkpt>
      <trkpt lat="42.470364" lon="1.570946">
        <time>2020-08-22T12:33:34Z</time>
      </trkpt>
      <trkpt lat="42.470356" lon="1.570940">
        <time>2020-08-22T12:33:34Z</time>
      </trkpt>
      <trkpt lat="42.470356" lon="1.570940">
        <time>2020-08-22T12:33:34Z</time>
      </trkpt>
      <trkpt lat="42.470341" lon="1.570935">
        <time>2020-08-22T12:33:34Z</time>
      </trkpt>
      <trkpt lat="42.470341" lon="1.570935">
        <time>2020-08-22T12:33:34Z</time>
      </trkpt>
      <trkpt lat="42.470329" lon="1.570929">
        <time>2020-08-22T12:33:34Z</time>
      </trkpt>
      <trkpt lat="42.470329" lon="1.570929">
        <time>2020-08-22T12:33:34Z</time>
      </trkpt>
      <trkpt lat="42.470322" lon="1.570924">
        <time>2020-08-22T12:33:34Z</time>
      </trkpt>
      <trkpt lat="42.470322" lon="1.570924">
        <time>2020-08-22T12:33:34Z</time>
      </trkpt>
      <trkpt lat="42.470310" lon="1.570919">
        <time>2020-08-22T12:33:34Z</time>
      </trkpt>
      <trkpt lat="42.470310" lon="1.570919">
        <time>2020-08-22T12:33:34Z</time>
      </trkpt>
      <trkpt lat="42.470295" lon="1.570914">
        <time>2020-08-22T12:33:41Z</time>
      </trkpt>
      <trkpt lat="42.470295" lon="1.570914">
        <time>2020-08-22T12:33:41Z</time>
      </trkpt>
      <trkpt lat="42.470283" lon="1.570910">
        <time>2020-08-22T12:33:41Z</time>
      </trkpt>
      <trkpt lat="42.470283" lon="1.570910">
        <time>2020-08-22T12:33:41Z</time>
      </trkpt>
      <trkpt lat="42.470276" lon="1.570905">
        <time>2020-08-22T12:33:41Z</time>
      </trkpt>
      <trkpt lat="42.470276" lon="1.570905">
        <time>2020-08-22T12:33:41Z</time>
      </trkpt>
      <trkpt lat="42.470261" lon="1.570900">
        <time>2020-08-22T12:33:41Z</time>
      </trkpt>
      <trkpt lat="42.470261" lon="1.570900">
        <time>2020-08-22T12:33:41Z</time>
      </trkpt>
      <trkpt lat="42.470249" lon="1.570895">
        <time>2020-08-22T12:33:41Z</time>
      </trkpt>
      <trkpt lat="42.470249" lon="1.570895">
        <time>2020-08-22T12:33:41Z</time>
      </trkpt>
      <trkpt lat="42.470242" lon="1.570889">
        <time>2020-08-22T12:33:41Z</time>
      </trkpt>
      <trkpt lat="42.470242" lon="1.570889">
        <time>2020-08-22T12:33:41Z</time>
      </trkpt>
      <trkpt lat="42.470230" lon="1.570883">
        <time>2020-08-22T12:33:41Z</time>
      </trkpt>
      <trkpt lat="42.470230" lon="1.570883">
        <time>2020-08-22T12:33:41Z</time>
      </trkpt>
      <trkpt lat="42.470219" lon="1.570877">
        <time>2020-08-22T12:33:48Z</time>
      </trkpt>
      <trkpt lat="42.470219" lon="1.570877">
        <time>2020-08-22T12:33:48Z</time>
      </trkpt>
      <trkpt lat="42.470207" lon="1.570872">
        <time>2020-08-22T12:33:48Z</time>
      </trkpt>
      <trkpt lat="42.470207" lon="1.570872">
        <time>2020-08-22T12:33:48Z</time>
      </trkpt>
      <trkpt lat="42.470196" lon="1.570866">
        <time>2020-08-22T12:33:48Z</time>
      </trkpt>
      <trkpt lat="42.470196" lon="1.570866">
        <time>2020-08-22T12:33:48Z</time>
      </trkpt>
      <trkpt lat="42.470188" lon="1.570859">
        <time>2020-08-22T12:33:48Z</time>
      </trkpt>
      <trkpt lat="42.470188" lon="1.570859">
        <time>2020-08-22T12:33:48Z</time>
      </trkpt>
      <trkpt lat="42.470181" lon="1.570852">
        <time>2020-08-22T12:33:48Z</time>
      </trkpt>
      <trkpt lat="42.470181" lon="1.570852">
        <time>2020-08-22T12:33:48Z</time>
      </trkpt>
      <trkpt lat="42.470169" lon="1.570846">
        <time>2020-08-22T12:33:48Z</time>
      </trkpt>
      <trkpt lat="42.470169" lon="1.570846">
        <time>2020-08-22T12:33:48Z</time>
      </trkpt>
      <trkpt lat="42.470161" lon="1.570839">
        <time>2020-08-22T12:33:48Z</time>
      </trkpt>
      <trkpt lat="42.470161" lon="1.570839">
        <time>2020-08-22T12:33:48Z</time>
      </trkpt>
      <trkpt lat="42.470154" lon="1.570832">
        <time>2020-08-22T12:33:55Z</time>
      </trkpt>
      <trkpt lat="42.470154" lon="1.570832">
        <time>2020-08-22T12:33:55Z</time>
      </trkpt>
      <trkpt lat="42.470142" lon="1.570824">
        <time>2020-08-22T12:33:55Z</time>
      </trkpt>
      <trkpt lat="42.470142" lon="1.570824">
        <time>2020-08-22T12:33:55Z</time>
      </trkpt>
      <trkpt lat="42.470135" lon="1.570815">
        <time>2020-08-22T12:33:55Z</time>
      </trkpt>
      <trkpt lat="42.470135" lon="1.570815">
        <time>2020-08-22T12:33:55Z</time>
      </trkpt>
      <trkpt lat="42.470123" lon="1.570805">
        <time>2020-08-22T12:33:55Z</time>
      </trkpt>
      <trkpt lat="42.470123" lon="1.570805">
        <time>2020-08-22T12:33:55Z</time>
      </trkpt>
      <trkpt lat="42.470108" lon="1.570795">
        <time>2020-08-22T12:33:55Z</time>
      </trkpt>
      <trkpt lat="42.470108" lon="1.570795">
        <time>2020-08-22T12:33:55Z</time>
      </trkpt>
      <trkpt lat="42.470097" lon="1.570785">
        <time>2020-08-22T12:33:55Z</time>
      </trkpt>
      <trkpt lat="42.470097" lon="1.570785">
        <time>2020-08-22T12:33:55Z</time>
      </trkpt>
      <trkpt lat="42.470085" lon="1.570776">
        <time>2020-08-22T12:33:55Z</time>
      </trkpt>
      <trkpt lat="42.470085" lon="1.570776">
        <time>2020-08-22T12:33:55Z</time>
      </trkpt>
      <trkpt lat="42.470070" lon="1.570766">
        <time>2020-08-22T12:34:02Z</time>
      </trkpt>
      <trkpt lat="42.470070" lon="1.570766">
        <time>2020-08-22T12:34:02Z</time>
      </trkpt>
      <trkpt lat="42.470055" lon="1.570757">
        <time>2020-08-22T12:34:02Z</time>
      </trkpt>
      <trkpt lat="42.470055" lon="1.570757">
        <time>2020-08-22T12:34:02Z</time>
      </trkpt>
      <trkpt lat="42.470036" lon="1.570747">
        <time>2020-08-22T12:34:02Z</time>
      </trkpt>
      <trkpt lat="42.470036" lon="1.570747">
        <time>2020-08-22T12:34:02Z</time>
      </trkpt>
      <trkpt lat="42.470020" lon="1.570738">
        <time>2020-08-22T12:34:02Z</time>
      </trkpt>
      <trkpt lat="42.470020" lon="1.570738">
        <time>2020-08-22T12:34:02Z</time>
      </trkpt>
      <trkpt lat="42.470005" lon="1.570728">
        <time>2020-08-22T12:34:02Z</time>
      </trkpt>
      <trkpt lat="42.470005" lon="1.570728">
        <time>2020-08-22T12:34:02Z</time>
      </trkpt>
      <trkpt lat="42.469994" lon="1.570721">
        <time>2020-08-22T12:34:02Z</time>
      </trkpt>
      <trkpt lat="42.469994" lon="1.570721">
        <time>2020-08-22T12:34:02Z</time>
      </trkpt>
      <trkpt lat="42.469978" lon="1.570713">
        <time>2020-08-22T12:34:02Z</time>
      </trkpt>
      <trkpt lat="42.469978" lon="1.570713">
        <time>2020-08-22T12:34:02Z</time>
      </trkpt>
      <trkpt lat="42.469967" lon="1.570706">
        <time>2020-08-22T12:34:09Z</time>
      </trkpt>
      <trkpt lat="42.469967" lon="1.570706">
        <time>2020-08-22T12:34:09Z</time>
      </trkpt>
      <trkpt lat="42.469955" lon="1.570698">
        <time>2020-08-22T12:34:09Z</time>
      </trkpt>
      <trkpt lat="42.469955" lon="1.570698">
        <time>2020-08-22T12:34:09Z</time>
      </trkpt>
      <trkpt lat="42.469940" lon="1.570690">
        <time>2020-08-22T12:34:09Z</time>
      </trkpt>
      <trkpt lat="42.469940" lon="1.570690">
        <time>2020-08-22T12:34:09Z</time>
      </trkpt>
      <trkpt lat="42.469933" lon="1.570682">
        <time>2020-08-22T12:34:09Z</time>
      </trkpt>
      <trkpt lat="42.469933" lon="1.570682">
        <time>2020-08-22T12:34:09Z</time>
      </trkpt>
      <trkpt lat="42.469921" lon="1.570673">
        <time>2020-08-22T12:34:09Z</time>
      </trkpt>
      <trkpt lat="42.469921" lon="1.570673">
        <time>2020-08-22T12:34:09Z</time>
      </trkpt>
      <trkpt lat="42.469913" lon="1.570666">
        <time>2020-08-22T12:34:09Z</time>
      </trkpt>
      <trkpt lat="42.469913" lon="1.570666">
        <time>2020-08-22T12:34:09Z</time>
      </trkpt>
      <trkpt lat="42.469879" lon="1.570630">
        <time>2020-08-22T12:34:58Z</time>
      </trkpt>
      <trkpt lat="42.469879" lon="1.570630">
        <time>2020-08-22T12:34:58Z</time>
      </trkpt>
      <trkpt lat="42.469872" lon="1.570630">
        <time>2020-08-22T12:34:58Z</time>
      </trkpt>
      <trkpt lat="42.469872" lon="1.570630">
        <time>2020-08-22T12:34:58Z</time>
      </trkpt>
      <trkpt lat="42.469872" lon="1.570629">
        <time>2020-08-22T12:34:58Z</time>
      </trkpt>
      <trkpt lat="42.469872" lon="1.570629">
        <time>2020-08-22T12:34:58Z</time>
      </trkpt>
      <trkpt lat="42.469868" lon="1.570627">
        <time>2020-08-22T12:34:58Z</time>
      </trkpt>
      <trkpt lat="42.469868" lon="1.570627">
        <time>2020-08-22T12:34:58Z</time>
      </trkpt>
      <trkpt lat="42.469868" lon="1.570624">
        <time>2020-08-22T12:34:58Z</time>
      </trkpt>
      <trkpt lat="42.469868" lon="1.570624">
        <time>2020-08-22T12:34:58Z</time>
      </trkpt>
      <trkpt lat="42.469860" lon="1.570621">
        <time>2020-08-22T12:34:58Z</time>
      </trkpt>
      <trkpt lat="42.469860" lon="1.570621">
        <time>2020-08-22T12:34:58Z</time>
      </trkpt>
      <trkpt lat="42.469860" lon="1.570618">
        <time>2020-08-22T12:34:58Z</time>
      </trkpt>
      <trkpt lat="42.469860" lon="1.570618">
        <time>2020-08-22T12:34:58Z</time>
      </trkpt>
      <trkpt lat="42.469852" lon="1.570614">
        <time>2020-08-22T12:35:05Z</time>
      </trkpt>
      <trkpt lat="42.469852" lon="1.570614">
        <time>2020-08-22T12:35:05Z</time>
      </trkpt>
      <trkpt lat="42.469849" lon="1.570611">
        <time>2020-08-22T12:35:05Z</time>
      </trkpt>
      <trkpt lat="42.469849" lon="1.570611">
        <time>2020-08-22T12:35:05Z</time>
      </trkpt>
      <trkpt lat="42.469841" lon="1.570607">
        <time>2020-08-22T12:35:05Z</time>
      </trkpt>
      <trkpt lat="42.469841" lon="1.570607">
        <time>2020-08-22T12:35:05Z</time>
      </trkpt>
      <trkpt lat="42.469833" lon="1.570600">
        <time>2020-08-22T12:35:05Z</time>
      </trkpt>
      <trkpt lat="42.469833" lon="1.570600">
        <time>2020-08-22T12:35:05Z</time>
      </trkpt>
      <trkpt lat="42.469826" lon="1.570593">
        <time>2020-08-22T12:35:05Z</time>
      </trkpt>
      <trkpt lat="42.469826" lon="1.570593">
        <time>2020-08-22T12:35:05Z</time>
      </trkpt>
      <trkpt lat="42.469814" lon="1.570585">
        <time>2020-08-22T12:35:05Z</time>
      </trkpt>
      <trkpt lat="42.469814" lon="1.570585">
        <time>2020-08-22T12:35:05Z</time>
      </trkpt>
      <trkpt lat="42.469807" lon="1.570576">
        <time>2020-08-22T12:35:05Z</time>
      </trkpt>
      <trkpt lat="42.469807" lon="1.570576">
        <time>2020-08-22T12:35:05Z</time>
      </trkpt>
      <trkpt lat="42.469799" lon="1.570567">
        <time>2020-08-22T12:35:05Z</time>
      </trkpt>
      <trkpt lat="42.469799" lon="1.570567">
        <time>2020-08-22T12:35:05Z</time>
      </trkpt>
      <trkpt lat="42.469788" lon="1.570557">
        <time>2020-08-22T12:35:05Z</time>
      </trkpt>
      <trkpt lat="42.469788" lon="1.570557">
        <time>2020-08-22T12:35:05Z</time>
      </trkpt>
      <trkpt lat="42.469780" lon="1.570547">
        <time>2020-08-22T12:35:05Z</time>
      </trkpt>
      <trkpt lat="42.469780" lon="1.570547">
        <time>2020-08-22T12:35:05Z</time>
      </trkpt>
      <trkpt lat="42.469772" lon="1.570536">
        <time>2020-08-22T12:35:05Z</time>
      </trkpt>
      <trkpt lat="42.469772" lon="1.570536">
        <time>2020-08-22T12:35:05Z</time>
      </trkpt>
      <trkpt lat="42.469765" lon="1.570525">
        <time>2020-08-22T12:35:12Z</time>
      </trkpt>
      <trkpt lat="42.469765" lon="1.570525">
        <time>2020-08-22T12:35:12Z</time>
      </trkpt>
      <trkpt lat="42.469757" lon="1.570514">
        <time>2020-08-22T12:35:12Z</time>
      </trkpt>
      <trkpt lat="42.469757" lon="1.570514">
        <time>2020-08-22T12:35:12Z</time>
      </trkpt>
      <trkpt lat="42.469749" lon="1.570503">
        <time>2020-08-22T12:35:12Z</time>
      </trkpt>
      <trkpt lat="42.469749" lon="1.570503">
        <time>2020-08-22T12:35:12Z</time>
      </trkpt>
      <trkpt lat="42.469746" lon="1.570492">
        <time>2020-08-22T12:35:12Z</time>
      </trkpt>
      <trkpt lat="42.469746" lon="1.570492">
        <time>2020-08-22T12:35:12Z</time>
      </trkpt>
      <trkpt lat="42.469734" lon="1.570482">
        <time>2020-08-22T12:35:12Z</time>
      </trkpt>
      <trkpt lat="42.469734" lon="1.570482">
        <time>2020-08-22T12:35:12Z</time>
      </trkpt>
      <trkpt lat="42.469727" lon="1.570472">
        <time>2020-08-22T12:35:12Z</time>
      </trkpt>
      <trkpt lat="42.469727" lon="1.570472">
        <time>2020-08-22T12:35:12Z</time>
      </trkpt>
      <trkpt lat="42.469723" lon="1.570463">
        <time>2020-08-22T12:35:12Z</time>
      </trkpt>
      <trkpt lat="42.469723" lon="1.570463">
        <time>2020-08-22T12:35:12Z</time>
      </trkpt>
      <trkpt lat="42.469715" lon="1.570454">
        <time>2020-08-22T12:35:19Z</time>
      </trkpt>
      <trkpt lat="42.469715" lon="1.570454">
        <time>2020-08-22T12:35:19Z</time>
      </trkpt>
      <trkpt lat="42.469707" lon="1.570446">
        <time>2020-08-22T12:35:19Z</time>
      </trkpt>
      <trkpt lat="42.469707" lon="1.570446">
        <time>2020-08-22T12:35:19Z</time>
      </trkpt>
      <trkpt lat="42.469700" lon="1.570439">
        <time>2020-08-22T12:35:19Z</time>
      </trkpt>
      <trkpt lat="42.469700" lon="1.570439">
        <time>2020-08-22T12:35:19Z</time>
      </trkpt>
      <trkpt lat="42.469696" lon="1.570431">
        <time>2020-08-22T12:35:19Z</time>
      </trkpt>
      <trkpt lat="42.469696" lon="1.570431">
        <time>2020-08-22T12:35:19Z</time>
      </trkpt>
      <trkpt lat="42.469688" lon="1.570423">
        <time>2020-08-22T12:35:19Z</time>
      </trkpt>
      <trkpt lat="42.469688" lon="1.570423">
        <time>2020-08-22T12:35:19Z</time>
      </trkpt>
      <trkpt lat="42.469681" lon="1.570415">
        <time>2020-08-22T12:35:19Z</time>
      </trkpt>
      <trkpt lat="42.469681" lon="1.570415">
        <time>2020-08-22T12:35:19Z</time>
      </trkpt>
      <trkpt lat="42.469673" lon="1.570407">
        <time>2020-08-22T12:35:19Z</time>
      </trkpt>
      <trkpt lat="42.469673" lon="1.570407">
        <time>2020-08-22T12:35:19Z</time>
      </trkpt>
      <trkpt lat="42.469666" lon="1.570398">
        <time>2020-08-22T12:35:26Z</time>
      </trkpt>
      <trkpt lat="42.469666" lon="1.570398">
        <time>2020-08-22T12:35:26Z</time>
      </trkpt>
      <trkpt lat="42.469658" lon="1.570390">
        <time>2020-08-22T12:35:26Z</time>
      </trkpt>
      <trkpt lat="42.469658" lon="1.570390">
        <time>2020-08-22T12:35:26Z</time>
      </trkpt>
      <trkpt lat="42.469646" lon="1.570382">
        <time>2020-08-22T12:35:26Z</time>
      </trkpt>
      <trkpt lat="42.469646" lon="1.570382">
        <time>2020-08-22T12:35:26Z</time>
      </trkpt>
      <trkpt lat="42.469639" lon="1.570374">
        <time>2020-08-22T12:35:26Z</time>
      </trkpt>
      <trkpt lat="42.469639" lon="1.570374">
        <time>2020-08-22T12:35:26Z</time>
      </trkpt>
      <trkpt lat="42.469631" lon="1.570366">
        <time>2020-08-22T12:35:26Z</time>
      </trkpt>
      <trkpt lat="42.469631" lon="1.570366">
        <time>2020-08-22T12:35:26Z</time>
      </trkpt>
      <trkpt lat="42.469627" lon="1.570358">
        <time>2020-08-22T12:35:26Z</time>
      </trkpt>
      <trkpt lat="42.469627" lon="1.570358">
        <time>2020-08-22T12:35:26Z</time>
      </trkpt>
      <trkpt lat="42.469620" lon="1.570350">
        <time>2020-08-22T12:35:26Z</time>
      </trkpt>
      <trkpt lat="42.469620" lon="1.570350">
        <time>2020-08-22T12:35:26Z</time>
      </trkpt>
      <trkpt lat="42.469612" lon="1.570343">
        <time>2020-08-22T12:35:33Z</time>
      </trkpt>
      <trkpt lat="42.469612" lon="1.570343">
        <time>2020-08-22T12:35:33Z</time>
      </trkpt>
      <trkpt lat="42.469604" lon="1.570336">
        <time>2020-08-22T12:35:33Z</time>
      </trkpt>
      <trkpt lat="42.469604" lon="1.570336">
        <time>2020-08-22T12:35:33Z</time>
      </trkpt>
      <trkpt lat="42.469593" lon="1.570330">
        <time>2020-08-22T12:35:33Z</time>
      </trkpt>
      <trkpt lat="42.469593" lon="1.570330">
        <time>2020-08-22T12:35:33Z</time>
      </trkpt>
      <trkpt lat="42.469585" lon="1.570324">
        <time>2020-08-22T12:35:33Z</time>
      </trkpt>
      <trkpt lat="42.469585" lon="1.570324">
        <time>2020-08-22T12:35:33Z</time>
      </trkpt>
      <trkpt lat="42.469578" lon="1.570317">
        <time>2020-08-22T12:35:33Z</time>
      </trkpt>
      <trkpt lat="42.469578" lon="1.570317">
        <time>2020-08-22T12:35:33Z</time>
      </trkpt>
      <trkpt lat="42.469570" lon="1.570311">
        <time>2020-08-22T12:35:33Z</time>
      </trkpt>
      <trkpt lat="42.469570" lon="1.570311">
        <time>2020-08-22T12:35:33Z</time>
      </trkpt>
      <trkpt lat="42.469559" lon="1.570305">
        <time>2020-08-22T12:35:33Z</time>
      </trkpt>
      <trkpt lat="42.469559" lon="1.570305">
        <time>2020-08-22T12:35:33Z</time>
      </trkpt>
      <trkpt lat="42.469551" lon="1.570299">
        <time>2020-08-22T12:35:40Z</time>
      </trkpt>
      <trkpt lat="42.469551" lon="1.570299">
        <time>2020-08-22T12:35:40Z</time>
      </trkpt>
      <trkpt lat="42.469543" lon="1.570293">
        <time>2020-08-22T12:35:40Z</time>
      </trkpt>
      <trkpt lat="42.469543" lon="1.570293">
        <time>2020-08-22T12:35:40Z</time>
      </trkpt>
      <trkpt lat="42.469532" lon="1.570286">
        <time>2020-08-22T12:35:40Z</time>
      </trkpt>
      <trkpt lat="42.469532" lon="1.570286">
        <time>2020-08-22T12:35:40Z</time>
      </trkpt>
      <trkpt lat="42.469524" lon="1.570279">
        <time>2020-08-22T12:35:40Z</time>
      </trkpt>
      <trkpt lat="42.469524" lon="1.570279">
        <time>2020-08-22T12:35:40Z</time>
      </trkpt>
      <trkpt lat="42.469509" lon="1.570269">
        <time>2020-08-22T12:35:47Z</time>
      </trkpt>
      <trkpt lat="42.469509" lon="1.570269">
        <time>2020-08-22T12:35:47Z</time>
      </trkpt>
      <trkpt lat="42.469494" lon="1.570261">
        <time>2020-08-22T12:35:47Z</time>
      </trkpt>
      <trkpt lat="42.469494" lon="1.570261">
        <time>2020-08-22T12:35:47Z</time>
      </trkpt>
      <trkpt lat="42.469479" lon="1.570255">
        <time>2020-08-22T12:35:47Z</time>
      </trkpt>
      <trkpt lat="42.469479" lon="1.570255">
        <time>2020-08-22T12:35:47Z</time>
      </trkpt>
      <trkpt lat="42.469467" lon="1.570251">
        <time>2020-08-22T12:35:47Z</time>
      </trkpt>
      <trkpt lat="42.469467" lon="1.570251">
        <time>2020-08-22T12:35:47Z</time>
      </trkpt>
      <trkpt lat="42.469452" lon="1.570248">
        <time>2020-08-22T12:35:47Z</time>
      </trkpt>
      <trkpt lat="42.469452" lon="1.570248">
        <time>2020-08-22T12:35:47Z</time>
      </trkpt>
      <trkpt lat="42.469440" lon="1.570247">
        <time>2020-08-22T12:35:47Z</time>
      </trkpt>
      <trkpt lat="42.469440" lon="1.570247">
        <time>2020-08-22T12:35:47Z</time>
      </trkpt>
      <trkpt lat="42.469425" lon="1.570247">
        <time>2020-08-22T12:35:47Z</time>
      </trkpt>
      <trkpt lat="42.469425" lon="1.570247">
        <time>2020-08-22T12:35:47Z</time>
      </trkpt>
      <trkpt lat="42.469414" lon="1.570249">
        <time>2020-08-22T12:35:54Z</time>
      </trkpt>
      <trkpt lat="42.469414" lon="1.570249">
        <time>2020-08-22T12:35:54Z</time>
      </trkpt>
      <trkpt lat="42.469402" lon="1.570252">
        <time>2020-08-22T12:35:54Z</time>
      </trkpt>
      <trkpt lat="42.469402" lon="1.570252">
        <time>2020-08-22T12:35:54Z</time>
      </trkpt>
      <trkpt lat="42.469391" lon="1.570258">
        <time>2020-08-22T12:35:54Z</time>
      </trkpt>
      <trkpt lat="42.469391" lon="1.570258">
        <time>2020-08-22T12:35:54Z</time>
      </trkpt>
      <trkpt lat="42.469387" lon="1.570267">
        <time>2020-08-22T12:35:54Z</time>
      </trkpt>
      <trkpt lat="42.469387" lon="1.570267">
        <time>2020-08-22T12:35:54Z</time>
      </trkpt>
      <trkpt lat="42.469383" lon="1.570275">
        <time>2020-08-22T12:35:54Z</time>
      </trkpt>
      <trkpt lat="42.469383" lon="1.570275">
        <time>2020-08-22T12:35:54Z</time>
      </trkpt>
      <trkpt lat="42.469372" lon="1.570282">
        <time>2020-08-22T12:35:54Z</time>
      </trkpt>
      <trkpt lat="42.469372" lon="1.570282">
        <time>2020-08-22T12:35:54Z</time>
      </trkpt>
      <trkpt lat="42.469368" lon="1.570288">
        <time>2020-08-22T12:35:54Z</time>
      </trkpt>
      <trkpt lat="42.469368" lon="1.570288">
        <time>2020-08-22T12:35:54Z</time>
      </trkpt>
      <trkpt lat="42.469364" lon="1.570292">
        <time>2020-08-22T12:36:01Z</time>
      </trkpt>
      <trkpt lat="42.469364" lon="1.570292">
        <time>2020-08-22T12:36:01Z</time>
      </trkpt>
      <trkpt lat="42.469357" lon="1.570294">
        <time>2020-08-22T12:36:01Z</time>
      </trkpt>
      <trkpt lat="42.469357" lon="1.570294">
        <time>2020-08-22T12:36:01Z</time>
      </trkpt>
      <trkpt lat="42.469349" lon="1.570296">
        <time>2020-08-22T12:36:01Z</time>
      </trkpt>
      <trkpt lat="42.469349" lon="1.570296">
        <time>2020-08-22T12:36:01Z</time>
      </trkpt>
      <trkpt lat="42.469345" lon="1.570296">
        <time>2020-08-22T12:36:01Z</time>
      </trkpt>
      <trkpt lat="42.469345" lon="1.570296">
        <time>2020-08-22T12:36:01Z</time>
      </trkpt>
      <trkpt lat="42.469337" lon="1.570295">
        <time>2020-08-22T12:36:01Z</time>
      </trkpt>
      <trkpt lat="42.469337" lon="1.570295">
        <time>2020-08-22T12:36:01Z</time>
      </trkpt>
      <trkpt lat="42.469334" lon="1.570293">
        <time>2020-08-22T12:36:01Z</time>
      </trkpt>
      <trkpt lat="42.469334" lon="1.570293">
        <time>2020-08-22T12:36:01Z</time>
      </trkpt>
      <trkpt lat="42.469330" lon="1.570290">
        <time>2020-08-22T12:36:01Z</time>
      </trkpt>
      <trkpt lat="42.469330" lon="1.570290">
        <time>2020-08-22T12:36:01Z</time>
      </trkpt>
      <trkpt lat="42.469330" lon="1.570285">
        <time>2020-08-22T12:36:01Z</time>
      </trkpt>
      <trkpt lat="42.469330" lon="1.570285">
        <time>2020-08-22T12:36:01Z</time>
      </trkpt>
      <trkpt lat="42.469322" lon="1.570280">
        <time>2020-08-22T12:36:09Z</time>
      </trkpt>
      <trkpt lat="42.469322" lon="1.570280">
        <time>2020-08-22T12:36:09Z</time>
      </trkpt>
      <trkpt lat="42.469322" lon="1.570273">
        <time>2020-08-22T12:36:09Z</time>
      </trkpt>
      <trkpt lat="42.469322" lon="1.570273">
        <time>2020-08-22T12:36:09Z</time>
      </trkpt>
      <trkpt lat="42.469318" lon="1.570267">
        <time>2020-08-22T12:36:09Z</time>
      </trkpt>
      <trkpt lat="42.469318" lon="1.570267">
        <time>2020-08-22T12:36:09Z</time>
      </trkpt>
      <trkpt lat="42.469318" lon="1.570259">
        <time>2020-08-22T12:36:09Z</time>
      </trkpt>
      <trkpt lat="42.469318" lon="1.570259">
        <time>2020-08-22T12:36:09Z</time>
      </trkpt>
      <trkpt lat="42.469318" lon="1.570251">
        <time>2020-08-22T12:36:09Z</time>
      </trkpt>
      <trkpt lat="42.469318" lon="1.570251">
        <time>2020-08-22T12:36:09Z</time>
      </trkpt>
      <trkpt lat="42.469318" lon="1.570242">
        <time>2020-08-22T12:36:09Z</time>
      </trkpt>
      <trkpt lat="42.469318" lon="1.570242">
        <time>2020-08-22T12:36:09Z</time>
      </trkpt>
      <trkpt lat="42.469318" lon="1.570231">
        <time>2020-08-22T12:36:16Z</time>
      </trkpt>
      <trkpt lat="42.469318" lon="1.570231">
        <time>2020-08-22T12:36:16Z</time>
      </trkpt>
      <trkpt lat="42.469318" lon="1.570220">
        <time>2020-08-22T12:36:16Z</time>
      </trkpt>
      <trkpt lat="42.469318" lon="1.570220">
        <time>2020-08-22T12:36:16Z</time>
      </trkpt>
      <trkpt lat="42.469315" lon="1.570192">
        <time>2020-08-22T12:36:16Z</time>
      </trkpt>
      <trkpt lat="42.469315" lon="1.570192">
        <time>2020-08-22T12:36:16Z</time>
      </trkpt>
      <trkpt lat="42.469311" lon="1.570162">
        <time>2020-08-22T12:36:16Z</time>
      </trkpt>
      <trkpt lat="42.469311" lon="1.570162">
        <time>2020-08-22T12:36:16Z</time>
      </trkpt>
      <trkpt lat="42.469311" lon="1.570130">
        <time>2020-08-22T12:36:16Z</time>
      </trkpt>
      <trkpt lat="42.469311" lon="1.570130">
        <time>2020-08-22T12:36:16Z</time>
      </trkpt>
      <trkpt lat="42.469311" lon="1.570097">
        <time>2020-08-22T12:36:16Z</time>
      </trkpt>
      <trkpt lat="42.469311" lon="1.570097">
        <time>2020-08-22T12:36:16Z</time>
      </trkpt>
      <trkpt lat="42.469311" lon="1.570061">
        <time>2020-08-22T12:36:30Z</time>
      </trkpt>
      <trkpt lat="42.469311" lon="1.570061">
        <time>2020-08-22T12:36:30Z</time>
      </trkpt>
      <trkpt lat="42.469311" lon="1.570025">
        <time>2020-08-22T12:36:30Z</time>
      </trkpt>
      <trkpt lat="42.469311" lon="1.570025">
        <time>2020-08-22T12:36:30Z</time>
      </trkpt>
      <trkpt lat="42.469311" lon="1.569990">
        <time>2020-08-22T12:36:30Z</time>
      </trkpt>
      <trkpt lat="42.469311" lon="1.569990">
        <time>2020-08-22T12:36:30Z</time>
      </trkpt>
      <trkpt lat="42.469307" lon="1.569955">
        <time>2020-08-22T12:36:30Z</time>
      </trkpt>
      <trkpt lat="42.469307" lon="1.569955">
        <time>2020-08-22T12:36:30Z</time>
      </trkpt>
      <trkpt lat="42.469307" lon="1.569921">
        <time>2020-08-22T12:36:30Z</time>
      </trkpt>
      <trkpt lat="42.469307" lon="1.569921">
        <time>2020-08-22T12:36:30Z</time>
      </trkpt>
      <trkpt lat="42.469307" lon="1.569887">
        <time>2020-08-22T12:36:30Z</time>
      </trkpt>
      <trkpt lat="42.469307" lon="1.569887">
        <time>2020-08-22T12:36:30Z</time>
      </trkpt>
      <trkpt lat="42.469307" lon="1.569908">
        <time>2020-08-22T12:36:30Z</time>
      </trkpt>
      <trkpt lat="42.469307" lon="1.569908">
        <time>2020-08-22T12:36:30Z</time>
      </trkpt>
      <trkpt lat="42.469311" lon="1.569928">
        <time>2020-08-22T12:36:30Z</time>
      </trkpt>
      <trkpt lat="42.469311" lon="1.569928">
        <time>2020-08-22T12:36:30Z</time>
      </trkpt>
      <trkpt lat="42.469311" lon="1.569947">
        <time>2020-08-22T12:36:30Z</time>
      </trkpt>
      <trkpt lat="42.469311" lon="1.569947">
        <time>2020-08-22T12:36:30Z</time>
      </trkpt>
      <trkpt lat="42.469311" lon="1.569966">
        <time>2020-08-22T12:36:30Z</time>
      </trkpt>
      <trkpt lat="42.469311" lon="1.569966">
        <time>2020-08-22T12:36:30Z</time>
      </trkpt>
      <trkpt lat="42.469311" lon="1.569985">
        <time>2020-08-22T12:36:44Z</time>
      </trkpt>
      <trkpt lat="42.469311" lon="1.569985">
        <time>2020-08-22T12:36:44Z</time>
      </trkpt>
      <trkpt lat="42.469311" lon="1.570001">
        <time>2020-08-22T12:36:44Z</time>
      </trkpt>
      <trkpt lat="42.469311" lon="1.570001">
        <time>2020-08-22T12:36:44Z</time>
      </trkpt>
      <trkpt lat="42.469311" lon="1.570015">
        <time>2020-08-22T12:36:44Z</time>
      </trkpt>
      <trkpt lat="42.469311" lon="1.570015">
        <time>2020-08-22T12:36:44Z</time>
      </trkpt>
      <trkpt lat="42.469311" lon="1.570027">
        <time>2020-08-22T12:36:44Z</time>
      </trkpt>
      <trkpt lat="42.469311" lon="1.570027">
        <time>2020-08-22T12:36:44Z</time>
      </trkpt>
      <trkpt lat="42.469311" lon="1.570035">
        <time>2020-08-22T12:36:44Z</time>
      </trkpt>
      <trkpt lat="42.469311" lon="1.570035">
        <time>2020-08-22T12:36:44Z</time>
      </trkpt>
      <trkpt lat="42.469311" lon="1.570042">
        <time>2020-08-22T12:36:44Z</time>
      </trkpt>
      <trkpt lat="42.469311" lon="1.570042">
        <time>2020-08-22T12:36:44Z</time>
      </trkpt>
      <trkpt lat="42.469318" lon="1.569829">
        <time>2020-08-22T12:37:26Z</time>
      </trkpt>
      <trkpt lat="42.469318" lon="1.569829">
        <time>2020-08-22T12:37:26Z</time>
      </trkpt>
      <trkpt lat="42.469318" lon="1.569827">
        <time>2020-08-22T12:37:26Z</time>
      </trkpt>
      <trkpt lat="42.469318" lon="1.569827">
        <time>2020-08-22T12:37:26Z</time>
      </trkpt>
      <trkpt lat="42.469315" lon="1.569824">
        <time>2020-08-22T12:37:26Z</time>
      </trkpt>
      <trkpt lat="42.469315" lon="1.569824">
        <time>2020-08-22T12:37:26Z</time>
      </trkpt>
      <trkpt lat="42.469311" lon="1.569820">
        <time>2020-08-22T12:37:26Z</time>
      </trkpt>
      <trkpt lat="42.469311" lon="1.569820">
        <time>2020-08-22T12:37:26Z</time>
      </trkpt>
      <trkpt lat="42.469307" lon="1.569815">
        <time>2020-08-22T12:37:26Z</time>
      </trkpt>
      <trkpt lat="42.469307" lon="1.569815">
        <time>2020-08-22T12:37:26Z</time>
      </trkpt>
      <trkpt lat="42.469303" lon="1.569810">
        <time>2020-08-22T12:37:26Z</time>
      </trkpt>
      <trkpt lat="42.469303" lon="1.569810">
        <time>2020-08-22T12:37:26Z</time>
      </trkpt>
      <trkpt lat="42.469292" lon="1.569803">
        <time>2020-08-22T12:37:26Z</time>
      </trkpt>
      <trkpt lat="42.469292" lon="1.569803">
        <time>2020-08-22T12:37:26Z</time>
      </trkpt>
      <trkpt lat="42.469288" lon="1.569797">
        <time>2020-08-22T12:37:33Z</time>
      </trkpt>
      <trkpt lat="42.469288" lon="1.569797">
        <time>2020-08-22T12:37:33Z</time>
      </trkpt>
      <trkpt lat="42.469284" lon="1.569790">
        <time>2020-08-22T12:37:33Z</time>
      </trkpt>
      <trkpt lat="42.469284" lon="1.569790">
        <time>2020-08-22T12:37:33Z</time>
      </trkpt>
      <trkpt lat="42.469276" lon="1.569782">
        <time>2020-08-22T12:37:33Z</time>
      </trkpt>
      <trkpt lat="42.469276" lon="1.569782">
        <time>2020-08-22T12:37:33Z</time>
      </trkpt>
      <trkpt lat="42.469265" lon="1.569770">
        <time>2020-08-22T12:37:33Z</time>
      </trkpt>
      <trkpt lat="42.469265" lon="1.569770">
        <time>2020-08-22T12:37:33Z</time>
      </trkpt>
      <trkpt lat="42.469254" lon="1.569756">
        <time>2020-08-22T12:37:33Z</time>
      </trkpt>
      <trkpt lat="42.469254" lon="1.569756">
        <time>2020-08-22T12:37:33Z</time>
      </trkpt>
      <trkpt lat="42.469242" lon="1.569741">
        <time>2020-08-22T12:37:33Z</time>
      </trkpt>
      <trkpt lat="42.469242" lon="1.569741">
        <time>2020-08-22T12:37:33Z</time>
      </trkpt>
      <trkpt lat="42.469231" lon="1.569725">
        <time>2020-08-22T12:37:33Z</time>
      </trkpt>
      <trkpt lat="42.469231" lon="1.569725">
        <time>2020-08-22T12:37:33Z</time>
      </trkpt>
      <trkpt lat="42.469219" lon="1.569709">
        <time>2020-08-22T12:37:40Z</time>
      </trkpt>
      <trkpt lat="42.469219" lon="1.569709">
        <time>2020-08-22T12:37:40Z</time>
      </trkpt>
      <trkpt lat="42.469212" lon="1.569693">
        <time>2020-08-22T12:37:40Z</time>
      </trkpt>
      <trkpt lat="42.469212" lon="1.569693">
        <time>2020-08-22T12:37:40Z</time>
      </trkpt>
      <trkpt lat="42.469200" lon="1.569677">
        <time>2020-08-22T12:37:40Z</time>
      </trkpt>
      <trkpt lat="42.469200" lon="1.569677">
        <time>2020-08-22T12:37:40Z</time>
      </trkpt>
      <trkpt lat="42.469192" lon="1.569661">
        <time>2020-08-22T12:37:40Z</time>
      </trkpt>
      <trkpt lat="42.469192" lon="1.569661">
        <time>2020-08-22T12:37:40Z</time>
      </trkpt>
      <trkpt lat="42.469185" lon="1.569645">
        <time>2020-08-22T12:37:40Z</time>
      </trkpt>
      <trkpt lat="42.469185" lon="1.569645">
        <time>2020-08-22T12:37:40Z</time>
      </trkpt>
      <trkpt lat="42.469177" lon="1.569629">
        <time>2020-08-22T12:37:40Z</time>
      </trkpt>
      <trkpt lat="42.469177" lon="1.569629">
        <time>2020-08-22T12:37:40Z</time>
      </trkpt>
      <trkpt lat="42.469170" lon="1.569613">
        <time>2020-08-22T12:37:40Z</time>
      </trkpt>
      <trkpt lat="42.469170" lon="1.569613">
        <time>2020-08-22T12:37:40Z</time>
      </trkpt>
      <trkpt lat="42.469162" lon="1.569597">
        <time>2020-08-22T12:37:47Z</time>
      </trkpt>
      <trkpt lat="42.469162" lon="1.569597">
        <time>2020-08-22T12:37:47Z</time>
      </trkpt>
      <trkpt lat="42.469158" lon="1.569581">
        <time>2020-08-22T12:37:47Z</time>
      </trkpt>
      <trkpt lat="42.469158" lon="1.569581">
        <time>2020-08-22T12:37:47Z</time>
      </trkpt>
      <trkpt lat="42.469151" lon="1.569564">
        <time>2020-08-22T12:37:47Z</time>
      </trkpt>
      <trkpt lat="42.469151" lon="1.569564">
        <time>2020-08-22T12:37:47Z</time>
      </trkpt>
      <trkpt lat="42.469147" lon="1.569548">
        <time>2020-08-22T12:37:47Z</time>
      </trkpt>
      <trkpt lat="42.469147" lon="1.569548">
        <time>2020-08-22T12:37:47Z</time>
      </trkpt>
      <trkpt lat="42.469143" lon="1.569532">
        <time>2020-08-22T12:37:47Z</time>
      </trkpt>
      <trkpt lat="42.469143" lon="1.569532">
        <time>2020-08-22T12:37:47Z</time>
      </trkpt>
      <trkpt lat="42.469135" lon="1.569516">
        <time>2020-08-22T12:37:47Z</time>
      </trkpt>
      <trkpt lat="42.469135" lon="1.569516">
        <time>2020-08-22T12:37:47Z</time>
      </trkpt>
      <trkpt lat="42.469131" lon="1.569500">
        <time>2020-08-22T12:37:47Z</time>
      </trkpt>
      <trkpt lat="42.469131" lon="1.569500">
        <time>2020-08-22T12:37:47Z</time>
      </trkpt>
      <trkpt lat="42.469124" lon="1.569485">
        <time>2020-08-22T12:37:54Z</time>
      </trkpt>
      <trkpt lat="42.469124" lon="1.569485">
        <time>2020-08-22T12:37:54Z</time>
      </trkpt>
      <trkpt lat="42.469120" lon="1.569469">
        <time>2020-08-22T12:37:54Z</time>
      </trkpt>
      <trkpt lat="42.469120" lon="1.569469">
        <time>2020-08-22T12:37:54Z</time>
      </trkpt>
      <trkpt lat="42.469112" lon="1.569454">
        <time>2020-08-22T12:37:54Z</time>
      </trkpt>
      <trkpt lat="42.469112" lon="1.569454">
        <time>2020-08-22T12:37:54Z</time>
      </trkpt>
      <trkpt lat="42.469105" lon="1.569439">
        <time>2020-08-22T12:37:54Z</time>
      </trkpt>
      <trkpt lat="42.469105" lon="1.569439">
        <time>2020-08-22T12:37:54Z</time>
      </trkpt>
      <trkpt lat="42.469097" lon="1.569425">
        <time>2020-08-22T12:37:54Z</time>
      </trkpt>
      <trkpt lat="42.469097" lon="1.569425">
        <time>2020-08-22T12:37:54Z</time>
      </trkpt>
      <trkpt lat="42.469093" lon="1.569412">
        <time>2020-08-22T12:37:54Z</time>
      </trkpt>
      <trkpt lat="42.469093" lon="1.569412">
        <time>2020-08-22T12:37:54Z</time>
      </trkpt>
      <trkpt lat="42.469086" lon="1.569399">
        <time>2020-08-22T12:37:54Z</time>
      </trkpt>
      <trkpt lat="42.469086" lon="1.569399">
        <time>2020-08-22T12:37:54Z</time>
      </trkpt>
      <trkpt lat="42.469078" lon="1.569386">
        <time>2020-08-22T12:38:01Z</time>
      </trkpt>
      <trkpt lat="42.469078" lon="1.569386">
        <time>2020-08-22T12:38:01Z</time>
      </trkpt>
      <trkpt lat="42.469070" lon="1.569373">
        <time>2020-08-22T12:38:01Z</time>
      </trkpt>
      <trkpt lat="42.469070" lon="1.569373">
        <time>2020-08-22T12:38:01Z</time>
      </trkpt>
      <trkpt lat="42.469063" lon="1.569360">
        <time>2020-08-22T12:38:01Z</time>
      </trkpt>
      <trkpt lat="42.469063" lon="1.569360">
        <time>2020-08-22T12:38:01Z</time>
      </trkpt>
      <trkpt lat="42.469055" lon="1.569348">
        <time>2020-08-22T12:38:01Z</time>
      </trkpt>
      <trkpt lat="42.469055" lon="1.569348">
        <time>2020-08-22T12:38:01Z</time>
      </trkpt>
      <trkpt lat="42.469051" lon="1.569335">
        <time>2020-08-22T12:38:01Z</time>
      </trkpt>
      <trkpt lat="42.469051" lon="1.569335">
        <time>2020-08-22T12:38:01Z</time>
      </trkpt>
      <trkpt lat="42.469044" lon="1.569323">
        <time>2020-08-22T12:38:01Z</time>
      </trkpt>
      <trkpt lat="42.469044" lon="1.569323">
        <time>2020-08-22T12:38:01Z</time>
      </trkpt>
      <trkpt lat="42.469036" lon="1.569311">
        <time>2020-08-22T12:38:01Z</time>
      </trkpt>
      <trkpt lat="42.469036" lon="1.569311">
        <time>2020-08-22T12:38:01Z</time>
      </trkpt>
      <trkpt lat="42.469028" lon="1.569299">
        <time>2020-08-22T12:38:08Z</time>
      </trkpt>
      <trkpt lat="42.469028" lon="1.569299">
        <time>2020-08-22T12:38:08Z</time>
      </trkpt>
      <trkpt lat="42.469025" lon="1.569287">
        <time>2020-08-22T12:38:08Z</time>
      </trkpt>
      <trkpt lat="42.469025" lon="1.569287">
        <time>2020-08-22T12:38:08Z</time>
      </trkpt>
      <trkpt lat="42.469017" lon="1.569274">
        <time>2020-08-22T12:38:08Z</time>
      </trkpt>
      <trkpt lat="42.469017" lon="1.569274">
        <time>2020-08-22T12:38:08Z</time>
      </trkpt>
      <trkpt lat="42.469013" lon="1.569260">
        <time>2020-08-22T12:38:08Z</time>
      </trkpt>
      <trkpt lat="42.469013" lon="1.569260">
        <time>2020-08-22T12:38:08Z</time>
      </trkpt>
      <trkpt lat="42.469009" lon="1.569247">
        <time>2020-08-22T12:38:08Z</time>
      </trkpt>
      <trkpt lat="42.469009" lon="1.569247">
        <time>2020-08-22T12:38:08Z</time>
      </trkpt>
      <trkpt lat="42.469002" lon="1.569234">
        <time>2020-08-22T12:38:08Z</time>
      </trkpt>
      <trkpt lat="42.469002" lon="1.569234">
        <time>2020-08-22T12:38:08Z</time>
      </trkpt>
      <trkpt lat="42.468998" lon="1.569221">
        <time>2020-08-22T12:38:08Z</time>
      </trkpt>
      <trkpt lat="42.468998" lon="1.569221">
        <time>2020-08-22T12:38:08Z</time>
      </trkpt>
      <trkpt lat="42.468990" lon="1.569208">
        <time>2020-08-22T12:38:17Z</time>
      </trkpt>
      <trkpt lat="42.468990" lon="1.569208">
        <time>2020-08-22T12:38:17Z</time>
      </trkpt>
      <trkpt lat="42.468983" lon="1.569194">
        <time>2020-08-22T12:38:17Z</time>
      </trkpt>
      <trkpt lat="42.468983" lon="1.569194">
        <time>2020-08-22T12:38:17Z</time>
      </trkpt>
      <trkpt lat="42.468971" lon="1.569181">
        <time>2020-08-22T12:38:17Z</time>
      </trkpt>
      <trkpt lat="42.468971" lon="1.569181">
        <time>2020-08-22T12:38:17Z</time>
      </trkpt>
      <trkpt lat="42.468964" lon="1.569169">
        <time>2020-08-22T12:38:17Z</time>
      </trkpt>
      <trkpt lat="42.468964" lon="1.569169">
        <time>2020-08-22T12:38:17Z</time>
      </trkpt>
      <trkpt lat="42.468952" lon="1.569157">
        <time>2020-08-22T12:38:26Z</time>
      </trkpt>
      <trkpt lat="42.468952" lon="1.569157">
        <time>2020-08-22T12:38:26Z</time>
      </trkpt>
      <trkpt lat="42.468941" lon="1.569147">
        <time>2020-08-22T12:38:26Z</time>
      </trkpt>
      <trkpt lat="42.468941" lon="1.569147">
        <time>2020-08-22T12:38:26Z</time>
      </trkpt>
      <trkpt lat="42.468933" lon="1.569137">
        <time>2020-08-22T12:38:26Z</time>
      </trkpt>
      <trkpt lat="42.468933" lon="1.569137">
        <time>2020-08-22T12:38:26Z</time>
      </trkpt>
      <trkpt lat="42.468922" lon="1.569128">
        <time>2020-08-22T12:38:26Z</time>
      </trkpt>
      <trkpt lat="42.468922" lon="1.569128">
        <time>2020-08-22T12:38:26Z</time>
      </trkpt>
      <trkpt lat="42.468910" lon="1.569120">
        <time>2020-08-22T12:38:33Z</time>
      </trkpt>
      <trkpt lat="42.468910" lon="1.569120">
        <time>2020-08-22T12:38:33Z</time>
      </trkpt>
      <trkpt lat="42.468903" lon="1.569112">
        <time>2020-08-22T12:38:33Z</time>
      </trkpt>
      <trkpt lat="42.468903" lon="1.569112">
        <time>2020-08-22T12:38:33Z</time>
      </trkpt>
      <trkpt lat="42.468895" lon="1.569105">
        <time>2020-08-22T12:38:33Z</time>
      </trkpt>
      <trkpt lat="42.468895" lon="1.569105">
        <time>2020-08-22T12:38:33Z</time>
      </trkpt>
      <trkpt lat="42.468887" lon="1.569098">
        <time>2020-08-22T12:38:33Z</time>
      </trkpt>
      <trkpt lat="42.468887" lon="1.569098">
        <time>2020-08-22T12:38:33Z</time>
      </trkpt>
      <trkpt lat="42.468884" lon="1.569092">
        <time>2020-08-22T12:38:33Z</time>
      </trkpt>
      <trkpt lat="42.468884" lon="1.569092">
        <time>2020-08-22T12:38:33Z</time>
      </trkpt>
      <trkpt lat="42.468876" lon="1.569085">
        <time>2020-08-22T12:38:33Z</time>
      </trkpt>
      <trkpt lat="42.468876" lon="1.569085">
        <time>2020-08-22T12:38:33Z</time>
      </trkpt>
      <trkpt lat="42.468872" lon="1.569078">
        <time>2020-08-22T12:38:33Z</time>
      </trkpt>
      <trkpt lat="42.468872" lon="1.569078">
        <time>2020-08-22T12:38:33Z</time>
      </trkpt>
      <trkpt lat="42.468868" lon="1.569069">
        <time>2020-08-22T12:38:40Z</time>
      </trkpt>
      <trkpt lat="42.468868" lon="1.569069">
        <time>2020-08-22T12:38:40Z</time>
      </trkpt>
      <trkpt lat="42.468864" lon="1.569060">
        <time>2020-08-22T12:38:40Z</time>
      </trkpt>
      <trkpt lat="42.468864" lon="1.569060">
        <time>2020-08-22T12:38:40Z</time>
      </trkpt>
      <trkpt lat="42.468861" lon="1.569050">
        <time>2020-08-22T12:38:40Z</time>
      </trkpt>
      <trkpt lat="42.468861" lon="1.569050">
        <time>2020-08-22T12:38:40Z</time>
      </trkpt>
      <trkpt lat="42.468857" lon="1.569040">
        <time>2020-08-22T12:38:40Z</time>
      </trkpt>
      <trkpt lat="42.468857" lon="1.569040">
        <time>2020-08-22T12:38:40Z</time>
      </trkpt>
      <trkpt lat="42.468853" lon="1.569028">
        <time>2020-08-22T12:38:40Z</time>
      </trkpt>
      <trkpt lat="42.468853" lon="1.569028">
        <time>2020-08-22T12:38:40Z</time>
      </trkpt>
      <trkpt lat="42.468849" lon="1.569016">
        <time>2020-08-22T12:38:40Z</time>
      </trkpt>
      <trkpt lat="42.468849" lon="1.569016">
        <time>2020-08-22T12:38:40Z</time>
      </trkpt>
      <trkpt lat="42.468849" lon="1.569002">
        <time>2020-08-22T12:38:40Z</time>
      </trkpt>
      <trkpt lat="42.468849" lon="1.569002">
        <time>2020-08-22T12:38:40Z</time>
      </trkpt>
      <trkpt lat="42.468845" lon="1.568989">
        <time>2020-08-22T12:38:47Z</time>
      </trkpt>
      <trkpt lat="42.468845" lon="1.568989">
        <time>2020-08-22T12:38:47Z</time>
      </trkpt>
      <trkpt lat="42.468842" lon="1.568975">
        <time>2020-08-22T12:38:47Z</time>
      </trkpt>
      <trkpt lat="42.468842" lon="1.568975">
        <time>2020-08-22T12:38:47Z</time>
      </trkpt>
      <trkpt lat="42.468842" lon="1.568961">
        <time>2020-08-22T12:38:47Z</time>
      </trkpt>
      <trkpt lat="42.468842" lon="1.568961">
        <time>2020-08-22T12:38:47Z</time>
      </trkpt>
      <trkpt lat="42.468838" lon="1.568947">
        <time>2020-08-22T12:38:47Z</time>
      </trkpt>
      <trkpt lat="42.468838" lon="1.568947">
        <time>2020-08-22T12:38:47Z</time>
      </trkpt>
      <trkpt lat="42.468834" lon="1.568933">
        <time>2020-08-22T12:38:47Z</time>
      </trkpt>
      <trkpt lat="42.468834" lon="1.568933">
        <time>2020-08-22T12:38:47Z</time>
      </trkpt>
      <trkpt lat="42.468830" lon="1.568919">
        <time>2020-08-22T12:38:47Z</time>
      </trkpt>
      <trkpt lat="42.468830" lon="1.568919">
        <time>2020-08-22T12:38:47Z</time>
      </trkpt>
      <trkpt lat="42.468830" lon="1.568905">
        <time>2020-08-22T12:38:47Z</time>
      </trkpt>
      <trkpt lat="42.468830" lon="1.568905">
        <time>2020-08-22T12:38:47Z</time>
      </trkpt>
      <trkpt lat="42.468826" lon="1.568891">
        <time>2020-08-22T12:38:54Z</time>
      </trkpt>
      <trkpt lat="42.468826" lon="1.568891">
        <time>2020-08-22T12:38:54Z</time>
      </trkpt>
      <trkpt lat="42.468822" lon="1.568877">
        <time>2020-08-22T12:38:54Z</time>
      </trkpt>
      <trkpt lat="42.468822" lon="1.568877">
        <time>2020-08-22T12:38:54Z</time>
      </trkpt>
      <trkpt lat="42.468819" lon="1.568862">
        <time>2020-08-22T12:38:54Z</time>
      </trkpt>
      <trkpt lat="42.468819" lon="1.568862">
        <time>2020-08-22T12:38:54Z</time>
      </trkpt>
      <trkpt lat="42.468815" lon="1.568847">
        <time>2020-08-22T12:38:54Z</time>
      </trkpt>
      <trkpt lat="42.468815" lon="1.568847">
        <time>2020-08-22T12:38:54Z</time>
      </trkpt>
      <trkpt lat="42.468815" lon="1.568831">
        <time>2020-08-22T12:38:54Z</time>
      </trkpt>
      <trkpt lat="42.468815" lon="1.568831">
        <time>2020-08-22T12:38:54Z</time>
      </trkpt>
      <trkpt lat="42.468811" lon="1.568815">
        <time>2020-08-22T12:38:54Z</time>
      </trkpt>
      <trkpt lat="42.468811" lon="1.568815">
        <time>2020-08-22T12:38:54Z</time>
      </trkpt>
      <trkpt lat="42.468807" lon="1.568799">
        <time>2020-08-22T12:38:54Z</time>
      </trkpt>
      <trkpt lat="42.468807" lon="1.568799">
        <time>2020-08-22T12:38:54Z</time>
      </trkpt>
      <trkpt lat="42.468807" lon="1.568784">
        <time>2020-08-22T12:39:01Z</time>
      </trkpt>
      <trkpt lat="42.468807" lon="1.568784">
        <time>2020-08-22T12:39:01Z</time>
      </trkpt>
      <trkpt lat="42.468807" lon="1.568769">
        <time>2020-08-22T12:39:01Z</time>
      </trkpt>
      <trkpt lat="42.468807" lon="1.568769">
        <time>2020-08-22T12:39:01Z</time>
      </trkpt>
      <trkpt lat="42.468803" lon="1.568754">
        <time>2020-08-22T12:39:01Z</time>
      </trkpt>
      <trkpt lat="42.468803" lon="1.568754">
        <time>2020-08-22T12:39:01Z</time>
      </trkpt>
      <trkpt lat="42.468803" lon="1.568740">
        <time>2020-08-22T12:39:01Z</time>
      </trkpt>
      <trkpt lat="42.468803" lon="1.568740">
        <time>2020-08-22T12:39:01Z</time>
      </trkpt>
      <trkpt lat="42.468803" lon="1.568727">
        <time>2020-08-22T12:39:01Z</time>
      </trkpt>
      <trkpt lat="42.468803" lon="1.568727">
        <time>2020-08-22T12:39:01Z</time>
      </trkpt>
      <trkpt lat="42.468803" lon="1.568714">
        <time>2020-08-22T12:39:01Z</time>
      </trkpt>
      <trkpt lat="42.468803" lon="1.568714">
        <time>2020-08-22T12:39:01Z</time>
      </trkpt>
      <trkpt lat="42.468807" lon="1.568701">
        <time>2020-08-22T12:39:01Z</time>
      </trkpt>
      <trkpt lat="42.468807" lon="1.568701">
        <time>2020-08-22T12:39:01Z</time>
      </trkpt>
      <trkpt lat="42.468807" lon="1.568689">
        <time>2020-08-22T12:39:08Z</time>
      </trkpt>
      <trkpt lat="42.468807" lon="1.568689">
        <time>2020-08-22T12:39:08Z</time>
      </trkpt>
      <trkpt lat="42.468807" lon="1.568675">
        <time>2020-08-22T12:39:08Z</time>
      </trkpt>
      <trkpt lat="42.468807" lon="1.568675">
        <time>2020-08-22T12:39:08Z</time>
      </trkpt>
      <trkpt lat="42.468811" lon="1.568659">
        <time>2020-08-22T12:39:08Z</time>
      </trkpt>
      <trkpt lat="42.468811" lon="1.568659">
        <time>2020-08-22T12:39:08Z</time>
      </trkpt>
      <trkpt lat="42.468811" lon="1.568641">
        <time>2020-08-22T12:39:08Z</time>
      </trkpt>
      <trkpt lat="42.468811" lon="1.568641">
        <time>2020-08-22T12:39:08Z</time>
      </trkpt>
      <trkpt lat="42.468811" lon="1.568621">
        <time>2020-08-22T12:39:08Z</time>
      </trkpt>
      <trkpt lat="42.468811" lon="1.568621">
        <time>2020-08-22T12:39:08Z</time>
      </trkpt>
      <trkpt lat="42.468815" lon="1.568601">
        <time>2020-08-22T12:39:08Z</time>
      </trkpt>
      <trkpt lat="42.468815" lon="1.568601">
        <time>2020-08-22T12:39:08Z</time>
      </trkpt>
      <trkpt lat="42.468815" lon="1.568580">
        <time>2020-08-22T12:39:08Z</time>
      </trkpt>
      <trkpt lat="42.468815" lon="1.568580">
        <time>2020-08-22T12:39:08Z</time>
      </trkpt>
      <trkpt lat="42.468815" lon="1.568559">
        <time>2020-08-22T12:39:08Z</time>
      </trkpt>
      <trkpt lat="42.468815" lon="1.568559">
        <time>2020-08-22T12:39:08Z</time>
      </trkpt>
      <trkpt lat="42.468815" lon="1.568538">
        <time>2020-08-22T12:39:15Z</time>
      </trkpt>
      <trkpt lat="42.468815" lon="1.568538">
        <time>2020-08-22T12:39:15Z</time>
      </trkpt>
      <trkpt lat="42.468811" lon="1.568517">
        <time>2020-08-22T12:39:15Z</time>
      </trkpt>
      <trkpt lat="42.468811" lon="1.568517">
        <time>2020-08-22T12:39:15Z</time>
      </trkpt>
      <trkpt lat="42.468811" lon="1.568495">
        <time>2020-08-22T12:39:15Z</time>
      </trkpt>
      <trkpt lat="42.468811" lon="1.568495">
        <time>2020-08-22T12:39:15Z</time>
      </trkpt>
      <trkpt lat="42.468811" lon="1.568475">
        <time>2020-08-22T12:39:15Z</time>
      </trkpt>
      <trkpt lat="42.468811" lon="1.568475">
        <time>2020-08-22T12:39:15Z</time>
      </trkpt>
      <trkpt lat="42.468807" lon="1.568457">
        <time>2020-08-22T12:39:15Z</time>
      </trkpt>
      <trkpt lat="42.468807" lon="1.568457">
        <time>2020-08-22T12:39:15Z</time>
      </trkpt>
      <trkpt lat="42.468807" lon="1.568440">
        <time>2020-08-22T12:39:15Z</time>
      </trkpt>
      <trkpt lat="42.468807" lon="1.568440">
        <time>2020-08-22T12:39:15Z</time>
      </trkpt>
      <trkpt lat="42.468807" lon="1.568425">
        <time>2020-08-22T12:39:15Z</time>
      </trkpt>
      <trkpt lat="42.468807" lon="1.568425">
        <time>2020-08-22T12:39:15Z</time>
      </trkpt>
      <trkpt lat="42.468803" lon="1.568411">
        <time>2020-08-22T12:39:22Z</time>
      </trkpt>
      <trkpt lat="42.468803" lon="1.568411">
        <time>2020-08-22T12:39:22Z</time>
      </trkpt>
      <trkpt lat="42.468800" lon="1.568396">
        <time>2020-08-22T12:39:22Z</time>
      </trkpt>
      <trkpt lat="42.468800" lon="1.568396">
        <time>2020-08-22T12:39:22Z</time>
      </trkpt>
      <trkpt lat="42.468800" lon="1.568382">
        <time>2020-08-22T12:39:22Z</time>
      </trkpt>
      <trkpt lat="42.468800" lon="1.568382">
        <time>2020-08-22T12:39:22Z</time>
      </trkpt>
      <trkpt lat="42.468796" lon="1.568368">
        <time>2020-08-22T12:39:22Z</time>
      </trkpt>
      <trkpt lat="42.468796" lon="1.568368">
        <time>2020-08-22T12:39:22Z</time>
      </trkpt>
      <trkpt lat="42.468796" lon="1.568355">
        <time>2020-08-22T12:39:22Z</time>
      </trkpt>
      <trkpt lat="42.468796" lon="1.568355">
        <time>2020-08-22T12:39:22Z</time>
      </trkpt>
      <trkpt lat="42.468796" lon="1.568343">
        <time>2020-08-22T12:39:22Z</time>
      </trkpt>
      <trkpt lat="42.468796" lon="1.568343">
        <time>2020-08-22T12:39:22Z</time>
      </trkpt>
      <trkpt lat="42.468792" lon="1.568331">
        <time>2020-08-22T12:39:22Z</time>
      </trkpt>
      <trkpt lat="42.468792" lon="1.568331">
        <time>2020-08-22T12:39:22Z</time>
      </trkpt>
      <trkpt lat="42.468788" lon="1.568319">
        <time>2020-08-22T12:39:29Z</time>
      </trkpt>
      <trkpt lat="42.468788" lon="1.568319">
        <time>2020-08-22T12:39:29Z</time>
      </trkpt>
      <trkpt lat="42.468788" lon="1.568308">
        <time>2020-08-22T12:39:29Z</time>
      </trkpt>
      <trkpt lat="42.468788" lon="1.568308">
        <time>2020-08-22T12:39:29Z</time>
      </trkpt>
      <trkpt lat="42.468788" lon="1.568297">
        <time>2020-08-22T12:39:29Z</time>
      </trkpt>
      <trkpt lat="42.468788" lon="1.568297">
        <time>2020-08-22T12:39:29Z</time>
      </trkpt>
      <trkpt lat="42.468788" lon="1.568286">
        <time>2020-08-22T12:39:29Z</time>
      </trkpt>
      <trkpt lat="42.468788" lon="1.568286">
        <time>2020-08-22T12:39:29Z</time>
      </trkpt>
      <trkpt lat="42.468788" lon="1.568275">
        <time>2020-08-22T12:39:29Z</time>
      </trkpt>
      <trkpt lat="42.468788" lon="1.568275">
        <time>2020-08-22T12:39:29Z</time>
      </trkpt>
      <trkpt lat="42.468784" lon="1.568263">
        <time>2020-08-22T12:39:29Z</time>
      </trkpt>
      <trkpt lat="42.468784" lon="1.568263">
        <time>2020-08-22T12:39:29Z</time>
      </trkpt>
      <trkpt lat="42.468781" lon="1.568249">
        <time>2020-08-22T12:39:29Z</time>
      </trkpt>
      <trkpt lat="42.468781" lon="1.568249">
        <time>2020-08-22T12:39:29Z</time>
      </trkpt>
      <trkpt lat="42.468777" lon="1.568236">
        <time>2020-08-22T12:39:29Z</time>
      </trkpt>
      <trkpt lat="42.468777" lon="1.568236">
        <time>2020-08-22T12:39:29Z</time>
      </trkpt>
      <trkpt lat="42.468769" lon="1.568224">
        <time>2020-08-22T12:39:29Z</time>
      </trkpt>
      <trkpt lat="42.468769" lon="1.568224">
        <time>2020-08-22T12:39:29Z</time>
      </trkpt>
      <trkpt lat="42.468765" lon="1.568211">
        <time>2020-08-22T12:39:29Z</time>
      </trkpt>
      <trkpt lat="42.468765" lon="1.568211">
        <time>2020-08-22T12:39:29Z</time>
      </trkpt>
      <trkpt lat="42.468761" lon="1.568199">
        <time>2020-08-22T12:39:37Z</time>
      </trkpt>
      <trkpt lat="42.468761" lon="1.568199">
        <time>2020-08-22T12:39:37Z</time>
      </trkpt>
      <trkpt lat="42.468754" lon="1.568186">
        <time>2020-08-22T12:39:37Z</time>
      </trkpt>
      <trkpt lat="42.468754" lon="1.568186">
        <time>2020-08-22T12:39:37Z</time>
      </trkpt>
      <trkpt lat="42.468746" lon="1.568173">
        <time>2020-08-22T12:39:37Z</time>
      </trkpt>
      <trkpt lat="42.468746" lon="1.568173">
        <time>2020-08-22T12:39:37Z</time>
      </trkpt>
      <trkpt lat="42.468739" lon="1.568161">
        <time>2020-08-22T12:39:37Z</time>
      </trkpt>
      <trkpt lat="42.468739" lon="1.568161">
        <time>2020-08-22T12:39:37Z</time>
      </trkpt>
      <trkpt lat="42.468731" lon="1.568148">
        <time>2020-08-22T12:39:44Z</time>
      </trkpt>
      <trkpt lat="42.468731" lon="1.568148">
        <time>2020-08-22T12:39:44Z</time>
      </trkpt>
      <trkpt lat="42.468723" lon="1.568135">
        <time>2020-08-22T12:39:44Z</time>
      </trkpt>
      <trkpt lat="42.468723" lon="1.568135">
        <time>2020-08-22T12:39:44Z</time>
      </trkpt>
      <trkpt lat="42.468719" lon="1.568125">
        <time>2020-08-22T12:39:44Z</time>
      </trkpt>
      <trkpt lat="42.468719" lon="1.568125">
        <time>2020-08-22T12:39:44Z</time>
      </trkpt>
      <trkpt lat="42.468716" lon="1.568113">
        <time>2020-08-22T12:39:44Z</time>
      </trkpt>
      <trkpt lat="42.468716" lon="1.568113">
        <time>2020-08-22T12:39:44Z</time>
      </trkpt>
      <trkpt lat="42.468708" lon="1.568099">
        <time>2020-08-22T12:39:51Z</time>
      </trkpt>
      <trkpt lat="42.468708" lon="1.568099">
        <time>2020-08-22T12:39:51Z</time>
      </trkpt>
      <trkpt lat="42.468704" lon="1.568085">
        <time>2020-08-22T12:39:51Z</time>
      </trkpt>
      <trkpt lat="42.468704" lon="1.568085">
        <time>2020-08-22T12:39:51Z</time>
      </trkpt>
      <trkpt lat="42.468700" lon="1.568071">
        <time>2020-08-22T12:39:51Z</time>
      </trkpt>
      <trkpt lat="42.468700" lon="1.568071">
        <time>2020-08-22T12:39:51Z</time>
      </trkpt>
      <trkpt lat="42.468700" lon="1.568058">
        <time>2020-08-22T12:39:51Z</time>
      </trkpt>
      <trkpt lat="42.468700" lon="1.568058">
        <time>2020-08-22T12:39:51Z</time>
      </trkpt>
      <trkpt lat="42.468693" lon="1.568044">
        <time>2020-08-22T12:39:51Z</time>
      </trkpt>
      <trkpt lat="42.468693" lon="1.568044">
        <time>2020-08-22T12:39:51Z</time>
      </trkpt>
      <trkpt lat="42.468689" lon="1.568031">
        <time>2020-08-22T12:39:51Z</time>
      </trkpt>
      <trkpt lat="42.468689" lon="1.568031">
        <time>2020-08-22T12:39:51Z</time>
      </trkpt>
      <trkpt lat="42.468681" lon="1.568018">
        <time>2020-08-22T12:39:51Z</time>
      </trkpt>
      <trkpt lat="42.468681" lon="1.568018">
        <time>2020-08-22T12:39:51Z</time>
      </trkpt>
      <trkpt lat="42.468681" lon="1.568006">
        <time>2020-08-22T12:39:58Z</time>
      </trkpt>
      <trkpt lat="42.468681" lon="1.568006">
        <time>2020-08-22T12:39:58Z</time>
      </trkpt>
      <trkpt lat="42.468674" lon="1.567994">
        <time>2020-08-22T12:39:58Z</time>
      </trkpt>
      <trkpt lat="42.468674" lon="1.567994">
        <time>2020-08-22T12:39:58Z</time>
      </trkpt>
      <trkpt lat="42.468666" lon="1.567983">
        <time>2020-08-22T12:39:58Z</time>
      </trkpt>
      <trkpt lat="42.468666" lon="1.567983">
        <time>2020-08-22T12:39:58Z</time>
      </trkpt>
      <trkpt lat="42.468662" lon="1.567974">
        <time>2020-08-22T12:39:58Z</time>
      </trkpt>
      <trkpt lat="42.468662" lon="1.567974">
        <time>2020-08-22T12:39:58Z</time>
      </trkpt>
      <trkpt lat="42.468658" lon="1.567966">
        <time>2020-08-22T12:39:58Z</time>
      </trkpt>
      <trkpt lat="42.468658" lon="1.567966">
        <time>2020-08-22T12:39:58Z</time>
      </trkpt>
      <trkpt lat="42.468655" lon="1.567957">
        <time>2020-08-22T12:39:58Z</time>
      </trkpt>
      <trkpt lat="42.468655" lon="1.567957">
        <time>2020-08-22T12:39:58Z</time>
      </trkpt>
      <trkpt lat="42.468647" lon="1.567949">
        <time>2020-08-22T12:39:58Z</time>
      </trkpt>
      <trkpt lat="42.468647" lon="1.567949">
        <time>2020-08-22T12:39:58Z</time>
      </trkpt>
      <trkpt lat="42.468647" lon="1.567940">
        <time>2020-08-22T12:40:06Z</time>
      </trkpt>
      <trkpt lat="42.468647" lon="1.567940">
        <time>2020-08-22T12:40:06Z</time>
      </trkpt>
      <trkpt lat="42.468639" lon="1.567931">
        <time>2020-08-22T12:40:06Z</time>
      </trkpt>
      <trkpt lat="42.468639" lon="1.567931">
        <time>2020-08-22T12:40:06Z</time>
      </trkpt>
      <trkpt lat="42.468636" lon="1.567922">
        <time>2020-08-22T12:40:06Z</time>
      </trkpt>
      <trkpt lat="42.468636" lon="1.567922">
        <time>2020-08-22T12:40:06Z</time>
      </trkpt>
      <trkpt lat="42.468632" lon="1.567913">
        <time>2020-08-22T12:40:06Z</time>
      </trkpt>
      <trkpt lat="42.468632" lon="1.567913">
        <time>2020-08-22T12:40:06Z</time>
      </trkpt>
      <trkpt lat="42.468624" lon="1.567896">
        <time>2020-08-22T12:40:06Z</time>
      </trkpt>
      <trkpt lat="42.468624" lon="1.567896">
        <time>2020-08-22T12:40:06Z</time>
      </trkpt>
      <trkpt lat="42.468616" lon="1.567879">
        <time>2020-08-22T12:40:06Z</time>
      </trkpt>
      <trkpt lat="42.468616" lon="1.567879">
        <time>2020-08-22T12:40:06Z</time>
      </trkpt>
      <trkpt lat="42.468609" lon="1.567863">
        <time>2020-08-22T12:40:06Z</time>
      </trkpt>
      <trkpt lat="42.468609" lon="1.567863">
        <time>2020-08-22T12:40:06Z</time>
      </trkpt>
      <trkpt lat="42.468601" lon="1.567847">
        <time>2020-08-22T12:40:16Z</time>
      </trkpt>
      <trkpt lat="42.468601" lon="1.567847">
        <time>2020-08-22T12:40:16Z</time>
      </trkpt>
      <trkpt lat="42.468594" lon="1.567829">
        <time>2020-08-22T12:40:16Z</time>
      </trkpt>
      <trkpt lat="42.468594" lon="1.567829">
        <time>2020-08-22T12:40:16Z</time>
      </trkpt>
      <trkpt lat="42.468586" lon="1.567810">
        <time>2020-08-22T12:40:16Z</time>
      </trkpt>
      <trkpt lat="42.468586" lon="1.567810">
        <time>2020-08-22T12:40:16Z</time>
      </trkpt>
      <trkpt lat="42.468578" lon="1.567793">
        <time>2020-08-22T12:40:16Z</time>
      </trkpt>
      <trkpt lat="42.468578" lon="1.567793">
        <time>2020-08-22T12:40:16Z</time>
      </trkpt>
      <trkpt lat="42.468575" lon="1.567775">
        <time>2020-08-22T12:40:16Z</time>
      </trkpt>
      <trkpt lat="42.468575" lon="1.567775">
        <time>2020-08-22T12:40:16Z</time>
      </trkpt>
      <trkpt lat="42.468567" lon="1.567757">
        <time>2020-08-22T12:40:23Z</time>
      </trkpt>
      <trkpt lat="42.468567" lon="1.567757">
        <time>2020-08-22T12:40:23Z</time>
      </trkpt>
      <trkpt lat="42.468559" lon="1.567740">
        <time>2020-08-22T12:40:23Z</time>
      </trkpt>
      <trkpt lat="42.468559" lon="1.567740">
        <time>2020-08-22T12:40:23Z</time>
      </trkpt>
      <trkpt lat="42.468555" lon="1.567722">
        <time>2020-08-22T12:40:23Z</time>
      </trkpt>
      <trkpt lat="42.468555" lon="1.567722">
        <time>2020-08-22T12:40:23Z</time>
      </trkpt>
      <trkpt lat="42.468502" lon="1.567577">
        <time>2020-08-22T12:41:01Z</time>
      </trkpt>
      <trkpt lat="42.468502" lon="1.567577">
        <time>2020-08-22T12:41:01Z</time>
      </trkpt>
      <trkpt lat="42.468502" lon="1.567567">
        <time>2020-08-22T12:41:01Z</time>
      </trkpt>
      <trkpt lat="42.468502" lon="1.567567">
        <time>2020-08-22T12:41:01Z</time>
      </trkpt>
      <trkpt lat="42.468502" lon="1.567557">
        <time>2020-08-22T12:41:01Z</time>
      </trkpt>
      <trkpt lat="42.468502" lon="1.567557">
        <time>2020-08-22T12:41:01Z</time>
      </trkpt>
      <trkpt lat="42.468502" lon="1.567550">
        <time>2020-08-22T12:41:01Z</time>
      </trkpt>
      <trkpt lat="42.468502" lon="1.567550">
        <time>2020-08-22T12:41:01Z</time>
      </trkpt>
      <trkpt lat="42.468502" lon="1.567542">
        <time>2020-08-22T12:41:01Z</time>
      </trkpt>
      <trkpt lat="42.468502" lon="1.567542">
        <time>2020-08-22T12:41:01Z</time>
      </trkpt>
      <trkpt lat="42.468502" lon="1.567535">
        <time>2020-08-22T12:41:08Z</time>
      </trkpt>
      <trkpt lat="42.468502" lon="1.567535">
        <time>2020-08-22T12:41:08Z</time>
      </trkpt>
      <trkpt lat="42.468506" lon="1.567526">
        <time>2020-08-22T12:41:08Z</time>
      </trkpt>
      <trkpt lat="42.468506" lon="1.567526">
        <time>2020-08-22T12:41:08Z</time>
      </trkpt>
      <trkpt lat="42.468506" lon="1.567517">
        <time>2020-08-22T12:41:08Z</time>
      </trkpt>
      <trkpt lat="42.468506" lon="1.567517">
        <time>2020-08-22T12:41:08Z</time>
      </trkpt>
      <trkpt lat="42.468506" lon="1.567508">
        <time>2020-08-22T12:41:08Z</time>
      </trkpt>
      <trkpt lat="42.468506" lon="1.567508">
        <time>2020-08-22T12:41:08Z</time>
      </trkpt>
      <trkpt lat="42.468506" lon="1.567498">
        <time>2020-08-22T12:41:08Z</time>
      </trkpt>
      <trkpt lat="42.468506" lon="1.567498">
        <time>2020-08-22T12:41:08Z</time>
      </trkpt>
      <trkpt lat="42.468510" lon="1.567479">
        <time>2020-08-22T12:41:08Z</time>
      </trkpt>
      <trkpt lat="42.468510" lon="1.567479">
        <time>2020-08-22T12:41:08Z</time>
      </trkpt>
      <trkpt lat="42.468513" lon="1.567460">
        <time>2020-08-22T12:41:08Z</time>
      </trkpt>
      <trkpt lat="42.468513" lon="1.567460">
        <time>2020-08-22T12:41:08Z</time>
      </trkpt>
      <trkpt lat="42.468513" lon="1.567441">
        <time>2020-08-22T12:41:15Z</time>
      </trkpt>
      <trkpt lat="42.468513" lon="1.567441">
        <time>2020-08-22T12:41:15Z</time>
      </trkpt>
      <trkpt lat="42.468517" lon="1.567421">
        <time>2020-08-22T12:41:15Z</time>
      </trkpt>
      <trkpt lat="42.468517" lon="1.567421">
        <time>2020-08-22T12:41:15Z</time>
      </trkpt>
      <trkpt lat="42.468521" lon="1.567402">
        <time>2020-08-22T12:41:15Z</time>
      </trkpt>
      <trkpt lat="42.468521" lon="1.567402">
        <time>2020-08-22T12:41:15Z</time>
      </trkpt>
      <trkpt lat="42.468525" lon="1.567382">
        <time>2020-08-22T12:41:15Z</time>
      </trkpt>
      <trkpt lat="42.468525" lon="1.567382">
        <time>2020-08-22T12:41:15Z</time>
      </trkpt>
      <trkpt lat="42.468533" lon="1.567363">
        <time>2020-08-22T12:41:15Z</time>
      </trkpt>
      <trkpt lat="42.468533" lon="1.567363">
        <time>2020-08-22T12:41:15Z</time>
      </trkpt>
      <trkpt lat="42.468536" lon="1.567346">
        <time>2020-08-22T12:41:15Z</time>
      </trkpt>
      <trkpt lat="42.468536" lon="1.567346">
        <time>2020-08-22T12:41:15Z</time>
      </trkpt>
      <trkpt lat="42.468540" lon="1.567329">
        <time>2020-08-22T12:41:15Z</time>
      </trkpt>
      <trkpt lat="42.468540" lon="1.567329">
        <time>2020-08-22T12:41:15Z</time>
      </trkpt>
      <trkpt lat="42.468548" lon="1.567314">
        <time>2020-08-22T12:41:23Z</time>
      </trkpt>
      <trkpt lat="42.468548" lon="1.567314">
        <time>2020-08-22T12:41:23Z</time>
      </trkpt>
      <trkpt lat="42.468555" lon="1.567301">
        <time>2020-08-22T12:41:23Z</time>
      </trkpt>
      <trkpt lat="42.468555" lon="1.567301">
        <time>2020-08-22T12:41:23Z</time>
      </trkpt>
      <trkpt lat="42.468559" lon="1.567289">
        <time>2020-08-22T12:41:23Z</time>
      </trkpt>
      <trkpt lat="42.468559" lon="1.567289">
        <time>2020-08-22T12:41:23Z</time>
      </trkpt>
      <trkpt lat="42.468567" lon="1.567279">
        <time>2020-08-22T12:41:23Z</time>
      </trkpt>
      <trkpt lat="42.468567" lon="1.567279">
        <time>2020-08-22T12:41:23Z</time>
      </trkpt>
      <trkpt lat="42.468575" lon="1.567271">
        <time>2020-08-22T12:41:23Z</time>
      </trkpt>
      <trkpt lat="42.468575" lon="1.567271">
        <time>2020-08-22T12:41:23Z</time>
      </trkpt>
      <trkpt lat="42.468582" lon="1.567263">
        <time>2020-08-22T12:41:30Z</time>
      </trkpt>
      <trkpt lat="42.468582" lon="1.567263">
        <time>2020-08-22T12:41:30Z</time>
      </trkpt>
      <trkpt lat="42.468586" lon="1.567256">
        <time>2020-08-22T12:41:30Z</time>
      </trkpt>
      <trkpt lat="42.468586" lon="1.567256">
        <time>2020-08-22T12:41:30Z</time>
      </trkpt>
      <trkpt lat="42.468594" lon="1.567250">
        <time>2020-08-22T12:41:30Z</time>
      </trkpt>
      <trkpt lat="42.468594" lon="1.567250">
        <time>2020-08-22T12:41:30Z</time>
      </trkpt>
      <trkpt lat="42.468601" lon="1.567244">
        <time>2020-08-22T12:41:30Z</time>
      </trkpt>
      <trkpt lat="42.468601" lon="1.567244">
        <time>2020-08-22T12:41:30Z</time>
      </trkpt>
      <trkpt lat="42.468609" lon="1.567239">
        <time>2020-08-22T12:41:30Z</time>
      </trkpt>
      <trkpt lat="42.468609" lon="1.567239">
        <time>2020-08-22T12:41:30Z</time>
      </trkpt>
      <trkpt lat="42.468613" lon="1.567234">
        <time>2020-08-22T12:41:30Z</time>
      </trkpt>
      <trkpt lat="42.468613" lon="1.567234">
        <time>2020-08-22T12:41:30Z</time>
      </trkpt>
      <trkpt lat="42.468620" lon="1.567228">
        <time>2020-08-22T12:41:30Z</time>
      </trkpt>
      <trkpt lat="42.468620" lon="1.567228">
        <time>2020-08-22T12:41:30Z</time>
      </trkpt>
      <trkpt lat="42.468624" lon="1.567222">
        <time>2020-08-22T12:41:37Z</time>
      </trkpt>
      <trkpt lat="42.468624" lon="1.567222">
        <time>2020-08-22T12:41:37Z</time>
      </trkpt>
      <trkpt lat="42.468628" lon="1.567215">
        <time>2020-08-22T12:41:37Z</time>
      </trkpt>
      <trkpt lat="42.468628" lon="1.567215">
        <time>2020-08-22T12:41:37Z</time>
      </trkpt>
      <trkpt lat="42.468636" lon="1.567207">
        <time>2020-08-22T12:41:37Z</time>
      </trkpt>
      <trkpt lat="42.468636" lon="1.567207">
        <time>2020-08-22T12:41:37Z</time>
      </trkpt>
      <trkpt lat="42.468643" lon="1.567199">
        <time>2020-08-22T12:41:37Z</time>
      </trkpt>
      <trkpt lat="42.468643" lon="1.567199">
        <time>2020-08-22T12:41:37Z</time>
      </trkpt>
      <trkpt lat="42.468651" lon="1.567190">
        <time>2020-08-22T12:41:37Z</time>
      </trkpt>
      <trkpt lat="42.468651" lon="1.567190">
        <time>2020-08-22T12:41:37Z</time>
      </trkpt>
      <trkpt lat="42.468655" lon="1.567181">
        <time>2020-08-22T12:41:37Z</time>
      </trkpt>
      <trkpt lat="42.468655" lon="1.567181">
        <time>2020-08-22T12:41:37Z</time>
      </trkpt>
      <trkpt lat="42.468662" lon="1.567172">
        <time>2020-08-22T12:41:37Z</time>
      </trkpt>
      <trkpt lat="42.468662" lon="1.567172">
        <time>2020-08-22T12:41:37Z</time>
      </trkpt>
      <trkpt lat="42.468670" lon="1.567162">
        <time>2020-08-22T12:41:44Z</time>
      </trkpt>
      <trkpt lat="42.468670" lon="1.567162">
        <time>2020-08-22T12:41:44Z</time>
      </trkpt>
      <trkpt lat="42.468678" lon="1.567153">
        <time>2020-08-22T12:41:44Z</time>
      </trkpt>
      <trkpt lat="42.468678" lon="1.567153">
        <time>2020-08-22T12:41:44Z</time>
      </trkpt>
      <trkpt lat="42.468689" lon="1.567144">
        <time>2020-08-22T12:41:44Z</time>
      </trkpt>
      <trkpt lat="42.468689" lon="1.567144">
        <time>2020-08-22T12:41:44Z</time>
      </trkpt>
      <trkpt lat="42.468697" lon="1.567134">
        <time>2020-08-22T12:41:44Z</time>
      </trkpt>
      <trkpt lat="42.468697" lon="1.567134">
        <time>2020-08-22T12:41:44Z</time>
      </trkpt>
      <trkpt lat="42.468704" lon="1.567125">
        <time>2020-08-22T12:41:44Z</time>
      </trkpt>
      <trkpt lat="42.468704" lon="1.567125">
        <time>2020-08-22T12:41:44Z</time>
      </trkpt>
      <trkpt lat="42.468712" lon="1.567115">
        <time>2020-08-22T12:41:44Z</time>
      </trkpt>
      <trkpt lat="42.468712" lon="1.567115">
        <time>2020-08-22T12:41:44Z</time>
      </trkpt>
      <trkpt lat="42.468719" lon="1.567105">
        <time>2020-08-22T12:41:44Z</time>
      </trkpt>
      <trkpt lat="42.468719" lon="1.567105">
        <time>2020-08-22T12:41:44Z</time>
      </trkpt>
      <trkpt lat="42.468731" lon="1.567094">
        <time>2020-08-22T12:41:44Z</time>
      </trkpt>
      <trkpt lat="42.468731" lon="1.567094">
        <time>2020-08-22T12:41:44Z</time>
      </trkpt>
      <trkpt lat="42.468735" lon="1.567083">
        <time>2020-08-22T12:41:44Z</time>
      </trkpt>
      <trkpt lat="42.468735" lon="1.567083">
        <time>2020-08-22T12:41:44Z</time>
      </trkpt>
      <trkpt lat="42.468746" lon="1.567070">
        <time>2020-08-22T12:41:44Z</time>
      </trkpt>
      <trkpt lat="42.468746" lon="1.567070">
        <time>2020-08-22T12:41:44Z</time>
      </trkpt>
      <trkpt lat="42.468754" lon="1.567057">
        <time>2020-08-22T12:41:44Z</time>
      </trkpt>
      <trkpt lat="42.468754" lon="1.567057">
        <time>2020-08-22T12:41:44Z</time>
      </trkpt>
      <trkpt lat="42.468761" lon="1.567041">
        <time>2020-08-22T12:41:44Z</time>
      </trkpt>
      <trkpt lat="42.468761" lon="1.567041">
        <time>2020-08-22T12:41:44Z</time>
      </trkpt>
      <trkpt lat="42.468769" lon="1.567026">
        <time>2020-08-22T12:41:51Z</time>
      </trkpt>
      <trkpt lat="42.468769" lon="1.567026">
        <time>2020-08-22T12:41:51Z</time>
      </trkpt>
      <trkpt lat="42.468777" lon="1.567009">
        <time>2020-08-22T12:41:51Z</time>
      </trkpt>
      <trkpt lat="42.468777" lon="1.567009">
        <time>2020-08-22T12:41:51Z</time>
      </trkpt>
      <trkpt lat="42.468784" lon="1.566991">
        <time>2020-08-22T12:41:51Z</time>
      </trkpt>
      <trkpt lat="42.468784" lon="1.566991">
        <time>2020-08-22T12:41:51Z</time>
      </trkpt>
      <trkpt lat="42.468792" lon="1.566973">
        <time>2020-08-22T12:41:51Z</time>
      </trkpt>
      <trkpt lat="42.468792" lon="1.566973">
        <time>2020-08-22T12:41:51Z</time>
      </trkpt>
      <trkpt lat="42.468800" lon="1.566956">
        <time>2020-08-22T12:41:51Z</time>
      </trkpt>
      <trkpt lat="42.468800" lon="1.566956">
        <time>2020-08-22T12:41:51Z</time>
      </trkpt>
      <trkpt lat="42.468807" lon="1.566939">
        <time>2020-08-22T12:41:51Z</time>
      </trkpt>
      <trkpt lat="42.468807" lon="1.566939">
        <time>2020-08-22T12:41:51Z</time>
      </trkpt>
      <trkpt lat="42.468815" lon="1.566923">
        <time>2020-08-22T12:41:51Z</time>
      </trkpt>
      <trkpt lat="42.468815" lon="1.566923">
        <time>2020-08-22T12:41:51Z</time>
      </trkpt>
      <trkpt lat="42.468819" lon="1.566907">
        <time>2020-08-22T12:41:58Z</time>
      </trkpt>
      <trkpt lat="42.468819" lon="1.566907">
        <time>2020-08-22T12:41:58Z</time>
      </trkpt>
      <trkpt lat="42.468822" lon="1.566893">
        <time>2020-08-22T12:41:58Z</time>
      </trkpt>
      <trkpt lat="42.468822" lon="1.566893">
        <time>2020-08-22T12:41:58Z</time>
      </trkpt>
      <trkpt lat="42.468826" lon="1.566880">
        <time>2020-08-22T12:41:58Z</time>
      </trkpt>
      <trkpt lat="42.468826" lon="1.566880">
        <time>2020-08-22T12:41:58Z</time>
      </trkpt>
      <trkpt lat="42.468830" lon="1.566870">
        <time>2020-08-22T12:41:58Z</time>
      </trkpt>
      <trkpt lat="42.468830" lon="1.566870">
        <time>2020-08-22T12:41:58Z</time>
      </trkpt>
      <trkpt lat="42.468830" lon="1.566863">
        <time>2020-08-22T12:42:05Z</time>
      </trkpt>
      <trkpt lat="42.468830" lon="1.566863">
        <time>2020-08-22T12:42:05Z</time>
      </trkpt>
      <trkpt lat="42.468830" lon="1.566858">
        <time>2020-08-22T12:42:05Z</time>
      </trkpt>
      <trkpt lat="42.468830" lon="1.566858">
        <time>2020-08-22T12:42:05Z</time>
      </trkpt>
      <trkpt lat="42.468830" lon="1.566856">
        <time>2020-08-22T12:42:05Z</time>
      </trkpt>
      <trkpt lat="42.468830" lon="1.566856">
        <time>2020-08-22T12:42:05Z</time>
      </trkpt>
      <trkpt lat="42.468822" lon="1.566857">
        <time>2020-08-22T12:42:05Z</time>
      </trkpt>
      <trkpt lat="42.468822" lon="1.566857">
        <time>2020-08-22T12:42:05Z</time>
      </trkpt>
      <trkpt lat="42.468822" lon="1.566859">
        <time>2020-08-22T12:42:05Z</time>
      </trkpt>
      <trkpt lat="42.468822" lon="1.566859">
        <time>2020-08-22T12:42:05Z</time>
      </trkpt>
      <trkpt lat="42.468815" lon="1.566864">
        <time>2020-08-22T12:42:05Z</time>
      </trkpt>
      <trkpt lat="42.468815" lon="1.566864">
        <time>2020-08-22T12:42:05Z</time>
      </trkpt>
      <trkpt lat="42.468807" lon="1.566871">
        <time>2020-08-22T12:42:05Z</time>
      </trkpt>
      <trkpt lat="42.468807" lon="1.566871">
        <time>2020-08-22T12:42:05Z</time>
      </trkpt>
      <trkpt lat="42.468803" lon="1.566880">
        <time>2020-08-22T12:42:12Z</time>
      </trkpt>
      <trkpt lat="42.468803" lon="1.566880">
        <time>2020-08-22T12:42:12Z</time>
      </trkpt>
      <trkpt lat="42.468796" lon="1.566891">
        <time>2020-08-22T12:42:12Z</time>
      </trkpt>
      <trkpt lat="42.468796" lon="1.566891">
        <time>2020-08-22T12:42:12Z</time>
      </trkpt>
      <trkpt lat="42.468788" lon="1.566903">
        <time>2020-08-22T12:42:12Z</time>
      </trkpt>
      <trkpt lat="42.468788" lon="1.566903">
        <time>2020-08-22T12:42:12Z</time>
      </trkpt>
      <trkpt lat="42.468781" lon="1.566915">
        <time>2020-08-22T12:42:12Z</time>
      </trkpt>
      <trkpt lat="42.468781" lon="1.566915">
        <time>2020-08-22T12:42:12Z</time>
      </trkpt>
      <trkpt lat="42.468773" lon="1.566928">
        <time>2020-08-22T12:42:12Z</time>
      </trkpt>
      <trkpt lat="42.468773" lon="1.566928">
        <time>2020-08-22T12:42:12Z</time>
      </trkpt>
      <trkpt lat="42.468769" lon="1.566940">
        <time>2020-08-22T12:42:12Z</time>
      </trkpt>
      <trkpt lat="42.468769" lon="1.566940">
        <time>2020-08-22T12:42:12Z</time>
      </trkpt>
      <trkpt lat="42.468761" lon="1.566953">
        <time>2020-08-22T12:42:12Z</time>
      </trkpt>
      <trkpt lat="42.468761" lon="1.566953">
        <time>2020-08-22T12:42:12Z</time>
      </trkpt>
      <trkpt lat="42.468758" lon="1.566967">
        <time>2020-08-22T12:42:19Z</time>
      </trkpt>
      <trkpt lat="42.468758" lon="1.566967">
        <time>2020-08-22T12:42:19Z</time>
      </trkpt>
      <trkpt lat="42.468754" lon="1.566981">
        <time>2020-08-22T12:42:19Z</time>
      </trkpt>
      <trkpt lat="42.468754" lon="1.566981">
        <time>2020-08-22T12:42:19Z</time>
      </trkpt>
      <trkpt lat="42.468754" lon="1.566995">
        <time>2020-08-22T12:42:19Z</time>
      </trkpt>
      <trkpt lat="42.468754" lon="1.566995">
        <time>2020-08-22T12:42:19Z</time>
      </trkpt>
      <trkpt lat="42.468750" lon="1.567010">
        <time>2020-08-22T12:42:19Z</time>
      </trkpt>
      <trkpt lat="42.468750" lon="1.567010">
        <time>2020-08-22T12:42:19Z</time>
      </trkpt>
      <trkpt lat="42.468750" lon="1.567025">
        <time>2020-08-22T12:42:19Z</time>
      </trkpt>
      <trkpt lat="42.468750" lon="1.567025">
        <time>2020-08-22T12:42:19Z</time>
      </trkpt>
      <trkpt lat="42.468750" lon="1.567040">
        <time>2020-08-22T12:42:19Z</time>
      </trkpt>
      <trkpt lat="42.468750" lon="1.567040">
        <time>2020-08-22T12:42:19Z</time>
      </trkpt>
      <trkpt lat="42.468750" lon="1.567056">
        <time>2020-08-22T12:42:19Z</time>
      </trkpt>
      <trkpt lat="42.468750" lon="1.567056">
        <time>2020-08-22T12:42:19Z</time>
      </trkpt>
      <trkpt lat="42.468754" lon="1.567071">
        <time>2020-08-22T12:42:26Z</time>
      </trkpt>
      <trkpt lat="42.468754" lon="1.567071">
        <time>2020-08-22T12:42:26Z</time>
      </trkpt>
      <trkpt lat="42.468754" lon="1.567087">
        <time>2020-08-22T12:42:26Z</time>
      </trkpt>
      <trkpt lat="42.468754" lon="1.567087">
        <time>2020-08-22T12:42:26Z</time>
      </trkpt>
      <trkpt lat="42.468758" lon="1.567103">
        <time>2020-08-22T12:42:26Z</time>
      </trkpt>
      <trkpt lat="42.468758" lon="1.567103">
        <time>2020-08-22T12:42:26Z</time>
      </trkpt>
      <trkpt lat="42.468758" lon="1.567118">
        <time>2020-08-22T12:42:26Z</time>
      </trkpt>
      <trkpt lat="42.468758" lon="1.567118">
        <time>2020-08-22T12:42:26Z</time>
      </trkpt>
      <trkpt lat="42.468761" lon="1.567133">
        <time>2020-08-22T12:42:26Z</time>
      </trkpt>
      <trkpt lat="42.468761" lon="1.567133">
        <time>2020-08-22T12:42:26Z</time>
      </trkpt>
      <trkpt lat="42.468765" lon="1.567148">
        <time>2020-08-22T12:42:26Z</time>
      </trkpt>
      <trkpt lat="42.468765" lon="1.567148">
        <time>2020-08-22T12:42:26Z</time>
      </trkpt>
      <trkpt lat="42.468769" lon="1.567161">
        <time>2020-08-22T12:42:26Z</time>
      </trkpt>
      <trkpt lat="42.468769" lon="1.567161">
        <time>2020-08-22T12:42:26Z</time>
      </trkpt>
      <trkpt lat="42.468773" lon="1.567176">
        <time>2020-08-22T12:42:36Z</time>
      </trkpt>
      <trkpt lat="42.468773" lon="1.567176">
        <time>2020-08-22T12:42:36Z</time>
      </trkpt>
      <trkpt lat="42.468773" lon="1.567191">
        <time>2020-08-22T12:42:36Z</time>
      </trkpt>
      <trkpt lat="42.468773" lon="1.567191">
        <time>2020-08-22T12:42:36Z</time>
      </trkpt>
      <trkpt lat="42.468777" lon="1.567205">
        <time>2020-08-22T12:42:36Z</time>
      </trkpt>
      <trkpt lat="42.468777" lon="1.567205">
        <time>2020-08-22T12:42:36Z</time>
      </trkpt>
      <trkpt lat="42.468781" lon="1.567219">
        <time>2020-08-22T12:42:36Z</time>
      </trkpt>
      <trkpt lat="42.468781" lon="1.567219">
        <time>2020-08-22T12:42:36Z</time>
      </trkpt>
      <trkpt lat="42.468781" lon="1.567231">
        <time>2020-08-22T12:42:43Z</time>
      </trkpt>
      <trkpt lat="42.468781" lon="1.567231">
        <time>2020-08-22T12:42:43Z</time>
      </trkpt>
      <trkpt lat="42.468781" lon="1.567243">
        <time>2020-08-22T12:42:43Z</time>
      </trkpt>
      <trkpt lat="42.468781" lon="1.567243">
        <time>2020-08-22T12:42:43Z</time>
      </trkpt>
      <trkpt lat="42.468781" lon="1.567255">
        <time>2020-08-22T12:42:43Z</time>
      </trkpt>
      <trkpt lat="42.468781" lon="1.567255">
        <time>2020-08-22T12:42:43Z</time>
      </trkpt>
      <trkpt lat="42.468781" lon="1.567266">
        <time>2020-08-22T12:42:43Z</time>
      </trkpt>
      <trkpt lat="42.468781" lon="1.567266">
        <time>2020-08-22T12:42:43Z</time>
      </trkpt>
      <trkpt lat="42.468781" lon="1.567278">
        <time>2020-08-22T12:42:43Z</time>
      </trkpt>
      <trkpt lat="42.468781" lon="1.567278">
        <time>2020-08-22T12:42:43Z</time>
      </trkpt>
      <trkpt lat="42.468781" lon="1.567290">
        <time>2020-08-22T12:42:43Z</time>
      </trkpt>
      <trkpt lat="42.468781" lon="1.567290">
        <time>2020-08-22T12:42:43Z</time>
      </trkpt>
      <trkpt lat="42.468781" lon="1.567300">
        <time>2020-08-22T12:42:43Z</time>
      </trkpt>
      <trkpt lat="42.468781" lon="1.567300">
        <time>2020-08-22T12:42:43Z</time>
      </trkpt>
      <trkpt lat="42.468781" lon="1.567310">
        <time>2020-08-22T12:42:50Z</time>
      </trkpt>
      <trkpt lat="42.468781" lon="1.567310">
        <time>2020-08-22T12:42:50Z</time>
      </trkpt>
      <trkpt lat="42.468781" lon="1.567321">
        <time>2020-08-22T12:42:50Z</time>
      </trkpt>
      <trkpt lat="42.468781" lon="1.567321">
        <time>2020-08-22T12:42:50Z</time>
      </trkpt>
      <trkpt lat="42.468781" lon="1.567333">
        <time>2020-08-22T12:42:50Z</time>
      </trkpt>
      <trkpt lat="42.468781" lon="1.567333">
        <time>2020-08-22T12:42:50Z</time>
      </trkpt>
      <trkpt lat="42.468784" lon="1.567346">
        <time>2020-08-22T12:42:50Z</time>
      </trkpt>
      <trkpt lat="42.468784" lon="1.567346">
        <time>2020-08-22T12:42:50Z</time>
      </trkpt>
      <trkpt lat="42.468784" lon="1.567359">
        <time>2020-08-22T12:42:50Z</time>
      </trkpt>
      <trkpt lat="42.468784" lon="1.567359">
        <time>2020-08-22T12:42:50Z</time>
      </trkpt>
      <trkpt lat="42.468788" lon="1.567371">
        <time>2020-08-22T12:42:50Z</time>
      </trkpt>
      <trkpt lat="42.468788" lon="1.567371">
        <time>2020-08-22T12:42:50Z</time>
      </trkpt>
      <trkpt lat="42.468792" lon="1.567384">
        <time>2020-08-22T12:42:50Z</time>
      </trkpt>
      <trkpt lat="42.468792" lon="1.567384">
        <time>2020-08-22T12:42:50Z</time>
      </trkpt>
      <trkpt lat="42.468796" lon="1.567396">
        <time>2020-08-22T12:42:57Z</time>
      </trkpt>
      <trkpt lat="42.468796" lon="1.567396">
        <time>2020-08-22T12:42:57Z</time>
      </trkpt>
      <trkpt lat="42.468800" lon="1.567409">
        <time>2020-08-22T12:42:57Z</time>
      </trkpt>
      <trkpt lat="42.468800" lon="1.567409">
        <time>2020-08-22T12:42:57Z</time>
      </trkpt>
      <trkpt lat="42.468807" lon="1.567420">
        <time>2020-08-22T12:42:57Z</time>
      </trkpt>
      <trkpt lat="42.468807" lon="1.567420">
        <time>2020-08-22T12:42:57Z</time>
      </trkpt>
      <trkpt lat="42.468815" lon="1.567432">
        <time>2020-08-22T12:42:57Z</time>
      </trkpt>
      <trkpt lat="42.468815" lon="1.567432">
        <time>2020-08-22T12:42:57Z</time>
      </trkpt>
      <trkpt lat="42.468822" lon="1.567442">
        <time>2020-08-22T12:42:57Z</time>
      </trkpt>
      <trkpt lat="42.468822" lon="1.567442">
        <time>2020-08-22T12:42:57Z</time>
      </trkpt>
      <trkpt lat="42.468830" lon="1.567452">
        <time>2020-08-22T12:42:57Z</time>
      </trkpt>
      <trkpt lat="42.468830" lon="1.567452">
        <time>2020-08-22T12:42:57Z</time>
      </trkpt>
      <trkpt lat="42.468842" lon="1.567461">
        <time>2020-08-22T12:42:57Z</time>
      </trkpt>
      <trkpt lat="42.468842" lon="1.567461">
        <time>2020-08-22T12:42:57Z</time>
      </trkpt>
      <trkpt lat="42.468849" lon="1.567470">
        <time>2020-08-22T12:43:04Z</time>
      </trkpt>
      <trkpt lat="42.468849" lon="1.567470">
        <time>2020-08-22T12:43:04Z</time>
      </trkpt>
      <trkpt lat="42.468857" lon="1.567478">
        <time>2020-08-22T12:43:04Z</time>
      </trkpt>
      <trkpt lat="42.468857" lon="1.567478">
        <time>2020-08-22T12:43:04Z</time>
      </trkpt>
      <trkpt lat="42.468868" lon="1.567486">
        <time>2020-08-22T12:43:04Z</time>
      </trkpt>
      <trkpt lat="42.468868" lon="1.567486">
        <time>2020-08-22T12:43:04Z</time>
      </trkpt>
      <trkpt lat="42.468880" lon="1.567493">
        <time>2020-08-22T12:43:04Z</time>
      </trkpt>
      <trkpt lat="42.468880" lon="1.567493">
        <time>2020-08-22T12:43:04Z</time>
      </trkpt>
      <trkpt lat="42.468891" lon="1.567500">
        <time>2020-08-22T12:43:04Z</time>
      </trkpt>
      <trkpt lat="42.468891" lon="1.567500">
        <time>2020-08-22T12:43:04Z</time>
      </trkpt>
      <trkpt lat="42.468903" lon="1.567507">
        <time>2020-08-22T12:43:04Z</time>
      </trkpt>
      <trkpt lat="42.468903" lon="1.567507">
        <time>2020-08-22T12:43:04Z</time>
      </trkpt>
      <trkpt lat="42.468914" lon="1.567513">
        <time>2020-08-22T12:43:04Z</time>
      </trkpt>
      <trkpt lat="42.468914" lon="1.567513">
        <time>2020-08-22T12:43:04Z</time>
      </trkpt>
      <trkpt lat="42.468925" lon="1.567519">
        <time>2020-08-22T12:43:12Z</time>
      </trkpt>
      <trkpt lat="42.468925" lon="1.567519">
        <time>2020-08-22T12:43:12Z</time>
      </trkpt>
      <trkpt lat="42.468937" lon="1.567524">
        <time>2020-08-22T12:43:12Z</time>
      </trkpt>
      <trkpt lat="42.468937" lon="1.567524">
        <time>2020-08-22T12:43:12Z</time>
      </trkpt>
      <trkpt lat="42.468948" lon="1.567529">
        <time>2020-08-22T12:43:12Z</time>
      </trkpt>
      <trkpt lat="42.468948" lon="1.567529">
        <time>2020-08-22T12:43:12Z</time>
      </trkpt>
      <trkpt lat="42.468960" lon="1.567534">
        <time>2020-08-22T12:43:12Z</time>
      </trkpt>
      <trkpt lat="42.468960" lon="1.567534">
        <time>2020-08-22T12:43:12Z</time>
      </trkpt>
      <trkpt lat="42.468971" lon="1.567538">
        <time>2020-08-22T12:43:12Z</time>
      </trkpt>
      <trkpt lat="42.468971" lon="1.567538">
        <time>2020-08-22T12:43:12Z</time>
      </trkpt>
      <trkpt lat="42.468983" lon="1.567542">
        <time>2020-08-22T12:43:19Z</time>
      </trkpt>
      <trkpt lat="42.468983" lon="1.567542">
        <time>2020-08-22T12:43:19Z</time>
      </trkpt>
      <trkpt lat="42.468990" lon="1.567546">
        <time>2020-08-22T12:43:19Z</time>
      </trkpt>
      <trkpt lat="42.468990" lon="1.567546">
        <time>2020-08-22T12:43:19Z</time>
      </trkpt>
      <trkpt lat="42.469002" lon="1.567549">
        <time>2020-08-22T12:43:19Z</time>
      </trkpt>
      <trkpt lat="42.469002" lon="1.567549">
        <time>2020-08-22T12:43:19Z</time>
      </trkpt>
      <trkpt lat="42.469013" lon="1.567553">
        <time>2020-08-22T12:43:19Z</time>
      </trkpt>
      <trkpt lat="42.469013" lon="1.567553">
        <time>2020-08-22T12:43:19Z</time>
      </trkpt>
      <trkpt lat="42.469025" lon="1.567556">
        <time>2020-08-22T12:43:19Z</time>
      </trkpt>
      <trkpt lat="42.469025" lon="1.567556">
        <time>2020-08-22T12:43:19Z</time>
      </trkpt>
      <trkpt lat="42.469036" lon="1.567559">
        <time>2020-08-22T12:43:19Z</time>
      </trkpt>
      <trkpt lat="42.469036" lon="1.567559">
        <time>2020-08-22T12:43:19Z</time>
      </trkpt>
      <trkpt lat="42.469044" lon="1.567561">
        <time>2020-08-22T12:43:19Z</time>
      </trkpt>
      <trkpt lat="42.469044" lon="1.567561">
        <time>2020-08-22T12:43:19Z</time>
      </trkpt>
      <trkpt lat="42.469055" lon="1.567563">
        <time>2020-08-22T12:43:26Z</time>
      </trkpt>
      <trkpt lat="42.469055" lon="1.567563">
        <time>2020-08-22T12:43:26Z</time>
      </trkpt>
      <trkpt lat="42.469067" lon="1.567566">
        <time>2020-08-22T12:43:26Z</time>
      </trkpt>
      <trkpt lat="42.469067" lon="1.567566">
        <time>2020-08-22T12:43:26Z</time>
      </trkpt>
      <trkpt lat="42.469078" lon="1.567568">
        <time>2020-08-22T12:43:26Z</time>
      </trkpt>
      <trkpt lat="42.469078" lon="1.567568">
        <time>2020-08-22T12:43:26Z</time>
      </trkpt>
      <trkpt lat="42.469089" lon="1.567571">
        <time>2020-08-22T12:43:26Z</time>
      </trkpt>
      <trkpt lat="42.469089" lon="1.567571">
        <time>2020-08-22T12:43:26Z</time>
      </trkpt>
      <trkpt lat="42.469105" lon="1.567572">
        <time>2020-08-22T12:43:26Z</time>
      </trkpt>
      <trkpt lat="42.469105" lon="1.567572">
        <time>2020-08-22T12:43:26Z</time>
      </trkpt>
      <trkpt lat="42.469116" lon="1.567574">
        <time>2020-08-22T12:43:26Z</time>
      </trkpt>
      <trkpt lat="42.469116" lon="1.567574">
        <time>2020-08-22T12:43:26Z</time>
      </trkpt>
      <trkpt lat="42.469131" lon="1.567574">
        <time>2020-08-22T12:43:26Z</time>
      </trkpt>
      <trkpt lat="42.469131" lon="1.567574">
        <time>2020-08-22T12:43:26Z</time>
      </trkpt>
      <trkpt lat="42.469143" lon="1.567574">
        <time>2020-08-22T12:43:33Z</time>
      </trkpt>
      <trkpt lat="42.469143" lon="1.567574">
        <time>2020-08-22T12:43:33Z</time>
      </trkpt>
      <trkpt lat="42.469158" lon="1.567574">
        <time>2020-08-22T12:43:33Z</time>
      </trkpt>
      <trkpt lat="42.469158" lon="1.567574">
        <time>2020-08-22T12:43:33Z</time>
      </trkpt>
      <trkpt lat="42.469170" lon="1.567574">
        <time>2020-08-22T12:43:33Z</time>
      </trkpt>
      <trkpt lat="42.469170" lon="1.567574">
        <time>2020-08-22T12:43:33Z</time>
      </trkpt>
      <trkpt lat="42.469185" lon="1.567573">
        <time>2020-08-22T12:43:33Z</time>
      </trkpt>
      <trkpt lat="42.469185" lon="1.567573">
        <time>2020-08-22T12:43:33Z</time>
      </trkpt>
      <trkpt lat="42.469196" lon="1.567572">
        <time>2020-08-22T12:43:33Z</time>
      </trkpt>
      <trkpt lat="42.469196" lon="1.567572">
        <time>2020-08-22T12:43:33Z</time>
      </trkpt>
      <trkpt lat="42.469212" lon="1.567572">
        <time>2020-08-22T12:43:33Z</time>
      </trkpt>
      <trkpt lat="42.469212" lon="1.567572">
        <time>2020-08-22T12:43:33Z</time>
      </trkpt>
      <trkpt lat="42.469223" lon="1.567572">
        <time>2020-08-22T12:43:33Z</time>
      </trkpt>
      <trkpt lat="42.469223" lon="1.567572">
        <time>2020-08-22T12:43:33Z</time>
      </trkpt>
      <trkpt lat="42.469238" lon="1.567572">
        <time>2020-08-22T12:43:40Z</time>
      </trkpt>
      <trkpt lat="42.469238" lon="1.567572">
        <time>2020-08-22T12:43:40Z</time>
      </trkpt>
      <trkpt lat="42.469254" lon="1.567574">
        <time>2020-08-22T12:43:40Z</time>
      </trkpt>
      <trkpt lat="42.469254" lon="1.567574">
        <time>2020-08-22T12:43:40Z</time>
      </trkpt>
      <trkpt lat="42.469265" lon="1.567576">
        <time>2020-08-22T12:43:40Z</time>
      </trkpt>
      <trkpt lat="42.469265" lon="1.567576">
        <time>2020-08-22T12:43:40Z</time>
      </trkpt>
      <trkpt lat="42.469280" lon="1.567580">
        <time>2020-08-22T12:43:40Z</time>
      </trkpt>
      <trkpt lat="42.469280" lon="1.567580">
        <time>2020-08-22T12:43:40Z</time>
      </trkpt>
      <trkpt lat="42.469292" lon="1.567585">
        <time>2020-08-22T12:43:40Z</time>
      </trkpt>
      <trkpt lat="42.469292" lon="1.567585">
        <time>2020-08-22T12:43:40Z</time>
      </trkpt>
      <trkpt lat="42.469307" lon="1.567590">
        <time>2020-08-22T12:43:40Z</time>
      </trkpt>
      <trkpt lat="42.469307" lon="1.567590">
        <time>2020-08-22T12:43:40Z</time>
      </trkpt>
      <trkpt lat="42.469322" lon="1.567596">
        <time>2020-08-22T12:43:40Z</time>
      </trkpt>
      <trkpt lat="42.469322" lon="1.567596">
        <time>2020-08-22T12:43:40Z</time>
      </trkpt>
      <trkpt lat="42.469337" lon="1.567603">
        <time>2020-08-22T12:43:47Z</time>
      </trkpt>
      <trkpt lat="42.469337" lon="1.567603">
        <time>2020-08-22T12:43:47Z</time>
      </trkpt>
      <trkpt lat="42.469349" lon="1.567610">
        <time>2020-08-22T12:43:47Z</time>
      </trkpt>
      <trkpt lat="42.469349" lon="1.567610">
        <time>2020-08-22T12:43:47Z</time>
      </trkpt>
      <trkpt lat="42.469364" lon="1.567617">
        <time>2020-08-22T12:43:47Z</time>
      </trkpt>
      <trkpt lat="42.469364" lon="1.567617">
        <time>2020-08-22T12:43:47Z</time>
      </trkpt>
      <trkpt lat="42.469376" lon="1.567624">
        <time>2020-08-22T12:43:47Z</time>
      </trkpt>
      <trkpt lat="42.469376" lon="1.567624">
        <time>2020-08-22T12:43:47Z</time>
      </trkpt>
      <trkpt lat="42.469391" lon="1.567631">
        <time>2020-08-22T12:43:47Z</time>
      </trkpt>
      <trkpt lat="42.469391" lon="1.567631">
        <time>2020-08-22T12:43:47Z</time>
      </trkpt>
      <trkpt lat="42.469402" lon="1.567637">
        <time>2020-08-22T12:43:47Z</time>
      </trkpt>
      <trkpt lat="42.469402" lon="1.567637">
        <time>2020-08-22T12:43:47Z</time>
      </trkpt>
      <trkpt lat="42.469418" lon="1.567642">
        <time>2020-08-22T12:43:47Z</time>
      </trkpt>
      <trkpt lat="42.469418" lon="1.567642">
        <time>2020-08-22T12:43:47Z</time>
      </trkpt>
      <trkpt lat="42.469429" lon="1.567648">
        <time>2020-08-22T12:43:54Z</time>
      </trkpt>
      <trkpt lat="42.469429" lon="1.567648">
        <time>2020-08-22T12:43:54Z</time>
      </trkpt>
      <trkpt lat="42.469440" lon="1.567652">
        <time>2020-08-22T12:43:54Z</time>
      </trkpt>
      <trkpt lat="42.469440" lon="1.567652">
        <time>2020-08-22T12:43:54Z</time>
      </trkpt>
      <trkpt lat="42.469452" lon="1.567656">
        <time>2020-08-22T12:43:54Z</time>
      </trkpt>
      <trkpt lat="42.469452" lon="1.567656">
        <time>2020-08-22T12:43:54Z</time>
      </trkpt>
      <trkpt lat="42.469460" lon="1.567661">
        <time>2020-08-22T12:43:54Z</time>
      </trkpt>
      <trkpt lat="42.469460" lon="1.567661">
        <time>2020-08-22T12:43:54Z</time>
      </trkpt>
      <trkpt lat="42.469471" lon="1.567665">
        <time>2020-08-22T12:43:54Z</time>
      </trkpt>
      <trkpt lat="42.469471" lon="1.567665">
        <time>2020-08-22T12:43:54Z</time>
      </trkpt>
      <trkpt lat="42.469479" lon="1.567669">
        <time>2020-08-22T12:43:54Z</time>
      </trkpt>
      <trkpt lat="42.469479" lon="1.567669">
        <time>2020-08-22T12:43:54Z</time>
      </trkpt>
      <trkpt lat="42.469490" lon="1.567673">
        <time>2020-08-22T12:43:54Z</time>
      </trkpt>
      <trkpt lat="42.469490" lon="1.567673">
        <time>2020-08-22T12:43:54Z</time>
      </trkpt>
      <trkpt lat="42.469498" lon="1.567678">
        <time>2020-08-22T12:44:01Z</time>
      </trkpt>
      <trkpt lat="42.469498" lon="1.567678">
        <time>2020-08-22T12:44:01Z</time>
      </trkpt>
      <trkpt lat="42.469509" lon="1.567682">
        <time>2020-08-22T12:44:01Z</time>
      </trkpt>
      <trkpt lat="42.469509" lon="1.567682">
        <time>2020-08-22T12:44:01Z</time>
      </trkpt>
      <trkpt lat="42.469524" lon="1.567695">
        <time>2020-08-22T12:44:01Z</time>
      </trkpt>
      <trkpt lat="42.469524" lon="1.567695">
        <time>2020-08-22T12:44:01Z</time>
      </trkpt>
      <trkpt lat="42.469536" lon="1.567706">
        <time>2020-08-22T12:44:01Z</time>
      </trkpt>
      <trkpt lat="42.469536" lon="1.567706">
        <time>2020-08-22T12:44:01Z</time>
      </trkpt>
      <trkpt lat="42.469551" lon="1.567717">
        <time>2020-08-22T12:44:01Z</time>
      </trkpt>
      <trkpt lat="42.469551" lon="1.567717">
        <time>2020-08-22T12:44:01Z</time>
      </trkpt>
      <trkpt lat="42.469563" lon="1.567728">
        <time>2020-08-22T12:44:01Z</time>
      </trkpt>
      <trkpt lat="42.469563" lon="1.567728">
        <time>2020-08-22T12:44:01Z</time>
      </trkpt>
      <trkpt lat="42.469578" lon="1.567738">
        <time>2020-08-22T12:44:01Z</time>
      </trkpt>
      <trkpt lat="42.469578" lon="1.567738">
        <time>2020-08-22T12:44:01Z</time>
      </trkpt>
      <trkpt lat="42.469589" lon="1.567748">
        <time>2020-08-22T12:44:01Z</time>
      </trkpt>
      <trkpt lat="42.469589" lon="1.567748">
        <time>2020-08-22T12:44:01Z</time>
      </trkpt>
      <trkpt lat="42.469601" lon="1.567757">
        <time>2020-08-22T12:44:01Z</time>
      </trkpt>
      <trkpt lat="42.469601" lon="1.567757">
        <time>2020-08-22T12:44:01Z</time>
      </trkpt>
      <trkpt lat="42.469612" lon="1.567765">
        <time>2020-08-22T12:44:08Z</time>
      </trkpt>
      <trkpt lat="42.469612" lon="1.567765">
        <time>2020-08-22T12:44:08Z</time>
      </trkpt>
      <trkpt lat="42.469627" lon="1.567773">
        <time>2020-08-22T12:44:08Z</time>
      </trkpt>
      <trkpt lat="42.469627" lon="1.567773">
        <time>2020-08-22T12:44:08Z</time>
      </trkpt>
      <trkpt lat="42.469643" lon="1.567781">
        <time>2020-08-22T12:44:08Z</time>
      </trkpt>
      <trkpt lat="42.469643" lon="1.567781">
        <time>2020-08-22T12:44:08Z</time>
      </trkpt>
      <trkpt lat="42.469650" lon="1.567780">
        <time>2020-08-22T12:44:08Z</time>
      </trkpt>
      <trkpt lat="42.469650" lon="1.567780">
        <time>2020-08-22T12:44:08Z</time>
      </trkpt>
      <trkpt lat="42.469662" lon="1.567780">
        <time>2020-08-22T12:44:08Z</time>
      </trkpt>
      <trkpt lat="42.469662" lon="1.567780">
        <time>2020-08-22T12:44:08Z</time>
      </trkpt>
      <trkpt lat="42.469673" lon="1.567781">
        <time>2020-08-22T12:44:08Z</time>
      </trkpt>
      <trkpt lat="42.469673" lon="1.567781">
        <time>2020-08-22T12:44:08Z</time>
      </trkpt>
      <trkpt lat="42.469681" lon="1.567782">
        <time>2020-08-22T12:44:08Z</time>
      </trkpt>
      <trkpt lat="42.469681" lon="1.567782">
        <time>2020-08-22T12:44:08Z</time>
      </trkpt>
      <trkpt lat="42.469696" lon="1.567783">
        <time>2020-08-22T12:44:15Z</time>
      </trkpt>
      <trkpt lat="42.469696" lon="1.567783">
        <time>2020-08-22T12:44:15Z</time>
      </trkpt>
      <trkpt lat="42.469707" lon="1.567784">
        <time>2020-08-22T12:44:15Z</time>
      </trkpt>
      <trkpt lat="42.469707" lon="1.567784">
        <time>2020-08-22T12:44:15Z</time>
      </trkpt>
      <trkpt lat="42.469719" lon="1.567785">
        <time>2020-08-22T12:44:15Z</time>
      </trkpt>
      <trkpt lat="42.469719" lon="1.567785">
        <time>2020-08-22T12:44:15Z</time>
      </trkpt>
      <trkpt lat="42.469727" lon="1.567787">
        <time>2020-08-22T12:44:15Z</time>
      </trkpt>
      <trkpt lat="42.469727" lon="1.567787">
        <time>2020-08-22T12:44:15Z</time>
      </trkpt>
      <trkpt lat="42.469738" lon="1.567788">
        <time>2020-08-22T12:44:15Z</time>
      </trkpt>
      <trkpt lat="42.469738" lon="1.567788">
        <time>2020-08-22T12:44:15Z</time>
      </trkpt>
      <trkpt lat="42.469749" lon="1.567789">
        <time>2020-08-22T12:44:22Z</time>
      </trkpt>
      <trkpt lat="42.469749" lon="1.567789">
        <time>2020-08-22T12:44:22Z</time>
      </trkpt>
      <trkpt lat="42.469757" lon="1.567792">
        <time>2020-08-22T12:44:45Z</time>
      </trkpt>
      <trkpt lat="42.469757" lon="1.567792">
        <time>2020-08-22T12:44:45Z</time>
      </trkpt>
      <trkpt lat="42.469765" lon="1.567794">
        <time>2020-08-22T12:44:45Z</time>
      </trkpt>
      <trkpt lat="42.469765" lon="1.567794">
        <time>2020-08-22T12:44:45Z</time>
      </trkpt>
      <trkpt lat="42.469776" lon="1.567797">
        <time>2020-08-22T12:44:45Z</time>
      </trkpt>
      <trkpt lat="42.469776" lon="1.567797">
        <time>2020-08-22T12:44:45Z</time>
      </trkpt>
      <trkpt lat="42.469780" lon="1.567801">
        <time>2020-08-22T12:44:45Z</time>
      </trkpt>
      <trkpt lat="42.469780" lon="1.567801">
        <time>2020-08-22T12:44:45Z</time>
      </trkpt>
      <trkpt lat="42.469788" lon="1.567804">
        <time>2020-08-22T12:44:45Z</time>
      </trkpt>
      <trkpt lat="42.469788" lon="1.567804">
        <time>2020-08-22T12:44:45Z</time>
      </trkpt>
      <trkpt lat="42.469799" lon="1.567807">
        <time>2020-08-22T12:44:45Z</time>
      </trkpt>
      <trkpt lat="42.469799" lon="1.567807">
        <time>2020-08-22T12:44:45Z</time>
      </trkpt>
      <trkpt lat="42.469803" lon="1.567812">
        <time>2020-08-22T12:44:45Z</time>
      </trkpt>
      <trkpt lat="42.469803" lon="1.567812">
        <time>2020-08-22T12:44:45Z</time>
      </trkpt>
      <trkpt lat="42.469814" lon="1.567816">
        <time>2020-08-22T12:44:45Z</time>
      </trkpt>
      <trkpt lat="42.469814" lon="1.567816">
        <time>2020-08-22T12:44:45Z</time>
      </trkpt>
      <trkpt lat="42.469822" lon="1.567820">
        <time>2020-08-22T12:44:45Z</time>
      </trkpt>
      <trkpt lat="42.469822" lon="1.567820">
        <time>2020-08-22T12:44:45Z</time>
      </trkpt>
      <trkpt lat="42.469830" lon="1.567825">
        <time>2020-08-22T12:44:45Z</time>
      </trkpt>
      <trkpt lat="42.469830" lon="1.567825">
        <time>2020-08-22T12:44:45Z</time>
      </trkpt>
      <trkpt lat="42.469837" lon="1.567828">
        <time>2020-08-22T12:44:45Z</time>
      </trkpt>
      <trkpt lat="42.469837" lon="1.567828">
        <time>2020-08-22T12:44:45Z</time>
      </trkpt>
      <trkpt lat="42.469845" lon="1.567832">
        <time>2020-08-22T12:44:45Z</time>
      </trkpt>
      <trkpt lat="42.469845" lon="1.567832">
        <time>2020-08-22T12:44:45Z</time>
      </trkpt>
      <trkpt lat="42.469852" lon="1.567835">
        <time>2020-08-22T12:44:45Z</time>
      </trkpt>
      <trkpt lat="42.469852" lon="1.567835">
        <time>2020-08-22T12:44:45Z</time>
      </trkpt>
      <trkpt lat="42.469860" lon="1.567838">
        <time>2020-08-22T12:44:52Z</time>
      </trkpt>
      <trkpt lat="42.469860" lon="1.567838">
        <time>2020-08-22T12:44:52Z</time>
      </trkpt>
      <trkpt lat="42.469872" lon="1.567841">
        <time>2020-08-22T12:44:52Z</time>
      </trkpt>
      <trkpt lat="42.469872" lon="1.567841">
        <time>2020-08-22T12:44:52Z</time>
      </trkpt>
      <trkpt lat="42.469879" lon="1.567845">
        <time>2020-08-22T12:44:52Z</time>
      </trkpt>
      <trkpt lat="42.469879" lon="1.567845">
        <time>2020-08-22T12:44:52Z</time>
      </trkpt>
      <trkpt lat="42.469887" lon="1.567848">
        <time>2020-08-22T12:44:52Z</time>
      </trkpt>
      <trkpt lat="42.469887" lon="1.567848">
        <time>2020-08-22T12:44:52Z</time>
      </trkpt>
      <trkpt lat="42.469894" lon="1.567852">
        <time>2020-08-22T12:44:52Z</time>
      </trkpt>
      <trkpt lat="42.469894" lon="1.567852">
        <time>2020-08-22T12:44:52Z</time>
      </trkpt>
      <trkpt lat="42.469906" lon="1.567856">
        <time>2020-08-22T12:44:52Z</time>
      </trkpt>
      <trkpt lat="42.469906" lon="1.567856">
        <time>2020-08-22T12:44:52Z</time>
      </trkpt>
      <trkpt lat="42.469913" lon="1.567861">
        <time>2020-08-22T12:44:52Z</time>
      </trkpt>
      <trkpt lat="42.469913" lon="1.567861">
        <time>2020-08-22T12:44:52Z</time>
      </trkpt>
      <trkpt lat="42.469925" lon="1.567864">
        <time>2020-08-22T12:44:52Z</time>
      </trkpt>
      <trkpt lat="42.469925" lon="1.567864">
        <time>2020-08-22T12:44:52Z</time>
      </trkpt>
      <trkpt lat="42.469936" lon="1.567867">
        <time>2020-08-22T12:44:59Z</time>
      </trkpt>
      <trkpt lat="42.469936" lon="1.567867">
        <time>2020-08-22T12:44:59Z</time>
      </trkpt>
      <trkpt lat="42.469948" lon="1.567870">
        <time>2020-08-22T12:44:59Z</time>
      </trkpt>
      <trkpt lat="42.469948" lon="1.567870">
        <time>2020-08-22T12:44:59Z</time>
      </trkpt>
      <trkpt lat="42.469963" lon="1.567872">
        <time>2020-08-22T12:44:59Z</time>
      </trkpt>
      <trkpt lat="42.469963" lon="1.567872">
        <time>2020-08-22T12:44:59Z</time>
      </trkpt>
      <trkpt lat="42.469975" lon="1.567875">
        <time>2020-08-22T12:44:59Z</time>
      </trkpt>
      <trkpt lat="42.469975" lon="1.567875">
        <time>2020-08-22T12:44:59Z</time>
      </trkpt>
      <trkpt lat="42.469990" lon="1.567877">
        <time>2020-08-22T12:44:59Z</time>
      </trkpt>
      <trkpt lat="42.469990" lon="1.567877">
        <time>2020-08-22T12:44:59Z</time>
      </trkpt>
      <trkpt lat="42.470005" lon="1.567879">
        <time>2020-08-22T12:44:59Z</time>
      </trkpt>
      <trkpt lat="42.470005" lon="1.567879">
        <time>2020-08-22T12:44:59Z</time>
      </trkpt>
      <trkpt lat="42.470020" lon="1.567881">
        <time>2020-08-22T12:44:59Z</time>
      </trkpt>
      <trkpt lat="42.470020" lon="1.567881">
        <time>2020-08-22T12:44:59Z</time>
      </trkpt>
      <trkpt lat="42.470032" lon="1.567882">
        <time>2020-08-22T12:45:06Z</time>
      </trkpt>
      <trkpt lat="42.470032" lon="1.567882">
        <time>2020-08-22T12:45:06Z</time>
      </trkpt>
      <trkpt lat="42.470047" lon="1.567884">
        <time>2020-08-22T12:45:06Z</time>
      </trkpt>
      <trkpt lat="42.470047" lon="1.567884">
        <time>2020-08-22T12:45:06Z</time>
      </trkpt>
      <trkpt lat="42.470055" lon="1.567886">
        <time>2020-08-22T12:45:06Z</time>
      </trkpt>
      <trkpt lat="42.470055" lon="1.567886">
        <time>2020-08-22T12:45:06Z</time>
      </trkpt>
      <trkpt lat="42.470066" lon="1.567889">
        <time>2020-08-22T12:45:06Z</time>
      </trkpt>
      <trkpt lat="42.470066" lon="1.567889">
        <time>2020-08-22T12:45:06Z</time>
      </trkpt>
      <trkpt lat="42.470074" lon="1.567891">
        <time>2020-08-22T12:45:06Z</time>
      </trkpt>
      <trkpt lat="42.470074" lon="1.567891">
        <time>2020-08-22T12:45:06Z</time>
      </trkpt>
      <trkpt lat="42.470081" lon="1.567892">
        <time>2020-08-22T12:45:06Z</time>
      </trkpt>
      <trkpt lat="42.470081" lon="1.567892">
        <time>2020-08-22T12:45:06Z</time>
      </trkpt>
      <trkpt lat="42.470089" lon="1.567893">
        <time>2020-08-22T12:45:13Z</time>
      </trkpt>
      <trkpt lat="42.470089" lon="1.567893">
        <time>2020-08-22T12:45:13Z</time>
      </trkpt>
      <trkpt lat="42.470097" lon="1.567893">
        <time>2020-08-22T12:45:13Z</time>
      </trkpt>
      <trkpt lat="42.470097" lon="1.567893">
        <time>2020-08-22T12:45:13Z</time>
      </trkpt>
      <trkpt lat="42.470104" lon="1.567892">
        <time>2020-08-22T12:45:13Z</time>
      </trkpt>
      <trkpt lat="42.470104" lon="1.567892">
        <time>2020-08-22T12:45:13Z</time>
      </trkpt>
      <trkpt lat="42.470108" lon="1.567890">
        <time>2020-08-22T12:45:13Z</time>
      </trkpt>
      <trkpt lat="42.470108" lon="1.567890">
        <time>2020-08-22T12:45:13Z</time>
      </trkpt>
      <trkpt lat="42.470116" lon="1.567888">
        <time>2020-08-22T12:45:13Z</time>
      </trkpt>
      <trkpt lat="42.470116" lon="1.567888">
        <time>2020-08-22T12:45:13Z</time>
      </trkpt>
      <trkpt lat="42.470123" lon="1.567886">
        <time>2020-08-22T12:45:13Z</time>
      </trkpt>
      <trkpt lat="42.470123" lon="1.567886">
        <time>2020-08-22T12:45:13Z</time>
      </trkpt>
      <trkpt lat="42.470131" lon="1.567883">
        <time>2020-08-22T12:45:13Z</time>
      </trkpt>
      <trkpt lat="42.470131" lon="1.567883">
        <time>2020-08-22T12:45:13Z</time>
      </trkpt>
      <trkpt lat="42.470139" lon="1.567880">
        <time>2020-08-22T12:45:20Z</time>
      </trkpt>
      <trkpt lat="42.470139" lon="1.567880">
        <time>2020-08-22T12:45:20Z</time>
      </trkpt>
      <trkpt lat="42.470146" lon="1.567876">
        <time>2020-08-22T12:45:20Z</time>
      </trkpt>
      <trkpt lat="42.470146" lon="1.567876">
        <time>2020-08-22T12:45:20Z</time>
      </trkpt>
      <trkpt lat="42.470154" lon="1.567872">
        <time>2020-08-22T12:45:20Z</time>
      </trkpt>
      <trkpt lat="42.470154" lon="1.567872">
        <time>2020-08-22T12:45:20Z</time>
      </trkpt>
      <trkpt lat="42.470165" lon="1.567869">
        <time>2020-08-22T12:45:20Z</time>
      </trkpt>
      <trkpt lat="42.470165" lon="1.567869">
        <time>2020-08-22T12:45:20Z</time>
      </trkpt>
      <trkpt lat="42.470173" lon="1.567866">
        <time>2020-08-22T12:45:20Z</time>
      </trkpt>
      <trkpt lat="42.470173" lon="1.567866">
        <time>2020-08-22T12:45:20Z</time>
      </trkpt>
      <trkpt lat="42.470181" lon="1.567864">
        <time>2020-08-22T12:45:20Z</time>
      </trkpt>
      <trkpt lat="42.470181" lon="1.567864">
        <time>2020-08-22T12:45:20Z</time>
      </trkpt>
      <trkpt lat="42.470192" lon="1.567861">
        <time>2020-08-22T12:45:20Z</time>
      </trkpt>
      <trkpt lat="42.470192" lon="1.567861">
        <time>2020-08-22T12:45:20Z</time>
      </trkpt>
      <trkpt lat="42.470200" lon="1.567858">
        <time>2020-08-22T12:45:27Z</time>
      </trkpt>
      <trkpt lat="42.470200" lon="1.567858">
        <time>2020-08-22T12:45:27Z</time>
      </trkpt>
      <trkpt lat="42.470207" lon="1.567855">
        <time>2020-08-22T12:45:27Z</time>
      </trkpt>
      <trkpt lat="42.470207" lon="1.567855">
        <time>2020-08-22T12:45:27Z</time>
      </trkpt>
      <trkpt lat="42.470215" lon="1.567851">
        <time>2020-08-22T12:45:27Z</time>
      </trkpt>
      <trkpt lat="42.470215" lon="1.567851">
        <time>2020-08-22T12:45:27Z</time>
      </trkpt>
      <trkpt lat="42.470222" lon="1.567847">
        <time>2020-08-22T12:45:27Z</time>
      </trkpt>
      <trkpt lat="42.470222" lon="1.567847">
        <time>2020-08-22T12:45:27Z</time>
      </trkpt>
      <trkpt lat="42.470230" lon="1.567844">
        <time>2020-08-22T12:45:27Z</time>
      </trkpt>
      <trkpt lat="42.470230" lon="1.567844">
        <time>2020-08-22T12:45:27Z</time>
      </trkpt>
      <trkpt lat="42.470242" lon="1.567840">
        <time>2020-08-22T12:45:27Z</time>
      </trkpt>
      <trkpt lat="42.470242" lon="1.567840">
        <time>2020-08-22T12:45:27Z</time>
      </trkpt>
      <trkpt lat="42.470245" lon="1.567837">
        <time>2020-08-22T12:45:27Z</time>
      </trkpt>
      <trkpt lat="42.470245" lon="1.567837">
        <time>2020-08-22T12:45:27Z</time>
      </trkpt>
      <trkpt lat="42.470325" lon="1.567801">
        <time>2020-08-22T12:45:27Z</time>
      </trkpt>
      <trkpt lat="42.470325" lon="1.567801">
        <time>2020-08-22T12:45:27Z</time>
      </trkpt>
      <trkpt lat="42.470379" lon="1.567846">
        <time>2020-08-22T12:45:44Z</time>
      </trkpt>
      <trkpt lat="42.470379" lon="1.567846">
        <time>2020-08-22T12:45:44Z</time>
      </trkpt>
      <trkpt lat="42.470383" lon="1.567842">
        <time>2020-08-22T12:45:44Z</time>
      </trkpt>
      <trkpt lat="42.470383" lon="1.567842">
        <time>2020-08-22T12:45:44Z</time>
      </trkpt>
      <trkpt lat="42.470386" lon="1.567841">
        <time>2020-08-22T12:45:51Z</time>
      </trkpt>
      <trkpt lat="42.470386" lon="1.567841">
        <time>2020-08-22T12:45:51Z</time>
      </trkpt>
      <trkpt lat="42.470390" lon="1.567841">
        <time>2020-08-22T12:45:51Z</time>
      </trkpt>
      <trkpt lat="42.470390" lon="1.567841">
        <time>2020-08-22T12:45:51Z</time>
      </trkpt>
      <trkpt lat="42.470394" lon="1.567842">
        <time>2020-08-22T12:45:51Z</time>
      </trkpt>
      <trkpt lat="42.470394" lon="1.567842">
        <time>2020-08-22T12:45:51Z</time>
      </trkpt>
      <trkpt lat="42.470402" lon="1.567844">
        <time>2020-08-22T12:45:51Z</time>
      </trkpt>
      <trkpt lat="42.470402" lon="1.567844">
        <time>2020-08-22T12:45:51Z</time>
      </trkpt>
      <trkpt lat="42.470409" lon="1.567847">
        <time>2020-08-22T12:45:51Z</time>
      </trkpt>
      <trkpt lat="42.470409" lon="1.567847">
        <time>2020-08-22T12:45:51Z</time>
      </trkpt>
      <trkpt lat="42.470417" lon="1.567851">
        <time>2020-08-22T12:45:51Z</time>
      </trkpt>
      <trkpt lat="42.470417" lon="1.567851">
        <time>2020-08-22T12:45:51Z</time>
      </trkpt>
      <trkpt lat="42.470421" lon="1.567856">
        <time>2020-08-22T12:45:51Z</time>
      </trkpt>
      <trkpt lat="42.470421" lon="1.567856">
        <time>2020-08-22T12:45:51Z</time>
      </trkpt>
      <trkpt lat="42.470428" lon="1.567861">
        <time>2020-08-22T12:45:58Z</time>
      </trkpt>
      <trkpt lat="42.470428" lon="1.567861">
        <time>2020-08-22T12:45:58Z</time>
      </trkpt>
      <trkpt lat="42.470444" lon="1.567869">
        <time>2020-08-22T12:45:58Z</time>
      </trkpt>
      <trkpt lat="42.470444" lon="1.567869">
        <time>2020-08-22T12:45:58Z</time>
      </trkpt>
      <trkpt lat="42.470459" lon="1.567879">
        <time>2020-08-22T12:45:58Z</time>
      </trkpt>
      <trkpt lat="42.470459" lon="1.567879">
        <time>2020-08-22T12:45:58Z</time>
      </trkpt>
      <trkpt lat="42.470470" lon="1.567890">
        <time>2020-08-22T12:45:58Z</time>
      </trkpt>
      <trkpt lat="42.470470" lon="1.567890">
        <time>2020-08-22T12:45:58Z</time>
      </trkpt>
      <trkpt lat="42.470489" lon="1.567903">
        <time>2020-08-22T12:45:58Z</time>
      </trkpt>
      <trkpt lat="42.470489" lon="1.567903">
        <time>2020-08-22T12:45:58Z</time>
      </trkpt>
      <trkpt lat="42.470505" lon="1.567917">
        <time>2020-08-22T12:45:58Z</time>
      </trkpt>
      <trkpt lat="42.470505" lon="1.567917">
        <time>2020-08-22T12:45:58Z</time>
      </trkpt>
      <trkpt lat="42.470516" lon="1.567930">
        <time>2020-08-22T12:45:58Z</time>
      </trkpt>
      <trkpt lat="42.470516" lon="1.567930">
        <time>2020-08-22T12:45:58Z</time>
      </trkpt>
      <trkpt lat="42.470531" lon="1.567944">
        <time>2020-08-22T12:46:05Z</time>
      </trkpt>
      <trkpt lat="42.470531" lon="1.567944">
        <time>2020-08-22T12:46:05Z</time>
      </trkpt>
      <trkpt lat="42.470543" lon="1.567957">
        <time>2020-08-22T12:46:05Z</time>
      </trkpt>
      <trkpt lat="42.470543" lon="1.567957">
        <time>2020-08-22T12:46:05Z</time>
      </trkpt>
      <trkpt lat="42.470554" lon="1.567971">
        <time>2020-08-22T12:46:05Z</time>
      </trkpt>
      <trkpt lat="42.470554" lon="1.567971">
        <time>2020-08-22T12:46:05Z</time>
      </trkpt>
      <trkpt lat="42.470566" lon="1.567985">
        <time>2020-08-22T12:46:05Z</time>
      </trkpt>
      <trkpt lat="42.470566" lon="1.567985">
        <time>2020-08-22T12:46:05Z</time>
      </trkpt>
      <trkpt lat="42.470577" lon="1.567998">
        <time>2020-08-22T12:46:05Z</time>
      </trkpt>
      <trkpt lat="42.470577" lon="1.567998">
        <time>2020-08-22T12:46:05Z</time>
      </trkpt>
      <trkpt lat="42.470585" lon="1.568010">
        <time>2020-08-22T12:46:05Z</time>
      </trkpt>
      <trkpt lat="42.470585" lon="1.568010">
        <time>2020-08-22T12:46:05Z</time>
      </trkpt>
      <trkpt lat="42.470596" lon="1.568023">
        <time>2020-08-22T12:46:05Z</time>
      </trkpt>
      <trkpt lat="42.470596" lon="1.568023">
        <time>2020-08-22T12:46:05Z</time>
      </trkpt>
      <trkpt lat="42.470604" lon="1.568034">
        <time>2020-08-22T12:46:12Z</time>
      </trkpt>
      <trkpt lat="42.470604" lon="1.568034">
        <time>2020-08-22T12:46:12Z</time>
      </trkpt>
      <trkpt lat="42.470612" lon="1.568046">
        <time>2020-08-22T12:46:12Z</time>
      </trkpt>
      <trkpt lat="42.470612" lon="1.568046">
        <time>2020-08-22T12:46:12Z</time>
      </trkpt>
      <trkpt lat="42.470619" lon="1.568057">
        <time>2020-08-22T12:46:12Z</time>
      </trkpt>
      <trkpt lat="42.470619" lon="1.568057">
        <time>2020-08-22T12:46:12Z</time>
      </trkpt>
      <trkpt lat="42.470627" lon="1.568067">
        <time>2020-08-22T12:46:12Z</time>
      </trkpt>
      <trkpt lat="42.470627" lon="1.568067">
        <time>2020-08-22T12:46:12Z</time>
      </trkpt>
      <trkpt lat="42.470638" lon="1.568077">
        <time>2020-08-22T12:46:12Z</time>
      </trkpt>
      <trkpt lat="42.470638" lon="1.568077">
        <time>2020-08-22T12:46:12Z</time>
      </trkpt>
      <trkpt lat="42.470646" lon="1.568086">
        <time>2020-08-22T12:46:12Z</time>
      </trkpt>
      <trkpt lat="42.470646" lon="1.568086">
        <time>2020-08-22T12:46:12Z</time>
      </trkpt>
      <trkpt lat="42.470657" lon="1.568094">
        <time>2020-08-22T12:46:12Z</time>
      </trkpt>
      <trkpt lat="42.470657" lon="1.568094">
        <time>2020-08-22T12:46:12Z</time>
      </trkpt>
      <trkpt lat="42.470665" lon="1.568100">
        <time>2020-08-22T12:46:19Z</time>
      </trkpt>
      <trkpt lat="42.470665" lon="1.568100">
        <time>2020-08-22T12:46:19Z</time>
      </trkpt>
      <trkpt lat="42.470676" lon="1.568106">
        <time>2020-08-22T12:46:19Z</time>
      </trkpt>
      <trkpt lat="42.470676" lon="1.568106">
        <time>2020-08-22T12:46:19Z</time>
      </trkpt>
      <trkpt lat="42.470688" lon="1.568112">
        <time>2020-08-22T12:46:19Z</time>
      </trkpt>
      <trkpt lat="42.470688" lon="1.568112">
        <time>2020-08-22T12:46:19Z</time>
      </trkpt>
      <trkpt lat="42.470703" lon="1.568117">
        <time>2020-08-22T12:46:19Z</time>
      </trkpt>
      <trkpt lat="42.470703" lon="1.568117">
        <time>2020-08-22T12:46:19Z</time>
      </trkpt>
      <trkpt lat="42.470711" lon="1.568122">
        <time>2020-08-22T12:46:19Z</time>
      </trkpt>
      <trkpt lat="42.470711" lon="1.568122">
        <time>2020-08-22T12:46:19Z</time>
      </trkpt>
      <trkpt lat="42.470726" lon="1.568126">
        <time>2020-08-22T12:46:19Z</time>
      </trkpt>
      <trkpt lat="42.470726" lon="1.568126">
        <time>2020-08-22T12:46:19Z</time>
      </trkpt>
      <trkpt lat="42.470737" lon="1.568130">
        <time>2020-08-22T12:46:19Z</time>
      </trkpt>
      <trkpt lat="42.470737" lon="1.568130">
        <time>2020-08-22T12:46:19Z</time>
      </trkpt>
      <trkpt lat="42.470753" lon="1.568134">
        <time>2020-08-22T12:46:26Z</time>
      </trkpt>
      <trkpt lat="42.470753" lon="1.568134">
        <time>2020-08-22T12:46:26Z</time>
      </trkpt>
      <trkpt lat="42.470764" lon="1.568138">
        <time>2020-08-22T12:46:26Z</time>
      </trkpt>
      <trkpt lat="42.470764" lon="1.568138">
        <time>2020-08-22T12:46:26Z</time>
      </trkpt>
      <trkpt lat="42.470779" lon="1.568142">
        <time>2020-08-22T12:46:26Z</time>
      </trkpt>
      <trkpt lat="42.470779" lon="1.568142">
        <time>2020-08-22T12:46:26Z</time>
      </trkpt>
      <trkpt lat="42.470795" lon="1.568145">
        <time>2020-08-22T12:46:26Z</time>
      </trkpt>
      <trkpt lat="42.470795" lon="1.568145">
        <time>2020-08-22T12:46:26Z</time>
      </trkpt>
      <trkpt lat="42.470814" lon="1.568149">
        <time>2020-08-22T12:46:26Z</time>
      </trkpt>
      <trkpt lat="42.470814" lon="1.568149">
        <time>2020-08-22T12:46:26Z</time>
      </trkpt>
      <trkpt lat="42.470829" lon="1.568152">
        <time>2020-08-22T12:46:26Z</time>
      </trkpt>
      <trkpt lat="42.470829" lon="1.568152">
        <time>2020-08-22T12:46:26Z</time>
      </trkpt>
      <trkpt lat="42.470844" lon="1.568156">
        <time>2020-08-22T12:46:33Z</time>
      </trkpt>
      <trkpt lat="42.470844" lon="1.568156">
        <time>2020-08-22T12:46:33Z</time>
      </trkpt>
      <trkpt lat="42.470860" lon="1.568161">
        <time>2020-08-22T12:46:33Z</time>
      </trkpt>
      <trkpt lat="42.470860" lon="1.568161">
        <time>2020-08-22T12:46:33Z</time>
      </trkpt>
      <trkpt lat="42.470879" lon="1.568166">
        <time>2020-08-22T12:46:33Z</time>
      </trkpt>
      <trkpt lat="42.470879" lon="1.568166">
        <time>2020-08-22T12:46:33Z</time>
      </trkpt>
      <trkpt lat="42.470890" lon="1.568171">
        <time>2020-08-22T12:46:33Z</time>
      </trkpt>
      <trkpt lat="42.470890" lon="1.568171">
        <time>2020-08-22T12:46:33Z</time>
      </trkpt>
      <trkpt lat="42.470905" lon="1.568177">
        <time>2020-08-22T12:46:33Z</time>
      </trkpt>
      <trkpt lat="42.470905" lon="1.568177">
        <time>2020-08-22T12:46:33Z</time>
      </trkpt>
      <trkpt lat="42.470921" lon="1.568183">
        <time>2020-08-22T12:46:33Z</time>
      </trkpt>
      <trkpt lat="42.470921" lon="1.568183">
        <time>2020-08-22T12:46:33Z</time>
      </trkpt>
      <trkpt lat="42.470932" lon="1.568190">
        <time>2020-08-22T12:46:33Z</time>
      </trkpt>
      <trkpt lat="42.470932" lon="1.568190">
        <time>2020-08-22T12:46:33Z</time>
      </trkpt>
      <trkpt lat="42.470940" lon="1.568197">
        <time>2020-08-22T12:46:41Z</time>
      </trkpt>
      <trkpt lat="42.470940" lon="1.568197">
        <time>2020-08-22T12:46:41Z</time>
      </trkpt>
      <trkpt lat="42.470951" lon="1.568203">
        <time>2020-08-22T12:46:41Z</time>
      </trkpt>
      <trkpt lat="42.470951" lon="1.568203">
        <time>2020-08-22T12:46:41Z</time>
      </trkpt>
      <trkpt lat="42.470959" lon="1.568209">
        <time>2020-08-22T12:46:41Z</time>
      </trkpt>
      <trkpt lat="42.470959" lon="1.568209">
        <time>2020-08-22T12:46:41Z</time>
      </trkpt>
      <trkpt lat="42.470966" lon="1.568214">
        <time>2020-08-22T12:46:41Z</time>
      </trkpt>
      <trkpt lat="42.470966" lon="1.568214">
        <time>2020-08-22T12:46:41Z</time>
      </trkpt>
      <trkpt lat="42.470978" lon="1.568218">
        <time>2020-08-22T12:46:41Z</time>
      </trkpt>
      <trkpt lat="42.470978" lon="1.568218">
        <time>2020-08-22T12:46:41Z</time>
      </trkpt>
      <trkpt lat="42.470982" lon="1.568222">
        <time>2020-08-22T12:46:41Z</time>
      </trkpt>
      <trkpt lat="42.470982" lon="1.568222">
        <time>2020-08-22T12:46:41Z</time>
      </trkpt>
      <trkpt lat="42.470989" lon="1.568226">
        <time>2020-08-22T12:46:49Z</time>
      </trkpt>
      <trkpt lat="42.470989" lon="1.568226">
        <time>2020-08-22T12:46:49Z</time>
      </trkpt>
      <trkpt lat="42.470997" lon="1.568230">
        <time>2020-08-22T12:46:49Z</time>
      </trkpt>
      <trkpt lat="42.470997" lon="1.568230">
        <time>2020-08-22T12:46:49Z</time>
      </trkpt>
      <trkpt lat="42.471004" lon="1.568234">
        <time>2020-08-22T12:46:49Z</time>
      </trkpt>
      <trkpt lat="42.471004" lon="1.568234">
        <time>2020-08-22T12:46:49Z</time>
      </trkpt>
      <trkpt lat="42.471008" lon="1.568238">
        <time>2020-08-22T12:46:49Z</time>
      </trkpt>
      <trkpt lat="42.471008" lon="1.568238">
        <time>2020-08-22T12:46:49Z</time>
      </trkpt>
      <trkpt lat="42.471012" lon="1.568239">
        <time>2020-08-22T12:47:08Z</time>
      </trkpt>
      <trkpt lat="42.471012" lon="1.568239">
        <time>2020-08-22T12:47:08Z</time>
      </trkpt>
      <trkpt lat="42.471016" lon="1.568240">
        <time>2020-08-22T12:47:08Z</time>
      </trkpt>
      <trkpt lat="42.471016" lon="1.568240">
        <time>2020-08-22T12:47:08Z</time>
      </trkpt>
      <trkpt lat="42.471016" lon="1.568241">
        <time>2020-08-22T12:47:08Z</time>
      </trkpt>
      <trkpt lat="42.471016" lon="1.568241">
        <time>2020-08-22T12:47:08Z</time>
      </trkpt>
      <trkpt lat="42.471016" lon="1.568240">
        <time>2020-08-22T12:47:08Z</time>
      </trkpt>
      <trkpt lat="42.471016" lon="1.568240">
        <time>2020-08-22T12:47:08Z</time>
      </trkpt>
      <trkpt lat="42.471016" lon="1.568237">
        <time>2020-08-22T12:47:08Z</time>
      </trkpt>
      <trkpt lat="42.471016" lon="1.568237">
        <time>2020-08-22T12:47:08Z</time>
      </trkpt>
      <trkpt lat="42.471012" lon="1.568232">
        <time>2020-08-22T12:47:08Z</time>
      </trkpt>
      <trkpt lat="42.471012" lon="1.568232">
        <time>2020-08-22T12:47:08Z</time>
      </trkpt>
      <trkpt lat="42.471012" lon="1.568225">
        <time>2020-08-22T12:47:08Z</time>
      </trkpt>
      <trkpt lat="42.471012" lon="1.568225">
        <time>2020-08-22T12:47:08Z</time>
      </trkpt>
      <trkpt lat="42.471008" lon="1.568217">
        <time>2020-08-22T12:47:15Z</time>
      </trkpt>
      <trkpt lat="42.471008" lon="1.568217">
        <time>2020-08-22T12:47:15Z</time>
      </trkpt>
      <trkpt lat="42.471004" lon="1.568206">
        <time>2020-08-22T12:47:15Z</time>
      </trkpt>
      <trkpt lat="42.471004" lon="1.568206">
        <time>2020-08-22T12:47:15Z</time>
      </trkpt>
      <trkpt lat="42.471004" lon="1.568194">
        <time>2020-08-22T12:47:15Z</time>
      </trkpt>
      <trkpt lat="42.471004" lon="1.568194">
        <time>2020-08-22T12:47:15Z</time>
      </trkpt>
      <trkpt lat="42.471001" lon="1.568181">
        <time>2020-08-22T12:47:15Z</time>
      </trkpt>
      <trkpt lat="42.471001" lon="1.568181">
        <time>2020-08-22T12:47:15Z</time>
      </trkpt>
      <trkpt lat="42.470997" lon="1.568167">
        <time>2020-08-22T12:47:15Z</time>
      </trkpt>
      <trkpt lat="42.470997" lon="1.568167">
        <time>2020-08-22T12:47:15Z</time>
      </trkpt>
      <trkpt lat="42.470993" lon="1.568152">
        <time>2020-08-22T12:47:15Z</time>
      </trkpt>
      <trkpt lat="42.470993" lon="1.568152">
        <time>2020-08-22T12:47:15Z</time>
      </trkpt>
      <trkpt lat="42.470993" lon="1.568137">
        <time>2020-08-22T12:47:15Z</time>
      </trkpt>
      <trkpt lat="42.470993" lon="1.568137">
        <time>2020-08-22T12:47:15Z</time>
      </trkpt>
      <trkpt lat="42.470993" lon="1.568121">
        <time>2020-08-22T12:47:22Z</time>
      </trkpt>
      <trkpt lat="42.470993" lon="1.568121">
        <time>2020-08-22T12:47:22Z</time>
      </trkpt>
      <trkpt lat="42.470993" lon="1.568106">
        <time>2020-08-22T12:47:22Z</time>
      </trkpt>
      <trkpt lat="42.470993" lon="1.568106">
        <time>2020-08-22T12:47:22Z</time>
      </trkpt>
      <trkpt lat="42.470989" lon="1.568092">
        <time>2020-08-22T12:47:22Z</time>
      </trkpt>
      <trkpt lat="42.470989" lon="1.568092">
        <time>2020-08-22T12:47:22Z</time>
      </trkpt>
      <trkpt lat="42.470989" lon="1.568078">
        <time>2020-08-22T12:47:22Z</time>
      </trkpt>
      <trkpt lat="42.470989" lon="1.568078">
        <time>2020-08-22T12:47:22Z</time>
      </trkpt>
      <trkpt lat="42.470989" lon="1.568064">
        <time>2020-08-22T12:47:22Z</time>
      </trkpt>
      <trkpt lat="42.470989" lon="1.568064">
        <time>2020-08-22T12:47:22Z</time>
      </trkpt>
      <trkpt lat="42.470989" lon="1.568050">
        <time>2020-08-22T12:47:22Z</time>
      </trkpt>
      <trkpt lat="42.470989" lon="1.568050">
        <time>2020-08-22T12:47:22Z</time>
      </trkpt>
      <trkpt lat="42.470989" lon="1.568037">
        <time>2020-08-22T12:47:22Z</time>
      </trkpt>
      <trkpt lat="42.470989" lon="1.568037">
        <time>2020-08-22T12:47:22Z</time>
      </trkpt>
      <trkpt lat="42.470989" lon="1.568026">
        <time>2020-08-22T12:47:29Z</time>
      </trkpt>
      <trkpt lat="42.470989" lon="1.568026">
        <time>2020-08-22T12:47:29Z</time>
      </trkpt>
      <trkpt lat="42.470989" lon="1.568016">
        <time>2020-08-22T12:47:29Z</time>
      </trkpt>
      <trkpt lat="42.470989" lon="1.568016">
        <time>2020-08-22T12:47:29Z</time>
      </trkpt>
      <trkpt lat="42.470989" lon="1.568007">
        <time>2020-08-22T12:47:29Z</time>
      </trkpt>
      <trkpt lat="42.470989" lon="1.568007">
        <time>2020-08-22T12:47:29Z</time>
      </trkpt>
      <trkpt lat="42.470993" lon="1.567998">
        <time>2020-08-22T12:47:29Z</time>
      </trkpt>
      <trkpt lat="42.470993" lon="1.567998">
        <time>2020-08-22T12:47:29Z</time>
      </trkpt>
      <trkpt lat="42.470993" lon="1.567989">
        <time>2020-08-22T12:47:29Z</time>
      </trkpt>
      <trkpt lat="42.470993" lon="1.567989">
        <time>2020-08-22T12:47:29Z</time>
      </trkpt>
      <trkpt lat="42.470993" lon="1.567980">
        <time>2020-08-22T12:47:29Z</time>
      </trkpt>
      <trkpt lat="42.470993" lon="1.567980">
        <time>2020-08-22T12:47:29Z</time>
      </trkpt>
      <trkpt lat="42.470993" lon="1.567972">
        <time>2020-08-22T12:47:29Z</time>
      </trkpt>
      <trkpt lat="42.470993" lon="1.567972">
        <time>2020-08-22T12:47:29Z</time>
      </trkpt>
      <trkpt lat="42.470993" lon="1.567965">
        <time>2020-08-22T12:47:36Z</time>
      </trkpt>
      <trkpt lat="42.470993" lon="1.567965">
        <time>2020-08-22T12:47:36Z</time>
      </trkpt>
      <trkpt lat="42.470997" lon="1.567959">
        <time>2020-08-22T12:47:36Z</time>
      </trkpt>
      <trkpt lat="42.470997" lon="1.567959">
        <time>2020-08-22T12:47:36Z</time>
      </trkpt>
      <trkpt lat="42.471001" lon="1.567954">
        <time>2020-08-22T12:47:36Z</time>
      </trkpt>
      <trkpt lat="42.471001" lon="1.567954">
        <time>2020-08-22T12:47:36Z</time>
      </trkpt>
      <trkpt lat="42.471004" lon="1.567950">
        <time>2020-08-22T12:47:36Z</time>
      </trkpt>
      <trkpt lat="42.471004" lon="1.567950">
        <time>2020-08-22T12:47:36Z</time>
      </trkpt>
      <trkpt lat="42.471008" lon="1.567948">
        <time>2020-08-22T12:47:36Z</time>
      </trkpt>
      <trkpt lat="42.471008" lon="1.567948">
        <time>2020-08-22T12:47:36Z</time>
      </trkpt>
      <trkpt lat="42.471016" lon="1.567946">
        <time>2020-08-22T12:47:36Z</time>
      </trkpt>
      <trkpt lat="42.471016" lon="1.567946">
        <time>2020-08-22T12:47:36Z</time>
      </trkpt>
      <trkpt lat="42.471020" lon="1.567946">
        <time>2020-08-22T12:47:36Z</time>
      </trkpt>
      <trkpt lat="42.471020" lon="1.567946">
        <time>2020-08-22T12:47:36Z</time>
      </trkpt>
      <trkpt lat="42.471031" lon="1.567946">
        <time>2020-08-22T12:47:43Z</time>
      </trkpt>
      <trkpt lat="42.471031" lon="1.567946">
        <time>2020-08-22T12:47:43Z</time>
      </trkpt>
      <trkpt lat="42.471035" lon="1.567946">
        <time>2020-08-22T12:47:43Z</time>
      </trkpt>
      <trkpt lat="42.471035" lon="1.567946">
        <time>2020-08-22T12:47:43Z</time>
      </trkpt>
      <trkpt lat="42.471043" lon="1.567947">
        <time>2020-08-22T12:47:43Z</time>
      </trkpt>
      <trkpt lat="42.471043" lon="1.567947">
        <time>2020-08-22T12:47:43Z</time>
      </trkpt>
      <trkpt lat="42.471050" lon="1.567947">
        <time>2020-08-22T12:47:43Z</time>
      </trkpt>
      <trkpt lat="42.471050" lon="1.567947">
        <time>2020-08-22T12:47:43Z</time>
      </trkpt>
      <trkpt lat="42.471058" lon="1.567946">
        <time>2020-08-22T12:47:43Z</time>
      </trkpt>
      <trkpt lat="42.471058" lon="1.567946">
        <time>2020-08-22T12:47:43Z</time>
      </trkpt>
      <trkpt lat="42.471066" lon="1.567945">
        <time>2020-08-22T12:47:43Z</time>
      </trkpt>
      <trkpt lat="42.471066" lon="1.567945">
        <time>2020-08-22T12:47:43Z</time>
      </trkpt>
      <trkpt lat="42.471069" lon="1.567942">
        <time>2020-08-22T12:47:43Z</time>
      </trkpt>
      <trkpt lat="42.471069" lon="1.567942">
        <time>2020-08-22T12:47:43Z</time>
      </trkpt>
      <trkpt lat="42.471073" lon="1.567938">
        <time>2020-08-22T12:47:50Z</time>
      </trkpt>
      <trkpt lat="42.471073" lon="1.567938">
        <time>2020-08-22T12:47:50Z</time>
      </trkpt>
      <trkpt lat="42.471081" lon="1.567933">
        <time>2020-08-22T12:47:50Z</time>
      </trkpt>
      <trkpt lat="42.471081" lon="1.567933">
        <time>2020-08-22T12:47:50Z</time>
      </trkpt>
      <trkpt lat="42.471085" lon="1.567927">
        <time>2020-08-22T12:47:50Z</time>
      </trkpt>
      <trkpt lat="42.471085" lon="1.567927">
        <time>2020-08-22T12:47:50Z</time>
      </trkpt>
      <trkpt lat="42.471092" lon="1.567920">
        <time>2020-08-22T12:47:50Z</time>
      </trkpt>
      <trkpt lat="42.471092" lon="1.567920">
        <time>2020-08-22T12:47:50Z</time>
      </trkpt>
      <trkpt lat="42.471096" lon="1.567912">
        <time>2020-08-22T12:47:50Z</time>
      </trkpt>
      <trkpt lat="42.471096" lon="1.567912">
        <time>2020-08-22T12:47:50Z</time>
      </trkpt>
      <trkpt lat="42.471100" lon="1.567904">
        <time>2020-08-22T12:47:50Z</time>
      </trkpt>
      <trkpt lat="42.471100" lon="1.567904">
        <time>2020-08-22T12:47:50Z</time>
      </trkpt>
      <trkpt lat="42.471107" lon="1.567895">
        <time>2020-08-22T12:47:50Z</time>
      </trkpt>
      <trkpt lat="42.471107" lon="1.567895">
        <time>2020-08-22T12:47:50Z</time>
      </trkpt>
      <trkpt lat="42.471119" lon="1.567887">
        <time>2020-08-22T12:47:57Z</time>
      </trkpt>
      <trkpt lat="42.471119" lon="1.567887">
        <time>2020-08-22T12:47:57Z</time>
      </trkpt>
      <trkpt lat="42.471123" lon="1.567879">
        <time>2020-08-22T12:47:57Z</time>
      </trkpt>
      <trkpt lat="42.471123" lon="1.567879">
        <time>2020-08-22T12:47:57Z</time>
      </trkpt>
      <trkpt lat="42.471130" lon="1.567872">
        <time>2020-08-22T12:47:57Z</time>
      </trkpt>
      <trkpt lat="42.471130" lon="1.567872">
        <time>2020-08-22T12:47:57Z</time>
      </trkpt>
      <trkpt lat="42.471138" lon="1.567866">
        <time>2020-08-22T12:47:57Z</time>
      </trkpt>
      <trkpt lat="42.471138" lon="1.567866">
        <time>2020-08-22T12:47:57Z</time>
      </trkpt>
      <trkpt lat="42.471146" lon="1.567861">
        <time>2020-08-22T12:47:57Z</time>
      </trkpt>
      <trkpt lat="42.471146" lon="1.567861">
        <time>2020-08-22T12:47:57Z</time>
      </trkpt>
      <trkpt lat="42.471157" lon="1.567857">
        <time>2020-08-22T12:47:57Z</time>
      </trkpt>
      <trkpt lat="42.471157" lon="1.567857">
        <time>2020-08-22T12:47:57Z</time>
      </trkpt>
      <trkpt lat="42.471165" lon="1.567853">
        <time>2020-08-22T12:47:57Z</time>
      </trkpt>
      <trkpt lat="42.471165" lon="1.567853">
        <time>2020-08-22T12:47:57Z</time>
      </trkpt>
      <trkpt lat="42.471172" lon="1.567851">
        <time>2020-08-22T12:48:04Z</time>
      </trkpt>
      <trkpt lat="42.471172" lon="1.567851">
        <time>2020-08-22T12:48:04Z</time>
      </trkpt>
      <trkpt lat="42.471184" lon="1.567849">
        <time>2020-08-22T12:48:04Z</time>
      </trkpt>
      <trkpt lat="42.471184" lon="1.567849">
        <time>2020-08-22T12:48:04Z</time>
      </trkpt>
      <trkpt lat="42.471191" lon="1.567848">
        <time>2020-08-22T12:48:04Z</time>
      </trkpt>
      <trkpt lat="42.471191" lon="1.567848">
        <time>2020-08-22T12:48:04Z</time>
      </trkpt>
      <trkpt lat="42.471203" lon="1.567846">
        <time>2020-08-22T12:48:04Z</time>
      </trkpt>
      <trkpt lat="42.471203" lon="1.567846">
        <time>2020-08-22T12:48:04Z</time>
      </trkpt>
      <trkpt lat="42.471214" lon="1.567844">
        <time>2020-08-22T12:48:04Z</time>
      </trkpt>
      <trkpt lat="42.471214" lon="1.567844">
        <time>2020-08-22T12:48:04Z</time>
      </trkpt>
      <trkpt lat="42.471226" lon="1.567842">
        <time>2020-08-22T12:48:04Z</time>
      </trkpt>
      <trkpt lat="42.471226" lon="1.567842">
        <time>2020-08-22T12:48:04Z</time>
      </trkpt>
      <trkpt lat="42.471237" lon="1.567839">
        <time>2020-08-22T12:48:04Z</time>
      </trkpt>
      <trkpt lat="42.471237" lon="1.567839">
        <time>2020-08-22T12:48:04Z</time>
      </trkpt>
      <trkpt lat="42.471249" lon="1.567835">
        <time>2020-08-22T12:48:11Z</time>
      </trkpt>
      <trkpt lat="42.471249" lon="1.567835">
        <time>2020-08-22T12:48:11Z</time>
      </trkpt>
      <trkpt lat="42.471260" lon="1.567833">
        <time>2020-08-22T12:48:11Z</time>
      </trkpt>
      <trkpt lat="42.471260" lon="1.567833">
        <time>2020-08-22T12:48:11Z</time>
      </trkpt>
      <trkpt lat="42.471275" lon="1.567830">
        <time>2020-08-22T12:48:11Z</time>
      </trkpt>
      <trkpt lat="42.471275" lon="1.567830">
        <time>2020-08-22T12:48:11Z</time>
      </trkpt>
      <trkpt lat="42.471287" lon="1.567829">
        <time>2020-08-22T12:48:11Z</time>
      </trkpt>
      <trkpt lat="42.471287" lon="1.567829">
        <time>2020-08-22T12:48:11Z</time>
      </trkpt>
      <trkpt lat="42.471298" lon="1.567827">
        <time>2020-08-22T12:48:11Z</time>
      </trkpt>
      <trkpt lat="42.471298" lon="1.567827">
        <time>2020-08-22T12:48:11Z</time>
      </trkpt>
      <trkpt lat="42.471313" lon="1.567826">
        <time>2020-08-22T12:48:11Z</time>
      </trkpt>
      <trkpt lat="42.471313" lon="1.567826">
        <time>2020-08-22T12:48:11Z</time>
      </trkpt>
      <trkpt lat="42.471321" lon="1.567825">
        <time>2020-08-22T12:48:11Z</time>
      </trkpt>
      <trkpt lat="42.471321" lon="1.567825">
        <time>2020-08-22T12:48:11Z</time>
      </trkpt>
      <trkpt lat="42.471336" lon="1.567824">
        <time>2020-08-22T12:48:18Z</time>
      </trkpt>
      <trkpt lat="42.471336" lon="1.567824">
        <time>2020-08-22T12:48:18Z</time>
      </trkpt>
      <trkpt lat="42.471348" lon="1.567823">
        <time>2020-08-22T12:48:18Z</time>
      </trkpt>
      <trkpt lat="42.471348" lon="1.567823">
        <time>2020-08-22T12:48:18Z</time>
      </trkpt>
      <trkpt lat="42.471359" lon="1.567823">
        <time>2020-08-22T12:48:18Z</time>
      </trkpt>
      <trkpt lat="42.471359" lon="1.567823">
        <time>2020-08-22T12:48:18Z</time>
      </trkpt>
      <trkpt lat="42.471371" lon="1.567822">
        <time>2020-08-22T12:48:18Z</time>
      </trkpt>
      <trkpt lat="42.471371" lon="1.567822">
        <time>2020-08-22T12:48:18Z</time>
      </trkpt>
      <trkpt lat="42.471382" lon="1.567822">
        <time>2020-08-22T12:48:18Z</time>
      </trkpt>
      <trkpt lat="42.471382" lon="1.567822">
        <time>2020-08-22T12:48:18Z</time>
      </trkpt>
      <trkpt lat="42.471394" lon="1.567822">
        <time>2020-08-22T12:48:18Z</time>
      </trkpt>
      <trkpt lat="42.471394" lon="1.567822">
        <time>2020-08-22T12:48:18Z</time>
      </trkpt>
      <trkpt lat="42.471405" lon="1.567821">
        <time>2020-08-22T12:48:18Z</time>
      </trkpt>
      <trkpt lat="42.471405" lon="1.567821">
        <time>2020-08-22T12:48:18Z</time>
      </trkpt>
      <trkpt lat="42.471420" lon="1.567820">
        <time>2020-08-22T12:48:25Z</time>
      </trkpt>
      <trkpt lat="42.471420" lon="1.567820">
        <time>2020-08-22T12:48:25Z</time>
      </trkpt>
      <trkpt lat="42.471428" lon="1.567818">
        <time>2020-08-22T12:48:25Z</time>
      </trkpt>
      <trkpt lat="42.471428" lon="1.567818">
        <time>2020-08-22T12:48:25Z</time>
      </trkpt>
      <trkpt lat="42.471443" lon="1.567816">
        <time>2020-08-22T12:48:25Z</time>
      </trkpt>
      <trkpt lat="42.471443" lon="1.567816">
        <time>2020-08-22T12:48:25Z</time>
      </trkpt>
      <trkpt lat="42.471455" lon="1.567815">
        <time>2020-08-22T12:48:25Z</time>
      </trkpt>
      <trkpt lat="42.471455" lon="1.567815">
        <time>2020-08-22T12:48:25Z</time>
      </trkpt>
      <trkpt lat="42.471466" lon="1.567813">
        <time>2020-08-22T12:48:25Z</time>
      </trkpt>
      <trkpt lat="42.471466" lon="1.567813">
        <time>2020-08-22T12:48:25Z</time>
      </trkpt>
      <trkpt lat="42.471481" lon="1.567811">
        <time>2020-08-22T12:48:25Z</time>
      </trkpt>
      <trkpt lat="42.471481" lon="1.567811">
        <time>2020-08-22T12:48:25Z</time>
      </trkpt>
      <trkpt lat="42.471493" lon="1.567809">
        <time>2020-08-22T12:48:25Z</time>
      </trkpt>
      <trkpt lat="42.471493" lon="1.567809">
        <time>2020-08-22T12:48:25Z</time>
      </trkpt>
      <trkpt lat="42.471508" lon="1.567807">
        <time>2020-08-22T12:48:32Z</time>
      </trkpt>
      <trkpt lat="42.471508" lon="1.567807">
        <time>2020-08-22T12:48:32Z</time>
      </trkpt>
      <trkpt lat="42.471519" lon="1.567806">
        <time>2020-08-22T12:48:32Z</time>
      </trkpt>
      <trkpt lat="42.471519" lon="1.567806">
        <time>2020-08-22T12:48:32Z</time>
      </trkpt>
      <trkpt lat="42.471535" lon="1.567805">
        <time>2020-08-22T12:48:32Z</time>
      </trkpt>
      <trkpt lat="42.471535" lon="1.567805">
        <time>2020-08-22T12:48:32Z</time>
      </trkpt>
      <trkpt lat="42.471546" lon="1.567805">
        <time>2020-08-22T12:48:32Z</time>
      </trkpt>
      <trkpt lat="42.471546" lon="1.567805">
        <time>2020-08-22T12:48:32Z</time>
      </trkpt>
      <trkpt lat="42.471558" lon="1.567806">
        <time>2020-08-22T12:48:32Z</time>
      </trkpt>
      <trkpt lat="42.471558" lon="1.567806">
        <time>2020-08-22T12:48:32Z</time>
      </trkpt>
      <trkpt lat="42.471569" lon="1.567807">
        <time>2020-08-22T12:48:32Z</time>
      </trkpt>
      <trkpt lat="42.471569" lon="1.567807">
        <time>2020-08-22T12:48:32Z</time>
      </trkpt>
      <trkpt lat="42.471584" lon="1.567810">
        <time>2020-08-22T12:48:32Z</time>
      </trkpt>
      <trkpt lat="42.471584" lon="1.567810">
        <time>2020-08-22T12:48:32Z</time>
      </trkpt>
      <trkpt lat="42.471596" lon="1.567812">
        <time>2020-08-22T12:48:39Z</time>
      </trkpt>
      <trkpt lat="42.471596" lon="1.567812">
        <time>2020-08-22T12:48:39Z</time>
      </trkpt>
      <trkpt lat="42.471607" lon="1.567815">
        <time>2020-08-22T12:48:39Z</time>
      </trkpt>
      <trkpt lat="42.471607" lon="1.567815">
        <time>2020-08-22T12:48:39Z</time>
      </trkpt>
      <trkpt lat="42.471615" lon="1.567819">
        <time>2020-08-22T12:48:39Z</time>
      </trkpt>
      <trkpt lat="42.471615" lon="1.567819">
        <time>2020-08-22T12:48:39Z</time>
      </trkpt>
      <trkpt lat="42.471626" lon="1.567823">
        <time>2020-08-22T12:48:39Z</time>
      </trkpt>
      <trkpt lat="42.471626" lon="1.567823">
        <time>2020-08-22T12:48:39Z</time>
      </trkpt>
      <trkpt lat="42.471634" lon="1.567827">
        <time>2020-08-22T12:48:39Z</time>
      </trkpt>
      <trkpt lat="42.471634" lon="1.567827">
        <time>2020-08-22T12:48:39Z</time>
      </trkpt>
      <trkpt lat="42.471645" lon="1.567831">
        <time>2020-08-22T12:48:39Z</time>
      </trkpt>
      <trkpt lat="42.471645" lon="1.567831">
        <time>2020-08-22T12:48:39Z</time>
      </trkpt>
      <trkpt lat="42.471653" lon="1.567835">
        <time>2020-08-22T12:48:39Z</time>
      </trkpt>
      <trkpt lat="42.471653" lon="1.567835">
        <time>2020-08-22T12:48:39Z</time>
      </trkpt>
      <trkpt lat="42.471664" lon="1.567839">
        <time>2020-08-22T12:48:46Z</time>
      </trkpt>
      <trkpt lat="42.471664" lon="1.567839">
        <time>2020-08-22T12:48:46Z</time>
      </trkpt>
      <trkpt lat="42.471676" lon="1.567843">
        <time>2020-08-22T12:48:46Z</time>
      </trkpt>
      <trkpt lat="42.471676" lon="1.567843">
        <time>2020-08-22T12:48:46Z</time>
      </trkpt>
      <trkpt lat="42.471683" lon="1.567847">
        <time>2020-08-22T12:48:46Z</time>
      </trkpt>
      <trkpt lat="42.471683" lon="1.567847">
        <time>2020-08-22T12:48:46Z</time>
      </trkpt>
      <trkpt lat="42.471695" lon="1.567850">
        <time>2020-08-22T12:48:46Z</time>
      </trkpt>
      <trkpt lat="42.471695" lon="1.567850">
        <time>2020-08-22T12:48:46Z</time>
      </trkpt>
      <trkpt lat="42.471710" lon="1.567854">
        <time>2020-08-22T12:48:46Z</time>
      </trkpt>
      <trkpt lat="42.471710" lon="1.567854">
        <time>2020-08-22T12:48:46Z</time>
      </trkpt>
      <trkpt lat="42.471722" lon="1.567857">
        <time>2020-08-22T12:48:46Z</time>
      </trkpt>
      <trkpt lat="42.471722" lon="1.567857">
        <time>2020-08-22T12:48:46Z</time>
      </trkpt>
      <trkpt lat="42.471737" lon="1.567860">
        <time>2020-08-22T12:48:46Z</time>
      </trkpt>
      <trkpt lat="42.471737" lon="1.567860">
        <time>2020-08-22T12:48:46Z</time>
      </trkpt>
      <trkpt lat="42.471748" lon="1.567863">
        <time>2020-08-22T12:48:53Z</time>
      </trkpt>
      <trkpt lat="42.471748" lon="1.567863">
        <time>2020-08-22T12:48:53Z</time>
      </trkpt>
      <trkpt lat="42.471760" lon="1.567864">
        <time>2020-08-22T12:48:53Z</time>
      </trkpt>
      <trkpt lat="42.471760" lon="1.567864">
        <time>2020-08-22T12:48:53Z</time>
      </trkpt>
      <trkpt lat="42.471775" lon="1.567865">
        <time>2020-08-22T12:48:53Z</time>
      </trkpt>
      <trkpt lat="42.471775" lon="1.567865">
        <time>2020-08-22T12:48:53Z</time>
      </trkpt>
      <trkpt lat="42.471783" lon="1.567865">
        <time>2020-08-22T12:48:53Z</time>
      </trkpt>
      <trkpt lat="42.471783" lon="1.567865">
        <time>2020-08-22T12:48:53Z</time>
      </trkpt>
      <trkpt lat="42.471794" lon="1.567864">
        <time>2020-08-22T12:48:53Z</time>
      </trkpt>
      <trkpt lat="42.471794" lon="1.567864">
        <time>2020-08-22T12:48:53Z</time>
      </trkpt>
      <trkpt lat="42.471806" lon="1.567861">
        <time>2020-08-22T12:48:53Z</time>
      </trkpt>
      <trkpt lat="42.471806" lon="1.567861">
        <time>2020-08-22T12:48:53Z</time>
      </trkpt>
      <trkpt lat="42.471817" lon="1.567858">
        <time>2020-08-22T12:48:53Z</time>
      </trkpt>
      <trkpt lat="42.471817" lon="1.567858">
        <time>2020-08-22T12:48:53Z</time>
      </trkpt>
      <trkpt lat="42.471825" lon="1.567853">
        <time>2020-08-22T12:49:00Z</time>
      </trkpt>
      <trkpt lat="42.471825" lon="1.567853">
        <time>2020-08-22T12:49:00Z</time>
      </trkpt>
      <trkpt lat="42.471836" lon="1.567847">
        <time>2020-08-22T12:49:00Z</time>
      </trkpt>
      <trkpt lat="42.471836" lon="1.567847">
        <time>2020-08-22T12:49:00Z</time>
      </trkpt>
      <trkpt lat="42.471844" lon="1.567840">
        <time>2020-08-22T12:49:00Z</time>
      </trkpt>
      <trkpt lat="42.471844" lon="1.567840">
        <time>2020-08-22T12:49:00Z</time>
      </trkpt>
      <trkpt lat="42.471855" lon="1.567833">
        <time>2020-08-22T12:49:00Z</time>
      </trkpt>
      <trkpt lat="42.471855" lon="1.567833">
        <time>2020-08-22T12:49:00Z</time>
      </trkpt>
      <trkpt lat="42.471863" lon="1.567826">
        <time>2020-08-22T12:49:00Z</time>
      </trkpt>
      <trkpt lat="42.471863" lon="1.567826">
        <time>2020-08-22T12:49:00Z</time>
      </trkpt>
      <trkpt lat="42.471870" lon="1.567818">
        <time>2020-08-22T12:49:00Z</time>
      </trkpt>
      <trkpt lat="42.471870" lon="1.567818">
        <time>2020-08-22T12:49:00Z</time>
      </trkpt>
      <trkpt lat="42.471886" lon="1.567811">
        <time>2020-08-22T12:49:00Z</time>
      </trkpt>
      <trkpt lat="42.471886" lon="1.567811">
        <time>2020-08-22T12:49:00Z</time>
      </trkpt>
      <trkpt lat="42.471897" lon="1.567803">
        <time>2020-08-22T12:49:07Z</time>
      </trkpt>
      <trkpt lat="42.471897" lon="1.567803">
        <time>2020-08-22T12:49:07Z</time>
      </trkpt>
      <trkpt lat="42.471909" lon="1.567795">
        <time>2020-08-22T12:49:07Z</time>
      </trkpt>
      <trkpt lat="42.471909" lon="1.567795">
        <time>2020-08-22T12:49:07Z</time>
      </trkpt>
      <trkpt lat="42.471916" lon="1.567788">
        <time>2020-08-22T12:49:07Z</time>
      </trkpt>
      <trkpt lat="42.471916" lon="1.567788">
        <time>2020-08-22T12:49:07Z</time>
      </trkpt>
      <trkpt lat="42.471928" lon="1.567779">
        <time>2020-08-22T12:49:07Z</time>
      </trkpt>
      <trkpt lat="42.471928" lon="1.567779">
        <time>2020-08-22T12:49:07Z</time>
      </trkpt>
      <trkpt lat="42.471935" lon="1.567769">
        <time>2020-08-22T12:49:07Z</time>
      </trkpt>
      <trkpt lat="42.471935" lon="1.567769">
        <time>2020-08-22T12:49:07Z</time>
      </trkpt>
      <trkpt lat="42.471947" lon="1.567758">
        <time>2020-08-22T12:49:07Z</time>
      </trkpt>
      <trkpt lat="42.471947" lon="1.567758">
        <time>2020-08-22T12:49:07Z</time>
      </trkpt>
      <trkpt lat="42.471954" lon="1.567747">
        <time>2020-08-22T12:49:07Z</time>
      </trkpt>
      <trkpt lat="42.471954" lon="1.567747">
        <time>2020-08-22T12:49:07Z</time>
      </trkpt>
      <trkpt lat="42.471962" lon="1.567734">
        <time>2020-08-22T12:49:14Z</time>
      </trkpt>
      <trkpt lat="42.471962" lon="1.567734">
        <time>2020-08-22T12:49:14Z</time>
      </trkpt>
      <trkpt lat="42.471970" lon="1.567720">
        <time>2020-08-22T12:49:14Z</time>
      </trkpt>
      <trkpt lat="42.471970" lon="1.567720">
        <time>2020-08-22T12:49:14Z</time>
      </trkpt>
      <trkpt lat="42.471970" lon="1.567705">
        <time>2020-08-22T12:49:14Z</time>
      </trkpt>
      <trkpt lat="42.471970" lon="1.567705">
        <time>2020-08-22T12:49:14Z</time>
      </trkpt>
      <trkpt lat="42.471977" lon="1.567690">
        <time>2020-08-22T12:49:14Z</time>
      </trkpt>
      <trkpt lat="42.471977" lon="1.567690">
        <time>2020-08-22T12:49:14Z</time>
      </trkpt>
      <trkpt lat="42.471977" lon="1.567675">
        <time>2020-08-22T12:49:14Z</time>
      </trkpt>
      <trkpt lat="42.471977" lon="1.567675">
        <time>2020-08-22T12:49:14Z</time>
      </trkpt>
      <trkpt lat="42.471981" lon="1.567661">
        <time>2020-08-22T12:49:14Z</time>
      </trkpt>
      <trkpt lat="42.471981" lon="1.567661">
        <time>2020-08-22T12:49:14Z</time>
      </trkpt>
      <trkpt lat="42.471985" lon="1.567648">
        <time>2020-08-22T12:49:21Z</time>
      </trkpt>
      <trkpt lat="42.471985" lon="1.567648">
        <time>2020-08-22T12:49:21Z</time>
      </trkpt>
      <trkpt lat="42.471985" lon="1.567636">
        <time>2020-08-22T12:49:21Z</time>
      </trkpt>
      <trkpt lat="42.471985" lon="1.567636">
        <time>2020-08-22T12:49:21Z</time>
      </trkpt>
      <trkpt lat="42.471989" lon="1.567627">
        <time>2020-08-22T12:49:21Z</time>
      </trkpt>
      <trkpt lat="42.471989" lon="1.567627">
        <time>2020-08-22T12:49:21Z</time>
      </trkpt>
      <trkpt lat="42.471992" lon="1.567619">
        <time>2020-08-22T12:49:21Z</time>
      </trkpt>
      <trkpt lat="42.471992" lon="1.567619">
        <time>2020-08-22T12:49:21Z</time>
      </trkpt>
      <trkpt lat="42.471996" lon="1.567613">
        <time>2020-08-22T12:49:21Z</time>
      </trkpt>
      <trkpt lat="42.471996" lon="1.567613">
        <time>2020-08-22T12:49:21Z</time>
      </trkpt>
      <trkpt lat="42.472000" lon="1.567609">
        <time>2020-08-22T12:49:21Z</time>
      </trkpt>
      <trkpt lat="42.472000" lon="1.567609">
        <time>2020-08-22T12:49:21Z</time>
      </trkpt>
      <trkpt lat="42.472004" lon="1.567606">
        <time>2020-08-22T12:49:21Z</time>
      </trkpt>
      <trkpt lat="42.472004" lon="1.567606">
        <time>2020-08-22T12:49:21Z</time>
      </trkpt>
      <trkpt lat="42.472012" lon="1.567604">
        <time>2020-08-22T12:49:28Z</time>
      </trkpt>
      <trkpt lat="42.472012" lon="1.567604">
        <time>2020-08-22T12:49:28Z</time>
      </trkpt>
      <trkpt lat="42.472023" lon="1.567604">
        <time>2020-08-22T12:49:28Z</time>
      </trkpt>
      <trkpt lat="42.472023" lon="1.567604">
        <time>2020-08-22T12:49:28Z</time>
      </trkpt>
      <trkpt lat="42.472031" lon="1.567603">
        <time>2020-08-22T12:49:28Z</time>
      </trkpt>
      <trkpt lat="42.472031" lon="1.567603">
        <time>2020-08-22T12:49:28Z</time>
      </trkpt>
      <trkpt lat="42.472038" lon="1.567602">
        <time>2020-08-22T12:49:28Z</time>
      </trkpt>
      <trkpt lat="42.472038" lon="1.567602">
        <time>2020-08-22T12:49:28Z</time>
      </trkpt>
      <trkpt lat="42.472046" lon="1.567600">
        <time>2020-08-22T12:49:28Z</time>
      </trkpt>
      <trkpt lat="42.472046" lon="1.567600">
        <time>2020-08-22T12:49:28Z</time>
      </trkpt>
      <trkpt lat="42.472054" lon="1.567599">
        <time>2020-08-22T12:49:28Z</time>
      </trkpt>
      <trkpt lat="42.472054" lon="1.567599">
        <time>2020-08-22T12:49:28Z</time>
      </trkpt>
      <trkpt lat="42.472061" lon="1.567596">
        <time>2020-08-22T12:49:28Z</time>
      </trkpt>
      <trkpt lat="42.472061" lon="1.567596">
        <time>2020-08-22T12:49:28Z</time>
      </trkpt>
      <trkpt lat="42.472069" lon="1.567593">
        <time>2020-08-22T12:49:35Z</time>
      </trkpt>
      <trkpt lat="42.472069" lon="1.567593">
        <time>2020-08-22T12:49:35Z</time>
      </trkpt>
      <trkpt lat="42.472076" lon="1.567589">
        <time>2020-08-22T12:49:35Z</time>
      </trkpt>
      <trkpt lat="42.472076" lon="1.567589">
        <time>2020-08-22T12:49:35Z</time>
      </trkpt>
      <trkpt lat="42.472088" lon="1.567584">
        <time>2020-08-22T12:49:35Z</time>
      </trkpt>
      <trkpt lat="42.472088" lon="1.567584">
        <time>2020-08-22T12:49:35Z</time>
      </trkpt>
      <trkpt lat="42.472095" lon="1.567579">
        <time>2020-08-22T12:49:35Z</time>
      </trkpt>
      <trkpt lat="42.472095" lon="1.567579">
        <time>2020-08-22T12:49:35Z</time>
      </trkpt>
      <trkpt lat="42.472107" lon="1.567578">
        <time>2020-08-22T12:49:42Z</time>
      </trkpt>
      <trkpt lat="42.472107" lon="1.567578">
        <time>2020-08-22T12:49:42Z</time>
      </trkpt>
      <trkpt lat="42.472118" lon="1.567576">
        <time>2020-08-22T12:49:42Z</time>
      </trkpt>
      <trkpt lat="42.472118" lon="1.567576">
        <time>2020-08-22T12:49:42Z</time>
      </trkpt>
      <trkpt lat="42.472130" lon="1.567575">
        <time>2020-08-22T12:49:42Z</time>
      </trkpt>
      <trkpt lat="42.472130" lon="1.567575">
        <time>2020-08-22T12:49:42Z</time>
      </trkpt>
      <trkpt lat="42.472137" lon="1.567574">
        <time>2020-08-22T12:49:42Z</time>
      </trkpt>
      <trkpt lat="42.472137" lon="1.567574">
        <time>2020-08-22T12:49:42Z</time>
      </trkpt>
      <trkpt lat="42.472145" lon="1.567574">
        <time>2020-08-22T12:49:42Z</time>
      </trkpt>
      <trkpt lat="42.472145" lon="1.567574">
        <time>2020-08-22T12:49:42Z</time>
      </trkpt>
      <trkpt lat="42.472157" lon="1.567574">
        <time>2020-08-22T12:49:42Z</time>
      </trkpt>
      <trkpt lat="42.472157" lon="1.567574">
        <time>2020-08-22T12:49:42Z</time>
      </trkpt>
      <trkpt lat="42.472168" lon="1.567575">
        <time>2020-08-22T12:49:42Z</time>
      </trkpt>
      <trkpt lat="42.472168" lon="1.567575">
        <time>2020-08-22T12:49:42Z</time>
      </trkpt>
      <trkpt lat="42.472179" lon="1.567577">
        <time>2020-08-22T12:49:49Z</time>
      </trkpt>
      <trkpt lat="42.472179" lon="1.567577">
        <time>2020-08-22T12:49:49Z</time>
      </trkpt>
      <trkpt lat="42.472191" lon="1.567580">
        <time>2020-08-22T12:49:49Z</time>
      </trkpt>
      <trkpt lat="42.472191" lon="1.567580">
        <time>2020-08-22T12:49:49Z</time>
      </trkpt>
      <trkpt lat="42.472202" lon="1.567583">
        <time>2020-08-22T12:49:49Z</time>
      </trkpt>
      <trkpt lat="42.472202" lon="1.567583">
        <time>2020-08-22T12:49:49Z</time>
      </trkpt>
      <trkpt lat="42.472210" lon="1.567583">
        <time>2020-08-22T12:49:49Z</time>
      </trkpt>
      <trkpt lat="42.472210" lon="1.567583">
        <time>2020-08-22T12:49:49Z</time>
      </trkpt>
      <trkpt lat="42.472221" lon="1.567583">
        <time>2020-08-22T12:49:49Z</time>
      </trkpt>
      <trkpt lat="42.472221" lon="1.567583">
        <time>2020-08-22T12:49:49Z</time>
      </trkpt>
      <trkpt lat="42.472229" lon="1.567583">
        <time>2020-08-22T12:49:49Z</time>
      </trkpt>
      <trkpt lat="42.472229" lon="1.567583">
        <time>2020-08-22T12:49:49Z</time>
      </trkpt>
      <trkpt lat="42.472240" lon="1.567583">
        <time>2020-08-22T12:49:49Z</time>
      </trkpt>
      <trkpt lat="42.472240" lon="1.567583">
        <time>2020-08-22T12:49:49Z</time>
      </trkpt>
      <trkpt lat="42.472252" lon="1.567583">
        <time>2020-08-22T12:49:56Z</time>
      </trkpt>
      <trkpt lat="42.472252" lon="1.567583">
        <time>2020-08-22T12:49:56Z</time>
      </trkpt>
      <trkpt lat="42.472260" lon="1.567582">
        <time>2020-08-22T12:49:56Z</time>
      </trkpt>
      <trkpt lat="42.472260" lon="1.567582">
        <time>2020-08-22T12:49:56Z</time>
      </trkpt>
      <trkpt lat="42.472271" lon="1.567582">
        <time>2020-08-22T12:49:56Z</time>
      </trkpt>
      <trkpt lat="42.472271" lon="1.567582">
        <time>2020-08-22T12:49:56Z</time>
      </trkpt>
      <trkpt lat="42.472279" lon="1.567581">
        <time>2020-08-22T12:49:56Z</time>
      </trkpt>
      <trkpt lat="42.472279" lon="1.567581">
        <time>2020-08-22T12:49:56Z</time>
      </trkpt>
      <trkpt lat="42.472290" lon="1.567580">
        <time>2020-08-22T12:49:56Z</time>
      </trkpt>
      <trkpt lat="42.472290" lon="1.567580">
        <time>2020-08-22T12:49:56Z</time>
      </trkpt>
      <trkpt lat="42.472298" lon="1.567579">
        <time>2020-08-22T12:49:56Z</time>
      </trkpt>
      <trkpt lat="42.472298" lon="1.567579">
        <time>2020-08-22T12:49:56Z</time>
      </trkpt>
      <trkpt lat="42.472309" lon="1.567578">
        <time>2020-08-22T12:49:56Z</time>
      </trkpt>
      <trkpt lat="42.472309" lon="1.567578">
        <time>2020-08-22T12:49:56Z</time>
      </trkpt>
      <trkpt lat="42.472321" lon="1.567578">
        <time>2020-08-22T12:50:03Z</time>
      </trkpt>
      <trkpt lat="42.472321" lon="1.567578">
        <time>2020-08-22T12:50:03Z</time>
      </trkpt>
      <trkpt lat="42.472332" lon="1.567579">
        <time>2020-08-22T12:50:03Z</time>
      </trkpt>
      <trkpt lat="42.472332" lon="1.567579">
        <time>2020-08-22T12:50:03Z</time>
      </trkpt>
      <trkpt lat="42.472343" lon="1.567580">
        <time>2020-08-22T12:50:03Z</time>
      </trkpt>
      <trkpt lat="42.472343" lon="1.567580">
        <time>2020-08-22T12:50:03Z</time>
      </trkpt>
      <trkpt lat="42.472355" lon="1.567581">
        <time>2020-08-22T12:50:03Z</time>
      </trkpt>
      <trkpt lat="42.472355" lon="1.567581">
        <time>2020-08-22T12:50:03Z</time>
      </trkpt>
      <trkpt lat="42.472366" lon="1.567583">
        <time>2020-08-22T12:50:03Z</time>
      </trkpt>
      <trkpt lat="42.472366" lon="1.567583">
        <time>2020-08-22T12:50:03Z</time>
      </trkpt>
      <trkpt lat="42.472378" lon="1.567585">
        <time>2020-08-22T12:50:03Z</time>
      </trkpt>
      <trkpt lat="42.472378" lon="1.567585">
        <time>2020-08-22T12:50:03Z</time>
      </trkpt>
      <trkpt lat="42.472389" lon="1.567587">
        <time>2020-08-22T12:50:03Z</time>
      </trkpt>
      <trkpt lat="42.472389" lon="1.567587">
        <time>2020-08-22T12:50:03Z</time>
      </trkpt>
      <trkpt lat="42.472401" lon="1.567590">
        <time>2020-08-22T12:50:10Z</time>
      </trkpt>
      <trkpt lat="42.472401" lon="1.567590">
        <time>2020-08-22T12:50:10Z</time>
      </trkpt>
      <trkpt lat="42.472412" lon="1.567593">
        <time>2020-08-22T12:50:10Z</time>
      </trkpt>
      <trkpt lat="42.472412" lon="1.567593">
        <time>2020-08-22T12:50:10Z</time>
      </trkpt>
      <trkpt lat="42.472420" lon="1.567597">
        <time>2020-08-22T12:50:10Z</time>
      </trkpt>
      <trkpt lat="42.472420" lon="1.567597">
        <time>2020-08-22T12:50:10Z</time>
      </trkpt>
      <trkpt lat="42.472431" lon="1.567601">
        <time>2020-08-22T12:50:10Z</time>
      </trkpt>
      <trkpt lat="42.472431" lon="1.567601">
        <time>2020-08-22T12:50:10Z</time>
      </trkpt>
      <trkpt lat="42.472443" lon="1.567606">
        <time>2020-08-22T12:50:10Z</time>
      </trkpt>
      <trkpt lat="42.472443" lon="1.567606">
        <time>2020-08-22T12:50:10Z</time>
      </trkpt>
      <trkpt lat="42.472450" lon="1.567611">
        <time>2020-08-22T12:50:10Z</time>
      </trkpt>
      <trkpt lat="42.472450" lon="1.567611">
        <time>2020-08-22T12:50:10Z</time>
      </trkpt>
      <trkpt lat="42.472462" lon="1.567617">
        <time>2020-08-22T12:50:10Z</time>
      </trkpt>
      <trkpt lat="42.472462" lon="1.567617">
        <time>2020-08-22T12:50:10Z</time>
      </trkpt>
      <trkpt lat="42.472469" lon="1.567623">
        <time>2020-08-22T12:50:17Z</time>
      </trkpt>
      <trkpt lat="42.472469" lon="1.567623">
        <time>2020-08-22T12:50:17Z</time>
      </trkpt>
      <trkpt lat="42.472477" lon="1.567629">
        <time>2020-08-22T12:50:17Z</time>
      </trkpt>
      <trkpt lat="42.472477" lon="1.567629">
        <time>2020-08-22T12:50:17Z</time>
      </trkpt>
      <trkpt lat="42.472485" lon="1.567634">
        <time>2020-08-22T12:50:17Z</time>
      </trkpt>
      <trkpt lat="42.472485" lon="1.567634">
        <time>2020-08-22T12:50:17Z</time>
      </trkpt>
      <trkpt lat="42.472496" lon="1.567640">
        <time>2020-08-22T12:50:17Z</time>
      </trkpt>
      <trkpt lat="42.472496" lon="1.567640">
        <time>2020-08-22T12:50:17Z</time>
      </trkpt>
      <trkpt lat="42.472504" lon="1.567645">
        <time>2020-08-22T12:50:17Z</time>
      </trkpt>
      <trkpt lat="42.472504" lon="1.567645">
        <time>2020-08-22T12:50:17Z</time>
      </trkpt>
      <trkpt lat="42.472515" lon="1.567649">
        <time>2020-08-22T12:50:17Z</time>
      </trkpt>
      <trkpt lat="42.472515" lon="1.567649">
        <time>2020-08-22T12:50:17Z</time>
      </trkpt>
      <trkpt lat="42.472527" lon="1.567652">
        <time>2020-08-22T12:50:17Z</time>
      </trkpt>
      <trkpt lat="42.472527" lon="1.567652">
        <time>2020-08-22T12:50:17Z</time>
      </trkpt>
      <trkpt lat="42.472534" lon="1.567655">
        <time>2020-08-22T12:50:24Z</time>
      </trkpt>
      <trkpt lat="42.472534" lon="1.567655">
        <time>2020-08-22T12:50:24Z</time>
      </trkpt>
      <trkpt lat="42.472546" lon="1.567657">
        <time>2020-08-22T12:50:24Z</time>
      </trkpt>
      <trkpt lat="42.472546" lon="1.567657">
        <time>2020-08-22T12:50:24Z</time>
      </trkpt>
      <trkpt lat="42.472557" lon="1.567658">
        <time>2020-08-22T12:50:24Z</time>
      </trkpt>
      <trkpt lat="42.472557" lon="1.567658">
        <time>2020-08-22T12:50:24Z</time>
      </trkpt>
      <trkpt lat="42.472572" lon="1.567659">
        <time>2020-08-22T12:50:24Z</time>
      </trkpt>
      <trkpt lat="42.472572" lon="1.567659">
        <time>2020-08-22T12:50:24Z</time>
      </trkpt>
      <trkpt lat="42.472584" lon="1.567659">
        <time>2020-08-22T12:50:24Z</time>
      </trkpt>
      <trkpt lat="42.472584" lon="1.567659">
        <time>2020-08-22T12:50:24Z</time>
      </trkpt>
      <trkpt lat="42.472599" lon="1.567659">
        <time>2020-08-22T12:50:24Z</time>
      </trkpt>
      <trkpt lat="42.472599" lon="1.567659">
        <time>2020-08-22T12:50:24Z</time>
      </trkpt>
      <trkpt lat="42.472607" lon="1.567658">
        <time>2020-08-22T12:50:24Z</time>
      </trkpt>
      <trkpt lat="42.472607" lon="1.567658">
        <time>2020-08-22T12:50:24Z</time>
      </trkpt>
      <trkpt lat="42.472622" lon="1.567657">
        <time>2020-08-22T12:50:31Z</time>
      </trkpt>
      <trkpt lat="42.472622" lon="1.567657">
        <time>2020-08-22T12:50:31Z</time>
      </trkpt>
      <trkpt lat="42.472633" lon="1.567655">
        <time>2020-08-22T12:50:31Z</time>
      </trkpt>
      <trkpt lat="42.472633" lon="1.567655">
        <time>2020-08-22T12:50:31Z</time>
      </trkpt>
      <trkpt lat="42.472645" lon="1.567653">
        <time>2020-08-22T12:50:31Z</time>
      </trkpt>
      <trkpt lat="42.472645" lon="1.567653">
        <time>2020-08-22T12:50:31Z</time>
      </trkpt>
      <trkpt lat="42.472656" lon="1.567650">
        <time>2020-08-22T12:50:31Z</time>
      </trkpt>
      <trkpt lat="42.472656" lon="1.567650">
        <time>2020-08-22T12:50:31Z</time>
      </trkpt>
      <trkpt lat="42.472664" lon="1.567648">
        <time>2020-08-22T12:50:31Z</time>
      </trkpt>
      <trkpt lat="42.472664" lon="1.567648">
        <time>2020-08-22T12:50:31Z</time>
      </trkpt>
      <trkpt lat="42.472675" lon="1.567644">
        <time>2020-08-22T12:50:31Z</time>
      </trkpt>
      <trkpt lat="42.472675" lon="1.567644">
        <time>2020-08-22T12:50:31Z</time>
      </trkpt>
      <trkpt lat="42.472683" lon="1.567641">
        <time>2020-08-22T12:50:31Z</time>
      </trkpt>
      <trkpt lat="42.472683" lon="1.567641">
        <time>2020-08-22T12:50:31Z</time>
      </trkpt>
      <trkpt lat="42.472687" lon="1.567637">
        <time>2020-08-22T12:50:38Z</time>
      </trkpt>
      <trkpt lat="42.472687" lon="1.567637">
        <time>2020-08-22T12:50:38Z</time>
      </trkpt>
      <trkpt lat="42.472694" lon="1.567634">
        <time>2020-08-22T12:50:38Z</time>
      </trkpt>
      <trkpt lat="42.472694" lon="1.567634">
        <time>2020-08-22T12:50:38Z</time>
      </trkpt>
      <trkpt lat="42.472706" lon="1.567631">
        <time>2020-08-22T12:50:38Z</time>
      </trkpt>
      <trkpt lat="42.472706" lon="1.567631">
        <time>2020-08-22T12:50:38Z</time>
      </trkpt>
      <trkpt lat="42.472713" lon="1.567629">
        <time>2020-08-22T12:50:38Z</time>
      </trkpt>
      <trkpt lat="42.472713" lon="1.567629">
        <time>2020-08-22T12:50:38Z</time>
      </trkpt>
      <trkpt lat="42.472721" lon="1.567627">
        <time>2020-08-22T12:50:38Z</time>
      </trkpt>
      <trkpt lat="42.472721" lon="1.567627">
        <time>2020-08-22T12:50:38Z</time>
      </trkpt>
      <trkpt lat="42.472733" lon="1.567626">
        <time>2020-08-22T12:50:38Z</time>
      </trkpt>
      <trkpt lat="42.472733" lon="1.567626">
        <time>2020-08-22T12:50:38Z</time>
      </trkpt>
      <trkpt lat="42.472740" lon="1.567627">
        <time>2020-08-22T12:50:38Z</time>
      </trkpt>
      <trkpt lat="42.472740" lon="1.567627">
        <time>2020-08-22T12:50:38Z</time>
      </trkpt>
      <trkpt lat="42.472748" lon="1.567628">
        <time>2020-08-22T12:50:47Z</time>
      </trkpt>
      <trkpt lat="42.472748" lon="1.567628">
        <time>2020-08-22T12:50:47Z</time>
      </trkpt>
      <trkpt lat="42.472759" lon="1.567629">
        <time>2020-08-22T12:50:47Z</time>
      </trkpt>
      <trkpt lat="42.472759" lon="1.567629">
        <time>2020-08-22T12:50:47Z</time>
      </trkpt>
      <trkpt lat="42.472771" lon="1.567632">
        <time>2020-08-22T12:50:47Z</time>
      </trkpt>
      <trkpt lat="42.472771" lon="1.567632">
        <time>2020-08-22T12:50:47Z</time>
      </trkpt>
      <trkpt lat="42.472778" lon="1.567634">
        <time>2020-08-22T12:50:47Z</time>
      </trkpt>
      <trkpt lat="42.472778" lon="1.567634">
        <time>2020-08-22T12:50:47Z</time>
      </trkpt>
      <trkpt lat="42.472790" lon="1.567637">
        <time>2020-08-22T12:50:47Z</time>
      </trkpt>
      <trkpt lat="42.472790" lon="1.567637">
        <time>2020-08-22T12:50:47Z</time>
      </trkpt>
      <trkpt lat="42.472801" lon="1.567639">
        <time>2020-08-22T12:50:47Z</time>
      </trkpt>
      <trkpt lat="42.472801" lon="1.567639">
        <time>2020-08-22T12:50:47Z</time>
      </trkpt>
      <trkpt lat="42.472809" lon="1.567641">
        <time>2020-08-22T12:50:47Z</time>
      </trkpt>
      <trkpt lat="42.472809" lon="1.567641">
        <time>2020-08-22T12:50:47Z</time>
      </trkpt>
      <trkpt lat="42.472816" lon="1.567642">
        <time>2020-08-22T12:50:47Z</time>
      </trkpt>
      <trkpt lat="42.472816" lon="1.567642">
        <time>2020-08-22T12:50:47Z</time>
      </trkpt>
      <trkpt lat="42.472820" lon="1.567644">
        <time>2020-08-22T12:50:47Z</time>
      </trkpt>
      <trkpt lat="42.472820" lon="1.567644">
        <time>2020-08-22T12:50:47Z</time>
      </trkpt>
      <trkpt lat="42.472828" lon="1.567595">
        <time>2020-08-22T12:50:54Z</time>
      </trkpt>
      <trkpt lat="42.472828" lon="1.567595">
        <time>2020-08-22T12:50:54Z</time>
      </trkpt>
      <trkpt lat="42.472828" lon="1.567581">
        <time>2020-08-22T12:50:54Z</time>
      </trkpt>
      <trkpt lat="42.472828" lon="1.567581">
        <time>2020-08-22T12:50:54Z</time>
      </trkpt>
      <trkpt lat="42.472836" lon="1.567566">
        <time>2020-08-22T12:50:54Z</time>
      </trkpt>
      <trkpt lat="42.472836" lon="1.567566">
        <time>2020-08-22T12:50:54Z</time>
      </trkpt>
      <trkpt lat="42.472839" lon="1.567551">
        <time>2020-08-22T12:50:54Z</time>
      </trkpt>
      <trkpt lat="42.472839" lon="1.567551">
        <time>2020-08-22T12:50:54Z</time>
      </trkpt>
      <trkpt lat="42.472847" lon="1.567536">
        <time>2020-08-22T12:50:54Z</time>
      </trkpt>
      <trkpt lat="42.472847" lon="1.567536">
        <time>2020-08-22T12:50:54Z</time>
      </trkpt>
      <trkpt lat="42.472855" lon="1.567521">
        <time>2020-08-22T12:50:54Z</time>
      </trkpt>
      <trkpt lat="42.472855" lon="1.567521">
        <time>2020-08-22T12:50:54Z</time>
      </trkpt>
      <trkpt lat="42.472862" lon="1.567506">
        <time>2020-08-22T12:50:54Z</time>
      </trkpt>
      <trkpt lat="42.472862" lon="1.567506">
        <time>2020-08-22T12:50:54Z</time>
      </trkpt>
      <trkpt lat="42.472866" lon="1.567491">
        <time>2020-08-22T12:51:01Z</time>
      </trkpt>
      <trkpt lat="42.472866" lon="1.567491">
        <time>2020-08-22T12:51:01Z</time>
      </trkpt>
      <trkpt lat="42.472874" lon="1.567476">
        <time>2020-08-22T12:51:01Z</time>
      </trkpt>
      <trkpt lat="42.472874" lon="1.567476">
        <time>2020-08-22T12:51:01Z</time>
      </trkpt>
      <trkpt lat="42.472881" lon="1.567462">
        <time>2020-08-22T12:51:01Z</time>
      </trkpt>
      <trkpt lat="42.472881" lon="1.567462">
        <time>2020-08-22T12:51:01Z</time>
      </trkpt>
      <trkpt lat="42.472893" lon="1.567433">
        <time>2020-08-22T12:51:01Z</time>
      </trkpt>
      <trkpt lat="42.472893" lon="1.567433">
        <time>2020-08-22T12:51:01Z</time>
      </trkpt>
      <trkpt lat="42.472908" lon="1.567404">
        <time>2020-08-22T12:51:01Z</time>
      </trkpt>
      <trkpt lat="42.472908" lon="1.567404">
        <time>2020-08-22T12:51:01Z</time>
      </trkpt>
      <trkpt lat="42.472919" lon="1.567376">
        <time>2020-08-22T12:51:01Z</time>
      </trkpt>
      <trkpt lat="42.472919" lon="1.567376">
        <time>2020-08-22T12:51:01Z</time>
      </trkpt>
      <trkpt lat="42.472935" lon="1.567348">
        <time>2020-08-22T12:51:01Z</time>
      </trkpt>
      <trkpt lat="42.472935" lon="1.567348">
        <time>2020-08-22T12:51:01Z</time>
      </trkpt>
      <trkpt lat="42.472946" lon="1.567320">
        <time>2020-08-22T12:51:08Z</time>
      </trkpt>
      <trkpt lat="42.472946" lon="1.567320">
        <time>2020-08-22T12:51:08Z</time>
      </trkpt>
      <trkpt lat="42.472961" lon="1.567292">
        <time>2020-08-22T12:51:08Z</time>
      </trkpt>
      <trkpt lat="42.472961" lon="1.567292">
        <time>2020-08-22T12:51:08Z</time>
      </trkpt>
      <trkpt lat="42.472969" lon="1.567265">
        <time>2020-08-22T12:51:08Z</time>
      </trkpt>
      <trkpt lat="42.472969" lon="1.567265">
        <time>2020-08-22T12:51:08Z</time>
      </trkpt>
      <trkpt lat="42.472980" lon="1.567238">
        <time>2020-08-22T12:51:08Z</time>
      </trkpt>
      <trkpt lat="42.472980" lon="1.567238">
        <time>2020-08-22T12:51:08Z</time>
      </trkpt>
      <trkpt lat="42.472996" lon="1.567212">
        <time>2020-08-22T12:51:08Z</time>
      </trkpt>
      <trkpt lat="42.472996" lon="1.567212">
        <time>2020-08-22T12:51:08Z</time>
      </trkpt>
      <trkpt lat="42.473007" lon="1.567186">
        <time>2020-08-22T12:51:08Z</time>
      </trkpt>
      <trkpt lat="42.473007" lon="1.567186">
        <time>2020-08-22T12:51:08Z</time>
      </trkpt>
      <trkpt lat="42.473015" lon="1.567160">
        <time>2020-08-22T12:51:08Z</time>
      </trkpt>
      <trkpt lat="42.473015" lon="1.567160">
        <time>2020-08-22T12:51:08Z</time>
      </trkpt>
      <trkpt lat="42.473022" lon="1.567136">
        <time>2020-08-22T12:51:15Z</time>
      </trkpt>
      <trkpt lat="42.473022" lon="1.567136">
        <time>2020-08-22T12:51:15Z</time>
      </trkpt>
      <trkpt lat="42.473030" lon="1.567112">
        <time>2020-08-22T12:51:15Z</time>
      </trkpt>
      <trkpt lat="42.473030" lon="1.567112">
        <time>2020-08-22T12:51:15Z</time>
      </trkpt>
      <trkpt lat="42.473038" lon="1.567089">
        <time>2020-08-22T12:51:15Z</time>
      </trkpt>
      <trkpt lat="42.473038" lon="1.567089">
        <time>2020-08-22T12:51:15Z</time>
      </trkpt>
      <trkpt lat="42.473045" lon="1.567068">
        <time>2020-08-22T12:51:15Z</time>
      </trkpt>
      <trkpt lat="42.473045" lon="1.567068">
        <time>2020-08-22T12:51:15Z</time>
      </trkpt>
      <trkpt lat="42.473049" lon="1.567048">
        <time>2020-08-22T12:51:15Z</time>
      </trkpt>
      <trkpt lat="42.473049" lon="1.567048">
        <time>2020-08-22T12:51:15Z</time>
      </trkpt>
      <trkpt lat="42.473057" lon="1.567030">
        <time>2020-08-22T12:51:15Z</time>
      </trkpt>
      <trkpt lat="42.473057" lon="1.567030">
        <time>2020-08-22T12:51:15Z</time>
      </trkpt>
      <trkpt lat="42.473064" lon="1.567014">
        <time>2020-08-22T12:51:15Z</time>
      </trkpt>
      <trkpt lat="42.473064" lon="1.567014">
        <time>2020-08-22T12:51:15Z</time>
      </trkpt>
      <trkpt lat="42.473068" lon="1.567000">
        <time>2020-08-22T12:51:24Z</time>
      </trkpt>
      <trkpt lat="42.473068" lon="1.567000">
        <time>2020-08-22T12:51:24Z</time>
      </trkpt>
      <trkpt lat="42.473076" lon="1.566986">
        <time>2020-08-22T12:51:24Z</time>
      </trkpt>
      <trkpt lat="42.473076" lon="1.566986">
        <time>2020-08-22T12:51:24Z</time>
      </trkpt>
      <trkpt lat="42.473080" lon="1.566975">
        <time>2020-08-22T12:51:24Z</time>
      </trkpt>
      <trkpt lat="42.473080" lon="1.566975">
        <time>2020-08-22T12:51:24Z</time>
      </trkpt>
      <trkpt lat="42.473083" lon="1.566966">
        <time>2020-08-22T12:51:24Z</time>
      </trkpt>
      <trkpt lat="42.473083" lon="1.566966">
        <time>2020-08-22T12:51:24Z</time>
      </trkpt>
      <trkpt lat="42.473148" lon="1.566937">
        <time>2020-08-22T12:51:24Z</time>
      </trkpt>
      <trkpt lat="42.473148" lon="1.566937">
        <time>2020-08-22T12:51:24Z</time>
      </trkpt>
      <trkpt lat="42.473152" lon="1.566913">
        <time>2020-08-22T12:51:24Z</time>
      </trkpt>
      <trkpt lat="42.473152" lon="1.566913">
        <time>2020-08-22T12:51:24Z</time>
      </trkpt>
      <trkpt lat="42.473148" lon="1.566913">
        <time>2020-08-22T12:51:35Z</time>
      </trkpt>
      <trkpt lat="42.473148" lon="1.566913">
        <time>2020-08-22T12:51:35Z</time>
      </trkpt>
      <trkpt lat="42.473145" lon="1.566913">
        <time>2020-08-22T12:51:35Z</time>
      </trkpt>
      <trkpt lat="42.473145" lon="1.566913">
        <time>2020-08-22T12:51:35Z</time>
      </trkpt>
      <trkpt lat="42.473141" lon="1.566911">
        <time>2020-08-22T12:51:35Z</time>
      </trkpt>
      <trkpt lat="42.473141" lon="1.566911">
        <time>2020-08-22T12:51:35Z</time>
      </trkpt>
      <trkpt lat="42.473137" lon="1.566910">
        <time>2020-08-22T12:51:35Z</time>
      </trkpt>
      <trkpt lat="42.473137" lon="1.566910">
        <time>2020-08-22T12:51:35Z</time>
      </trkpt>
      <trkpt lat="42.473103" lon="1.566899">
        <time>2020-08-22T12:51:35Z</time>
      </trkpt>
      <trkpt lat="42.473103" lon="1.566899">
        <time>2020-08-22T12:51:35Z</time>
      </trkpt>
      <trkpt lat="42.473106" lon="1.566902">
        <time>2020-08-22T12:51:35Z</time>
      </trkpt>
      <trkpt lat="42.473106" lon="1.566902">
        <time>2020-08-22T12:51:35Z</time>
      </trkpt>
      <trkpt lat="42.473106" lon="1.566907">
        <time>2020-08-22T12:51:35Z</time>
      </trkpt>
      <trkpt lat="42.473106" lon="1.566907">
        <time>2020-08-22T12:51:35Z</time>
      </trkpt>
      <trkpt lat="42.473110" lon="1.566912">
        <time>2020-08-22T12:51:35Z</time>
      </trkpt>
      <trkpt lat="42.473110" lon="1.566912">
        <time>2020-08-22T12:51:35Z</time>
      </trkpt>
      <trkpt lat="42.473110" lon="1.566918">
        <time>2020-08-22T12:51:35Z</time>
      </trkpt>
      <trkpt lat="42.473110" lon="1.566918">
        <time>2020-08-22T12:51:35Z</time>
      </trkpt>
      <trkpt lat="42.473110" lon="1.566924">
        <time>2020-08-22T12:51:42Z</time>
      </trkpt>
      <trkpt lat="42.473110" lon="1.566924">
        <time>2020-08-22T12:51:42Z</time>
      </trkpt>
      <trkpt lat="42.473110" lon="1.566931">
        <time>2020-08-22T12:51:42Z</time>
      </trkpt>
      <trkpt lat="42.473110" lon="1.566931">
        <time>2020-08-22T12:51:42Z</time>
      </trkpt>
      <trkpt lat="42.473110" lon="1.566937">
        <time>2020-08-22T12:51:42Z</time>
      </trkpt>
      <trkpt lat="42.473110" lon="1.566937">
        <time>2020-08-22T12:51:42Z</time>
      </trkpt>
      <trkpt lat="42.473110" lon="1.566944">
        <time>2020-08-22T12:51:42Z</time>
      </trkpt>
      <trkpt lat="42.473110" lon="1.566944">
        <time>2020-08-22T12:51:42Z</time>
      </trkpt>
      <trkpt lat="42.473110" lon="1.566951">
        <time>2020-08-22T12:51:42Z</time>
      </trkpt>
      <trkpt lat="42.473110" lon="1.566951">
        <time>2020-08-22T12:51:42Z</time>
      </trkpt>
      <trkpt lat="42.473110" lon="1.566964">
        <time>2020-08-22T12:51:42Z</time>
      </trkpt>
      <trkpt lat="42.473110" lon="1.566964">
        <time>2020-08-22T12:51:42Z</time>
      </trkpt>
      <trkpt lat="42.473110" lon="1.566976">
        <time>2020-08-22T12:51:42Z</time>
      </trkpt>
      <trkpt lat="42.473110" lon="1.566976">
        <time>2020-08-22T12:51:42Z</time>
      </trkpt>
      <trkpt lat="42.473110" lon="1.566989">
        <time>2020-08-22T12:51:49Z</time>
      </trkpt>
      <trkpt lat="42.473110" lon="1.566989">
        <time>2020-08-22T12:51:49Z</time>
      </trkpt>
      <trkpt lat="42.473110" lon="1.567002">
        <time>2020-08-22T12:51:49Z</time>
      </trkpt>
      <trkpt lat="42.473110" lon="1.567002">
        <time>2020-08-22T12:51:49Z</time>
      </trkpt>
      <trkpt lat="42.473106" lon="1.567014">
        <time>2020-08-22T12:51:49Z</time>
      </trkpt>
      <trkpt lat="42.473106" lon="1.567014">
        <time>2020-08-22T12:51:49Z</time>
      </trkpt>
      <trkpt lat="42.473103" lon="1.567026">
        <time>2020-08-22T12:51:49Z</time>
      </trkpt>
      <trkpt lat="42.473103" lon="1.567026">
        <time>2020-08-22T12:51:49Z</time>
      </trkpt>
      <trkpt lat="42.473099" lon="1.567038">
        <time>2020-08-22T12:51:49Z</time>
      </trkpt>
      <trkpt lat="42.473099" lon="1.567038">
        <time>2020-08-22T12:51:49Z</time>
      </trkpt>
      <trkpt lat="42.473095" lon="1.567050">
        <time>2020-08-22T12:51:49Z</time>
      </trkpt>
      <trkpt lat="42.473095" lon="1.567050">
        <time>2020-08-22T12:51:49Z</time>
      </trkpt>
      <trkpt lat="42.473091" lon="1.567062">
        <time>2020-08-22T12:51:49Z</time>
      </trkpt>
      <trkpt lat="42.473091" lon="1.567062">
        <time>2020-08-22T12:51:49Z</time>
      </trkpt>
      <trkpt lat="42.473083" lon="1.567075">
        <time>2020-08-22T12:51:56Z</time>
      </trkpt>
      <trkpt lat="42.473083" lon="1.567075">
        <time>2020-08-22T12:51:56Z</time>
      </trkpt>
      <trkpt lat="42.473076" lon="1.567089">
        <time>2020-08-22T12:51:56Z</time>
      </trkpt>
      <trkpt lat="42.473076" lon="1.567089">
        <time>2020-08-22T12:51:56Z</time>
      </trkpt>
      <trkpt lat="42.473072" lon="1.567104">
        <time>2020-08-22T12:51:56Z</time>
      </trkpt>
      <trkpt lat="42.473072" lon="1.567104">
        <time>2020-08-22T12:51:56Z</time>
      </trkpt>
      <trkpt lat="42.473061" lon="1.567121">
        <time>2020-08-22T12:51:56Z</time>
      </trkpt>
      <trkpt lat="42.473061" lon="1.567121">
        <time>2020-08-22T12:51:56Z</time>
      </trkpt>
      <trkpt lat="42.473053" lon="1.567139">
        <time>2020-08-22T12:51:56Z</time>
      </trkpt>
      <trkpt lat="42.473053" lon="1.567139">
        <time>2020-08-22T12:51:56Z</time>
      </trkpt>
      <trkpt lat="42.473042" lon="1.567157">
        <time>2020-08-22T12:51:56Z</time>
      </trkpt>
      <trkpt lat="42.473042" lon="1.567157">
        <time>2020-08-22T12:51:56Z</time>
      </trkpt>
      <trkpt lat="42.473034" lon="1.567176">
        <time>2020-08-22T12:51:56Z</time>
      </trkpt>
      <trkpt lat="42.473034" lon="1.567176">
        <time>2020-08-22T12:51:56Z</time>
      </trkpt>
      <trkpt lat="42.473019" lon="1.567196">
        <time>2020-08-22T12:52:03Z</time>
      </trkpt>
      <trkpt lat="42.473019" lon="1.567196">
        <time>2020-08-22T12:52:03Z</time>
      </trkpt>
      <trkpt lat="42.473007" lon="1.567215">
        <time>2020-08-22T12:52:03Z</time>
      </trkpt>
      <trkpt lat="42.473007" lon="1.567215">
        <time>2020-08-22T12:52:03Z</time>
      </trkpt>
      <trkpt lat="42.472996" lon="1.567235">
        <time>2020-08-22T12:52:03Z</time>
      </trkpt>
      <trkpt lat="42.472996" lon="1.567235">
        <time>2020-08-22T12:52:03Z</time>
      </trkpt>
      <trkpt lat="42.472984" lon="1.567254">
        <time>2020-08-22T12:52:03Z</time>
      </trkpt>
      <trkpt lat="42.472984" lon="1.567254">
        <time>2020-08-22T12:52:03Z</time>
      </trkpt>
      <trkpt lat="42.472973" lon="1.567272">
        <time>2020-08-22T12:52:03Z</time>
      </trkpt>
      <trkpt lat="42.472973" lon="1.567272">
        <time>2020-08-22T12:52:03Z</time>
      </trkpt>
      <trkpt lat="42.472961" lon="1.567290">
        <time>2020-08-22T12:52:03Z</time>
      </trkpt>
      <trkpt lat="42.472961" lon="1.567290">
        <time>2020-08-22T12:52:03Z</time>
      </trkpt>
      <trkpt lat="42.472954" lon="1.567308">
        <time>2020-08-22T12:52:03Z</time>
      </trkpt>
      <trkpt lat="42.472954" lon="1.567308">
        <time>2020-08-22T12:52:03Z</time>
      </trkpt>
      <trkpt lat="42.472946" lon="1.567325">
        <time>2020-08-22T12:52:11Z</time>
      </trkpt>
      <trkpt lat="42.472946" lon="1.567325">
        <time>2020-08-22T12:52:11Z</time>
      </trkpt>
      <trkpt lat="42.472942" lon="1.567342">
        <time>2020-08-22T12:52:11Z</time>
      </trkpt>
      <trkpt lat="42.472942" lon="1.567342">
        <time>2020-08-22T12:52:11Z</time>
      </trkpt>
      <trkpt lat="42.472935" lon="1.567360">
        <time>2020-08-22T12:52:11Z</time>
      </trkpt>
      <trkpt lat="42.472935" lon="1.567360">
        <time>2020-08-22T12:52:11Z</time>
      </trkpt>
      <trkpt lat="42.472931" lon="1.567378">
        <time>2020-08-22T12:52:11Z</time>
      </trkpt>
      <trkpt lat="42.472931" lon="1.567378">
        <time>2020-08-22T12:52:11Z</time>
      </trkpt>
      <trkpt lat="42.472927" lon="1.567396">
        <time>2020-08-22T12:52:11Z</time>
      </trkpt>
      <trkpt lat="42.472927" lon="1.567396">
        <time>2020-08-22T12:52:11Z</time>
      </trkpt>
      <trkpt lat="42.472919" lon="1.567413">
        <time>2020-08-22T12:52:11Z</time>
      </trkpt>
      <trkpt lat="42.472919" lon="1.567413">
        <time>2020-08-22T12:52:11Z</time>
      </trkpt>
      <trkpt lat="42.472916" lon="1.567430">
        <time>2020-08-22T12:52:11Z</time>
      </trkpt>
      <trkpt lat="42.472916" lon="1.567430">
        <time>2020-08-22T12:52:11Z</time>
      </trkpt>
      <trkpt lat="42.472912" lon="1.567447">
        <time>2020-08-22T12:52:11Z</time>
      </trkpt>
      <trkpt lat="42.472912" lon="1.567447">
        <time>2020-08-22T12:52:11Z</time>
      </trkpt>
      <trkpt lat="42.472908" lon="1.567464">
        <time>2020-08-22T12:52:11Z</time>
      </trkpt>
      <trkpt lat="42.472908" lon="1.567464">
        <time>2020-08-22T12:52:11Z</time>
      </trkpt>
      <trkpt lat="42.472908" lon="1.567481">
        <time>2020-08-22T12:52:11Z</time>
      </trkpt>
      <trkpt lat="42.472908" lon="1.567481">
        <time>2020-08-22T12:52:11Z</time>
      </trkpt>
      <trkpt lat="42.472900" lon="1.567497">
        <time>2020-08-22T12:52:11Z</time>
      </trkpt>
      <trkpt lat="42.472900" lon="1.567497">
        <time>2020-08-22T12:52:11Z</time>
      </trkpt>
      <trkpt lat="42.472900" lon="1.567513">
        <time>2020-08-22T12:52:18Z</time>
      </trkpt>
      <trkpt lat="42.472900" lon="1.567513">
        <time>2020-08-22T12:52:18Z</time>
      </trkpt>
      <trkpt lat="42.472893" lon="1.567529">
        <time>2020-08-22T12:52:18Z</time>
      </trkpt>
      <trkpt lat="42.472893" lon="1.567529">
        <time>2020-08-22T12:52:18Z</time>
      </trkpt>
      <trkpt lat="42.472889" lon="1.567543">
        <time>2020-08-22T12:52:18Z</time>
      </trkpt>
      <trkpt lat="42.472889" lon="1.567543">
        <time>2020-08-22T12:52:18Z</time>
      </trkpt>
      <trkpt lat="42.472885" lon="1.567558">
        <time>2020-08-22T12:52:18Z</time>
      </trkpt>
      <trkpt lat="42.472885" lon="1.567558">
        <time>2020-08-22T12:52:18Z</time>
      </trkpt>
      <trkpt lat="42.472881" lon="1.567574">
        <time>2020-08-22T12:52:18Z</time>
      </trkpt>
      <trkpt lat="42.472881" lon="1.567574">
        <time>2020-08-22T12:52:18Z</time>
      </trkpt>
      <trkpt lat="42.472881" lon="1.567589">
        <time>2020-08-22T12:52:18Z</time>
      </trkpt>
      <trkpt lat="42.472881" lon="1.567589">
        <time>2020-08-22T12:52:18Z</time>
      </trkpt>
      <trkpt lat="42.472832" lon="1.567662">
        <time>2020-08-22T12:52:25Z</time>
      </trkpt>
      <trkpt lat="42.472832" lon="1.567662">
        <time>2020-08-22T12:52:25Z</time>
      </trkpt>
      <trkpt lat="42.472832" lon="1.567662">
        <time>2020-08-22T12:52:25Z</time>
      </trkpt>
      <trkpt lat="42.472832" lon="1.567662">
        <time>2020-08-22T12:52:25Z</time>
      </trkpt>
      <trkpt lat="42.472836" lon="1.567662">
        <time>2020-08-22T12:52:25Z</time>
      </trkpt>
      <trkpt lat="42.472836" lon="1.567662">
        <time>2020-08-22T12:52:25Z</time>
      </trkpt>
      <trkpt lat="42.472836" lon="1.567661">
        <time>2020-08-22T12:52:25Z</time>
      </trkpt>
      <trkpt lat="42.472836" lon="1.567661">
        <time>2020-08-22T12:52:25Z</time>
      </trkpt>
      <trkpt lat="42.472839" lon="1.567661">
        <time>2020-08-22T12:52:25Z</time>
      </trkpt>
      <trkpt lat="42.472839" lon="1.567661">
        <time>2020-08-22T12:52:25Z</time>
      </trkpt>
      <trkpt lat="42.472843" lon="1.567660">
        <time>2020-08-22T12:52:25Z</time>
      </trkpt>
      <trkpt lat="42.472843" lon="1.567660">
        <time>2020-08-22T12:52:25Z</time>
      </trkpt>
      <trkpt lat="42.472847" lon="1.567659">
        <time>2020-08-22T12:52:25Z</time>
      </trkpt>
      <trkpt lat="42.472847" lon="1.567659">
        <time>2020-08-22T12:52:25Z</time>
      </trkpt>
      <trkpt lat="42.472847" lon="1.567658">
        <time>2020-08-22T12:52:32Z</time>
      </trkpt>
      <trkpt lat="42.472847" lon="1.567658">
        <time>2020-08-22T12:52:32Z</time>
      </trkpt>
      <trkpt lat="42.472855" lon="1.567658">
        <time>2020-08-22T12:52:32Z</time>
      </trkpt>
      <trkpt lat="42.472855" lon="1.567658">
        <time>2020-08-22T12:52:32Z</time>
      </trkpt>
      <trkpt lat="42.472855" lon="1.567658">
        <time>2020-08-22T12:52:32Z</time>
      </trkpt>
      <trkpt lat="42.472855" lon="1.567658">
        <time>2020-08-22T12:52:32Z</time>
      </trkpt>
      <trkpt lat="42.472858" lon="1.567658">
        <time>2020-08-22T12:52:32Z</time>
      </trkpt>
      <trkpt lat="42.472858" lon="1.567658">
        <time>2020-08-22T12:52:32Z</time>
      </trkpt>
      <trkpt lat="42.472862" lon="1.567648">
        <time>2020-08-22T12:53:05Z</time>
      </trkpt>
      <trkpt lat="42.472862" lon="1.567648">
        <time>2020-08-22T12:53:05Z</time>
      </trkpt>
      <trkpt lat="42.472862" lon="1.567654">
        <time>2020-08-22T12:53:05Z</time>
      </trkpt>
      <trkpt lat="42.472862" lon="1.567654">
        <time>2020-08-22T12:53:05Z</time>
      </trkpt>
      <trkpt lat="42.472858" lon="1.567656">
        <time>2020-08-22T12:53:05Z</time>
      </trkpt>
      <trkpt lat="42.472858" lon="1.567656">
        <time>2020-08-22T12:53:05Z</time>
      </trkpt>
      <trkpt lat="42.472858" lon="1.567659">
        <time>2020-08-22T12:53:05Z</time>
      </trkpt>
      <trkpt lat="42.472858" lon="1.567659">
        <time>2020-08-22T12:53:05Z</time>
      </trkpt>
      <trkpt lat="42.472858" lon="1.567663">
        <time>2020-08-22T12:53:05Z</time>
      </trkpt>
      <trkpt lat="42.472858" lon="1.567663">
        <time>2020-08-22T12:53:05Z</time>
      </trkpt>
      <trkpt lat="42.472858" lon="1.567667">
        <time>2020-08-22T12:53:05Z</time>
      </trkpt>
      <trkpt lat="42.472858" lon="1.567667">
        <time>2020-08-22T12:53:05Z</time>
      </trkpt>
      <trkpt lat="42.472858" lon="1.567671">
        <time>2020-08-22T12:53:05Z</time>
      </trkpt>
      <trkpt lat="42.472858" lon="1.567671">
        <time>2020-08-22T12:53:05Z</time>
      </trkpt>
      <trkpt lat="42.472858" lon="1.567675">
        <time>2020-08-22T12:53:05Z</time>
      </trkpt>
      <trkpt lat="42.472858" lon="1.567675">
        <time>2020-08-22T12:53:05Z</time>
      </trkpt>
      <trkpt lat="42.472858" lon="1.567679">
        <time>2020-08-22T12:53:05Z</time>
      </trkpt>
      <trkpt lat="42.472858" lon="1.567679">
        <time>2020-08-22T12:53:05Z</time>
      </trkpt>
      <trkpt lat="42.472858" lon="1.567682">
        <time>2020-08-22T12:53:05Z</time>
      </trkpt>
      <trkpt lat="42.472858" lon="1.567682">
        <time>2020-08-22T12:53:05Z</time>
      </trkpt>
      <trkpt lat="42.472858" lon="1.567688">
        <time>2020-08-22T12:53:05Z</time>
      </trkpt>
      <trkpt lat="42.472858" lon="1.567688">
        <time>2020-08-22T12:53:05Z</time>
      </trkpt>
      <trkpt lat="42.472862" lon="1.567693">
        <time>2020-08-22T12:53:12Z</time>
      </trkpt>
      <trkpt lat="42.472862" lon="1.567693">
        <time>2020-08-22T12:53:12Z</time>
      </trkpt>
      <trkpt lat="42.472862" lon="1.567696">
        <time>2020-08-22T12:53:12Z</time>
      </trkpt>
      <trkpt lat="42.472862" lon="1.567696">
        <time>2020-08-22T12:53:12Z</time>
      </trkpt>
      <trkpt lat="42.472866" lon="1.567698">
        <time>2020-08-22T12:53:12Z</time>
      </trkpt>
      <trkpt lat="42.472866" lon="1.567698">
        <time>2020-08-22T12:53:12Z</time>
      </trkpt>
      <trkpt lat="42.472874" lon="1.567698">
        <time>2020-08-22T12:53:12Z</time>
      </trkpt>
      <trkpt lat="42.472874" lon="1.567698">
        <time>2020-08-22T12:53:12Z</time>
      </trkpt>
      <trkpt lat="42.472874" lon="1.567696">
        <time>2020-08-22T12:53:12Z</time>
      </trkpt>
      <trkpt lat="42.472874" lon="1.567696">
        <time>2020-08-22T12:53:12Z</time>
      </trkpt>
      <trkpt lat="42.472881" lon="1.567692">
        <time>2020-08-22T12:53:12Z</time>
      </trkpt>
      <trkpt lat="42.472881" lon="1.567692">
        <time>2020-08-22T12:53:12Z</time>
      </trkpt>
      <trkpt lat="42.472881" lon="1.567687">
        <time>2020-08-22T12:53:12Z</time>
      </trkpt>
      <trkpt lat="42.472881" lon="1.567687">
        <time>2020-08-22T12:53:12Z</time>
      </trkpt>
      <trkpt lat="42.472889" lon="1.567681">
        <time>2020-08-22T12:53:19Z</time>
      </trkpt>
      <trkpt lat="42.472889" lon="1.567681">
        <time>2020-08-22T12:53:19Z</time>
      </trkpt>
      <trkpt lat="42.472893" lon="1.567674">
        <time>2020-08-22T12:53:19Z</time>
      </trkpt>
      <trkpt lat="42.472893" lon="1.567674">
        <time>2020-08-22T12:53:19Z</time>
      </trkpt>
      <trkpt lat="42.472900" lon="1.567666">
        <time>2020-08-22T12:53:19Z</time>
      </trkpt>
      <trkpt lat="42.472900" lon="1.567666">
        <time>2020-08-22T12:53:19Z</time>
      </trkpt>
      <trkpt lat="42.472904" lon="1.567658">
        <time>2020-08-22T12:53:19Z</time>
      </trkpt>
      <trkpt lat="42.472904" lon="1.567658">
        <time>2020-08-22T12:53:19Z</time>
      </trkpt>
      <trkpt lat="42.472908" lon="1.567649">
        <time>2020-08-22T12:53:19Z</time>
      </trkpt>
      <trkpt lat="42.472908" lon="1.567649">
        <time>2020-08-22T12:53:19Z</time>
      </trkpt>
      <trkpt lat="42.472912" lon="1.567642">
        <time>2020-08-22T12:53:19Z</time>
      </trkpt>
      <trkpt lat="42.472912" lon="1.567642">
        <time>2020-08-22T12:53:19Z</time>
      </trkpt>
      <trkpt lat="42.472916" lon="1.567634">
        <time>2020-08-22T12:53:19Z</time>
      </trkpt>
      <trkpt lat="42.472916" lon="1.567634">
        <time>2020-08-22T12:53:19Z</time>
      </trkpt>
      <trkpt lat="42.472923" lon="1.567626">
        <time>2020-08-22T12:53:27Z</time>
      </trkpt>
      <trkpt lat="42.472923" lon="1.567626">
        <time>2020-08-22T12:53:27Z</time>
      </trkpt>
      <trkpt lat="42.472927" lon="1.567619">
        <time>2020-08-22T12:53:27Z</time>
      </trkpt>
      <trkpt lat="42.472927" lon="1.567619">
        <time>2020-08-22T12:53:27Z</time>
      </trkpt>
      <trkpt lat="42.472931" lon="1.567612">
        <time>2020-08-22T12:53:27Z</time>
      </trkpt>
      <trkpt lat="42.472931" lon="1.567612">
        <time>2020-08-22T12:53:27Z</time>
      </trkpt>
      <trkpt lat="42.472935" lon="1.567605">
        <time>2020-08-22T12:53:27Z</time>
      </trkpt>
      <trkpt lat="42.472935" lon="1.567605">
        <time>2020-08-22T12:53:27Z</time>
      </trkpt>
      <trkpt lat="42.472939" lon="1.567600">
        <time>2020-08-22T12:53:27Z</time>
      </trkpt>
      <trkpt lat="42.472939" lon="1.567600">
        <time>2020-08-22T12:53:27Z</time>
      </trkpt>
      <trkpt lat="42.472946" lon="1.567592">
        <time>2020-08-22T12:53:27Z</time>
      </trkpt>
      <trkpt lat="42.472946" lon="1.567592">
        <time>2020-08-22T12:53:27Z</time>
      </trkpt>
      <trkpt lat="42.472954" lon="1.567585">
        <time>2020-08-22T12:53:27Z</time>
      </trkpt>
      <trkpt lat="42.472954" lon="1.567585">
        <time>2020-08-22T12:53:27Z</time>
      </trkpt>
      <trkpt lat="42.472961" lon="1.567579">
        <time>2020-08-22T12:53:27Z</time>
      </trkpt>
      <trkpt lat="42.472961" lon="1.567579">
        <time>2020-08-22T12:53:27Z</time>
      </trkpt>
      <trkpt lat="42.472965" lon="1.567573">
        <time>2020-08-22T12:53:27Z</time>
      </trkpt>
      <trkpt lat="42.472965" lon="1.567573">
        <time>2020-08-22T12:53:27Z</time>
      </trkpt>
      <trkpt lat="42.472969" lon="1.567567">
        <time>2020-08-22T12:53:27Z</time>
      </trkpt>
      <trkpt lat="42.472969" lon="1.567567">
        <time>2020-08-22T12:53:27Z</time>
      </trkpt>
      <trkpt lat="42.472980" lon="1.567562">
        <time>2020-08-22T12:53:34Z</time>
      </trkpt>
      <trkpt lat="42.472980" lon="1.567562">
        <time>2020-08-22T12:53:34Z</time>
      </trkpt>
      <trkpt lat="42.472988" lon="1.567557">
        <time>2020-08-22T12:53:34Z</time>
      </trkpt>
      <trkpt lat="42.472988" lon="1.567557">
        <time>2020-08-22T12:53:34Z</time>
      </trkpt>
      <trkpt lat="42.472992" lon="1.567551">
        <time>2020-08-22T12:53:34Z</time>
      </trkpt>
      <trkpt lat="42.472992" lon="1.567551">
        <time>2020-08-22T12:53:34Z</time>
      </trkpt>
      <trkpt lat="42.472996" lon="1.567546">
        <time>2020-08-22T12:53:34Z</time>
      </trkpt>
      <trkpt lat="42.472996" lon="1.567546">
        <time>2020-08-22T12:53:34Z</time>
      </trkpt>
      <trkpt lat="42.473007" lon="1.567539">
        <time>2020-08-22T12:53:34Z</time>
      </trkpt>
      <trkpt lat="42.473007" lon="1.567539">
        <time>2020-08-22T12:53:34Z</time>
      </trkpt>
      <trkpt lat="42.473011" lon="1.567535">
        <time>2020-08-22T12:53:34Z</time>
      </trkpt>
      <trkpt lat="42.473011" lon="1.567535">
        <time>2020-08-22T12:53:34Z</time>
      </trkpt>
      <trkpt lat="42.473015" lon="1.567531">
        <time>2020-08-22T12:53:41Z</time>
      </trkpt>
      <trkpt lat="42.473015" lon="1.567531">
        <time>2020-08-22T12:53:41Z</time>
      </trkpt>
      <trkpt lat="42.473022" lon="1.567527">
        <time>2020-08-22T12:53:41Z</time>
      </trkpt>
      <trkpt lat="42.473022" lon="1.567527">
        <time>2020-08-22T12:53:41Z</time>
      </trkpt>
      <trkpt lat="42.473026" lon="1.567523">
        <time>2020-08-22T12:53:41Z</time>
      </trkpt>
      <trkpt lat="42.473026" lon="1.567523">
        <time>2020-08-22T12:53:41Z</time>
      </trkpt>
      <trkpt lat="42.473034" lon="1.567520">
        <time>2020-08-22T12:53:41Z</time>
      </trkpt>
      <trkpt lat="42.473034" lon="1.567520">
        <time>2020-08-22T12:53:41Z</time>
      </trkpt>
      <trkpt lat="42.473038" lon="1.567516">
        <time>2020-08-22T12:53:41Z</time>
      </trkpt>
      <trkpt lat="42.473038" lon="1.567516">
        <time>2020-08-22T12:53:41Z</time>
      </trkpt>
      <trkpt lat="42.473042" lon="1.567512">
        <time>2020-08-22T12:53:41Z</time>
      </trkpt>
      <trkpt lat="42.473042" lon="1.567512">
        <time>2020-08-22T12:53:41Z</time>
      </trkpt>
      <trkpt lat="42.473049" lon="1.567509">
        <time>2020-08-22T12:53:41Z</time>
      </trkpt>
      <trkpt lat="42.473049" lon="1.567509">
        <time>2020-08-22T12:53:41Z</time>
      </trkpt>
      <trkpt lat="42.473053" lon="1.567505">
        <time>2020-08-22T12:53:48Z</time>
      </trkpt>
      <trkpt lat="42.473053" lon="1.567505">
        <time>2020-08-22T12:53:48Z</time>
      </trkpt>
      <trkpt lat="42.473057" lon="1.567501">
        <time>2020-08-22T12:53:48Z</time>
      </trkpt>
      <trkpt lat="42.473057" lon="1.567501">
        <time>2020-08-22T12:53:48Z</time>
      </trkpt>
      <trkpt lat="42.473068" lon="1.567497">
        <time>2020-08-22T12:53:48Z</time>
      </trkpt>
      <trkpt lat="42.473068" lon="1.567497">
        <time>2020-08-22T12:53:48Z</time>
      </trkpt>
      <trkpt lat="42.473072" lon="1.567492">
        <time>2020-08-22T12:53:48Z</time>
      </trkpt>
      <trkpt lat="42.473072" lon="1.567492">
        <time>2020-08-22T12:53:48Z</time>
      </trkpt>
      <trkpt lat="42.473076" lon="1.567487">
        <time>2020-08-22T12:53:48Z</time>
      </trkpt>
      <trkpt lat="42.473076" lon="1.567487">
        <time>2020-08-22T12:53:48Z</time>
      </trkpt>
      <trkpt lat="42.473083" lon="1.567481">
        <time>2020-08-22T12:53:48Z</time>
      </trkpt>
      <trkpt lat="42.473083" lon="1.567481">
        <time>2020-08-22T12:53:48Z</time>
      </trkpt>
      <trkpt lat="42.473091" lon="1.567476">
        <time>2020-08-22T12:53:48Z</time>
      </trkpt>
      <trkpt lat="42.473091" lon="1.567476">
        <time>2020-08-22T12:53:48Z</time>
      </trkpt>
      <trkpt lat="42.473099" lon="1.567470">
        <time>2020-08-22T12:53:55Z</time>
      </trkpt>
      <trkpt lat="42.473099" lon="1.567470">
        <time>2020-08-22T12:53:55Z</time>
      </trkpt>
      <trkpt lat="42.473106" lon="1.567464">
        <time>2020-08-22T12:53:55Z</time>
      </trkpt>
      <trkpt lat="42.473106" lon="1.567464">
        <time>2020-08-22T12:53:55Z</time>
      </trkpt>
      <trkpt lat="42.473114" lon="1.567458">
        <time>2020-08-22T12:53:55Z</time>
      </trkpt>
      <trkpt lat="42.473114" lon="1.567458">
        <time>2020-08-22T12:53:55Z</time>
      </trkpt>
      <trkpt lat="42.473122" lon="1.567452">
        <time>2020-08-22T12:53:55Z</time>
      </trkpt>
      <trkpt lat="42.473122" lon="1.567452">
        <time>2020-08-22T12:53:55Z</time>
      </trkpt>
      <trkpt lat="42.473133" lon="1.567446">
        <time>2020-08-22T12:53:55Z</time>
      </trkpt>
      <trkpt lat="42.473133" lon="1.567446">
        <time>2020-08-22T12:53:55Z</time>
      </trkpt>
      <trkpt lat="42.473145" lon="1.567436">
        <time>2020-08-22T12:53:55Z</time>
      </trkpt>
      <trkpt lat="42.473145" lon="1.567436">
        <time>2020-08-22T12:53:55Z</time>
      </trkpt>
      <trkpt lat="42.473156" lon="1.567426">
        <time>2020-08-22T12:53:55Z</time>
      </trkpt>
      <trkpt lat="42.473156" lon="1.567426">
        <time>2020-08-22T12:53:55Z</time>
      </trkpt>
      <trkpt lat="42.473164" lon="1.567416">
        <time>2020-08-22T12:54:02Z</time>
      </trkpt>
      <trkpt lat="42.473164" lon="1.567416">
        <time>2020-08-22T12:54:02Z</time>
      </trkpt>
      <trkpt lat="42.473179" lon="1.567408">
        <time>2020-08-22T12:54:02Z</time>
      </trkpt>
      <trkpt lat="42.473179" lon="1.567408">
        <time>2020-08-22T12:54:02Z</time>
      </trkpt>
      <trkpt lat="42.473190" lon="1.567399">
        <time>2020-08-22T12:54:02Z</time>
      </trkpt>
      <trkpt lat="42.473190" lon="1.567399">
        <time>2020-08-22T12:54:02Z</time>
      </trkpt>
      <trkpt lat="42.473198" lon="1.567392">
        <time>2020-08-22T12:54:02Z</time>
      </trkpt>
      <trkpt lat="42.473198" lon="1.567392">
        <time>2020-08-22T12:54:02Z</time>
      </trkpt>
      <trkpt lat="42.473209" lon="1.567386">
        <time>2020-08-22T12:54:02Z</time>
      </trkpt>
      <trkpt lat="42.473209" lon="1.567386">
        <time>2020-08-22T12:54:02Z</time>
      </trkpt>
      <trkpt lat="42.473217" lon="1.567380">
        <time>2020-08-22T12:54:02Z</time>
      </trkpt>
      <trkpt lat="42.473217" lon="1.567380">
        <time>2020-08-22T12:54:02Z</time>
      </trkpt>
      <trkpt lat="42.473228" lon="1.567376">
        <time>2020-08-22T12:54:02Z</time>
      </trkpt>
      <trkpt lat="42.473228" lon="1.567376">
        <time>2020-08-22T12:54:02Z</time>
      </trkpt>
      <trkpt lat="42.473236" lon="1.567372">
        <time>2020-08-22T12:54:09Z</time>
      </trkpt>
      <trkpt lat="42.473236" lon="1.567372">
        <time>2020-08-22T12:54:09Z</time>
      </trkpt>
      <trkpt lat="42.473244" lon="1.567376">
        <time>2020-08-22T12:54:09Z</time>
      </trkpt>
      <trkpt lat="42.473244" lon="1.567376">
        <time>2020-08-22T12:54:09Z</time>
      </trkpt>
      <trkpt lat="42.473248" lon="1.567381">
        <time>2020-08-22T12:54:09Z</time>
      </trkpt>
      <trkpt lat="42.473248" lon="1.567381">
        <time>2020-08-22T12:54:09Z</time>
      </trkpt>
      <trkpt lat="42.473255" lon="1.567387">
        <time>2020-08-22T12:54:09Z</time>
      </trkpt>
      <trkpt lat="42.473255" lon="1.567387">
        <time>2020-08-22T12:54:09Z</time>
      </trkpt>
      <trkpt lat="42.473255" lon="1.567394">
        <time>2020-08-22T12:54:16Z</time>
      </trkpt>
      <trkpt lat="42.473255" lon="1.567394">
        <time>2020-08-22T12:54:16Z</time>
      </trkpt>
      <trkpt lat="42.473259" lon="1.567402">
        <time>2020-08-22T12:54:16Z</time>
      </trkpt>
      <trkpt lat="42.473259" lon="1.567402">
        <time>2020-08-22T12:54:16Z</time>
      </trkpt>
      <trkpt lat="42.473263" lon="1.567411">
        <time>2020-08-22T12:54:16Z</time>
      </trkpt>
      <trkpt lat="42.473263" lon="1.567411">
        <time>2020-08-22T12:54:16Z</time>
      </trkpt>
      <trkpt lat="42.473263" lon="1.567421">
        <time>2020-08-22T12:54:16Z</time>
      </trkpt>
      <trkpt lat="42.473263" lon="1.567421">
        <time>2020-08-22T12:54:16Z</time>
      </trkpt>
      <trkpt lat="42.473259" lon="1.567432">
        <time>2020-08-22T12:54:16Z</time>
      </trkpt>
      <trkpt lat="42.473259" lon="1.567432">
        <time>2020-08-22T12:54:16Z</time>
      </trkpt>
      <trkpt lat="42.473255" lon="1.567443">
        <time>2020-08-22T12:54:16Z</time>
      </trkpt>
      <trkpt lat="42.473255" lon="1.567443">
        <time>2020-08-22T12:54:16Z</time>
      </trkpt>
      <trkpt lat="42.473255" lon="1.567456">
        <time>2020-08-22T12:54:16Z</time>
      </trkpt>
      <trkpt lat="42.473255" lon="1.567456">
        <time>2020-08-22T12:54:16Z</time>
      </trkpt>
      <trkpt lat="42.473248" lon="1.567468">
        <time>2020-08-22T12:54:16Z</time>
      </trkpt>
      <trkpt lat="42.473248" lon="1.567468">
        <time>2020-08-22T12:54:16Z</time>
      </trkpt>
      <trkpt lat="42.473244" lon="1.567479">
        <time>2020-08-22T12:54:16Z</time>
      </trkpt>
      <trkpt lat="42.473244" lon="1.567479">
        <time>2020-08-22T12:54:16Z</time>
      </trkpt>
      <trkpt lat="42.473244" lon="1.567488">
        <time>2020-08-22T12:54:16Z</time>
      </trkpt>
      <trkpt lat="42.473244" lon="1.567488">
        <time>2020-08-22T12:54:16Z</time>
      </trkpt>
      <trkpt lat="42.473244" lon="1.567496">
        <time>2020-08-22T12:54:23Z</time>
      </trkpt>
      <trkpt lat="42.473244" lon="1.567496">
        <time>2020-08-22T12:54:23Z</time>
      </trkpt>
      <trkpt lat="42.473244" lon="1.567503">
        <time>2020-08-22T12:54:23Z</time>
      </trkpt>
      <trkpt lat="42.473244" lon="1.567503">
        <time>2020-08-22T12:54:23Z</time>
      </trkpt>
      <trkpt lat="42.473248" lon="1.567508">
        <time>2020-08-22T12:54:23Z</time>
      </trkpt>
      <trkpt lat="42.473248" lon="1.567508">
        <time>2020-08-22T12:54:23Z</time>
      </trkpt>
      <trkpt lat="42.473255" lon="1.567511">
        <time>2020-08-22T12:54:23Z</time>
      </trkpt>
      <trkpt lat="42.473255" lon="1.567511">
        <time>2020-08-22T12:54:23Z</time>
      </trkpt>
      <trkpt lat="42.473259" lon="1.567512">
        <time>2020-08-22T12:54:23Z</time>
      </trkpt>
      <trkpt lat="42.473259" lon="1.567512">
        <time>2020-08-22T12:54:23Z</time>
      </trkpt>
      <trkpt lat="42.473267" lon="1.567513">
        <time>2020-08-22T12:54:23Z</time>
      </trkpt>
      <trkpt lat="42.473267" lon="1.567513">
        <time>2020-08-22T12:54:23Z</time>
      </trkpt>
      <trkpt lat="42.473274" lon="1.567512">
        <time>2020-08-22T12:54:23Z</time>
      </trkpt>
      <trkpt lat="42.473274" lon="1.567512">
        <time>2020-08-22T12:54:23Z</time>
      </trkpt>
      <trkpt lat="42.473282" lon="1.567510">
        <time>2020-08-22T12:54:30Z</time>
      </trkpt>
      <trkpt lat="42.473282" lon="1.567510">
        <time>2020-08-22T12:54:30Z</time>
      </trkpt>
      <trkpt lat="42.473289" lon="1.567507">
        <time>2020-08-22T12:54:30Z</time>
      </trkpt>
      <trkpt lat="42.473289" lon="1.567507">
        <time>2020-08-22T12:54:30Z</time>
      </trkpt>
      <trkpt lat="42.473301" lon="1.567505">
        <time>2020-08-22T12:54:30Z</time>
      </trkpt>
      <trkpt lat="42.473301" lon="1.567505">
        <time>2020-08-22T12:54:30Z</time>
      </trkpt>
      <trkpt lat="42.473309" lon="1.567504">
        <time>2020-08-22T12:54:30Z</time>
      </trkpt>
      <trkpt lat="42.473309" lon="1.567504">
        <time>2020-08-22T12:54:30Z</time>
      </trkpt>
      <trkpt lat="42.473316" lon="1.567505">
        <time>2020-08-22T12:54:30Z</time>
      </trkpt>
      <trkpt lat="42.473316" lon="1.567505">
        <time>2020-08-22T12:54:30Z</time>
      </trkpt>
      <trkpt lat="42.473324" lon="1.567506">
        <time>2020-08-22T12:54:30Z</time>
      </trkpt>
      <trkpt lat="42.473324" lon="1.567506">
        <time>2020-08-22T12:54:30Z</time>
      </trkpt>
      <trkpt lat="42.473331" lon="1.567508">
        <time>2020-08-22T12:54:30Z</time>
      </trkpt>
      <trkpt lat="42.473331" lon="1.567508">
        <time>2020-08-22T12:54:30Z</time>
      </trkpt>
      <trkpt lat="42.473343" lon="1.567511">
        <time>2020-08-22T12:54:37Z</time>
      </trkpt>
      <trkpt lat="42.473343" lon="1.567511">
        <time>2020-08-22T12:54:37Z</time>
      </trkpt>
      <trkpt lat="42.473351" lon="1.567514">
        <time>2020-08-22T12:54:37Z</time>
      </trkpt>
      <trkpt lat="42.473351" lon="1.567514">
        <time>2020-08-22T12:54:37Z</time>
      </trkpt>
      <trkpt lat="42.473358" lon="1.567518">
        <time>2020-08-22T12:54:37Z</time>
      </trkpt>
      <trkpt lat="42.473358" lon="1.567518">
        <time>2020-08-22T12:54:37Z</time>
      </trkpt>
      <trkpt lat="42.473366" lon="1.567523">
        <time>2020-08-22T12:54:37Z</time>
      </trkpt>
      <trkpt lat="42.473366" lon="1.567523">
        <time>2020-08-22T12:54:37Z</time>
      </trkpt>
      <trkpt lat="42.473373" lon="1.567529">
        <time>2020-08-22T12:54:37Z</time>
      </trkpt>
      <trkpt lat="42.473373" lon="1.567529">
        <time>2020-08-22T12:54:37Z</time>
      </trkpt>
      <trkpt lat="42.473381" lon="1.567535">
        <time>2020-08-22T12:54:37Z</time>
      </trkpt>
      <trkpt lat="42.473381" lon="1.567535">
        <time>2020-08-22T12:54:37Z</time>
      </trkpt>
      <trkpt lat="42.473385" lon="1.567543">
        <time>2020-08-22T12:54:37Z</time>
      </trkpt>
      <trkpt lat="42.473385" lon="1.567543">
        <time>2020-08-22T12:54:37Z</time>
      </trkpt>
      <trkpt lat="42.473392" lon="1.567551">
        <time>2020-08-22T12:54:44Z</time>
      </trkpt>
      <trkpt lat="42.473392" lon="1.567551">
        <time>2020-08-22T12:54:44Z</time>
      </trkpt>
      <trkpt lat="42.473400" lon="1.567560">
        <time>2020-08-22T12:54:44Z</time>
      </trkpt>
      <trkpt lat="42.473400" lon="1.567560">
        <time>2020-08-22T12:54:44Z</time>
      </trkpt>
      <trkpt lat="42.473404" lon="1.567569">
        <time>2020-08-22T12:54:44Z</time>
      </trkpt>
      <trkpt lat="42.473404" lon="1.567569">
        <time>2020-08-22T12:54:44Z</time>
      </trkpt>
      <trkpt lat="42.473408" lon="1.567579">
        <time>2020-08-22T12:54:44Z</time>
      </trkpt>
      <trkpt lat="42.473408" lon="1.567579">
        <time>2020-08-22T12:54:44Z</time>
      </trkpt>
      <trkpt lat="42.473412" lon="1.567590">
        <time>2020-08-22T12:54:44Z</time>
      </trkpt>
      <trkpt lat="42.473412" lon="1.567590">
        <time>2020-08-22T12:54:44Z</time>
      </trkpt>
      <trkpt lat="42.473412" lon="1.567600">
        <time>2020-08-22T12:54:44Z</time>
      </trkpt>
      <trkpt lat="42.473412" lon="1.567600">
        <time>2020-08-22T12:54:44Z</time>
      </trkpt>
      <trkpt lat="42.473415" lon="1.567611">
        <time>2020-08-22T12:54:44Z</time>
      </trkpt>
      <trkpt lat="42.473415" lon="1.567611">
        <time>2020-08-22T12:54:44Z</time>
      </trkpt>
      <trkpt lat="42.473415" lon="1.567621">
        <time>2020-08-22T12:54:52Z</time>
      </trkpt>
      <trkpt lat="42.473415" lon="1.567621">
        <time>2020-08-22T12:54:52Z</time>
      </trkpt>
      <trkpt lat="42.473415" lon="1.567631">
        <time>2020-08-22T12:54:52Z</time>
      </trkpt>
      <trkpt lat="42.473415" lon="1.567631">
        <time>2020-08-22T12:54:52Z</time>
      </trkpt>
      <trkpt lat="42.473419" lon="1.567641">
        <time>2020-08-22T12:54:52Z</time>
      </trkpt>
      <trkpt lat="42.473419" lon="1.567641">
        <time>2020-08-22T12:54:52Z</time>
      </trkpt>
      <trkpt lat="42.473423" lon="1.567651">
        <time>2020-08-22T12:54:52Z</time>
      </trkpt>
      <trkpt lat="42.473423" lon="1.567651">
        <time>2020-08-22T12:54:52Z</time>
      </trkpt>
      <trkpt lat="42.473423" lon="1.567661">
        <time>2020-08-22T12:54:52Z</time>
      </trkpt>
      <trkpt lat="42.473423" lon="1.567661">
        <time>2020-08-22T12:54:52Z</time>
      </trkpt>
      <trkpt lat="42.473427" lon="1.567670">
        <time>2020-08-22T12:55:00Z</time>
      </trkpt>
      <trkpt lat="42.473427" lon="1.567670">
        <time>2020-08-22T12:55:00Z</time>
      </trkpt>
      <trkpt lat="42.473431" lon="1.567678">
        <time>2020-08-22T12:55:00Z</time>
      </trkpt>
      <trkpt lat="42.473431" lon="1.567678">
        <time>2020-08-22T12:55:00Z</time>
      </trkpt>
      <trkpt lat="42.473434" lon="1.567685">
        <time>2020-08-22T12:55:00Z</time>
      </trkpt>
      <trkpt lat="42.473434" lon="1.567685">
        <time>2020-08-22T12:55:00Z</time>
      </trkpt>
      <trkpt lat="42.473438" lon="1.567691">
        <time>2020-08-22T12:55:00Z</time>
      </trkpt>
      <trkpt lat="42.473438" lon="1.567691">
        <time>2020-08-22T12:55:00Z</time>
      </trkpt>
      <trkpt lat="42.473450" lon="1.567697">
        <time>2020-08-22T12:55:00Z</time>
      </trkpt>
      <trkpt lat="42.473450" lon="1.567697">
        <time>2020-08-22T12:55:00Z</time>
      </trkpt>
      <trkpt lat="42.473457" lon="1.567701">
        <time>2020-08-22T12:55:07Z</time>
      </trkpt>
      <trkpt lat="42.473457" lon="1.567701">
        <time>2020-08-22T12:55:07Z</time>
      </trkpt>
      <trkpt lat="42.473461" lon="1.567705">
        <time>2020-08-22T12:55:07Z</time>
      </trkpt>
      <trkpt lat="42.473461" lon="1.567705">
        <time>2020-08-22T12:55:07Z</time>
      </trkpt>
      <trkpt lat="42.473469" lon="1.567707">
        <time>2020-08-22T12:55:07Z</time>
      </trkpt>
      <trkpt lat="42.473469" lon="1.567707">
        <time>2020-08-22T12:55:07Z</time>
      </trkpt>
      <trkpt lat="42.473476" lon="1.567706">
        <time>2020-08-22T12:55:07Z</time>
      </trkpt>
      <trkpt lat="42.473476" lon="1.567706">
        <time>2020-08-22T12:55:07Z</time>
      </trkpt>
      <trkpt lat="42.473484" lon="1.567704">
        <time>2020-08-22T12:55:07Z</time>
      </trkpt>
      <trkpt lat="42.473484" lon="1.567704">
        <time>2020-08-22T12:55:07Z</time>
      </trkpt>
      <trkpt lat="42.473492" lon="1.567703">
        <time>2020-08-22T12:55:07Z</time>
      </trkpt>
      <trkpt lat="42.473492" lon="1.567703">
        <time>2020-08-22T12:55:07Z</time>
      </trkpt>
      <trkpt lat="42.473499" lon="1.567701">
        <time>2020-08-22T12:55:07Z</time>
      </trkpt>
      <trkpt lat="42.473499" lon="1.567701">
        <time>2020-08-22T12:55:07Z</time>
      </trkpt>
      <trkpt lat="42.473503" lon="1.567699">
        <time>2020-08-22T12:55:14Z</time>
      </trkpt>
      <trkpt lat="42.473503" lon="1.567699">
        <time>2020-08-22T12:55:14Z</time>
      </trkpt>
      <trkpt lat="42.473511" lon="1.567698">
        <time>2020-08-22T12:55:14Z</time>
      </trkpt>
      <trkpt lat="42.473511" lon="1.567698">
        <time>2020-08-22T12:55:14Z</time>
      </trkpt>
      <trkpt lat="42.473518" lon="1.567705">
        <time>2020-08-22T12:55:14Z</time>
      </trkpt>
      <trkpt lat="42.473518" lon="1.567705">
        <time>2020-08-22T12:55:14Z</time>
      </trkpt>
      <trkpt lat="42.473530" lon="1.567713">
        <time>2020-08-22T12:55:21Z</time>
      </trkpt>
      <trkpt lat="42.473530" lon="1.567713">
        <time>2020-08-22T12:55:21Z</time>
      </trkpt>
      <trkpt lat="42.473537" lon="1.567722">
        <time>2020-08-22T12:55:21Z</time>
      </trkpt>
      <trkpt lat="42.473537" lon="1.567722">
        <time>2020-08-22T12:55:21Z</time>
      </trkpt>
      <trkpt lat="42.473545" lon="1.567732">
        <time>2020-08-22T12:55:21Z</time>
      </trkpt>
      <trkpt lat="42.473545" lon="1.567732">
        <time>2020-08-22T12:55:21Z</time>
      </trkpt>
      <trkpt lat="42.473553" lon="1.567742">
        <time>2020-08-22T12:55:21Z</time>
      </trkpt>
      <trkpt lat="42.473553" lon="1.567742">
        <time>2020-08-22T12:55:21Z</time>
      </trkpt>
      <trkpt lat="42.473560" lon="1.567753">
        <time>2020-08-22T12:55:21Z</time>
      </trkpt>
      <trkpt lat="42.473560" lon="1.567753">
        <time>2020-08-22T12:55:21Z</time>
      </trkpt>
      <trkpt lat="42.473568" lon="1.567765">
        <time>2020-08-22T12:55:21Z</time>
      </trkpt>
      <trkpt lat="42.473568" lon="1.567765">
        <time>2020-08-22T12:55:21Z</time>
      </trkpt>
      <trkpt lat="42.473572" lon="1.567777">
        <time>2020-08-22T12:55:21Z</time>
      </trkpt>
      <trkpt lat="42.473572" lon="1.567777">
        <time>2020-08-22T12:55:21Z</time>
      </trkpt>
      <trkpt lat="42.473583" lon="1.567789">
        <time>2020-08-22T12:55:28Z</time>
      </trkpt>
      <trkpt lat="42.473583" lon="1.567789">
        <time>2020-08-22T12:55:28Z</time>
      </trkpt>
      <trkpt lat="42.473591" lon="1.567802">
        <time>2020-08-22T12:55:28Z</time>
      </trkpt>
      <trkpt lat="42.473591" lon="1.567802">
        <time>2020-08-22T12:55:28Z</time>
      </trkpt>
      <trkpt lat="42.473598" lon="1.567811">
        <time>2020-08-22T12:55:28Z</time>
      </trkpt>
      <trkpt lat="42.473598" lon="1.567811">
        <time>2020-08-22T12:55:28Z</time>
      </trkpt>
      <trkpt lat="42.473614" lon="1.567819">
        <time>2020-08-22T12:55:28Z</time>
      </trkpt>
      <trkpt lat="42.473614" lon="1.567819">
        <time>2020-08-22T12:55:28Z</time>
      </trkpt>
      <trkpt lat="42.473625" lon="1.567826">
        <time>2020-08-22T12:55:28Z</time>
      </trkpt>
      <trkpt lat="42.473625" lon="1.567826">
        <time>2020-08-22T12:55:28Z</time>
      </trkpt>
      <trkpt lat="42.473640" lon="1.567833">
        <time>2020-08-22T12:55:51Z</time>
      </trkpt>
      <trkpt lat="42.473640" lon="1.567833">
        <time>2020-08-22T12:55:51Z</time>
      </trkpt>
      <trkpt lat="42.473656" lon="1.567839">
        <time>2020-08-22T12:55:51Z</time>
      </trkpt>
      <trkpt lat="42.473656" lon="1.567839">
        <time>2020-08-22T12:55:51Z</time>
      </trkpt>
      <trkpt lat="42.473671" lon="1.567846">
        <time>2020-08-22T12:55:51Z</time>
      </trkpt>
      <trkpt lat="42.473671" lon="1.567846">
        <time>2020-08-22T12:55:51Z</time>
      </trkpt>
      <trkpt lat="42.473686" lon="1.567852">
        <time>2020-08-22T12:55:51Z</time>
      </trkpt>
      <trkpt lat="42.473686" lon="1.567852">
        <time>2020-08-22T12:55:51Z</time>
      </trkpt>
      <trkpt lat="42.473701" lon="1.567859">
        <time>2020-08-22T12:55:51Z</time>
      </trkpt>
      <trkpt lat="42.473701" lon="1.567859">
        <time>2020-08-22T12:55:51Z</time>
      </trkpt>
      <trkpt lat="42.473717" lon="1.567865">
        <time>2020-08-22T12:55:51Z</time>
      </trkpt>
      <trkpt lat="42.473717" lon="1.567865">
        <time>2020-08-22T12:55:51Z</time>
      </trkpt>
      <trkpt lat="42.473732" lon="1.567870">
        <time>2020-08-22T12:55:51Z</time>
      </trkpt>
      <trkpt lat="42.473732" lon="1.567870">
        <time>2020-08-22T12:55:51Z</time>
      </trkpt>
      <trkpt lat="42.473747" lon="1.567870">
        <time>2020-08-22T12:55:58Z</time>
      </trkpt>
      <trkpt lat="42.473747" lon="1.567870">
        <time>2020-08-22T12:55:58Z</time>
      </trkpt>
      <trkpt lat="42.473759" lon="1.567870">
        <time>2020-08-22T12:55:58Z</time>
      </trkpt>
      <trkpt lat="42.473759" lon="1.567870">
        <time>2020-08-22T12:55:58Z</time>
      </trkpt>
      <trkpt lat="42.473774" lon="1.567870">
        <time>2020-08-22T12:55:58Z</time>
      </trkpt>
      <trkpt lat="42.473774" lon="1.567870">
        <time>2020-08-22T12:55:58Z</time>
      </trkpt>
      <trkpt lat="42.473785" lon="1.567871">
        <time>2020-08-22T12:55:58Z</time>
      </trkpt>
      <trkpt lat="42.473785" lon="1.567871">
        <time>2020-08-22T12:55:58Z</time>
      </trkpt>
      <trkpt lat="42.473801" lon="1.567871">
        <time>2020-08-22T12:55:58Z</time>
      </trkpt>
      <trkpt lat="42.473801" lon="1.567871">
        <time>2020-08-22T12:55:58Z</time>
      </trkpt>
      <trkpt lat="42.473816" lon="1.567871">
        <time>2020-08-22T12:55:58Z</time>
      </trkpt>
      <trkpt lat="42.473816" lon="1.567871">
        <time>2020-08-22T12:55:58Z</time>
      </trkpt>
      <trkpt lat="42.473831" lon="1.567871">
        <time>2020-08-22T12:55:58Z</time>
      </trkpt>
      <trkpt lat="42.473831" lon="1.567871">
        <time>2020-08-22T12:55:58Z</time>
      </trkpt>
      <trkpt lat="42.473843" lon="1.567871">
        <time>2020-08-22T12:56:05Z</time>
      </trkpt>
      <trkpt lat="42.473843" lon="1.567871">
        <time>2020-08-22T12:56:05Z</time>
      </trkpt>
      <trkpt lat="42.473858" lon="1.567871">
        <time>2020-08-22T12:56:05Z</time>
      </trkpt>
      <trkpt lat="42.473858" lon="1.567871">
        <time>2020-08-22T12:56:05Z</time>
      </trkpt>
      <trkpt lat="42.473869" lon="1.567870">
        <time>2020-08-22T12:56:05Z</time>
      </trkpt>
      <trkpt lat="42.473869" lon="1.567870">
        <time>2020-08-22T12:56:05Z</time>
      </trkpt>
      <trkpt lat="42.473881" lon="1.567870">
        <time>2020-08-22T12:56:05Z</time>
      </trkpt>
      <trkpt lat="42.473881" lon="1.567870">
        <time>2020-08-22T12:56:05Z</time>
      </trkpt>
      <trkpt lat="42.473892" lon="1.567870">
        <time>2020-08-22T12:56:05Z</time>
      </trkpt>
      <trkpt lat="42.473892" lon="1.567870">
        <time>2020-08-22T12:56:05Z</time>
      </trkpt>
      <trkpt lat="42.473900" lon="1.567869">
        <time>2020-08-22T12:56:05Z</time>
      </trkpt>
      <trkpt lat="42.473900" lon="1.567869">
        <time>2020-08-22T12:56:05Z</time>
      </trkpt>
      <trkpt lat="42.473911" lon="1.567868">
        <time>2020-08-22T12:56:05Z</time>
      </trkpt>
      <trkpt lat="42.473911" lon="1.567868">
        <time>2020-08-22T12:56:05Z</time>
      </trkpt>
      <trkpt lat="42.473923" lon="1.567866">
        <time>2020-08-22T12:56:13Z</time>
      </trkpt>
      <trkpt lat="42.473923" lon="1.567866">
        <time>2020-08-22T12:56:13Z</time>
      </trkpt>
      <trkpt lat="42.473930" lon="1.567863">
        <time>2020-08-22T12:56:13Z</time>
      </trkpt>
      <trkpt lat="42.473930" lon="1.567863">
        <time>2020-08-22T12:56:13Z</time>
      </trkpt>
      <trkpt lat="42.473942" lon="1.567860">
        <time>2020-08-22T12:56:13Z</time>
      </trkpt>
      <trkpt lat="42.473942" lon="1.567860">
        <time>2020-08-22T12:56:13Z</time>
      </trkpt>
      <trkpt lat="42.473953" lon="1.567856">
        <time>2020-08-22T12:56:13Z</time>
      </trkpt>
      <trkpt lat="42.473953" lon="1.567856">
        <time>2020-08-22T12:56:13Z</time>
      </trkpt>
      <trkpt lat="42.473961" lon="1.567852">
        <time>2020-08-22T12:56:13Z</time>
      </trkpt>
      <trkpt lat="42.473961" lon="1.567852">
        <time>2020-08-22T12:56:13Z</time>
      </trkpt>
      <trkpt lat="42.473976" lon="1.567849">
        <time>2020-08-22T12:56:13Z</time>
      </trkpt>
      <trkpt lat="42.473976" lon="1.567849">
        <time>2020-08-22T12:56:13Z</time>
      </trkpt>
      <trkpt lat="42.473995" lon="1.567846">
        <time>2020-08-22T12:56:13Z</time>
      </trkpt>
      <trkpt lat="42.473995" lon="1.567846">
        <time>2020-08-22T12:56:13Z</time>
      </trkpt>
      <trkpt lat="42.474010" lon="1.567842">
        <time>2020-08-22T12:56:13Z</time>
      </trkpt>
      <trkpt lat="42.474010" lon="1.567842">
        <time>2020-08-22T12:56:13Z</time>
      </trkpt>
      <trkpt lat="42.474094" lon="1.567801">
        <time>2020-08-22T12:56:13Z</time>
      </trkpt>
      <trkpt lat="42.474094" lon="1.567801">
        <time>2020-08-22T12:56:13Z</time>
      </trkpt>
      <trkpt lat="42.474125" lon="1.567801">
        <time>2020-08-22T12:56:13Z</time>
      </trkpt>
      <trkpt lat="42.474125" lon="1.567801">
        <time>2020-08-22T12:56:13Z</time>
      </trkpt>
      <trkpt lat="42.474129" lon="1.567802">
        <time>2020-08-22T12:56:13Z</time>
      </trkpt>
      <trkpt lat="42.474129" lon="1.567802">
        <time>2020-08-22T12:56:13Z</time>
      </trkpt>
      <trkpt lat="42.474133" lon="1.567804">
        <time>2020-08-22T12:56:20Z</time>
      </trkpt>
      <trkpt lat="42.474133" lon="1.567804">
        <time>2020-08-22T12:56:20Z</time>
      </trkpt>
      <trkpt lat="42.474140" lon="1.567805">
        <time>2020-08-22T12:56:20Z</time>
      </trkpt>
      <trkpt lat="42.474140" lon="1.567805">
        <time>2020-08-22T12:56:20Z</time>
      </trkpt>
      <trkpt lat="42.474144" lon="1.567806">
        <time>2020-08-22T12:56:20Z</time>
      </trkpt>
      <trkpt lat="42.474144" lon="1.567806">
        <time>2020-08-22T12:56:20Z</time>
      </trkpt>
      <trkpt lat="42.474148" lon="1.567807">
        <time>2020-08-22T12:56:20Z</time>
      </trkpt>
      <trkpt lat="42.474148" lon="1.567807">
        <time>2020-08-22T12:56:20Z</time>
      </trkpt>
      <trkpt lat="42.474155" lon="1.567809">
        <time>2020-08-22T12:56:20Z</time>
      </trkpt>
      <trkpt lat="42.474155" lon="1.567809">
        <time>2020-08-22T12:56:20Z</time>
      </trkpt>
      <trkpt lat="42.474159" lon="1.567811">
        <time>2020-08-22T12:56:20Z</time>
      </trkpt>
      <trkpt lat="42.474159" lon="1.567811">
        <time>2020-08-22T12:56:20Z</time>
      </trkpt>
      <trkpt lat="42.474163" lon="1.567813">
        <time>2020-08-22T12:56:20Z</time>
      </trkpt>
      <trkpt lat="42.474163" lon="1.567813">
        <time>2020-08-22T12:56:20Z</time>
      </trkpt>
      <trkpt lat="42.474167" lon="1.567815">
        <time>2020-08-22T12:56:28Z</time>
      </trkpt>
      <trkpt lat="42.474167" lon="1.567815">
        <time>2020-08-22T12:56:28Z</time>
      </trkpt>
      <trkpt lat="42.474174" lon="1.567822">
        <time>2020-08-22T12:56:36Z</time>
      </trkpt>
      <trkpt lat="42.474174" lon="1.567822">
        <time>2020-08-22T12:56:36Z</time>
      </trkpt>
      <trkpt lat="42.474182" lon="1.567827">
        <time>2020-08-22T12:56:36Z</time>
      </trkpt>
      <trkpt lat="42.474182" lon="1.567827">
        <time>2020-08-22T12:56:36Z</time>
      </trkpt>
      <trkpt lat="42.474194" lon="1.567833">
        <time>2020-08-22T12:56:43Z</time>
      </trkpt>
      <trkpt lat="42.474194" lon="1.567833">
        <time>2020-08-22T12:56:43Z</time>
      </trkpt>
      <trkpt lat="42.474197" lon="1.567838">
        <time>2020-08-22T12:56:43Z</time>
      </trkpt>
      <trkpt lat="42.474197" lon="1.567838">
        <time>2020-08-22T12:56:43Z</time>
      </trkpt>
      <trkpt lat="42.474205" lon="1.567842">
        <time>2020-08-22T12:56:43Z</time>
      </trkpt>
      <trkpt lat="42.474205" lon="1.567842">
        <time>2020-08-22T12:56:43Z</time>
      </trkpt>
      <trkpt lat="42.474213" lon="1.567846">
        <time>2020-08-22T12:56:43Z</time>
      </trkpt>
      <trkpt lat="42.474213" lon="1.567846">
        <time>2020-08-22T12:56:43Z</time>
      </trkpt>
      <trkpt lat="42.474220" lon="1.567849">
        <time>2020-08-22T12:56:43Z</time>
      </trkpt>
      <trkpt lat="42.474220" lon="1.567849">
        <time>2020-08-22T12:56:43Z</time>
      </trkpt>
      <trkpt lat="42.474228" lon="1.567851">
        <time>2020-08-22T12:56:43Z</time>
      </trkpt>
      <trkpt lat="42.474228" lon="1.567851">
        <time>2020-08-22T12:56:43Z</time>
      </trkpt>
      <trkpt lat="42.474236" lon="1.567852">
        <time>2020-08-22T12:56:43Z</time>
      </trkpt>
      <trkpt lat="42.474236" lon="1.567852">
        <time>2020-08-22T12:56:43Z</time>
      </trkpt>
      <trkpt lat="42.474247" lon="1.567852">
        <time>2020-08-22T12:56:51Z</time>
      </trkpt>
      <trkpt lat="42.474247" lon="1.567852">
        <time>2020-08-22T12:56:51Z</time>
      </trkpt>
      <trkpt lat="42.474255" lon="1.567850">
        <time>2020-08-22T12:56:51Z</time>
      </trkpt>
      <trkpt lat="42.474255" lon="1.567850">
        <time>2020-08-22T12:56:51Z</time>
      </trkpt>
      <trkpt lat="42.474266" lon="1.567847">
        <time>2020-08-22T12:56:51Z</time>
      </trkpt>
      <trkpt lat="42.474266" lon="1.567847">
        <time>2020-08-22T12:56:51Z</time>
      </trkpt>
      <trkpt lat="42.474277" lon="1.567844">
        <time>2020-08-22T12:56:51Z</time>
      </trkpt>
      <trkpt lat="42.474277" lon="1.567844">
        <time>2020-08-22T12:56:51Z</time>
      </trkpt>
      <trkpt lat="42.474289" lon="1.567841">
        <time>2020-08-22T12:56:51Z</time>
      </trkpt>
      <trkpt lat="42.474289" lon="1.567841">
        <time>2020-08-22T12:56:51Z</time>
      </trkpt>
      <trkpt lat="42.474300" lon="1.567838">
        <time>2020-08-22T12:56:51Z</time>
      </trkpt>
      <trkpt lat="42.474300" lon="1.567838">
        <time>2020-08-22T12:56:51Z</time>
      </trkpt>
      <trkpt lat="42.474312" lon="1.567835">
        <time>2020-08-22T12:56:51Z</time>
      </trkpt>
      <trkpt lat="42.474312" lon="1.567835">
        <time>2020-08-22T12:56:51Z</time>
      </trkpt>
      <trkpt lat="42.474327" lon="1.567832">
        <time>2020-08-22T12:56:58Z</time>
      </trkpt>
      <trkpt lat="42.474327" lon="1.567832">
        <time>2020-08-22T12:56:58Z</time>
      </trkpt>
      <trkpt lat="42.474339" lon="1.567828">
        <time>2020-08-22T12:56:58Z</time>
      </trkpt>
      <trkpt lat="42.474339" lon="1.567828">
        <time>2020-08-22T12:56:58Z</time>
      </trkpt>
      <trkpt lat="42.474354" lon="1.567825">
        <time>2020-08-22T12:56:58Z</time>
      </trkpt>
      <trkpt lat="42.474354" lon="1.567825">
        <time>2020-08-22T12:56:58Z</time>
      </trkpt>
      <trkpt lat="42.474365" lon="1.567820">
        <time>2020-08-22T12:56:58Z</time>
      </trkpt>
      <trkpt lat="42.474365" lon="1.567820">
        <time>2020-08-22T12:56:58Z</time>
      </trkpt>
      <trkpt lat="42.474380" lon="1.567817">
        <time>2020-08-22T12:56:58Z</time>
      </trkpt>
      <trkpt lat="42.474380" lon="1.567817">
        <time>2020-08-22T12:56:58Z</time>
      </trkpt>
      <trkpt lat="42.474396" lon="1.567813">
        <time>2020-08-22T12:56:58Z</time>
      </trkpt>
      <trkpt lat="42.474396" lon="1.567813">
        <time>2020-08-22T12:56:58Z</time>
      </trkpt>
      <trkpt lat="42.474411" lon="1.567810">
        <time>2020-08-22T12:56:58Z</time>
      </trkpt>
      <trkpt lat="42.474411" lon="1.567810">
        <time>2020-08-22T12:56:58Z</time>
      </trkpt>
      <trkpt lat="42.474422" lon="1.567808">
        <time>2020-08-22T12:57:05Z</time>
      </trkpt>
      <trkpt lat="42.474422" lon="1.567808">
        <time>2020-08-22T12:57:05Z</time>
      </trkpt>
      <trkpt lat="42.474438" lon="1.567808">
        <time>2020-08-22T12:57:05Z</time>
      </trkpt>
      <trkpt lat="42.474438" lon="1.567808">
        <time>2020-08-22T12:57:05Z</time>
      </trkpt>
      <trkpt lat="42.474449" lon="1.567808">
        <time>2020-08-22T12:57:05Z</time>
      </trkpt>
      <trkpt lat="42.474449" lon="1.567808">
        <time>2020-08-22T12:57:05Z</time>
      </trkpt>
      <trkpt lat="42.474461" lon="1.567810">
        <time>2020-08-22T12:57:05Z</time>
      </trkpt>
      <trkpt lat="42.474461" lon="1.567810">
        <time>2020-08-22T12:57:05Z</time>
      </trkpt>
      <trkpt lat="42.474472" lon="1.567813">
        <time>2020-08-22T12:57:05Z</time>
      </trkpt>
      <trkpt lat="42.474472" lon="1.567813">
        <time>2020-08-22T12:57:05Z</time>
      </trkpt>
      <trkpt lat="42.474480" lon="1.567817">
        <time>2020-08-22T12:57:05Z</time>
      </trkpt>
      <trkpt lat="42.474480" lon="1.567817">
        <time>2020-08-22T12:57:05Z</time>
      </trkpt>
      <trkpt lat="42.474491" lon="1.567822">
        <time>2020-08-22T12:57:05Z</time>
      </trkpt>
      <trkpt lat="42.474491" lon="1.567822">
        <time>2020-08-22T12:57:05Z</time>
      </trkpt>
      <trkpt lat="42.474499" lon="1.567828">
        <time>2020-08-22T12:57:12Z</time>
      </trkpt>
      <trkpt lat="42.474499" lon="1.567828">
        <time>2020-08-22T12:57:12Z</time>
      </trkpt>
      <trkpt lat="42.474510" lon="1.567835">
        <time>2020-08-22T12:57:12Z</time>
      </trkpt>
      <trkpt lat="42.474510" lon="1.567835">
        <time>2020-08-22T12:57:12Z</time>
      </trkpt>
      <trkpt lat="42.474518" lon="1.567843">
        <time>2020-08-22T12:57:12Z</time>
      </trkpt>
      <trkpt lat="42.474518" lon="1.567843">
        <time>2020-08-22T12:57:12Z</time>
      </trkpt>
      <trkpt lat="42.474529" lon="1.567849">
        <time>2020-08-22T12:57:12Z</time>
      </trkpt>
      <trkpt lat="42.474529" lon="1.567849">
        <time>2020-08-22T12:57:12Z</time>
      </trkpt>
      <trkpt lat="42.474537" lon="1.567855">
        <time>2020-08-22T12:57:12Z</time>
      </trkpt>
      <trkpt lat="42.474537" lon="1.567855">
        <time>2020-08-22T12:57:12Z</time>
      </trkpt>
      <trkpt lat="42.474548" lon="1.567861">
        <time>2020-08-22T12:57:12Z</time>
      </trkpt>
      <trkpt lat="42.474548" lon="1.567861">
        <time>2020-08-22T12:57:12Z</time>
      </trkpt>
      <trkpt lat="42.474556" lon="1.567866">
        <time>2020-08-22T12:57:12Z</time>
      </trkpt>
      <trkpt lat="42.474556" lon="1.567866">
        <time>2020-08-22T12:57:12Z</time>
      </trkpt>
      <trkpt lat="42.474567" lon="1.567870">
        <time>2020-08-22T12:57:19Z</time>
      </trkpt>
      <trkpt lat="42.474567" lon="1.567870">
        <time>2020-08-22T12:57:19Z</time>
      </trkpt>
      <trkpt lat="42.474579" lon="1.567874">
        <time>2020-08-22T12:57:19Z</time>
      </trkpt>
      <trkpt lat="42.474579" lon="1.567874">
        <time>2020-08-22T12:57:19Z</time>
      </trkpt>
      <trkpt lat="42.474586" lon="1.567878">
        <time>2020-08-22T12:57:19Z</time>
      </trkpt>
      <trkpt lat="42.474586" lon="1.567878">
        <time>2020-08-22T12:57:19Z</time>
      </trkpt>
      <trkpt lat="42.474609" lon="1.567886">
        <time>2020-08-22T12:57:19Z</time>
      </trkpt>
      <trkpt lat="42.474609" lon="1.567886">
        <time>2020-08-22T12:57:19Z</time>
      </trkpt>
      <trkpt lat="42.474628" lon="1.567894">
        <time>2020-08-22T12:57:19Z</time>
      </trkpt>
      <trkpt lat="42.474628" lon="1.567894">
        <time>2020-08-22T12:57:19Z</time>
      </trkpt>
      <trkpt lat="42.474651" lon="1.567901">
        <time>2020-08-22T12:57:19Z</time>
      </trkpt>
      <trkpt lat="42.474651" lon="1.567901">
        <time>2020-08-22T12:57:19Z</time>
      </trkpt>
      <trkpt lat="42.474670" lon="1.567907">
        <time>2020-08-22T12:57:19Z</time>
      </trkpt>
      <trkpt lat="42.474670" lon="1.567907">
        <time>2020-08-22T12:57:19Z</time>
      </trkpt>
      <trkpt lat="42.474693" lon="1.567914">
        <time>2020-08-22T12:57:26Z</time>
      </trkpt>
      <trkpt lat="42.474693" lon="1.567914">
        <time>2020-08-22T12:57:26Z</time>
      </trkpt>
      <trkpt lat="42.474712" lon="1.567921">
        <time>2020-08-22T12:57:26Z</time>
      </trkpt>
      <trkpt lat="42.474712" lon="1.567921">
        <time>2020-08-22T12:57:26Z</time>
      </trkpt>
      <trkpt lat="42.474731" lon="1.567928">
        <time>2020-08-22T12:57:26Z</time>
      </trkpt>
      <trkpt lat="42.474731" lon="1.567928">
        <time>2020-08-22T12:57:26Z</time>
      </trkpt>
      <trkpt lat="42.474754" lon="1.567935">
        <time>2020-08-22T12:57:26Z</time>
      </trkpt>
      <trkpt lat="42.474754" lon="1.567935">
        <time>2020-08-22T12:57:26Z</time>
      </trkpt>
      <trkpt lat="42.474777" lon="1.567941">
        <time>2020-08-22T12:57:26Z</time>
      </trkpt>
      <trkpt lat="42.474777" lon="1.567941">
        <time>2020-08-22T12:57:26Z</time>
      </trkpt>
      <trkpt lat="42.474796" lon="1.567947">
        <time>2020-08-22T12:57:26Z</time>
      </trkpt>
      <trkpt lat="42.474796" lon="1.567947">
        <time>2020-08-22T12:57:26Z</time>
      </trkpt>
      <trkpt lat="42.474808" lon="1.567947">
        <time>2020-08-22T12:57:26Z</time>
      </trkpt>
      <trkpt lat="42.474808" lon="1.567947">
        <time>2020-08-22T12:57:26Z</time>
      </trkpt>
      <trkpt lat="42.474823" lon="1.567947">
        <time>2020-08-22T12:57:34Z</time>
      </trkpt>
      <trkpt lat="42.474823" lon="1.567947">
        <time>2020-08-22T12:57:34Z</time>
      </trkpt>
      <trkpt lat="42.474831" lon="1.567947">
        <time>2020-08-22T12:57:34Z</time>
      </trkpt>
      <trkpt lat="42.474831" lon="1.567947">
        <time>2020-08-22T12:57:34Z</time>
      </trkpt>
      <trkpt lat="42.474842" lon="1.567947">
        <time>2020-08-22T12:57:34Z</time>
      </trkpt>
      <trkpt lat="42.474842" lon="1.567947">
        <time>2020-08-22T12:57:34Z</time>
      </trkpt>
      <trkpt lat="42.474857" lon="1.567946">
        <time>2020-08-22T12:57:34Z</time>
      </trkpt>
      <trkpt lat="42.474857" lon="1.567946">
        <time>2020-08-22T12:57:34Z</time>
      </trkpt>
      <trkpt lat="42.474865" lon="1.567944">
        <time>2020-08-22T12:57:34Z</time>
      </trkpt>
      <trkpt lat="42.474865" lon="1.567944">
        <time>2020-08-22T12:57:34Z</time>
      </trkpt>
      <trkpt lat="42.474880" lon="1.567942">
        <time>2020-08-22T12:57:42Z</time>
      </trkpt>
      <trkpt lat="42.474880" lon="1.567942">
        <time>2020-08-22T12:57:42Z</time>
      </trkpt>
      <trkpt lat="42.474888" lon="1.567940">
        <time>2020-08-22T12:57:42Z</time>
      </trkpt>
      <trkpt lat="42.474888" lon="1.567940">
        <time>2020-08-22T12:57:42Z</time>
      </trkpt>
      <trkpt lat="42.474899" lon="1.567937">
        <time>2020-08-22T12:57:42Z</time>
      </trkpt>
      <trkpt lat="42.474899" lon="1.567937">
        <time>2020-08-22T12:57:42Z</time>
      </trkpt>
      <trkpt lat="42.474907" lon="1.567935">
        <time>2020-08-22T12:57:42Z</time>
      </trkpt>
      <trkpt lat="42.474907" lon="1.567935">
        <time>2020-08-22T12:57:42Z</time>
      </trkpt>
      <trkpt lat="42.474915" lon="1.567933">
        <time>2020-08-22T12:57:42Z</time>
      </trkpt>
      <trkpt lat="42.474915" lon="1.567933">
        <time>2020-08-22T12:57:42Z</time>
      </trkpt>
      <trkpt lat="42.474918" lon="1.567932">
        <time>2020-08-22T12:57:42Z</time>
      </trkpt>
      <trkpt lat="42.474918" lon="1.567932">
        <time>2020-08-22T12:57:42Z</time>
      </trkpt>
      <trkpt lat="42.474930" lon="1.567930">
        <time>2020-08-22T12:57:42Z</time>
      </trkpt>
      <trkpt lat="42.474930" lon="1.567930">
        <time>2020-08-22T12:57:42Z</time>
      </trkpt>
      <trkpt lat="42.474930" lon="1.567928">
        <time>2020-08-22T12:57:42Z</time>
      </trkpt>
      <trkpt lat="42.474930" lon="1.567928">
        <time>2020-08-22T12:57:42Z</time>
      </trkpt>
      <trkpt lat="42.474937" lon="1.567926">
        <time>2020-08-22T12:57:42Z</time>
      </trkpt>
      <trkpt lat="42.474937" lon="1.567926">
        <time>2020-08-22T12:57:42Z</time>
      </trkpt>
      <trkpt lat="42.474941" lon="1.567924">
        <time>2020-08-22T12:57:42Z</time>
      </trkpt>
      <trkpt lat="42.474941" lon="1.567924">
        <time>2020-08-22T12:57:42Z</time>
      </trkpt>
      <trkpt lat="42.474972" lon="1.567918">
        <time>2020-08-22T12:58:13Z</time>
      </trkpt>
      <trkpt lat="42.474972" lon="1.567918">
        <time>2020-08-22T12:58:13Z</time>
      </trkpt>
      <trkpt lat="42.474972" lon="1.567918">
        <time>2020-08-22T12:58:13Z</time>
      </trkpt>
      <trkpt lat="42.474972" lon="1.567918">
        <time>2020-08-22T12:58:13Z</time>
      </trkpt>
      <trkpt lat="42.474972" lon="1.567921">
        <time>2020-08-22T12:58:13Z</time>
      </trkpt>
      <trkpt lat="42.474972" lon="1.567921">
        <time>2020-08-22T12:58:13Z</time>
      </trkpt>
      <trkpt lat="42.474972" lon="1.567926">
        <time>2020-08-22T12:58:13Z</time>
      </trkpt>
      <trkpt lat="42.474972" lon="1.567926">
        <time>2020-08-22T12:58:13Z</time>
      </trkpt>
      <trkpt lat="42.474972" lon="1.567931">
        <time>2020-08-22T12:58:13Z</time>
      </trkpt>
      <trkpt lat="42.474972" lon="1.567931">
        <time>2020-08-22T12:58:13Z</time>
      </trkpt>
      <trkpt lat="42.474972" lon="1.567935">
        <time>2020-08-22T12:58:13Z</time>
      </trkpt>
      <trkpt lat="42.474972" lon="1.567935">
        <time>2020-08-22T12:58:13Z</time>
      </trkpt>
      <trkpt lat="42.474972" lon="1.567939">
        <time>2020-08-22T12:58:13Z</time>
      </trkpt>
      <trkpt lat="42.474972" lon="1.567939">
        <time>2020-08-22T12:58:13Z</time>
      </trkpt>
      <trkpt lat="42.474972" lon="1.567943">
        <time>2020-08-22T12:58:13Z</time>
      </trkpt>
      <trkpt lat="42.474972" lon="1.567943">
        <time>2020-08-22T12:58:13Z</time>
      </trkpt>
      <trkpt lat="42.474972" lon="1.567947">
        <time>2020-08-22T12:58:13Z</time>
      </trkpt>
      <trkpt lat="42.474972" lon="1.567947">
        <time>2020-08-22T12:58:13Z</time>
      </trkpt>
      <trkpt lat="42.474972" lon="1.567952">
        <time>2020-08-22T12:58:13Z</time>
      </trkpt>
      <trkpt lat="42.474972" lon="1.567952">
        <time>2020-08-22T12:58:13Z</time>
      </trkpt>
      <trkpt lat="42.474976" lon="1.567964">
        <time>2020-08-22T12:58:20Z</time>
      </trkpt>
      <trkpt lat="42.474976" lon="1.567964">
        <time>2020-08-22T12:58:20Z</time>
      </trkpt>
      <trkpt lat="42.474979" lon="1.567976">
        <time>2020-08-22T12:58:20Z</time>
      </trkpt>
      <trkpt lat="42.474979" lon="1.567976">
        <time>2020-08-22T12:58:20Z</time>
      </trkpt>
      <trkpt lat="42.474983" lon="1.567986">
        <time>2020-08-22T12:58:20Z</time>
      </trkpt>
      <trkpt lat="42.474983" lon="1.567986">
        <time>2020-08-22T12:58:20Z</time>
      </trkpt>
      <trkpt lat="42.474991" lon="1.567993">
        <time>2020-08-22T12:58:20Z</time>
      </trkpt>
      <trkpt lat="42.474991" lon="1.567993">
        <time>2020-08-22T12:58:20Z</time>
      </trkpt>
      <trkpt lat="42.474998" lon="1.567999">
        <time>2020-08-22T12:58:20Z</time>
      </trkpt>
      <trkpt lat="42.474998" lon="1.567999">
        <time>2020-08-22T12:58:20Z</time>
      </trkpt>
      <trkpt lat="42.475002" lon="1.568003">
        <time>2020-08-22T12:58:20Z</time>
      </trkpt>
      <trkpt lat="42.475002" lon="1.568003">
        <time>2020-08-22T12:58:20Z</time>
      </trkpt>
      <trkpt lat="42.475010" lon="1.568006">
        <time>2020-08-22T12:58:20Z</time>
      </trkpt>
      <trkpt lat="42.475010" lon="1.568006">
        <time>2020-08-22T12:58:20Z</time>
      </trkpt>
      <trkpt lat="42.475021" lon="1.568007">
        <time>2020-08-22T12:58:27Z</time>
      </trkpt>
      <trkpt lat="42.475021" lon="1.568007">
        <time>2020-08-22T12:58:27Z</time>
      </trkpt>
      <trkpt lat="42.475029" lon="1.568007">
        <time>2020-08-22T12:58:27Z</time>
      </trkpt>
      <trkpt lat="42.475029" lon="1.568007">
        <time>2020-08-22T12:58:27Z</time>
      </trkpt>
      <trkpt lat="42.475040" lon="1.568005">
        <time>2020-08-22T12:58:27Z</time>
      </trkpt>
      <trkpt lat="42.475040" lon="1.568005">
        <time>2020-08-22T12:58:27Z</time>
      </trkpt>
      <trkpt lat="42.475048" lon="1.567998">
        <time>2020-08-22T12:58:27Z</time>
      </trkpt>
      <trkpt lat="42.475048" lon="1.567998">
        <time>2020-08-22T12:58:27Z</time>
      </trkpt>
      <trkpt lat="42.475059" lon="1.567991">
        <time>2020-08-22T12:58:27Z</time>
      </trkpt>
      <trkpt lat="42.475059" lon="1.567991">
        <time>2020-08-22T12:58:27Z</time>
      </trkpt>
      <trkpt lat="42.475067" lon="1.567985">
        <time>2020-08-22T12:58:27Z</time>
      </trkpt>
      <trkpt lat="42.475067" lon="1.567985">
        <time>2020-08-22T12:58:27Z</time>
      </trkpt>
      <trkpt lat="42.475075" lon="1.567979">
        <time>2020-08-22T12:58:27Z</time>
      </trkpt>
      <trkpt lat="42.475075" lon="1.567979">
        <time>2020-08-22T12:58:27Z</time>
      </trkpt>
      <trkpt lat="42.475086" lon="1.567974">
        <time>2020-08-22T12:58:34Z</time>
      </trkpt>
      <trkpt lat="42.475086" lon="1.567974">
        <time>2020-08-22T12:58:34Z</time>
      </trkpt>
      <trkpt lat="42.475094" lon="1.567970">
        <time>2020-08-22T12:58:34Z</time>
      </trkpt>
      <trkpt lat="42.475094" lon="1.567970">
        <time>2020-08-22T12:58:34Z</time>
      </trkpt>
      <trkpt lat="42.475105" lon="1.567966">
        <time>2020-08-22T12:58:34Z</time>
      </trkpt>
      <trkpt lat="42.475105" lon="1.567966">
        <time>2020-08-22T12:58:34Z</time>
      </trkpt>
      <trkpt lat="42.475113" lon="1.567962">
        <time>2020-08-22T12:58:34Z</time>
      </trkpt>
      <trkpt lat="42.475113" lon="1.567962">
        <time>2020-08-22T12:58:34Z</time>
      </trkpt>
      <trkpt lat="42.475124" lon="1.567958">
        <time>2020-08-22T12:58:34Z</time>
      </trkpt>
      <trkpt lat="42.475124" lon="1.567958">
        <time>2020-08-22T12:58:34Z</time>
      </trkpt>
      <trkpt lat="42.475132" lon="1.567953">
        <time>2020-08-22T12:58:34Z</time>
      </trkpt>
      <trkpt lat="42.475132" lon="1.567953">
        <time>2020-08-22T12:58:34Z</time>
      </trkpt>
      <trkpt lat="42.475143" lon="1.567947">
        <time>2020-08-22T12:58:34Z</time>
      </trkpt>
      <trkpt lat="42.475143" lon="1.567947">
        <time>2020-08-22T12:58:34Z</time>
      </trkpt>
      <trkpt lat="42.475159" lon="1.567941">
        <time>2020-08-22T12:58:41Z</time>
      </trkpt>
      <trkpt lat="42.475159" lon="1.567941">
        <time>2020-08-22T12:58:41Z</time>
      </trkpt>
      <trkpt lat="42.475166" lon="1.567935">
        <time>2020-08-22T12:58:41Z</time>
      </trkpt>
      <trkpt lat="42.475166" lon="1.567935">
        <time>2020-08-22T12:58:41Z</time>
      </trkpt>
      <trkpt lat="42.475178" lon="1.567928">
        <time>2020-08-22T12:58:41Z</time>
      </trkpt>
      <trkpt lat="42.475178" lon="1.567928">
        <time>2020-08-22T12:58:41Z</time>
      </trkpt>
      <trkpt lat="42.475189" lon="1.567922">
        <time>2020-08-22T12:58:41Z</time>
      </trkpt>
      <trkpt lat="42.475189" lon="1.567922">
        <time>2020-08-22T12:58:41Z</time>
      </trkpt>
      <trkpt lat="42.475201" lon="1.567916">
        <time>2020-08-22T12:58:41Z</time>
      </trkpt>
      <trkpt lat="42.475201" lon="1.567916">
        <time>2020-08-22T12:58:41Z</time>
      </trkpt>
      <trkpt lat="42.475212" lon="1.567910">
        <time>2020-08-22T12:58:41Z</time>
      </trkpt>
      <trkpt lat="42.475212" lon="1.567910">
        <time>2020-08-22T12:58:41Z</time>
      </trkpt>
      <trkpt lat="42.475220" lon="1.567905">
        <time>2020-08-22T12:58:41Z</time>
      </trkpt>
      <trkpt lat="42.475220" lon="1.567905">
        <time>2020-08-22T12:58:41Z</time>
      </trkpt>
      <trkpt lat="42.475231" lon="1.567901">
        <time>2020-08-22T12:58:53Z</time>
      </trkpt>
      <trkpt lat="42.475231" lon="1.567901">
        <time>2020-08-22T12:58:53Z</time>
      </trkpt>
      <trkpt lat="42.475243" lon="1.567899">
        <time>2020-08-22T12:58:53Z</time>
      </trkpt>
      <trkpt lat="42.475243" lon="1.567899">
        <time>2020-08-22T12:58:53Z</time>
      </trkpt>
      <trkpt lat="42.475246" lon="1.567899">
        <time>2020-08-22T12:58:53Z</time>
      </trkpt>
      <trkpt lat="42.475246" lon="1.567899">
        <time>2020-08-22T12:58:53Z</time>
      </trkpt>
      <trkpt lat="42.475258" lon="1.567906">
        <time>2020-08-22T12:59:31Z</time>
      </trkpt>
      <trkpt lat="42.475258" lon="1.567906">
        <time>2020-08-22T12:59:31Z</time>
      </trkpt>
      <trkpt lat="42.475262" lon="1.567907">
        <time>2020-08-22T12:59:31Z</time>
      </trkpt>
      <trkpt lat="42.475262" lon="1.567907">
        <time>2020-08-22T12:59:31Z</time>
      </trkpt>
      <trkpt lat="42.475265" lon="1.567908">
        <time>2020-08-22T12:59:31Z</time>
      </trkpt>
      <trkpt lat="42.475265" lon="1.567908">
        <time>2020-08-22T12:59:31Z</time>
      </trkpt>
      <trkpt lat="42.475269" lon="1.567910">
        <time>2020-08-22T12:59:31Z</time>
      </trkpt>
      <trkpt lat="42.475269" lon="1.567910">
        <time>2020-08-22T12:59:31Z</time>
      </trkpt>
      <trkpt lat="42.475273" lon="1.567911">
        <time>2020-08-22T12:59:31Z</time>
      </trkpt>
      <trkpt lat="42.475273" lon="1.567911">
        <time>2020-08-22T12:59:31Z</time>
      </trkpt>
      <trkpt lat="42.475281" lon="1.567912">
        <time>2020-08-22T12:59:31Z</time>
      </trkpt>
      <trkpt lat="42.475281" lon="1.567912">
        <time>2020-08-22T12:59:31Z</time>
      </trkpt>
      <trkpt lat="42.475288" lon="1.567913">
        <time>2020-08-22T12:59:31Z</time>
      </trkpt>
      <trkpt lat="42.475288" lon="1.567913">
        <time>2020-08-22T12:59:31Z</time>
      </trkpt>
      <trkpt lat="42.475292" lon="1.567914">
        <time>2020-08-22T12:59:38Z</time>
      </trkpt>
      <trkpt lat="42.475292" lon="1.567914">
        <time>2020-08-22T12:59:38Z</time>
      </trkpt>
      <trkpt lat="42.475300" lon="1.567916">
        <time>2020-08-22T12:59:38Z</time>
      </trkpt>
      <trkpt lat="42.475300" lon="1.567916">
        <time>2020-08-22T12:59:38Z</time>
      </trkpt>
      <trkpt lat="42.475307" lon="1.567917">
        <time>2020-08-22T12:59:38Z</time>
      </trkpt>
      <trkpt lat="42.475307" lon="1.567917">
        <time>2020-08-22T12:59:38Z</time>
      </trkpt>
      <trkpt lat="42.475319" lon="1.567920">
        <time>2020-08-22T12:59:38Z</time>
      </trkpt>
      <trkpt lat="42.475319" lon="1.567920">
        <time>2020-08-22T12:59:38Z</time>
      </trkpt>
      <trkpt lat="42.475330" lon="1.567922">
        <time>2020-08-22T12:59:38Z</time>
      </trkpt>
      <trkpt lat="42.475330" lon="1.567922">
        <time>2020-08-22T12:59:38Z</time>
      </trkpt>
      <trkpt lat="42.475346" lon="1.567925">
        <time>2020-08-22T12:59:38Z</time>
      </trkpt>
      <trkpt lat="42.475346" lon="1.567925">
        <time>2020-08-22T12:59:38Z</time>
      </trkpt>
      <trkpt lat="42.475357" lon="1.567927">
        <time>2020-08-22T12:59:38Z</time>
      </trkpt>
      <trkpt lat="42.475357" lon="1.567927">
        <time>2020-08-22T12:59:38Z</time>
      </trkpt>
      <trkpt lat="42.475372" lon="1.567929">
        <time>2020-08-22T12:59:45Z</time>
      </trkpt>
      <trkpt lat="42.475372" lon="1.567929">
        <time>2020-08-22T12:59:45Z</time>
      </trkpt>
      <trkpt lat="42.475384" lon="1.567930">
        <time>2020-08-22T12:59:45Z</time>
      </trkpt>
      <trkpt lat="42.475384" lon="1.567930">
        <time>2020-08-22T12:59:45Z</time>
      </trkpt>
      <trkpt lat="42.475399" lon="1.567931">
        <time>2020-08-22T12:59:45Z</time>
      </trkpt>
      <trkpt lat="42.475399" lon="1.567931">
        <time>2020-08-22T12:59:45Z</time>
      </trkpt>
      <trkpt lat="42.475407" lon="1.567933">
        <time>2020-08-22T12:59:45Z</time>
      </trkpt>
      <trkpt lat="42.475407" lon="1.567933">
        <time>2020-08-22T12:59:45Z</time>
      </trkpt>
      <trkpt lat="42.475422" lon="1.567934">
        <time>2020-08-22T12:59:45Z</time>
      </trkpt>
      <trkpt lat="42.475422" lon="1.567934">
        <time>2020-08-22T12:59:45Z</time>
      </trkpt>
      <trkpt lat="42.475433" lon="1.567935">
        <time>2020-08-22T12:59:45Z</time>
      </trkpt>
      <trkpt lat="42.475433" lon="1.567935">
        <time>2020-08-22T12:59:45Z</time>
      </trkpt>
      <trkpt lat="42.475449" lon="1.567935">
        <time>2020-08-22T12:59:45Z</time>
      </trkpt>
      <trkpt lat="42.475449" lon="1.567935">
        <time>2020-08-22T12:59:45Z</time>
      </trkpt>
      <trkpt lat="42.475460" lon="1.567936">
        <time>2020-08-22T12:59:52Z</time>
      </trkpt>
      <trkpt lat="42.475460" lon="1.567936">
        <time>2020-08-22T12:59:52Z</time>
      </trkpt>
      <trkpt lat="42.475471" lon="1.567937">
        <time>2020-08-22T12:59:52Z</time>
      </trkpt>
      <trkpt lat="42.475471" lon="1.567937">
        <time>2020-08-22T12:59:52Z</time>
      </trkpt>
      <trkpt lat="42.475483" lon="1.567938">
        <time>2020-08-22T12:59:52Z</time>
      </trkpt>
      <trkpt lat="42.475483" lon="1.567938">
        <time>2020-08-22T12:59:52Z</time>
      </trkpt>
      <trkpt lat="42.475494" lon="1.567939">
        <time>2020-08-22T12:59:52Z</time>
      </trkpt>
      <trkpt lat="42.475494" lon="1.567939">
        <time>2020-08-22T12:59:52Z</time>
      </trkpt>
      <trkpt lat="42.475506" lon="1.567941">
        <time>2020-08-22T12:59:52Z</time>
      </trkpt>
      <trkpt lat="42.475506" lon="1.567941">
        <time>2020-08-22T12:59:52Z</time>
      </trkpt>
      <trkpt lat="42.475521" lon="1.567943">
        <time>2020-08-22T12:59:52Z</time>
      </trkpt>
      <trkpt lat="42.475521" lon="1.567943">
        <time>2020-08-22T12:59:52Z</time>
      </trkpt>
      <trkpt lat="42.475533" lon="1.567946">
        <time>2020-08-22T12:59:52Z</time>
      </trkpt>
      <trkpt lat="42.475533" lon="1.567946">
        <time>2020-08-22T12:59:52Z</time>
      </trkpt>
      <trkpt lat="42.475540" lon="1.567950">
        <time>2020-08-22T12:59:59Z</time>
      </trkpt>
      <trkpt lat="42.475540" lon="1.567950">
        <time>2020-08-22T12:59:59Z</time>
      </trkpt>
      <trkpt lat="42.475548" lon="1.567956">
        <time>2020-08-22T12:59:59Z</time>
      </trkpt>
      <trkpt lat="42.475548" lon="1.567956">
        <time>2020-08-22T12:59:59Z</time>
      </trkpt>
      <trkpt lat="42.475559" lon="1.567965">
        <time>2020-08-22T12:59:59Z</time>
      </trkpt>
      <trkpt lat="42.475559" lon="1.567965">
        <time>2020-08-22T12:59:59Z</time>
      </trkpt>
      <trkpt lat="42.475567" lon="1.567974">
        <time>2020-08-22T13:00:06Z</time>
      </trkpt>
      <trkpt lat="42.475567" lon="1.567974">
        <time>2020-08-22T13:00:06Z</time>
      </trkpt>
      <trkpt lat="42.475578" lon="1.567984">
        <time>2020-08-22T13:00:06Z</time>
      </trkpt>
      <trkpt lat="42.475578" lon="1.567984">
        <time>2020-08-22T13:00:06Z</time>
      </trkpt>
      <trkpt lat="42.475586" lon="1.567994">
        <time>2020-08-22T13:00:06Z</time>
      </trkpt>
      <trkpt lat="42.475586" lon="1.567994">
        <time>2020-08-22T13:00:06Z</time>
      </trkpt>
      <trkpt lat="42.475594" lon="1.568004">
        <time>2020-08-22T13:00:06Z</time>
      </trkpt>
      <trkpt lat="42.475594" lon="1.568004">
        <time>2020-08-22T13:00:06Z</time>
      </trkpt>
      <trkpt lat="42.475601" lon="1.568015">
        <time>2020-08-22T13:00:06Z</time>
      </trkpt>
      <trkpt lat="42.475601" lon="1.568015">
        <time>2020-08-22T13:00:06Z</time>
      </trkpt>
      <trkpt lat="42.475609" lon="1.568025">
        <time>2020-08-22T13:00:06Z</time>
      </trkpt>
      <trkpt lat="42.475609" lon="1.568025">
        <time>2020-08-22T13:00:06Z</time>
      </trkpt>
      <trkpt lat="42.475620" lon="1.568036">
        <time>2020-08-22T13:00:06Z</time>
      </trkpt>
      <trkpt lat="42.475620" lon="1.568036">
        <time>2020-08-22T13:00:06Z</time>
      </trkpt>
      <trkpt lat="42.475632" lon="1.568045">
        <time>2020-08-22T13:00:13Z</time>
      </trkpt>
      <trkpt lat="42.475632" lon="1.568045">
        <time>2020-08-22T13:00:13Z</time>
      </trkpt>
      <trkpt lat="42.475643" lon="1.568054">
        <time>2020-08-22T13:00:13Z</time>
      </trkpt>
      <trkpt lat="42.475643" lon="1.568054">
        <time>2020-08-22T13:00:13Z</time>
      </trkpt>
      <trkpt lat="42.475655" lon="1.568058">
        <time>2020-08-22T13:00:13Z</time>
      </trkpt>
      <trkpt lat="42.475655" lon="1.568058">
        <time>2020-08-22T13:00:13Z</time>
      </trkpt>
      <trkpt lat="42.475666" lon="1.568063">
        <time>2020-08-22T13:00:13Z</time>
      </trkpt>
      <trkpt lat="42.475666" lon="1.568063">
        <time>2020-08-22T13:00:13Z</time>
      </trkpt>
      <trkpt lat="42.475681" lon="1.568066">
        <time>2020-08-22T13:00:13Z</time>
      </trkpt>
      <trkpt lat="42.475681" lon="1.568066">
        <time>2020-08-22T13:00:13Z</time>
      </trkpt>
      <trkpt lat="42.475689" lon="1.568068">
        <time>2020-08-22T13:00:13Z</time>
      </trkpt>
      <trkpt lat="42.475689" lon="1.568068">
        <time>2020-08-22T13:00:13Z</time>
      </trkpt>
      <trkpt lat="42.475704" lon="1.568070">
        <time>2020-08-22T13:00:13Z</time>
      </trkpt>
      <trkpt lat="42.475704" lon="1.568070">
        <time>2020-08-22T13:00:13Z</time>
      </trkpt>
      <trkpt lat="42.475716" lon="1.568070">
        <time>2020-08-22T13:00:21Z</time>
      </trkpt>
      <trkpt lat="42.475716" lon="1.568070">
        <time>2020-08-22T13:00:21Z</time>
      </trkpt>
      <trkpt lat="42.475727" lon="1.568070">
        <time>2020-08-22T13:00:21Z</time>
      </trkpt>
      <trkpt lat="42.475727" lon="1.568070">
        <time>2020-08-22T13:00:21Z</time>
      </trkpt>
      <trkpt lat="42.475739" lon="1.568070">
        <time>2020-08-22T13:00:21Z</time>
      </trkpt>
      <trkpt lat="42.475739" lon="1.568070">
        <time>2020-08-22T13:00:21Z</time>
      </trkpt>
      <trkpt lat="42.475750" lon="1.568071">
        <time>2020-08-22T13:00:21Z</time>
      </trkpt>
      <trkpt lat="42.475750" lon="1.568071">
        <time>2020-08-22T13:00:21Z</time>
      </trkpt>
      <trkpt lat="42.475761" lon="1.568072">
        <time>2020-08-22T13:00:21Z</time>
      </trkpt>
      <trkpt lat="42.475761" lon="1.568072">
        <time>2020-08-22T13:00:21Z</time>
      </trkpt>
      <trkpt lat="42.475769" lon="1.568073">
        <time>2020-08-22T13:00:28Z</time>
      </trkpt>
      <trkpt lat="42.475769" lon="1.568073">
        <time>2020-08-22T13:00:28Z</time>
      </trkpt>
      <trkpt lat="42.475777" lon="1.568073">
        <time>2020-08-22T13:00:28Z</time>
      </trkpt>
      <trkpt lat="42.475777" lon="1.568073">
        <time>2020-08-22T13:00:28Z</time>
      </trkpt>
      <trkpt lat="42.475784" lon="1.568073">
        <time>2020-08-22T13:00:28Z</time>
      </trkpt>
      <trkpt lat="42.475784" lon="1.568073">
        <time>2020-08-22T13:00:28Z</time>
      </trkpt>
      <trkpt lat="42.475792" lon="1.568073">
        <time>2020-08-22T13:00:28Z</time>
      </trkpt>
      <trkpt lat="42.475792" lon="1.568073">
        <time>2020-08-22T13:00:28Z</time>
      </trkpt>
      <trkpt lat="42.475800" lon="1.568073">
        <time>2020-08-22T13:00:28Z</time>
      </trkpt>
      <trkpt lat="42.475800" lon="1.568073">
        <time>2020-08-22T13:00:28Z</time>
      </trkpt>
      <trkpt lat="42.475807" lon="1.568074">
        <time>2020-08-22T13:00:28Z</time>
      </trkpt>
      <trkpt lat="42.475807" lon="1.568074">
        <time>2020-08-22T13:00:28Z</time>
      </trkpt>
      <trkpt lat="42.475815" lon="1.568075">
        <time>2020-08-22T13:00:28Z</time>
      </trkpt>
      <trkpt lat="42.475815" lon="1.568075">
        <time>2020-08-22T13:00:28Z</time>
      </trkpt>
      <trkpt lat="42.475826" lon="1.568076">
        <time>2020-08-22T13:00:35Z</time>
      </trkpt>
      <trkpt lat="42.475826" lon="1.568076">
        <time>2020-08-22T13:00:35Z</time>
      </trkpt>
      <trkpt lat="42.475834" lon="1.568076">
        <time>2020-08-22T13:00:35Z</time>
      </trkpt>
      <trkpt lat="42.475834" lon="1.568076">
        <time>2020-08-22T13:00:35Z</time>
      </trkpt>
      <trkpt lat="42.475845" lon="1.568076">
        <time>2020-08-22T13:00:35Z</time>
      </trkpt>
      <trkpt lat="42.475845" lon="1.568076">
        <time>2020-08-22T13:00:35Z</time>
      </trkpt>
      <trkpt lat="42.475857" lon="1.568076">
        <time>2020-08-22T13:00:35Z</time>
      </trkpt>
      <trkpt lat="42.475857" lon="1.568076">
        <time>2020-08-22T13:00:35Z</time>
      </trkpt>
      <trkpt lat="42.475868" lon="1.568078">
        <time>2020-08-22T13:00:35Z</time>
      </trkpt>
      <trkpt lat="42.475868" lon="1.568078">
        <time>2020-08-22T13:00:35Z</time>
      </trkpt>
      <trkpt lat="42.475883" lon="1.568081">
        <time>2020-08-22T13:00:35Z</time>
      </trkpt>
      <trkpt lat="42.475883" lon="1.568081">
        <time>2020-08-22T13:00:35Z</time>
      </trkpt>
      <trkpt lat="42.475895" lon="1.568085">
        <time>2020-08-22T13:00:35Z</time>
      </trkpt>
      <trkpt lat="42.475895" lon="1.568085">
        <time>2020-08-22T13:00:35Z</time>
      </trkpt>
      <trkpt lat="42.475910" lon="1.568094">
        <time>2020-08-22T13:00:43Z</time>
      </trkpt>
      <trkpt lat="42.475910" lon="1.568094">
        <time>2020-08-22T13:00:43Z</time>
      </trkpt>
      <trkpt lat="42.475925" lon="1.568103">
        <time>2020-08-22T13:00:43Z</time>
      </trkpt>
      <trkpt lat="42.475925" lon="1.568103">
        <time>2020-08-22T13:00:43Z</time>
      </trkpt>
      <trkpt lat="42.475937" lon="1.568112">
        <time>2020-08-22T13:00:43Z</time>
      </trkpt>
      <trkpt lat="42.475937" lon="1.568112">
        <time>2020-08-22T13:00:43Z</time>
      </trkpt>
      <trkpt lat="42.475948" lon="1.568122">
        <time>2020-08-22T13:00:43Z</time>
      </trkpt>
      <trkpt lat="42.475948" lon="1.568122">
        <time>2020-08-22T13:00:43Z</time>
      </trkpt>
      <trkpt lat="42.475964" lon="1.568132">
        <time>2020-08-22T13:00:43Z</time>
      </trkpt>
      <trkpt lat="42.475964" lon="1.568132">
        <time>2020-08-22T13:00:43Z</time>
      </trkpt>
      <trkpt lat="42.475975" lon="1.568143">
        <time>2020-08-22T13:00:43Z</time>
      </trkpt>
      <trkpt lat="42.475975" lon="1.568143">
        <time>2020-08-22T13:00:43Z</time>
      </trkpt>
      <trkpt lat="42.475983" lon="1.568154">
        <time>2020-08-22T13:00:53Z</time>
      </trkpt>
      <trkpt lat="42.475983" lon="1.568154">
        <time>2020-08-22T13:00:53Z</time>
      </trkpt>
      <trkpt lat="42.475990" lon="1.568167">
        <time>2020-08-22T13:00:53Z</time>
      </trkpt>
      <trkpt lat="42.475990" lon="1.568167">
        <time>2020-08-22T13:00:53Z</time>
      </trkpt>
      <trkpt lat="42.476002" lon="1.568180">
        <time>2020-08-22T13:00:53Z</time>
      </trkpt>
      <trkpt lat="42.476002" lon="1.568180">
        <time>2020-08-22T13:00:53Z</time>
      </trkpt>
      <trkpt lat="42.476009" lon="1.568193">
        <time>2020-08-22T13:00:53Z</time>
      </trkpt>
      <trkpt lat="42.476009" lon="1.568193">
        <time>2020-08-22T13:00:53Z</time>
      </trkpt>
      <trkpt lat="42.476013" lon="1.568202">
        <time>2020-08-22T13:01:01Z</time>
      </trkpt>
      <trkpt lat="42.476013" lon="1.568202">
        <time>2020-08-22T13:01:01Z</time>
      </trkpt>
      <trkpt lat="42.476017" lon="1.568211">
        <time>2020-08-22T13:01:01Z</time>
      </trkpt>
      <trkpt lat="42.476017" lon="1.568211">
        <time>2020-08-22T13:01:01Z</time>
      </trkpt>
      <trkpt lat="42.476028" lon="1.568220">
        <time>2020-08-22T13:01:01Z</time>
      </trkpt>
      <trkpt lat="42.476028" lon="1.568220">
        <time>2020-08-22T13:01:01Z</time>
      </trkpt>
      <trkpt lat="42.476032" lon="1.568229">
        <time>2020-08-22T13:01:01Z</time>
      </trkpt>
      <trkpt lat="42.476032" lon="1.568229">
        <time>2020-08-22T13:01:01Z</time>
      </trkpt>
      <trkpt lat="42.476036" lon="1.568237">
        <time>2020-08-22T13:01:01Z</time>
      </trkpt>
      <trkpt lat="42.476036" lon="1.568237">
        <time>2020-08-22T13:01:01Z</time>
      </trkpt>
      <trkpt lat="42.476044" lon="1.568245">
        <time>2020-08-22T13:01:01Z</time>
      </trkpt>
      <trkpt lat="42.476044" lon="1.568245">
        <time>2020-08-22T13:01:01Z</time>
      </trkpt>
      <trkpt lat="42.476048" lon="1.568254">
        <time>2020-08-22T13:01:01Z</time>
      </trkpt>
      <trkpt lat="42.476048" lon="1.568254">
        <time>2020-08-22T13:01:01Z</time>
      </trkpt>
      <trkpt lat="42.476051" lon="1.568260">
        <time>2020-08-22T13:01:01Z</time>
      </trkpt>
      <trkpt lat="42.476051" lon="1.568260">
        <time>2020-08-22T13:01:01Z</time>
      </trkpt>
      <trkpt lat="42.476051" lon="1.568265">
        <time>2020-08-22T13:01:01Z</time>
      </trkpt>
      <trkpt lat="42.476051" lon="1.568265">
        <time>2020-08-22T13:01:01Z</time>
      </trkpt>
      <trkpt lat="42.476051" lon="1.568270">
        <time>2020-08-22T13:01:01Z</time>
      </trkpt>
      <trkpt lat="42.476051" lon="1.568270">
        <time>2020-08-22T13:01:01Z</time>
      </trkpt>
      <trkpt lat="42.476048" lon="1.568274">
        <time>2020-08-22T13:01:01Z</time>
      </trkpt>
      <trkpt lat="42.476048" lon="1.568274">
        <time>2020-08-22T13:01:01Z</time>
      </trkpt>
      <trkpt lat="42.476044" lon="1.568278">
        <time>2020-08-22T13:01:08Z</time>
      </trkpt>
      <trkpt lat="42.476044" lon="1.568278">
        <time>2020-08-22T13:01:08Z</time>
      </trkpt>
      <trkpt lat="42.476040" lon="1.568280">
        <time>2020-08-22T13:01:08Z</time>
      </trkpt>
      <trkpt lat="42.476040" lon="1.568280">
        <time>2020-08-22T13:01:08Z</time>
      </trkpt>
      <trkpt lat="42.476036" lon="1.568280">
        <time>2020-08-22T13:01:08Z</time>
      </trkpt>
      <trkpt lat="42.476036" lon="1.568280">
        <time>2020-08-22T13:01:08Z</time>
      </trkpt>
      <trkpt lat="42.476028" lon="1.568278">
        <time>2020-08-22T13:01:08Z</time>
      </trkpt>
      <trkpt lat="42.476028" lon="1.568278">
        <time>2020-08-22T13:01:08Z</time>
      </trkpt>
      <trkpt lat="42.476021" lon="1.568274">
        <time>2020-08-22T13:01:08Z</time>
      </trkpt>
      <trkpt lat="42.476021" lon="1.568274">
        <time>2020-08-22T13:01:08Z</time>
      </trkpt>
      <trkpt lat="42.476017" lon="1.568266">
        <time>2020-08-22T13:01:08Z</time>
      </trkpt>
      <trkpt lat="42.476017" lon="1.568266">
        <time>2020-08-22T13:01:08Z</time>
      </trkpt>
      <trkpt lat="42.476009" lon="1.568256">
        <time>2020-08-22T13:01:08Z</time>
      </trkpt>
      <trkpt lat="42.476009" lon="1.568256">
        <time>2020-08-22T13:01:08Z</time>
      </trkpt>
      <trkpt lat="42.476006" lon="1.568245">
        <time>2020-08-22T13:01:15Z</time>
      </trkpt>
      <trkpt lat="42.476006" lon="1.568245">
        <time>2020-08-22T13:01:15Z</time>
      </trkpt>
      <trkpt lat="42.476006" lon="1.568232">
        <time>2020-08-22T13:01:15Z</time>
      </trkpt>
      <trkpt lat="42.476006" lon="1.568232">
        <time>2020-08-22T13:01:15Z</time>
      </trkpt>
      <trkpt lat="42.476002" lon="1.568218">
        <time>2020-08-22T13:01:15Z</time>
      </trkpt>
      <trkpt lat="42.476002" lon="1.568218">
        <time>2020-08-22T13:01:15Z</time>
      </trkpt>
      <trkpt lat="42.476006" lon="1.568203">
        <time>2020-08-22T13:01:15Z</time>
      </trkpt>
      <trkpt lat="42.476006" lon="1.568203">
        <time>2020-08-22T13:01:15Z</time>
      </trkpt>
      <trkpt lat="42.476009" lon="1.568189">
        <time>2020-08-22T13:01:15Z</time>
      </trkpt>
      <trkpt lat="42.476009" lon="1.568189">
        <time>2020-08-22T13:01:15Z</time>
      </trkpt>
      <trkpt lat="42.476013" lon="1.568174">
        <time>2020-08-22T13:01:15Z</time>
      </trkpt>
      <trkpt lat="42.476013" lon="1.568174">
        <time>2020-08-22T13:01:15Z</time>
      </trkpt>
      <trkpt lat="42.476017" lon="1.568161">
        <time>2020-08-22T13:01:15Z</time>
      </trkpt>
      <trkpt lat="42.476017" lon="1.568161">
        <time>2020-08-22T13:01:15Z</time>
      </trkpt>
      <trkpt lat="42.476028" lon="1.568150">
        <time>2020-08-22T13:01:22Z</time>
      </trkpt>
      <trkpt lat="42.476028" lon="1.568150">
        <time>2020-08-22T13:01:22Z</time>
      </trkpt>
      <trkpt lat="42.476036" lon="1.568140">
        <time>2020-08-22T13:01:22Z</time>
      </trkpt>
      <trkpt lat="42.476036" lon="1.568140">
        <time>2020-08-22T13:01:22Z</time>
      </trkpt>
      <trkpt lat="42.476044" lon="1.568131">
        <time>2020-08-22T13:01:22Z</time>
      </trkpt>
      <trkpt lat="42.476044" lon="1.568131">
        <time>2020-08-22T13:01:22Z</time>
      </trkpt>
      <trkpt lat="42.476055" lon="1.568124">
        <time>2020-08-22T13:01:22Z</time>
      </trkpt>
      <trkpt lat="42.476055" lon="1.568124">
        <time>2020-08-22T13:01:22Z</time>
      </trkpt>
      <trkpt lat="42.476067" lon="1.568117">
        <time>2020-08-22T13:01:22Z</time>
      </trkpt>
      <trkpt lat="42.476067" lon="1.568117">
        <time>2020-08-22T13:01:22Z</time>
      </trkpt>
      <trkpt lat="42.476082" lon="1.568112">
        <time>2020-08-22T13:01:22Z</time>
      </trkpt>
      <trkpt lat="42.476082" lon="1.568112">
        <time>2020-08-22T13:01:22Z</time>
      </trkpt>
      <trkpt lat="42.476089" lon="1.568106">
        <time>2020-08-22T13:01:22Z</time>
      </trkpt>
      <trkpt lat="42.476089" lon="1.568106">
        <time>2020-08-22T13:01:22Z</time>
      </trkpt>
      <trkpt lat="42.476101" lon="1.568101">
        <time>2020-08-22T13:01:29Z</time>
      </trkpt>
      <trkpt lat="42.476101" lon="1.568101">
        <time>2020-08-22T13:01:29Z</time>
      </trkpt>
      <trkpt lat="42.476112" lon="1.568094">
        <time>2020-08-22T13:01:29Z</time>
      </trkpt>
      <trkpt lat="42.476112" lon="1.568094">
        <time>2020-08-22T13:01:29Z</time>
      </trkpt>
      <trkpt lat="42.476124" lon="1.568088">
        <time>2020-08-22T13:01:29Z</time>
      </trkpt>
      <trkpt lat="42.476124" lon="1.568088">
        <time>2020-08-22T13:01:29Z</time>
      </trkpt>
      <trkpt lat="42.476131" lon="1.568081">
        <time>2020-08-22T13:01:29Z</time>
      </trkpt>
      <trkpt lat="42.476131" lon="1.568081">
        <time>2020-08-22T13:01:29Z</time>
      </trkpt>
      <trkpt lat="42.476143" lon="1.568074">
        <time>2020-08-22T13:01:29Z</time>
      </trkpt>
      <trkpt lat="42.476143" lon="1.568074">
        <time>2020-08-22T13:01:29Z</time>
      </trkpt>
      <trkpt lat="42.476154" lon="1.568067">
        <time>2020-08-22T13:01:29Z</time>
      </trkpt>
      <trkpt lat="42.476154" lon="1.568067">
        <time>2020-08-22T13:01:29Z</time>
      </trkpt>
      <trkpt lat="42.476162" lon="1.568059">
        <time>2020-08-22T13:01:29Z</time>
      </trkpt>
      <trkpt lat="42.476162" lon="1.568059">
        <time>2020-08-22T13:01:29Z</time>
      </trkpt>
      <trkpt lat="42.476170" lon="1.568052">
        <time>2020-08-22T13:01:37Z</time>
      </trkpt>
      <trkpt lat="42.476170" lon="1.568052">
        <time>2020-08-22T13:01:37Z</time>
      </trkpt>
      <trkpt lat="42.476181" lon="1.568044">
        <time>2020-08-22T13:01:37Z</time>
      </trkpt>
      <trkpt lat="42.476181" lon="1.568044">
        <time>2020-08-22T13:01:37Z</time>
      </trkpt>
      <trkpt lat="42.476189" lon="1.568038">
        <time>2020-08-22T13:01:37Z</time>
      </trkpt>
      <trkpt lat="42.476189" lon="1.568038">
        <time>2020-08-22T13:01:37Z</time>
      </trkpt>
      <trkpt lat="42.476200" lon="1.568031">
        <time>2020-08-22T13:01:37Z</time>
      </trkpt>
      <trkpt lat="42.476200" lon="1.568031">
        <time>2020-08-22T13:01:37Z</time>
      </trkpt>
      <trkpt lat="42.476208" lon="1.568025">
        <time>2020-08-22T13:01:37Z</time>
      </trkpt>
      <trkpt lat="42.476208" lon="1.568025">
        <time>2020-08-22T13:01:37Z</time>
      </trkpt>
      <trkpt lat="42.476219" lon="1.568019">
        <time>2020-08-22T13:01:37Z</time>
      </trkpt>
      <trkpt lat="42.476219" lon="1.568019">
        <time>2020-08-22T13:01:37Z</time>
      </trkpt>
      <trkpt lat="42.476227" lon="1.568014">
        <time>2020-08-22T13:01:44Z</time>
      </trkpt>
      <trkpt lat="42.476227" lon="1.568014">
        <time>2020-08-22T13:01:44Z</time>
      </trkpt>
      <trkpt lat="42.476234" lon="1.568009">
        <time>2020-08-22T13:01:44Z</time>
      </trkpt>
      <trkpt lat="42.476234" lon="1.568009">
        <time>2020-08-22T13:01:44Z</time>
      </trkpt>
      <trkpt lat="42.476242" lon="1.568004">
        <time>2020-08-22T13:01:44Z</time>
      </trkpt>
      <trkpt lat="42.476242" lon="1.568004">
        <time>2020-08-22T13:01:44Z</time>
      </trkpt>
      <trkpt lat="42.476250" lon="1.568000">
        <time>2020-08-22T13:01:44Z</time>
      </trkpt>
      <trkpt lat="42.476250" lon="1.568000">
        <time>2020-08-22T13:01:44Z</time>
      </trkpt>
      <trkpt lat="42.476257" lon="1.567996">
        <time>2020-08-22T13:01:44Z</time>
      </trkpt>
      <trkpt lat="42.476257" lon="1.567996">
        <time>2020-08-22T13:01:44Z</time>
      </trkpt>
      <trkpt lat="42.476265" lon="1.567993">
        <time>2020-08-22T13:01:44Z</time>
      </trkpt>
      <trkpt lat="42.476265" lon="1.567993">
        <time>2020-08-22T13:01:44Z</time>
      </trkpt>
      <trkpt lat="42.476276" lon="1.567991">
        <time>2020-08-22T13:01:44Z</time>
      </trkpt>
      <trkpt lat="42.476276" lon="1.567991">
        <time>2020-08-22T13:01:44Z</time>
      </trkpt>
      <trkpt lat="42.476284" lon="1.567990">
        <time>2020-08-22T13:01:51Z</time>
      </trkpt>
      <trkpt lat="42.476284" lon="1.567990">
        <time>2020-08-22T13:01:51Z</time>
      </trkpt>
      <trkpt lat="42.476292" lon="1.567991">
        <time>2020-08-22T13:01:51Z</time>
      </trkpt>
      <trkpt lat="42.476292" lon="1.567991">
        <time>2020-08-22T13:01:51Z</time>
      </trkpt>
      <trkpt lat="42.476299" lon="1.567992">
        <time>2020-08-22T13:01:51Z</time>
      </trkpt>
      <trkpt lat="42.476299" lon="1.567992">
        <time>2020-08-22T13:01:51Z</time>
      </trkpt>
      <trkpt lat="42.476307" lon="1.567995">
        <time>2020-08-22T13:01:51Z</time>
      </trkpt>
      <trkpt lat="42.476307" lon="1.567995">
        <time>2020-08-22T13:01:51Z</time>
      </trkpt>
      <trkpt lat="42.476318" lon="1.568020">
        <time>2020-08-22T13:01:51Z</time>
      </trkpt>
      <trkpt lat="42.476318" lon="1.568020">
        <time>2020-08-22T13:01:51Z</time>
      </trkpt>
      <trkpt lat="42.476330" lon="1.568046">
        <time>2020-08-22T13:01:51Z</time>
      </trkpt>
      <trkpt lat="42.476330" lon="1.568046">
        <time>2020-08-22T13:01:51Z</time>
      </trkpt>
      <trkpt lat="42.476345" lon="1.568074">
        <time>2020-08-22T13:01:58Z</time>
      </trkpt>
      <trkpt lat="42.476345" lon="1.568074">
        <time>2020-08-22T13:01:58Z</time>
      </trkpt>
      <trkpt lat="42.476356" lon="1.568102">
        <time>2020-08-22T13:01:58Z</time>
      </trkpt>
      <trkpt lat="42.476356" lon="1.568102">
        <time>2020-08-22T13:01:58Z</time>
      </trkpt>
      <trkpt lat="42.476368" lon="1.568130">
        <time>2020-08-22T13:01:58Z</time>
      </trkpt>
      <trkpt lat="42.476368" lon="1.568130">
        <time>2020-08-22T13:01:58Z</time>
      </trkpt>
      <trkpt lat="42.476383" lon="1.568158">
        <time>2020-08-22T13:01:58Z</time>
      </trkpt>
      <trkpt lat="42.476383" lon="1.568158">
        <time>2020-08-22T13:01:58Z</time>
      </trkpt>
      <trkpt lat="42.476395" lon="1.568186">
        <time>2020-08-22T13:01:58Z</time>
      </trkpt>
      <trkpt lat="42.476395" lon="1.568186">
        <time>2020-08-22T13:01:58Z</time>
      </trkpt>
      <trkpt lat="42.476406" lon="1.568214">
        <time>2020-08-22T13:01:58Z</time>
      </trkpt>
      <trkpt lat="42.476406" lon="1.568214">
        <time>2020-08-22T13:01:58Z</time>
      </trkpt>
      <trkpt lat="42.476418" lon="1.568242">
        <time>2020-08-22T13:01:58Z</time>
      </trkpt>
      <trkpt lat="42.476418" lon="1.568242">
        <time>2020-08-22T13:01:58Z</time>
      </trkpt>
      <trkpt lat="42.476429" lon="1.568271">
        <time>2020-08-22T13:01:58Z</time>
      </trkpt>
      <trkpt lat="42.476429" lon="1.568271">
        <time>2020-08-22T13:01:58Z</time>
      </trkpt>
      <trkpt lat="42.476433" lon="1.568280">
        <time>2020-08-22T13:01:58Z</time>
      </trkpt>
      <trkpt lat="42.476433" lon="1.568280">
        <time>2020-08-22T13:01:58Z</time>
      </trkpt>
      <trkpt lat="42.476437" lon="1.568288">
        <time>2020-08-22T13:01:58Z</time>
      </trkpt>
      <trkpt lat="42.476437" lon="1.568288">
        <time>2020-08-22T13:01:58Z</time>
      </trkpt>
      <trkpt lat="42.476437" lon="1.568297">
        <time>2020-08-22T13:01:58Z</time>
      </trkpt>
      <trkpt lat="42.476437" lon="1.568297">
        <time>2020-08-22T13:01:58Z</time>
      </trkpt>
      <trkpt lat="42.476437" lon="1.568306">
        <time>2020-08-22T13:01:58Z</time>
      </trkpt>
      <trkpt lat="42.476437" lon="1.568306">
        <time>2020-08-22T13:01:58Z</time>
      </trkpt>
      <trkpt lat="42.476437" lon="1.568316">
        <time>2020-08-22T13:01:58Z</time>
      </trkpt>
      <trkpt lat="42.476437" lon="1.568316">
        <time>2020-08-22T13:01:58Z</time>
      </trkpt>
      <trkpt lat="42.476433" lon="1.568327">
        <time>2020-08-22T13:02:05Z</time>
      </trkpt>
      <trkpt lat="42.476433" lon="1.568327">
        <time>2020-08-22T13:02:05Z</time>
      </trkpt>
      <trkpt lat="42.476433" lon="1.568338">
        <time>2020-08-22T13:02:05Z</time>
      </trkpt>
      <trkpt lat="42.476433" lon="1.568338">
        <time>2020-08-22T13:02:05Z</time>
      </trkpt>
      <trkpt lat="42.476433" lon="1.568350">
        <time>2020-08-22T13:02:05Z</time>
      </trkpt>
      <trkpt lat="42.476433" lon="1.568350">
        <time>2020-08-22T13:02:05Z</time>
      </trkpt>
      <trkpt lat="42.476429" lon="1.568362">
        <time>2020-08-22T13:02:05Z</time>
      </trkpt>
      <trkpt lat="42.476429" lon="1.568362">
        <time>2020-08-22T13:02:05Z</time>
      </trkpt>
      <trkpt lat="42.476425" lon="1.568373">
        <time>2020-08-22T13:02:05Z</time>
      </trkpt>
      <trkpt lat="42.476425" lon="1.568373">
        <time>2020-08-22T13:02:05Z</time>
      </trkpt>
      <trkpt lat="42.476429" lon="1.568383">
        <time>2020-08-22T13:02:05Z</time>
      </trkpt>
      <trkpt lat="42.476429" lon="1.568383">
        <time>2020-08-22T13:02:05Z</time>
      </trkpt>
      <trkpt lat="42.476429" lon="1.568392">
        <time>2020-08-22T13:02:05Z</time>
      </trkpt>
      <trkpt lat="42.476429" lon="1.568392">
        <time>2020-08-22T13:02:05Z</time>
      </trkpt>
      <trkpt lat="42.476433" lon="1.568401">
        <time>2020-08-22T13:02:05Z</time>
      </trkpt>
      <trkpt lat="42.476433" lon="1.568401">
        <time>2020-08-22T13:02:05Z</time>
      </trkpt>
      <trkpt lat="42.476437" lon="1.568408">
        <time>2020-08-22T13:02:05Z</time>
      </trkpt>
      <trkpt lat="42.476437" lon="1.568408">
        <time>2020-08-22T13:02:05Z</time>
      </trkpt>
      <trkpt lat="42.476444" lon="1.568413">
        <time>2020-08-22T13:02:13Z</time>
      </trkpt>
      <trkpt lat="42.476444" lon="1.568413">
        <time>2020-08-22T13:02:13Z</time>
      </trkpt>
      <trkpt lat="42.476452" lon="1.568417">
        <time>2020-08-22T13:02:13Z</time>
      </trkpt>
      <trkpt lat="42.476452" lon="1.568417">
        <time>2020-08-22T13:02:13Z</time>
      </trkpt>
      <trkpt lat="42.476456" lon="1.568420">
        <time>2020-08-22T13:02:13Z</time>
      </trkpt>
      <trkpt lat="42.476456" lon="1.568420">
        <time>2020-08-22T13:02:13Z</time>
      </trkpt>
      <trkpt lat="42.476463" lon="1.568420">
        <time>2020-08-22T13:02:13Z</time>
      </trkpt>
      <trkpt lat="42.476463" lon="1.568420">
        <time>2020-08-22T13:02:13Z</time>
      </trkpt>
      <trkpt lat="42.476475" lon="1.568419">
        <time>2020-08-22T13:02:13Z</time>
      </trkpt>
      <trkpt lat="42.476475" lon="1.568419">
        <time>2020-08-22T13:02:13Z</time>
      </trkpt>
      <trkpt lat="42.476482" lon="1.568418">
        <time>2020-08-22T13:02:13Z</time>
      </trkpt>
      <trkpt lat="42.476482" lon="1.568418">
        <time>2020-08-22T13:02:13Z</time>
      </trkpt>
      <trkpt lat="42.476490" lon="1.568416">
        <time>2020-08-22T13:02:20Z</time>
      </trkpt>
      <trkpt lat="42.476490" lon="1.568416">
        <time>2020-08-22T13:02:20Z</time>
      </trkpt>
      <trkpt lat="42.476498" lon="1.568413">
        <time>2020-08-22T13:02:20Z</time>
      </trkpt>
      <trkpt lat="42.476498" lon="1.568413">
        <time>2020-08-22T13:02:20Z</time>
      </trkpt>
      <trkpt lat="42.476505" lon="1.568411">
        <time>2020-08-22T13:02:20Z</time>
      </trkpt>
      <trkpt lat="42.476505" lon="1.568411">
        <time>2020-08-22T13:02:20Z</time>
      </trkpt>
      <trkpt lat="42.476513" lon="1.568410">
        <time>2020-08-22T13:02:20Z</time>
      </trkpt>
      <trkpt lat="42.476513" lon="1.568410">
        <time>2020-08-22T13:02:20Z</time>
      </trkpt>
      <trkpt lat="42.476521" lon="1.568409">
        <time>2020-08-22T13:02:20Z</time>
      </trkpt>
      <trkpt lat="42.476521" lon="1.568409">
        <time>2020-08-22T13:02:20Z</time>
      </trkpt>
      <trkpt lat="42.476528" lon="1.568409">
        <time>2020-08-22T13:02:20Z</time>
      </trkpt>
      <trkpt lat="42.476528" lon="1.568409">
        <time>2020-08-22T13:02:20Z</time>
      </trkpt>
      <trkpt lat="42.476532" lon="1.568409">
        <time>2020-08-22T13:02:20Z</time>
      </trkpt>
      <trkpt lat="42.476532" lon="1.568409">
        <time>2020-08-22T13:02:20Z</time>
      </trkpt>
      <trkpt lat="42.476540" lon="1.568411">
        <time>2020-08-22T13:02:27Z</time>
      </trkpt>
      <trkpt lat="42.476540" lon="1.568411">
        <time>2020-08-22T13:02:27Z</time>
      </trkpt>
      <trkpt lat="42.476543" lon="1.568413">
        <time>2020-08-22T13:02:27Z</time>
      </trkpt>
      <trkpt lat="42.476543" lon="1.568413">
        <time>2020-08-22T13:02:27Z</time>
      </trkpt>
      <trkpt lat="42.476551" lon="1.568416">
        <time>2020-08-22T13:02:27Z</time>
      </trkpt>
      <trkpt lat="42.476551" lon="1.568416">
        <time>2020-08-22T13:02:27Z</time>
      </trkpt>
      <trkpt lat="42.476559" lon="1.568425">
        <time>2020-08-22T13:02:27Z</time>
      </trkpt>
      <trkpt lat="42.476559" lon="1.568425">
        <time>2020-08-22T13:02:27Z</time>
      </trkpt>
      <trkpt lat="42.476566" lon="1.568435">
        <time>2020-08-22T13:02:34Z</time>
      </trkpt>
      <trkpt lat="42.476566" lon="1.568435">
        <time>2020-08-22T13:02:34Z</time>
      </trkpt>
      <trkpt lat="42.476574" lon="1.568447">
        <time>2020-08-22T13:02:34Z</time>
      </trkpt>
      <trkpt lat="42.476574" lon="1.568447">
        <time>2020-08-22T13:02:34Z</time>
      </trkpt>
      <trkpt lat="42.476578" lon="1.568459">
        <time>2020-08-22T13:02:34Z</time>
      </trkpt>
      <trkpt lat="42.476578" lon="1.568459">
        <time>2020-08-22T13:02:34Z</time>
      </trkpt>
      <trkpt lat="42.476585" lon="1.568473">
        <time>2020-08-22T13:02:34Z</time>
      </trkpt>
      <trkpt lat="42.476585" lon="1.568473">
        <time>2020-08-22T13:02:34Z</time>
      </trkpt>
      <trkpt lat="42.476589" lon="1.568486">
        <time>2020-08-22T13:02:34Z</time>
      </trkpt>
      <trkpt lat="42.476589" lon="1.568486">
        <time>2020-08-22T13:02:34Z</time>
      </trkpt>
      <trkpt lat="42.476593" lon="1.568500">
        <time>2020-08-22T13:02:34Z</time>
      </trkpt>
      <trkpt lat="42.476593" lon="1.568500">
        <time>2020-08-22T13:02:34Z</time>
      </trkpt>
      <trkpt lat="42.476597" lon="1.568516">
        <time>2020-08-22T13:02:34Z</time>
      </trkpt>
      <trkpt lat="42.476597" lon="1.568516">
        <time>2020-08-22T13:02:34Z</time>
      </trkpt>
      <trkpt lat="42.476604" lon="1.568532">
        <time>2020-08-22T13:02:41Z</time>
      </trkpt>
      <trkpt lat="42.476604" lon="1.568532">
        <time>2020-08-22T13:02:41Z</time>
      </trkpt>
      <trkpt lat="42.476604" lon="1.568550">
        <time>2020-08-22T13:02:41Z</time>
      </trkpt>
      <trkpt lat="42.476604" lon="1.568550">
        <time>2020-08-22T13:02:41Z</time>
      </trkpt>
      <trkpt lat="42.476604" lon="1.568562">
        <time>2020-08-22T13:02:41Z</time>
      </trkpt>
      <trkpt lat="42.476604" lon="1.568562">
        <time>2020-08-22T13:02:41Z</time>
      </trkpt>
      <trkpt lat="42.476604" lon="1.568575">
        <time>2020-08-22T13:02:41Z</time>
      </trkpt>
      <trkpt lat="42.476604" lon="1.568575">
        <time>2020-08-22T13:02:41Z</time>
      </trkpt>
      <trkpt lat="42.476604" lon="1.568588">
        <time>2020-08-22T13:02:41Z</time>
      </trkpt>
      <trkpt lat="42.476604" lon="1.568588">
        <time>2020-08-22T13:02:41Z</time>
      </trkpt>
      <trkpt lat="42.476604" lon="1.568602">
        <time>2020-08-22T13:02:41Z</time>
      </trkpt>
      <trkpt lat="42.476604" lon="1.568602">
        <time>2020-08-22T13:02:41Z</time>
      </trkpt>
      <trkpt lat="42.476604" lon="1.568616">
        <time>2020-08-22T13:02:41Z</time>
      </trkpt>
      <trkpt lat="42.476604" lon="1.568616">
        <time>2020-08-22T13:02:41Z</time>
      </trkpt>
      <trkpt lat="42.476604" lon="1.568630">
        <time>2020-08-22T13:02:48Z</time>
      </trkpt>
      <trkpt lat="42.476604" lon="1.568630">
        <time>2020-08-22T13:02:48Z</time>
      </trkpt>
      <trkpt lat="42.476601" lon="1.568645">
        <time>2020-08-22T13:02:48Z</time>
      </trkpt>
      <trkpt lat="42.476601" lon="1.568645">
        <time>2020-08-22T13:02:48Z</time>
      </trkpt>
      <trkpt lat="42.476597" lon="1.568661">
        <time>2020-08-22T13:02:48Z</time>
      </trkpt>
      <trkpt lat="42.476597" lon="1.568661">
        <time>2020-08-22T13:02:48Z</time>
      </trkpt>
      <trkpt lat="42.476593" lon="1.568677">
        <time>2020-08-22T13:02:48Z</time>
      </trkpt>
      <trkpt lat="42.476593" lon="1.568677">
        <time>2020-08-22T13:02:48Z</time>
      </trkpt>
      <trkpt lat="42.476593" lon="1.568692">
        <time>2020-08-22T13:02:48Z</time>
      </trkpt>
      <trkpt lat="42.476593" lon="1.568692">
        <time>2020-08-22T13:02:48Z</time>
      </trkpt>
      <trkpt lat="42.476589" lon="1.568708">
        <time>2020-08-22T13:02:48Z</time>
      </trkpt>
      <trkpt lat="42.476589" lon="1.568708">
        <time>2020-08-22T13:02:48Z</time>
      </trkpt>
      <trkpt lat="42.476585" lon="1.568724">
        <time>2020-08-22T13:02:48Z</time>
      </trkpt>
      <trkpt lat="42.476585" lon="1.568724">
        <time>2020-08-22T13:02:48Z</time>
      </trkpt>
      <trkpt lat="42.476582" lon="1.568740">
        <time>2020-08-22T13:02:55Z</time>
      </trkpt>
      <trkpt lat="42.476582" lon="1.568740">
        <time>2020-08-22T13:02:55Z</time>
      </trkpt>
      <trkpt lat="42.476578" lon="1.568756">
        <time>2020-08-22T13:02:55Z</time>
      </trkpt>
      <trkpt lat="42.476578" lon="1.568756">
        <time>2020-08-22T13:02:55Z</time>
      </trkpt>
      <trkpt lat="42.476570" lon="1.568773">
        <time>2020-08-22T13:02:55Z</time>
      </trkpt>
      <trkpt lat="42.476570" lon="1.568773">
        <time>2020-08-22T13:02:55Z</time>
      </trkpt>
      <trkpt lat="42.476566" lon="1.568789">
        <time>2020-08-22T13:02:55Z</time>
      </trkpt>
      <trkpt lat="42.476566" lon="1.568789">
        <time>2020-08-22T13:02:55Z</time>
      </trkpt>
      <trkpt lat="42.476559" lon="1.568805">
        <time>2020-08-22T13:02:55Z</time>
      </trkpt>
      <trkpt lat="42.476559" lon="1.568805">
        <time>2020-08-22T13:02:55Z</time>
      </trkpt>
      <trkpt lat="42.476555" lon="1.568821">
        <time>2020-08-22T13:02:55Z</time>
      </trkpt>
      <trkpt lat="42.476555" lon="1.568821">
        <time>2020-08-22T13:02:55Z</time>
      </trkpt>
      <trkpt lat="42.476551" lon="1.568836">
        <time>2020-08-22T13:02:55Z</time>
      </trkpt>
      <trkpt lat="42.476551" lon="1.568836">
        <time>2020-08-22T13:02:55Z</time>
      </trkpt>
      <trkpt lat="42.476543" lon="1.568851">
        <time>2020-08-22T13:03:02Z</time>
      </trkpt>
      <trkpt lat="42.476543" lon="1.568851">
        <time>2020-08-22T13:03:02Z</time>
      </trkpt>
      <trkpt lat="42.476540" lon="1.568866">
        <time>2020-08-22T13:03:02Z</time>
      </trkpt>
      <trkpt lat="42.476540" lon="1.568866">
        <time>2020-08-22T13:03:02Z</time>
      </trkpt>
      <trkpt lat="42.476536" lon="1.568880">
        <time>2020-08-22T13:03:02Z</time>
      </trkpt>
      <trkpt lat="42.476536" lon="1.568880">
        <time>2020-08-22T13:03:02Z</time>
      </trkpt>
      <trkpt lat="42.476532" lon="1.568894">
        <time>2020-08-22T13:03:02Z</time>
      </trkpt>
      <trkpt lat="42.476532" lon="1.568894">
        <time>2020-08-22T13:03:02Z</time>
      </trkpt>
      <trkpt lat="42.476528" lon="1.568908">
        <time>2020-08-22T13:03:02Z</time>
      </trkpt>
      <trkpt lat="42.476528" lon="1.568908">
        <time>2020-08-22T13:03:02Z</time>
      </trkpt>
      <trkpt lat="42.476524" lon="1.568921">
        <time>2020-08-22T13:03:02Z</time>
      </trkpt>
      <trkpt lat="42.476524" lon="1.568921">
        <time>2020-08-22T13:03:02Z</time>
      </trkpt>
      <trkpt lat="42.476524" lon="1.568934">
        <time>2020-08-22T13:03:02Z</time>
      </trkpt>
      <trkpt lat="42.476524" lon="1.568934">
        <time>2020-08-22T13:03:02Z</time>
      </trkpt>
      <trkpt lat="42.476521" lon="1.568948">
        <time>2020-08-22T13:03:09Z</time>
      </trkpt>
      <trkpt lat="42.476521" lon="1.568948">
        <time>2020-08-22T13:03:09Z</time>
      </trkpt>
      <trkpt lat="42.476517" lon="1.568962">
        <time>2020-08-22T13:03:09Z</time>
      </trkpt>
      <trkpt lat="42.476517" lon="1.568962">
        <time>2020-08-22T13:03:09Z</time>
      </trkpt>
      <trkpt lat="42.476517" lon="1.568977">
        <time>2020-08-22T13:03:09Z</time>
      </trkpt>
      <trkpt lat="42.476517" lon="1.568977">
        <time>2020-08-22T13:03:09Z</time>
      </trkpt>
      <trkpt lat="42.476513" lon="1.568991">
        <time>2020-08-22T13:03:09Z</time>
      </trkpt>
      <trkpt lat="42.476513" lon="1.568991">
        <time>2020-08-22T13:03:09Z</time>
      </trkpt>
      <trkpt lat="42.476513" lon="1.569006">
        <time>2020-08-22T13:03:09Z</time>
      </trkpt>
      <trkpt lat="42.476513" lon="1.569006">
        <time>2020-08-22T13:03:09Z</time>
      </trkpt>
      <trkpt lat="42.476513" lon="1.569022">
        <time>2020-08-22T13:03:09Z</time>
      </trkpt>
      <trkpt lat="42.476513" lon="1.569022">
        <time>2020-08-22T13:03:09Z</time>
      </trkpt>
      <trkpt lat="42.476513" lon="1.569037">
        <time>2020-08-22T13:03:09Z</time>
      </trkpt>
      <trkpt lat="42.476513" lon="1.569037">
        <time>2020-08-22T13:03:09Z</time>
      </trkpt>
      <trkpt lat="42.476517" lon="1.569052">
        <time>2020-08-22T13:03:16Z</time>
      </trkpt>
      <trkpt lat="42.476517" lon="1.569052">
        <time>2020-08-22T13:03:16Z</time>
      </trkpt>
      <trkpt lat="42.476521" lon="1.569066">
        <time>2020-08-22T13:03:16Z</time>
      </trkpt>
      <trkpt lat="42.476521" lon="1.569066">
        <time>2020-08-22T13:03:16Z</time>
      </trkpt>
      <trkpt lat="42.476524" lon="1.569080">
        <time>2020-08-22T13:03:16Z</time>
      </trkpt>
      <trkpt lat="42.476524" lon="1.569080">
        <time>2020-08-22T13:03:16Z</time>
      </trkpt>
      <trkpt lat="42.476528" lon="1.569093">
        <time>2020-08-22T13:03:16Z</time>
      </trkpt>
      <trkpt lat="42.476528" lon="1.569093">
        <time>2020-08-22T13:03:16Z</time>
      </trkpt>
      <trkpt lat="42.476532" lon="1.569105">
        <time>2020-08-22T13:03:16Z</time>
      </trkpt>
      <trkpt lat="42.476532" lon="1.569105">
        <time>2020-08-22T13:03:16Z</time>
      </trkpt>
      <trkpt lat="42.476540" lon="1.569117">
        <time>2020-08-22T13:03:16Z</time>
      </trkpt>
      <trkpt lat="42.476540" lon="1.569117">
        <time>2020-08-22T13:03:16Z</time>
      </trkpt>
      <trkpt lat="42.476543" lon="1.569129">
        <time>2020-08-22T13:03:16Z</time>
      </trkpt>
      <trkpt lat="42.476543" lon="1.569129">
        <time>2020-08-22T13:03:16Z</time>
      </trkpt>
      <trkpt lat="42.476551" lon="1.569140">
        <time>2020-08-22T13:03:23Z</time>
      </trkpt>
      <trkpt lat="42.476551" lon="1.569140">
        <time>2020-08-22T13:03:23Z</time>
      </trkpt>
      <trkpt lat="42.476555" lon="1.569152">
        <time>2020-08-22T13:03:23Z</time>
      </trkpt>
      <trkpt lat="42.476555" lon="1.569152">
        <time>2020-08-22T13:03:23Z</time>
      </trkpt>
      <trkpt lat="42.476559" lon="1.569163">
        <time>2020-08-22T13:03:23Z</time>
      </trkpt>
      <trkpt lat="42.476559" lon="1.569163">
        <time>2020-08-22T13:03:23Z</time>
      </trkpt>
      <trkpt lat="42.476559" lon="1.569175">
        <time>2020-08-22T13:03:23Z</time>
      </trkpt>
      <trkpt lat="42.476559" lon="1.569175">
        <time>2020-08-22T13:03:23Z</time>
      </trkpt>
      <trkpt lat="42.476562" lon="1.569188">
        <time>2020-08-22T13:03:23Z</time>
      </trkpt>
      <trkpt lat="42.476562" lon="1.569188">
        <time>2020-08-22T13:03:23Z</time>
      </trkpt>
      <trkpt lat="42.476562" lon="1.569202">
        <time>2020-08-22T13:03:23Z</time>
      </trkpt>
      <trkpt lat="42.476562" lon="1.569202">
        <time>2020-08-22T13:03:23Z</time>
      </trkpt>
      <trkpt lat="42.476562" lon="1.569216">
        <time>2020-08-22T13:03:23Z</time>
      </trkpt>
      <trkpt lat="42.476562" lon="1.569216">
        <time>2020-08-22T13:03:23Z</time>
      </trkpt>
      <trkpt lat="42.476559" lon="1.569230">
        <time>2020-08-22T13:03:30Z</time>
      </trkpt>
      <trkpt lat="42.476559" lon="1.569230">
        <time>2020-08-22T13:03:30Z</time>
      </trkpt>
      <trkpt lat="42.476559" lon="1.569245">
        <time>2020-08-22T13:03:30Z</time>
      </trkpt>
      <trkpt lat="42.476559" lon="1.569245">
        <time>2020-08-22T13:03:30Z</time>
      </trkpt>
      <trkpt lat="42.476555" lon="1.569259">
        <time>2020-08-22T13:03:30Z</time>
      </trkpt>
      <trkpt lat="42.476555" lon="1.569259">
        <time>2020-08-22T13:03:30Z</time>
      </trkpt>
      <trkpt lat="42.476551" lon="1.569274">
        <time>2020-08-22T13:03:30Z</time>
      </trkpt>
      <trkpt lat="42.476551" lon="1.569274">
        <time>2020-08-22T13:03:30Z</time>
      </trkpt>
      <trkpt lat="42.476547" lon="1.569288">
        <time>2020-08-22T13:03:30Z</time>
      </trkpt>
      <trkpt lat="42.476547" lon="1.569288">
        <time>2020-08-22T13:03:30Z</time>
      </trkpt>
      <trkpt lat="42.476540" lon="1.569303">
        <time>2020-08-22T13:03:30Z</time>
      </trkpt>
      <trkpt lat="42.476540" lon="1.569303">
        <time>2020-08-22T13:03:30Z</time>
      </trkpt>
      <trkpt lat="42.476536" lon="1.569317">
        <time>2020-08-22T13:03:30Z</time>
      </trkpt>
      <trkpt lat="42.476536" lon="1.569317">
        <time>2020-08-22T13:03:30Z</time>
      </trkpt>
      <trkpt lat="42.476532" lon="1.569330">
        <time>2020-08-22T13:03:37Z</time>
      </trkpt>
      <trkpt lat="42.476532" lon="1.569330">
        <time>2020-08-22T13:03:37Z</time>
      </trkpt>
      <trkpt lat="42.476524" lon="1.569343">
        <time>2020-08-22T13:03:37Z</time>
      </trkpt>
      <trkpt lat="42.476524" lon="1.569343">
        <time>2020-08-22T13:03:37Z</time>
      </trkpt>
      <trkpt lat="42.476517" lon="1.569355">
        <time>2020-08-22T13:03:37Z</time>
      </trkpt>
      <trkpt lat="42.476517" lon="1.569355">
        <time>2020-08-22T13:03:37Z</time>
      </trkpt>
      <trkpt lat="42.476513" lon="1.569368">
        <time>2020-08-22T13:03:37Z</time>
      </trkpt>
      <trkpt lat="42.476513" lon="1.569368">
        <time>2020-08-22T13:03:37Z</time>
      </trkpt>
      <trkpt lat="42.476505" lon="1.569380">
        <time>2020-08-22T13:03:37Z</time>
      </trkpt>
      <trkpt lat="42.476505" lon="1.569380">
        <time>2020-08-22T13:03:37Z</time>
      </trkpt>
      <trkpt lat="42.476501" lon="1.569392">
        <time>2020-08-22T13:03:37Z</time>
      </trkpt>
      <trkpt lat="42.476501" lon="1.569392">
        <time>2020-08-22T13:03:37Z</time>
      </trkpt>
      <trkpt lat="42.476498" lon="1.569404">
        <time>2020-08-22T13:03:37Z</time>
      </trkpt>
      <trkpt lat="42.476498" lon="1.569404">
        <time>2020-08-22T13:03:37Z</time>
      </trkpt>
      <trkpt lat="42.476486" lon="1.569416">
        <time>2020-08-22T13:03:44Z</time>
      </trkpt>
      <trkpt lat="42.476486" lon="1.569416">
        <time>2020-08-22T13:03:44Z</time>
      </trkpt>
      <trkpt lat="42.476479" lon="1.569428">
        <time>2020-08-22T13:03:44Z</time>
      </trkpt>
      <trkpt lat="42.476479" lon="1.569428">
        <time>2020-08-22T13:03:44Z</time>
      </trkpt>
      <trkpt lat="42.476471" lon="1.569439">
        <time>2020-08-22T13:03:44Z</time>
      </trkpt>
      <trkpt lat="42.476471" lon="1.569439">
        <time>2020-08-22T13:03:44Z</time>
      </trkpt>
      <trkpt lat="42.476463" lon="1.569449">
        <time>2020-08-22T13:03:44Z</time>
      </trkpt>
      <trkpt lat="42.476463" lon="1.569449">
        <time>2020-08-22T13:03:44Z</time>
      </trkpt>
      <trkpt lat="42.476456" lon="1.569460">
        <time>2020-08-22T13:03:44Z</time>
      </trkpt>
      <trkpt lat="42.476456" lon="1.569460">
        <time>2020-08-22T13:03:44Z</time>
      </trkpt>
      <trkpt lat="42.476448" lon="1.569470">
        <time>2020-08-22T13:03:44Z</time>
      </trkpt>
      <trkpt lat="42.476448" lon="1.569470">
        <time>2020-08-22T13:03:44Z</time>
      </trkpt>
      <trkpt lat="42.476437" lon="1.569480">
        <time>2020-08-22T13:03:44Z</time>
      </trkpt>
      <trkpt lat="42.476437" lon="1.569480">
        <time>2020-08-22T13:03:44Z</time>
      </trkpt>
      <trkpt lat="42.476429" lon="1.569490">
        <time>2020-08-22T13:03:51Z</time>
      </trkpt>
      <trkpt lat="42.476429" lon="1.569490">
        <time>2020-08-22T13:03:51Z</time>
      </trkpt>
      <trkpt lat="42.476421" lon="1.569499">
        <time>2020-08-22T13:03:51Z</time>
      </trkpt>
      <trkpt lat="42.476421" lon="1.569499">
        <time>2020-08-22T13:03:51Z</time>
      </trkpt>
      <trkpt lat="42.476410" lon="1.569508">
        <time>2020-08-22T13:03:51Z</time>
      </trkpt>
      <trkpt lat="42.476410" lon="1.569508">
        <time>2020-08-22T13:03:51Z</time>
      </trkpt>
      <trkpt lat="42.476406" lon="1.569520">
        <time>2020-08-22T13:03:51Z</time>
      </trkpt>
      <trkpt lat="42.476406" lon="1.569520">
        <time>2020-08-22T13:03:51Z</time>
      </trkpt>
      <trkpt lat="42.476398" lon="1.569532">
        <time>2020-08-22T13:03:58Z</time>
      </trkpt>
      <trkpt lat="42.476398" lon="1.569532">
        <time>2020-08-22T13:03:58Z</time>
      </trkpt>
      <trkpt lat="42.476395" lon="1.569544">
        <time>2020-08-22T13:03:58Z</time>
      </trkpt>
      <trkpt lat="42.476395" lon="1.569544">
        <time>2020-08-22T13:03:58Z</time>
      </trkpt>
      <trkpt lat="42.476391" lon="1.569557">
        <time>2020-08-22T13:03:58Z</time>
      </trkpt>
      <trkpt lat="42.476391" lon="1.569557">
        <time>2020-08-22T13:03:58Z</time>
      </trkpt>
      <trkpt lat="42.476391" lon="1.569569">
        <time>2020-08-22T13:03:58Z</time>
      </trkpt>
      <trkpt lat="42.476391" lon="1.569569">
        <time>2020-08-22T13:03:58Z</time>
      </trkpt>
      <trkpt lat="42.476387" lon="1.569582">
        <time>2020-08-22T13:03:58Z</time>
      </trkpt>
      <trkpt lat="42.476387" lon="1.569582">
        <time>2020-08-22T13:03:58Z</time>
      </trkpt>
      <trkpt lat="42.476383" lon="1.569594">
        <time>2020-08-22T13:03:58Z</time>
      </trkpt>
      <trkpt lat="42.476383" lon="1.569594">
        <time>2020-08-22T13:03:58Z</time>
      </trkpt>
      <trkpt lat="42.476383" lon="1.569607">
        <time>2020-08-22T13:04:05Z</time>
      </trkpt>
      <trkpt lat="42.476383" lon="1.569607">
        <time>2020-08-22T13:04:05Z</time>
      </trkpt>
      <trkpt lat="42.476383" lon="1.569619">
        <time>2020-08-22T13:04:05Z</time>
      </trkpt>
      <trkpt lat="42.476383" lon="1.569619">
        <time>2020-08-22T13:04:05Z</time>
      </trkpt>
      <trkpt lat="42.476383" lon="1.569640">
        <time>2020-08-22T13:04:05Z</time>
      </trkpt>
      <trkpt lat="42.476383" lon="1.569640">
        <time>2020-08-22T13:04:05Z</time>
      </trkpt>
      <trkpt lat="42.476391" lon="1.569658">
        <time>2020-08-22T13:04:05Z</time>
      </trkpt>
      <trkpt lat="42.476391" lon="1.569658">
        <time>2020-08-22T13:04:05Z</time>
      </trkpt>
      <trkpt lat="42.476391" lon="1.569674">
        <time>2020-08-22T13:04:13Z</time>
      </trkpt>
      <trkpt lat="42.476391" lon="1.569674">
        <time>2020-08-22T13:04:13Z</time>
      </trkpt>
      <trkpt lat="42.476395" lon="1.569690">
        <time>2020-08-22T13:04:13Z</time>
      </trkpt>
      <trkpt lat="42.476395" lon="1.569690">
        <time>2020-08-22T13:04:13Z</time>
      </trkpt>
      <trkpt lat="42.476398" lon="1.569704">
        <time>2020-08-22T13:04:13Z</time>
      </trkpt>
      <trkpt lat="42.476398" lon="1.569704">
        <time>2020-08-22T13:04:13Z</time>
      </trkpt>
      <trkpt lat="42.476402" lon="1.569718">
        <time>2020-08-22T13:04:13Z</time>
      </trkpt>
      <trkpt lat="42.476402" lon="1.569718">
        <time>2020-08-22T13:04:13Z</time>
      </trkpt>
      <trkpt lat="42.476406" lon="1.569730">
        <time>2020-08-22T13:04:13Z</time>
      </trkpt>
      <trkpt lat="42.476406" lon="1.569730">
        <time>2020-08-22T13:04:13Z</time>
      </trkpt>
      <trkpt lat="42.476418" lon="1.569741">
        <time>2020-08-22T13:04:13Z</time>
      </trkpt>
      <trkpt lat="42.476418" lon="1.569741">
        <time>2020-08-22T13:04:13Z</time>
      </trkpt>
      <trkpt lat="42.476421" lon="1.569751">
        <time>2020-08-22T13:04:13Z</time>
      </trkpt>
      <trkpt lat="42.476421" lon="1.569751">
        <time>2020-08-22T13:04:13Z</time>
      </trkpt>
      <trkpt lat="42.476429" lon="1.569761">
        <time>2020-08-22T13:04:13Z</time>
      </trkpt>
      <trkpt lat="42.476429" lon="1.569761">
        <time>2020-08-22T13:04:13Z</time>
      </trkpt>
      <trkpt lat="42.476433" lon="1.569764">
        <time>2020-08-22T13:04:13Z</time>
      </trkpt>
      <trkpt lat="42.476433" lon="1.569764">
        <time>2020-08-22T13:04:13Z</time>
      </trkpt>
      <trkpt lat="42.476433" lon="1.569766">
        <time>2020-08-22T13:04:13Z</time>
      </trkpt>
      <trkpt lat="42.476433" lon="1.569766">
        <time>2020-08-22T13:04:13Z</time>
      </trkpt>
      <trkpt lat="42.476433" lon="1.569766">
        <time>2020-08-22T13:04:13Z</time>
      </trkpt>
      <trkpt lat="42.476433" lon="1.569766">
        <time>2020-08-22T13:04:13Z</time>
      </trkpt>
      <trkpt lat="42.476433" lon="1.569765">
        <time>2020-08-22T13:04:13Z</time>
      </trkpt>
      <trkpt lat="42.476433" lon="1.569765">
        <time>2020-08-22T13:04:13Z</time>
      </trkpt>
      <trkpt lat="42.476433" lon="1.569763">
        <time>2020-08-22T13:04:13Z</time>
      </trkpt>
      <trkpt lat="42.476433" lon="1.569763">
        <time>2020-08-22T13:04:13Z</time>
      </trkpt>
      <trkpt lat="42.476425" lon="1.569758">
        <time>2020-08-22T13:04:20Z</time>
      </trkpt>
      <trkpt lat="42.476425" lon="1.569758">
        <time>2020-08-22T13:04:20Z</time>
      </trkpt>
      <trkpt lat="42.476425" lon="1.569751">
        <time>2020-08-22T13:04:20Z</time>
      </trkpt>
      <trkpt lat="42.476425" lon="1.569751">
        <time>2020-08-22T13:04:20Z</time>
      </trkpt>
      <trkpt lat="42.476418" lon="1.569741">
        <time>2020-08-22T13:04:20Z</time>
      </trkpt>
      <trkpt lat="42.476418" lon="1.569741">
        <time>2020-08-22T13:04:20Z</time>
      </trkpt>
      <trkpt lat="42.476414" lon="1.569729">
        <time>2020-08-22T13:04:20Z</time>
      </trkpt>
      <trkpt lat="42.476414" lon="1.569729">
        <time>2020-08-22T13:04:20Z</time>
      </trkpt>
      <trkpt lat="42.476410" lon="1.569715">
        <time>2020-08-22T13:04:20Z</time>
      </trkpt>
      <trkpt lat="42.476410" lon="1.569715">
        <time>2020-08-22T13:04:20Z</time>
      </trkpt>
      <trkpt lat="42.476410" lon="1.569703">
        <time>2020-08-22T13:04:20Z</time>
      </trkpt>
      <trkpt lat="42.476410" lon="1.569703">
        <time>2020-08-22T13:04:20Z</time>
      </trkpt>
      <trkpt lat="42.476410" lon="1.569694">
        <time>2020-08-22T13:04:20Z</time>
      </trkpt>
      <trkpt lat="42.476410" lon="1.569694">
        <time>2020-08-22T13:04:20Z</time>
      </trkpt>
      <trkpt lat="42.476410" lon="1.569686">
        <time>2020-08-22T13:04:20Z</time>
      </trkpt>
      <trkpt lat="42.476410" lon="1.569686">
        <time>2020-08-22T13:04:20Z</time>
      </trkpt>
      <trkpt lat="42.476410" lon="1.569680">
        <time>2020-08-22T13:04:29Z</time>
      </trkpt>
      <trkpt lat="42.476410" lon="1.569680">
        <time>2020-08-22T13:04:29Z</time>
      </trkpt>
      <trkpt lat="42.476410" lon="1.569676">
        <time>2020-08-22T13:04:29Z</time>
      </trkpt>
      <trkpt lat="42.476410" lon="1.569676">
        <time>2020-08-22T13:04:29Z</time>
      </trkpt>
      <trkpt lat="42.476410" lon="1.569676">
        <time>2020-08-22T13:04:29Z</time>
      </trkpt>
      <trkpt lat="42.476410" lon="1.569676">
        <time>2020-08-22T13:04:29Z</time>
      </trkpt>
      <trkpt lat="42.476410" lon="1.569682">
        <time>2020-08-22T13:04:29Z</time>
      </trkpt>
      <trkpt lat="42.476410" lon="1.569682">
        <time>2020-08-22T13:04:29Z</time>
      </trkpt>
      <trkpt lat="42.476410" lon="1.569691">
        <time>2020-08-22T13:04:29Z</time>
      </trkpt>
      <trkpt lat="42.476410" lon="1.569691">
        <time>2020-08-22T13:04:29Z</time>
      </trkpt>
      <trkpt lat="42.476410" lon="1.569702">
        <time>2020-08-22T13:04:36Z</time>
      </trkpt>
      <trkpt lat="42.476410" lon="1.569702">
        <time>2020-08-22T13:04:36Z</time>
      </trkpt>
      <trkpt lat="42.476410" lon="1.569716">
        <time>2020-08-22T13:04:36Z</time>
      </trkpt>
      <trkpt lat="42.476410" lon="1.569716">
        <time>2020-08-22T13:04:36Z</time>
      </trkpt>
      <trkpt lat="42.476410" lon="1.569730">
        <time>2020-08-22T13:04:36Z</time>
      </trkpt>
      <trkpt lat="42.476410" lon="1.569730">
        <time>2020-08-22T13:04:36Z</time>
      </trkpt>
      <trkpt lat="42.476414" lon="1.569743">
        <time>2020-08-22T13:04:36Z</time>
      </trkpt>
      <trkpt lat="42.476414" lon="1.569743">
        <time>2020-08-22T13:04:36Z</time>
      </trkpt>
      <trkpt lat="42.476418" lon="1.569756">
        <time>2020-08-22T13:04:43Z</time>
      </trkpt>
      <trkpt lat="42.476418" lon="1.569756">
        <time>2020-08-22T13:04:43Z</time>
      </trkpt>
      <trkpt lat="42.476421" lon="1.569768">
        <time>2020-08-22T13:04:43Z</time>
      </trkpt>
      <trkpt lat="42.476421" lon="1.569768">
        <time>2020-08-22T13:04:43Z</time>
      </trkpt>
      <trkpt lat="42.476429" lon="1.569780">
        <time>2020-08-22T13:04:43Z</time>
      </trkpt>
      <trkpt lat="42.476429" lon="1.569780">
        <time>2020-08-22T13:04:43Z</time>
      </trkpt>
      <trkpt lat="42.476440" lon="1.569790">
        <time>2020-08-22T13:04:43Z</time>
      </trkpt>
      <trkpt lat="42.476440" lon="1.569790">
        <time>2020-08-22T13:04:43Z</time>
      </trkpt>
      <trkpt lat="42.476452" lon="1.569800">
        <time>2020-08-22T13:04:43Z</time>
      </trkpt>
      <trkpt lat="42.476452" lon="1.569800">
        <time>2020-08-22T13:04:43Z</time>
      </trkpt>
      <trkpt lat="42.476463" lon="1.569809">
        <time>2020-08-22T13:04:43Z</time>
      </trkpt>
      <trkpt lat="42.476463" lon="1.569809">
        <time>2020-08-22T13:04:43Z</time>
      </trkpt>
      <trkpt lat="42.476479" lon="1.569819">
        <time>2020-08-22T13:04:43Z</time>
      </trkpt>
      <trkpt lat="42.476479" lon="1.569819">
        <time>2020-08-22T13:04:43Z</time>
      </trkpt>
      <trkpt lat="42.476498" lon="1.569829">
        <time>2020-08-22T13:04:50Z</time>
      </trkpt>
      <trkpt lat="42.476498" lon="1.569829">
        <time>2020-08-22T13:04:50Z</time>
      </trkpt>
      <trkpt lat="42.476513" lon="1.569835">
        <time>2020-08-22T13:04:50Z</time>
      </trkpt>
      <trkpt lat="42.476513" lon="1.569835">
        <time>2020-08-22T13:04:50Z</time>
      </trkpt>
      <trkpt lat="42.476528" lon="1.569840">
        <time>2020-08-22T13:04:57Z</time>
      </trkpt>
      <trkpt lat="42.476528" lon="1.569840">
        <time>2020-08-22T13:04:57Z</time>
      </trkpt>
      <trkpt lat="42.476540" lon="1.569845">
        <time>2020-08-22T13:04:57Z</time>
      </trkpt>
      <trkpt lat="42.476540" lon="1.569845">
        <time>2020-08-22T13:04:57Z</time>
      </trkpt>
      <trkpt lat="42.476559" lon="1.569849">
        <time>2020-08-22T13:04:57Z</time>
      </trkpt>
      <trkpt lat="42.476559" lon="1.569849">
        <time>2020-08-22T13:04:57Z</time>
      </trkpt>
      <trkpt lat="42.476570" lon="1.569852">
        <time>2020-08-22T13:04:57Z</time>
      </trkpt>
      <trkpt lat="42.476570" lon="1.569852">
        <time>2020-08-22T13:04:57Z</time>
      </trkpt>
      <trkpt lat="42.476585" lon="1.569855">
        <time>2020-08-22T13:04:57Z</time>
      </trkpt>
      <trkpt lat="42.476585" lon="1.569855">
        <time>2020-08-22T13:04:57Z</time>
      </trkpt>
      <trkpt lat="42.476593" lon="1.569856">
        <time>2020-08-22T13:04:57Z</time>
      </trkpt>
      <trkpt lat="42.476593" lon="1.569856">
        <time>2020-08-22T13:04:57Z</time>
      </trkpt>
      <trkpt lat="42.476604" lon="1.569855">
        <time>2020-08-22T13:04:57Z</time>
      </trkpt>
      <trkpt lat="42.476604" lon="1.569855">
        <time>2020-08-22T13:04:57Z</time>
      </trkpt>
      <trkpt lat="42.476612" lon="1.569853">
        <time>2020-08-22T13:05:07Z</time>
      </trkpt>
      <trkpt lat="42.476612" lon="1.569853">
        <time>2020-08-22T13:05:07Z</time>
      </trkpt>
      <trkpt lat="42.476620" lon="1.569849">
        <time>2020-08-22T13:05:07Z</time>
      </trkpt>
      <trkpt lat="42.476620" lon="1.569849">
        <time>2020-08-22T13:05:07Z</time>
      </trkpt>
      <trkpt lat="42.476631" lon="1.569838">
        <time>2020-08-22T13:05:07Z</time>
      </trkpt>
      <trkpt lat="42.476631" lon="1.569838">
        <time>2020-08-22T13:05:07Z</time>
      </trkpt>
      <trkpt lat="42.476643" lon="1.569828">
        <time>2020-08-22T13:05:07Z</time>
      </trkpt>
      <trkpt lat="42.476643" lon="1.569828">
        <time>2020-08-22T13:05:07Z</time>
      </trkpt>
      <trkpt lat="42.476654" lon="1.569818">
        <time>2020-08-22T13:05:07Z</time>
      </trkpt>
      <trkpt lat="42.476654" lon="1.569818">
        <time>2020-08-22T13:05:07Z</time>
      </trkpt>
      <trkpt lat="42.476665" lon="1.569809">
        <time>2020-08-22T13:05:07Z</time>
      </trkpt>
      <trkpt lat="42.476665" lon="1.569809">
        <time>2020-08-22T13:05:07Z</time>
      </trkpt>
      <trkpt lat="42.476681" lon="1.569801">
        <time>2020-08-22T13:05:07Z</time>
      </trkpt>
      <trkpt lat="42.476681" lon="1.569801">
        <time>2020-08-22T13:05:07Z</time>
      </trkpt>
      <trkpt lat="42.476696" lon="1.569794">
        <time>2020-08-22T13:05:14Z</time>
      </trkpt>
      <trkpt lat="42.476696" lon="1.569794">
        <time>2020-08-22T13:05:14Z</time>
      </trkpt>
      <trkpt lat="42.476707" lon="1.569787">
        <time>2020-08-22T13:05:14Z</time>
      </trkpt>
      <trkpt lat="42.476707" lon="1.569787">
        <time>2020-08-22T13:05:14Z</time>
      </trkpt>
      <trkpt lat="42.476727" lon="1.569781">
        <time>2020-08-22T13:05:14Z</time>
      </trkpt>
      <trkpt lat="42.476727" lon="1.569781">
        <time>2020-08-22T13:05:14Z</time>
      </trkpt>
      <trkpt lat="42.476738" lon="1.569777">
        <time>2020-08-22T13:05:14Z</time>
      </trkpt>
      <trkpt lat="42.476738" lon="1.569777">
        <time>2020-08-22T13:05:14Z</time>
      </trkpt>
      <trkpt lat="42.476753" lon="1.569773">
        <time>2020-08-22T13:05:14Z</time>
      </trkpt>
      <trkpt lat="42.476753" lon="1.569773">
        <time>2020-08-22T13:05:14Z</time>
      </trkpt>
      <trkpt lat="42.476772" lon="1.569781">
        <time>2020-08-22T13:05:14Z</time>
      </trkpt>
      <trkpt lat="42.476772" lon="1.569781">
        <time>2020-08-22T13:05:14Z</time>
      </trkpt>
      <trkpt lat="42.476788" lon="1.569789">
        <time>2020-08-22T13:05:14Z</time>
      </trkpt>
      <trkpt lat="42.476788" lon="1.569789">
        <time>2020-08-22T13:05:14Z</time>
      </trkpt>
      <trkpt lat="42.476799" lon="1.569796">
        <time>2020-08-22T13:05:14Z</time>
      </trkpt>
      <trkpt lat="42.476799" lon="1.569796">
        <time>2020-08-22T13:05:14Z</time>
      </trkpt>
      <trkpt lat="42.476814" lon="1.569804">
        <time>2020-08-22T13:05:21Z</time>
      </trkpt>
      <trkpt lat="42.476814" lon="1.569804">
        <time>2020-08-22T13:05:21Z</time>
      </trkpt>
      <trkpt lat="42.476830" lon="1.569811">
        <time>2020-08-22T13:05:21Z</time>
      </trkpt>
      <trkpt lat="42.476830" lon="1.569811">
        <time>2020-08-22T13:05:21Z</time>
      </trkpt>
      <trkpt lat="42.476845" lon="1.569819">
        <time>2020-08-22T13:05:21Z</time>
      </trkpt>
      <trkpt lat="42.476845" lon="1.569819">
        <time>2020-08-22T13:05:21Z</time>
      </trkpt>
      <trkpt lat="42.476860" lon="1.569827">
        <time>2020-08-22T13:05:21Z</time>
      </trkpt>
      <trkpt lat="42.476860" lon="1.569827">
        <time>2020-08-22T13:05:21Z</time>
      </trkpt>
      <trkpt lat="42.476875" lon="1.569835">
        <time>2020-08-22T13:05:21Z</time>
      </trkpt>
      <trkpt lat="42.476875" lon="1.569835">
        <time>2020-08-22T13:05:21Z</time>
      </trkpt>
      <trkpt lat="42.476887" lon="1.569844">
        <time>2020-08-22T13:05:21Z</time>
      </trkpt>
      <trkpt lat="42.476887" lon="1.569844">
        <time>2020-08-22T13:05:21Z</time>
      </trkpt>
      <trkpt lat="42.476906" lon="1.569853">
        <time>2020-08-22T13:05:21Z</time>
      </trkpt>
      <trkpt lat="42.476906" lon="1.569853">
        <time>2020-08-22T13:05:21Z</time>
      </trkpt>
      <trkpt lat="42.476913" lon="1.569858">
        <time>2020-08-22T13:05:28Z</time>
      </trkpt>
      <trkpt lat="42.476913" lon="1.569858">
        <time>2020-08-22T13:05:28Z</time>
      </trkpt>
      <trkpt lat="42.476921" lon="1.569863">
        <time>2020-08-22T13:05:28Z</time>
      </trkpt>
      <trkpt lat="42.476921" lon="1.569863">
        <time>2020-08-22T13:05:28Z</time>
      </trkpt>
      <trkpt lat="42.476933" lon="1.569869">
        <time>2020-08-22T13:05:28Z</time>
      </trkpt>
      <trkpt lat="42.476933" lon="1.569869">
        <time>2020-08-22T13:05:28Z</time>
      </trkpt>
      <trkpt lat="42.476940" lon="1.569874">
        <time>2020-08-22T13:05:28Z</time>
      </trkpt>
      <trkpt lat="42.476940" lon="1.569874">
        <time>2020-08-22T13:05:28Z</time>
      </trkpt>
      <trkpt lat="42.476952" lon="1.569880">
        <time>2020-08-22T13:05:28Z</time>
      </trkpt>
      <trkpt lat="42.476952" lon="1.569880">
        <time>2020-08-22T13:05:28Z</time>
      </trkpt>
      <trkpt lat="42.476959" lon="1.569885">
        <time>2020-08-22T13:05:28Z</time>
      </trkpt>
      <trkpt lat="42.476959" lon="1.569885">
        <time>2020-08-22T13:05:28Z</time>
      </trkpt>
      <trkpt lat="42.476967" lon="1.569890">
        <time>2020-08-22T13:05:28Z</time>
      </trkpt>
      <trkpt lat="42.476967" lon="1.569890">
        <time>2020-08-22T13:05:28Z</time>
      </trkpt>
      <trkpt lat="42.476974" lon="1.569895">
        <time>2020-08-22T13:05:35Z</time>
      </trkpt>
      <trkpt lat="42.476974" lon="1.569895">
        <time>2020-08-22T13:05:35Z</time>
      </trkpt>
      <trkpt lat="42.476982" lon="1.569898">
        <time>2020-08-22T13:05:35Z</time>
      </trkpt>
      <trkpt lat="42.476982" lon="1.569898">
        <time>2020-08-22T13:05:35Z</time>
      </trkpt>
      <trkpt lat="42.476990" lon="1.569902">
        <time>2020-08-22T13:05:35Z</time>
      </trkpt>
      <trkpt lat="42.476990" lon="1.569902">
        <time>2020-08-22T13:05:35Z</time>
      </trkpt>
      <trkpt lat="42.476997" lon="1.569905">
        <time>2020-08-22T13:05:35Z</time>
      </trkpt>
      <trkpt lat="42.476997" lon="1.569905">
        <time>2020-08-22T13:05:35Z</time>
      </trkpt>
      <trkpt lat="42.477005" lon="1.569908">
        <time>2020-08-22T13:05:35Z</time>
      </trkpt>
      <trkpt lat="42.477005" lon="1.569908">
        <time>2020-08-22T13:05:35Z</time>
      </trkpt>
      <trkpt lat="42.477013" lon="1.569911">
        <time>2020-08-22T13:05:35Z</time>
      </trkpt>
      <trkpt lat="42.477013" lon="1.569911">
        <time>2020-08-22T13:05:35Z</time>
      </trkpt>
      <trkpt lat="42.477020" lon="1.569914">
        <time>2020-08-22T13:05:35Z</time>
      </trkpt>
      <trkpt lat="42.477020" lon="1.569914">
        <time>2020-08-22T13:05:35Z</time>
      </trkpt>
      <trkpt lat="42.477028" lon="1.569917">
        <time>2020-08-22T13:05:42Z</time>
      </trkpt>
      <trkpt lat="42.477028" lon="1.569917">
        <time>2020-08-22T13:05:42Z</time>
      </trkpt>
      <trkpt lat="42.477039" lon="1.569920">
        <time>2020-08-22T13:05:42Z</time>
      </trkpt>
      <trkpt lat="42.477039" lon="1.569920">
        <time>2020-08-22T13:05:42Z</time>
      </trkpt>
      <trkpt lat="42.477047" lon="1.569924">
        <time>2020-08-22T13:05:42Z</time>
      </trkpt>
      <trkpt lat="42.477047" lon="1.569924">
        <time>2020-08-22T13:05:42Z</time>
      </trkpt>
      <trkpt lat="42.477058" lon="1.569927">
        <time>2020-08-22T13:05:42Z</time>
      </trkpt>
      <trkpt lat="42.477058" lon="1.569927">
        <time>2020-08-22T13:05:42Z</time>
      </trkpt>
      <trkpt lat="42.477070" lon="1.569932">
        <time>2020-08-22T13:05:42Z</time>
      </trkpt>
      <trkpt lat="42.477070" lon="1.569932">
        <time>2020-08-22T13:05:42Z</time>
      </trkpt>
      <trkpt lat="42.477081" lon="1.569937">
        <time>2020-08-22T13:05:42Z</time>
      </trkpt>
      <trkpt lat="42.477081" lon="1.569937">
        <time>2020-08-22T13:05:42Z</time>
      </trkpt>
      <trkpt lat="42.477089" lon="1.569942">
        <time>2020-08-22T13:05:42Z</time>
      </trkpt>
      <trkpt lat="42.477089" lon="1.569942">
        <time>2020-08-22T13:05:42Z</time>
      </trkpt>
      <trkpt lat="42.477100" lon="1.569948">
        <time>2020-08-22T13:05:49Z</time>
      </trkpt>
      <trkpt lat="42.477100" lon="1.569948">
        <time>2020-08-22T13:05:49Z</time>
      </trkpt>
      <trkpt lat="42.477108" lon="1.569953">
        <time>2020-08-22T13:05:49Z</time>
      </trkpt>
      <trkpt lat="42.477108" lon="1.569953">
        <time>2020-08-22T13:05:49Z</time>
      </trkpt>
      <trkpt lat="42.477119" lon="1.569958">
        <time>2020-08-22T13:05:49Z</time>
      </trkpt>
      <trkpt lat="42.477119" lon="1.569958">
        <time>2020-08-22T13:05:49Z</time>
      </trkpt>
      <trkpt lat="42.477127" lon="1.569964">
        <time>2020-08-22T13:05:49Z</time>
      </trkpt>
      <trkpt lat="42.477127" lon="1.569964">
        <time>2020-08-22T13:05:49Z</time>
      </trkpt>
      <trkpt lat="42.477135" lon="1.569969">
        <time>2020-08-22T13:05:49Z</time>
      </trkpt>
      <trkpt lat="42.477135" lon="1.569969">
        <time>2020-08-22T13:05:49Z</time>
      </trkpt>
      <trkpt lat="42.477142" lon="1.569975">
        <time>2020-08-22T13:05:49Z</time>
      </trkpt>
      <trkpt lat="42.477142" lon="1.569975">
        <time>2020-08-22T13:05:49Z</time>
      </trkpt>
      <trkpt lat="42.477154" lon="1.569980">
        <time>2020-08-22T13:05:49Z</time>
      </trkpt>
      <trkpt lat="42.477154" lon="1.569980">
        <time>2020-08-22T13:05:49Z</time>
      </trkpt>
      <trkpt lat="42.477161" lon="1.569986">
        <time>2020-08-22T13:05:56Z</time>
      </trkpt>
      <trkpt lat="42.477161" lon="1.569986">
        <time>2020-08-22T13:05:56Z</time>
      </trkpt>
      <trkpt lat="42.477169" lon="1.569992">
        <time>2020-08-22T13:05:56Z</time>
      </trkpt>
      <trkpt lat="42.477169" lon="1.569992">
        <time>2020-08-22T13:05:56Z</time>
      </trkpt>
      <trkpt lat="42.477177" lon="1.569998">
        <time>2020-08-22T13:05:56Z</time>
      </trkpt>
      <trkpt lat="42.477177" lon="1.569998">
        <time>2020-08-22T13:05:56Z</time>
      </trkpt>
      <trkpt lat="42.477184" lon="1.570004">
        <time>2020-08-22T13:05:56Z</time>
      </trkpt>
      <trkpt lat="42.477184" lon="1.570004">
        <time>2020-08-22T13:05:56Z</time>
      </trkpt>
      <trkpt lat="42.477188" lon="1.570011">
        <time>2020-08-22T13:05:56Z</time>
      </trkpt>
      <trkpt lat="42.477188" lon="1.570011">
        <time>2020-08-22T13:05:56Z</time>
      </trkpt>
      <trkpt lat="42.477196" lon="1.570017">
        <time>2020-08-22T13:05:56Z</time>
      </trkpt>
      <trkpt lat="42.477196" lon="1.570017">
        <time>2020-08-22T13:05:56Z</time>
      </trkpt>
      <trkpt lat="42.477207" lon="1.570024">
        <time>2020-08-22T13:05:56Z</time>
      </trkpt>
      <trkpt lat="42.477207" lon="1.570024">
        <time>2020-08-22T13:05:56Z</time>
      </trkpt>
      <trkpt lat="42.477215" lon="1.570031">
        <time>2020-08-22T13:06:03Z</time>
      </trkpt>
      <trkpt lat="42.477215" lon="1.570031">
        <time>2020-08-22T13:06:03Z</time>
      </trkpt>
      <trkpt lat="42.477222" lon="1.570038">
        <time>2020-08-22T13:06:03Z</time>
      </trkpt>
      <trkpt lat="42.477222" lon="1.570038">
        <time>2020-08-22T13:06:03Z</time>
      </trkpt>
      <trkpt lat="42.477230" lon="1.570046">
        <time>2020-08-22T13:06:03Z</time>
      </trkpt>
      <trkpt lat="42.477230" lon="1.570046">
        <time>2020-08-22T13:06:03Z</time>
      </trkpt>
      <trkpt lat="42.477238" lon="1.570054">
        <time>2020-08-22T13:06:03Z</time>
      </trkpt>
      <trkpt lat="42.477238" lon="1.570054">
        <time>2020-08-22T13:06:03Z</time>
      </trkpt>
      <trkpt lat="42.477242" lon="1.570063">
        <time>2020-08-22T13:06:03Z</time>
      </trkpt>
      <trkpt lat="42.477242" lon="1.570063">
        <time>2020-08-22T13:06:03Z</time>
      </trkpt>
      <trkpt lat="42.477249" lon="1.570071">
        <time>2020-08-22T13:06:03Z</time>
      </trkpt>
      <trkpt lat="42.477249" lon="1.570071">
        <time>2020-08-22T13:06:03Z</time>
      </trkpt>
      <trkpt lat="42.477257" lon="1.570080">
        <time>2020-08-22T13:06:03Z</time>
      </trkpt>
      <trkpt lat="42.477257" lon="1.570080">
        <time>2020-08-22T13:06:03Z</time>
      </trkpt>
      <trkpt lat="42.477264" lon="1.570088">
        <time>2020-08-22T13:06:10Z</time>
      </trkpt>
      <trkpt lat="42.477264" lon="1.570088">
        <time>2020-08-22T13:06:10Z</time>
      </trkpt>
      <trkpt lat="42.477268" lon="1.570096">
        <time>2020-08-22T13:06:10Z</time>
      </trkpt>
      <trkpt lat="42.477268" lon="1.570096">
        <time>2020-08-22T13:06:10Z</time>
      </trkpt>
      <trkpt lat="42.477276" lon="1.570103">
        <time>2020-08-22T13:06:10Z</time>
      </trkpt>
      <trkpt lat="42.477276" lon="1.570103">
        <time>2020-08-22T13:06:10Z</time>
      </trkpt>
      <trkpt lat="42.477283" lon="1.570111">
        <time>2020-08-22T13:06:10Z</time>
      </trkpt>
      <trkpt lat="42.477283" lon="1.570111">
        <time>2020-08-22T13:06:10Z</time>
      </trkpt>
      <trkpt lat="42.477291" lon="1.570118">
        <time>2020-08-22T13:06:10Z</time>
      </trkpt>
      <trkpt lat="42.477291" lon="1.570118">
        <time>2020-08-22T13:06:10Z</time>
      </trkpt>
      <trkpt lat="42.477295" lon="1.570125">
        <time>2020-08-22T13:06:10Z</time>
      </trkpt>
      <trkpt lat="42.477295" lon="1.570125">
        <time>2020-08-22T13:06:10Z</time>
      </trkpt>
      <trkpt lat="42.477303" lon="1.570133">
        <time>2020-08-22T13:06:10Z</time>
      </trkpt>
      <trkpt lat="42.477303" lon="1.570133">
        <time>2020-08-22T13:06:10Z</time>
      </trkpt>
      <trkpt lat="42.477310" lon="1.570140">
        <time>2020-08-22T13:06:17Z</time>
      </trkpt>
      <trkpt lat="42.477310" lon="1.570140">
        <time>2020-08-22T13:06:17Z</time>
      </trkpt>
      <trkpt lat="42.477322" lon="1.570147">
        <time>2020-08-22T13:06:17Z</time>
      </trkpt>
      <trkpt lat="42.477322" lon="1.570147">
        <time>2020-08-22T13:06:17Z</time>
      </trkpt>
      <trkpt lat="42.477329" lon="1.570155">
        <time>2020-08-22T13:06:17Z</time>
      </trkpt>
      <trkpt lat="42.477329" lon="1.570155">
        <time>2020-08-22T13:06:17Z</time>
      </trkpt>
      <trkpt lat="42.477337" lon="1.570163">
        <time>2020-08-22T13:06:17Z</time>
      </trkpt>
      <trkpt lat="42.477337" lon="1.570163">
        <time>2020-08-22T13:06:17Z</time>
      </trkpt>
      <trkpt lat="42.477348" lon="1.570171">
        <time>2020-08-22T13:06:17Z</time>
      </trkpt>
      <trkpt lat="42.477348" lon="1.570171">
        <time>2020-08-22T13:06:17Z</time>
      </trkpt>
      <trkpt lat="42.477356" lon="1.570179">
        <time>2020-08-22T13:06:17Z</time>
      </trkpt>
      <trkpt lat="42.477356" lon="1.570179">
        <time>2020-08-22T13:06:17Z</time>
      </trkpt>
      <trkpt lat="42.477364" lon="1.570188">
        <time>2020-08-22T13:06:17Z</time>
      </trkpt>
      <trkpt lat="42.477364" lon="1.570188">
        <time>2020-08-22T13:06:17Z</time>
      </trkpt>
      <trkpt lat="42.477375" lon="1.570196">
        <time>2020-08-22T13:06:24Z</time>
      </trkpt>
      <trkpt lat="42.477375" lon="1.570196">
        <time>2020-08-22T13:06:24Z</time>
      </trkpt>
      <trkpt lat="42.477383" lon="1.570204">
        <time>2020-08-22T13:06:24Z</time>
      </trkpt>
      <trkpt lat="42.477383" lon="1.570204">
        <time>2020-08-22T13:06:24Z</time>
      </trkpt>
      <trkpt lat="42.477390" lon="1.570210">
        <time>2020-08-22T13:06:24Z</time>
      </trkpt>
      <trkpt lat="42.477390" lon="1.570210">
        <time>2020-08-22T13:06:24Z</time>
      </trkpt>
      <trkpt lat="42.477402" lon="1.570216">
        <time>2020-08-22T13:06:24Z</time>
      </trkpt>
      <trkpt lat="42.477402" lon="1.570216">
        <time>2020-08-22T13:06:24Z</time>
      </trkpt>
      <trkpt lat="42.477413" lon="1.570221">
        <time>2020-08-22T13:06:24Z</time>
      </trkpt>
      <trkpt lat="42.477413" lon="1.570221">
        <time>2020-08-22T13:06:24Z</time>
      </trkpt>
      <trkpt lat="42.477421" lon="1.570226">
        <time>2020-08-22T13:06:24Z</time>
      </trkpt>
      <trkpt lat="42.477421" lon="1.570226">
        <time>2020-08-22T13:06:24Z</time>
      </trkpt>
      <trkpt lat="42.477428" lon="1.570231">
        <time>2020-08-22T13:06:24Z</time>
      </trkpt>
      <trkpt lat="42.477428" lon="1.570231">
        <time>2020-08-22T13:06:24Z</time>
      </trkpt>
      <trkpt lat="42.477436" lon="1.570237">
        <time>2020-08-22T13:06:31Z</time>
      </trkpt>
      <trkpt lat="42.477436" lon="1.570237">
        <time>2020-08-22T13:06:31Z</time>
      </trkpt>
      <trkpt lat="42.477444" lon="1.570243">
        <time>2020-08-22T13:06:31Z</time>
      </trkpt>
      <trkpt lat="42.477444" lon="1.570243">
        <time>2020-08-22T13:06:31Z</time>
      </trkpt>
      <trkpt lat="42.477451" lon="1.570249">
        <time>2020-08-22T13:06:31Z</time>
      </trkpt>
      <trkpt lat="42.477451" lon="1.570249">
        <time>2020-08-22T13:06:31Z</time>
      </trkpt>
      <trkpt lat="42.477455" lon="1.570256">
        <time>2020-08-22T13:06:31Z</time>
      </trkpt>
      <trkpt lat="42.477455" lon="1.570256">
        <time>2020-08-22T13:06:31Z</time>
      </trkpt>
      <trkpt lat="42.477463" lon="1.570262">
        <time>2020-08-22T13:06:31Z</time>
      </trkpt>
      <trkpt lat="42.477463" lon="1.570262">
        <time>2020-08-22T13:06:31Z</time>
      </trkpt>
      <trkpt lat="42.477470" lon="1.570269">
        <time>2020-08-22T13:06:31Z</time>
      </trkpt>
      <trkpt lat="42.477470" lon="1.570269">
        <time>2020-08-22T13:06:31Z</time>
      </trkpt>
      <trkpt lat="42.477474" lon="1.570276">
        <time>2020-08-22T13:06:31Z</time>
      </trkpt>
      <trkpt lat="42.477474" lon="1.570276">
        <time>2020-08-22T13:06:31Z</time>
      </trkpt>
      <trkpt lat="42.477482" lon="1.570284">
        <time>2020-08-22T13:06:38Z</time>
      </trkpt>
      <trkpt lat="42.477482" lon="1.570284">
        <time>2020-08-22T13:06:38Z</time>
      </trkpt>
      <trkpt lat="42.477486" lon="1.570291">
        <time>2020-08-22T13:06:38Z</time>
      </trkpt>
      <trkpt lat="42.477486" lon="1.570291">
        <time>2020-08-22T13:06:38Z</time>
      </trkpt>
      <trkpt lat="42.477493" lon="1.570297">
        <time>2020-08-22T13:06:38Z</time>
      </trkpt>
      <trkpt lat="42.477493" lon="1.570297">
        <time>2020-08-22T13:06:38Z</time>
      </trkpt>
      <trkpt lat="42.477497" lon="1.570303">
        <time>2020-08-22T13:06:38Z</time>
      </trkpt>
      <trkpt lat="42.477497" lon="1.570303">
        <time>2020-08-22T13:06:38Z</time>
      </trkpt>
      <trkpt lat="42.477505" lon="1.570308">
        <time>2020-08-22T13:06:38Z</time>
      </trkpt>
      <trkpt lat="42.477505" lon="1.570308">
        <time>2020-08-22T13:06:38Z</time>
      </trkpt>
      <trkpt lat="42.477509" lon="1.570312">
        <time>2020-08-22T13:06:38Z</time>
      </trkpt>
      <trkpt lat="42.477509" lon="1.570312">
        <time>2020-08-22T13:06:38Z</time>
      </trkpt>
      <trkpt lat="42.477516" lon="1.570316">
        <time>2020-08-22T13:06:38Z</time>
      </trkpt>
      <trkpt lat="42.477516" lon="1.570316">
        <time>2020-08-22T13:06:38Z</time>
      </trkpt>
      <trkpt lat="42.477520" lon="1.570320">
        <time>2020-08-22T13:06:52Z</time>
      </trkpt>
      <trkpt lat="42.477520" lon="1.570320">
        <time>2020-08-22T13:06:52Z</time>
      </trkpt>
      <trkpt lat="42.477524" lon="1.570323">
        <time>2020-08-22T13:06:52Z</time>
      </trkpt>
      <trkpt lat="42.477524" lon="1.570323">
        <time>2020-08-22T13:06:52Z</time>
      </trkpt>
      <trkpt lat="42.477531" lon="1.570326">
        <time>2020-08-22T13:06:52Z</time>
      </trkpt>
      <trkpt lat="42.477531" lon="1.570326">
        <time>2020-08-22T13:06:52Z</time>
      </trkpt>
      <trkpt lat="42.477539" lon="1.570328">
        <time>2020-08-22T13:06:52Z</time>
      </trkpt>
      <trkpt lat="42.477539" lon="1.570328">
        <time>2020-08-22T13:06:52Z</time>
      </trkpt>
      <trkpt lat="42.477543" lon="1.570330">
        <time>2020-08-22T13:06:52Z</time>
      </trkpt>
      <trkpt lat="42.477543" lon="1.570330">
        <time>2020-08-22T13:06:52Z</time>
      </trkpt>
      <trkpt lat="42.477550" lon="1.570332">
        <time>2020-08-22T13:06:52Z</time>
      </trkpt>
      <trkpt lat="42.477550" lon="1.570332">
        <time>2020-08-22T13:06:52Z</time>
      </trkpt>
      <trkpt lat="42.477558" lon="1.570333">
        <time>2020-08-22T13:06:52Z</time>
      </trkpt>
      <trkpt lat="42.477558" lon="1.570333">
        <time>2020-08-22T13:06:52Z</time>
      </trkpt>
      <trkpt lat="42.477566" lon="1.570335">
        <time>2020-08-22T13:06:52Z</time>
      </trkpt>
      <trkpt lat="42.477566" lon="1.570335">
        <time>2020-08-22T13:06:52Z</time>
      </trkpt>
      <trkpt lat="42.477577" lon="1.570336">
        <time>2020-08-22T13:06:52Z</time>
      </trkpt>
      <trkpt lat="42.477577" lon="1.570336">
        <time>2020-08-22T13:06:52Z</time>
      </trkpt>
      <trkpt lat="42.477585" lon="1.570337">
        <time>2020-08-22T13:06:52Z</time>
      </trkpt>
      <trkpt lat="42.477585" lon="1.570337">
        <time>2020-08-22T13:06:52Z</time>
      </trkpt>
      <trkpt lat="42.477596" lon="1.570338">
        <time>2020-08-22T13:06:59Z</time>
      </trkpt>
      <trkpt lat="42.477596" lon="1.570338">
        <time>2020-08-22T13:06:59Z</time>
      </trkpt>
      <trkpt lat="42.477608" lon="1.570340">
        <time>2020-08-22T13:06:59Z</time>
      </trkpt>
      <trkpt lat="42.477608" lon="1.570340">
        <time>2020-08-22T13:06:59Z</time>
      </trkpt>
      <trkpt lat="42.477623" lon="1.570343">
        <time>2020-08-22T13:06:59Z</time>
      </trkpt>
      <trkpt lat="42.477623" lon="1.570343">
        <time>2020-08-22T13:06:59Z</time>
      </trkpt>
      <trkpt lat="42.477638" lon="1.570357">
        <time>2020-08-22T13:06:59Z</time>
      </trkpt>
      <trkpt lat="42.477638" lon="1.570357">
        <time>2020-08-22T13:06:59Z</time>
      </trkpt>
      <trkpt lat="42.477657" lon="1.570373">
        <time>2020-08-22T13:06:59Z</time>
      </trkpt>
      <trkpt lat="42.477657" lon="1.570373">
        <time>2020-08-22T13:06:59Z</time>
      </trkpt>
      <trkpt lat="42.477673" lon="1.570390">
        <time>2020-08-22T13:07:06Z</time>
      </trkpt>
      <trkpt lat="42.477673" lon="1.570390">
        <time>2020-08-22T13:07:06Z</time>
      </trkpt>
      <trkpt lat="42.477688" lon="1.570407">
        <time>2020-08-22T13:07:06Z</time>
      </trkpt>
      <trkpt lat="42.477688" lon="1.570407">
        <time>2020-08-22T13:07:06Z</time>
      </trkpt>
      <trkpt lat="42.477703" lon="1.570426">
        <time>2020-08-22T13:07:06Z</time>
      </trkpt>
      <trkpt lat="42.477703" lon="1.570426">
        <time>2020-08-22T13:07:06Z</time>
      </trkpt>
      <trkpt lat="42.477718" lon="1.570445">
        <time>2020-08-22T13:07:06Z</time>
      </trkpt>
      <trkpt lat="42.477718" lon="1.570445">
        <time>2020-08-22T13:07:06Z</time>
      </trkpt>
      <trkpt lat="42.477730" lon="1.570465">
        <time>2020-08-22T13:07:06Z</time>
      </trkpt>
      <trkpt lat="42.477730" lon="1.570465">
        <time>2020-08-22T13:07:06Z</time>
      </trkpt>
      <trkpt lat="42.477741" lon="1.570483">
        <time>2020-08-22T13:07:06Z</time>
      </trkpt>
      <trkpt lat="42.477741" lon="1.570483">
        <time>2020-08-22T13:07:06Z</time>
      </trkpt>
      <trkpt lat="42.477753" lon="1.570500">
        <time>2020-08-22T13:07:15Z</time>
      </trkpt>
      <trkpt lat="42.477753" lon="1.570500">
        <time>2020-08-22T13:07:15Z</time>
      </trkpt>
      <trkpt lat="42.477760" lon="1.570516">
        <time>2020-08-22T13:07:15Z</time>
      </trkpt>
      <trkpt lat="42.477760" lon="1.570516">
        <time>2020-08-22T13:07:15Z</time>
      </trkpt>
      <trkpt lat="42.477768" lon="1.570519">
        <time>2020-08-22T13:07:15Z</time>
      </trkpt>
      <trkpt lat="42.477768" lon="1.570519">
        <time>2020-08-22T13:07:15Z</time>
      </trkpt>
      <trkpt lat="42.477776" lon="1.570520">
        <time>2020-08-22T13:07:15Z</time>
      </trkpt>
      <trkpt lat="42.477776" lon="1.570520">
        <time>2020-08-22T13:07:15Z</time>
      </trkpt>
      <trkpt lat="42.477783" lon="1.570521">
        <time>2020-08-22T13:07:15Z</time>
      </trkpt>
      <trkpt lat="42.477783" lon="1.570521">
        <time>2020-08-22T13:07:15Z</time>
      </trkpt>
      <trkpt lat="42.477791" lon="1.570520">
        <time>2020-08-22T13:07:15Z</time>
      </trkpt>
      <trkpt lat="42.477791" lon="1.570520">
        <time>2020-08-22T13:07:15Z</time>
      </trkpt>
      <trkpt lat="42.477798" lon="1.570519">
        <time>2020-08-22T13:07:15Z</time>
      </trkpt>
      <trkpt lat="42.477798" lon="1.570519">
        <time>2020-08-22T13:07:15Z</time>
      </trkpt>
      <trkpt lat="42.477810" lon="1.570519">
        <time>2020-08-22T13:07:15Z</time>
      </trkpt>
      <trkpt lat="42.477810" lon="1.570519">
        <time>2020-08-22T13:07:15Z</time>
      </trkpt>
      <trkpt lat="42.477818" lon="1.570519">
        <time>2020-08-22T13:07:22Z</time>
      </trkpt>
      <trkpt lat="42.477818" lon="1.570519">
        <time>2020-08-22T13:07:22Z</time>
      </trkpt>
      <trkpt lat="42.477825" lon="1.570522">
        <time>2020-08-22T13:07:22Z</time>
      </trkpt>
      <trkpt lat="42.477825" lon="1.570522">
        <time>2020-08-22T13:07:22Z</time>
      </trkpt>
      <trkpt lat="42.477837" lon="1.570526">
        <time>2020-08-22T13:07:22Z</time>
      </trkpt>
      <trkpt lat="42.477837" lon="1.570526">
        <time>2020-08-22T13:07:22Z</time>
      </trkpt>
      <trkpt lat="42.477848" lon="1.570533">
        <time>2020-08-22T13:07:22Z</time>
      </trkpt>
      <trkpt lat="42.477848" lon="1.570533">
        <time>2020-08-22T13:07:22Z</time>
      </trkpt>
      <trkpt lat="42.477859" lon="1.570542">
        <time>2020-08-22T13:07:22Z</time>
      </trkpt>
      <trkpt lat="42.477859" lon="1.570542">
        <time>2020-08-22T13:07:22Z</time>
      </trkpt>
      <trkpt lat="42.477867" lon="1.570553">
        <time>2020-08-22T13:07:22Z</time>
      </trkpt>
      <trkpt lat="42.477867" lon="1.570553">
        <time>2020-08-22T13:07:22Z</time>
      </trkpt>
      <trkpt lat="42.477879" lon="1.570565">
        <time>2020-08-22T13:07:22Z</time>
      </trkpt>
      <trkpt lat="42.477879" lon="1.570565">
        <time>2020-08-22T13:07:22Z</time>
      </trkpt>
      <trkpt lat="42.477886" lon="1.570578">
        <time>2020-08-22T13:07:29Z</time>
      </trkpt>
      <trkpt lat="42.477886" lon="1.570578">
        <time>2020-08-22T13:07:29Z</time>
      </trkpt>
      <trkpt lat="42.477898" lon="1.570591">
        <time>2020-08-22T13:07:29Z</time>
      </trkpt>
      <trkpt lat="42.477898" lon="1.570591">
        <time>2020-08-22T13:07:29Z</time>
      </trkpt>
      <trkpt lat="42.477905" lon="1.570604">
        <time>2020-08-22T13:07:29Z</time>
      </trkpt>
      <trkpt lat="42.477905" lon="1.570604">
        <time>2020-08-22T13:07:29Z</time>
      </trkpt>
      <trkpt lat="42.477913" lon="1.570616">
        <time>2020-08-22T13:07:29Z</time>
      </trkpt>
      <trkpt lat="42.477913" lon="1.570616">
        <time>2020-08-22T13:07:29Z</time>
      </trkpt>
      <trkpt lat="42.477924" lon="1.570627">
        <time>2020-08-22T13:07:29Z</time>
      </trkpt>
      <trkpt lat="42.477924" lon="1.570627">
        <time>2020-08-22T13:07:29Z</time>
      </trkpt>
      <trkpt lat="42.477932" lon="1.570638">
        <time>2020-08-22T13:07:29Z</time>
      </trkpt>
      <trkpt lat="42.477932" lon="1.570638">
        <time>2020-08-22T13:07:29Z</time>
      </trkpt>
      <trkpt lat="42.477936" lon="1.570647">
        <time>2020-08-22T13:07:29Z</time>
      </trkpt>
      <trkpt lat="42.477936" lon="1.570647">
        <time>2020-08-22T13:07:29Z</time>
      </trkpt>
      <trkpt lat="42.477943" lon="1.570655">
        <time>2020-08-22T13:07:36Z</time>
      </trkpt>
      <trkpt lat="42.477943" lon="1.570655">
        <time>2020-08-22T13:07:36Z</time>
      </trkpt>
      <trkpt lat="42.477951" lon="1.570662">
        <time>2020-08-22T13:07:36Z</time>
      </trkpt>
      <trkpt lat="42.477951" lon="1.570662">
        <time>2020-08-22T13:07:36Z</time>
      </trkpt>
      <trkpt lat="42.477959" lon="1.570668">
        <time>2020-08-22T13:07:36Z</time>
      </trkpt>
      <trkpt lat="42.477959" lon="1.570668">
        <time>2020-08-22T13:07:36Z</time>
      </trkpt>
      <trkpt lat="42.477962" lon="1.570673">
        <time>2020-08-22T13:07:36Z</time>
      </trkpt>
      <trkpt lat="42.477962" lon="1.570673">
        <time>2020-08-22T13:07:36Z</time>
      </trkpt>
      <trkpt lat="42.477966" lon="1.570678">
        <time>2020-08-22T13:07:36Z</time>
      </trkpt>
      <trkpt lat="42.477966" lon="1.570678">
        <time>2020-08-22T13:07:36Z</time>
      </trkpt>
      <trkpt lat="42.477974" lon="1.570684">
        <time>2020-08-22T13:07:36Z</time>
      </trkpt>
      <trkpt lat="42.477974" lon="1.570684">
        <time>2020-08-22T13:07:36Z</time>
      </trkpt>
      <trkpt lat="42.477978" lon="1.570690">
        <time>2020-08-22T13:07:44Z</time>
      </trkpt>
      <trkpt lat="42.477978" lon="1.570690">
        <time>2020-08-22T13:07:44Z</time>
      </trkpt>
      <trkpt lat="42.477978" lon="1.570696">
        <time>2020-08-22T13:07:44Z</time>
      </trkpt>
      <trkpt lat="42.477978" lon="1.570696">
        <time>2020-08-22T13:07:44Z</time>
      </trkpt>
      <trkpt lat="42.477985" lon="1.570703">
        <time>2020-08-22T13:07:44Z</time>
      </trkpt>
      <trkpt lat="42.477985" lon="1.570703">
        <time>2020-08-22T13:07:44Z</time>
      </trkpt>
      <trkpt lat="42.477985" lon="1.570709">
        <time>2020-08-22T13:07:44Z</time>
      </trkpt>
      <trkpt lat="42.477985" lon="1.570709">
        <time>2020-08-22T13:07:44Z</time>
      </trkpt>
      <trkpt lat="42.477993" lon="1.570717">
        <time>2020-08-22T13:07:44Z</time>
      </trkpt>
      <trkpt lat="42.477993" lon="1.570717">
        <time>2020-08-22T13:07:44Z</time>
      </trkpt>
      <trkpt lat="42.477997" lon="1.570725">
        <time>2020-08-22T13:07:44Z</time>
      </trkpt>
      <trkpt lat="42.477997" lon="1.570725">
        <time>2020-08-22T13:07:44Z</time>
      </trkpt>
      <trkpt lat="42.478004" lon="1.570733">
        <time>2020-08-22T13:07:44Z</time>
      </trkpt>
      <trkpt lat="42.478004" lon="1.570733">
        <time>2020-08-22T13:07:44Z</time>
      </trkpt>
      <trkpt lat="42.478012" lon="1.570742">
        <time>2020-08-22T13:07:44Z</time>
      </trkpt>
      <trkpt lat="42.478012" lon="1.570742">
        <time>2020-08-22T13:07:44Z</time>
      </trkpt>
      <trkpt lat="42.478020" lon="1.570752">
        <time>2020-08-22T13:07:44Z</time>
      </trkpt>
      <trkpt lat="42.478020" lon="1.570752">
        <time>2020-08-22T13:07:44Z</time>
      </trkpt>
      <trkpt lat="42.478031" lon="1.570760">
        <time>2020-08-22T13:07:44Z</time>
      </trkpt>
      <trkpt lat="42.478031" lon="1.570760">
        <time>2020-08-22T13:07:44Z</time>
      </trkpt>
      <trkpt lat="42.478039" lon="1.570768">
        <time>2020-08-22T13:07:54Z</time>
      </trkpt>
      <trkpt lat="42.478039" lon="1.570768">
        <time>2020-08-22T13:07:54Z</time>
      </trkpt>
      <trkpt lat="42.478050" lon="1.570775">
        <time>2020-08-22T13:07:54Z</time>
      </trkpt>
      <trkpt lat="42.478050" lon="1.570775">
        <time>2020-08-22T13:07:54Z</time>
      </trkpt>
      <trkpt lat="42.478062" lon="1.570783">
        <time>2020-08-22T13:07:54Z</time>
      </trkpt>
      <trkpt lat="42.478062" lon="1.570783">
        <time>2020-08-22T13:07:54Z</time>
      </trkpt>
      <trkpt lat="42.478073" lon="1.570791">
        <time>2020-08-22T13:07:54Z</time>
      </trkpt>
      <trkpt lat="42.478073" lon="1.570791">
        <time>2020-08-22T13:07:54Z</time>
      </trkpt>
      <trkpt lat="42.478085" lon="1.570801">
        <time>2020-08-22T13:07:54Z</time>
      </trkpt>
      <trkpt lat="42.478085" lon="1.570801">
        <time>2020-08-22T13:07:54Z</time>
      </trkpt>
      <trkpt lat="42.478096" lon="1.570810">
        <time>2020-08-22T13:07:54Z</time>
      </trkpt>
      <trkpt lat="42.478096" lon="1.570810">
        <time>2020-08-22T13:07:54Z</time>
      </trkpt>
      <trkpt lat="42.478107" lon="1.570819">
        <time>2020-08-22T13:07:54Z</time>
      </trkpt>
      <trkpt lat="42.478107" lon="1.570819">
        <time>2020-08-22T13:07:54Z</time>
      </trkpt>
      <trkpt lat="42.478119" lon="1.570827">
        <time>2020-08-22T13:08:01Z</time>
      </trkpt>
      <trkpt lat="42.478119" lon="1.570827">
        <time>2020-08-22T13:08:01Z</time>
      </trkpt>
      <trkpt lat="42.478127" lon="1.570834">
        <time>2020-08-22T13:08:01Z</time>
      </trkpt>
      <trkpt lat="42.478127" lon="1.570834">
        <time>2020-08-22T13:08:01Z</time>
      </trkpt>
      <trkpt lat="42.478134" lon="1.570841">
        <time>2020-08-22T13:08:01Z</time>
      </trkpt>
      <trkpt lat="42.478134" lon="1.570841">
        <time>2020-08-22T13:08:01Z</time>
      </trkpt>
      <trkpt lat="42.478146" lon="1.570848">
        <time>2020-08-22T13:08:01Z</time>
      </trkpt>
      <trkpt lat="42.478146" lon="1.570848">
        <time>2020-08-22T13:08:01Z</time>
      </trkpt>
      <trkpt lat="42.478157" lon="1.570855">
        <time>2020-08-22T13:08:01Z</time>
      </trkpt>
      <trkpt lat="42.478157" lon="1.570855">
        <time>2020-08-22T13:08:01Z</time>
      </trkpt>
      <trkpt lat="42.478165" lon="1.570861">
        <time>2020-08-22T13:08:01Z</time>
      </trkpt>
      <trkpt lat="42.478165" lon="1.570861">
        <time>2020-08-22T13:08:01Z</time>
      </trkpt>
      <trkpt lat="42.478176" lon="1.570866">
        <time>2020-08-22T13:08:01Z</time>
      </trkpt>
      <trkpt lat="42.478176" lon="1.570866">
        <time>2020-08-22T13:08:01Z</time>
      </trkpt>
      <trkpt lat="42.478184" lon="1.570868">
        <time>2020-08-22T13:08:08Z</time>
      </trkpt>
      <trkpt lat="42.478184" lon="1.570868">
        <time>2020-08-22T13:08:08Z</time>
      </trkpt>
      <trkpt lat="42.478191" lon="1.570869">
        <time>2020-08-22T13:08:08Z</time>
      </trkpt>
      <trkpt lat="42.478191" lon="1.570869">
        <time>2020-08-22T13:08:08Z</time>
      </trkpt>
      <trkpt lat="42.478199" lon="1.570871">
        <time>2020-08-22T13:08:08Z</time>
      </trkpt>
      <trkpt lat="42.478199" lon="1.570871">
        <time>2020-08-22T13:08:08Z</time>
      </trkpt>
      <trkpt lat="42.478207" lon="1.570872">
        <time>2020-08-22T13:08:08Z</time>
      </trkpt>
      <trkpt lat="42.478207" lon="1.570872">
        <time>2020-08-22T13:08:08Z</time>
      </trkpt>
      <trkpt lat="42.478214" lon="1.570874">
        <time>2020-08-22T13:08:08Z</time>
      </trkpt>
      <trkpt lat="42.478214" lon="1.570874">
        <time>2020-08-22T13:08:08Z</time>
      </trkpt>
      <trkpt lat="42.478226" lon="1.570876">
        <time>2020-08-22T13:08:08Z</time>
      </trkpt>
      <trkpt lat="42.478226" lon="1.570876">
        <time>2020-08-22T13:08:08Z</time>
      </trkpt>
      <trkpt lat="42.478233" lon="1.570878">
        <time>2020-08-22T13:08:08Z</time>
      </trkpt>
      <trkpt lat="42.478233" lon="1.570878">
        <time>2020-08-22T13:08:08Z</time>
      </trkpt>
      <trkpt lat="42.478237" lon="1.570880">
        <time>2020-08-22T13:08:17Z</time>
      </trkpt>
      <trkpt lat="42.478237" lon="1.570880">
        <time>2020-08-22T13:08:17Z</time>
      </trkpt>
      <trkpt lat="42.478245" lon="1.570883">
        <time>2020-08-22T13:08:17Z</time>
      </trkpt>
      <trkpt lat="42.478245" lon="1.570883">
        <time>2020-08-22T13:08:17Z</time>
      </trkpt>
      <trkpt lat="42.478252" lon="1.570886">
        <time>2020-08-22T13:08:17Z</time>
      </trkpt>
      <trkpt lat="42.478252" lon="1.570886">
        <time>2020-08-22T13:08:17Z</time>
      </trkpt>
      <trkpt lat="42.478260" lon="1.570891">
        <time>2020-08-22T13:08:17Z</time>
      </trkpt>
      <trkpt lat="42.478260" lon="1.570891">
        <time>2020-08-22T13:08:17Z</time>
      </trkpt>
      <trkpt lat="42.478268" lon="1.570897">
        <time>2020-08-22T13:08:24Z</time>
      </trkpt>
      <trkpt lat="42.478268" lon="1.570897">
        <time>2020-08-22T13:08:24Z</time>
      </trkpt>
      <trkpt lat="42.478271" lon="1.570905">
        <time>2020-08-22T13:08:24Z</time>
      </trkpt>
      <trkpt lat="42.478271" lon="1.570905">
        <time>2020-08-22T13:08:24Z</time>
      </trkpt>
      <trkpt lat="42.478279" lon="1.570914">
        <time>2020-08-22T13:08:24Z</time>
      </trkpt>
      <trkpt lat="42.478279" lon="1.570914">
        <time>2020-08-22T13:08:24Z</time>
      </trkpt>
      <trkpt lat="42.478283" lon="1.570924">
        <time>2020-08-22T13:08:24Z</time>
      </trkpt>
      <trkpt lat="42.478283" lon="1.570924">
        <time>2020-08-22T13:08:24Z</time>
      </trkpt>
      <trkpt lat="42.478287" lon="1.570934">
        <time>2020-08-22T13:08:24Z</time>
      </trkpt>
      <trkpt lat="42.478287" lon="1.570934">
        <time>2020-08-22T13:08:24Z</time>
      </trkpt>
      <trkpt lat="42.478294" lon="1.570945">
        <time>2020-08-22T13:08:31Z</time>
      </trkpt>
      <trkpt lat="42.478294" lon="1.570945">
        <time>2020-08-22T13:08:31Z</time>
      </trkpt>
      <trkpt lat="42.478298" lon="1.570956">
        <time>2020-08-22T13:08:31Z</time>
      </trkpt>
      <trkpt lat="42.478298" lon="1.570956">
        <time>2020-08-22T13:08:31Z</time>
      </trkpt>
      <trkpt lat="42.478306" lon="1.570968">
        <time>2020-08-22T13:08:31Z</time>
      </trkpt>
      <trkpt lat="42.478306" lon="1.570968">
        <time>2020-08-22T13:08:31Z</time>
      </trkpt>
      <trkpt lat="42.478310" lon="1.570979">
        <time>2020-08-22T13:08:31Z</time>
      </trkpt>
      <trkpt lat="42.478310" lon="1.570979">
        <time>2020-08-22T13:08:31Z</time>
      </trkpt>
      <trkpt lat="42.478313" lon="1.570988">
        <time>2020-08-22T13:08:31Z</time>
      </trkpt>
      <trkpt lat="42.478313" lon="1.570988">
        <time>2020-08-22T13:08:31Z</time>
      </trkpt>
      <trkpt lat="42.478321" lon="1.570997">
        <time>2020-08-22T13:08:31Z</time>
      </trkpt>
      <trkpt lat="42.478321" lon="1.570997">
        <time>2020-08-22T13:08:31Z</time>
      </trkpt>
      <trkpt lat="42.478325" lon="1.571004">
        <time>2020-08-22T13:08:31Z</time>
      </trkpt>
      <trkpt lat="42.478325" lon="1.571004">
        <time>2020-08-22T13:08:31Z</time>
      </trkpt>
      <trkpt lat="42.478333" lon="1.571011">
        <time>2020-08-22T13:08:38Z</time>
      </trkpt>
      <trkpt lat="42.478333" lon="1.571011">
        <time>2020-08-22T13:08:38Z</time>
      </trkpt>
      <trkpt lat="42.478340" lon="1.571017">
        <time>2020-08-22T13:08:38Z</time>
      </trkpt>
      <trkpt lat="42.478340" lon="1.571017">
        <time>2020-08-22T13:08:38Z</time>
      </trkpt>
      <trkpt lat="42.478344" lon="1.571023">
        <time>2020-08-22T13:08:38Z</time>
      </trkpt>
      <trkpt lat="42.478344" lon="1.571023">
        <time>2020-08-22T13:08:38Z</time>
      </trkpt>
      <trkpt lat="42.478352" lon="1.571028">
        <time>2020-08-22T13:08:38Z</time>
      </trkpt>
      <trkpt lat="42.478352" lon="1.571028">
        <time>2020-08-22T13:08:38Z</time>
      </trkpt>
      <trkpt lat="42.478363" lon="1.571033">
        <time>2020-08-22T13:08:38Z</time>
      </trkpt>
      <trkpt lat="42.478363" lon="1.571033">
        <time>2020-08-22T13:08:38Z</time>
      </trkpt>
      <trkpt lat="42.478371" lon="1.571037">
        <time>2020-08-22T13:08:38Z</time>
      </trkpt>
      <trkpt lat="42.478371" lon="1.571037">
        <time>2020-08-22T13:08:38Z</time>
      </trkpt>
      <trkpt lat="42.478382" lon="1.571041">
        <time>2020-08-22T13:08:38Z</time>
      </trkpt>
      <trkpt lat="42.478382" lon="1.571041">
        <time>2020-08-22T13:08:38Z</time>
      </trkpt>
      <trkpt lat="42.478394" lon="1.571046">
        <time>2020-08-22T13:08:45Z</time>
      </trkpt>
      <trkpt lat="42.478394" lon="1.571046">
        <time>2020-08-22T13:08:45Z</time>
      </trkpt>
      <trkpt lat="42.478401" lon="1.571051">
        <time>2020-08-22T13:08:45Z</time>
      </trkpt>
      <trkpt lat="42.478401" lon="1.571051">
        <time>2020-08-22T13:08:45Z</time>
      </trkpt>
      <trkpt lat="42.478413" lon="1.571057">
        <time>2020-08-22T13:08:45Z</time>
      </trkpt>
      <trkpt lat="42.478413" lon="1.571057">
        <time>2020-08-22T13:08:45Z</time>
      </trkpt>
      <trkpt lat="42.478428" lon="1.571062">
        <time>2020-08-22T13:08:45Z</time>
      </trkpt>
      <trkpt lat="42.478428" lon="1.571062">
        <time>2020-08-22T13:08:45Z</time>
      </trkpt>
      <trkpt lat="42.478439" lon="1.571069">
        <time>2020-08-22T13:08:45Z</time>
      </trkpt>
      <trkpt lat="42.478439" lon="1.571069">
        <time>2020-08-22T13:08:45Z</time>
      </trkpt>
      <trkpt lat="42.478455" lon="1.571076">
        <time>2020-08-22T13:08:45Z</time>
      </trkpt>
      <trkpt lat="42.478455" lon="1.571076">
        <time>2020-08-22T13:08:45Z</time>
      </trkpt>
      <trkpt lat="42.478462" lon="1.571084">
        <time>2020-08-22T13:08:45Z</time>
      </trkpt>
      <trkpt lat="42.478462" lon="1.571084">
        <time>2020-08-22T13:08:45Z</time>
      </trkpt>
      <trkpt lat="42.478477" lon="1.571092">
        <time>2020-08-22T13:08:52Z</time>
      </trkpt>
      <trkpt lat="42.478477" lon="1.571092">
        <time>2020-08-22T13:08:52Z</time>
      </trkpt>
      <trkpt lat="42.478489" lon="1.571101">
        <time>2020-08-22T13:08:52Z</time>
      </trkpt>
      <trkpt lat="42.478489" lon="1.571101">
        <time>2020-08-22T13:08:52Z</time>
      </trkpt>
      <trkpt lat="42.478500" lon="1.571109">
        <time>2020-08-22T13:08:52Z</time>
      </trkpt>
      <trkpt lat="42.478500" lon="1.571109">
        <time>2020-08-22T13:08:52Z</time>
      </trkpt>
      <trkpt lat="42.478512" lon="1.571117">
        <time>2020-08-22T13:08:52Z</time>
      </trkpt>
      <trkpt lat="42.478512" lon="1.571117">
        <time>2020-08-22T13:08:52Z</time>
      </trkpt>
      <trkpt lat="42.478523" lon="1.571123">
        <time>2020-08-22T13:08:59Z</time>
      </trkpt>
      <trkpt lat="42.478523" lon="1.571123">
        <time>2020-08-22T13:08:59Z</time>
      </trkpt>
      <trkpt lat="42.478531" lon="1.571128">
        <time>2020-08-22T13:08:59Z</time>
      </trkpt>
      <trkpt lat="42.478531" lon="1.571128">
        <time>2020-08-22T13:08:59Z</time>
      </trkpt>
      <trkpt lat="42.478539" lon="1.571131">
        <time>2020-08-22T13:08:59Z</time>
      </trkpt>
      <trkpt lat="42.478539" lon="1.571131">
        <time>2020-08-22T13:08:59Z</time>
      </trkpt>
      <trkpt lat="42.478546" lon="1.571131">
        <time>2020-08-22T13:08:59Z</time>
      </trkpt>
      <trkpt lat="42.478546" lon="1.571131">
        <time>2020-08-22T13:08:59Z</time>
      </trkpt>
      <trkpt lat="42.478554" lon="1.571130">
        <time>2020-08-22T13:08:59Z</time>
      </trkpt>
      <trkpt lat="42.478554" lon="1.571130">
        <time>2020-08-22T13:08:59Z</time>
      </trkpt>
      <trkpt lat="42.478558" lon="1.571126">
        <time>2020-08-22T13:08:59Z</time>
      </trkpt>
      <trkpt lat="42.478558" lon="1.571126">
        <time>2020-08-22T13:08:59Z</time>
      </trkpt>
      <trkpt lat="42.478561" lon="1.571121">
        <time>2020-08-22T13:08:59Z</time>
      </trkpt>
      <trkpt lat="42.478561" lon="1.571121">
        <time>2020-08-22T13:08:59Z</time>
      </trkpt>
      <trkpt lat="42.478569" lon="1.571115">
        <time>2020-08-22T13:09:06Z</time>
      </trkpt>
      <trkpt lat="42.478569" lon="1.571115">
        <time>2020-08-22T13:09:06Z</time>
      </trkpt>
      <trkpt lat="42.478573" lon="1.571107">
        <time>2020-08-22T13:09:06Z</time>
      </trkpt>
      <trkpt lat="42.478573" lon="1.571107">
        <time>2020-08-22T13:09:06Z</time>
      </trkpt>
      <trkpt lat="42.478580" lon="1.571105">
        <time>2020-08-22T13:09:06Z</time>
      </trkpt>
      <trkpt lat="42.478580" lon="1.571105">
        <time>2020-08-22T13:09:06Z</time>
      </trkpt>
      <trkpt lat="42.478588" lon="1.571104">
        <time>2020-08-22T13:09:06Z</time>
      </trkpt>
      <trkpt lat="42.478588" lon="1.571104">
        <time>2020-08-22T13:09:06Z</time>
      </trkpt>
      <trkpt lat="42.478596" lon="1.571106">
        <time>2020-08-22T13:09:06Z</time>
      </trkpt>
      <trkpt lat="42.478596" lon="1.571106">
        <time>2020-08-22T13:09:06Z</time>
      </trkpt>
      <trkpt lat="42.478603" lon="1.571109">
        <time>2020-08-22T13:09:06Z</time>
      </trkpt>
      <trkpt lat="42.478603" lon="1.571109">
        <time>2020-08-22T13:09:06Z</time>
      </trkpt>
      <trkpt lat="42.478615" lon="1.571115">
        <time>2020-08-22T13:09:06Z</time>
      </trkpt>
      <trkpt lat="42.478615" lon="1.571115">
        <time>2020-08-22T13:09:06Z</time>
      </trkpt>
      <trkpt lat="42.478622" lon="1.571123">
        <time>2020-08-22T13:09:06Z</time>
      </trkpt>
      <trkpt lat="42.478622" lon="1.571123">
        <time>2020-08-22T13:09:06Z</time>
      </trkpt>
      <trkpt lat="42.478630" lon="1.571134">
        <time>2020-08-22T13:09:06Z</time>
      </trkpt>
      <trkpt lat="42.478630" lon="1.571134">
        <time>2020-08-22T13:09:06Z</time>
      </trkpt>
      <trkpt lat="42.478642" lon="1.571147">
        <time>2020-08-22T13:09:06Z</time>
      </trkpt>
      <trkpt lat="42.478642" lon="1.571147">
        <time>2020-08-22T13:09:06Z</time>
      </trkpt>
      <trkpt lat="42.478649" lon="1.571162">
        <time>2020-08-22T13:09:06Z</time>
      </trkpt>
      <trkpt lat="42.478649" lon="1.571162">
        <time>2020-08-22T13:09:06Z</time>
      </trkpt>
      <trkpt lat="42.478664" lon="1.571179">
        <time>2020-08-22T13:09:13Z</time>
      </trkpt>
      <trkpt lat="42.478664" lon="1.571179">
        <time>2020-08-22T13:09:13Z</time>
      </trkpt>
      <trkpt lat="42.478676" lon="1.571192">
        <time>2020-08-22T13:09:13Z</time>
      </trkpt>
      <trkpt lat="42.478676" lon="1.571192">
        <time>2020-08-22T13:09:13Z</time>
      </trkpt>
      <trkpt lat="42.478683" lon="1.571206">
        <time>2020-08-22T13:09:13Z</time>
      </trkpt>
      <trkpt lat="42.478683" lon="1.571206">
        <time>2020-08-22T13:09:13Z</time>
      </trkpt>
      <trkpt lat="42.478695" lon="1.571219">
        <time>2020-08-22T13:09:13Z</time>
      </trkpt>
      <trkpt lat="42.478695" lon="1.571219">
        <time>2020-08-22T13:09:13Z</time>
      </trkpt>
      <trkpt lat="42.478706" lon="1.571233">
        <time>2020-08-22T13:09:13Z</time>
      </trkpt>
      <trkpt lat="42.478706" lon="1.571233">
        <time>2020-08-22T13:09:13Z</time>
      </trkpt>
      <trkpt lat="42.478718" lon="1.571246">
        <time>2020-08-22T13:09:13Z</time>
      </trkpt>
      <trkpt lat="42.478718" lon="1.571246">
        <time>2020-08-22T13:09:13Z</time>
      </trkpt>
      <trkpt lat="42.478729" lon="1.571258">
        <time>2020-08-22T13:09:13Z</time>
      </trkpt>
      <trkpt lat="42.478729" lon="1.571258">
        <time>2020-08-22T13:09:13Z</time>
      </trkpt>
      <trkpt lat="42.478741" lon="1.571270">
        <time>2020-08-22T13:09:20Z</time>
      </trkpt>
      <trkpt lat="42.478741" lon="1.571270">
        <time>2020-08-22T13:09:20Z</time>
      </trkpt>
      <trkpt lat="42.478756" lon="1.571282">
        <time>2020-08-22T13:09:20Z</time>
      </trkpt>
      <trkpt lat="42.478756" lon="1.571282">
        <time>2020-08-22T13:09:20Z</time>
      </trkpt>
      <trkpt lat="42.478764" lon="1.571293">
        <time>2020-08-22T13:09:20Z</time>
      </trkpt>
      <trkpt lat="42.478764" lon="1.571293">
        <time>2020-08-22T13:09:20Z</time>
      </trkpt>
      <trkpt lat="42.478775" lon="1.571305">
        <time>2020-08-22T13:09:20Z</time>
      </trkpt>
      <trkpt lat="42.478775" lon="1.571305">
        <time>2020-08-22T13:09:20Z</time>
      </trkpt>
      <trkpt lat="42.478786" lon="1.571317">
        <time>2020-08-22T13:09:20Z</time>
      </trkpt>
      <trkpt lat="42.478786" lon="1.571317">
        <time>2020-08-22T13:09:20Z</time>
      </trkpt>
      <trkpt lat="42.478794" lon="1.571329">
        <time>2020-08-22T13:09:20Z</time>
      </trkpt>
      <trkpt lat="42.478794" lon="1.571329">
        <time>2020-08-22T13:09:20Z</time>
      </trkpt>
      <trkpt lat="42.478802" lon="1.571342">
        <time>2020-08-22T13:09:27Z</time>
      </trkpt>
      <trkpt lat="42.478802" lon="1.571342">
        <time>2020-08-22T13:09:27Z</time>
      </trkpt>
      <trkpt lat="42.478809" lon="1.571355">
        <time>2020-08-22T13:09:27Z</time>
      </trkpt>
      <trkpt lat="42.478809" lon="1.571355">
        <time>2020-08-22T13:09:27Z</time>
      </trkpt>
      <trkpt lat="42.478817" lon="1.571369">
        <time>2020-08-22T13:09:27Z</time>
      </trkpt>
      <trkpt lat="42.478817" lon="1.571369">
        <time>2020-08-22T13:09:27Z</time>
      </trkpt>
      <trkpt lat="42.478828" lon="1.571382">
        <time>2020-08-22T13:09:27Z</time>
      </trkpt>
      <trkpt lat="42.478828" lon="1.571382">
        <time>2020-08-22T13:09:27Z</time>
      </trkpt>
      <trkpt lat="42.478836" lon="1.571394">
        <time>2020-08-22T13:09:27Z</time>
      </trkpt>
      <trkpt lat="42.478836" lon="1.571394">
        <time>2020-08-22T13:09:27Z</time>
      </trkpt>
      <trkpt lat="42.478840" lon="1.571405">
        <time>2020-08-22T13:09:27Z</time>
      </trkpt>
      <trkpt lat="42.478840" lon="1.571405">
        <time>2020-08-22T13:09:27Z</time>
      </trkpt>
      <trkpt lat="42.478844" lon="1.571415">
        <time>2020-08-22T13:09:35Z</time>
      </trkpt>
      <trkpt lat="42.478844" lon="1.571415">
        <time>2020-08-22T13:09:35Z</time>
      </trkpt>
      <trkpt lat="42.478851" lon="1.571424">
        <time>2020-08-22T13:09:35Z</time>
      </trkpt>
      <trkpt lat="42.478851" lon="1.571424">
        <time>2020-08-22T13:09:35Z</time>
      </trkpt>
      <trkpt lat="42.478863" lon="1.571444">
        <time>2020-08-22T13:09:35Z</time>
      </trkpt>
      <trkpt lat="42.478863" lon="1.571444">
        <time>2020-08-22T13:09:35Z</time>
      </trkpt>
      <trkpt lat="42.478874" lon="1.571462">
        <time>2020-08-22T13:09:35Z</time>
      </trkpt>
      <trkpt lat="42.478874" lon="1.571462">
        <time>2020-08-22T13:09:35Z</time>
      </trkpt>
      <trkpt lat="42.478886" lon="1.571480">
        <time>2020-08-22T13:09:35Z</time>
      </trkpt>
      <trkpt lat="42.478886" lon="1.571480">
        <time>2020-08-22T13:09:35Z</time>
      </trkpt>
      <trkpt lat="42.478897" lon="1.571497">
        <time>2020-08-22T13:09:42Z</time>
      </trkpt>
      <trkpt lat="42.478897" lon="1.571497">
        <time>2020-08-22T13:09:42Z</time>
      </trkpt>
      <trkpt lat="42.478909" lon="1.571514">
        <time>2020-08-22T13:09:42Z</time>
      </trkpt>
      <trkpt lat="42.478909" lon="1.571514">
        <time>2020-08-22T13:09:42Z</time>
      </trkpt>
      <trkpt lat="42.478916" lon="1.571531">
        <time>2020-08-22T13:09:42Z</time>
      </trkpt>
      <trkpt lat="42.478916" lon="1.571531">
        <time>2020-08-22T13:09:42Z</time>
      </trkpt>
      <trkpt lat="42.478931" lon="1.571549">
        <time>2020-08-22T13:09:42Z</time>
      </trkpt>
      <trkpt lat="42.478931" lon="1.571549">
        <time>2020-08-22T13:09:42Z</time>
      </trkpt>
      <trkpt lat="42.478943" lon="1.571568">
        <time>2020-08-22T13:09:42Z</time>
      </trkpt>
      <trkpt lat="42.478943" lon="1.571568">
        <time>2020-08-22T13:09:42Z</time>
      </trkpt>
      <trkpt lat="42.478954" lon="1.571587">
        <time>2020-08-22T13:09:42Z</time>
      </trkpt>
      <trkpt lat="42.478954" lon="1.571587">
        <time>2020-08-22T13:09:42Z</time>
      </trkpt>
      <trkpt lat="42.478970" lon="1.571607">
        <time>2020-08-22T13:09:42Z</time>
      </trkpt>
      <trkpt lat="42.478970" lon="1.571607">
        <time>2020-08-22T13:09:42Z</time>
      </trkpt>
      <trkpt lat="42.479015" lon="1.571660">
        <time>2020-08-22T13:09:49Z</time>
      </trkpt>
      <trkpt lat="42.479015" lon="1.571660">
        <time>2020-08-22T13:09:49Z</time>
      </trkpt>
      <trkpt lat="42.479023" lon="1.571667">
        <time>2020-08-22T13:09:49Z</time>
      </trkpt>
      <trkpt lat="42.479023" lon="1.571667">
        <time>2020-08-22T13:09:49Z</time>
      </trkpt>
      <trkpt lat="42.479031" lon="1.571674">
        <time>2020-08-22T13:09:49Z</time>
      </trkpt>
      <trkpt lat="42.479031" lon="1.571674">
        <time>2020-08-22T13:09:49Z</time>
      </trkpt>
      <trkpt lat="42.479038" lon="1.571681">
        <time>2020-08-22T13:09:49Z</time>
      </trkpt>
      <trkpt lat="42.479038" lon="1.571681">
        <time>2020-08-22T13:09:49Z</time>
      </trkpt>
      <trkpt lat="42.479046" lon="1.571688">
        <time>2020-08-22T13:09:49Z</time>
      </trkpt>
      <trkpt lat="42.479046" lon="1.571688">
        <time>2020-08-22T13:09:49Z</time>
      </trkpt>
      <trkpt lat="42.479050" lon="1.571695">
        <time>2020-08-22T13:09:49Z</time>
      </trkpt>
      <trkpt lat="42.479050" lon="1.571695">
        <time>2020-08-22T13:09:49Z</time>
      </trkpt>
      <trkpt lat="42.479057" lon="1.571702">
        <time>2020-08-22T13:09:49Z</time>
      </trkpt>
      <trkpt lat="42.479057" lon="1.571702">
        <time>2020-08-22T13:09:49Z</time>
      </trkpt>
      <trkpt lat="42.479146" lon="1.571715">
        <ele>2066.2000000000003</ele>
        <time>2020-08-22T17:57:47Z</time>
      </trkpt>
      <trkpt lat="42.479158" lon="1.571837">
        <ele>2067.4</ele>
        <time>2020-08-22T17:58:24Z</time>
      </trkpt>
      <trkpt lat="42.479178" lon="1.5718949999999998">
        <ele>2069.1</ele>
        <time>2020-08-22T17:58:31Z</time>
      </trkpt>
      <trkpt lat="42.479197" lon="1.5719499999999997">
        <ele>2070.4</ele>
        <time>2020-08-22T17:58:36Z</time>
      </trkpt>
      <trkpt lat="42.479241" lon="1.5719689999999997">
        <ele>2071.8</ele>
        <time>2020-08-22T17:58:43Z</time>
      </trkpt>
      <trkpt lat="42.479307" lon="1.5719719999999997">
        <ele>2073.6000000000004</ele>
        <time>2020-08-22T18:00:24Z</time>
      </trkpt>
      <trkpt lat="42.479313" lon="1.5720339999999997">
        <ele>2074.7000000000003</ele>
        <time>2020-08-22T18:00:33Z</time>
      </trkpt>
      <trkpt lat="42.479310999999996" lon="1.5721009999999997">
        <ele>2075.7000000000003</ele>
        <time>2020-08-22T18:00:39Z</time>
      </trkpt>
      <trkpt lat="42.479319999999994" lon="1.5721759999999998">
        <ele>2077.0000000000005</ele>
        <time>2020-08-22T18:00:45Z</time>
      </trkpt>
      <trkpt lat="42.479344999999995" lon="1.5722269999999998">
        <ele>2078.5000000000005</ele>
        <time>2020-08-22T18:00:51Z</time>
      </trkpt>
      <trkpt lat="42.479358" lon="1.5722859999999999">
        <ele>2080.2000000000003</ele>
        <time>2020-08-22T18:00:59Z</time>
      </trkpt>
      <trkpt lat="42.479364" lon="1.5723559999999999">
        <ele>2081.5000000000005</ele>
        <time>2020-08-22T18:01:07Z</time>
      </trkpt>
      <trkpt lat="42.47937099999999" lon="1.5724269999999998">
        <ele>2083.0000000000005</ele>
        <time>2020-08-22T18:01:24Z</time>
      </trkpt>
      <trkpt lat="42.47937699999999" lon="1.5724909999999999">
        <ele>2084.2000000000003</ele>
        <time>2020-08-22T18:01:30Z</time>
      </trkpt>
      <trkpt lat="42.479417999999995" lon="1.5725299999999998">
        <ele>2084.8</ele>
        <time>2020-08-22T18:01:36Z</time>
      </trkpt>
      <trkpt lat="42.479462999999996" lon="1.5725419999999997">
        <ele>2084.7000000000003</ele>
        <time>2020-08-22T18:01:43Z</time>
      </trkpt>
      <trkpt lat="42.479502" lon="1.5725939999999996">
        <ele>2085.5000000000005</ele>
        <time>2020-08-22T18:01:56Z</time>
      </trkpt>
      <trkpt lat="42.479547" lon="1.5726179999999996">
        <ele>2085.3000000000006</ele>
        <time>2020-08-22T18:02:35Z</time>
      </trkpt>
      <trkpt lat="42.479597" lon="1.5726359999999997">
        <ele>2085.7000000000007</ele>
        <time>2020-08-22T18:02:49Z</time>
      </trkpt>
      <trkpt lat="42.47963" lon="1.5726839999999997">
        <ele>2086.9000000000005</ele>
        <time>2020-08-22T18:02:57Z</time>
      </trkpt>
      <trkpt lat="42.479671" lon="1.5727259999999998">
        <ele>2089.0000000000005</ele>
        <time>2020-08-22T18:03:06Z</time>
      </trkpt>
      <trkpt lat="42.479724000000004" lon="1.5727379999999997">
        <ele>2090.6000000000004</ele>
        <time>2020-08-22T18:03:21Z</time>
      </trkpt>
      <trkpt lat="42.479775000000004" lon="1.5727479999999998">
        <ele>2092.2000000000003</ele>
        <time>2020-08-22T18:03:30Z</time>
      </trkpt>
      <trkpt lat="42.47981" lon="1.5727099999999998">
        <ele>2092.2000000000003</ele>
        <time>2020-08-22T18:03:35Z</time>
      </trkpt>
      <trkpt lat="42.479857" lon="1.572698">
        <ele>2093.8</ele>
        <time>2020-08-22T18:03:44Z</time>
      </trkpt>
      <trkpt lat="42.479912000000006" lon="1.5726849999999999">
        <ele>2094.9</ele>
        <time>2020-08-22T18:03:49Z</time>
      </trkpt>
      <trkpt lat="42.479954000000006" lon="1.572649">
        <ele>2095.3</ele>
        <time>2020-08-22T18:03:57Z</time>
      </trkpt>
      <trkpt lat="42.479988000000006" lon="1.572579">
        <ele>2095.2000000000003</ele>
        <time>2020-08-22T18:04:03Z</time>
      </trkpt>
      <trkpt lat="42.48001200000001" lon="1.572514">
        <ele>2095.5000000000005</ele>
        <time>2020-08-22T18:04:08Z</time>
      </trkpt>
      <trkpt lat="42.48005700000001" lon="1.572454">
        <ele>2095.8000000000006</ele>
        <time>2020-08-22T18:04:13Z</time>
      </trkpt>
      <trkpt lat="42.48008400000001" lon="1.572389">
        <ele>2095.7000000000007</ele>
        <time>2020-08-22T18:04:18Z</time>
      </trkpt>
      <trkpt lat="42.48004500000001" lon="1.572297">
        <ele>2094.600000000001</ele>
        <time>2020-08-22T18:04:32Z</time>
      </trkpt>
      <trkpt lat="42.48004500000001" lon="1.572228">
        <ele>2093.3000000000006</ele>
        <time>2020-08-22T18:04:43Z</time>
      </trkpt>
      <trkpt lat="42.48002900000001" lon="1.572162">
        <ele>2092.100000000001</ele>
        <time>2020-08-22T18:04:53Z</time>
      </trkpt>
      <trkpt lat="42.480002000000006" lon="1.5720880000000002">
        <ele>2090.000000000001</ele>
        <time>2020-08-22T18:05:02Z</time>
      </trkpt>
      <trkpt lat="42.479988000000006" lon="1.572024">
        <ele>2087.600000000001</ele>
        <time>2020-08-22T18:05:11Z</time>
      </trkpt>
      <trkpt lat="42.479963000000005" lon="1.5719720000000001">
        <ele>2086.2000000000007</ele>
        <time>2020-08-22T18:05:17Z</time>
      </trkpt>
      <trkpt lat="42.479961" lon="1.5719100000000001">
        <ele>2085.000000000001</ele>
        <time>2020-08-22T18:05:25Z</time>
      </trkpt>
      <trkpt lat="42.479909000000006" lon="1.5718250000000002">
        <ele>2082.900000000001</ele>
        <time>2020-08-22T18:05:48Z</time>
      </trkpt>
      <trkpt lat="42.47989200000001" lon="1.5717660000000002">
        <ele>2080.300000000001</ele>
        <time>2020-08-22T18:06:06Z</time>
      </trkpt>
      <trkpt lat="42.47983000000001" lon="1.5717420000000002">
        <ele>2077.1000000000013</ele>
        <time>2020-08-22T18:06:44Z</time>
      </trkpt>
      <trkpt lat="42.47982100000001" lon="1.5716600000000003">
        <ele>2074.4000000000015</ele>
        <time>2020-08-22T18:07:00Z</time>
      </trkpt>
      <trkpt lat="42.47978100000001" lon="1.5715470000000002">
        <ele>2072.6000000000013</ele>
        <time>2020-08-22T18:07:55Z</time>
      </trkpt>
      <trkpt lat="42.47983000000001" lon="1.5715070000000002">
        <ele>2070.4000000000015</ele>
        <time>2020-08-22T18:08:07Z</time>
      </trkpt>
      <trkpt lat="42.47984400000001" lon="1.5714360000000003">
        <ele>2068.4000000000015</ele>
        <time>2020-08-22T18:08:17Z</time>
      </trkpt>
      <trkpt lat="42.479808000000006" lon="1.5713980000000003">
        <ele>2066.9000000000015</ele>
        <time>2020-08-22T18:08:24Z</time>
      </trkpt>
      <trkpt lat="42.479781" lon="1.5713460000000004">
        <ele>2064.5000000000014</ele>
        <time>2020-08-22T18:08:33Z</time>
      </trkpt>
      <trkpt lat="42.479834000000004" lon="1.5712500000000003">
        <ele>2062.5000000000014</ele>
        <time>2020-08-22T18:09:00Z</time>
      </trkpt>
      <trkpt lat="42.479801" lon="1.5712040000000003">
        <ele>2060.1000000000013</ele>
        <time>2020-08-22T18:09:19Z</time>
      </trkpt>
      <trkpt lat="42.479855" lon="1.5711820000000003">
        <ele>2060.0000000000014</ele>
        <time>2020-08-22T18:09:58Z</time>
      </trkpt>
      <trkpt lat="42.479803000000004" lon="1.5711510000000004">
        <ele>2060.0000000000014</ele>
        <time>2020-08-22T18:10:05Z</time>
      </trkpt>
      <trkpt lat="42.47984400000001" lon="1.5711180000000005">
        <ele>2060.0000000000014</ele>
        <time>2020-08-22T18:10:10Z</time>
      </trkpt>
      <trkpt lat="42.47982900000001" lon="1.5710220000000004">
        <ele>2055.0000000000014</ele>
        <time>2020-08-22T18:12:54Z</time>
      </trkpt>
      <trkpt lat="42.47984300000001" lon="1.5709170000000003">
        <ele>2052.700000000001</ele>
        <time>2020-08-22T18:13:11Z</time>
      </trkpt>
      <trkpt lat="42.47981800000001" lon="1.5708330000000004">
        <ele>2049.5000000000014</ele>
        <time>2020-08-22T18:13:31Z</time>
      </trkpt>
      <trkpt lat="42.47976700000001" lon="1.5708190000000004">
        <ele>2047.4000000000015</ele>
        <time>2020-08-22T18:13:41Z</time>
      </trkpt>
      <trkpt lat="42.47978000000001" lon="1.5707560000000005">
        <ele>2044.1000000000015</ele>
        <time>2020-08-22T18:13:53Z</time>
      </trkpt>
      <trkpt lat="42.47980600000001" lon="1.5707040000000005">
        <ele>2042.0000000000016</ele>
        <time>2020-08-22T18:14:02Z</time>
      </trkpt>
      <trkpt lat="42.47982900000001" lon="1.5706460000000007">
        <ele>2040.7000000000016</ele>
        <time>2020-08-22T18:14:09Z</time>
      </trkpt>
      <trkpt lat="42.47986700000001" lon="1.5705930000000006">
        <ele>2039.7000000000016</ele>
        <time>2020-08-22T18:14:14Z</time>
      </trkpt>
      <trkpt lat="42.47985100000001" lon="1.5704570000000007">
        <ele>2038.2000000000016</ele>
        <time>2020-08-22T18:14:36Z</time>
      </trkpt>
      <trkpt lat="42.47982800000001" lon="1.5704040000000006">
        <ele>2034.1000000000017</ele>
        <time>2020-08-22T18:15:42Z</time>
      </trkpt>
      <trkpt lat="42.479866000000015" lon="1.5703660000000006">
        <ele>2032.7000000000016</ele>
        <time>2020-08-22T18:15:57Z</time>
      </trkpt>
      <trkpt lat="42.479886000000015" lon="1.5703100000000005">
        <ele>2032.3000000000015</ele>
        <time>2020-08-22T18:16:28Z</time>
      </trkpt>
      <trkpt lat="42.479911000000016" lon="1.5702550000000006">
        <ele>2030.6000000000015</ele>
        <time>2020-08-22T18:16:48Z</time>
      </trkpt>
      <trkpt lat="42.47995500000002" lon="1.5702350000000007">
        <ele>2029.2000000000014</ele>
        <time>2020-08-22T18:16:57Z</time>
      </trkpt>
      <trkpt lat="42.47994100000002" lon="1.5701720000000008">
        <ele>2027.6000000000015</ele>
        <time>2020-08-22T18:17:10Z</time>
      </trkpt>
      <trkpt lat="42.479894000000016" lon="1.5701720000000008">
        <ele>2026.3000000000015</ele>
        <time>2020-08-22T18:17:18Z</time>
      </trkpt>
      <trkpt lat="42.479948000000014" lon="1.5701300000000007">
        <ele>2024.0000000000016</ele>
        <time>2020-08-22T18:17:43Z</time>
      </trkpt>
      <trkpt lat="42.47994400000002" lon="1.5700530000000006">
        <ele>2022.4000000000017</ele>
        <time>2020-08-22T18:17:53Z</time>
      </trkpt>
      <trkpt lat="42.47989800000002" lon="1.5700120000000006">
        <ele>2021.0000000000016</ele>
        <time>2020-08-22T18:18:01Z</time>
      </trkpt>
      <trkpt lat="42.479860000000016" lon="1.5699720000000006">
        <ele>2020.4000000000017</ele>
        <time>2020-08-22T18:18:04Z</time>
      </trkpt>
      <trkpt lat="42.479908000000016" lon="1.5699420000000006">
        <ele>2018.9000000000017</ele>
        <time>2020-08-22T18:18:47Z</time>
      </trkpt>
      <trkpt lat="42.479878000000014" lon="1.5698500000000006">
        <ele>2016.3000000000018</ele>
        <time>2020-08-22T18:19:12Z</time>
      </trkpt>
      <trkpt lat="42.47982900000002" lon="1.5698740000000007">
        <ele>2014.4000000000017</ele>
        <time>2020-08-22T18:19:36Z</time>
      </trkpt>
      <trkpt lat="42.47979500000002" lon="1.5698230000000006">
        <ele>2012.9000000000017</ele>
        <time>2020-08-22T18:19:48Z</time>
      </trkpt>
      <trkpt lat="42.47984000000002" lon="1.5697880000000006">
        <ele>2009.0000000000016</ele>
        <time>2020-08-22T18:20:07Z</time>
      </trkpt>
      <trkpt lat="42.47987300000002" lon="1.5697440000000007">
        <ele>2007.7000000000016</ele>
        <time>2020-08-22T18:20:13Z</time>
      </trkpt>
      <trkpt lat="42.47987200000002" lon="1.5696580000000007">
        <ele>2005.7000000000016</ele>
        <time>2020-08-22T18:20:27Z</time>
      </trkpt>
      <trkpt lat="42.47990400000002" lon="1.5696150000000006">
        <ele>2004.8000000000015</ele>
        <time>2020-08-22T18:20:31Z</time>
      </trkpt>
      <trkpt lat="42.479939000000016" lon="1.5695580000000007">
        <ele>2002.3000000000015</ele>
        <time>2020-08-22T18:20:41Z</time>
      </trkpt>
      <trkpt lat="42.479956000000016" lon="1.5694980000000007">
        <ele>2000.3000000000015</ele>
        <time>2020-08-22T18:20:50Z</time>
      </trkpt>
      <trkpt lat="42.48000200000001" lon="1.5694370000000006">
        <ele>1999.5000000000016</ele>
        <time>2020-08-22T18:20:54Z</time>
      </trkpt>
      <trkpt lat="42.480024000000014" lon="1.5693770000000007">
        <ele>1998.5000000000016</ele>
        <time>2020-08-22T18:21:00Z</time>
      </trkpt>
      <trkpt lat="42.480060000000016" lon="1.5693320000000006">
        <ele>1997.5000000000016</ele>
        <time>2020-08-22T18:21:06Z</time>
      </trkpt>
      <trkpt lat="42.48009600000002" lon="1.5692900000000005">
        <ele>1996.2000000000016</ele>
        <time>2020-08-22T18:21:13Z</time>
      </trkpt>
      <trkpt lat="42.480131000000014" lon="1.5692490000000006">
        <ele>1995.6000000000017</ele>
        <time>2020-08-22T18:21:16Z</time>
      </trkpt>
      <trkpt lat="42.48014100000002" lon="1.5691600000000006">
        <ele>1993.4000000000017</ele>
        <time>2020-08-22T18:21:27Z</time>
      </trkpt>
      <trkpt lat="42.48010700000002" lon="1.5690950000000006">
        <ele>1992.2000000000016</ele>
        <time>2020-08-22T18:21:33Z</time>
      </trkpt>
      <trkpt lat="42.48007800000002" lon="1.5690400000000007">
        <ele>1991.7000000000016</ele>
        <time>2020-08-22T18:21:42Z</time>
      </trkpt>
      <trkpt lat="42.48015000000002" lon="1.5691030000000006">
        <ele>1991.7000000000016</ele>
        <time>2020-08-22T18:22:52Z</time>
      </trkpt>
      <trkpt lat="42.480101000000026" lon="1.5690220000000006">
        <ele>1990.2000000000016</ele>
        <time>2020-08-22T18:23:06Z</time>
      </trkpt>
      <trkpt lat="42.480071000000024" lon="1.5689470000000005">
        <ele>1988.4000000000017</ele>
        <time>2020-08-22T18:23:13Z</time>
      </trkpt>
      <trkpt lat="42.48003300000002" lon="1.5688960000000005">
        <ele>1986.9000000000017</ele>
        <time>2020-08-22T18:23:20Z</time>
      </trkpt>
      <trkpt lat="42.48003900000002" lon="1.5688350000000004">
        <ele>1984.2000000000016</ele>
        <time>2020-08-22T18:23:34Z</time>
      </trkpt>
      <trkpt lat="42.48007200000002" lon="1.5687940000000005">
        <ele>1983.2000000000016</ele>
        <time>2020-08-22T18:23:40Z</time>
      </trkpt>
      <trkpt lat="42.480113000000024" lon="1.5687470000000006">
        <ele>1981.5000000000016</ele>
        <time>2020-08-22T18:23:49Z</time>
      </trkpt>
      <trkpt lat="42.48014500000002" lon="1.5686900000000006">
        <ele>1980.5000000000016</ele>
        <time>2020-08-22T18:24:17Z</time>
      </trkpt>
      <trkpt lat="42.48018700000002" lon="1.5686570000000006">
        <ele>1979.9000000000017</ele>
        <time>2020-08-22T18:24:22Z</time>
      </trkpt>
      <trkpt lat="42.480231000000025" lon="1.5686890000000007">
        <ele>1978.6000000000017</ele>
        <time>2020-08-22T18:24:31Z</time>
      </trkpt>
      <trkpt lat="42.48027700000002" lon="1.5686830000000007">
        <ele>1978.0000000000018</ele>
        <time>2020-08-22T18:24:37Z</time>
      </trkpt>
      <trkpt lat="42.48026100000002" lon="1.5686180000000007">
        <ele>1978.3000000000018</ele>
        <time>2020-08-22T18:25:26Z</time>
      </trkpt>
      <trkpt lat="42.48030900000002" lon="1.5685930000000008">
        <ele>1977.2000000000019</ele>
        <time>2020-08-22T18:25:30Z</time>
      </trkpt>
      <trkpt lat="42.48035400000002" lon="1.5685690000000008">
        <ele>1976.100000000002</ele>
        <time>2020-08-22T18:25:38Z</time>
      </trkpt>
      <trkpt lat="42.48040800000002" lon="1.5685400000000007">
        <ele>1973.900000000002</ele>
        <time>2020-08-22T18:25:49Z</time>
      </trkpt>
      <trkpt lat="42.48044700000002" lon="1.5684810000000007">
        <ele>1972.600000000002</ele>
        <time>2020-08-22T18:25:54Z</time>
      </trkpt>
      <trkpt lat="42.48043600000002" lon="1.5684050000000007">
        <ele>1971.7000000000019</ele>
        <time>2020-08-22T18:25:59Z</time>
      </trkpt>
      <trkpt lat="42.48048100000002" lon="1.5683680000000007">
        <ele>1971.0000000000018</ele>
        <time>2020-08-22T18:26:03Z</time>
      </trkpt>
      <trkpt lat="42.48052100000002" lon="1.5683380000000007">
        <ele>1969.900000000002</ele>
        <time>2020-08-22T18:26:08Z</time>
      </trkpt>
      <trkpt lat="42.480561000000016" lon="1.5682910000000008">
        <ele>1968.900000000002</ele>
        <time>2020-08-22T18:26:13Z</time>
      </trkpt>
      <trkpt lat="42.48058000000002" lon="1.5682340000000008">
        <ele>1967.800000000002</ele>
        <time>2020-08-22T18:26:18Z</time>
      </trkpt>
      <trkpt lat="42.48062400000002" lon="1.568203000000001">
        <ele>1966.500000000002</ele>
        <time>2020-08-22T18:26:24Z</time>
      </trkpt>
      <trkpt lat="42.48060200000002" lon="1.568143000000001">
        <ele>1965.4000000000021</ele>
        <time>2020-08-22T18:26:28Z</time>
      </trkpt>
      <trkpt lat="42.48063900000002" lon="1.568086000000001">
        <ele>1964.500000000002</ele>
        <time>2020-08-22T18:26:32Z</time>
      </trkpt>
      <trkpt lat="42.48068000000002" lon="1.568040000000001">
        <ele>1963.500000000002</ele>
        <time>2020-08-22T18:26:37Z</time>
      </trkpt>
      <trkpt lat="42.48071600000002" lon="1.567993000000001">
        <ele>1961.800000000002</ele>
        <time>2020-08-22T18:26:52Z</time>
      </trkpt>
      <trkpt lat="42.48075500000002" lon="1.567923000000001">
        <ele>1959.400000000002</ele>
        <time>2020-08-22T18:27:17Z</time>
      </trkpt>
      <trkpt lat="42.48075900000002" lon="1.567837000000001">
        <ele>1957.400000000002</ele>
        <time>2020-08-22T18:28:10Z</time>
      </trkpt>
      <trkpt lat="42.48079100000002" lon="1.567785000000001">
        <ele>1955.7000000000019</ele>
        <time>2020-08-22T18:28:20Z</time>
      </trkpt>
      <trkpt lat="42.48083500000002" lon="1.567775000000001">
        <ele>1954.600000000002</ele>
        <time>2020-08-22T18:28:25Z</time>
      </trkpt>
      <trkpt lat="42.48088100000002" lon="1.567753000000001">
        <ele>1953.500000000002</ele>
        <time>2020-08-22T18:28:31Z</time>
      </trkpt>
      <trkpt lat="42.48095300000002" lon="1.567786000000001">
        <ele>1951.200000000002</ele>
        <time>2020-08-22T18:28:50Z</time>
      </trkpt>
      <trkpt lat="42.48099900000002" lon="1.567805000000001">
        <ele>1950.4000000000021</ele>
        <time>2020-08-22T18:28:56Z</time>
      </trkpt>
      <trkpt lat="42.481051000000015" lon="1.567806000000001">
        <ele>1949.200000000002</ele>
        <time>2020-08-22T18:29:03Z</time>
      </trkpt>
      <trkpt lat="42.48109800000002" lon="1.5677910000000008">
        <ele>1948.200000000002</ele>
        <time>2020-08-22T18:29:08Z</time>
      </trkpt>
      <trkpt lat="42.481121000000016" lon="1.5677370000000008">
        <ele>1947.200000000002</ele>
        <time>2020-08-22T18:29:13Z</time>
      </trkpt>
      <trkpt lat="42.481152000000016" lon="1.5676890000000008">
        <ele>1946.000000000002</ele>
        <time>2020-08-22T18:29:18Z</time>
      </trkpt>
      <trkpt lat="42.481105000000014" lon="1.5676760000000007">
        <ele>1945.600000000002</ele>
        <time>2020-08-22T18:29:31Z</time>
      </trkpt>
      <trkpt lat="42.48106900000001" lon="1.5677470000000007">
        <ele>1948.400000000002</ele>
        <time>2020-08-22T18:30:18Z</time>
      </trkpt>
      <trkpt lat="42.481102000000014" lon="1.5677030000000007">
        <ele>1946.600000000002</ele>
        <time>2020-08-22T18:30:33Z</time>
      </trkpt>
      <trkpt lat="42.481150000000014" lon="1.5676500000000007">
        <ele>1944.900000000002</ele>
        <time>2020-08-22T18:31:08Z</time>
      </trkpt>
      <trkpt lat="42.481192000000014" lon="1.5676110000000008">
        <ele>1944.100000000002</ele>
        <time>2020-08-22T18:31:15Z</time>
      </trkpt>
      <trkpt lat="42.48123300000002" lon="1.5675570000000008">
        <ele>1941.900000000002</ele>
        <time>2020-08-22T18:31:25Z</time>
      </trkpt>
      <trkpt lat="42.481290000000016" lon="1.5674000000000008">
        <ele>1939.2000000000019</ele>
        <time>2020-08-22T18:31:47Z</time>
      </trkpt>
      <trkpt lat="42.48133700000002" lon="1.5674300000000008">
        <ele>1938.0000000000018</ele>
        <time>2020-08-22T18:31:55Z</time>
      </trkpt>
      <trkpt lat="42.48140500000002" lon="1.5674220000000008">
        <ele>1936.400000000002</ele>
        <time>2020-08-22T18:32:02Z</time>
      </trkpt>
      <trkpt lat="42.481454000000014" lon="1.5673990000000007">
        <ele>1935.7000000000019</ele>
        <time>2020-08-22T18:32:07Z</time>
      </trkpt>
      <trkpt lat="42.48150300000001" lon="1.5673490000000005">
        <ele>1935.2000000000019</ele>
        <time>2020-08-22T18:32:11Z</time>
      </trkpt>
      <trkpt lat="42.48152400000001" lon="1.5672510000000006">
        <ele>1934.400000000002</ele>
        <time>2020-08-22T18:32:36Z</time>
      </trkpt>
      <trkpt lat="42.48154800000001" lon="1.5671940000000006">
        <ele>1933.5000000000018</ele>
        <time>2020-08-22T18:32:45Z</time>
      </trkpt>
      <trkpt lat="42.48159300000001" lon="1.5671710000000005">
        <ele>1932.900000000002</ele>
        <time>2020-08-22T18:32:48Z</time>
      </trkpt>
      <trkpt lat="42.48163900000001" lon="1.5671390000000005">
        <ele>1931.900000000002</ele>
        <time>2020-08-22T18:32:53Z</time>
      </trkpt>
      <trkpt lat="42.48169200000001" lon="1.5670970000000004">
        <ele>1931.2000000000019</ele>
        <time>2020-08-22T18:32:59Z</time>
      </trkpt>
      <trkpt lat="42.48174700000001" lon="1.5670610000000005">
        <ele>1930.900000000002</ele>
        <time>2020-08-22T18:33:01Z</time>
      </trkpt>
      <trkpt lat="42.481805000000016" lon="1.5670780000000004">
        <ele>1930.600000000002</ele>
        <time>2020-08-22T18:33:04Z</time>
      </trkpt>
      <trkpt lat="42.48184900000002" lon="1.5670470000000005">
        <ele>1930.100000000002</ele>
        <time>2020-08-22T18:33:08Z</time>
      </trkpt>
      <trkpt lat="42.48187400000002" lon="1.5669870000000006">
        <ele>1929.600000000002</ele>
        <time>2020-08-22T18:33:15Z</time>
      </trkpt>
      <trkpt lat="42.48193300000002" lon="1.5669740000000005">
        <ele>1929.400000000002</ele>
        <time>2020-08-22T18:33:19Z</time>
      </trkpt>
      <trkpt lat="42.48199800000002" lon="1.5669580000000005">
        <ele>1929.2000000000019</ele>
        <time>2020-08-22T18:33:27Z</time>
      </trkpt>
      <trkpt lat="42.48204900000002" lon="1.5669630000000005">
        <ele>1928.400000000002</ele>
        <time>2020-08-22T18:33:32Z</time>
      </trkpt>
      <trkpt lat="42.482092000000016" lon="1.5669390000000005">
        <ele>1928.0000000000018</ele>
        <time>2020-08-22T18:33:35Z</time>
      </trkpt>
      <trkpt lat="42.482137000000016" lon="1.5669100000000005">
        <ele>1928.0000000000018</ele>
        <time>2020-08-22T18:33:38Z</time>
      </trkpt>
      <trkpt lat="42.482180000000014" lon="1.5668840000000004">
        <ele>1928.1000000000017</ele>
        <time>2020-08-22T18:33:42Z</time>
      </trkpt>
      <trkpt lat="42.48222600000001" lon="1.5668360000000003">
        <ele>1928.2000000000016</ele>
        <time>2020-08-22T18:33:46Z</time>
      </trkpt>
      <trkpt lat="42.48225900000001" lon="1.5667820000000003">
        <ele>1927.5000000000016</ele>
        <time>2020-08-22T18:33:53Z</time>
      </trkpt>
      <trkpt lat="42.48230800000001" lon="1.5667710000000004">
        <ele>1927.1000000000015</ele>
        <time>2020-08-22T18:33:57Z</time>
      </trkpt>
      <trkpt lat="42.48235800000001" lon="1.5667720000000003">
        <ele>1927.1000000000015</ele>
        <time>2020-08-22T18:34:01Z</time>
      </trkpt>
      <trkpt lat="42.48240400000001" lon="1.5667460000000002">
        <ele>1927.3000000000015</ele>
        <time>2020-08-22T18:34:06Z</time>
      </trkpt>
      <trkpt lat="42.48244800000001" lon="1.5667240000000002">
        <ele>1927.5000000000016</ele>
        <time>2020-08-22T18:34:09Z</time>
      </trkpt>
      <trkpt lat="42.48250000000001" lon="1.5666970000000002">
        <ele>1927.6000000000015</ele>
        <time>2020-08-22T18:34:13Z</time>
      </trkpt>
      <trkpt lat="42.48261200000001" lon="1.5666560000000003">
        <ele>1928.2000000000014</ele>
        <time>2020-08-22T18:34:45Z</time>
      </trkpt>
      <trkpt lat="42.482636000000014" lon="1.5665960000000003">
        <ele>1926.5000000000014</ele>
        <time>2020-08-22T18:34:53Z</time>
      </trkpt>
      <trkpt lat="42.482669000000016" lon="1.5665470000000004">
        <ele>1926.3000000000013</ele>
        <time>2020-08-22T18:34:59Z</time>
      </trkpt>
      <trkpt lat="42.482686000000015" lon="1.5664910000000003">
        <ele>1925.8000000000013</ele>
        <time>2020-08-22T18:35:04Z</time>
      </trkpt>
      <trkpt lat="42.482669000000016" lon="1.5664290000000003">
        <ele>1924.6000000000013</ele>
        <time>2020-08-22T18:35:13Z</time>
      </trkpt>
      <trkpt lat="42.482714000000016" lon="1.5664430000000003">
        <ele>1923.5000000000014</ele>
        <time>2020-08-22T18:36:16Z</time>
      </trkpt>
      <trkpt lat="42.48276100000002" lon="1.5664170000000002">
        <ele>1922.5000000000014</ele>
        <time>2020-08-22T18:36:26Z</time>
      </trkpt>
      <trkpt lat="42.48273200000002" lon="1.5663520000000002">
        <ele>1922.9000000000015</ele>
        <time>2020-08-22T18:36:38Z</time>
      </trkpt>
      <trkpt lat="42.48278300000002" lon="1.5663410000000002">
        <ele>1922.3000000000015</ele>
        <time>2020-08-22T18:36:45Z</time>
      </trkpt>
      <trkpt lat="42.48282200000002" lon="1.5663010000000002">
        <ele>1921.9000000000015</ele>
        <time>2020-08-22T18:36:49Z</time>
      </trkpt>
      <trkpt lat="42.48284700000002" lon="1.5662420000000001">
        <ele>1921.5000000000014</ele>
        <time>2020-08-22T18:36:55Z</time>
      </trkpt>
      <trkpt lat="42.48288600000002" lon="1.566165">
        <ele>1921.4000000000015</ele>
        <time>2020-08-22T18:37:12Z</time>
      </trkpt>
      <trkpt lat="42.48293700000002" lon="1.566162">
        <ele>1920.3000000000015</ele>
        <time>2020-08-22T18:37:18Z</time>
      </trkpt>
      <trkpt lat="42.48298800000002" lon="1.566168">
        <ele>1919.7000000000016</ele>
        <time>2020-08-22T18:37:25Z</time>
      </trkpt>
      <trkpt lat="42.48303400000002" lon="1.566206">
        <ele>1920.0000000000016</ele>
        <time>2020-08-22T18:37:39Z</time>
      </trkpt>
      <trkpt lat="42.48298800000002" lon="1.566132">
        <ele>1920.2000000000016</ele>
        <time>2020-08-22T18:38:52Z</time>
      </trkpt>
      <trkpt lat="42.48304200000002" lon="1.566113">
        <ele>1918.9000000000017</ele>
        <time>2020-08-22T18:38:58Z</time>
      </trkpt>
      <trkpt lat="42.48308600000002" lon="1.566097">
        <ele>1917.3000000000018</ele>
        <time>2020-08-22T18:39:06Z</time>
      </trkpt>
      <trkpt lat="42.48313400000002" lon="1.566097">
        <ele>1916.3000000000018</ele>
        <time>2020-08-22T18:39:11Z</time>
      </trkpt>
      <trkpt lat="42.48318100000002" lon="1.566103">
        <ele>1915.8000000000018</ele>
        <time>2020-08-22T18:39:15Z</time>
      </trkpt>
      <trkpt lat="42.48322700000002" lon="1.566103">
        <ele>1915.2000000000019</ele>
        <time>2020-08-22T18:39:20Z</time>
      </trkpt>
      <trkpt lat="42.48328300000002" lon="1.566106">
        <ele>1914.400000000002</ele>
        <time>2020-08-22T18:39:26Z</time>
      </trkpt>
      <trkpt lat="42.48333100000002" lon="1.5661">
        <ele>1913.7000000000019</ele>
        <time>2020-08-22T18:39:30Z</time>
      </trkpt>
      <trkpt lat="42.48337300000002" lon="1.566067">
        <ele>1912.600000000002</ele>
        <time>2020-08-22T18:39:37Z</time>
      </trkpt>
      <trkpt lat="42.48342900000002" lon="1.566049">
        <ele>1911.800000000002</ele>
        <time>2020-08-22T18:39:42Z</time>
      </trkpt>
      <trkpt lat="42.48341900000002" lon="1.565962">
        <ele>1911.100000000002</ele>
        <time>2020-08-22T18:40:02Z</time>
      </trkpt>
      <trkpt lat="42.48345200000002" lon="1.565903">
        <ele>1909.600000000002</ele>
        <time>2020-08-22T18:40:52Z</time>
      </trkpt>
      <trkpt lat="42.48349800000002" lon="1.56587">
        <ele>1907.900000000002</ele>
        <time>2020-08-22T18:41:00Z</time>
      </trkpt>
      <trkpt lat="42.483533000000016" lon="1.565825">
        <ele>1906.7000000000019</ele>
        <time>2020-08-22T18:41:07Z</time>
      </trkpt>
      <trkpt lat="42.48355500000002" lon="1.565771">
        <ele>1905.3000000000018</ele>
        <time>2020-08-22T18:41:50Z</time>
      </trkpt>
      <trkpt lat="42.483598000000015" lon="1.565728">
        <ele>1903.5000000000018</ele>
        <time>2020-08-22T18:42:06Z</time>
      </trkpt>
      <trkpt lat="42.483643000000015" lon="1.5657">
        <ele>1901.8000000000018</ele>
        <time>2020-08-22T18:42:19Z</time>
      </trkpt>
      <trkpt lat="42.48369000000002" lon="1.565685">
        <ele>1901.1000000000017</ele>
        <time>2020-08-22T18:42:25Z</time>
      </trkpt>
      <trkpt lat="42.483725000000014" lon="1.565644">
        <ele>1900.2000000000016</ele>
        <time>2020-08-22T18:42:32Z</time>
      </trkpt>
      <trkpt lat="42.48376800000001" lon="1.56562">
        <ele>1899.4000000000017</ele>
        <time>2020-08-22T18:42:36Z</time>
      </trkpt>
      <trkpt lat="42.48378000000001" lon="1.56556">
        <ele>1898.7000000000016</ele>
        <time>2020-08-22T18:42:41Z</time>
      </trkpt>
      <trkpt lat="42.48381900000001" lon="1.565493">
        <ele>1897.4000000000017</ele>
        <time>2020-08-22T18:42:54Z</time>
      </trkpt>
      <trkpt lat="42.48386500000001" lon="1.565442">
        <ele>1896.2000000000016</ele>
        <time>2020-08-22T18:43:08Z</time>
      </trkpt>
      <trkpt lat="42.48388100000001" lon="1.565364">
        <ele>1895.1000000000017</ele>
        <time>2020-08-22T18:43:19Z</time>
      </trkpt>
      <trkpt lat="42.48390200000001" lon="1.565298">
        <ele>1893.6000000000017</ele>
        <time>2020-08-22T18:43:30Z</time>
      </trkpt>
      <trkpt lat="42.48393900000001" lon="1.5652490000000001">
        <ele>1892.5000000000018</ele>
        <time>2020-08-22T18:43:39Z</time>
      </trkpt>
      <trkpt lat="42.483990000000006" lon="1.5651780000000002">
        <ele>1890.8000000000018</ele>
        <time>2020-08-22T18:43:49Z</time>
      </trkpt>
      <trkpt lat="42.484013000000004" lon="1.5651120000000003">
        <ele>1889.9000000000017</ele>
        <time>2020-08-22T18:43:56Z</time>
      </trkpt>
      <trkpt lat="42.48405100000001" lon="1.5650640000000002">
        <ele>1889.0000000000016</ele>
        <time>2020-08-22T18:44:09Z</time>
      </trkpt>
      <trkpt lat="42.48409100000001" lon="1.5650190000000002">
        <ele>1887.5000000000016</ele>
        <time>2020-08-22T18:44:18Z</time>
      </trkpt>
      <trkpt lat="42.48412400000001" lon="1.5649610000000003">
        <ele>1885.8000000000015</ele>
        <time>2020-08-22T18:44:26Z</time>
      </trkpt>
      <trkpt lat="42.48416100000001" lon="1.5649240000000002">
        <ele>1884.2000000000016</ele>
        <time>2020-08-22T18:44:33Z</time>
      </trkpt>
      <trkpt lat="42.48422200000001" lon="1.5649040000000003">
        <ele>1883.2000000000016</ele>
        <time>2020-08-22T18:44:39Z</time>
      </trkpt>
      <trkpt lat="42.48427600000001" lon="1.5648930000000003">
        <ele>1882.6000000000017</ele>
        <time>2020-08-22T18:44:44Z</time>
      </trkpt>
      <trkpt lat="42.48432700000001" lon="1.5648680000000004">
        <ele>1881.8000000000018</ele>
        <time>2020-08-22T18:44:52Z</time>
      </trkpt>
      <trkpt lat="42.48437700000001" lon="1.5648680000000004">
        <ele>1881.6000000000017</ele>
        <time>2020-08-22T18:44:57Z</time>
      </trkpt>
      <trkpt lat="42.48439700000001" lon="1.5648100000000005">
        <ele>1879.4000000000017</ele>
        <time>2020-08-22T18:45:18Z</time>
      </trkpt>
      <trkpt lat="42.48442100000001" lon="1.5647490000000004">
        <ele>1878.5000000000016</ele>
        <time>2020-08-22T18:45:26Z</time>
      </trkpt>
      <trkpt lat="42.48448900000001" lon="1.5648130000000005">
        <ele>1877.2000000000016</ele>
        <time>2020-08-22T18:45:42Z</time>
      </trkpt>
      <trkpt lat="42.48453400000001" lon="1.5648250000000004">
        <ele>1875.7000000000016</ele>
        <time>2020-08-22T18:45:52Z</time>
      </trkpt>
      <trkpt lat="42.48457700000001" lon="1.5647740000000003">
        <ele>1873.8000000000015</ele>
        <time>2020-08-22T18:46:02Z</time>
      </trkpt>
      <trkpt lat="42.48458600000001" lon="1.5646280000000004">
        <ele>1873.5000000000016</ele>
        <time>2020-08-22T18:46:21Z</time>
      </trkpt>
      <trkpt lat="42.484638000000004" lon="1.5646390000000003">
        <ele>1872.5000000000016</ele>
        <time>2020-08-22T18:46:25Z</time>
      </trkpt>
      <trkpt lat="42.484674000000005" lon="1.5646840000000004">
        <ele>1871.2000000000016</ele>
        <time>2020-08-22T18:46:31Z</time>
      </trkpt>
      <trkpt lat="42.48471800000001" lon="1.5647120000000003">
        <ele>1870.1000000000017</ele>
        <time>2020-08-22T18:46:45Z</time>
      </trkpt>
      <trkpt lat="42.484750000000005" lon="1.5646470000000003">
        <ele>1868.1000000000017</ele>
        <time>2020-08-22T18:46:56Z</time>
      </trkpt>
      <trkpt lat="42.484795000000005" lon="1.5646100000000003">
        <ele>1866.5000000000018</ele>
        <time>2020-08-22T18:47:07Z</time>
      </trkpt>
      <trkpt lat="42.484765" lon="1.5645650000000002">
        <ele>1866.2000000000019</ele>
        <time>2020-08-22T18:47:25Z</time>
      </trkpt>
      <trkpt lat="42.484795000000005" lon="1.5645180000000003">
        <ele>1864.5000000000018</ele>
        <time>2020-08-22T18:47:39Z</time>
      </trkpt>
      <trkpt lat="42.484922000000005" lon="1.5644930000000004">
        <ele>1863.0000000000018</ele>
        <time>2020-08-22T18:48:33Z</time>
      </trkpt>
      <trkpt lat="42.484957" lon="1.5645370000000003">
        <ele>1862.1000000000017</ele>
        <time>2020-08-22T18:48:39Z</time>
      </trkpt>
      <trkpt lat="42.485008" lon="1.5645300000000002">
        <ele>1859.8000000000018</ele>
        <time>2020-08-22T18:48:55Z</time>
      </trkpt>
      <trkpt lat="42.485065" lon="1.564523">
        <ele>1858.5000000000018</ele>
        <time>2020-08-22T18:49:03Z</time>
      </trkpt>
      <trkpt lat="42.485122" lon="1.5645120000000001">
        <ele>1857.5000000000018</ele>
        <time>2020-08-22T18:49:14Z</time>
      </trkpt>
      <trkpt lat="42.485167999999994" lon="1.5645270000000002">
        <ele>1856.6000000000017</ele>
        <time>2020-08-22T18:49:22Z</time>
      </trkpt>
      <trkpt lat="42.48520799999999" lon="1.5644880000000003">
        <ele>1855.0000000000018</ele>
        <time>2020-08-22T18:49:29Z</time>
      </trkpt>
      <trkpt lat="42.485232999999994" lon="1.5644010000000004">
        <ele>1854.2000000000019</ele>
        <time>2020-08-22T18:50:22Z</time>
      </trkpt>
      <trkpt lat="42.485291999999994" lon="1.5644200000000004">
        <ele>1853.3000000000018</ele>
        <time>2020-08-22T18:50:57Z</time>
      </trkpt>
      <trkpt lat="42.485347999999995" lon="1.5644690000000003">
        <ele>1850.8000000000018</ele>
        <time>2020-08-22T18:51:06Z</time>
      </trkpt>
      <trkpt lat="42.48537699999999" lon="1.5644110000000004">
        <ele>1849.8000000000018</ele>
        <time>2020-08-22T18:51:18Z</time>
      </trkpt>
      <trkpt lat="42.48543299999999" lon="1.5644090000000004">
        <ele>1848.5000000000018</ele>
        <time>2020-08-22T18:51:35Z</time>
      </trkpt>
      <trkpt lat="42.485488" lon="1.5643930000000004">
        <ele>1846.1000000000017</ele>
        <time>2020-08-22T18:51:50Z</time>
      </trkpt>
      <trkpt lat="42.485535999999996" lon="1.5644140000000004">
        <ele>1845.3000000000018</ele>
        <time>2020-08-22T18:51:59Z</time>
      </trkpt>
      <trkpt lat="42.485580999999996" lon="1.5644290000000005">
        <ele>1844.6000000000017</ele>
        <time>2020-08-22T18:52:07Z</time>
      </trkpt>
      <trkpt lat="42.485561999999994" lon="1.5643610000000006">
        <ele>1843.5000000000018</ele>
        <time>2020-08-22T18:52:14Z</time>
      </trkpt>
      <trkpt lat="42.485606" lon="1.5643200000000006">
        <ele>1842.400000000002</ele>
        <time>2020-08-22T18:52:21Z</time>
      </trkpt>
      <trkpt lat="42.485654999999994" lon="1.5643080000000007">
        <ele>1840.600000000002</ele>
        <time>2020-08-22T18:52:27Z</time>
      </trkpt>
      <trkpt lat="42.48568999999999" lon="1.5643470000000006">
        <ele>1839.7000000000019</ele>
        <time>2020-08-22T18:52:30Z</time>
      </trkpt>
      <trkpt lat="42.48574399999999" lon="1.5643740000000006">
        <ele>1838.3000000000018</ele>
        <time>2020-08-22T18:52:35Z</time>
      </trkpt>
      <trkpt lat="42.48578999999999" lon="1.5643480000000005">
        <ele>1836.9000000000017</ele>
        <time>2020-08-22T18:52:39Z</time>
      </trkpt>
      <trkpt lat="42.485798999999986" lon="1.5642870000000004">
        <ele>1836.1000000000017</ele>
        <time>2020-08-22T18:52:44Z</time>
      </trkpt>
      <trkpt lat="42.48581999999998" lon="1.5642330000000004">
        <ele>1835.0000000000018</ele>
        <time>2020-08-22T18:52:51Z</time>
      </trkpt>
      <trkpt lat="42.48587699999998" lon="1.5642410000000004">
        <ele>1834.1000000000017</ele>
        <time>2020-08-22T18:53:00Z</time>
      </trkpt>
      <trkpt lat="42.48584899999998" lon="1.5641770000000004">
        <ele>1833.7000000000016</ele>
        <time>2020-08-22T18:53:33Z</time>
      </trkpt>
      <trkpt lat="42.48595599999998" lon="1.5643150000000003">
        <ele>1832.4000000000017</ele>
        <time>2020-08-22T18:53:48Z</time>
      </trkpt>
      <trkpt lat="42.48600199999998" lon="1.5642910000000003">
        <ele>1831.0000000000016</ele>
        <time>2020-08-22T18:53:55Z</time>
      </trkpt>
      <trkpt lat="42.48604399999998" lon="1.5642620000000003">
        <ele>1828.8000000000015</ele>
        <time>2020-08-22T18:54:07Z</time>
      </trkpt>
      <trkpt lat="42.48608299999998" lon="1.5642270000000003">
        <ele>1826.9000000000015</ele>
        <time>2020-08-22T18:54:15Z</time>
      </trkpt>
      <trkpt lat="42.48612099999998" lon="1.5641910000000003">
        <ele>1825.6000000000015</ele>
        <time>2020-08-22T18:54:21Z</time>
      </trkpt>
      <trkpt lat="42.48616699999998" lon="1.5641810000000003">
        <ele>1824.3000000000015</ele>
        <time>2020-08-22T18:54:30Z</time>
      </trkpt>
      <trkpt lat="42.48621299999998" lon="1.5641330000000002">
        <ele>1823.5000000000016</ele>
        <time>2020-08-22T18:54:37Z</time>
      </trkpt>
      <trkpt lat="42.48622299999998" lon="1.5640730000000003">
        <ele>1823.2000000000016</ele>
        <time>2020-08-22T18:54:42Z</time>
      </trkpt>
      <trkpt lat="42.48624099999998" lon="1.5639160000000003">
        <ele>1822.0000000000016</ele>
        <time>2020-08-22T18:55:36Z</time>
      </trkpt>
      <trkpt lat="42.48629599999998" lon="1.5639130000000003">
        <ele>1820.6000000000015</ele>
        <time>2020-08-22T18:55:49Z</time>
      </trkpt>
      <trkpt lat="42.48634799999998" lon="1.5639080000000003">
        <ele>1819.6000000000015</ele>
        <time>2020-08-22T18:56:17Z</time>
      </trkpt>
      <trkpt lat="42.486348999999976" lon="1.5638400000000003">
        <ele>1817.7000000000014</ele>
        <time>2020-08-22T18:57:21Z</time>
      </trkpt>
      <trkpt lat="42.486390999999976" lon="1.5638060000000003">
        <ele>1814.2000000000014</ele>
        <time>2020-08-22T18:57:31Z</time>
      </trkpt>
      <trkpt lat="42.48644899999998" lon="1.5637950000000003">
        <ele>1812.5000000000014</ele>
        <time>2020-08-22T18:57:38Z</time>
      </trkpt>
      <trkpt lat="42.48641499999998" lon="1.5637390000000002">
        <ele>1811.3000000000013</ele>
        <time>2020-08-22T18:58:09Z</time>
      </trkpt>
      <trkpt lat="42.48640899999998" lon="1.5636370000000002">
        <ele>1809.9000000000012</ele>
        <time>2020-08-22T18:58:35Z</time>
      </trkpt>
      <trkpt lat="42.48644799999998" lon="1.5636040000000002">
        <ele>1807.9000000000012</ele>
        <time>2020-08-22T18:58:42Z</time>
      </trkpt>
      <trkpt lat="42.48649299999998" lon="1.5636030000000003">
        <ele>1806.1000000000013</ele>
        <time>2020-08-22T18:58:49Z</time>
      </trkpt>
      <trkpt lat="42.48651299999998" lon="1.5635480000000004">
        <ele>1803.5000000000014</ele>
        <time>2020-08-22T18:59:02Z</time>
      </trkpt>
      <trkpt lat="42.486553999999984" lon="1.5636560000000004">
        <ele>1801.5000000000014</ele>
        <time>2020-08-22T18:59:36Z</time>
      </trkpt>
      <trkpt lat="42.48658599999998" lon="1.5636070000000004">
        <ele>1800.9000000000015</ele>
        <time>2020-08-22T18:59:41Z</time>
      </trkpt>
      <trkpt lat="42.486612999999984" lon="1.5635360000000005">
        <ele>1799.6000000000015</ele>
        <time>2020-08-22T18:59:55Z</time>
      </trkpt>
      <trkpt lat="42.486662999999986" lon="1.5635310000000004">
        <ele>1798.8000000000015</ele>
        <time>2020-08-22T19:00:00Z</time>
      </trkpt>
      <trkpt lat="42.486716999999985" lon="1.5635460000000005">
        <ele>1798.2000000000016</ele>
        <time>2020-08-22T19:00:07Z</time>
      </trkpt>
      <trkpt lat="42.48676299999998" lon="1.5635670000000006">
        <ele>1797.7000000000016</ele>
        <time>2020-08-22T19:00:10Z</time>
      </trkpt>
      <trkpt lat="42.48680799999998" lon="1.5635840000000005">
        <ele>1796.9000000000017</ele>
        <time>2020-08-22T19:00:22Z</time>
      </trkpt>
      <trkpt lat="42.48685099999998" lon="1.5635530000000006">
        <ele>1796.2000000000016</ele>
        <time>2020-08-22T19:00:31Z</time>
      </trkpt>
      <trkpt lat="42.48684199999998" lon="1.5634930000000007">
        <ele>1795.4000000000017</ele>
        <time>2020-08-22T19:00:39Z</time>
      </trkpt>
      <trkpt lat="42.486795999999984" lon="1.5634580000000007">
        <ele>1794.7000000000016</ele>
        <time>2020-08-22T19:00:58Z</time>
      </trkpt>
      <trkpt lat="42.48682999999998" lon="1.5634060000000007">
        <ele>1791.9000000000017</ele>
        <time>2020-08-22T19:01:27Z</time>
      </trkpt>
      <trkpt lat="42.486876999999986" lon="1.5634140000000007">
        <ele>1789.5000000000016</ele>
        <time>2020-08-22T19:01:45Z</time>
      </trkpt>
      <trkpt lat="42.486918999999986" lon="1.5633910000000006">
        <ele>1788.1000000000015</ele>
        <time>2020-08-22T19:01:56Z</time>
      </trkpt>
      <trkpt lat="42.486930999999984" lon="1.5632830000000006">
        <ele>1786.2000000000014</ele>
        <time>2020-08-22T19:02:19Z</time>
      </trkpt>
      <trkpt lat="42.48699199999999" lon="1.5633440000000007">
        <ele>1786.3000000000013</ele>
        <time>2020-08-22T19:02:42Z</time>
      </trkpt>
      <trkpt lat="42.48704399999998" lon="1.5633160000000008">
        <ele>1783.0000000000014</ele>
        <time>2020-08-22T19:03:23Z</time>
      </trkpt>
      <trkpt lat="42.48703699999999" lon="1.5632520000000008">
        <ele>1782.2000000000014</ele>
        <time>2020-08-22T19:03:29Z</time>
      </trkpt>
      <trkpt lat="42.487045999999985" lon="1.5631830000000007">
        <ele>1780.9000000000015</ele>
        <time>2020-08-22T19:03:38Z</time>
      </trkpt>
      <trkpt lat="42.487090999999985" lon="1.5632120000000007">
        <ele>1777.4000000000015</ele>
        <time>2020-08-22T19:04:03Z</time>
      </trkpt>
      <trkpt lat="42.487138999999985" lon="1.5632050000000006">
        <ele>1776.1000000000015</ele>
        <time>2020-08-22T19:04:13Z</time>
      </trkpt>
      <trkpt lat="42.48718599999999" lon="1.5632200000000007">
        <ele>1775.3000000000015</ele>
        <time>2020-08-22T19:04:18Z</time>
      </trkpt>
      <trkpt lat="42.48722799999999" lon="1.5632610000000007">
        <ele>1774.8000000000015</ele>
        <time>2020-08-22T19:04:22Z</time>
      </trkpt>
      <trkpt lat="42.48727799999999" lon="1.5632690000000007">
        <ele>1774.5000000000016</ele>
        <time>2020-08-22T19:04:32Z</time>
      </trkpt>
      <trkpt lat="42.48731999999999" lon="1.5632390000000007">
        <ele>1773.4000000000017</ele>
        <time>2020-08-22T19:04:41Z</time>
      </trkpt>
      <trkpt lat="42.48736099999999" lon="1.5632660000000007">
        <ele>1772.3000000000018</ele>
        <time>2020-08-22T19:04:49Z</time>
      </trkpt>
      <trkpt lat="42.48740699999999" lon="1.5632500000000007">
        <ele>1771.3000000000018</ele>
        <time>2020-08-22T19:04:59Z</time>
      </trkpt>
      <trkpt lat="42.48744899999999" lon="1.5632250000000008">
        <ele>1769.7000000000019</ele>
        <time>2020-08-22T19:05:09Z</time>
      </trkpt>
      <trkpt lat="42.48749799999999" lon="1.5632550000000007">
        <ele>1768.8000000000018</ele>
        <time>2020-08-22T19:05:15Z</time>
      </trkpt>
      <trkpt lat="42.48752899999999" lon="1.5631950000000008">
        <ele>1767.7000000000019</ele>
        <time>2020-08-22T19:05:23Z</time>
      </trkpt>
      <trkpt lat="42.48748699999999" lon="1.5631340000000007">
        <ele>1766.0000000000018</ele>
        <time>2020-08-22T19:05:34Z</time>
      </trkpt>
      <trkpt lat="42.487546999999985" lon="1.5630830000000007">
        <ele>1761.400000000002</ele>
        <time>2020-08-22T19:06:06Z</time>
      </trkpt>
      <trkpt lat="42.48759099999999" lon="1.5630980000000008">
        <ele>1760.400000000002</ele>
        <time>2020-08-22T19:06:12Z</time>
      </trkpt>
      <trkpt lat="42.48764199999999" lon="1.5630820000000007">
        <ele>1759.300000000002</ele>
        <time>2020-08-22T19:06:22Z</time>
      </trkpt>
      <trkpt lat="42.48769199999999" lon="1.5630860000000006">
        <ele>1757.900000000002</ele>
        <time>2020-08-22T19:06:34Z</time>
      </trkpt>
      <trkpt lat="42.48771599999999" lon="1.5630250000000006">
        <ele>1756.5000000000018</ele>
        <time>2020-08-22T19:06:47Z</time>
      </trkpt>
      <trkpt lat="42.487762999999994" lon="1.5630030000000006">
        <ele>1754.7000000000019</ele>
        <time>2020-08-22T19:06:55Z</time>
      </trkpt>
      <trkpt lat="42.487809999999996" lon="1.5630300000000006">
        <ele>1754.0000000000018</ele>
        <time>2020-08-22T19:07:01Z</time>
      </trkpt>
      <trkpt lat="42.487843999999996" lon="1.5630860000000006">
        <ele>1753.8000000000018</ele>
        <time>2020-08-22T19:07:07Z</time>
      </trkpt>
      <trkpt lat="42.487899" lon="1.5630570000000006">
        <ele>1752.3000000000018</ele>
        <time>2020-08-22T19:07:19Z</time>
      </trkpt>
      <trkpt lat="42.487944999999996" lon="1.5630370000000007">
        <ele>1750.6000000000017</ele>
        <time>2020-08-22T19:07:32Z</time>
      </trkpt>
      <trkpt lat="42.487990999999994" lon="1.5630130000000007">
        <ele>1749.5000000000018</ele>
        <time>2020-08-22T19:07:47Z</time>
      </trkpt>
      <trkpt lat="42.488009999999996" lon="1.5629190000000006">
        <ele>1747.2000000000019</ele>
        <time>2020-08-22T19:08:05Z</time>
      </trkpt>
      <trkpt lat="42.488001999999994" lon="1.5628590000000007">
        <ele>1745.400000000002</ele>
        <time>2020-08-22T19:08:19Z</time>
      </trkpt>
      <trkpt lat="42.488049" lon="1.5628750000000007">
        <ele>1743.400000000002</ele>
        <time>2020-08-22T19:08:38Z</time>
      </trkpt>
      <trkpt lat="42.488104" lon="1.5628880000000007">
        <ele>1741.900000000002</ele>
        <time>2020-08-22T19:08:52Z</time>
      </trkpt>
      <trkpt lat="42.488148" lon="1.5628420000000007">
        <ele>1739.0000000000018</ele>
        <time>2020-08-22T19:09:15Z</time>
      </trkpt>
      <trkpt lat="42.488171" lon="1.5627820000000008">
        <ele>1737.2000000000019</ele>
        <time>2020-08-22T19:09:29Z</time>
      </trkpt>
      <trkpt lat="42.488234" lon="1.5627690000000007">
        <ele>1734.900000000002</ele>
        <time>2020-08-22T19:09:45Z</time>
      </trkpt>
      <trkpt lat="42.488293" lon="1.5627780000000007">
        <ele>1733.2000000000019</ele>
        <time>2020-08-22T19:09:56Z</time>
      </trkpt>
      <trkpt lat="42.488338999999996" lon="1.5628030000000006">
        <ele>1732.5000000000018</ele>
        <time>2020-08-22T19:10:02Z</time>
      </trkpt>
      <trkpt lat="42.488392" lon="1.5627960000000005">
        <ele>1730.900000000002</ele>
        <time>2020-08-22T19:10:16Z</time>
      </trkpt>
      <trkpt lat="42.488426999999994" lon="1.5627540000000004">
        <ele>1729.600000000002</ele>
        <time>2020-08-22T19:10:27Z</time>
      </trkpt>
      <trkpt lat="42.488414999999996" lon="1.5626740000000003">
        <ele>1728.2000000000019</ele>
        <time>2020-08-22T19:10:39Z</time>
      </trkpt>
      <trkpt lat="42.488451" lon="1.5626330000000004">
        <ele>1726.2000000000019</ele>
        <time>2020-08-22T19:10:53Z</time>
      </trkpt>
      <trkpt lat="42.488496999999995" lon="1.5626350000000004">
        <ele>1725.5000000000018</ele>
        <time>2020-08-22T19:10:59Z</time>
      </trkpt>
      <trkpt lat="42.488547" lon="1.5626310000000005">
        <ele>1724.1000000000017</ele>
        <time>2020-08-22T19:11:10Z</time>
      </trkpt>
      <trkpt lat="42.488595" lon="1.5626150000000005">
        <ele>1723.8000000000018</ele>
        <time>2020-08-22T19:11:17Z</time>
      </trkpt>
      <trkpt lat="42.488619" lon="1.5625430000000005">
        <ele>1722.4000000000017</ele>
        <time>2020-08-22T19:11:36Z</time>
      </trkpt>
      <trkpt lat="42.488749" lon="1.5625680000000004">
        <ele>1719.8000000000018</ele>
        <time>2020-08-22T19:12:17Z</time>
      </trkpt>
      <trkpt lat="42.488777" lon="1.5626160000000004">
        <ele>1718.8000000000018</ele>
        <time>2020-08-22T19:12:22Z</time>
      </trkpt>
      <trkpt lat="42.488817" lon="1.5626520000000004">
        <ele>1718.2000000000019</ele>
        <time>2020-08-22T19:12:29Z</time>
      </trkpt>
      <trkpt lat="42.488837" lon="1.5627140000000004">
        <ele>1716.900000000002</ele>
        <time>2020-08-22T19:12:41Z</time>
      </trkpt>
      <trkpt lat="42.488895" lon="1.5627050000000005">
        <ele>1714.900000000002</ele>
        <time>2020-08-22T19:12:58Z</time>
      </trkpt>
      <trkpt lat="42.488946" lon="1.5627380000000004">
        <ele>1712.900000000002</ele>
        <time>2020-08-22T19:13:15Z</time>
      </trkpt>
      <trkpt lat="42.488997999999995" lon="1.5627070000000005">
        <ele>1710.2000000000019</ele>
        <time>2020-08-22T19:13:37Z</time>
      </trkpt>
      <trkpt lat="42.489050999999996" lon="1.5626840000000004">
        <ele>1708.2000000000019</ele>
        <time>2020-08-22T19:13:49Z</time>
      </trkpt>
      <trkpt lat="42.489152999999995" lon="1.5626780000000005">
        <ele>1705.0000000000018</ele>
        <time>2020-08-22T19:14:10Z</time>
      </trkpt>
      <trkpt lat="42.48919299999999" lon="1.5626370000000005">
        <ele>1703.5000000000018</ele>
        <time>2020-08-22T19:14:21Z</time>
      </trkpt>
      <trkpt lat="42.489231999999994" lon="1.5626000000000004">
        <ele>1702.2000000000019</ele>
        <time>2020-08-22T19:14:31Z</time>
      </trkpt>
      <trkpt lat="42.48928399999999" lon="1.5625820000000004">
        <ele>1701.0000000000018</ele>
        <time>2020-08-22T19:14:40Z</time>
      </trkpt>
      <trkpt lat="42.48931199999999" lon="1.5625060000000004">
        <ele>1698.6000000000017</ele>
        <time>2020-08-22T19:14:55Z</time>
      </trkpt>
      <trkpt lat="42.48935699999999" lon="1.5624900000000004">
        <ele>1697.7000000000016</ele>
        <time>2020-08-22T19:15:04Z</time>
      </trkpt>
      <trkpt lat="42.48940799999999" lon="1.5624600000000004">
        <ele>1696.1000000000017</ele>
        <time>2020-08-22T19:15:14Z</time>
      </trkpt>
      <trkpt lat="42.48945999999999" lon="1.5624110000000004">
        <ele>1694.4000000000017</ele>
        <time>2020-08-22T19:15:27Z</time>
      </trkpt>
      <trkpt lat="42.48951299999999" lon="1.5624050000000005">
        <ele>1693.7000000000016</ele>
        <time>2020-08-22T19:15:35Z</time>
      </trkpt>
      <trkpt lat="42.48957499999999" lon="1.5623950000000004">
        <ele>1692.6000000000017</ele>
        <time>2020-08-22T19:15:46Z</time>
      </trkpt>
      <trkpt lat="42.48962599999999" lon="1.5623930000000004">
        <ele>1691.4000000000017</ele>
        <time>2020-08-22T19:15:56Z</time>
      </trkpt>
      <trkpt lat="42.48966799999999" lon="1.5624260000000003">
        <ele>1690.7000000000016</ele>
        <time>2020-08-22T19:16:04Z</time>
      </trkpt>
      <trkpt lat="42.48971799999999" lon="1.5624180000000003">
        <ele>1690.2000000000016</ele>
        <time>2020-08-22T19:16:12Z</time>
      </trkpt>
      <trkpt lat="42.48971799999999" lon="1.5623240000000003">
        <ele>1688.1000000000017</ele>
        <time>2020-08-22T19:16:33Z</time>
      </trkpt>
      <trkpt lat="42.48976099999999" lon="1.5623060000000002">
        <ele>1685.8000000000018</ele>
        <time>2020-08-22T19:16:46Z</time>
      </trkpt>
      <trkpt lat="42.48980899999999" lon="1.5623160000000003">
        <ele>1685.0000000000018</ele>
        <time>2020-08-22T19:16:52Z</time>
      </trkpt>
      <trkpt lat="42.48985399999999" lon="1.5623140000000002">
        <ele>1683.400000000002</ele>
        <time>2020-08-22T19:17:05Z</time>
      </trkpt>
      <trkpt lat="42.48989199999999" lon="1.5622770000000001">
        <ele>1682.100000000002</ele>
        <time>2020-08-22T19:17:13Z</time>
      </trkpt>
      <trkpt lat="42.48992799999999" lon="1.5623200000000002">
        <ele>1681.300000000002</ele>
        <time>2020-08-22T19:17:22Z</time>
      </trkpt>
      <trkpt lat="42.48996799999999" lon="1.5622840000000002">
        <ele>1680.100000000002</ele>
        <time>2020-08-22T19:17:34Z</time>
      </trkpt>
      <trkpt lat="42.48998499999999" lon="1.5622240000000003">
        <ele>1678.800000000002</ele>
        <time>2020-08-22T19:17:42Z</time>
      </trkpt>
      <trkpt lat="42.49001299999999" lon="1.5622860000000003">
        <ele>1677.700000000002</ele>
        <time>2020-08-22T19:17:52Z</time>
      </trkpt>
      <trkpt lat="42.49005899999999" lon="1.5623170000000002">
        <ele>1676.700000000002</ele>
        <time>2020-08-22T19:18:05Z</time>
      </trkpt>
      <trkpt lat="42.490104999999986" lon="1.5623130000000003">
        <ele>1675.1000000000022</ele>
        <time>2020-08-22T19:18:16Z</time>
      </trkpt>
      <trkpt lat="42.490146999999986" lon="1.5623630000000004">
        <ele>1674.0000000000023</ele>
        <time>2020-08-22T19:18:22Z</time>
      </trkpt>
      <trkpt lat="42.490180999999986" lon="1.5623140000000004">
        <ele>1674.1000000000022</ele>
        <time>2020-08-22T19:18:36Z</time>
      </trkpt>
      <trkpt lat="42.49022999999998" lon="1.5622830000000005">
        <ele>1673.0000000000023</ele>
        <time>2020-08-22T19:18:42Z</time>
      </trkpt>
      <trkpt lat="42.490321999999985" lon="1.5622710000000006">
        <ele>1671.2000000000023</ele>
        <time>2020-08-22T19:19:02Z</time>
      </trkpt>
      <trkpt lat="42.49037599999998" lon="1.5622750000000005">
        <ele>1668.2000000000023</ele>
        <time>2020-08-22T19:19:35Z</time>
      </trkpt>
      <trkpt lat="42.49045499999998" lon="1.5622790000000004">
        <ele>1665.3000000000022</ele>
        <time>2020-08-22T19:19:55Z</time>
      </trkpt>
      <trkpt lat="42.49050699999998" lon="1.5622810000000005">
        <ele>1664.4000000000021</ele>
        <time>2020-08-22T19:20:03Z</time>
      </trkpt>
      <trkpt lat="42.49056399999998" lon="1.5623060000000004">
        <ele>1664.3000000000022</ele>
        <time>2020-08-22T19:20:06Z</time>
      </trkpt>
      <trkpt lat="42.49061699999998" lon="1.5622910000000003">
        <ele>1663.2000000000023</ele>
        <time>2020-08-22T19:20:17Z</time>
      </trkpt>
      <trkpt lat="42.49063299999998" lon="1.5622310000000004">
        <ele>1661.8000000000022</ele>
        <time>2020-08-22T19:20:33Z</time>
      </trkpt>
      <trkpt lat="42.49067799999998" lon="1.5622130000000003">
        <ele>1660.7000000000023</ele>
        <time>2020-08-22T19:20:38Z</time>
      </trkpt>
      <trkpt lat="42.49072399999998" lon="1.5622080000000003">
        <ele>1659.7000000000023</ele>
        <time>2020-08-22T19:20:55Z</time>
      </trkpt>
      <trkpt lat="42.49077699999998" lon="1.5622030000000002">
        <ele>1659.0000000000023</ele>
        <time>2020-08-22T19:21:04Z</time>
      </trkpt>
      <trkpt lat="42.49081999999998" lon="1.5621800000000001">
        <ele>1657.5000000000023</ele>
        <time>2020-08-22T19:21:18Z</time>
      </trkpt>
      <trkpt lat="42.49086799999998" lon="1.562138">
        <ele>1655.1000000000022</ele>
        <time>2020-08-22T19:21:39Z</time>
      </trkpt>
      <trkpt lat="42.49092099999998" lon="1.562152">
        <ele>1653.8000000000022</ele>
        <time>2020-08-22T19:21:51Z</time>
      </trkpt>
      <trkpt lat="42.49096399999998" lon="1.562182">
        <ele>1653.1000000000022</ele>
        <time>2020-08-22T19:21:59Z</time>
      </trkpt>
      <trkpt lat="42.491012999999974" lon="1.562182">
        <ele>1652.0000000000023</ele>
        <time>2020-08-22T19:22:11Z</time>
      </trkpt>
      <trkpt lat="42.491057999999974" lon="1.562161">
        <ele>1650.5000000000023</ele>
        <time>2020-08-22T19:22:22Z</time>
      </trkpt>
      <trkpt lat="42.491113999999975" lon="1.562158">
        <ele>1648.9000000000024</ele>
        <time>2020-08-22T19:22:38Z</time>
      </trkpt>
      <trkpt lat="42.491158999999975" lon="1.56215">
        <ele>1647.6000000000024</ele>
        <time>2020-08-22T19:22:47Z</time>
      </trkpt>
      <trkpt lat="42.49121099999997" lon="1.5621639999999999">
        <ele>1646.6000000000024</ele>
        <time>2020-08-22T19:23:05Z</time>
      </trkpt>
      <trkpt lat="42.49125999999997" lon="1.5621679999999998">
        <ele>1645.7000000000023</ele>
        <time>2020-08-22T19:23:12Z</time>
      </trkpt>
      <trkpt lat="42.491308999999966" lon="1.5620939999999999">
        <ele>1642.8000000000022</ele>
        <time>2020-08-22T19:23:35Z</time>
      </trkpt>
      <trkpt lat="42.49134999999997" lon="1.562123">
        <ele>1641.0000000000023</ele>
        <time>2020-08-22T19:23:47Z</time>
      </trkpt>
      <trkpt lat="42.49139499999997" lon="1.562084">
        <ele>1639.4000000000024</ele>
        <time>2020-08-22T19:23:57Z</time>
      </trkpt>
      <trkpt lat="42.49145199999997" lon="1.5620910000000001">
        <ele>1637.4000000000024</ele>
        <time>2020-08-22T19:24:10Z</time>
      </trkpt>
      <trkpt lat="42.491494999999965" lon="1.5621230000000002">
        <ele>1636.0000000000023</ele>
        <time>2020-08-22T19:24:23Z</time>
      </trkpt>
      <trkpt lat="42.491539999999965" lon="1.5620760000000002">
        <ele>1634.2000000000023</ele>
        <time>2020-08-22T19:24:38Z</time>
      </trkpt>
      <trkpt lat="42.49157999999996" lon="1.5620390000000002">
        <ele>1632.4000000000024</ele>
        <time>2020-08-22T19:24:49Z</time>
      </trkpt>
      <trkpt lat="42.49155799999996" lon="1.5619810000000003">
        <ele>1632.1000000000024</ele>
        <time>2020-08-22T19:24:53Z</time>
      </trkpt>
      <trkpt lat="42.49155199999996" lon="1.5619190000000003">
        <ele>1631.2000000000023</ele>
        <time>2020-08-22T19:25:00Z</time>
      </trkpt>
      <trkpt lat="42.49159799999996" lon="1.5619380000000003">
        <ele>1629.0000000000023</ele>
        <time>2020-08-22T19:25:14Z</time>
      </trkpt>
      <trkpt lat="42.49162699999996" lon="1.5619970000000003">
        <ele>1628.3000000000022</ele>
        <time>2020-08-22T19:25:20Z</time>
      </trkpt>
      <trkpt lat="42.491672999999956" lon="1.5620120000000004">
        <ele>1627.2000000000023</ele>
        <time>2020-08-22T19:25:33Z</time>
      </trkpt>
      <trkpt lat="42.491740999999955" lon="1.5620040000000004">
        <ele>1624.8000000000022</ele>
        <time>2020-08-22T19:26:00Z</time>
      </trkpt>
      <trkpt lat="42.49178999999995" lon="1.5620190000000005">
        <ele>1623.4000000000021</ele>
        <time>2020-08-22T19:26:11Z</time>
      </trkpt>
      <trkpt lat="42.491819999999954" lon="1.5620750000000005">
        <ele>1622.3000000000022</ele>
        <time>2020-08-22T19:26:19Z</time>
      </trkpt>
      <trkpt lat="42.49187199999995" lon="1.5621070000000006">
        <ele>1621.1000000000022</ele>
        <time>2020-08-22T19:26:28Z</time>
      </trkpt>
      <trkpt lat="42.49193599999995" lon="1.5621440000000006">
        <ele>1619.8000000000022</ele>
        <time>2020-08-22T19:26:45Z</time>
      </trkpt>
      <trkpt lat="42.49198399999995" lon="1.5621410000000007">
        <ele>1618.1000000000022</ele>
        <time>2020-08-22T19:26:56Z</time>
      </trkpt>
      <trkpt lat="42.49202399999995" lon="1.5620710000000007">
        <ele>1616.200000000002</ele>
        <time>2020-08-22T19:27:15Z</time>
      </trkpt>
      <trkpt lat="42.49201899999995" lon="1.5620070000000006">
        <ele>1614.6000000000022</ele>
        <time>2020-08-22T19:27:33Z</time>
      </trkpt>
      <trkpt lat="42.49208699999995" lon="1.5620410000000007">
        <ele>1613.9000000000021</ele>
        <time>2020-08-22T19:27:40Z</time>
      </trkpt>
      <trkpt lat="42.49213199999995" lon="1.5620540000000007">
        <ele>1612.3000000000022</ele>
        <time>2020-08-22T19:27:49Z</time>
      </trkpt>
      <trkpt lat="42.492174999999946" lon="1.5620900000000006">
        <ele>1610.7000000000023</ele>
        <time>2020-08-22T19:28:02Z</time>
      </trkpt>
      <trkpt lat="42.49222399999994" lon="1.5620860000000008">
        <ele>1609.5000000000023</ele>
        <time>2020-08-22T19:28:12Z</time>
      </trkpt>
      <trkpt lat="42.49226999999994" lon="1.5620730000000007">
        <ele>1607.8000000000022</ele>
        <time>2020-08-22T19:28:23Z</time>
      </trkpt>
      <trkpt lat="42.49232699999994" lon="1.5620670000000008">
        <ele>1605.8000000000022</ele>
        <time>2020-08-22T19:28:36Z</time>
      </trkpt>
      <trkpt lat="42.49239199999994" lon="1.5620530000000008">
        <ele>1604.2000000000023</ele>
        <time>2020-08-22T19:28:47Z</time>
      </trkpt>
      <trkpt lat="42.49243899999994" lon="1.5620300000000007">
        <ele>1603.4000000000024</ele>
        <time>2020-08-22T19:28:54Z</time>
      </trkpt>
      <trkpt lat="42.49246899999994" lon="1.5619750000000008">
        <ele>1602.1000000000024</ele>
        <time>2020-08-22T19:29:06Z</time>
      </trkpt>
      <trkpt lat="42.49250599999994" lon="1.5619090000000009">
        <ele>1600.6000000000024</ele>
        <time>2020-08-22T19:29:18Z</time>
      </trkpt>
      <trkpt lat="42.49255399999994" lon="1.5618940000000008">
        <ele>1599.4000000000024</ele>
        <time>2020-08-22T19:29:31Z</time>
      </trkpt>
      <trkpt lat="42.49262499999994" lon="1.5618050000000008">
        <ele>1596.8000000000025</ele>
        <time>2020-08-22T19:29:57Z</time>
      </trkpt>
      <trkpt lat="42.49266599999994" lon="1.5617670000000008">
        <ele>1595.9000000000024</ele>
        <time>2020-08-22T19:30:08Z</time>
      </trkpt>
      <trkpt lat="42.49271099999994" lon="1.5617530000000008">
        <ele>1595.4000000000024</ele>
        <time>2020-08-22T19:30:13Z</time>
      </trkpt>
      <trkpt lat="42.49274899999995" lon="1.5617150000000009">
        <ele>1594.2000000000023</ele>
        <time>2020-08-22T19:30:26Z</time>
      </trkpt>
      <trkpt lat="42.492777999999944" lon="1.5616560000000008">
        <ele>1593.0000000000023</ele>
        <time>2020-08-22T19:30:35Z</time>
      </trkpt>
      <trkpt lat="42.49282699999994" lon="1.5616330000000007">
        <ele>1592.6000000000022</ele>
        <time>2020-08-22T19:30:39Z</time>
      </trkpt>
      <trkpt lat="42.49287299999994" lon="1.5616430000000008">
        <ele>1591.3000000000022</ele>
        <time>2020-08-22T19:30:50Z</time>
      </trkpt>
      <trkpt lat="42.49291699999994" lon="1.5616630000000007">
        <ele>1590.6000000000022</ele>
        <time>2020-08-22T19:30:56Z</time>
      </trkpt>
      <trkpt lat="42.49295899999994" lon="1.5616360000000007">
        <ele>1589.8000000000022</ele>
        <time>2020-08-22T19:31:02Z</time>
      </trkpt>
      <trkpt lat="42.49299399999994" lon="1.5615900000000007">
        <ele>1588.7000000000023</ele>
        <time>2020-08-22T19:31:10Z</time>
      </trkpt>
      <trkpt lat="42.49302999999994" lon="1.5616430000000008">
        <ele>1588.0000000000023</ele>
        <time>2020-08-22T19:31:15Z</time>
      </trkpt>
      <trkpt lat="42.49306099999994" lon="1.5616920000000007">
        <ele>1587.3000000000022</ele>
        <time>2020-08-22T19:31:21Z</time>
      </trkpt>
      <trkpt lat="42.49311899999994" lon="1.5616950000000007">
        <ele>1585.6000000000022</ele>
        <time>2020-08-22T19:31:32Z</time>
      </trkpt>
      <trkpt lat="42.49316199999994" lon="1.5617160000000008">
        <ele>1584.8000000000022</ele>
        <time>2020-08-22T19:31:38Z</time>
      </trkpt>
      <trkpt lat="42.49321599999994" lon="1.5617250000000007">
        <ele>1584.1000000000022</ele>
        <time>2020-08-22T19:31:43Z</time>
      </trkpt>
      <trkpt lat="42.49327699999994" lon="1.5617350000000008">
        <ele>1583.5000000000023</ele>
        <time>2020-08-22T19:31:47Z</time>
      </trkpt>
      <trkpt lat="42.49330199999994" lon="1.5616830000000008">
        <ele>1582.2000000000023</ele>
        <time>2020-08-22T19:31:55Z</time>
      </trkpt>
      <trkpt lat="42.493343999999944" lon="1.5616600000000007">
        <ele>1581.8000000000022</ele>
        <time>2020-08-22T19:31:59Z</time>
      </trkpt>
      <trkpt lat="42.49338399999994" lon="1.5616870000000007">
        <ele>1581.4000000000021</ele>
        <time>2020-08-22T19:32:02Z</time>
      </trkpt>
      <trkpt lat="42.49343599999994" lon="1.5616730000000008">
        <ele>1580.3000000000022</ele>
        <time>2020-08-22T19:32:11Z</time>
      </trkpt>
      <trkpt lat="42.49348399999994" lon="1.5616530000000008">
        <ele>1579.1000000000022</ele>
        <time>2020-08-22T19:32:20Z</time>
      </trkpt>
      <trkpt lat="42.49352899999994" lon="1.5616380000000007">
        <ele>1578.4000000000021</ele>
        <time>2020-08-22T19:32:24Z</time>
      </trkpt>
      <trkpt lat="42.49355899999994" lon="1.5615890000000008">
        <ele>1577.500000000002</ele>
        <time>2020-08-22T19:32:30Z</time>
      </trkpt>
      <trkpt lat="42.49360999999994" lon="1.5615660000000007">
        <ele>1576.100000000002</ele>
        <time>2020-08-22T19:32:39Z</time>
      </trkpt>
      <trkpt lat="42.49365799999994" lon="1.5615660000000007">
        <ele>1574.900000000002</ele>
        <time>2020-08-22T19:32:48Z</time>
      </trkpt>
      <trkpt lat="42.49371499999994" lon="1.5615430000000006">
        <ele>1573.7000000000019</ele>
        <time>2020-08-22T19:32:59Z</time>
      </trkpt>
      <trkpt lat="42.49376499999994" lon="1.5615320000000006">
        <ele>1571.8000000000018</ele>
        <time>2020-08-22T19:33:17Z</time>
      </trkpt>
      <trkpt lat="42.49380899999994" lon="1.5615190000000005">
        <ele>1570.2000000000019</ele>
        <time>2020-08-22T19:33:27Z</time>
      </trkpt>
      <trkpt lat="42.49386199999994" lon="1.5614820000000005">
        <ele>1567.7000000000019</ele>
        <time>2020-08-22T19:33:42Z</time>
      </trkpt>
      <trkpt lat="42.493891999999946" lon="1.5614300000000005">
        <ele>1566.8000000000018</ele>
        <time>2020-08-22T19:33:49Z</time>
      </trkpt>
      <trkpt lat="42.493945999999944" lon="1.5614010000000005">
        <ele>1564.6000000000017</ele>
        <time>2020-08-22T19:34:05Z</time>
      </trkpt>
      <trkpt lat="42.49400899999994" lon="1.5613490000000005">
        <ele>1563.4000000000017</ele>
        <time>2020-08-22T19:34:51Z</time>
      </trkpt>
      <trkpt lat="42.49405699999994" lon="1.5613620000000006">
        <ele>1562.0000000000016</ele>
        <time>2020-08-22T19:35:00Z</time>
      </trkpt>
      <trkpt lat="42.49410799999994" lon="1.5613530000000007">
        <ele>1560.3000000000015</ele>
        <time>2020-08-22T19:35:08Z</time>
      </trkpt>
      <trkpt lat="42.49415499999994" lon="1.5613670000000006">
        <ele>1558.7000000000016</ele>
        <time>2020-08-22T19:35:18Z</time>
      </trkpt>
      <trkpt lat="42.494204999999944" lon="1.5613530000000007">
        <ele>1557.1000000000017</ele>
        <time>2020-08-22T19:35:31Z</time>
      </trkpt>
      <trkpt lat="42.49425599999994" lon="1.5613650000000006">
        <ele>1556.2000000000016</ele>
        <time>2020-08-22T19:35:38Z</time>
      </trkpt>
      <trkpt lat="42.494302999999945" lon="1.5613250000000005">
        <ele>1555.2000000000016</ele>
        <time>2020-08-22T19:35:49Z</time>
      </trkpt>
      <trkpt lat="42.49433199999994" lon="1.5612640000000004">
        <ele>1554.2000000000016</ele>
        <time>2020-08-22T19:35:57Z</time>
      </trkpt>
      <trkpt lat="42.49438299999994" lon="1.5612690000000005">
        <ele>1553.1000000000017</ele>
        <time>2020-08-22T19:36:08Z</time>
      </trkpt>
      <trkpt lat="42.49442899999994" lon="1.5612730000000004">
        <ele>1552.1000000000017</ele>
        <time>2020-08-22T19:36:14Z</time>
      </trkpt>
      <trkpt lat="42.49447599999994" lon="1.5612770000000002">
        <ele>1551.0000000000018</ele>
        <time>2020-08-22T19:36:23Z</time>
      </trkpt>
      <trkpt lat="42.494519999999945" lon="1.5612310000000003">
        <ele>1549.1000000000017</ele>
        <time>2020-08-22T19:36:39Z</time>
      </trkpt>
      <trkpt lat="42.494519999999945" lon="1.5611610000000002">
        <ele>1548.7000000000016</ele>
        <time>2020-08-22T19:37:09Z</time>
      </trkpt>
      <trkpt lat="42.49446699999994" lon="1.5611500000000003">
        <ele>1548.9000000000017</ele>
        <time>2020-08-22T19:37:12Z</time>
      </trkpt>
      <trkpt lat="42.494418999999944" lon="1.5611090000000003">
        <ele>1549.1000000000017</ele>
        <time>2020-08-22T19:37:19Z</time>
      </trkpt>
      <trkpt lat="42.49438099999994" lon="1.5610710000000003">
        <ele>1549.0000000000018</ele>
        <time>2020-08-22T19:37:24Z</time>
      </trkpt>
      <trkpt lat="42.49434099999994" lon="1.5610370000000002">
        <ele>1548.8000000000018</ele>
        <time>2020-08-22T19:37:30Z</time>
      </trkpt>
      <trkpt lat="42.49429699999994" lon="1.5610170000000003">
        <ele>1548.8000000000018</ele>
        <time>2020-08-22T19:37:34Z</time>
      </trkpt>
      <trkpt lat="42.49429099999994" lon="1.5609520000000003">
        <ele>1548.3000000000018</ele>
        <time>2020-08-22T19:37:38Z</time>
      </trkpt>
      <trkpt lat="42.49431499999994" lon="1.5608930000000003">
        <ele>1547.9000000000017</ele>
        <time>2020-08-22T19:37:45Z</time>
      </trkpt>
      <trkpt lat="42.49434599999994" lon="1.5608430000000002">
        <ele>1548.0000000000016</ele>
        <time>2020-08-22T19:37:50Z</time>
      </trkpt>
      <trkpt lat="42.494327999999946" lon="1.5607850000000003">
        <ele>1548.2000000000016</ele>
        <time>2020-08-22T19:37:55Z</time>
      </trkpt>
      <trkpt lat="42.494327999999946" lon="1.5607190000000004">
        <ele>1547.7000000000016</ele>
        <time>2020-08-22T19:38:02Z</time>
      </trkpt>
      <trkpt lat="42.494322999999945" lon="1.5606560000000005">
        <ele>1547.5000000000016</ele>
        <time>2020-08-22T19:38:08Z</time>
      </trkpt>
      <trkpt lat="42.49430399999994" lon="1.5605840000000004">
        <ele>1547.3000000000015</ele>
        <time>2020-08-22T19:38:13Z</time>
      </trkpt>
      <trkpt lat="42.49432699999994" lon="1.5605230000000003">
        <ele>1546.7000000000016</ele>
        <time>2020-08-22T19:38:25Z</time>
      </trkpt>
      <trkpt lat="42.494311999999944" lon="1.5604630000000004">
        <ele>1546.4000000000017</ele>
        <time>2020-08-22T19:38:39Z</time>
      </trkpt>
      <trkpt lat="42.49428499999994" lon="1.5603880000000003">
        <ele>1546.2000000000016</ele>
        <time>2020-08-22T19:38:53Z</time>
      </trkpt>
      <trkpt lat="42.49430199999994" lon="1.5603310000000004">
        <ele>1546.4000000000017</ele>
        <time>2020-08-22T19:38:58Z</time>
      </trkpt>
      <trkpt lat="42.49430199999994" lon="1.5602660000000004">
        <ele>1546.7000000000016</ele>
        <time>2020-08-22T19:39:43Z</time>
      </trkpt>
      <trkpt lat="42.49430099999994" lon="1.5601970000000003">
        <ele>1546.4000000000017</ele>
        <time>2020-08-22T19:39:52Z</time>
      </trkpt>
      <trkpt lat="42.49435599999995" lon="1.5602010000000002">
        <ele>1546.3000000000018</ele>
        <time>2020-08-22T19:40:08Z</time>
      </trkpt>
      <trkpt lat="42.49439499999995" lon="1.5602390000000002">
        <ele>1546.0000000000018</ele>
        <time>2020-08-22T19:40:16Z</time>
      </trkpt>
      <trkpt lat="42.49444999999995" lon="1.5602010000000002">
        <ele>1545.7000000000019</ele>
        <time>2020-08-22T19:40:29Z</time>
      </trkpt>
      <trkpt lat="42.49449899999995" lon="1.5601840000000002">
        <ele>1545.8000000000018</ele>
        <time>2020-08-22T19:40:33Z</time>
      </trkpt>
      <trkpt lat="42.49452399999995" lon="1.5601300000000002">
        <ele>1546.2000000000019</ele>
        <time>2020-08-22T19:40:37Z</time>
      </trkpt>
      <trkpt lat="42.49455999999995" lon="1.5600680000000002">
        <ele>1546.400000000002</ele>
        <time>2020-08-22T19:40:42Z</time>
      </trkpt>
      <trkpt lat="42.49459299999995" lon="1.5600160000000003">
        <ele>1546.0000000000018</ele>
        <time>2020-08-22T19:40:48Z</time>
      </trkpt>
      <trkpt lat="42.49462099999995" lon="1.5599600000000002">
        <ele>1545.5000000000018</ele>
        <time>2020-08-22T19:40:55Z</time>
      </trkpt>
      <trkpt lat="42.494670999999954" lon="1.5599260000000001">
        <ele>1545.2000000000019</ele>
        <time>2020-08-22T19:41:00Z</time>
      </trkpt>
      <trkpt lat="42.494729999999954" lon="1.5599020000000001">
        <ele>1544.600000000002</ele>
        <time>2020-08-22T19:41:06Z</time>
      </trkpt>
      <trkpt lat="42.494729999999954" lon="1.559838">
        <ele>1543.7000000000019</ele>
        <time>2020-08-22T19:41:13Z</time>
      </trkpt>
      <trkpt lat="42.494774999999954" lon="1.559811">
        <ele>1543.5000000000018</ele>
        <time>2020-08-22T19:41:17Z</time>
      </trkpt>
      <trkpt lat="42.49481299999996" lon="1.559761">
        <ele>1543.0000000000018</ele>
        <time>2020-08-22T19:41:25Z</time>
      </trkpt>
      <trkpt lat="42.494844999999955" lon="1.559707">
        <ele>1542.3000000000018</ele>
        <time>2020-08-22T19:41:33Z</time>
      </trkpt>
      <trkpt lat="42.494889999999955" lon="1.559702">
        <ele>1541.3000000000018</ele>
        <time>2020-08-22T19:41:38Z</time>
      </trkpt>
      <trkpt lat="42.494926999999954" lon="1.559659">
        <ele>1539.9000000000017</ele>
        <time>2020-08-22T19:41:45Z</time>
      </trkpt>
      <trkpt lat="42.49497299999995" lon="1.559613">
        <ele>1538.2000000000016</ele>
        <time>2020-08-22T19:41:54Z</time>
      </trkpt>
      <trkpt lat="42.495030999999955" lon="1.559588">
        <ele>1536.4000000000017</ele>
        <time>2020-08-22T19:42:03Z</time>
      </trkpt>
      <trkpt lat="42.49507399999995" lon="1.559547">
        <ele>1535.2000000000016</ele>
        <time>2020-08-22T19:42:12Z</time>
      </trkpt>
      <trkpt lat="42.49512999999995" lon="1.559534">
        <ele>1533.5000000000016</ele>
        <time>2020-08-22T19:42:21Z</time>
      </trkpt>
      <trkpt lat="42.495173999999956" lon="1.5594919999999999">
        <ele>1532.5000000000016</ele>
        <time>2020-08-22T19:42:26Z</time>
      </trkpt>
      <trkpt lat="42.49522099999996" lon="1.5594789999999998">
        <ele>1531.1000000000015</ele>
        <time>2020-08-22T19:42:35Z</time>
      </trkpt>
      <trkpt lat="42.49527499999996" lon="1.5594449999999997">
        <ele>1530.1000000000015</ele>
        <time>2020-08-22T19:42:41Z</time>
      </trkpt>
      <trkpt lat="42.495320999999954" lon="1.5594119999999998">
        <ele>1528.8000000000015</ele>
        <time>2020-08-22T19:42:49Z</time>
      </trkpt>
      <trkpt lat="42.495365999999954" lon="1.5593699999999997">
        <ele>1527.7000000000016</ele>
        <time>2020-08-22T19:42:55Z</time>
      </trkpt>
      <trkpt lat="42.49540999999996" lon="1.5593299999999997">
        <ele>1526.8000000000015</ele>
        <time>2020-08-22T19:43:05Z</time>
      </trkpt>
      <trkpt lat="42.49545099999996" lon="1.5592959999999996">
        <ele>1526.1000000000015</ele>
        <time>2020-08-22T19:43:12Z</time>
      </trkpt>
      <trkpt lat="42.49546199999996" lon="1.5592349999999995">
        <ele>1525.6000000000015</ele>
        <time>2020-08-22T19:43:18Z</time>
      </trkpt>
      <trkpt lat="42.49550899999996" lon="1.5592009999999994">
        <ele>1524.2000000000014</ele>
        <time>2020-08-22T19:43:30Z</time>
      </trkpt>
      <trkpt lat="42.49557099999996" lon="1.5591709999999994">
        <ele>1522.1000000000015</ele>
        <time>2020-08-22T19:43:47Z</time>
      </trkpt>
      <trkpt lat="42.49560199999996" lon="1.5591259999999993">
        <ele>1521.3000000000015</ele>
        <time>2020-08-22T19:43:55Z</time>
      </trkpt>
      <trkpt lat="42.49561299999996" lon="1.5590579999999994">
        <ele>1520.3000000000015</ele>
        <time>2020-08-22T19:44:04Z</time>
      </trkpt>
      <trkpt lat="42.49570999999996" lon="1.5590469999999994">
        <ele>1518.2000000000016</ele>
        <time>2020-08-22T19:44:22Z</time>
      </trkpt>
      <trkpt lat="42.49580699999996" lon="1.5590109999999995">
        <ele>1515.6000000000017</ele>
        <time>2020-08-22T19:44:50Z</time>
      </trkpt>
      <trkpt lat="42.495874999999955" lon="1.5589929999999994">
        <ele>1513.6000000000017</ele>
        <time>2020-08-22T19:45:19Z</time>
      </trkpt>
      <trkpt lat="42.49591799999995" lon="1.5589729999999995">
        <ele>1511.9000000000017</ele>
        <time>2020-08-22T19:45:34Z</time>
      </trkpt>
      <trkpt lat="42.495990999999954" lon="1.5589699999999995">
        <ele>1509.4000000000017</ele>
        <time>2020-08-22T19:45:48Z</time>
      </trkpt>
      <trkpt lat="42.496035999999954" lon="1.5589399999999995">
        <ele>1507.8000000000018</ele>
        <time>2020-08-22T19:46:01Z</time>
      </trkpt>
      <trkpt lat="42.496068999999956" lon="1.5588909999999996">
        <ele>1505.1000000000017</ele>
        <time>2020-08-22T19:46:34Z</time>
      </trkpt>
      <trkpt lat="42.496113999999956" lon="1.5588559999999996">
        <ele>1503.8000000000018</ele>
        <time>2020-08-22T19:46:42Z</time>
      </trkpt>
      <trkpt lat="42.49616699999996" lon="1.5588199999999997">
        <ele>1503.1000000000017</ele>
        <time>2020-08-22T19:46:47Z</time>
      </trkpt>
      <trkpt lat="42.49623899999996" lon="1.5587299999999997">
        <ele>1500.2000000000016</ele>
        <time>2020-08-22T19:47:08Z</time>
      </trkpt>
      <trkpt lat="42.49627799999996" lon="1.5586879999999996">
        <ele>1499.4000000000017</ele>
        <time>2020-08-22T19:47:15Z</time>
      </trkpt>
      <trkpt lat="42.49630599999996" lon="1.5586289999999996">
        <ele>1498.0000000000016</ele>
        <time>2020-08-22T19:47:24Z</time>
      </trkpt>
      <trkpt lat="42.496335999999964" lon="1.5585799999999996">
        <ele>1497.1000000000015</ele>
        <time>2020-08-22T19:47:32Z</time>
      </trkpt>
      <trkpt lat="42.49637699999997" lon="1.5585549999999997">
        <ele>1496.2000000000014</ele>
        <time>2020-08-22T19:47:38Z</time>
      </trkpt>
      <trkpt lat="42.496402999999965" lon="1.5584989999999996">
        <ele>1494.9000000000015</ele>
        <time>2020-08-22T19:47:46Z</time>
      </trkpt>
      <trkpt lat="42.49644999999997" lon="1.5584819999999997">
        <ele>1493.3000000000015</ele>
        <time>2020-08-22T19:47:56Z</time>
      </trkpt>
      <trkpt lat="42.49646699999997" lon="1.5584219999999998">
        <ele>1492.6000000000015</ele>
        <time>2020-08-22T19:48:06Z</time>
      </trkpt>
      <trkpt lat="42.49651399999997" lon="1.5584199999999997">
        <ele>1491.5000000000016</ele>
        <time>2020-08-22T19:48:20Z</time>
      </trkpt>
      <trkpt lat="42.496534999999966" lon="1.5583619999999998">
        <ele>1490.5000000000016</ele>
        <time>2020-08-22T19:48:28Z</time>
      </trkpt>
      <trkpt lat="42.49658399999996" lon="1.5583109999999998">
        <ele>1488.8000000000015</ele>
        <time>2020-08-22T19:48:44Z</time>
      </trkpt>
      <trkpt lat="42.496560999999964" lon="1.5582459999999998">
        <ele>1487.5000000000016</ele>
        <time>2020-08-22T19:48:54Z</time>
      </trkpt>
      <trkpt lat="42.496565999999966" lon="1.5581829999999999">
        <ele>1486.0000000000016</ele>
        <time>2020-08-22T19:49:16Z</time>
      </trkpt>
      <trkpt lat="42.496630999999965" lon="1.5582179999999999">
        <ele>1484.2000000000016</ele>
        <time>2020-08-22T19:49:37Z</time>
      </trkpt>
      <trkpt lat="42.496678999999965" lon="1.558198">
        <ele>1483.1000000000017</ele>
        <time>2020-08-22T19:49:49Z</time>
      </trkpt>
      <trkpt lat="42.49671999999997" lon="1.558154">
        <ele>1482.3000000000018</ele>
        <time>2020-08-22T19:49:59Z</time>
      </trkpt>
      <trkpt lat="42.49674799999997" lon="1.5580990000000001">
        <ele>1481.8000000000018</ele>
        <time>2020-08-22T19:50:05Z</time>
      </trkpt>
      <trkpt lat="42.49670799999997" lon="1.557975">
        <ele>1480.4000000000017</ele>
        <time>2020-08-22T19:50:18Z</time>
      </trkpt>
      <trkpt lat="42.49671999999997" lon="1.5579100000000001">
        <ele>1478.4000000000017</ele>
        <time>2020-08-22T19:50:33Z</time>
      </trkpt>
      <trkpt lat="42.49677599999997" lon="1.557919">
        <ele>1477.7000000000016</ele>
        <time>2020-08-22T19:50:41Z</time>
      </trkpt>
      <trkpt lat="42.49687499999997" lon="1.5579070000000002">
        <ele>1473.7000000000016</ele>
        <time>2020-08-22T19:51:06Z</time>
      </trkpt>
      <trkpt lat="42.49691399999997" lon="1.55794">
        <ele>1471.0000000000016</ele>
        <time>2020-08-22T19:53:18Z</time>
      </trkpt>
      <trkpt lat="42.49695399999997" lon="1.557905">
        <ele>1470.5000000000016</ele>
        <time>2020-08-22T19:53:25Z</time>
      </trkpt>
      <trkpt lat="42.496999999999964" lon="1.557897">
        <ele>1468.5000000000016</ele>
        <time>2020-08-22T19:53:39Z</time>
      </trkpt>
      <trkpt lat="42.49705199999996" lon="1.5578880000000002">
        <ele>1468.0000000000016</ele>
        <time>2020-08-22T19:53:46Z</time>
      </trkpt>
      <trkpt lat="42.49707699999996" lon="1.5578370000000001">
        <ele>1467.8000000000015</ele>
        <time>2020-08-22T19:53:51Z</time>
      </trkpt>
      <trkpt lat="42.49709699999996" lon="1.5577790000000002">
        <ele>1467.4000000000015</ele>
        <time>2020-08-22T19:53:57Z</time>
      </trkpt>
      <trkpt lat="42.49711899999996" lon="1.5577240000000003">
        <ele>1467.3000000000015</ele>
        <time>2020-08-22T19:54:03Z</time>
      </trkpt>
      <trkpt lat="42.497114999999965" lon="1.5576600000000003">
        <ele>1466.8000000000015</ele>
        <time>2020-08-22T19:54:10Z</time>
      </trkpt>
      <trkpt lat="42.49713599999996" lon="1.5575930000000002">
        <ele>1466.1000000000015</ele>
        <time>2020-08-22T19:54:18Z</time>
      </trkpt>
      <trkpt lat="42.49714999999996" lon="1.5575210000000002">
        <ele>1464.5000000000016</ele>
        <time>2020-08-22T19:54:27Z</time>
      </trkpt>
      <trkpt lat="42.49717199999996" lon="1.5574620000000001">
        <ele>1463.3000000000015</ele>
        <time>2020-08-22T19:54:34Z</time>
      </trkpt>
      <trkpt lat="42.497215999999966" lon="1.557441">
        <ele>1462.1000000000015</ele>
        <time>2020-08-22T19:54:39Z</time>
      </trkpt>
      <trkpt lat="42.49723799999997" lon="1.557387">
        <ele>1461.1000000000015</ele>
        <time>2020-08-22T19:54:46Z</time>
      </trkpt>
      <trkpt lat="42.49725199999997" lon="1.5573210000000002">
        <ele>1459.7000000000014</ele>
        <time>2020-08-22T19:54:53Z</time>
      </trkpt>
      <trkpt lat="42.49726599999997" lon="1.5572610000000002">
        <ele>1458.9000000000015</ele>
        <time>2020-08-22T19:54:57Z</time>
      </trkpt>
      <trkpt lat="42.49727899999997" lon="1.5571960000000002">
        <ele>1458.8000000000015</ele>
        <time>2020-08-22T19:55:02Z</time>
      </trkpt>
      <trkpt lat="42.49729299999997" lon="1.5571360000000003">
        <ele>1458.9000000000015</ele>
        <time>2020-08-22T19:55:06Z</time>
      </trkpt>
      <trkpt lat="42.49730799999997" lon="1.5570770000000003">
        <ele>1458.7000000000014</ele>
        <time>2020-08-22T19:55:10Z</time>
      </trkpt>
      <trkpt lat="42.49727899999997" lon="1.5570110000000004">
        <ele>1457.8000000000013</ele>
        <time>2020-08-22T19:55:18Z</time>
      </trkpt>
      <trkpt lat="42.497333999999974" lon="1.5569650000000004">
        <ele>1456.5000000000014</ele>
        <time>2020-08-22T19:55:25Z</time>
      </trkpt>
      <trkpt lat="42.49738899999998" lon="1.5569280000000003">
        <ele>1456.0000000000014</ele>
        <time>2020-08-22T19:55:30Z</time>
      </trkpt>
      <trkpt lat="42.497442999999976" lon="1.5568560000000002">
        <ele>1455.2000000000014</ele>
        <time>2020-08-22T19:55:37Z</time>
      </trkpt>
      <trkpt lat="42.49747199999997" lon="1.5568070000000003">
        <ele>1454.4000000000015</ele>
        <time>2020-08-22T19:55:42Z</time>
      </trkpt>
      <trkpt lat="42.49751299999998" lon="1.5567700000000002">
        <ele>1452.8000000000015</ele>
        <time>2020-08-22T19:55:48Z</time>
      </trkpt>
      <trkpt lat="42.49755199999998" lon="1.5567320000000002">
        <ele>1451.8000000000015</ele>
        <time>2020-08-22T19:55:54Z</time>
      </trkpt>
      <trkpt lat="42.49761399999998" lon="1.5567010000000003">
        <ele>1448.9000000000015</ele>
        <time>2020-08-22T19:56:09Z</time>
      </trkpt>
      <trkpt lat="42.497667999999976" lon="1.5567280000000003">
        <ele>1448.2000000000014</ele>
        <time>2020-08-22T19:56:16Z</time>
      </trkpt>
      <trkpt lat="42.49773799999998" lon="1.5567390000000003">
        <ele>1446.2000000000014</ele>
        <time>2020-08-22T19:56:29Z</time>
      </trkpt>
      <trkpt lat="42.49778299999998" lon="1.5566550000000003">
        <ele>1444.3000000000013</ele>
        <time>2020-08-22T19:56:42Z</time>
      </trkpt>
      <trkpt lat="42.497816999999976" lon="1.5566050000000002">
        <ele>1443.8000000000013</ele>
        <time>2020-08-22T19:56:47Z</time>
      </trkpt>
      <trkpt lat="42.49781299999998" lon="1.5565440000000001">
        <ele>1442.2000000000014</ele>
        <time>2020-08-22T19:57:00Z</time>
      </trkpt>
      <trkpt lat="42.49778499999998" lon="1.5564870000000002">
        <ele>1438.5000000000014</ele>
        <time>2020-08-22T19:57:23Z</time>
      </trkpt>
      <trkpt lat="42.49777299999998" lon="1.5564240000000003">
        <ele>1437.4000000000015</ele>
        <time>2020-08-22T19:57:32Z</time>
      </trkpt>
      <trkpt lat="42.49781499999998" lon="1.5564000000000002">
        <ele>1436.2000000000014</ele>
        <time>2020-08-22T19:57:38Z</time>
      </trkpt>
      <trkpt lat="42.497861999999984" lon="1.5563990000000003">
        <ele>1435.8000000000013</ele>
        <time>2020-08-22T19:57:43Z</time>
      </trkpt>
      <trkpt lat="42.49790999999998" lon="1.5564130000000003">
        <ele>1434.8000000000013</ele>
        <time>2020-08-22T19:57:56Z</time>
      </trkpt>
      <trkpt lat="42.497964999999986" lon="1.5564100000000003">
        <ele>1434.3000000000013</ele>
        <time>2020-08-22T19:58:05Z</time>
      </trkpt>
      <trkpt lat="42.49802599999999" lon="1.5564030000000002">
        <ele>1433.5000000000014</ele>
        <time>2020-08-22T19:58:11Z</time>
      </trkpt>
      <trkpt lat="42.49808799999999" lon="1.5563390000000001">
        <ele>1432.0000000000014</ele>
        <time>2020-08-22T19:58:25Z</time>
      </trkpt>
      <trkpt lat="42.49812099999999" lon="1.55628">
        <ele>1430.6000000000013</ele>
        <time>2020-08-22T19:58:33Z</time>
      </trkpt>
      <trkpt lat="42.49815999999999" lon="1.55624">
        <ele>1429.7000000000012</ele>
        <time>2020-08-22T19:58:39Z</time>
      </trkpt>
      <trkpt lat="42.49817199999999" lon="1.556178">
        <ele>1428.300000000001</ele>
        <time>2020-08-22T19:58:48Z</time>
      </trkpt>
      <trkpt lat="42.49821899999999" lon="1.556144">
        <ele>1427.0000000000011</ele>
        <time>2020-08-22T19:58:54Z</time>
      </trkpt>
      <trkpt lat="42.49823399999999" lon="1.556064">
        <ele>1425.7000000000012</ele>
        <time>2020-08-22T19:59:15Z</time>
      </trkpt>
      <trkpt lat="42.49826799999999" lon="1.556009">
        <ele>1423.5000000000011</ele>
        <time>2020-08-22T19:59:31Z</time>
      </trkpt>
      <trkpt lat="42.49831099999999" lon="1.555988">
        <ele>1422.2000000000012</ele>
        <time>2020-08-22T19:59:38Z</time>
      </trkpt>
      <trkpt lat="42.49832799999999" lon="1.5559189999999998">
        <ele>1420.7000000000012</ele>
        <time>2020-08-22T19:59:46Z</time>
      </trkpt>
      <trkpt lat="42.49836599999999" lon="1.5558809999999998">
        <ele>1418.5000000000011</ele>
        <time>2020-08-22T19:59:57Z</time>
      </trkpt>
      <trkpt lat="42.49839099999999" lon="1.5558249999999998">
        <ele>1417.600000000001</ele>
        <time>2020-08-22T20:00:04Z</time>
      </trkpt>
      <trkpt lat="42.49841899999999" lon="1.5557219999999998">
        <ele>1415.5000000000011</ele>
        <time>2020-08-22T20:00:22Z</time>
      </trkpt>
      <trkpt lat="42.498459999999994" lon="1.5556759999999998">
        <ele>1414.0000000000011</ele>
        <time>2020-08-22T20:00:39Z</time>
      </trkpt>
      <trkpt lat="42.498453999999995" lon="1.5556159999999999">
        <ele>1412.800000000001</ele>
        <time>2020-08-22T20:00:45Z</time>
      </trkpt>
      <trkpt lat="42.498515" lon="1.5556059999999998">
        <ele>1410.7000000000012</ele>
        <time>2020-08-22T20:00:57Z</time>
      </trkpt>
      <trkpt lat="42.498556" lon="1.555567">
        <ele>1409.6000000000013</ele>
        <time>2020-08-22T20:01:08Z</time>
      </trkpt>
      <trkpt lat="42.498605" lon="1.555553">
        <ele>1408.6000000000013</ele>
        <time>2020-08-22T20:01:14Z</time>
      </trkpt>
      <trkpt lat="42.498653999999995" lon="1.555545">
        <ele>1407.8000000000013</ele>
        <time>2020-08-22T20:01:27Z</time>
      </trkpt>
      <trkpt lat="42.498673999999994" lon="1.5554839999999999">
        <ele>1407.0000000000014</ele>
        <time>2020-08-22T20:01:38Z</time>
      </trkpt>
      <trkpt lat="42.498687999999994" lon="1.5554219999999999">
        <ele>1405.8000000000013</ele>
        <time>2020-08-22T20:01:52Z</time>
      </trkpt>
      <trkpt lat="42.498732" lon="1.5553899999999998">
        <ele>1404.5000000000014</ele>
        <time>2020-08-22T20:02:03Z</time>
      </trkpt>
      <trkpt lat="42.498760999999995" lon="1.5553399999999997">
        <ele>1402.9000000000015</ele>
        <time>2020-08-22T20:02:16Z</time>
      </trkpt>
      <trkpt lat="42.49881799999999" lon="1.5552869999999996">
        <ele>1401.5000000000014</ele>
        <time>2020-08-22T20:02:30Z</time>
      </trkpt>
      <trkpt lat="42.498842999999994" lon="1.5551359999999996">
        <ele>1399.4000000000015</ele>
        <time>2020-08-22T20:02:57Z</time>
      </trkpt>
      <trkpt lat="42.498839" lon="1.5550459999999997">
        <ele>1397.3000000000015</ele>
        <time>2020-08-22T20:03:24Z</time>
      </trkpt>
      <trkpt lat="42.498884" lon="1.5549969999999997">
        <ele>1395.5000000000016</ele>
        <time>2020-08-22T20:03:51Z</time>
      </trkpt>
      <trkpt lat="42.49892" lon="1.5549549999999996">
        <ele>1394.1000000000015</ele>
        <time>2020-08-22T20:04:01Z</time>
      </trkpt>
      <trkpt lat="42.498977" lon="1.5549479999999996">
        <ele>1391.7000000000014</ele>
        <time>2020-08-22T20:04:17Z</time>
      </trkpt>
      <trkpt lat="42.498979999999996" lon="1.5548829999999996">
        <ele>1390.0000000000014</ele>
        <time>2020-08-22T20:04:30Z</time>
      </trkpt>
      <trkpt lat="42.49901199999999" lon="1.5548369999999996">
        <ele>1388.4000000000015</ele>
        <time>2020-08-22T20:04:40Z</time>
      </trkpt>
      <trkpt lat="42.49902699999999" lon="1.5547759999999995">
        <ele>1386.8000000000015</ele>
        <time>2020-08-22T20:04:52Z</time>
      </trkpt>
      <trkpt lat="42.49903899999999" lon="1.5547139999999995">
        <ele>1385.8000000000015</ele>
        <time>2020-08-22T20:05:09Z</time>
      </trkpt>
      <trkpt lat="42.49908699999999" lon="1.5546729999999995">
        <ele>1384.7000000000016</ele>
        <time>2020-08-22T20:05:20Z</time>
      </trkpt>
      <trkpt lat="42.49911799999999" lon="1.5546259999999996">
        <ele>1383.8000000000015</ele>
        <time>2020-08-22T20:05:31Z</time>
      </trkpt>
      <trkpt lat="42.49915699999999" lon="1.5545809999999995">
        <ele>1382.7000000000016</ele>
        <time>2020-08-22T20:05:42Z</time>
      </trkpt>
      <trkpt lat="42.49918799999999" lon="1.5545259999999996">
        <ele>1382.0000000000016</ele>
        <time>2020-08-22T20:05:51Z</time>
      </trkpt>
      <trkpt lat="42.49922399999999" lon="1.5544819999999997">
        <ele>1381.2000000000016</ele>
        <time>2020-08-22T20:06:03Z</time>
      </trkpt>
      <trkpt lat="42.49927299999999" lon="1.5544179999999996">
        <ele>1381.0000000000016</ele>
        <time>2020-08-22T20:06:11Z</time>
      </trkpt>
      <trkpt lat="42.499304999999985" lon="1.5543639999999996">
        <ele>1380.3000000000015</ele>
        <time>2020-08-22T20:06:18Z</time>
      </trkpt>
      <trkpt lat="42.49935399999998" lon="1.5543229999999997">
        <ele>1378.9000000000015</ele>
        <time>2020-08-22T20:06:32Z</time>
      </trkpt>
      <trkpt lat="42.499414999999985" lon="1.5543339999999997">
        <ele>1377.9000000000015</ele>
        <time>2020-08-22T20:06:43Z</time>
      </trkpt>
      <trkpt lat="42.499453999999986" lon="1.5542909999999996">
        <ele>1377.1000000000015</ele>
        <time>2020-08-22T20:06:49Z</time>
      </trkpt>
      <trkpt lat="42.49950299999998" lon="1.5542889999999996">
        <ele>1376.7000000000014</ele>
        <time>2020-08-22T20:06:53Z</time>
      </trkpt>
      <trkpt lat="42.49955399999998" lon="1.5543059999999995">
        <ele>1376.4000000000015</ele>
        <time>2020-08-22T20:06:58Z</time>
      </trkpt>
      <trkpt lat="42.49959399999998" lon="1.5542739999999995">
        <ele>1376.0000000000014</ele>
        <time>2020-08-22T20:07:08Z</time>
      </trkpt>
      <trkpt lat="42.49964399999998" lon="1.5542569999999996">
        <ele>1375.2000000000014</ele>
        <time>2020-08-22T20:07:13Z</time>
      </trkpt>
      <trkpt lat="42.49969499999998" lon="1.5542159999999996">
        <ele>1374.1000000000015</ele>
        <time>2020-08-22T20:07:25Z</time>
      </trkpt>
      <trkpt lat="42.499724999999984" lon="1.5541599999999995">
        <ele>1373.2000000000014</ele>
        <time>2020-08-22T20:07:33Z</time>
      </trkpt>
      <trkpt lat="42.49976599999999" lon="1.5541299999999996">
        <ele>1372.5000000000014</ele>
        <time>2020-08-22T20:07:42Z</time>
      </trkpt>
      <trkpt lat="42.49980699999999" lon="1.5541009999999995">
        <ele>1371.7000000000014</ele>
        <time>2020-08-22T20:07:50Z</time>
      </trkpt>
      <trkpt lat="42.49985799999999" lon="1.5540929999999995">
        <ele>1371.2000000000014</ele>
        <time>2020-08-22T20:07:57Z</time>
      </trkpt>
      <trkpt lat="42.499909999999986" lon="1.5540929999999995">
        <ele>1369.9000000000015</ele>
        <time>2020-08-22T20:08:06Z</time>
      </trkpt>
      <trkpt lat="42.49994899999999" lon="1.5540429999999994">
        <ele>1368.6000000000015</ele>
        <time>2020-08-22T20:08:18Z</time>
      </trkpt>
      <trkpt lat="42.499994999999984" lon="1.5540459999999994">
        <ele>1368.0000000000016</ele>
        <time>2020-08-22T20:08:26Z</time>
      </trkpt>
      <trkpt lat="42.50003299999999" lon="1.5539949999999993">
        <ele>1367.6000000000015</ele>
        <time>2020-08-22T20:08:32Z</time>
      </trkpt>
      <trkpt lat="42.50005299999999" lon="1.5539259999999993">
        <ele>1367.3000000000015</ele>
        <time>2020-08-22T20:08:38Z</time>
      </trkpt>
      <trkpt lat="42.50009999999999" lon="1.5538859999999992">
        <ele>1365.9000000000015</ele>
        <time>2020-08-22T20:08:48Z</time>
      </trkpt>
      <trkpt lat="42.50014099999999" lon="1.5538539999999992">
        <ele>1365.1000000000015</ele>
        <time>2020-08-22T20:08:54Z</time>
      </trkpt>
      <trkpt lat="42.50019999999999" lon="1.5538379999999992">
        <ele>1363.6000000000015</ele>
        <time>2020-08-22T20:09:08Z</time>
      </trkpt>
      <trkpt lat="42.50024599999999" lon="1.5538219999999991">
        <ele>1362.6000000000015</ele>
        <time>2020-08-22T20:09:14Z</time>
      </trkpt>
      <trkpt lat="42.50027399999999" lon="1.5537629999999991">
        <ele>1361.7000000000014</ele>
        <time>2020-08-22T20:09:23Z</time>
      </trkpt>
      <trkpt lat="42.50030199999999" lon="1.553703999999999">
        <ele>1361.3000000000013</ele>
        <time>2020-08-22T20:09:31Z</time>
      </trkpt>
      <trkpt lat="42.50034799999999" lon="1.553692999999999">
        <ele>1360.2000000000014</ele>
        <time>2020-08-22T20:09:41Z</time>
      </trkpt>
      <trkpt lat="42.50039599999999" lon="1.553677999999999">
        <ele>1359.4000000000015</ele>
        <time>2020-08-22T20:09:48Z</time>
      </trkpt>
      <trkpt lat="42.500444999999985" lon="1.553667999999999">
        <ele>1358.6000000000015</ele>
        <time>2020-08-22T20:09:54Z</time>
      </trkpt>
      <trkpt lat="42.50045499999999" lon="1.553580999999999">
        <ele>1357.1000000000015</ele>
        <time>2020-08-22T20:10:05Z</time>
      </trkpt>
      <trkpt lat="42.50049999999999" lon="1.5535579999999989">
        <ele>1355.7000000000014</ele>
        <time>2020-08-22T20:10:13Z</time>
      </trkpt>
      <trkpt lat="42.50055499999999" lon="1.553532999999999">
        <ele>1354.3000000000013</ele>
        <time>2020-08-22T20:10:22Z</time>
      </trkpt>
      <trkpt lat="42.50060499999999" lon="1.5535149999999989">
        <ele>1353.5000000000014</ele>
        <time>2020-08-22T20:10:28Z</time>
      </trkpt>
      <trkpt lat="42.500648999999996" lon="1.5534889999999988">
        <ele>1352.8000000000013</ele>
        <time>2020-08-22T20:10:35Z</time>
      </trkpt>
      <trkpt lat="42.500648999999996" lon="1.5534279999999987">
        <ele>1351.6000000000013</ele>
        <time>2020-08-22T20:10:47Z</time>
      </trkpt>
      <trkpt lat="42.50069799999999" lon="1.5533959999999987">
        <ele>1351.0000000000014</ele>
        <time>2020-08-22T20:10:52Z</time>
      </trkpt>
      <trkpt lat="42.50073799999999" lon="1.5533649999999988">
        <ele>1349.8000000000013</ele>
        <time>2020-08-22T20:10:59Z</time>
      </trkpt>
      <trkpt lat="42.500775999999995" lon="1.5533309999999987">
        <ele>1348.7000000000014</ele>
        <time>2020-08-22T20:11:06Z</time>
      </trkpt>
      <trkpt lat="42.50082499999999" lon="1.5533109999999988">
        <ele>1347.4000000000015</ele>
        <time>2020-08-22T20:11:13Z</time>
      </trkpt>
      <trkpt lat="42.50089499999999" lon="1.5533009999999987">
        <ele>1346.0000000000014</ele>
        <time>2020-08-22T20:11:22Z</time>
      </trkpt>
      <trkpt lat="42.50094099999999" lon="1.5532769999999987">
        <ele>1343.4000000000015</ele>
        <time>2020-08-22T20:11:37Z</time>
      </trkpt>
      <trkpt lat="42.50099299999999" lon="1.5532809999999986">
        <ele>1342.2000000000014</ele>
        <time>2020-08-22T20:11:44Z</time>
      </trkpt>
      <trkpt lat="42.50112199999999" lon="1.5533069999999987">
        <ele>1338.3000000000013</ele>
        <time>2020-08-22T20:12:14Z</time>
      </trkpt>
      <trkpt lat="42.501170999999985" lon="1.5533209999999986">
        <ele>1337.1000000000013</ele>
        <time>2020-08-22T20:12:24Z</time>
      </trkpt>
      <trkpt lat="42.50121399999998" lon="1.5532999999999986">
        <ele>1335.5000000000014</ele>
        <time>2020-08-22T20:12:41Z</time>
      </trkpt>
      <trkpt lat="42.501285999999986" lon="1.5532789999999985">
        <ele>1333.8000000000013</ele>
        <time>2020-08-22T20:12:56Z</time>
      </trkpt>
      <trkpt lat="42.501280999999985" lon="1.5532019999999984">
        <ele>1331.8000000000013</ele>
        <time>2020-08-22T20:13:12Z</time>
      </trkpt>
      <trkpt lat="42.501314999999984" lon="1.5531279999999985">
        <ele>1330.4000000000012</ele>
        <time>2020-08-22T20:13:26Z</time>
      </trkpt>
      <trkpt lat="42.501359999999984" lon="1.5530969999999986">
        <ele>1328.0000000000011</ele>
        <time>2020-08-22T20:13:42Z</time>
      </trkpt>
      <trkpt lat="42.501407999999984" lon="1.5531229999999987">
        <ele>1325.7000000000012</ele>
        <time>2020-08-22T20:13:48Z</time>
      </trkpt>
      <trkpt lat="42.501454999999986" lon="1.5531029999999988">
        <ele>1324.5000000000011</ele>
        <time>2020-08-22T20:13:53Z</time>
      </trkpt>
      <trkpt lat="42.501488999999985" lon="1.5530549999999987">
        <ele>1323.300000000001</ele>
        <time>2020-08-22T20:14:12Z</time>
      </trkpt>
      <trkpt lat="42.501533999999985" lon="1.5530109999999988">
        <ele>1322.2000000000012</ele>
        <time>2020-08-22T20:14:23Z</time>
      </trkpt>
      <trkpt lat="42.501573999999984" lon="1.5529739999999987">
        <ele>1321.4000000000012</ele>
        <time>2020-08-22T20:14:32Z</time>
      </trkpt>
      <trkpt lat="42.50162499999998" lon="1.5529689999999987">
        <ele>1320.7000000000012</ele>
        <time>2020-08-22T20:14:37Z</time>
      </trkpt>
      <trkpt lat="42.501668999999985" lon="1.5529359999999988">
        <ele>1319.800000000001</ele>
        <time>2020-08-22T20:14:45Z</time>
      </trkpt>
      <trkpt lat="42.501716999999985" lon="1.5529559999999987">
        <ele>1319.7000000000012</ele>
        <time>2020-08-22T20:14:48Z</time>
      </trkpt>
      <trkpt lat="42.50174599999998" lon="1.5529039999999987">
        <ele>1318.6000000000013</ele>
        <time>2020-08-22T20:15:06Z</time>
      </trkpt>
      <trkpt lat="42.50179099999998" lon="1.5528779999999986">
        <ele>1317.8000000000013</ele>
        <time>2020-08-22T20:15:12Z</time>
      </trkpt>
      <trkpt lat="42.501834999999986" lon="1.5528559999999987">
        <ele>1316.3000000000013</ele>
        <time>2020-08-22T20:15:30Z</time>
      </trkpt>
      <trkpt lat="42.50185899999999" lon="1.5528019999999987">
        <ele>1315.4000000000012</ele>
        <time>2020-08-22T20:15:37Z</time>
      </trkpt>
      <trkpt lat="42.50189799999999" lon="1.5527639999999987">
        <ele>1314.7000000000012</ele>
        <time>2020-08-22T20:15:45Z</time>
      </trkpt>
      <trkpt lat="42.50195299999999" lon="1.5527599999999988">
        <ele>1314.1000000000013</ele>
        <time>2020-08-22T20:15:50Z</time>
      </trkpt>
      <trkpt lat="42.50199899999999" lon="1.5527499999999987">
        <ele>1313.3000000000013</ele>
        <time>2020-08-22T20:15:56Z</time>
      </trkpt>
      <trkpt lat="42.50203799999999" lon="1.5526989999999987">
        <ele>1312.4000000000012</ele>
        <time>2020-08-22T20:16:02Z</time>
      </trkpt>
      <trkpt lat="42.50207699999999" lon="1.5526499999999988">
        <ele>1311.6000000000013</ele>
        <time>2020-08-22T20:16:09Z</time>
      </trkpt>
      <trkpt lat="42.502120999999995" lon="1.5526339999999987">
        <ele>1311.3000000000013</ele>
        <time>2020-08-22T20:16:12Z</time>
      </trkpt>
      <trkpt lat="42.502179" lon="1.5526169999999988">
        <ele>1310.9000000000012</ele>
        <time>2020-08-22T20:16:17Z</time>
      </trkpt>
      <trkpt lat="42.502207" lon="1.5525569999999989">
        <ele>1310.4000000000012</ele>
        <time>2020-08-22T20:16:24Z</time>
      </trkpt>
      <trkpt lat="42.502248" lon="1.552504999999999">
        <ele>1310.2000000000012</ele>
        <time>2020-08-22T20:16:28Z</time>
      </trkpt>
      <trkpt lat="42.502285" lon="1.5524649999999989">
        <ele>1310.0000000000011</ele>
        <time>2020-08-22T20:16:32Z</time>
      </trkpt>
      <trkpt lat="42.502334" lon="1.5524309999999988">
        <ele>1308.9000000000012</ele>
        <time>2020-08-22T20:16:39Z</time>
      </trkpt>
      <trkpt lat="42.502381" lon="1.552399999999999">
        <ele>1308.3000000000013</ele>
        <time>2020-08-22T20:16:44Z</time>
      </trkpt>
      <trkpt lat="42.50243" lon="1.5523899999999988">
        <ele>1307.4000000000012</ele>
        <time>2020-08-22T20:16:51Z</time>
      </trkpt>
      <trkpt lat="42.502480999999996" lon="1.5523739999999988">
        <ele>1306.4000000000012</ele>
        <time>2020-08-22T20:16:57Z</time>
      </trkpt>
      <trkpt lat="42.502522" lon="1.5523479999999987">
        <ele>1305.6000000000013</ele>
        <time>2020-08-22T20:17:01Z</time>
      </trkpt>
      <trkpt lat="42.502553" lon="1.5523009999999988">
        <ele>1304.2000000000012</ele>
        <time>2020-08-22T20:17:07Z</time>
      </trkpt>
      <trkpt lat="42.502575" lon="1.552242999999999">
        <ele>1303.4000000000012</ele>
        <time>2020-08-22T20:17:12Z</time>
      </trkpt>
      <trkpt lat="42.502604" lon="1.5521929999999988">
        <ele>1302.2000000000012</ele>
        <time>2020-08-22T20:17:19Z</time>
      </trkpt>
      <trkpt lat="42.502663999999996" lon="1.5521709999999989">
        <ele>1300.9000000000012</ele>
        <time>2020-08-22T20:17:27Z</time>
      </trkpt>
      <trkpt lat="42.50269599999999" lon="1.552107999999999">
        <ele>1300.3000000000013</ele>
        <time>2020-08-22T20:17:33Z</time>
      </trkpt>
      <trkpt lat="42.50271899999999" lon="1.552048999999999">
        <ele>1299.9000000000012</ele>
        <time>2020-08-22T20:17:39Z</time>
      </trkpt>
      <trkpt lat="42.50274099999999" lon="1.551982999999999">
        <ele>1299.6000000000013</ele>
        <time>2020-08-22T20:17:44Z</time>
      </trkpt>
      <trkpt lat="42.50274999999999" lon="1.551904999999999">
        <ele>1299.2000000000012</ele>
        <time>2020-08-22T20:17:49Z</time>
      </trkpt>
      <trkpt lat="42.502787999999995" lon="1.551863999999999">
        <ele>1298.4000000000012</ele>
        <time>2020-08-22T20:17:55Z</time>
      </trkpt>
      <trkpt lat="42.50280599999999" lon="1.551807999999999">
        <ele>1296.7000000000012</ele>
        <time>2020-08-22T20:18:04Z</time>
      </trkpt>
      <trkpt lat="42.50285099999999" lon="1.551789999999999">
        <ele>1296.2000000000012</ele>
        <time>2020-08-22T20:18:08Z</time>
      </trkpt>
      <trkpt lat="42.50289599999999" lon="1.5517819999999989">
        <ele>1295.1000000000013</ele>
        <time>2020-08-22T20:18:14Z</time>
      </trkpt>
      <trkpt lat="42.502928999999995" lon="1.5517399999999988">
        <ele>1294.0000000000014</ele>
        <time>2020-08-22T20:18:21Z</time>
      </trkpt>
      <trkpt lat="42.502967" lon="1.5517039999999989">
        <ele>1293.3000000000013</ele>
        <time>2020-08-22T20:18:26Z</time>
      </trkpt>
      <trkpt lat="42.503023999999996" lon="1.5516749999999988">
        <ele>1292.2000000000014</ele>
        <time>2020-08-22T20:18:35Z</time>
      </trkpt>
      <trkpt lat="42.503051" lon="1.5516259999999988">
        <ele>1291.3000000000013</ele>
        <time>2020-08-22T20:18:41Z</time>
      </trkpt>
      <trkpt lat="42.50309" lon="1.551592999999999">
        <ele>1289.7000000000014</ele>
        <time>2020-08-22T20:18:59Z</time>
      </trkpt>
      <trkpt lat="42.50315" lon="1.551567999999999">
        <ele>1288.9000000000015</ele>
        <time>2020-08-22T20:19:10Z</time>
      </trkpt>
      <trkpt lat="42.503181999999995" lon="1.551521999999999">
        <ele>1288.1000000000015</ele>
        <time>2020-08-22T20:19:17Z</time>
      </trkpt>
      <trkpt lat="42.503229" lon="1.551518999999999">
        <ele>1287.2000000000014</ele>
        <time>2020-08-22T20:19:23Z</time>
      </trkpt>
      <trkpt lat="42.503223999999996" lon="1.551582999999999">
        <ele>1283.5000000000014</ele>
        <time>2020-08-22T20:19:46Z</time>
      </trkpt>
      <trkpt lat="42.503268" lon="1.551621999999999">
        <ele>1282.5000000000014</ele>
        <time>2020-08-22T20:19:57Z</time>
      </trkpt>
      <trkpt lat="42.503315" lon="1.551623999999999">
        <ele>1281.2000000000014</ele>
        <time>2020-08-22T20:20:06Z</time>
      </trkpt>
      <trkpt lat="42.503368" lon="1.551636999999999">
        <ele>1279.5000000000014</ele>
        <time>2020-08-22T20:20:16Z</time>
      </trkpt>
      <trkpt lat="42.503411" lon="1.551615999999999">
        <ele>1278.5000000000014</ele>
        <time>2020-08-22T20:20:26Z</time>
      </trkpt>
      <trkpt lat="42.503465" lon="1.551619999999999">
        <ele>1277.3000000000013</ele>
        <time>2020-08-22T20:20:34Z</time>
      </trkpt>
      <trkpt lat="42.503521" lon="1.5516209999999988">
        <ele>1276.4000000000012</ele>
        <time>2020-08-22T20:20:40Z</time>
      </trkpt>
      <trkpt lat="42.503567" lon="1.5516209999999988">
        <ele>1275.8000000000013</ele>
        <time>2020-08-22T20:20:46Z</time>
      </trkpt>
      <trkpt lat="42.503597" lon="1.5515699999999988">
        <ele>1275.3000000000013</ele>
        <time>2020-08-22T20:20:52Z</time>
      </trkpt>
      <trkpt lat="42.503641" lon="1.5515449999999988">
        <ele>1274.3000000000013</ele>
        <time>2020-08-22T20:20:59Z</time>
      </trkpt>
      <trkpt lat="42.503692" lon="1.5515269999999988">
        <ele>1273.0000000000014</ele>
        <time>2020-08-22T20:21:06Z</time>
      </trkpt>
      <trkpt lat="42.503697" lon="1.5514659999999987">
        <ele>1272.3000000000013</ele>
        <time>2020-08-22T20:21:23Z</time>
      </trkpt>
      <trkpt lat="42.503723" lon="1.5514159999999986">
        <ele>1271.2000000000014</ele>
        <time>2020-08-22T20:21:31Z</time>
      </trkpt>
      <trkpt lat="42.503767" lon="1.5513939999999986">
        <ele>1270.0000000000014</ele>
        <time>2020-08-22T20:21:41Z</time>
      </trkpt>
      <trkpt lat="42.503826000000004" lon="1.5514199999999987">
        <ele>1268.5000000000014</ele>
        <time>2020-08-22T20:21:49Z</time>
      </trkpt>
      <trkpt lat="42.503868000000004" lon="1.5513879999999987">
        <ele>1268.0000000000014</ele>
        <time>2020-08-22T20:21:53Z</time>
      </trkpt>
      <trkpt lat="42.503902000000004" lon="1.5513369999999986">
        <ele>1267.1000000000013</ele>
        <time>2020-08-22T20:21:59Z</time>
      </trkpt>
      <trkpt lat="42.503936" lon="1.5512939999999986">
        <ele>1266.1000000000013</ele>
        <time>2020-08-22T20:22:06Z</time>
      </trkpt>
      <trkpt lat="42.503972000000005" lon="1.5512579999999987">
        <ele>1265.7000000000012</ele>
        <time>2020-08-22T20:22:09Z</time>
      </trkpt>
      <trkpt lat="42.504022000000006" lon="1.5512209999999986">
        <ele>1265.0000000000011</ele>
        <time>2020-08-22T20:22:17Z</time>
      </trkpt>
      <trkpt lat="42.50407200000001" lon="1.5511929999999987">
        <ele>1264.600000000001</ele>
        <time>2020-08-22T20:22:21Z</time>
      </trkpt>
      <trkpt lat="42.50411600000001" lon="1.5511449999999987">
        <ele>1263.5000000000011</ele>
        <time>2020-08-22T20:22:28Z</time>
      </trkpt>
      <trkpt lat="42.50414700000001" lon="1.5510829999999987">
        <ele>1262.600000000001</ele>
        <time>2020-08-22T20:22:33Z</time>
      </trkpt>
      <trkpt lat="42.50419200000001" lon="1.5510729999999986">
        <ele>1261.100000000001</ele>
        <time>2020-08-22T20:24:56Z</time>
      </trkpt>
      <trkpt lat="42.50423800000001" lon="1.5510449999999987">
        <ele>1260.400000000001</ele>
        <time>2020-08-22T20:25:11Z</time>
      </trkpt>
      <trkpt lat="42.50426900000001" lon="1.5509939999999987">
        <ele>1260.200000000001</ele>
        <time>2020-08-22T20:25:15Z</time>
      </trkpt>
      <trkpt lat="42.504304000000005" lon="1.5509469999999987">
        <ele>1260.100000000001</ele>
        <time>2020-08-22T20:25:19Z</time>
      </trkpt>
      <trkpt lat="42.504326000000006" lon="1.5508879999999987">
        <ele>1259.900000000001</ele>
        <time>2020-08-22T20:25:26Z</time>
      </trkpt>
      <trkpt lat="42.504357000000006" lon="1.5508309999999987">
        <ele>1259.300000000001</ele>
        <time>2020-08-22T20:25:31Z</time>
      </trkpt>
      <trkpt lat="42.504394000000005" lon="1.5507879999999987">
        <ele>1258.400000000001</ele>
        <time>2020-08-22T20:25:39Z</time>
      </trkpt>
      <trkpt lat="42.504425000000005" lon="1.5507399999999987">
        <ele>1257.600000000001</ele>
        <time>2020-08-22T20:25:43Z</time>
      </trkpt>
      <trkpt lat="42.504465" lon="1.5507049999999987">
        <ele>1256.600000000001</ele>
        <time>2020-08-22T20:25:48Z</time>
      </trkpt>
      <trkpt lat="42.50450300000001" lon="1.5506549999999986">
        <ele>1256.0000000000011</ele>
        <time>2020-08-22T20:25:52Z</time>
      </trkpt>
      <trkpt lat="42.504537000000006" lon="1.5506119999999985">
        <ele>1255.2000000000012</ele>
        <time>2020-08-22T20:25:58Z</time>
      </trkpt>
      <trkpt lat="42.50456500000001" lon="1.5505519999999986">
        <ele>1254.1000000000013</ele>
        <time>2020-08-22T20:26:05Z</time>
      </trkpt>
      <trkpt lat="42.50460600000001" lon="1.5505189999999986">
        <ele>1253.2000000000012</ele>
        <time>2020-08-22T20:26:10Z</time>
      </trkpt>
      <trkpt lat="42.50466400000001" lon="1.5504869999999986">
        <ele>1252.6000000000013</ele>
        <time>2020-08-22T20:26:15Z</time>
      </trkpt>
      <trkpt lat="42.50469600000001" lon="1.5504319999999987">
        <ele>1252.1000000000013</ele>
        <time>2020-08-22T20:26:20Z</time>
      </trkpt>
      <trkpt lat="42.50473500000001" lon="1.5503949999999986">
        <ele>1251.5000000000014</ele>
        <time>2020-08-22T20:26:25Z</time>
      </trkpt>
      <trkpt lat="42.50476600000001" lon="1.5503399999999987">
        <ele>1250.7000000000014</ele>
        <time>2020-08-22T20:26:34Z</time>
      </trkpt>
      <trkpt lat="42.50478200000001" lon="1.5502789999999986">
        <ele>1250.3000000000013</ele>
        <time>2020-08-22T20:26:38Z</time>
      </trkpt>
      <trkpt lat="42.50483300000001" lon="1.5502709999999986">
        <ele>1249.5000000000014</ele>
        <time>2020-08-22T20:26:43Z</time>
      </trkpt>
      <trkpt lat="42.504869000000014" lon="1.5502209999999985">
        <ele>1248.8000000000013</ele>
        <time>2020-08-22T20:26:47Z</time>
      </trkpt>
      <trkpt lat="42.504885000000016" lon="1.5501549999999986">
        <ele>1247.9000000000012</ele>
        <time>2020-08-22T20:26:51Z</time>
      </trkpt>
      <trkpt lat="42.50492000000001" lon="1.5500919999999987">
        <ele>1247.0000000000011</ele>
        <time>2020-08-22T20:27:01Z</time>
      </trkpt>
      <trkpt lat="42.50496800000001" lon="1.5500579999999986">
        <ele>1246.300000000001</ele>
        <time>2020-08-22T20:27:05Z</time>
      </trkpt>
      <trkpt lat="42.505006000000016" lon="1.5500019999999985">
        <ele>1245.400000000001</ele>
        <time>2020-08-22T20:27:10Z</time>
      </trkpt>
      <trkpt lat="42.505054000000015" lon="1.5499799999999986">
        <ele>1244.900000000001</ele>
        <time>2020-08-22T20:27:14Z</time>
      </trkpt>
      <trkpt lat="42.50509000000002" lon="1.5499289999999986">
        <ele>1243.700000000001</ele>
        <time>2020-08-22T20:27:21Z</time>
      </trkpt>
      <trkpt lat="42.50511800000002" lon="1.5498789999999985">
        <ele>1243.000000000001</ele>
        <time>2020-08-22T20:27:27Z</time>
      </trkpt>
      <trkpt lat="42.505122000000014" lon="1.5498169999999984">
        <ele>1242.3000000000009</ele>
        <time>2020-08-22T20:27:32Z</time>
      </trkpt>
      <trkpt lat="42.505170000000014" lon="1.5497789999999985">
        <ele>1241.500000000001</ele>
        <time>2020-08-22T20:27:42Z</time>
      </trkpt>
      <trkpt lat="42.50521300000001" lon="1.5497279999999984">
        <ele>1240.6000000000008</ele>
        <time>2020-08-22T20:27:50Z</time>
      </trkpt>
      <trkpt lat="42.50525200000001" lon="1.5496949999999985">
        <ele>1239.500000000001</ele>
        <time>2020-08-22T20:27:57Z</time>
      </trkpt>
      <trkpt lat="42.50529000000002" lon="1.5496499999999984">
        <ele>1238.6000000000008</ele>
        <time>2020-08-22T20:28:02Z</time>
      </trkpt>
      <trkpt lat="42.50533700000002" lon="1.5495959999999984">
        <ele>1237.7000000000007</ele>
        <time>2020-08-22T20:28:07Z</time>
      </trkpt>
      <trkpt lat="42.505386000000016" lon="1.5495579999999984">
        <ele>1237.1000000000008</ele>
        <time>2020-08-22T20:28:10Z</time>
      </trkpt>
      <trkpt lat="42.50542400000002" lon="1.5495249999999985">
        <ele>1235.8000000000009</ele>
        <time>2020-08-22T20:28:15Z</time>
      </trkpt>
      <trkpt lat="42.50546500000002" lon="1.5494939999999986">
        <ele>1234.9000000000008</ele>
        <time>2020-08-22T20:28:19Z</time>
      </trkpt>
      <trkpt lat="42.50551000000002" lon="1.5494579999999987">
        <ele>1233.9000000000008</ele>
        <time>2020-08-22T20:28:24Z</time>
      </trkpt>
      <trkpt lat="42.505565000000026" lon="1.5494109999999988">
        <ele>1232.1000000000008</ele>
        <time>2020-08-22T20:28:34Z</time>
      </trkpt>
      <trkpt lat="42.50561700000002" lon="1.5493729999999988">
        <ele>1229.9000000000008</ele>
        <time>2020-08-22T20:28:46Z</time>
      </trkpt>
      <trkpt lat="42.50566900000002" lon="1.5493389999999987">
        <ele>1227.2000000000007</ele>
        <time>2020-08-22T20:29:01Z</time>
      </trkpt>
      <trkpt lat="42.50573000000002" lon="1.5492939999999986">
        <ele>1224.5000000000007</ele>
        <time>2020-08-22T20:29:16Z</time>
      </trkpt>
      <trkpt lat="42.50580300000002" lon="1.5492489999999985">
        <ele>1222.5000000000007</ele>
        <time>2020-08-22T20:29:24Z</time>
      </trkpt>
      <trkpt lat="42.50583900000002" lon="1.5491929999999985">
        <ele>1220.7000000000007</ele>
        <time>2020-08-22T20:29:30Z</time>
      </trkpt>
      <trkpt lat="42.505880000000026" lon="1.5491569999999986">
        <ele>1218.8000000000006</ele>
        <time>2020-08-22T20:29:36Z</time>
      </trkpt>
      <trkpt lat="42.50593500000003" lon="1.5491159999999986">
        <ele>1217.1000000000006</ele>
        <time>2020-08-22T20:29:43Z</time>
      </trkpt>
      <trkpt lat="42.50596700000003" lon="1.5490449999999987">
        <ele>1215.4000000000005</ele>
        <time>2020-08-22T20:29:52Z</time>
      </trkpt>
      <trkpt lat="42.50599400000003" lon="1.5489879999999987">
        <ele>1214.5000000000005</ele>
        <time>2020-08-22T20:29:58Z</time>
      </trkpt>
      <trkpt lat="42.50603300000003" lon="1.5489329999999988">
        <ele>1213.9000000000005</ele>
        <time>2020-08-22T20:30:03Z</time>
      </trkpt>
      <trkpt lat="42.50606400000003" lon="1.5488759999999988">
        <ele>1213.1000000000006</ele>
        <time>2020-08-22T20:30:10Z</time>
      </trkpt>
      <trkpt lat="42.50608500000003" lon="1.548817999999999">
        <ele>1212.4000000000005</ele>
        <time>2020-08-22T20:30:15Z</time>
      </trkpt>
      <trkpt lat="42.50612700000003" lon="1.548795999999999">
        <ele>1211.7000000000005</ele>
        <time>2020-08-22T20:30:19Z</time>
      </trkpt>
      <trkpt lat="42.50615700000003" lon="1.548736999999999">
        <ele>1210.7000000000005</ele>
        <time>2020-08-22T20:30:25Z</time>
      </trkpt>
      <trkpt lat="42.50619400000003" lon="1.548678999999999">
        <ele>1209.5000000000005</ele>
        <time>2020-08-22T20:30:31Z</time>
      </trkpt>
      <trkpt lat="42.50623000000003" lon="1.548633999999999">
        <ele>1208.7000000000005</ele>
        <time>2020-08-22T20:30:36Z</time>
      </trkpt>
      <trkpt lat="42.50627300000003" lon="1.5485919999999989">
        <ele>1208.0000000000005</ele>
        <time>2020-08-22T20:30:42Z</time>
      </trkpt>
      <trkpt lat="42.50631100000003" lon="1.5485309999999988">
        <ele>1207.3000000000004</ele>
        <time>2020-08-22T20:30:50Z</time>
      </trkpt>
      <trkpt lat="42.50634500000003" lon="1.5484649999999989">
        <ele>1206.0000000000005</ele>
        <time>2020-08-22T20:30:58Z</time>
      </trkpt>
      <trkpt lat="42.506372000000034" lon="1.548404999999999">
        <ele>1205.4000000000005</ele>
        <time>2020-08-22T20:31:02Z</time>
      </trkpt>
      <trkpt lat="42.50638100000003" lon="1.548333999999999">
        <ele>1204.6000000000006</ele>
        <time>2020-08-22T20:31:08Z</time>
      </trkpt>
      <trkpt lat="42.50641800000003" lon="1.548286999999999">
        <ele>1204.1000000000006</ele>
        <time>2020-08-22T20:31:16Z</time>
      </trkpt>
      <trkpt lat="42.50645300000003" lon="1.548240999999999">
        <ele>1203.2000000000005</ele>
        <time>2020-08-22T20:31:24Z</time>
      </trkpt>
      <trkpt lat="42.50646800000003" lon="1.5481839999999991">
        <ele>1202.1000000000006</ele>
        <time>2020-08-22T20:31:30Z</time>
      </trkpt>
      <trkpt lat="42.50653500000003" lon="1.548111999999999">
        <ele>1199.6000000000006</ele>
        <time>2020-08-22T20:31:44Z</time>
      </trkpt>
      <trkpt lat="42.506564000000026" lon="1.5480649999999991">
        <ele>1198.7000000000005</ele>
        <time>2020-08-22T20:31:49Z</time>
      </trkpt>
      <trkpt lat="42.50660800000003" lon="1.5480409999999991">
        <ele>1197.3000000000004</ele>
        <time>2020-08-22T20:31:55Z</time>
      </trkpt>
      <trkpt lat="42.50665200000003" lon="1.5480049999999992">
        <ele>1195.7000000000005</ele>
        <time>2020-08-22T20:32:03Z</time>
      </trkpt>
      <trkpt lat="42.50672800000003" lon="1.5479669999999992">
        <ele>1191.7000000000005</ele>
        <time>2020-08-22T20:32:22Z</time>
      </trkpt>
      <trkpt lat="42.506766000000034" lon="1.5479329999999991">
        <ele>1190.3000000000004</ele>
        <time>2020-08-22T20:32:28Z</time>
      </trkpt>
      <trkpt lat="42.50681200000003" lon="1.5479129999999992">
        <ele>1188.9000000000003</ele>
        <time>2020-08-22T20:32:35Z</time>
      </trkpt>
      <trkpt lat="42.506960000000035" lon="1.5477929999999993">
        <ele>1185.0000000000002</ele>
        <time>2020-08-22T20:33:05Z</time>
      </trkpt>
      <trkpt lat="42.506985000000036" lon="1.5477299999999994">
        <ele>1183.8000000000002</ele>
        <time>2020-08-22T20:33:15Z</time>
      </trkpt>
      <trkpt lat="42.50701500000004" lon="1.5476839999999994">
        <ele>1182.8000000000002</ele>
        <time>2020-08-22T20:33:22Z</time>
      </trkpt>
      <trkpt lat="42.50705700000004" lon="1.5476299999999994">
        <ele>1181.3000000000002</ele>
        <time>2020-08-22T20:33:31Z</time>
      </trkpt>
      <trkpt lat="42.50708400000004" lon="1.5475789999999994">
        <ele>1180.4</ele>
        <time>2020-08-22T20:33:38Z</time>
      </trkpt>
      <trkpt lat="42.50711500000004" lon="1.5475289999999993">
        <ele>1179.4</ele>
        <time>2020-08-22T20:33:45Z</time>
      </trkpt>
      <trkpt lat="42.50717800000004" lon="1.5474969999999992">
        <ele>1178.2</ele>
        <time>2020-08-22T20:33:56Z</time>
      </trkpt>
      <trkpt lat="42.50718800000004" lon="1.5474339999999993">
        <ele>1177.3</ele>
        <time>2020-08-22T20:34:02Z</time>
      </trkpt>
      <trkpt lat="42.507243000000045" lon="1.5473629999999994">
        <ele>1175.7</ele>
        <time>2020-08-22T20:34:13Z</time>
      </trkpt>
      <trkpt lat="42.50727200000004" lon="1.5473059999999994">
        <ele>1174.5</ele>
        <time>2020-08-22T20:34:20Z</time>
      </trkpt>
      <trkpt lat="42.50728900000004" lon="1.5472439999999994">
        <ele>1173.3</ele>
        <time>2020-08-22T20:34:27Z</time>
      </trkpt>
      <trkpt lat="42.50730300000004" lon="1.5471809999999995">
        <ele>1172.5</ele>
        <time>2020-08-22T20:34:32Z</time>
      </trkpt>
      <trkpt lat="42.50733400000004" lon="1.5471259999999996">
        <ele>1171.3</ele>
        <time>2020-08-22T20:34:39Z</time>
      </trkpt>
      <trkpt lat="42.50736600000004" lon="1.5470759999999995">
        <ele>1170.5</ele>
        <time>2020-08-22T20:34:45Z</time>
      </trkpt>
      <trkpt lat="42.50741400000004" lon="1.5470319999999995">
        <ele>1169.0</ele>
        <time>2020-08-22T20:34:55Z</time>
      </trkpt>
      <trkpt lat="42.50743200000004" lon="1.5469679999999995">
        <ele>1168.0</ele>
        <time>2020-08-22T20:35:03Z</time>
      </trkpt>
      <trkpt lat="42.50746200000004" lon="1.5469149999999994">
        <ele>1167.7</ele>
        <time>2020-08-22T20:35:09Z</time>
      </trkpt>
      <trkpt lat="42.50747900000004" lon="1.5468459999999993">
        <ele>1166.9</ele>
        <time>2020-08-22T20:35:15Z</time>
      </trkpt>
      <trkpt lat="42.507500000000036" lon="1.5467879999999994">
        <ele>1165.6000000000001</ele>
        <time>2020-08-22T20:35:23Z</time>
      </trkpt>
      <trkpt lat="42.50752400000004" lon="1.5467249999999995">
        <ele>1164.4</ele>
        <time>2020-08-22T20:35:29Z</time>
      </trkpt>
      <trkpt lat="42.50759700000004" lon="1.5466779999999996">
        <ele>1162.6000000000001</ele>
        <time>2020-08-22T20:35:40Z</time>
      </trkpt>
      <trkpt lat="42.50761400000004" lon="1.5466159999999995">
        <ele>1161.2</ele>
        <time>2020-08-22T20:35:47Z</time>
      </trkpt>
      <trkpt lat="42.50765500000004" lon="1.5465689999999996">
        <ele>1160.0</ele>
        <time>2020-08-22T20:35:54Z</time>
      </trkpt>
      <trkpt lat="42.50768400000004" lon="1.5465209999999996">
        <ele>1158.6</ele>
        <time>2020-08-22T20:36:02Z</time>
      </trkpt>
      <trkpt lat="42.50771300000004" lon="1.5464589999999996">
        <ele>1157.1999999999998</ele>
        <time>2020-08-22T20:36:11Z</time>
      </trkpt>
      <trkpt lat="42.507745000000035" lon="1.5464109999999995">
        <ele>1156.1999999999998</ele>
        <time>2020-08-22T20:36:18Z</time>
      </trkpt>
      <trkpt lat="42.507745000000035" lon="1.5463479999999996">
        <ele>1155.2999999999997</ele>
        <time>2020-08-22T20:36:23Z</time>
      </trkpt>
      <trkpt lat="42.50777200000004" lon="1.5462899999999997">
        <ele>1154.7999999999997</ele>
        <time>2020-08-22T20:36:27Z</time>
      </trkpt>
      <trkpt lat="42.50778000000004" lon="1.5462249999999997">
        <ele>1153.8999999999996</ele>
        <time>2020-08-22T20:36:33Z</time>
      </trkpt>
      <trkpt lat="42.50781400000004" lon="1.5461849999999997">
        <ele>1152.4999999999995</ele>
        <time>2020-08-22T20:36:40Z</time>
      </trkpt>
      <trkpt lat="42.50784200000004" lon="1.5461259999999997">
        <ele>1151.1999999999996</ele>
        <time>2020-08-22T20:36:46Z</time>
      </trkpt>
      <trkpt lat="42.50787300000004" lon="1.5460759999999996">
        <ele>1150.1999999999996</ele>
        <time>2020-08-22T20:36:52Z</time>
      </trkpt>
      <trkpt lat="42.50790200000004" lon="1.5460209999999996">
        <ele>1149.2999999999995</ele>
        <time>2020-08-22T20:37:00Z</time>
      </trkpt>
      <trkpt lat="42.50793300000004" lon="1.5459559999999997">
        <ele>1148.0999999999995</ele>
        <time>2020-08-22T20:37:07Z</time>
      </trkpt>
      <trkpt lat="42.50797400000004" lon="1.5459179999999997">
        <ele>1147.1999999999994</ele>
        <time>2020-08-22T20:37:13Z</time>
      </trkpt>
      <trkpt lat="42.50797800000004" lon="1.5458569999999996">
        <ele>1145.9999999999993</ele>
        <time>2020-08-22T20:37:22Z</time>
      </trkpt>
      <trkpt lat="42.50801700000004" lon="1.5458009999999995">
        <ele>1144.8999999999994</ele>
        <time>2020-08-22T20:37:29Z</time>
      </trkpt>
      <trkpt lat="42.508057000000036" lon="1.5457479999999995">
        <ele>1143.8999999999994</ele>
        <time>2020-08-22T20:37:36Z</time>
      </trkpt>
      <trkpt lat="42.50808200000004" lon="1.5456969999999994">
        <ele>1142.5999999999995</ele>
        <time>2020-08-22T20:37:45Z</time>
      </trkpt>
      <trkpt lat="42.508105000000036" lon="1.5456369999999995">
        <ele>1141.8999999999994</ele>
        <time>2020-08-22T20:37:52Z</time>
      </trkpt>
      <trkpt lat="42.508114000000035" lon="1.5455669999999995">
        <ele>1141.2999999999995</ele>
        <time>2020-08-22T20:37:58Z</time>
      </trkpt>
      <trkpt lat="42.508139000000035" lon="1.5454979999999994">
        <ele>1140.2999999999995</ele>
        <time>2020-08-22T20:38:05Z</time>
      </trkpt>
      <trkpt lat="42.508167000000036" lon="1.5454469999999993">
        <ele>1139.6999999999996</ele>
        <time>2020-08-22T20:38:09Z</time>
      </trkpt>
      <trkpt lat="42.508184000000035" lon="1.5453899999999994">
        <ele>1138.4999999999995</ele>
        <time>2020-08-22T20:38:16Z</time>
      </trkpt>
      <trkpt lat="42.508207000000034" lon="1.5453309999999993">
        <ele>1136.3999999999996</ele>
        <time>2020-08-22T20:38:27Z</time>
      </trkpt>
      <trkpt lat="42.50825900000003" lon="1.5453959999999993">
        <ele>1135.1999999999996</ele>
        <time>2020-08-22T20:38:42Z</time>
      </trkpt>
      <trkpt lat="42.50823700000003" lon="1.5454649999999994">
        <ele>1133.6999999999996</ele>
        <time>2020-08-22T20:38:50Z</time>
      </trkpt>
      <trkpt lat="42.50825300000003" lon="1.5455309999999993">
        <ele>1132.7999999999995</ele>
        <time>2020-08-22T20:38:55Z</time>
      </trkpt>
      <trkpt lat="42.508291000000035" lon="1.5455759999999994">
        <ele>1132.6999999999996</ele>
        <time>2020-08-22T20:39:11Z</time>
      </trkpt>
      <trkpt lat="42.508243000000036" lon="1.5455239999999995">
        <ele>1133.0999999999997</ele>
        <time>2020-08-22T20:40:48Z</time>
      </trkpt>
      <trkpt lat="42.508277000000035" lon="1.5455799999999995">
        <ele>1132.3999999999996</ele>
        <time>2020-08-22T20:41:40Z</time>
      </trkpt>
      <trkpt lat="42.50832300000003" lon="1.5455529999999995">
        <ele>1131.9999999999995</ele>
        <time>2020-08-22T20:43:46Z</time>
      </trkpt>
      <trkpt lat="42.50830600000003" lon="1.5454959999999995">
        <ele>1131.3999999999996</ele>
        <time>2020-08-22T20:44:09Z</time>
      </trkpt>
      <trkpt lat="42.508260000000035" lon="1.5454049999999995">
        <ele>1131.1999999999996</ele>
        <time>2020-08-22T20:44:15Z</time>
      </trkpt>
      <trkpt lat="42.508280000000035" lon="1.5453459999999994">
        <ele>1130.7999999999995</ele>
        <time>2020-08-22T20:44:20Z</time>
      </trkpt>
      <trkpt lat="42.508288000000036" lon="1.5452809999999995">
        <ele>1130.2999999999995</ele>
        <time>2020-08-22T20:44:26Z</time>
      </trkpt>
      <trkpt lat="42.50832900000004" lon="1.5452139999999994">
        <ele>1129.6999999999996</ele>
        <time>2020-08-22T20:45:57Z</time>
      </trkpt>
      <trkpt lat="42.50837600000004" lon="1.5451709999999994">
        <ele>1129.5999999999997</ele>
        <time>2020-08-22T20:46:21Z</time>
      </trkpt>
      <trkpt lat="42.50842100000004" lon="1.5451329999999994">
        <ele>1128.4999999999998</ele>
        <time>2020-08-22T20:46:28Z</time>
      </trkpt>
      <trkpt lat="42.508445000000044" lon="1.5450789999999994">
        <ele>1128.1999999999998</ele>
        <time>2020-08-22T20:46:32Z</time>
      </trkpt>
      <trkpt lat="42.50847100000004" lon="1.5450069999999994">
        <ele>1127.6999999999998</ele>
        <time>2020-08-22T20:46:37Z</time>
      </trkpt>
      <trkpt lat="42.508467000000046" lon="1.5449379999999993">
        <ele>1127.1</ele>
        <time>2020-08-22T20:46:41Z</time>
      </trkpt>
      <trkpt lat="42.50847400000004" lon="1.5448699999999993">
        <ele>1126.5</ele>
        <time>2020-08-22T20:46:45Z</time>
      </trkpt>
      <trkpt lat="42.50848900000004" lon="1.5448119999999994">
        <ele>1125.7</ele>
        <time>2020-08-22T20:46:52Z</time>
      </trkpt>
      <trkpt lat="42.50846900000004" lon="1.5447539999999995">
        <ele>1125.7</ele>
        <time>2020-08-22T20:46:58Z</time>
      </trkpt>
      <trkpt lat="42.50845800000004" lon="1.5446799999999996">
        <ele>1125.4</ele>
        <time>2020-08-22T20:47:03Z</time>
      </trkpt>
      <trkpt lat="42.50845100000004" lon="1.5446049999999996">
        <ele>1124.8000000000002</ele>
        <time>2020-08-22T20:47:08Z</time>
      </trkpt>
      <trkpt lat="42.508470000000045" lon="1.5445289999999996">
        <ele>1123.6000000000001</ele>
        <time>2020-08-22T20:47:14Z</time>
      </trkpt>
      <trkpt lat="42.50848500000004" lon="1.5444639999999996">
        <ele>1123.0000000000002</ele>
        <time>2020-08-22T20:47:18Z</time>
      </trkpt>
      <trkpt lat="42.50853600000004" lon="1.5444399999999996">
        <ele>1122.8000000000002</ele>
        <time>2020-08-22T20:47:21Z</time>
      </trkpt>
      <trkpt lat="42.50857500000004" lon="1.5443969999999996">
        <ele>1122.7000000000003</ele>
        <time>2020-08-22T20:47:26Z</time>
      </trkpt>
      <trkpt lat="42.50857800000004" lon="1.5443199999999995">
        <ele>1122.7000000000003</ele>
        <time>2020-08-22T20:47:29Z</time>
      </trkpt>
      <trkpt lat="42.50858700000004" lon="1.5442549999999995">
        <ele>1122.0000000000002</ele>
        <time>2020-08-22T20:47:43Z</time>
      </trkpt>
      <trkpt lat="42.50860800000004" lon="1.5441979999999995">
        <ele>1120.7000000000003</ele>
        <time>2020-08-22T20:47:50Z</time>
      </trkpt>
      <trkpt lat="42.508612000000035" lon="1.5441289999999994">
        <ele>1120.0000000000002</ele>
        <time>2020-08-22T20:47:54Z</time>
      </trkpt>
      <trkpt lat="42.50858600000004" lon="1.5440769999999995">
        <ele>1119.4000000000003</ele>
        <time>2020-08-22T20:47:57Z</time>
      </trkpt>
      <trkpt lat="42.508544000000036" lon="1.5440369999999994">
        <ele>1119.0000000000002</ele>
        <time>2020-08-22T20:48:00Z</time>
      </trkpt>
      <trkpt lat="42.50851000000004" lon="1.5439819999999995">
        <ele>1118.0000000000002</ele>
        <time>2020-08-22T20:48:11Z</time>
      </trkpt>
      <trkpt lat="42.50852100000004" lon="1.5439129999999994">
        <ele>1117.2000000000003</ele>
        <time>2020-08-22T20:48:18Z</time>
      </trkpt>
      <trkpt lat="42.508497000000034" lon="1.5438289999999995">
        <ele>1115.0000000000002</ele>
        <time>2020-08-22T20:48:31Z</time>
      </trkpt>
      <trkpt lat="42.50848400000003" lon="1.5437619999999994">
        <ele>1114.2000000000003</ele>
        <time>2020-08-22T20:48:37Z</time>
      </trkpt>
      <trkpt lat="42.50844400000003" lon="1.5437189999999994">
        <ele>1113.1000000000004</ele>
        <time>2020-08-22T20:48:44Z</time>
      </trkpt>
      <trkpt lat="42.50842700000003" lon="1.5436609999999995">
        <ele>1112.4000000000003</ele>
        <time>2020-08-22T20:48:49Z</time>
      </trkpt>
      <trkpt lat="42.50839400000003" lon="1.5436189999999994">
        <ele>1111.8000000000004</ele>
        <time>2020-08-22T20:48:54Z</time>
      </trkpt>
      <trkpt lat="42.50839900000003" lon="1.5435569999999994">
        <ele>1110.7000000000005</ele>
        <time>2020-08-22T20:49:02Z</time>
      </trkpt>
      <trkpt lat="42.50842200000003" lon="1.5435039999999993">
        <ele>1110.0000000000005</ele>
        <time>2020-08-22T20:49:08Z</time>
      </trkpt>
      <trkpt lat="42.50842600000003" lon="1.5434389999999993">
        <ele>1108.6000000000004</ele>
        <time>2020-08-22T20:49:16Z</time>
      </trkpt>
      <trkpt lat="42.50846900000003" lon="1.5435069999999993">
        <ele>1105.2000000000003</ele>
        <time>2020-08-22T20:49:42Z</time>
      </trkpt>
      <trkpt lat="42.50851600000003" lon="1.5435029999999994">
        <ele>1104.1000000000004</ele>
        <time>2020-08-22T20:49:48Z</time>
      </trkpt>
      <trkpt lat="42.50856900000003" lon="1.5435129999999995">
        <ele>1102.7000000000003</ele>
        <time>2020-08-22T20:49:56Z</time>
      </trkpt>
      <trkpt lat="42.50860700000003" lon="1.5435519999999994">
        <ele>1101.7000000000003</ele>
        <time>2020-08-22T20:50:03Z</time>
      </trkpt>
      <trkpt lat="42.508634000000036" lon="1.5436129999999995">
        <ele>1100.3000000000002</ele>
        <time>2020-08-22T20:50:14Z</time>
      </trkpt>
      <trkpt lat="42.508682000000036" lon="1.5436059999999994">
        <ele>1099.4</ele>
        <time>2020-08-22T20:50:21Z</time>
      </trkpt>
      <trkpt lat="42.50873800000004" lon="1.5435649999999994">
        <ele>1097.4</ele>
        <time>2020-08-22T20:50:37Z</time>
      </trkpt>
      <trkpt lat="42.50873500000004" lon="1.5435029999999994">
        <ele>1096.2</ele>
        <time>2020-08-22T20:50:44Z</time>
      </trkpt>
      <trkpt lat="42.50882100000004" lon="1.5434139999999994">
        <ele>1092.2</ele>
        <time>2020-08-22T20:51:31Z</time>
      </trkpt>
      <trkpt lat="42.50886800000004" lon="1.5434529999999993">
        <ele>1090.9</ele>
        <time>2020-08-22T20:51:46Z</time>
      </trkpt>
      <trkpt lat="42.50895900000004" lon="1.5434949999999994">
        <ele>1089.3000000000002</ele>
        <time>2020-08-22T20:51:57Z</time>
      </trkpt>
      <trkpt lat="42.50900700000004" lon="1.5435199999999993">
        <ele>1088.3000000000002</ele>
        <time>2020-08-22T20:52:26Z</time>
      </trkpt>
      <trkpt lat="42.50901700000004" lon="1.5434549999999994">
        <ele>1088.2000000000003</ele>
        <time>2020-08-22T20:52:31Z</time>
      </trkpt>
      <trkpt lat="42.508996000000046" lon="1.5433959999999993">
        <ele>1088.1000000000004</ele>
        <time>2020-08-22T20:52:35Z</time>
      </trkpt>
      <trkpt lat="42.50898400000005" lon="1.5433329999999994">
        <ele>1087.9000000000003</ele>
        <time>2020-08-22T20:52:39Z</time>
      </trkpt>
      <trkpt lat="42.50899500000005" lon="1.5432679999999994">
        <ele>1087.7000000000003</ele>
        <time>2020-08-22T20:52:44Z</time>
      </trkpt>
      <trkpt lat="42.50899500000005" lon="1.5431929999999994">
        <ele>1087.5000000000002</ele>
        <time>2020-08-22T20:52:49Z</time>
      </trkpt>
      <trkpt lat="42.50897200000005" lon="1.5431269999999995">
        <ele>1087.2000000000003</ele>
        <time>2020-08-22T20:52:55Z</time>
      </trkpt>
      <trkpt lat="42.50894100000005" lon="1.5430629999999994">
        <ele>1087.0000000000002</ele>
        <time>2020-08-22T20:53:04Z</time>
      </trkpt>
      <trkpt lat="42.50893200000005" lon="1.5429919999999995">
        <ele>1087.0000000000002</ele>
        <time>2020-08-22T20:53:08Z</time>
      </trkpt>
      <trkpt lat="42.50896400000005" lon="1.5428939999999995">
        <ele>1087.0000000000002</ele>
        <time>2020-08-22T20:53:10Z</time>
      </trkpt>
      <trkpt lat="42.50896400000005" lon="1.5428199999999996">
        <ele>1087.0000000000002</ele>
        <time>2020-08-22T20:53:12Z</time>
      </trkpt>
      <trkpt lat="42.50896100000005" lon="1.5427559999999996">
        <ele>1087.0000000000002</ele>
        <time>2020-08-22T20:53:16Z</time>
      </trkpt>
      <trkpt lat="42.50896900000005" lon="1.5426899999999997">
        <ele>1087.0000000000002</ele>
        <time>2020-08-22T20:53:23Z</time>
      </trkpt>
      <trkpt lat="42.50897400000005" lon="1.5426049999999998">
        <ele>1086.9000000000003</ele>
        <time>2020-08-22T20:53:56Z</time>
      </trkpt>
      <trkpt lat="42.50902400000005" lon="1.5426239999999998">
        <ele>1087.1000000000004</ele>
        <time>2020-08-22T20:54:01Z</time>
      </trkpt>
      <trkpt lat="42.50906900000005" lon="1.5426699999999998">
        <ele>1087.6000000000004</ele>
        <time>2020-08-22T20:54:06Z</time>
      </trkpt>
      <trkpt lat="42.50913800000006" lon="1.5426599999999997">
        <ele>1088.4000000000003</ele>
        <time>2020-08-22T20:54:15Z</time>
      </trkpt>
      <trkpt lat="42.50899900000006" lon="1.5426679999999997">
        <ele>1088.4000000000003</ele>
        <time>2020-08-22T20:54:42Z</time>
      </trkpt>
      <trkpt lat="42.50898000000006" lon="1.5425899999999997">
        <ele>1087.8000000000004</ele>
        <time>2020-08-22T20:54:47Z</time>
      </trkpt>
      <trkpt lat="42.508978000000056" lon="1.5425079999999998">
        <ele>1087.6000000000004</ele>
        <time>2020-08-22T20:54:52Z</time>
      </trkpt>
      <trkpt lat="42.508936000000055" lon="1.5424809999999998">
        <ele>1086.7000000000003</ele>
        <time>2020-08-22T20:55:15Z</time>
      </trkpt>
      <trkpt lat="42.50893800000006" lon="1.5424159999999998">
        <ele>1086.6000000000004</ele>
        <time>2020-08-22T20:55:20Z</time>
      </trkpt>
      <trkpt lat="42.50896600000006" lon="1.5423659999999997">
        <ele>1086.4000000000003</ele>
        <time>2020-08-22T20:55:27Z</time>
      </trkpt>
      <trkpt lat="42.509006000000056" lon="1.5423149999999997">
        <ele>1086.1000000000004</ele>
        <time>2020-08-22T20:55:33Z</time>
      </trkpt>
      <trkpt lat="42.50896000000006" lon="1.5422909999999996">
        <ele>1086.0000000000005</ele>
        <time>2020-08-22T20:55:48Z</time>
      </trkpt>
      <trkpt lat="42.50893100000006" lon="1.5421929999999997">
        <ele>1085.9000000000005</ele>
        <time>2020-08-22T20:55:56Z</time>
      </trkpt>
      <trkpt lat="42.50895400000006" lon="1.5421369999999996">
        <ele>1085.9000000000005</ele>
        <time>2020-08-22T20:55:58Z</time>
      </trkpt>
      <trkpt lat="42.50893400000006" lon="1.5420269999999996">
        <ele>1086.3000000000006</ele>
        <time>2020-08-22T20:56:07Z</time>
      </trkpt>
      <trkpt lat="42.508958000000064" lon="1.5419639999999997">
        <ele>1085.8000000000006</ele>
        <time>2020-08-22T20:56:25Z</time>
      </trkpt>
      <trkpt lat="42.50900400000006" lon="1.5418779999999996">
        <ele>1084.8000000000006</ele>
        <time>2020-08-22T20:56:46Z</time>
      </trkpt>
      <trkpt lat="42.50903000000006" lon="1.5418139999999996">
        <ele>1084.7000000000007</ele>
        <time>2020-08-22T20:56:49Z</time>
      </trkpt>
      <trkpt lat="42.50904400000006" lon="1.5417439999999996">
        <ele>1084.5000000000007</ele>
        <time>2020-08-22T20:56:53Z</time>
      </trkpt>
      <trkpt lat="42.50906600000006" lon="1.5416849999999995">
        <ele>1084.4000000000008</ele>
        <time>2020-08-22T20:56:57Z</time>
      </trkpt>
      <trkpt lat="42.50907200000006" lon="1.5416199999999995">
        <ele>1084.3000000000009</ele>
        <time>2020-08-22T20:57:00Z</time>
      </trkpt>
      <trkpt lat="42.50912200000006" lon="1.5415479999999995">
        <ele>1084.1000000000008</ele>
        <time>2020-08-22T20:57:04Z</time>
      </trkpt>
      <trkpt lat="42.509138000000064" lon="1.5414869999999994">
        <ele>1083.8000000000009</ele>
        <time>2020-08-22T20:57:10Z</time>
      </trkpt>
      <trkpt lat="42.50916400000006" lon="1.5414289999999995">
        <ele>1083.6000000000008</ele>
        <time>2020-08-22T20:57:15Z</time>
      </trkpt>
      <trkpt lat="42.50921800000006" lon="1.5412759999999994">
        <ele>1083.2000000000007</ele>
        <time>2020-08-22T20:57:29Z</time>
      </trkpt>
      <trkpt lat="42.509228000000064" lon="1.5412079999999995">
        <ele>1082.9000000000008</ele>
        <time>2020-08-22T20:57:32Z</time>
      </trkpt>
      <trkpt lat="42.50926800000006" lon="1.5411779999999995">
        <ele>1082.6000000000008</ele>
        <time>2020-08-22T20:57:35Z</time>
      </trkpt>
      <trkpt lat="42.509262000000064" lon="1.5410739999999994">
        <ele>1082.3000000000009</ele>
        <time>2020-08-22T20:57:40Z</time>
      </trkpt>
      <trkpt lat="42.509270000000065" lon="1.5409639999999993">
        <ele>1081.9000000000008</ele>
        <time>2020-08-22T20:57:46Z</time>
      </trkpt>
      <trkpt lat="42.509301000000065" lon="1.5408779999999993">
        <ele>1081.6000000000008</ele>
        <time>2020-08-22T20:57:50Z</time>
      </trkpt>
      <trkpt lat="42.509307000000064" lon="1.5407949999999992">
        <ele>1081.2000000000007</ele>
        <time>2020-08-22T20:57:55Z</time>
      </trkpt>
      <trkpt lat="42.50933000000006" lon="1.5407339999999992">
        <ele>1080.9000000000008</ele>
        <time>2020-08-22T20:57:59Z</time>
      </trkpt>
      <trkpt lat="42.50937500000006" lon="1.5406959999999992">
        <ele>1080.7000000000007</ele>
        <time>2020-08-22T20:58:04Z</time>
      </trkpt>
      <trkpt lat="42.509405000000065" lon="1.5407469999999992">
        <ele>1080.7000000000007</ele>
        <time>2020-08-22T20:58:05Z</time>
      </trkpt>
      <trkpt lat="42.50945200000007" lon="1.540739999999999">
        <ele>1080.6000000000008</ele>
        <time>2020-08-22T20:58:11Z</time>
      </trkpt>
      <trkpt lat="42.50948200000007" lon="1.540683999999999">
        <ele>1080.3000000000009</ele>
        <time>2020-08-22T20:58:17Z</time>
      </trkpt>
      <trkpt lat="42.50953000000007" lon="1.5406449999999992">
        <ele>1080.200000000001</ele>
        <time>2020-08-22T20:58:22Z</time>
      </trkpt>
      <trkpt lat="42.50955200000007" lon="1.5405909999999992">
        <ele>1079.900000000001</ele>
        <time>2020-08-22T20:58:26Z</time>
      </trkpt>
      <trkpt lat="42.50957900000007" lon="1.5405359999999992">
        <ele>1079.800000000001</ele>
        <time>2020-08-22T20:58:30Z</time>
      </trkpt>
      <trkpt lat="42.50958500000007" lon="1.5404749999999992">
        <ele>1079.400000000001</ele>
        <time>2020-08-22T20:58:34Z</time>
      </trkpt>
      <trkpt lat="42.50960500000007" lon="1.5404039999999992">
        <ele>1079.100000000001</ele>
        <time>2020-08-22T20:58:41Z</time>
      </trkpt>
      <trkpt lat="42.50961000000007" lon="1.5403349999999991">
        <ele>1078.600000000001</ele>
        <time>2020-08-22T20:58:44Z</time>
      </trkpt>
      <trkpt lat="42.509643000000075" lon="1.540286999999999">
        <ele>1078.200000000001</ele>
        <time>2020-08-22T20:58:48Z</time>
      </trkpt>
      <trkpt lat="42.50966100000007" lon="1.5401939999999992">
        <ele>1077.700000000001</ele>
        <time>2020-08-22T20:58:54Z</time>
      </trkpt>
      <trkpt lat="42.50968700000007" lon="1.5401319999999992">
        <ele>1077.3000000000009</ele>
        <time>2020-08-22T20:58:59Z</time>
      </trkpt>
      <trkpt lat="42.50975000000007" lon="1.540078999999999">
        <ele>1076.6000000000008</ele>
        <time>2020-08-22T20:59:12Z</time>
      </trkpt>
      <trkpt lat="42.50970500000007" lon="1.540062999999999">
        <ele>1076.500000000001</ele>
        <time>2020-08-22T20:59:22Z</time>
      </trkpt>
      <trkpt lat="42.50964800000007" lon="1.5400619999999992">
        <ele>1076.6000000000008</ele>
        <time>2020-08-22T20:59:28Z</time>
      </trkpt>
      <trkpt lat="42.50960100000007" lon="1.5400399999999992">
        <ele>1076.500000000001</ele>
        <time>2020-08-22T20:59:33Z</time>
      </trkpt>
      <trkpt lat="42.509546000000064" lon="1.5400349999999992">
        <ele>1076.700000000001</ele>
        <time>2020-08-22T20:59:38Z</time>
      </trkpt>
      <trkpt lat="42.50952400000006" lon="1.5399679999999991">
        <ele>1076.900000000001</ele>
        <time>2020-08-22T20:59:43Z</time>
      </trkpt>
      <trkpt lat="42.50955000000006" lon="1.5399129999999992">
        <ele>1076.900000000001</ele>
        <time>2020-08-22T20:59:44Z</time>
      </trkpt>
      <trkpt lat="42.50959500000006" lon="1.5398599999999991">
        <ele>1077.000000000001</ele>
        <time>2020-08-22T20:59:46Z</time>
      </trkpt>
      <trkpt lat="42.50957000000006" lon="1.5397839999999992">
        <ele>1077.000000000001</ele>
        <time>2020-08-22T20:59:49Z</time>
      </trkpt>
      <trkpt lat="42.50950600000006" lon="1.5396429999999992">
        <ele>1076.8000000000009</ele>
        <time>2020-08-22T21:00:02Z</time>
      </trkpt>
      <trkpt lat="42.50946300000006" lon="1.5396119999999993">
        <ele>1076.8000000000009</ele>
        <time>2020-08-22T21:00:05Z</time>
      </trkpt>
      <trkpt lat="42.50913100000006" lon="1.5391719999999993">
        <ele>1069.9000000000008</ele>
        <time>2020-08-22T21:02:37Z</time>
      </trkpt>
      <trkpt lat="42.50901100000006" lon="1.5391869999999994">
        <ele>1069.9000000000008</ele>
        <time>2020-08-22T21:02:43Z</time>
      </trkpt>
      <trkpt lat="42.50939300000006" lon="1.5389189999999995">
        <ele>1073.3000000000009</ele>
        <time>2020-08-22T21:06:08Z</time>
      </trkpt>
      <trkpt lat="42.50943700000006" lon="1.5388899999999994">
        <ele>1073.3000000000009</ele>
        <time>2020-08-22T21:06:11Z</time>
      </trkpt>
      <trkpt lat="42.509461000000066" lon="1.5388279999999994">
        <ele>1073.1000000000008</ele>
        <time>2020-08-22T21:06:22Z</time>
      </trkpt>
      <trkpt lat="42.50944600000007" lon="1.5387569999999995">
        <ele>1072.8000000000009</ele>
        <time>2020-08-22T21:06:28Z</time>
      </trkpt>
      <trkpt lat="42.50945200000007" lon="1.5386919999999995">
        <ele>1072.700000000001</ele>
        <time>2020-08-22T21:06:33Z</time>
      </trkpt>
      <trkpt lat="42.50940700000007" lon="1.5386459999999995">
        <ele>1072.500000000001</ele>
        <time>2020-08-22T21:06:42Z</time>
      </trkpt>
      <trkpt lat="42.509408000000064" lon="1.5385439999999995">
        <ele>1072.200000000001</ele>
        <time>2020-08-22T21:06:52Z</time>
      </trkpt>
      <trkpt lat="42.50938900000006" lon="1.5384779999999996">
        <ele>1072.100000000001</ele>
        <time>2020-08-22T21:06:56Z</time>
      </trkpt>
      <trkpt lat="42.50940100000006" lon="1.5384179999999996">
        <ele>1072.0000000000011</ele>
        <time>2020-08-22T21:06:58Z</time>
      </trkpt>
      <trkpt lat="42.50937700000006" lon="1.5383639999999996">
        <ele>1071.800000000001</ele>
        <time>2020-08-22T21:07:02Z</time>
      </trkpt>
      <trkpt lat="42.509386000000056" lon="1.5383039999999997">
        <ele>1071.7000000000012</ele>
        <time>2020-08-22T21:07:07Z</time>
      </trkpt>
      <trkpt lat="42.50940800000006" lon="1.5382319999999996">
        <ele>1071.4000000000012</ele>
        <time>2020-08-22T21:07:13Z</time>
      </trkpt>
      <trkpt lat="42.509395000000055" lon="1.5381609999999997">
        <ele>1071.4000000000012</ele>
        <time>2020-08-22T21:07:17Z</time>
      </trkpt>
      <trkpt lat="42.50938800000006" lon="1.5380969999999996">
        <ele>1071.2000000000012</ele>
        <time>2020-08-22T21:07:20Z</time>
      </trkpt>
      <trkpt lat="42.509395000000055" lon="1.5380319999999996">
        <ele>1070.9000000000012</ele>
        <time>2020-08-22T21:07:24Z</time>
      </trkpt>
      <trkpt lat="42.509443000000054" lon="1.5379939999999996">
        <ele>1070.6000000000013</ele>
        <time>2020-08-22T21:07:28Z</time>
      </trkpt>
      <trkpt lat="42.509395000000055" lon="1.5379449999999997">
        <ele>1070.3000000000013</ele>
        <time>2020-08-22T21:07:32Z</time>
      </trkpt>
      <trkpt lat="42.50934200000005" lon="1.5379249999999998">
        <ele>1070.3000000000013</ele>
        <time>2020-08-22T21:07:34Z</time>
      </trkpt>
      <trkpt lat="42.50928400000005" lon="1.5378569999999998">
        <ele>1070.2000000000014</ele>
        <time>2020-08-22T21:07:39Z</time>
      </trkpt>
      <trkpt lat="42.50933200000005" lon="1.5378579999999997">
        <ele>1069.7000000000014</ele>
        <time>2020-08-22T21:07:52Z</time>
      </trkpt>
      <trkpt lat="42.50936400000005" lon="1.5378099999999997">
        <ele>1069.7000000000014</ele>
        <time>2020-08-22T21:07:57Z</time>
      </trkpt>
      <trkpt lat="42.50936300000005" lon="1.5377419999999997">
        <ele>1069.3000000000013</ele>
        <time>2020-08-22T21:08:02Z</time>
      </trkpt>
      <trkpt lat="42.50933700000005" lon="1.5376839999999998">
        <ele>1069.0000000000014</ele>
        <time>2020-08-22T21:08:05Z</time>
      </trkpt>
      <trkpt lat="42.50931800000005" lon="1.5376159999999999">
        <ele>1068.7000000000014</ele>
        <time>2020-08-22T21:08:10Z</time>
      </trkpt>
      <trkpt lat="42.50929000000005" lon="1.537553">
        <ele>1068.5000000000014</ele>
        <time>2020-08-22T21:08:15Z</time>
      </trkpt>
      <trkpt lat="42.50927200000005" lon="1.537493">
        <ele>1068.3000000000013</ele>
        <time>2020-08-22T21:08:18Z</time>
      </trkpt>
      <trkpt lat="42.50929200000005" lon="1.537425">
        <ele>1068.0000000000014</ele>
        <time>2020-08-22T21:08:22Z</time>
      </trkpt>
      <trkpt lat="42.50928200000005" lon="1.537356">
        <ele>1067.8000000000013</ele>
        <time>2020-08-22T21:08:28Z</time>
      </trkpt>
      <trkpt lat="42.50929200000005" lon="1.537294">
        <ele>1067.8000000000013</ele>
        <time>2020-08-22T21:08:31Z</time>
      </trkpt>
      <trkpt lat="42.50928200000005" lon="1.537228">
        <ele>1067.6000000000013</ele>
        <time>2020-08-22T21:08:35Z</time>
      </trkpt>
      <trkpt lat="42.509272000000045" lon="1.537167">
        <ele>1067.7000000000012</ele>
        <time>2020-08-22T21:08:39Z</time>
      </trkpt>
      <trkpt lat="42.50922300000005" lon="1.5371249999999999">
        <ele>1067.7000000000012</ele>
        <time>2020-08-22T21:08:43Z</time>
      </trkpt>
      <trkpt lat="42.509241000000046" lon="1.5370689999999998">
        <ele>1067.300000000001</ele>
        <time>2020-08-22T21:08:48Z</time>
      </trkpt>
      <trkpt lat="42.50924200000004" lon="1.537003">
        <ele>1066.800000000001</ele>
        <time>2020-08-22T21:08:53Z</time>
      </trkpt>
      <trkpt lat="42.50924800000004" lon="1.536927">
        <ele>1066.5000000000011</ele>
        <time>2020-08-22T21:08:58Z</time>
      </trkpt>
      <trkpt lat="42.50924500000004" lon="1.536857">
        <ele>1066.300000000001</ele>
        <time>2020-08-22T21:09:02Z</time>
      </trkpt>
      <trkpt lat="42.509250000000044" lon="1.536795">
        <ele>1066.100000000001</ele>
        <time>2020-08-22T21:09:08Z</time>
      </trkpt>
      <trkpt lat="42.509266000000046" lon="1.536729">
        <ele>1065.900000000001</ele>
        <time>2020-08-22T21:09:13Z</time>
      </trkpt>
      <trkpt lat="42.50926300000005" lon="1.536658">
        <ele>1065.600000000001</ele>
        <time>2020-08-22T21:09:19Z</time>
      </trkpt>
      <trkpt lat="42.509264000000044" lon="1.5365820000000001">
        <ele>1065.300000000001</ele>
        <time>2020-08-22T21:09:24Z</time>
      </trkpt>
      <trkpt lat="42.50928500000004" lon="1.5365160000000002">
        <ele>1065.0000000000011</ele>
        <time>2020-08-22T21:09:28Z</time>
      </trkpt>
      <trkpt lat="42.50928300000004" lon="1.5364380000000002">
        <ele>1064.7000000000012</ele>
        <time>2020-08-22T21:09:32Z</time>
      </trkpt>
      <trkpt lat="42.50929200000004" lon="1.5363740000000001">
        <ele>1064.5000000000011</ele>
        <time>2020-08-22T21:09:36Z</time>
      </trkpt>
      <trkpt lat="42.509313000000034" lon="1.5363160000000002">
        <ele>1064.4000000000012</ele>
        <time>2020-08-22T21:09:40Z</time>
      </trkpt>
      <trkpt lat="42.509307000000035" lon="1.5362450000000003">
        <ele>1064.2000000000012</ele>
        <time>2020-08-22T21:09:45Z</time>
      </trkpt>
      <trkpt lat="42.50930000000004" lon="1.5361780000000003">
        <ele>1063.800000000001</ele>
        <time>2020-08-22T21:09:50Z</time>
      </trkpt>
      <trkpt lat="42.50928000000004" lon="1.5361060000000002">
        <ele>1063.400000000001</ele>
        <time>2020-08-22T21:09:56Z</time>
      </trkpt>
      <trkpt lat="42.50930000000004" lon="1.5360500000000001">
        <ele>1063.300000000001</ele>
        <time>2020-08-22T21:10:01Z</time>
      </trkpt>
      <trkpt lat="42.509290000000036" lon="1.5359870000000002">
        <ele>1063.100000000001</ele>
        <time>2020-08-22T21:10:06Z</time>
      </trkpt>
      <trkpt lat="42.509290000000036" lon="1.5359250000000002">
        <ele>1063.0000000000011</ele>
        <time>2020-08-22T21:10:09Z</time>
      </trkpt>
      <trkpt lat="42.50928100000004" lon="1.5358630000000002">
        <ele>1062.7000000000012</ele>
        <time>2020-08-22T21:10:16Z</time>
      </trkpt>
      <trkpt lat="42.509268000000034" lon="1.5358010000000002">
        <ele>1062.5000000000011</ele>
        <time>2020-08-22T21:10:19Z</time>
      </trkpt>
      <trkpt lat="42.509276000000035" lon="1.5357310000000002">
        <ele>1062.4000000000012</ele>
        <time>2020-08-22T21:10:23Z</time>
      </trkpt>
      <trkpt lat="42.509296000000035" lon="1.5356750000000001">
        <ele>1062.3000000000013</ele>
        <time>2020-08-22T21:10:28Z</time>
      </trkpt>
      <trkpt lat="42.509285000000034" lon="1.535598">
        <ele>1062.1000000000013</ele>
        <time>2020-08-22T21:10:32Z</time>
      </trkpt>
      <trkpt lat="42.509296000000035" lon="1.535529">
        <ele>1061.6000000000013</ele>
        <time>2020-08-22T21:10:39Z</time>
      </trkpt>
      <trkpt lat="42.50931200000004" lon="1.535471">
        <ele>1061.4000000000012</ele>
        <time>2020-08-22T21:10:44Z</time>
      </trkpt>
      <trkpt lat="42.50922400000004" lon="1.5354430000000001">
        <ele>1061.2000000000012</ele>
        <time>2020-08-22T21:10:48Z</time>
      </trkpt>
      <trkpt lat="42.50917900000004" lon="1.535409">
        <ele>1061.1000000000013</ele>
        <time>2020-08-22T21:10:50Z</time>
      </trkpt>
    </trkseg>
  </trk>
</gpx>
